<?xml version="1.0" encoding="UTF-8" standalone="no" ?>
<gpx xmlns="http://www.topografix.com/GPX/1/1" xmlns:xsi="http://www.w3.org/2001/XMLSchema-instance" xsi:schemaLocation="http://www.topografix.com/GPX/1/1 http://www.topografix.com/GPX/1/1/gpx.xsd" version="1.1" creator="VisuGPX - https://www.visugpx.com">
  <metadata>
    <name>montagne de la frau + grotte .aller, retour </name>
    <desc><![CDATA[Trace AlpineQuest 28/02/2021 9:10:44 AM]]></desc>
  </metadata>
  <trk>
    <name><![CDATA[montagne de la frau + grotte .aller, retour _1]]></name>
    <trkseg>
      <trkpt lat="42.86157" lon="1.82768">
        <ele>981.086</ele>
        <time>2021-02-28T08:10:44Z</time>
      </trkpt>
      <trkpt lat="42.86162" lon="1.8277">
        <ele>962.361</ele>
        <time>2021-02-28T08:10:46Z</time>
      </trkpt>
      <trkpt lat="42.86162" lon="1.82773">
        <ele>958.319</ele>
        <time>2021-02-28T08:10:48Z</time>
      </trkpt>
      <trkpt lat="42.86161" lon="1.82777">
        <ele>949.623</ele>
        <time>2021-02-28T08:10:50Z</time>
      </trkpt>
      <trkpt lat="42.8616" lon="1.82783">
        <ele>945.273</ele>
        <time>2021-02-28T08:10:52Z</time>
      </trkpt>
      <trkpt lat="42.86159" lon="1.82783">
        <ele>941.162</ele>
        <time>2021-02-28T08:10:54Z</time>
      </trkpt>
      <trkpt lat="42.86159" lon="1.82784">
        <ele>941.085</ele>
        <time>2021-02-28T08:10:56Z</time>
      </trkpt>
      <trkpt lat="42.86158" lon="1.82787">
        <ele>944.461</ele>
        <time>2021-02-28T08:10:58Z</time>
      </trkpt>
      <trkpt lat="42.86157" lon="1.82788">
        <ele>945.485</ele>
        <time>2021-02-28T08:11:00Z</time>
      </trkpt>
      <trkpt lat="42.86156" lon="1.82787">
        <ele>944.728</ele>
        <time>2021-02-28T08:11:02Z</time>
      </trkpt>
      <trkpt lat="42.86156" lon="1.82788">
        <ele>945.683</ele>
        <time>2021-02-28T08:11:04Z</time>
      </trkpt>
      <trkpt lat="42.86156" lon="1.82788">
        <ele>946.161</ele>
        <time>2021-02-28T08:11:06Z</time>
      </trkpt>
      <trkpt lat="42.86156" lon="1.82788">
        <ele>946.053</ele>
        <time>2021-02-28T08:11:08Z</time>
      </trkpt>
      <trkpt lat="42.86157" lon="1.82789">
        <ele>945.645</ele>
        <time>2021-02-28T08:11:10Z</time>
      </trkpt>
      <trkpt lat="42.86156" lon="1.8279">
        <ele>944.197</ele>
        <time>2021-02-28T08:11:12Z</time>
      </trkpt>
      <trkpt lat="42.86156" lon="1.82791">
        <ele>942.637</ele>
        <time>2021-02-28T08:11:14Z</time>
      </trkpt>
      <trkpt lat="42.86155" lon="1.82791">
        <ele>941.559</ele>
        <time>2021-02-28T08:11:16Z</time>
      </trkpt>
      <trkpt lat="42.86155" lon="1.82792">
        <ele>941.263</ele>
        <time>2021-02-28T08:11:18Z</time>
      </trkpt>
      <trkpt lat="42.86155" lon="1.82792">
        <ele>940.323</ele>
        <time>2021-02-28T08:11:20Z</time>
      </trkpt>
      <trkpt lat="42.86154" lon="1.82792">
        <ele>939.419</ele>
        <time>2021-02-28T08:11:22Z</time>
      </trkpt>
      <trkpt lat="42.86154" lon="1.82792">
        <ele>939.376</ele>
        <time>2021-02-28T08:11:24Z</time>
      </trkpt>
      <trkpt lat="42.86154" lon="1.82792">
        <ele>938.234</ele>
        <time>2021-02-28T08:11:26Z</time>
      </trkpt>
      <trkpt lat="42.86155" lon="1.82792">
        <ele>935.319</ele>
        <time>2021-02-28T08:11:28Z</time>
      </trkpt>
      <trkpt lat="42.86156" lon="1.8279">
        <ele>934.766</ele>
        <time>2021-02-28T08:11:30Z</time>
      </trkpt>
      <trkpt lat="42.86156" lon="1.8279">
        <ele>934.178</ele>
        <time>2021-02-28T08:11:32Z</time>
      </trkpt>
      <trkpt lat="42.86156" lon="1.8279">
        <ele>934.693</ele>
        <time>2021-02-28T08:11:34Z</time>
      </trkpt>
      <trkpt lat="42.86156" lon="1.82791">
        <ele>933.663</ele>
        <time>2021-02-28T08:11:36Z</time>
      </trkpt>
      <trkpt lat="42.86156" lon="1.82791">
        <ele>938.135</ele>
        <time>2021-02-28T08:11:38Z</time>
      </trkpt>
      <trkpt lat="42.86156" lon="1.82791">
        <ele>937.208</ele>
        <time>2021-02-28T08:11:40Z</time>
      </trkpt>
      <trkpt lat="42.86156" lon="1.8279">
        <ele>936.107</ele>
        <time>2021-02-28T08:11:42Z</time>
      </trkpt>
      <trkpt lat="42.86156" lon="1.8279">
        <ele>936.376</ele>
        <time>2021-02-28T08:11:44Z</time>
      </trkpt>
      <trkpt lat="42.86155" lon="1.8279">
        <ele>936.664</ele>
        <time>2021-02-28T08:11:46Z</time>
      </trkpt>
      <trkpt lat="42.86156" lon="1.8279">
        <ele>935.702</ele>
        <time>2021-02-28T08:11:48Z</time>
      </trkpt>
      <trkpt lat="42.86156" lon="1.8279">
        <ele>935.001</ele>
        <time>2021-02-28T08:11:50Z</time>
      </trkpt>
      <trkpt lat="42.86156" lon="1.82789">
        <ele>935.319</ele>
        <time>2021-02-28T08:11:52Z</time>
      </trkpt>
      <trkpt lat="42.86156" lon="1.82789">
        <ele>934.711</ele>
        <time>2021-02-28T08:11:54Z</time>
      </trkpt>
      <trkpt lat="42.86156" lon="1.82789">
        <ele>934.342</ele>
        <time>2021-02-28T08:11:56Z</time>
      </trkpt>
      <trkpt lat="42.86155" lon="1.82789">
        <ele>933.479</ele>
        <time>2021-02-28T08:11:58Z</time>
      </trkpt>
      <trkpt lat="42.86155" lon="1.82789">
        <ele>934.613</ele>
        <time>2021-02-28T08:12:00Z</time>
      </trkpt>
      <trkpt lat="42.86154" lon="1.82788">
        <ele>935.478</ele>
        <time>2021-02-28T08:12:02Z</time>
      </trkpt>
      <trkpt lat="42.86151" lon="1.82787">
        <ele>934.905</ele>
        <time>2021-02-28T08:12:04Z</time>
      </trkpt>
      <trkpt lat="42.86149" lon="1.82786">
        <ele>933.554</ele>
        <time>2021-02-28T08:12:06Z</time>
      </trkpt>
      <trkpt lat="42.86147" lon="1.82784">
        <ele>933.301</ele>
        <time>2021-02-28T08:12:08Z</time>
      </trkpt>
      <trkpt lat="42.86145" lon="1.82783">
        <ele>932.792</ele>
        <time>2021-02-28T08:12:10Z</time>
      </trkpt>
      <trkpt lat="42.86142" lon="1.82782">
        <ele>932.207</ele>
        <time>2021-02-28T08:12:12Z</time>
      </trkpt>
      <trkpt lat="42.8614" lon="1.8278">
        <ele>931.148</ele>
        <time>2021-02-28T08:12:14Z</time>
      </trkpt>
      <trkpt lat="42.86137" lon="1.82779">
        <ele>931.136</ele>
        <time>2021-02-28T08:12:16Z</time>
      </trkpt>
      <trkpt lat="42.86135" lon="1.82776">
        <ele>930.996</ele>
        <time>2021-02-28T08:12:18Z</time>
      </trkpt>
      <trkpt lat="42.86133" lon="1.82775">
        <ele>930.311</ele>
        <time>2021-02-28T08:12:20Z</time>
      </trkpt>
      <trkpt lat="42.86131" lon="1.82775">
        <ele>928.527</ele>
        <time>2021-02-28T08:12:22Z</time>
      </trkpt>
      <trkpt lat="42.86131" lon="1.82776">
        <ele>928.645</ele>
        <time>2021-02-28T08:12:24Z</time>
      </trkpt>
      <trkpt lat="42.86131" lon="1.82776">
        <ele>928.629</ele>
        <time>2021-02-28T08:12:26Z</time>
      </trkpt>
      <trkpt lat="42.86131" lon="1.82776">
        <ele>928.631</ele>
        <time>2021-02-28T08:12:28Z</time>
      </trkpt>
      <trkpt lat="42.8613" lon="1.82776">
        <ele>928.553</ele>
        <time>2021-02-28T08:12:30Z</time>
      </trkpt>
      <trkpt lat="42.86128" lon="1.82775">
        <ele>927.351</ele>
        <time>2021-02-28T08:12:32Z</time>
      </trkpt>
      <trkpt lat="42.86126" lon="1.82775">
        <ele>927.711</ele>
        <time>2021-02-28T08:12:34Z</time>
      </trkpt>
      <trkpt lat="42.86124" lon="1.82775">
        <ele>926.594</ele>
        <time>2021-02-28T08:12:36Z</time>
      </trkpt>
      <trkpt lat="42.86122" lon="1.82775">
        <ele>928.177</ele>
        <time>2021-02-28T08:12:38Z</time>
      </trkpt>
      <trkpt lat="42.8612" lon="1.82774">
        <ele>928.255</ele>
        <time>2021-02-28T08:12:40Z</time>
      </trkpt>
      <trkpt lat="42.86118" lon="1.82774">
        <ele>927.153</ele>
        <time>2021-02-28T08:12:42Z</time>
      </trkpt>
      <trkpt lat="42.86117" lon="1.82774">
        <ele>927.127</ele>
        <time>2021-02-28T08:12:44Z</time>
      </trkpt>
      <trkpt lat="42.86115" lon="1.82774">
        <ele>927.503</ele>
        <time>2021-02-28T08:12:46Z</time>
      </trkpt>
      <trkpt lat="42.86115" lon="1.82774">
        <ele>927.529</ele>
        <time>2021-02-28T08:12:48Z</time>
      </trkpt>
      <trkpt lat="42.86115" lon="1.82774">
        <ele>927.501</ele>
        <time>2021-02-28T08:12:50Z</time>
      </trkpt>
      <trkpt lat="42.86113" lon="1.82774">
        <ele>926.519</ele>
        <time>2021-02-28T08:12:52Z</time>
      </trkpt>
      <trkpt lat="42.86111" lon="1.82774">
        <ele>923.821</ele>
        <time>2021-02-28T08:12:54Z</time>
      </trkpt>
      <trkpt lat="42.86108" lon="1.82774">
        <ele>923.105</ele>
        <time>2021-02-28T08:12:56Z</time>
      </trkpt>
      <trkpt lat="42.86105" lon="1.82774">
        <ele>922.737</ele>
        <time>2021-02-28T08:12:58Z</time>
      </trkpt>
      <trkpt lat="42.86102" lon="1.82774">
        <ele>922.526</ele>
        <time>2021-02-28T08:13:00Z</time>
      </trkpt>
      <trkpt lat="42.86099" lon="1.82774">
        <ele>922.193</ele>
        <time>2021-02-28T08:13:02Z</time>
      </trkpt>
      <trkpt lat="42.86096" lon="1.82774">
        <ele>921.273</ele>
        <time>2021-02-28T08:13:04Z</time>
      </trkpt>
      <trkpt lat="42.86093" lon="1.82773">
        <ele>920.592</ele>
        <time>2021-02-28T08:13:06Z</time>
      </trkpt>
      <trkpt lat="42.86091" lon="1.82773">
        <ele>920.595</ele>
        <time>2021-02-28T08:13:08Z</time>
      </trkpt>
      <trkpt lat="42.86088" lon="1.82772">
        <ele>919.584</ele>
        <time>2021-02-28T08:13:10Z</time>
      </trkpt>
      <trkpt lat="42.86085" lon="1.82772">
        <ele>919.452</ele>
        <time>2021-02-28T08:13:12Z</time>
      </trkpt>
      <trkpt lat="42.86082" lon="1.82771">
        <ele>919.455</ele>
        <time>2021-02-28T08:13:14Z</time>
      </trkpt>
      <trkpt lat="42.8608" lon="1.82771">
        <ele>919.837</ele>
        <time>2021-02-28T08:13:16Z</time>
      </trkpt>
      <trkpt lat="42.86078" lon="1.8277">
        <ele>920.025</ele>
        <time>2021-02-28T08:13:18Z</time>
      </trkpt>
      <trkpt lat="42.86076" lon="1.82771">
        <ele>918.857</ele>
        <time>2021-02-28T08:13:20Z</time>
      </trkpt>
      <trkpt lat="42.86073" lon="1.8277">
        <ele>916.712</ele>
        <time>2021-02-28T08:13:22Z</time>
      </trkpt>
      <trkpt lat="42.86071" lon="1.82769">
        <ele>914.456</ele>
        <time>2021-02-28T08:13:24Z</time>
      </trkpt>
      <trkpt lat="42.86068" lon="1.82768">
        <ele>913.446</ele>
        <time>2021-02-28T08:13:26Z</time>
      </trkpt>
      <trkpt lat="42.86066" lon="1.82767">
        <ele>911.435</ele>
        <time>2021-02-28T08:13:28Z</time>
      </trkpt>
      <trkpt lat="42.86064" lon="1.82766">
        <ele>910.194</ele>
        <time>2021-02-28T08:13:30Z</time>
      </trkpt>
      <trkpt lat="42.86061" lon="1.82765">
        <ele>910.465</ele>
        <time>2021-02-28T08:13:32Z</time>
      </trkpt>
      <trkpt lat="42.86059" lon="1.82765">
        <ele>910.599</ele>
        <time>2021-02-28T08:13:34Z</time>
      </trkpt>
      <trkpt lat="42.86056" lon="1.82765">
        <ele>908.734</ele>
        <time>2021-02-28T08:13:36Z</time>
      </trkpt>
      <trkpt lat="42.86053" lon="1.82764">
        <ele>908.614</ele>
        <time>2021-02-28T08:13:38Z</time>
      </trkpt>
      <trkpt lat="42.8605" lon="1.82764">
        <ele>909.259</ele>
        <time>2021-02-28T08:13:40Z</time>
      </trkpt>
      <trkpt lat="42.86048" lon="1.82765">
        <ele>909.378</ele>
        <time>2021-02-28T08:13:42Z</time>
      </trkpt>
      <trkpt lat="42.86045" lon="1.82765">
        <ele>909.537</ele>
        <time>2021-02-28T08:13:44Z</time>
      </trkpt>
      <trkpt lat="42.86042" lon="1.82765">
        <ele>909.021</ele>
        <time>2021-02-28T08:13:46Z</time>
      </trkpt>
      <trkpt lat="42.86039" lon="1.82765">
        <ele>909.118</ele>
        <time>2021-02-28T08:13:48Z</time>
      </trkpt>
      <trkpt lat="42.86037" lon="1.82765">
        <ele>908.61</ele>
        <time>2021-02-28T08:13:50Z</time>
      </trkpt>
      <trkpt lat="42.86034" lon="1.82766">
        <ele>907.691</ele>
        <time>2021-02-28T08:13:52Z</time>
      </trkpt>
      <trkpt lat="42.86032" lon="1.82766">
        <ele>908.113</ele>
        <time>2021-02-28T08:13:54Z</time>
      </trkpt>
      <trkpt lat="42.8603" lon="1.82767">
        <ele>908.778</ele>
        <time>2021-02-28T08:13:56Z</time>
      </trkpt>
      <trkpt lat="42.86028" lon="1.82768">
        <ele>908.702</ele>
        <time>2021-02-28T08:13:58Z</time>
      </trkpt>
      <trkpt lat="42.86026" lon="1.82769">
        <ele>909.835</ele>
        <time>2021-02-28T08:14:00Z</time>
      </trkpt>
      <trkpt lat="42.86023" lon="1.8277">
        <ele>909.914</ele>
        <time>2021-02-28T08:14:02Z</time>
      </trkpt>
      <trkpt lat="42.86021" lon="1.82771">
        <ele>910.714</ele>
        <time>2021-02-28T08:14:04Z</time>
      </trkpt>
      <trkpt lat="42.8602" lon="1.82771">
        <ele>910.633</ele>
        <time>2021-02-28T08:14:06Z</time>
      </trkpt>
      <trkpt lat="42.86019" lon="1.82772">
        <ele>911.059</ele>
        <time>2021-02-28T08:14:08Z</time>
      </trkpt>
      <trkpt lat="42.86017" lon="1.82774">
        <ele>910.985</ele>
        <time>2021-02-28T08:14:10Z</time>
      </trkpt>
      <trkpt lat="42.86015" lon="1.82775">
        <ele>911.152</ele>
        <time>2021-02-28T08:14:12Z</time>
      </trkpt>
      <trkpt lat="42.86014" lon="1.82777">
        <ele>911.25</ele>
        <time>2021-02-28T08:14:14Z</time>
      </trkpt>
      <trkpt lat="42.86013" lon="1.82778">
        <ele>912.736</ele>
        <time>2021-02-28T08:14:16Z</time>
      </trkpt>
      <trkpt lat="42.86011" lon="1.8278">
        <ele>913.38</ele>
        <time>2021-02-28T08:14:18Z</time>
      </trkpt>
      <trkpt lat="42.8601" lon="1.82783">
        <ele>914.198</ele>
        <time>2021-02-28T08:14:20Z</time>
      </trkpt>
      <trkpt lat="42.86008" lon="1.82785">
        <ele>914.107</ele>
        <time>2021-02-28T08:14:22Z</time>
      </trkpt>
      <trkpt lat="42.86006" lon="1.82787">
        <ele>914.43</ele>
        <time>2021-02-28T08:14:24Z</time>
      </trkpt>
      <trkpt lat="42.86004" lon="1.82788">
        <ele>914.904</ele>
        <time>2021-02-28T08:14:26Z</time>
      </trkpt>
      <trkpt lat="42.86003" lon="1.8279">
        <ele>916.134</ele>
        <time>2021-02-28T08:14:28Z</time>
      </trkpt>
      <trkpt lat="42.86001" lon="1.82791">
        <ele>916.06</ele>
        <time>2021-02-28T08:14:30Z</time>
      </trkpt>
      <trkpt lat="42.85999" lon="1.82793">
        <ele>917.193</ele>
        <time>2021-02-28T08:14:32Z</time>
      </trkpt>
      <trkpt lat="42.85998" lon="1.82794">
        <ele>918.744</ele>
        <time>2021-02-28T08:14:34Z</time>
      </trkpt>
      <trkpt lat="42.85996" lon="1.82795">
        <ele>919.035</ele>
        <time>2021-02-28T08:14:36Z</time>
      </trkpt>
      <trkpt lat="42.85994" lon="1.82795">
        <ele>918.825</ele>
        <time>2021-02-28T08:14:38Z</time>
      </trkpt>
      <trkpt lat="42.85992" lon="1.82794">
        <ele>919.051</ele>
        <time>2021-02-28T08:14:40Z</time>
      </trkpt>
      <trkpt lat="42.8599" lon="1.82794">
        <ele>919.013</ele>
        <time>2021-02-28T08:14:42Z</time>
      </trkpt>
      <trkpt lat="42.85989" lon="1.82793">
        <ele>919.988</ele>
        <time>2021-02-28T08:14:44Z</time>
      </trkpt>
      <trkpt lat="42.85988" lon="1.82793">
        <ele>918.64</ele>
        <time>2021-02-28T08:14:46Z</time>
      </trkpt>
      <trkpt lat="42.85988" lon="1.82794">
        <ele>922.141</ele>
        <time>2021-02-28T08:14:48Z</time>
      </trkpt>
      <trkpt lat="42.85989" lon="1.82794">
        <ele>921.11</ele>
        <time>2021-02-28T08:14:50Z</time>
      </trkpt>
      <trkpt lat="42.85991" lon="1.82794">
        <ele>919.152</ele>
        <time>2021-02-28T08:14:52Z</time>
      </trkpt>
      <trkpt lat="42.85994" lon="1.82794">
        <ele>919.055</ele>
        <time>2021-02-28T08:14:54Z</time>
      </trkpt>
      <trkpt lat="42.85996" lon="1.82793">
        <ele>918.509</ele>
        <time>2021-02-28T08:14:56Z</time>
      </trkpt>
      <trkpt lat="42.85999" lon="1.82792">
        <ele>918.726</ele>
        <time>2021-02-28T08:14:58Z</time>
      </trkpt>
      <trkpt lat="42.86001" lon="1.8279">
        <ele>919.207</ele>
        <time>2021-02-28T08:15:00Z</time>
      </trkpt>
      <trkpt lat="42.86001" lon="1.82789">
        <ele>918.641</ele>
        <time>2021-02-28T08:15:02Z</time>
      </trkpt>
      <trkpt lat="42.86003" lon="1.82788">
        <ele>919.418</ele>
        <time>2021-02-28T08:15:04Z</time>
      </trkpt>
      <trkpt lat="42.86005" lon="1.82786">
        <ele>919.661</ele>
        <time>2021-02-28T08:15:06Z</time>
      </trkpt>
      <trkpt lat="42.86007" lon="1.82784">
        <ele>920.14</ele>
        <time>2021-02-28T08:15:08Z</time>
      </trkpt>
      <trkpt lat="42.86008" lon="1.82782">
        <ele>919.961</ele>
        <time>2021-02-28T08:15:10Z</time>
      </trkpt>
      <trkpt lat="42.86011" lon="1.8278">
        <ele>919.331</ele>
        <time>2021-02-28T08:15:12Z</time>
      </trkpt>
      <trkpt lat="42.86013" lon="1.82779">
        <ele>919.803</ele>
        <time>2021-02-28T08:15:14Z</time>
      </trkpt>
      <trkpt lat="42.86015" lon="1.82777">
        <ele>919.352</ele>
        <time>2021-02-28T08:15:16Z</time>
      </trkpt>
      <trkpt lat="42.86016" lon="1.82774">
        <ele>919.347</ele>
        <time>2021-02-28T08:15:18Z</time>
      </trkpt>
      <trkpt lat="42.86015" lon="1.82771">
        <ele>919.675</ele>
        <time>2021-02-28T08:15:20Z</time>
      </trkpt>
      <trkpt lat="42.86013" lon="1.82769">
        <ele>918.984</ele>
        <time>2021-02-28T08:15:22Z</time>
      </trkpt>
      <trkpt lat="42.86012" lon="1.82766">
        <ele>922.042</ele>
        <time>2021-02-28T08:15:24Z</time>
      </trkpt>
      <trkpt lat="42.86009" lon="1.82765">
        <ele>921.592</ele>
        <time>2021-02-28T08:15:26Z</time>
      </trkpt>
      <trkpt lat="42.86007" lon="1.82764">
        <ele>921.395</ele>
        <time>2021-02-28T08:15:28Z</time>
      </trkpt>
      <trkpt lat="42.86006" lon="1.82763">
        <ele>921.635</ele>
        <time>2021-02-28T08:15:29Z</time>
      </trkpt>
      <trkpt lat="42.86004" lon="1.82762">
        <ele>920.853</ele>
        <time>2021-02-28T08:15:32Z</time>
      </trkpt>
      <trkpt lat="42.86002" lon="1.82761">
        <ele>920.391</ele>
        <time>2021-02-28T08:15:34Z</time>
      </trkpt>
      <trkpt lat="42.86" lon="1.82759">
        <ele>920.995</ele>
        <time>2021-02-28T08:15:36Z</time>
      </trkpt>
      <trkpt lat="42.85998" lon="1.82756">
        <ele>921.772</ele>
        <time>2021-02-28T08:15:38Z</time>
      </trkpt>
      <trkpt lat="42.85996" lon="1.82753">
        <ele>921.147</ele>
        <time>2021-02-28T08:15:40Z</time>
      </trkpt>
      <trkpt lat="42.85994" lon="1.82751">
        <ele>922.422</ele>
        <time>2021-02-28T08:15:42Z</time>
      </trkpt>
      <trkpt lat="42.85992" lon="1.82748">
        <ele>922.618</ele>
        <time>2021-02-28T08:15:44Z</time>
      </trkpt>
      <trkpt lat="42.8599" lon="1.82747">
        <ele>924.025</ele>
        <time>2021-02-28T08:15:46Z</time>
      </trkpt>
      <trkpt lat="42.85988" lon="1.82744">
        <ele>924.133</ele>
        <time>2021-02-28T08:15:48Z</time>
      </trkpt>
      <trkpt lat="42.85986" lon="1.82743">
        <ele>924.158</ele>
        <time>2021-02-28T08:15:50Z</time>
      </trkpt>
      <trkpt lat="42.85983" lon="1.82741">
        <ele>924.284</ele>
        <time>2021-02-28T08:15:53Z</time>
      </trkpt>
      <trkpt lat="42.85981" lon="1.82739">
        <ele>925.307</ele>
        <time>2021-02-28T08:15:55Z</time>
      </trkpt>
      <trkpt lat="42.85978" lon="1.82739">
        <ele>925.991</ele>
        <time>2021-02-28T08:15:57Z</time>
      </trkpt>
      <trkpt lat="42.85977" lon="1.82738">
        <ele>925.74</ele>
        <time>2021-02-28T08:15:59Z</time>
      </trkpt>
      <trkpt lat="42.85975" lon="1.82738">
        <ele>924.86</ele>
        <time>2021-02-28T08:16:01Z</time>
      </trkpt>
      <trkpt lat="42.85972" lon="1.82737">
        <ele>924.611</ele>
        <time>2021-02-28T08:16:03Z</time>
      </trkpt>
      <trkpt lat="42.8597" lon="1.82736">
        <ele>924.142</ele>
        <time>2021-02-28T08:16:05Z</time>
      </trkpt>
      <trkpt lat="42.85966" lon="1.82734">
        <ele>925.989</ele>
        <time>2021-02-28T08:16:08Z</time>
      </trkpt>
      <trkpt lat="42.85964" lon="1.82734">
        <ele>926.675</ele>
        <time>2021-02-28T08:16:10Z</time>
      </trkpt>
      <trkpt lat="42.85962" lon="1.82733">
        <ele>928.394</ele>
        <time>2021-02-28T08:16:12Z</time>
      </trkpt>
      <trkpt lat="42.85959" lon="1.82734">
        <ele>924.867</ele>
        <time>2021-02-28T08:16:14Z</time>
      </trkpt>
      <trkpt lat="42.85955" lon="1.82734">
        <ele>924.023</ele>
        <time>2021-02-28T08:16:17Z</time>
      </trkpt>
      <trkpt lat="42.85953" lon="1.82734">
        <ele>925.668</ele>
        <time>2021-02-28T08:16:19Z</time>
      </trkpt>
      <trkpt lat="42.8595" lon="1.82735">
        <ele>926.028</ele>
        <time>2021-02-28T08:16:21Z</time>
      </trkpt>
      <trkpt lat="42.85949" lon="1.82735">
        <ele>927.395</ele>
        <time>2021-02-28T08:16:22Z</time>
      </trkpt>
      <trkpt lat="42.85945" lon="1.82736">
        <ele>929.054</ele>
        <time>2021-02-28T08:16:25Z</time>
      </trkpt>
      <trkpt lat="42.85943" lon="1.82737">
        <ele>929.051</ele>
        <time>2021-02-28T08:16:27Z</time>
      </trkpt>
      <trkpt lat="42.8594" lon="1.82738">
        <ele>928.53</ele>
        <time>2021-02-28T08:16:29Z</time>
      </trkpt>
      <trkpt lat="42.85938" lon="1.82738">
        <ele>926.945</ele>
        <time>2021-02-28T08:16:31Z</time>
      </trkpt>
      <trkpt lat="42.85934" lon="1.82739">
        <ele>925.292</ele>
        <time>2021-02-28T08:16:34Z</time>
      </trkpt>
      <trkpt lat="42.85932" lon="1.82739">
        <ele>924.29</ele>
        <time>2021-02-28T08:16:36Z</time>
      </trkpt>
      <trkpt lat="42.8593" lon="1.82739">
        <ele>923.784</ele>
        <time>2021-02-28T08:16:38Z</time>
      </trkpt>
      <trkpt lat="42.85927" lon="1.8274">
        <ele>924.695</ele>
        <time>2021-02-28T08:16:40Z</time>
      </trkpt>
      <trkpt lat="42.85926" lon="1.8274">
        <ele>925.44</ele>
        <time>2021-02-28T08:16:41Z</time>
      </trkpt>
      <trkpt lat="42.85922" lon="1.82741">
        <ele>926.02</ele>
        <time>2021-02-28T08:16:44Z</time>
      </trkpt>
      <trkpt lat="42.85919" lon="1.82742">
        <ele>926.635</ele>
        <time>2021-02-28T08:16:46Z</time>
      </trkpt>
      <trkpt lat="42.85917" lon="1.82742">
        <ele>925.888</ele>
        <time>2021-02-28T08:16:48Z</time>
      </trkpt>
      <trkpt lat="42.85914" lon="1.82743">
        <ele>925.541</ele>
        <time>2021-02-28T08:16:50Z</time>
      </trkpt>
      <trkpt lat="42.8591" lon="1.82744">
        <ele>925.785</ele>
        <time>2021-02-28T08:16:53Z</time>
      </trkpt>
      <trkpt lat="42.85911" lon="1.82743">
        <ele>924.273</ele>
        <time>2021-02-28T08:16:55Z</time>
      </trkpt>
      <trkpt lat="42.8591" lon="1.82744">
        <ele>925.734</ele>
        <time>2021-02-28T08:16:57Z</time>
      </trkpt>
      <trkpt lat="42.85907" lon="1.82746">
        <ele>926.306</ele>
        <time>2021-02-28T08:16:59Z</time>
      </trkpt>
      <trkpt lat="42.85905" lon="1.82746">
        <ele>925.633</ele>
        <time>2021-02-28T08:17:01Z</time>
      </trkpt>
      <trkpt lat="42.85902" lon="1.82748">
        <ele>923.549</ele>
        <time>2021-02-28T08:17:04Z</time>
      </trkpt>
      <trkpt lat="42.859" lon="1.8275">
        <ele>923.492</ele>
        <time>2021-02-28T08:17:06Z</time>
      </trkpt>
      <trkpt lat="42.85898" lon="1.82751">
        <ele>923.917</ele>
        <time>2021-02-28T08:17:08Z</time>
      </trkpt>
      <trkpt lat="42.85896" lon="1.82753">
        <ele>924.399</ele>
        <time>2021-02-28T08:17:10Z</time>
      </trkpt>
      <trkpt lat="42.85894" lon="1.82755">
        <ele>924.475</ele>
        <time>2021-02-28T08:17:12Z</time>
      </trkpt>
      <trkpt lat="42.85893" lon="1.82757">
        <ele>924.725</ele>
        <time>2021-02-28T08:17:14Z</time>
      </trkpt>
      <trkpt lat="42.85891" lon="1.82759">
        <ele>924.508</ele>
        <time>2021-02-28T08:17:16Z</time>
      </trkpt>
      <trkpt lat="42.85889" lon="1.82761">
        <ele>924.961</ele>
        <time>2021-02-28T08:17:18Z</time>
      </trkpt>
      <trkpt lat="42.85886" lon="1.82764">
        <ele>928.127</ele>
        <time>2021-02-28T08:17:21Z</time>
      </trkpt>
      <trkpt lat="42.85884" lon="1.82767">
        <ele>928.191</ele>
        <time>2021-02-28T08:17:23Z</time>
      </trkpt>
      <trkpt lat="42.85882" lon="1.82769">
        <ele>930.447</ele>
        <time>2021-02-28T08:17:25Z</time>
      </trkpt>
      <trkpt lat="42.8588" lon="1.82771">
        <ele>930.82</ele>
        <time>2021-02-28T08:17:27Z</time>
      </trkpt>
      <trkpt lat="42.85878" lon="1.82773">
        <ele>932.209</ele>
        <time>2021-02-28T08:17:29Z</time>
      </trkpt>
      <trkpt lat="42.85876" lon="1.82775">
        <ele>932.95</ele>
        <time>2021-02-28T08:17:31Z</time>
      </trkpt>
      <trkpt lat="42.85874" lon="1.82777">
        <ele>931.548</ele>
        <time>2021-02-28T08:17:33Z</time>
      </trkpt>
      <trkpt lat="42.85872" lon="1.82781">
        <ele>930.756</ele>
        <time>2021-02-28T08:17:36Z</time>
      </trkpt>
      <trkpt lat="42.8587" lon="1.82783">
        <ele>931.421</ele>
        <time>2021-02-28T08:17:38Z</time>
      </trkpt>
      <trkpt lat="42.85868" lon="1.82785">
        <ele>931.741</ele>
        <time>2021-02-28T08:17:40Z</time>
      </trkpt>
      <trkpt lat="42.85867" lon="1.82787">
        <ele>931.306</ele>
        <time>2021-02-28T08:17:42Z</time>
      </trkpt>
      <trkpt lat="42.85864" lon="1.8279">
        <ele>931.964</ele>
        <time>2021-02-28T08:17:44Z</time>
      </trkpt>
      <trkpt lat="42.85861" lon="1.82792">
        <ele>931.985</ele>
        <time>2021-02-28T08:17:47Z</time>
      </trkpt>
      <trkpt lat="42.85859" lon="1.82794">
        <ele>934.603</ele>
        <time>2021-02-28T08:17:49Z</time>
      </trkpt>
      <trkpt lat="42.85857" lon="1.82797">
        <ele>935.994</ele>
        <time>2021-02-28T08:17:51Z</time>
      </trkpt>
      <trkpt lat="42.85855" lon="1.82798">
        <ele>935.239</ele>
        <time>2021-02-28T08:17:53Z</time>
      </trkpt>
      <trkpt lat="42.85853" lon="1.82801">
        <ele>937.364</ele>
        <time>2021-02-28T08:17:55Z</time>
      </trkpt>
      <trkpt lat="42.85852" lon="1.82803">
        <ele>938.039</ele>
        <time>2021-02-28T08:17:57Z</time>
      </trkpt>
      <trkpt lat="42.8585" lon="1.82804">
        <ele>937.289</ele>
        <time>2021-02-28T08:17:59Z</time>
      </trkpt>
      <trkpt lat="42.85848" lon="1.82806">
        <ele>937.039</ele>
        <time>2021-02-28T08:18:01Z</time>
      </trkpt>
      <trkpt lat="42.85846" lon="1.82808">
        <ele>935.834</ele>
        <time>2021-02-28T08:18:03Z</time>
      </trkpt>
      <trkpt lat="42.85844" lon="1.8281">
        <ele>935.512</ele>
        <time>2021-02-28T08:18:05Z</time>
      </trkpt>
      <trkpt lat="42.85842" lon="1.82812">
        <ele>935.289</ele>
        <time>2021-02-28T08:18:07Z</time>
      </trkpt>
      <trkpt lat="42.8584" lon="1.82813">
        <ele>934.773</ele>
        <time>2021-02-28T08:18:09Z</time>
      </trkpt>
      <trkpt lat="42.85839" lon="1.82815">
        <ele>933.351</ele>
        <time>2021-02-28T08:18:11Z</time>
      </trkpt>
      <trkpt lat="42.85837" lon="1.82817">
        <ele>931.891</ele>
        <time>2021-02-28T08:18:13Z</time>
      </trkpt>
      <trkpt lat="42.85836" lon="1.8282">
        <ele>931.435</ele>
        <time>2021-02-28T08:18:15Z</time>
      </trkpt>
      <trkpt lat="42.85835" lon="1.82822">
        <ele>930.581</ele>
        <time>2021-02-28T08:18:17Z</time>
      </trkpt>
      <trkpt lat="42.85834" lon="1.82824">
        <ele>930.378</ele>
        <time>2021-02-28T08:18:19Z</time>
      </trkpt>
      <trkpt lat="42.85832" lon="1.82827">
        <ele>930.708</ele>
        <time>2021-02-28T08:18:21Z</time>
      </trkpt>
      <trkpt lat="42.85832" lon="1.8283">
        <ele>931.002</ele>
        <time>2021-02-28T08:18:23Z</time>
      </trkpt>
      <trkpt lat="42.85831" lon="1.82832">
        <ele>931.321</ele>
        <time>2021-02-28T08:18:25Z</time>
      </trkpt>
      <trkpt lat="42.8583" lon="1.82836">
        <ele>929.788</ele>
        <time>2021-02-28T08:18:28Z</time>
      </trkpt>
      <trkpt lat="42.85829" lon="1.8284">
        <ele>930.403</ele>
        <time>2021-02-28T08:18:30Z</time>
      </trkpt>
      <trkpt lat="42.85828" lon="1.82843">
        <ele>930.731</ele>
        <time>2021-02-28T08:18:32Z</time>
      </trkpt>
      <trkpt lat="42.85828" lon="1.82847">
        <ele>930.952</ele>
        <time>2021-02-28T08:18:34Z</time>
      </trkpt>
      <trkpt lat="42.85827" lon="1.8285">
        <ele>930.854</ele>
        <time>2021-02-28T08:18:36Z</time>
      </trkpt>
      <trkpt lat="42.85827" lon="1.82853">
        <ele>931.137</ele>
        <time>2021-02-28T08:18:38Z</time>
      </trkpt>
      <trkpt lat="42.85826" lon="1.82856">
        <ele>932.051</ele>
        <time>2021-02-28T08:18:40Z</time>
      </trkpt>
      <trkpt lat="42.85825" lon="1.82859">
        <ele>931.806</ele>
        <time>2021-02-28T08:18:42Z</time>
      </trkpt>
      <trkpt lat="42.85824" lon="1.82862">
        <ele>931.792</ele>
        <time>2021-02-28T08:18:44Z</time>
      </trkpt>
      <trkpt lat="42.85824" lon="1.82865">
        <ele>931.464</ele>
        <time>2021-02-28T08:18:46Z</time>
      </trkpt>
      <trkpt lat="42.85824" lon="1.82868">
        <ele>930.197</ele>
        <time>2021-02-28T08:18:48Z</time>
      </trkpt>
      <trkpt lat="42.85824" lon="1.8287">
        <ele>930.394</ele>
        <time>2021-02-28T08:18:50Z</time>
      </trkpt>
      <trkpt lat="42.85823" lon="1.82873">
        <ele>930.47</ele>
        <time>2021-02-28T08:18:52Z</time>
      </trkpt>
      <trkpt lat="42.85823" lon="1.82876">
        <ele>929.048</ele>
        <time>2021-02-28T08:18:54Z</time>
      </trkpt>
      <trkpt lat="42.85823" lon="1.82879">
        <ele>929.681</ele>
        <time>2021-02-28T08:18:56Z</time>
      </trkpt>
      <trkpt lat="42.85823" lon="1.82883">
        <ele>930.997</ele>
        <time>2021-02-28T08:18:58Z</time>
      </trkpt>
      <trkpt lat="42.85823" lon="1.82886">
        <ele>931.422</ele>
        <time>2021-02-28T08:19:00Z</time>
      </trkpt>
      <trkpt lat="42.85824" lon="1.82889">
        <ele>931.875</ele>
        <time>2021-02-28T08:19:02Z</time>
      </trkpt>
      <trkpt lat="42.85824" lon="1.82892">
        <ele>931.411</ele>
        <time>2021-02-28T08:19:04Z</time>
      </trkpt>
      <trkpt lat="42.85825" lon="1.82896">
        <ele>931.851</ele>
        <time>2021-02-28T08:19:06Z</time>
      </trkpt>
      <trkpt lat="42.85826" lon="1.82899">
        <ele>933.495</ele>
        <time>2021-02-28T08:19:08Z</time>
      </trkpt>
      <trkpt lat="42.85826" lon="1.82902">
        <ele>933.548</ele>
        <time>2021-02-28T08:19:10Z</time>
      </trkpt>
      <trkpt lat="42.85825" lon="1.82906">
        <ele>934.6</ele>
        <time>2021-02-28T08:19:13Z</time>
      </trkpt>
      <trkpt lat="42.85825" lon="1.82909">
        <ele>935.106</ele>
        <time>2021-02-28T08:19:15Z</time>
      </trkpt>
      <trkpt lat="42.85825" lon="1.82912">
        <ele>935.997</ele>
        <time>2021-02-28T08:19:17Z</time>
      </trkpt>
      <trkpt lat="42.85825" lon="1.82915">
        <ele>935.266</ele>
        <time>2021-02-28T08:19:19Z</time>
      </trkpt>
      <trkpt lat="42.85823" lon="1.82918">
        <ele>935.903</ele>
        <time>2021-02-28T08:19:21Z</time>
      </trkpt>
      <trkpt lat="42.85822" lon="1.82922">
        <ele>937.086</ele>
        <time>2021-02-28T08:19:23Z</time>
      </trkpt>
      <trkpt lat="42.8582" lon="1.82925">
        <ele>936.71</ele>
        <time>2021-02-28T08:19:25Z</time>
      </trkpt>
      <trkpt lat="42.85818" lon="1.82927">
        <ele>937.22</ele>
        <time>2021-02-28T08:19:27Z</time>
      </trkpt>
      <trkpt lat="42.85816" lon="1.82928">
        <ele>937.962</ele>
        <time>2021-02-28T08:19:29Z</time>
      </trkpt>
      <trkpt lat="42.85814" lon="1.82928">
        <ele>937.456</ele>
        <time>2021-02-28T08:19:31Z</time>
      </trkpt>
      <trkpt lat="42.85812" lon="1.82928">
        <ele>936.998</ele>
        <time>2021-02-28T08:19:33Z</time>
      </trkpt>
      <trkpt lat="42.8581" lon="1.82928">
        <ele>938.201</ele>
        <time>2021-02-28T08:19:35Z</time>
      </trkpt>
      <trkpt lat="42.85809" lon="1.82926">
        <ele>938.695</ele>
        <time>2021-02-28T08:19:37Z</time>
      </trkpt>
      <trkpt lat="42.85806" lon="1.82923">
        <ele>939.338</ele>
        <time>2021-02-28T08:19:40Z</time>
      </trkpt>
      <trkpt lat="42.85805" lon="1.8292">
        <ele>942.184</ele>
        <time>2021-02-28T08:19:42Z</time>
      </trkpt>
      <trkpt lat="42.85804" lon="1.82918">
        <ele>941.73</ele>
        <time>2021-02-28T08:19:44Z</time>
      </trkpt>
      <trkpt lat="42.85804" lon="1.82915">
        <ele>943.028</ele>
        <time>2021-02-28T08:19:46Z</time>
      </trkpt>
      <trkpt lat="42.85803" lon="1.82914">
        <ele>943.181</ele>
        <time>2021-02-28T08:19:47Z</time>
      </trkpt>
      <trkpt lat="42.85802" lon="1.82911">
        <ele>943.248</ele>
        <time>2021-02-28T08:19:50Z</time>
      </trkpt>
      <trkpt lat="42.85801" lon="1.82908">
        <ele>945.539</ele>
        <time>2021-02-28T08:19:52Z</time>
      </trkpt>
      <trkpt lat="42.858" lon="1.82906">
        <ele>947.464</ele>
        <time>2021-02-28T08:19:54Z</time>
      </trkpt>
      <trkpt lat="42.858" lon="1.82904">
        <ele>947.605</ele>
        <time>2021-02-28T08:19:55Z</time>
      </trkpt>
      <trkpt lat="42.85799" lon="1.829">
        <ele>947.606</ele>
        <time>2021-02-28T08:19:58Z</time>
      </trkpt>
      <trkpt lat="42.85798" lon="1.82897">
        <ele>948.176</ele>
        <time>2021-02-28T08:20:00Z</time>
      </trkpt>
      <trkpt lat="42.85797" lon="1.82894">
        <ele>946.74</ele>
        <time>2021-02-28T08:20:02Z</time>
      </trkpt>
      <trkpt lat="42.85796" lon="1.8289">
        <ele>946.449</ele>
        <time>2021-02-28T08:20:05Z</time>
      </trkpt>
      <trkpt lat="42.85795" lon="1.82887">
        <ele>946.043</ele>
        <time>2021-02-28T08:20:07Z</time>
      </trkpt>
      <trkpt lat="42.85793" lon="1.82885">
        <ele>946.199</ele>
        <time>2021-02-28T08:20:09Z</time>
      </trkpt>
      <trkpt lat="42.85791" lon="1.8288">
        <ele>946.211</ele>
        <time>2021-02-28T08:20:12Z</time>
      </trkpt>
      <trkpt lat="42.8579" lon="1.82878">
        <ele>945.84</ele>
        <time>2021-02-28T08:20:14Z</time>
      </trkpt>
      <trkpt lat="42.85789" lon="1.82877">
        <ele>945.76</ele>
        <time>2021-02-28T08:20:15Z</time>
      </trkpt>
      <trkpt lat="42.85787" lon="1.82875">
        <ele>946.361</ele>
        <time>2021-02-28T08:20:18Z</time>
      </trkpt>
      <trkpt lat="42.85785" lon="1.82873">
        <ele>947.393</ele>
        <time>2021-02-28T08:20:20Z</time>
      </trkpt>
      <trkpt lat="42.85784" lon="1.82871">
        <ele>946.715</ele>
        <time>2021-02-28T08:20:22Z</time>
      </trkpt>
      <trkpt lat="42.85782" lon="1.82869">
        <ele>947.342</ele>
        <time>2021-02-28T08:20:24Z</time>
      </trkpt>
      <trkpt lat="42.8578" lon="1.82867">
        <ele>948.073</ele>
        <time>2021-02-28T08:20:26Z</time>
      </trkpt>
      <trkpt lat="42.85778" lon="1.82866">
        <ele>948.36</ele>
        <time>2021-02-28T08:20:28Z</time>
      </trkpt>
      <trkpt lat="42.85775" lon="1.82864">
        <ele>950.416</ele>
        <time>2021-02-28T08:20:30Z</time>
      </trkpt>
      <trkpt lat="42.85773" lon="1.82862">
        <ele>950.953</ele>
        <time>2021-02-28T08:20:32Z</time>
      </trkpt>
      <trkpt lat="42.85771" lon="1.8286">
        <ele>950.838</ele>
        <time>2021-02-28T08:20:34Z</time>
      </trkpt>
      <trkpt lat="42.85769" lon="1.82859">
        <ele>951.677</ele>
        <time>2021-02-28T08:20:36Z</time>
      </trkpt>
      <trkpt lat="42.85768" lon="1.82857">
        <ele>952.31</ele>
        <time>2021-02-28T08:20:38Z</time>
      </trkpt>
      <trkpt lat="42.85766" lon="1.82856">
        <ele>951.724</ele>
        <time>2021-02-28T08:20:40Z</time>
      </trkpt>
      <trkpt lat="42.85764" lon="1.82854">
        <ele>950.109</ele>
        <time>2021-02-28T08:20:42Z</time>
      </trkpt>
      <trkpt lat="42.85762" lon="1.82852">
        <ele>949.487</ele>
        <time>2021-02-28T08:20:44Z</time>
      </trkpt>
      <trkpt lat="42.8576" lon="1.8285">
        <ele>948.924</ele>
        <time>2021-02-28T08:20:46Z</time>
      </trkpt>
      <trkpt lat="42.85758" lon="1.82848">
        <ele>948.441</ele>
        <time>2021-02-28T08:20:48Z</time>
      </trkpt>
      <trkpt lat="42.85757" lon="1.82846">
        <ele>945.998</ele>
        <time>2021-02-28T08:20:50Z</time>
      </trkpt>
      <trkpt lat="42.85754" lon="1.82844">
        <ele>946.258</ele>
        <time>2021-02-28T08:20:52Z</time>
      </trkpt>
      <trkpt lat="42.85752" lon="1.82842">
        <ele>946.79</ele>
        <time>2021-02-28T08:20:54Z</time>
      </trkpt>
      <trkpt lat="42.8575" lon="1.82841">
        <ele>947.25</ele>
        <time>2021-02-28T08:20:56Z</time>
      </trkpt>
      <trkpt lat="42.85748" lon="1.82839">
        <ele>948.178</ele>
        <time>2021-02-28T08:20:58Z</time>
      </trkpt>
      <trkpt lat="42.85747" lon="1.82837">
        <ele>950.296</ele>
        <time>2021-02-28T08:21:00Z</time>
      </trkpt>
      <trkpt lat="42.85746" lon="1.82836">
        <ele>950.516</ele>
        <time>2021-02-28T08:21:01Z</time>
      </trkpt>
      <trkpt lat="42.85742" lon="1.82835">
        <ele>951.253</ele>
        <time>2021-02-28T08:21:04Z</time>
      </trkpt>
      <trkpt lat="42.8574" lon="1.82834">
        <ele>951.496</ele>
        <time>2021-02-28T08:21:06Z</time>
      </trkpt>
      <trkpt lat="42.85738" lon="1.82833">
        <ele>951.772</ele>
        <time>2021-02-28T08:21:08Z</time>
      </trkpt>
      <trkpt lat="42.85736" lon="1.82833">
        <ele>951.528</ele>
        <time>2021-02-28T08:21:10Z</time>
      </trkpt>
      <trkpt lat="42.85734" lon="1.82833">
        <ele>950.786</ele>
        <time>2021-02-28T08:21:12Z</time>
      </trkpt>
      <trkpt lat="42.85731" lon="1.82834">
        <ele>950.139</ele>
        <time>2021-02-28T08:21:14Z</time>
      </trkpt>
      <trkpt lat="42.8573" lon="1.82835">
        <ele>950.194</ele>
        <time>2021-02-28T08:21:16Z</time>
      </trkpt>
      <trkpt lat="42.85729" lon="1.82837">
        <ele>951.362</ele>
        <time>2021-02-28T08:21:18Z</time>
      </trkpt>
      <trkpt lat="42.85728" lon="1.82839">
        <ele>951.735</ele>
        <time>2021-02-28T08:21:20Z</time>
      </trkpt>
      <trkpt lat="42.85728" lon="1.82842">
        <ele>952.771</ele>
        <time>2021-02-28T08:21:22Z</time>
      </trkpt>
      <trkpt lat="42.85728" lon="1.82844">
        <ele>953.079</ele>
        <time>2021-02-28T08:21:24Z</time>
      </trkpt>
      <trkpt lat="42.85729" lon="1.82847">
        <ele>953.162</ele>
        <time>2021-02-28T08:21:26Z</time>
      </trkpt>
      <trkpt lat="42.8573" lon="1.82849">
        <ele>953.122</ele>
        <time>2021-02-28T08:21:28Z</time>
      </trkpt>
      <trkpt lat="42.85731" lon="1.82852">
        <ele>953.949</ele>
        <time>2021-02-28T08:21:30Z</time>
      </trkpt>
      <trkpt lat="42.85733" lon="1.82854">
        <ele>954.638</ele>
        <time>2021-02-28T08:21:32Z</time>
      </trkpt>
      <trkpt lat="42.85734" lon="1.82856">
        <ele>956.047</ele>
        <time>2021-02-28T08:21:34Z</time>
      </trkpt>
      <trkpt lat="42.85736" lon="1.82858">
        <ele>956.262</ele>
        <time>2021-02-28T08:21:36Z</time>
      </trkpt>
      <trkpt lat="42.85738" lon="1.8286">
        <ele>955.896</ele>
        <time>2021-02-28T08:21:38Z</time>
      </trkpt>
      <trkpt lat="42.85739" lon="1.82862">
        <ele>955.54</ele>
        <time>2021-02-28T08:21:40Z</time>
      </trkpt>
      <trkpt lat="42.85741" lon="1.82864">
        <ele>955.069</ele>
        <time>2021-02-28T08:21:42Z</time>
      </trkpt>
      <trkpt lat="42.85743" lon="1.82866">
        <ele>955.228</ele>
        <time>2021-02-28T08:21:44Z</time>
      </trkpt>
      <trkpt lat="42.85745" lon="1.82867">
        <ele>955.401</ele>
        <time>2021-02-28T08:21:46Z</time>
      </trkpt>
      <trkpt lat="42.85747" lon="1.82869">
        <ele>954.539</ele>
        <time>2021-02-28T08:21:48Z</time>
      </trkpt>
      <trkpt lat="42.85749" lon="1.82871">
        <ele>954.041</ele>
        <time>2021-02-28T08:21:50Z</time>
      </trkpt>
      <trkpt lat="42.8575" lon="1.82872">
        <ele>953.713</ele>
        <time>2021-02-28T08:21:52Z</time>
      </trkpt>
      <trkpt lat="42.85752" lon="1.82874">
        <ele>952.299</ele>
        <time>2021-02-28T08:21:54Z</time>
      </trkpt>
      <trkpt lat="42.85754" lon="1.82876">
        <ele>951.358</ele>
        <time>2021-02-28T08:21:56Z</time>
      </trkpt>
      <trkpt lat="42.85755" lon="1.82879">
        <ele>950.674</ele>
        <time>2021-02-28T08:21:58Z</time>
      </trkpt>
      <trkpt lat="42.85755" lon="1.82882">
        <ele>951.935</ele>
        <time>2021-02-28T08:22:00Z</time>
      </trkpt>
      <trkpt lat="42.85756" lon="1.82886">
        <ele>952.314</ele>
        <time>2021-02-28T08:22:02Z</time>
      </trkpt>
      <trkpt lat="42.85756" lon="1.82889">
        <ele>953.095</ele>
        <time>2021-02-28T08:22:04Z</time>
      </trkpt>
      <trkpt lat="42.85755" lon="1.82891">
        <ele>952.613</ele>
        <time>2021-02-28T08:22:06Z</time>
      </trkpt>
      <trkpt lat="42.85753" lon="1.82893">
        <ele>953.615</ele>
        <time>2021-02-28T08:22:08Z</time>
      </trkpt>
      <trkpt lat="42.85751" lon="1.82895">
        <ele>955.186</ele>
        <time>2021-02-28T08:22:10Z</time>
      </trkpt>
      <trkpt lat="42.85749" lon="1.82896">
        <ele>952.868</ele>
        <time>2021-02-28T08:22:12Z</time>
      </trkpt>
      <trkpt lat="42.85747" lon="1.82896">
        <ele>952.253</ele>
        <time>2021-02-28T08:22:14Z</time>
      </trkpt>
      <trkpt lat="42.85745" lon="1.82897">
        <ele>953.008</ele>
        <time>2021-02-28T08:22:16Z</time>
      </trkpt>
      <trkpt lat="42.85743" lon="1.82896">
        <ele>953.653</ele>
        <time>2021-02-28T08:22:18Z</time>
      </trkpt>
      <trkpt lat="42.85741" lon="1.82895">
        <ele>954.411</ele>
        <time>2021-02-28T08:22:20Z</time>
      </trkpt>
      <trkpt lat="42.85739" lon="1.82895">
        <ele>955.302</ele>
        <time>2021-02-28T08:22:22Z</time>
      </trkpt>
      <trkpt lat="42.85737" lon="1.82894">
        <ele>953.88</ele>
        <time>2021-02-28T08:22:24Z</time>
      </trkpt>
      <trkpt lat="42.85735" lon="1.82893">
        <ele>953.868</ele>
        <time>2021-02-28T08:22:26Z</time>
      </trkpt>
      <trkpt lat="42.85733" lon="1.82893">
        <ele>954.44</ele>
        <time>2021-02-28T08:22:28Z</time>
      </trkpt>
      <trkpt lat="42.8573" lon="1.82892">
        <ele>954.546</ele>
        <time>2021-02-28T08:22:30Z</time>
      </trkpt>
      <trkpt lat="42.85728" lon="1.82891">
        <ele>954.428</ele>
        <time>2021-02-28T08:22:32Z</time>
      </trkpt>
      <trkpt lat="42.85726" lon="1.8289">
        <ele>954.696</ele>
        <time>2021-02-28T08:22:34Z</time>
      </trkpt>
      <trkpt lat="42.85724" lon="1.8289">
        <ele>954.821</ele>
        <time>2021-02-28T08:22:36Z</time>
      </trkpt>
      <trkpt lat="42.85722" lon="1.82889">
        <ele>955.935</ele>
        <time>2021-02-28T08:22:38Z</time>
      </trkpt>
      <trkpt lat="42.8572" lon="1.82887">
        <ele>955.844</ele>
        <time>2021-02-28T08:22:40Z</time>
      </trkpt>
      <trkpt lat="42.85718" lon="1.82886">
        <ele>956.831</ele>
        <time>2021-02-28T08:22:42Z</time>
      </trkpt>
      <trkpt lat="42.85715" lon="1.82885">
        <ele>956.757</ele>
        <time>2021-02-28T08:22:44Z</time>
      </trkpt>
      <trkpt lat="42.85712" lon="1.82884">
        <ele>958.038</ele>
        <time>2021-02-28T08:22:47Z</time>
      </trkpt>
      <trkpt lat="42.8571" lon="1.82882">
        <ele>960.08</ele>
        <time>2021-02-28T08:22:49Z</time>
      </trkpt>
      <trkpt lat="42.85708" lon="1.82881">
        <ele>960.508</ele>
        <time>2021-02-28T08:22:51Z</time>
      </trkpt>
      <trkpt lat="42.85705" lon="1.82879">
        <ele>959.863</ele>
        <time>2021-02-28T08:22:53Z</time>
      </trkpt>
      <trkpt lat="42.85703" lon="1.82878">
        <ele>959.609</ele>
        <time>2021-02-28T08:22:55Z</time>
      </trkpt>
      <trkpt lat="42.85701" lon="1.82878">
        <ele>958.983</ele>
        <time>2021-02-28T08:22:57Z</time>
      </trkpt>
      <trkpt lat="42.85698" lon="1.82877">
        <ele>957.767</ele>
        <time>2021-02-28T08:22:59Z</time>
      </trkpt>
      <trkpt lat="42.85696" lon="1.82877">
        <ele>958.095</ele>
        <time>2021-02-28T08:23:01Z</time>
      </trkpt>
      <trkpt lat="42.85694" lon="1.82877">
        <ele>958.974</ele>
        <time>2021-02-28T08:23:03Z</time>
      </trkpt>
      <trkpt lat="42.85692" lon="1.82876">
        <ele>958.3</ele>
        <time>2021-02-28T08:23:05Z</time>
      </trkpt>
      <trkpt lat="42.85689" lon="1.82876">
        <ele>958.989</ele>
        <time>2021-02-28T08:23:07Z</time>
      </trkpt>
      <trkpt lat="42.85687" lon="1.82875">
        <ele>959.249</ele>
        <time>2021-02-28T08:23:09Z</time>
      </trkpt>
      <trkpt lat="42.85684" lon="1.82875">
        <ele>960.95</ele>
        <time>2021-02-28T08:23:11Z</time>
      </trkpt>
      <trkpt lat="42.85682" lon="1.82875">
        <ele>960.989</ele>
        <time>2021-02-28T08:23:13Z</time>
      </trkpt>
      <trkpt lat="42.85679" lon="1.82874">
        <ele>961.431</ele>
        <time>2021-02-28T08:23:15Z</time>
      </trkpt>
      <trkpt lat="42.85677" lon="1.82873">
        <ele>961.656</ele>
        <time>2021-02-28T08:23:17Z</time>
      </trkpt>
      <trkpt lat="42.85675" lon="1.82872">
        <ele>960.932</ele>
        <time>2021-02-28T08:23:19Z</time>
      </trkpt>
      <trkpt lat="42.85672" lon="1.82872">
        <ele>959.29</ele>
        <time>2021-02-28T08:23:21Z</time>
      </trkpt>
      <trkpt lat="42.8567" lon="1.8287">
        <ele>960.324</ele>
        <time>2021-02-28T08:23:23Z</time>
      </trkpt>
      <trkpt lat="42.85668" lon="1.82868">
        <ele>959.519</ele>
        <time>2021-02-28T08:23:25Z</time>
      </trkpt>
      <trkpt lat="42.85666" lon="1.82866">
        <ele>961.084</ele>
        <time>2021-02-28T08:23:27Z</time>
      </trkpt>
      <trkpt lat="42.85664" lon="1.82864">
        <ele>960.537</ele>
        <time>2021-02-28T08:23:29Z</time>
      </trkpt>
      <trkpt lat="42.85662" lon="1.82861">
        <ele>962.476</ele>
        <time>2021-02-28T08:23:31Z</time>
      </trkpt>
      <trkpt lat="42.85661" lon="1.8286">
        <ele>962.15</ele>
        <time>2021-02-28T08:23:33Z</time>
      </trkpt>
      <trkpt lat="42.85659" lon="1.82857">
        <ele>962.82</ele>
        <time>2021-02-28T08:23:35Z</time>
      </trkpt>
      <trkpt lat="42.85657" lon="1.82854">
        <ele>964.728</ele>
        <time>2021-02-28T08:23:37Z</time>
      </trkpt>
      <trkpt lat="42.85655" lon="1.82851">
        <ele>964.084</ele>
        <time>2021-02-28T08:23:39Z</time>
      </trkpt>
      <trkpt lat="42.85654" lon="1.82849">
        <ele>963.59</ele>
        <time>2021-02-28T08:23:41Z</time>
      </trkpt>
      <trkpt lat="42.85652" lon="1.82846">
        <ele>962.61</ele>
        <time>2021-02-28T08:23:43Z</time>
      </trkpt>
      <trkpt lat="42.85651" lon="1.82842">
        <ele>962.255</ele>
        <time>2021-02-28T08:23:45Z</time>
      </trkpt>
      <trkpt lat="42.8565" lon="1.8284">
        <ele>962.279</ele>
        <time>2021-02-28T08:23:47Z</time>
      </trkpt>
      <trkpt lat="42.85649" lon="1.82838">
        <ele>962.595</ele>
        <time>2021-02-28T08:23:49Z</time>
      </trkpt>
      <trkpt lat="42.85647" lon="1.82835">
        <ele>963.627</ele>
        <time>2021-02-28T08:23:51Z</time>
      </trkpt>
      <trkpt lat="42.85645" lon="1.82833">
        <ele>964.15</ele>
        <time>2021-02-28T08:23:53Z</time>
      </trkpt>
      <trkpt lat="42.85644" lon="1.82831">
        <ele>963.595</ele>
        <time>2021-02-28T08:23:55Z</time>
      </trkpt>
      <trkpt lat="42.85642" lon="1.82828">
        <ele>964.964</ele>
        <time>2021-02-28T08:23:57Z</time>
      </trkpt>
      <trkpt lat="42.8564" lon="1.82826">
        <ele>965.935</ele>
        <time>2021-02-28T08:23:59Z</time>
      </trkpt>
      <trkpt lat="42.85637" lon="1.82824">
        <ele>966.954</ele>
        <time>2021-02-28T08:24:01Z</time>
      </trkpt>
      <trkpt lat="42.85635" lon="1.82823">
        <ele>968.247</ele>
        <time>2021-02-28T08:24:03Z</time>
      </trkpt>
      <trkpt lat="42.85632" lon="1.82823">
        <ele>969.754</ele>
        <time>2021-02-28T08:24:05Z</time>
      </trkpt>
      <trkpt lat="42.8563" lon="1.82823">
        <ele>970.729</ele>
        <time>2021-02-28T08:24:07Z</time>
      </trkpt>
      <trkpt lat="42.85628" lon="1.82826">
        <ele>970.777</ele>
        <time>2021-02-28T08:24:09Z</time>
      </trkpt>
      <trkpt lat="42.85627" lon="1.82828">
        <ele>971.374</ele>
        <time>2021-02-28T08:24:11Z</time>
      </trkpt>
      <trkpt lat="42.85626" lon="1.8283">
        <ele>970.807</ele>
        <time>2021-02-28T08:24:13Z</time>
      </trkpt>
      <trkpt lat="42.85626" lon="1.82832">
        <ele>970.334</ele>
        <time>2021-02-28T08:24:15Z</time>
      </trkpt>
      <trkpt lat="42.85626" lon="1.82832">
        <ele>970.225</ele>
        <time>2021-02-28T08:24:17Z</time>
      </trkpt>
      <trkpt lat="42.85625" lon="1.82832">
        <ele>969.568</ele>
        <time>2021-02-28T08:24:19Z</time>
      </trkpt>
      <trkpt lat="42.85626" lon="1.82832">
        <ele>970.686</ele>
        <time>2021-02-28T08:24:21Z</time>
      </trkpt>
      <trkpt lat="42.85626" lon="1.82831">
        <ele>970.692</ele>
        <time>2021-02-28T08:24:23Z</time>
      </trkpt>
      <trkpt lat="42.85626" lon="1.82831">
        <ele>970.716</ele>
        <time>2021-02-28T08:24:25Z</time>
      </trkpt>
      <trkpt lat="42.85626" lon="1.82832">
        <ele>971.188</ele>
        <time>2021-02-28T08:24:27Z</time>
      </trkpt>
      <trkpt lat="42.85627" lon="1.82833">
        <ele>971.966</ele>
        <time>2021-02-28T08:24:29Z</time>
      </trkpt>
      <trkpt lat="42.85627" lon="1.82836">
        <ele>972.118</ele>
        <time>2021-02-28T08:24:31Z</time>
      </trkpt>
      <trkpt lat="42.85629" lon="1.82838">
        <ele>972.897</ele>
        <time>2021-02-28T08:24:33Z</time>
      </trkpt>
      <trkpt lat="42.8563" lon="1.82841">
        <ele>973.565</ele>
        <time>2021-02-28T08:24:35Z</time>
      </trkpt>
      <trkpt lat="42.85631" lon="1.82843">
        <ele>974.222</ele>
        <time>2021-02-28T08:24:37Z</time>
      </trkpt>
      <trkpt lat="42.85633" lon="1.82845">
        <ele>974.717</ele>
        <time>2021-02-28T08:24:39Z</time>
      </trkpt>
      <trkpt lat="42.85634" lon="1.82847">
        <ele>974.633</ele>
        <time>2021-02-28T08:24:41Z</time>
      </trkpt>
      <trkpt lat="42.85636" lon="1.82849">
        <ele>975.364</ele>
        <time>2021-02-28T08:24:43Z</time>
      </trkpt>
      <trkpt lat="42.85638" lon="1.82852">
        <ele>975.444</ele>
        <time>2021-02-28T08:24:45Z</time>
      </trkpt>
      <trkpt lat="42.8564" lon="1.82854">
        <ele>976.413</ele>
        <time>2021-02-28T08:24:47Z</time>
      </trkpt>
      <trkpt lat="42.85641" lon="1.82857">
        <ele>976.482</ele>
        <time>2021-02-28T08:24:49Z</time>
      </trkpt>
      <trkpt lat="42.85643" lon="1.82859">
        <ele>976.164</ele>
        <time>2021-02-28T08:24:51Z</time>
      </trkpt>
      <trkpt lat="42.85644" lon="1.82862">
        <ele>976.934</ele>
        <time>2021-02-28T08:24:53Z</time>
      </trkpt>
      <trkpt lat="42.85644" lon="1.82865">
        <ele>976.88</ele>
        <time>2021-02-28T08:24:55Z</time>
      </trkpt>
      <trkpt lat="42.85645" lon="1.82867">
        <ele>977.254</ele>
        <time>2021-02-28T08:24:57Z</time>
      </trkpt>
      <trkpt lat="42.85646" lon="1.8287">
        <ele>977.55</ele>
        <time>2021-02-28T08:24:59Z</time>
      </trkpt>
      <trkpt lat="42.85647" lon="1.82874">
        <ele>977.936</ele>
        <time>2021-02-28T08:25:01Z</time>
      </trkpt>
      <trkpt lat="42.85648" lon="1.82876">
        <ele>978.249</ele>
        <time>2021-02-28T08:25:03Z</time>
      </trkpt>
      <trkpt lat="42.85648" lon="1.82879">
        <ele>978.049</ele>
        <time>2021-02-28T08:25:05Z</time>
      </trkpt>
      <trkpt lat="42.85649" lon="1.82883">
        <ele>979.24</ele>
        <time>2021-02-28T08:25:07Z</time>
      </trkpt>
      <trkpt lat="42.8565" lon="1.82886">
        <ele>978.637</ele>
        <time>2021-02-28T08:25:09Z</time>
      </trkpt>
      <trkpt lat="42.85651" lon="1.82888">
        <ele>979.5</ele>
        <time>2021-02-28T08:25:11Z</time>
      </trkpt>
      <trkpt lat="42.85652" lon="1.8289">
        <ele>980.109</ele>
        <time>2021-02-28T08:25:13Z</time>
      </trkpt>
      <trkpt lat="42.85654" lon="1.82893">
        <ele>980.383</ele>
        <time>2021-02-28T08:25:15Z</time>
      </trkpt>
      <trkpt lat="42.85654" lon="1.82895">
        <ele>978.144</ele>
        <time>2021-02-28T08:25:17Z</time>
      </trkpt>
      <trkpt lat="42.85655" lon="1.82898">
        <ele>978.679</ele>
        <time>2021-02-28T08:25:19Z</time>
      </trkpt>
      <trkpt lat="42.85657" lon="1.82901">
        <ele>978.218</ele>
        <time>2021-02-28T08:25:21Z</time>
      </trkpt>
      <trkpt lat="42.85658" lon="1.82903">
        <ele>978.476</ele>
        <time>2021-02-28T08:25:23Z</time>
      </trkpt>
      <trkpt lat="42.8566" lon="1.82906">
        <ele>979.133</ele>
        <time>2021-02-28T08:25:25Z</time>
      </trkpt>
      <trkpt lat="42.85662" lon="1.82907">
        <ele>978.888</ele>
        <time>2021-02-28T08:25:27Z</time>
      </trkpt>
      <trkpt lat="42.85664" lon="1.82908">
        <ele>980.38</ele>
        <time>2021-02-28T08:25:29Z</time>
      </trkpt>
      <trkpt lat="42.85666" lon="1.8291">
        <ele>979.857</ele>
        <time>2021-02-28T08:25:31Z</time>
      </trkpt>
      <trkpt lat="42.85667" lon="1.82912">
        <ele>979.708</ele>
        <time>2021-02-28T08:25:33Z</time>
      </trkpt>
      <trkpt lat="42.85669" lon="1.82914">
        <ele>980.803</ele>
        <time>2021-02-28T08:25:35Z</time>
      </trkpt>
      <trkpt lat="42.85671" lon="1.82916">
        <ele>981.784</ele>
        <time>2021-02-28T08:25:37Z</time>
      </trkpt>
      <trkpt lat="42.85673" lon="1.82918">
        <ele>980.35</ele>
        <time>2021-02-28T08:25:39Z</time>
      </trkpt>
      <trkpt lat="42.85674" lon="1.8292">
        <ele>980.995</ele>
        <time>2021-02-28T08:25:41Z</time>
      </trkpt>
      <trkpt lat="42.85676" lon="1.82922">
        <ele>980.678</ele>
        <time>2021-02-28T08:25:43Z</time>
      </trkpt>
      <trkpt lat="42.85677" lon="1.82925">
        <ele>980.764</ele>
        <time>2021-02-28T08:25:45Z</time>
      </trkpt>
      <trkpt lat="42.85679" lon="1.82927">
        <ele>980.438</ele>
        <time>2021-02-28T08:25:47Z</time>
      </trkpt>
      <trkpt lat="42.85681" lon="1.82929">
        <ele>980.981</ele>
        <time>2021-02-28T08:25:49Z</time>
      </trkpt>
      <trkpt lat="42.85682" lon="1.82931">
        <ele>981.733</ele>
        <time>2021-02-28T08:25:51Z</time>
      </trkpt>
      <trkpt lat="42.85684" lon="1.82933">
        <ele>981.394</ele>
        <time>2021-02-28T08:25:53Z</time>
      </trkpt>
      <trkpt lat="42.85686" lon="1.82935">
        <ele>982.112</ele>
        <time>2021-02-28T08:25:55Z</time>
      </trkpt>
      <trkpt lat="42.85688" lon="1.82937">
        <ele>982.886</ele>
        <time>2021-02-28T08:25:57Z</time>
      </trkpt>
      <trkpt lat="42.85689" lon="1.82938">
        <ele>983.902</ele>
        <time>2021-02-28T08:25:59Z</time>
      </trkpt>
      <trkpt lat="42.85691" lon="1.8294">
        <ele>982.865</ele>
        <time>2021-02-28T08:26:01Z</time>
      </trkpt>
      <trkpt lat="42.85693" lon="1.82942">
        <ele>981.893</ele>
        <time>2021-02-28T08:26:03Z</time>
      </trkpt>
      <trkpt lat="42.85694" lon="1.82944">
        <ele>981.818</ele>
        <time>2021-02-28T08:26:05Z</time>
      </trkpt>
      <trkpt lat="42.85696" lon="1.82946">
        <ele>982.259</ele>
        <time>2021-02-28T08:26:07Z</time>
      </trkpt>
      <trkpt lat="42.85697" lon="1.82948">
        <ele>982.762</ele>
        <time>2021-02-28T08:26:09Z</time>
      </trkpt>
      <trkpt lat="42.85699" lon="1.8295">
        <ele>983.741</ele>
        <time>2021-02-28T08:26:11Z</time>
      </trkpt>
      <trkpt lat="42.857" lon="1.82952">
        <ele>984.386</ele>
        <time>2021-02-28T08:26:13Z</time>
      </trkpt>
      <trkpt lat="42.85699" lon="1.82957">
        <ele>984.041</ele>
        <time>2021-02-28T08:26:15Z</time>
      </trkpt>
      <trkpt lat="42.85699" lon="1.82959">
        <ele>982.691</ele>
        <time>2021-02-28T08:26:17Z</time>
      </trkpt>
      <trkpt lat="42.85701" lon="1.82962">
        <ele>979.112</ele>
        <time>2021-02-28T08:26:19Z</time>
      </trkpt>
      <trkpt lat="42.85704" lon="1.8296">
        <ele>981.313</ele>
        <time>2021-02-28T08:26:21Z</time>
      </trkpt>
      <trkpt lat="42.85705" lon="1.82959">
        <ele>981.556</ele>
        <time>2021-02-28T08:26:23Z</time>
      </trkpt>
      <trkpt lat="42.85705" lon="1.82957">
        <ele>982.077</ele>
        <time>2021-02-28T08:26:25Z</time>
      </trkpt>
      <trkpt lat="42.85705" lon="1.82957">
        <ele>982.08</ele>
        <time>2021-02-28T08:26:27Z</time>
      </trkpt>
      <trkpt lat="42.85705" lon="1.82957">
        <ele>982.091</ele>
        <time>2021-02-28T08:26:29Z</time>
      </trkpt>
      <trkpt lat="42.85705" lon="1.82957">
        <ele>982.12</ele>
        <time>2021-02-28T08:26:31Z</time>
      </trkpt>
      <trkpt lat="42.85705" lon="1.82956">
        <ele>981.763</ele>
        <time>2021-02-28T08:26:33Z</time>
      </trkpt>
      <trkpt lat="42.85705" lon="1.82956">
        <ele>982.334</ele>
        <time>2021-02-28T08:26:35Z</time>
      </trkpt>
      <trkpt lat="42.85705" lon="1.82956">
        <ele>982.196</ele>
        <time>2021-02-28T08:26:37Z</time>
      </trkpt>
      <trkpt lat="42.85704" lon="1.82956">
        <ele>982.199</ele>
        <time>2021-02-28T08:26:39Z</time>
      </trkpt>
      <trkpt lat="42.85704" lon="1.82956">
        <ele>982.19</ele>
        <time>2021-02-28T08:26:41Z</time>
      </trkpt>
      <trkpt lat="42.85705" lon="1.82956">
        <ele>982.66</ele>
        <time>2021-02-28T08:26:43Z</time>
      </trkpt>
      <trkpt lat="42.85705" lon="1.82955">
        <ele>982.047</ele>
        <time>2021-02-28T08:26:45Z</time>
      </trkpt>
      <trkpt lat="42.85702" lon="1.8295">
        <ele>983.229</ele>
        <time>2021-02-28T08:26:47Z</time>
      </trkpt>
      <trkpt lat="42.85702" lon="1.82951">
        <ele>982.473</ele>
        <time>2021-02-28T08:26:50Z</time>
      </trkpt>
      <trkpt lat="42.85702" lon="1.82951">
        <ele>982.471</ele>
        <time>2021-02-28T08:26:52Z</time>
      </trkpt>
      <trkpt lat="42.85702" lon="1.82951">
        <ele>982.469</ele>
        <time>2021-02-28T08:26:54Z</time>
      </trkpt>
      <trkpt lat="42.85702" lon="1.82952">
        <ele>981.529</ele>
        <time>2021-02-28T08:26:56Z</time>
      </trkpt>
      <trkpt lat="42.85702" lon="1.82952">
        <ele>981.512</ele>
        <time>2021-02-28T08:26:58Z</time>
      </trkpt>
      <trkpt lat="42.85702" lon="1.82952">
        <ele>981.694</ele>
        <time>2021-02-28T08:27:00Z</time>
      </trkpt>
      <trkpt lat="42.85703" lon="1.82953">
        <ele>980.924</ele>
        <time>2021-02-28T08:27:02Z</time>
      </trkpt>
      <trkpt lat="42.85703" lon="1.82954">
        <ele>981.34</ele>
        <time>2021-02-28T08:27:04Z</time>
      </trkpt>
      <trkpt lat="42.85705" lon="1.82956">
        <ele>980.807</ele>
        <time>2021-02-28T08:27:06Z</time>
      </trkpt>
      <trkpt lat="42.85707" lon="1.82957">
        <ele>981.166</ele>
        <time>2021-02-28T08:27:08Z</time>
      </trkpt>
      <trkpt lat="42.85708" lon="1.82958">
        <ele>980.66</ele>
        <time>2021-02-28T08:27:10Z</time>
      </trkpt>
      <trkpt lat="42.85708" lon="1.82958">
        <ele>980.668</ele>
        <time>2021-02-28T08:27:12Z</time>
      </trkpt>
      <trkpt lat="42.85708" lon="1.82958">
        <ele>980.674</ele>
        <time>2021-02-28T08:27:14Z</time>
      </trkpt>
      <trkpt lat="42.85708" lon="1.82958">
        <ele>980.682</ele>
        <time>2021-02-28T08:27:16Z</time>
      </trkpt>
      <trkpt lat="42.85709" lon="1.82959">
        <ele>978.469</ele>
        <time>2021-02-28T08:27:18Z</time>
      </trkpt>
      <trkpt lat="42.85711" lon="1.82961">
        <ele>978.286</ele>
        <time>2021-02-28T08:27:20Z</time>
      </trkpt>
      <trkpt lat="42.85713" lon="1.82964">
        <ele>976.19</ele>
        <time>2021-02-28T08:27:22Z</time>
      </trkpt>
      <trkpt lat="42.85715" lon="1.82966">
        <ele>976.353</ele>
        <time>2021-02-28T08:27:24Z</time>
      </trkpt>
      <trkpt lat="42.85716" lon="1.82968">
        <ele>975.56</ele>
        <time>2021-02-28T08:27:26Z</time>
      </trkpt>
      <trkpt lat="42.85718" lon="1.8297">
        <ele>975.289</ele>
        <time>2021-02-28T08:27:28Z</time>
      </trkpt>
      <trkpt lat="42.8572" lon="1.82971">
        <ele>974.978</ele>
        <time>2021-02-28T08:27:30Z</time>
      </trkpt>
      <trkpt lat="42.85721" lon="1.82973">
        <ele>974.946</ele>
        <time>2021-02-28T08:27:32Z</time>
      </trkpt>
      <trkpt lat="42.85723" lon="1.82976">
        <ele>976.254</ele>
        <time>2021-02-28T08:27:34Z</time>
      </trkpt>
      <trkpt lat="42.85725" lon="1.82978">
        <ele>977.039</ele>
        <time>2021-02-28T08:27:36Z</time>
      </trkpt>
      <trkpt lat="42.85727" lon="1.8298">
        <ele>978.305</ele>
        <time>2021-02-28T08:27:38Z</time>
      </trkpt>
      <trkpt lat="42.85728" lon="1.82981">
        <ele>978.125</ele>
        <time>2021-02-28T08:27:39Z</time>
      </trkpt>
      <trkpt lat="42.85731" lon="1.82983">
        <ele>979.771</ele>
        <time>2021-02-28T08:27:42Z</time>
      </trkpt>
      <trkpt lat="42.85733" lon="1.82985">
        <ele>978.387</ele>
        <time>2021-02-28T08:27:44Z</time>
      </trkpt>
      <trkpt lat="42.85735" lon="1.82987">
        <ele>978.874</ele>
        <time>2021-02-28T08:27:46Z</time>
      </trkpt>
      <trkpt lat="42.85737" lon="1.82988">
        <ele>980.534</ele>
        <time>2021-02-28T08:27:48Z</time>
      </trkpt>
      <trkpt lat="42.85739" lon="1.8299">
        <ele>981.091</ele>
        <time>2021-02-28T08:27:50Z</time>
      </trkpt>
      <trkpt lat="42.85742" lon="1.82991">
        <ele>981.897</ele>
        <time>2021-02-28T08:27:52Z</time>
      </trkpt>
      <trkpt lat="42.85743" lon="1.82994">
        <ele>981.458</ele>
        <time>2021-02-28T08:27:54Z</time>
      </trkpt>
      <trkpt lat="42.85746" lon="1.82995">
        <ele>980.641</ele>
        <time>2021-02-28T08:27:56Z</time>
      </trkpt>
      <trkpt lat="42.85748" lon="1.82997">
        <ele>980.73</ele>
        <time>2021-02-28T08:27:58Z</time>
      </trkpt>
      <trkpt lat="42.85749" lon="1.82999">
        <ele>980.031</ele>
        <time>2021-02-28T08:28:00Z</time>
      </trkpt>
      <trkpt lat="42.85751" lon="1.83001">
        <ele>979.678</ele>
        <time>2021-02-28T08:28:02Z</time>
      </trkpt>
      <trkpt lat="42.85754" lon="1.83003">
        <ele>980.694</ele>
        <time>2021-02-28T08:28:04Z</time>
      </trkpt>
      <trkpt lat="42.85755" lon="1.83004">
        <ele>981.11</ele>
        <time>2021-02-28T08:28:06Z</time>
      </trkpt>
      <trkpt lat="42.85757" lon="1.83006">
        <ele>980.329</ele>
        <time>2021-02-28T08:28:08Z</time>
      </trkpt>
      <trkpt lat="42.85759" lon="1.83008">
        <ele>980.283</ele>
        <time>2021-02-28T08:28:10Z</time>
      </trkpt>
      <trkpt lat="42.85761" lon="1.83009">
        <ele>980.599</ele>
        <time>2021-02-28T08:28:12Z</time>
      </trkpt>
      <trkpt lat="42.85763" lon="1.83011">
        <ele>982.165</ele>
        <time>2021-02-28T08:28:14Z</time>
      </trkpt>
      <trkpt lat="42.85764" lon="1.83013">
        <ele>981.849</ele>
        <time>2021-02-28T08:28:16Z</time>
      </trkpt>
      <trkpt lat="42.85766" lon="1.83015">
        <ele>982.457</ele>
        <time>2021-02-28T08:28:18Z</time>
      </trkpt>
      <trkpt lat="42.85768" lon="1.83017">
        <ele>982.569</ele>
        <time>2021-02-28T08:28:20Z</time>
      </trkpt>
      <trkpt lat="42.8577" lon="1.83018">
        <ele>982.601</ele>
        <time>2021-02-28T08:28:22Z</time>
      </trkpt>
      <trkpt lat="42.85771" lon="1.83021">
        <ele>983.881</ele>
        <time>2021-02-28T08:28:24Z</time>
      </trkpt>
      <trkpt lat="42.85772" lon="1.83024">
        <ele>984.607</ele>
        <time>2021-02-28T08:28:26Z</time>
      </trkpt>
      <trkpt lat="42.85775" lon="1.83027">
        <ele>984.765</ele>
        <time>2021-02-28T08:28:29Z</time>
      </trkpt>
      <trkpt lat="42.85776" lon="1.83029">
        <ele>984.837</ele>
        <time>2021-02-28T08:28:31Z</time>
      </trkpt>
      <trkpt lat="42.85777" lon="1.8303">
        <ele>984.95</ele>
        <time>2021-02-28T08:28:32Z</time>
      </trkpt>
      <trkpt lat="42.85779" lon="1.83033">
        <ele>984.353</ele>
        <time>2021-02-28T08:28:35Z</time>
      </trkpt>
      <trkpt lat="42.85781" lon="1.83036">
        <ele>985.339</ele>
        <time>2021-02-28T08:28:37Z</time>
      </trkpt>
      <trkpt lat="42.85783" lon="1.83038">
        <ele>985.388</ele>
        <time>2021-02-28T08:28:39Z</time>
      </trkpt>
      <trkpt lat="42.85785" lon="1.8304">
        <ele>985.342</ele>
        <time>2021-02-28T08:28:41Z</time>
      </trkpt>
      <trkpt lat="42.85787" lon="1.83042">
        <ele>985.591</ele>
        <time>2021-02-28T08:28:43Z</time>
      </trkpt>
      <trkpt lat="42.85788" lon="1.83045">
        <ele>986.477</ele>
        <time>2021-02-28T08:28:45Z</time>
      </trkpt>
      <trkpt lat="42.8579" lon="1.83048">
        <ele>986.539</ele>
        <time>2021-02-28T08:28:47Z</time>
      </trkpt>
      <trkpt lat="42.85791" lon="1.8305">
        <ele>986.15</ele>
        <time>2021-02-28T08:28:49Z</time>
      </trkpt>
      <trkpt lat="42.85792" lon="1.83053">
        <ele>985.546</ele>
        <time>2021-02-28T08:28:51Z</time>
      </trkpt>
      <trkpt lat="42.85793" lon="1.83055">
        <ele>986.441</ele>
        <time>2021-02-28T08:28:53Z</time>
      </trkpt>
      <trkpt lat="42.85795" lon="1.83057">
        <ele>985.422</ele>
        <time>2021-02-28T08:28:55Z</time>
      </trkpt>
      <trkpt lat="42.85796" lon="1.8306">
        <ele>985.514</ele>
        <time>2021-02-28T08:28:57Z</time>
      </trkpt>
      <trkpt lat="42.85797" lon="1.83062">
        <ele>986.113</ele>
        <time>2021-02-28T08:28:59Z</time>
      </trkpt>
      <trkpt lat="42.85798" lon="1.83064">
        <ele>985.121</ele>
        <time>2021-02-28T08:29:01Z</time>
      </trkpt>
      <trkpt lat="42.858" lon="1.83066">
        <ele>985.976</ele>
        <time>2021-02-28T08:29:03Z</time>
      </trkpt>
      <trkpt lat="42.85802" lon="1.83069">
        <ele>987.261</ele>
        <time>2021-02-28T08:29:05Z</time>
      </trkpt>
      <trkpt lat="42.85803" lon="1.83072">
        <ele>987.7</ele>
        <time>2021-02-28T08:29:07Z</time>
      </trkpt>
      <trkpt lat="42.85805" lon="1.83074">
        <ele>987.649</ele>
        <time>2021-02-28T08:29:09Z</time>
      </trkpt>
      <trkpt lat="42.85807" lon="1.83076">
        <ele>987.695</ele>
        <time>2021-02-28T08:29:11Z</time>
      </trkpt>
      <trkpt lat="42.85808" lon="1.83078">
        <ele>987.869</ele>
        <time>2021-02-28T08:29:13Z</time>
      </trkpt>
      <trkpt lat="42.8581" lon="1.83081">
        <ele>988.251</ele>
        <time>2021-02-28T08:29:15Z</time>
      </trkpt>
      <trkpt lat="42.85812" lon="1.83083">
        <ele>988.287</ele>
        <time>2021-02-28T08:29:17Z</time>
      </trkpt>
      <trkpt lat="42.85814" lon="1.83085">
        <ele>989.221</ele>
        <time>2021-02-28T08:29:19Z</time>
      </trkpt>
      <trkpt lat="42.85816" lon="1.83088">
        <ele>990.139</ele>
        <time>2021-02-28T08:29:21Z</time>
      </trkpt>
      <trkpt lat="42.85818" lon="1.8309">
        <ele>990.774</ele>
        <time>2021-02-28T08:29:23Z</time>
      </trkpt>
      <trkpt lat="42.8582" lon="1.83094">
        <ele>992.417</ele>
        <time>2021-02-28T08:29:26Z</time>
      </trkpt>
      <trkpt lat="42.85822" lon="1.83097">
        <ele>993.06</ele>
        <time>2021-02-28T08:29:28Z</time>
      </trkpt>
      <trkpt lat="42.85823" lon="1.83099">
        <ele>994.205</ele>
        <time>2021-02-28T08:29:30Z</time>
      </trkpt>
      <trkpt lat="42.85826" lon="1.83101">
        <ele>995.561</ele>
        <time>2021-02-28T08:29:32Z</time>
      </trkpt>
      <trkpt lat="42.85827" lon="1.83104">
        <ele>996.447</ele>
        <time>2021-02-28T08:29:34Z</time>
      </trkpt>
      <trkpt lat="42.85829" lon="1.83107">
        <ele>996.458</ele>
        <time>2021-02-28T08:29:36Z</time>
      </trkpt>
      <trkpt lat="42.85831" lon="1.83109">
        <ele>996.829</ele>
        <time>2021-02-28T08:29:38Z</time>
      </trkpt>
      <trkpt lat="42.85834" lon="1.83113">
        <ele>997.441</ele>
        <time>2021-02-28T08:29:41Z</time>
      </trkpt>
      <trkpt lat="42.85835" lon="1.83116">
        <ele>998.078</ele>
        <time>2021-02-28T08:29:43Z</time>
      </trkpt>
      <trkpt lat="42.85837" lon="1.83118">
        <ele>998.348</ele>
        <time>2021-02-28T08:29:45Z</time>
      </trkpt>
      <trkpt lat="42.85838" lon="1.83121">
        <ele>998.741</ele>
        <time>2021-02-28T08:29:47Z</time>
      </trkpt>
      <trkpt lat="42.85841" lon="1.83123">
        <ele>999.836</ele>
        <time>2021-02-28T08:29:49Z</time>
      </trkpt>
      <trkpt lat="42.85842" lon="1.83125">
        <ele>1000.115</ele>
        <time>2021-02-28T08:29:51Z</time>
      </trkpt>
      <trkpt lat="42.85844" lon="1.83127">
        <ele>999.505</ele>
        <time>2021-02-28T08:29:53Z</time>
      </trkpt>
      <trkpt lat="42.85846" lon="1.8313">
        <ele>999.73</ele>
        <time>2021-02-28T08:29:55Z</time>
      </trkpt>
      <trkpt lat="42.85848" lon="1.83132">
        <ele>1000.235</ele>
        <time>2021-02-28T08:29:57Z</time>
      </trkpt>
      <trkpt lat="42.85849" lon="1.83135">
        <ele>999.954</ele>
        <time>2021-02-28T08:29:59Z</time>
      </trkpt>
      <trkpt lat="42.85851" lon="1.83137">
        <ele>1000.183</ele>
        <time>2021-02-28T08:30:01Z</time>
      </trkpt>
      <trkpt lat="42.85852" lon="1.83139">
        <ele>1000.06</ele>
        <time>2021-02-28T08:30:03Z</time>
      </trkpt>
      <trkpt lat="42.85854" lon="1.83142">
        <ele>1000.616</ele>
        <time>2021-02-28T08:30:05Z</time>
      </trkpt>
      <trkpt lat="42.85857" lon="1.83144">
        <ele>1001.549</ele>
        <time>2021-02-28T08:30:07Z</time>
      </trkpt>
      <trkpt lat="42.85859" lon="1.83148">
        <ele>1002.766</ele>
        <time>2021-02-28T08:30:10Z</time>
      </trkpt>
      <trkpt lat="42.85861" lon="1.8315">
        <ele>1003.921</ele>
        <time>2021-02-28T08:30:12Z</time>
      </trkpt>
      <trkpt lat="42.85863" lon="1.83152">
        <ele>1004.125</ele>
        <time>2021-02-28T08:30:14Z</time>
      </trkpt>
      <trkpt lat="42.85864" lon="1.83153">
        <ele>1003.621</ele>
        <time>2021-02-28T08:30:15Z</time>
      </trkpt>
      <trkpt lat="42.85867" lon="1.83156">
        <ele>1004.205</ele>
        <time>2021-02-28T08:30:18Z</time>
      </trkpt>
      <trkpt lat="42.85869" lon="1.83158">
        <ele>1004.324</ele>
        <time>2021-02-28T08:30:20Z</time>
      </trkpt>
      <trkpt lat="42.85871" lon="1.83161">
        <ele>1003.871</ele>
        <time>2021-02-28T08:30:22Z</time>
      </trkpt>
      <trkpt lat="42.85873" lon="1.83163">
        <ele>1004.128</ele>
        <time>2021-02-28T08:30:24Z</time>
      </trkpt>
      <trkpt lat="42.85875" lon="1.83165">
        <ele>1004.196</ele>
        <time>2021-02-28T08:30:26Z</time>
      </trkpt>
      <trkpt lat="42.85878" lon="1.83167">
        <ele>1004.624</ele>
        <time>2021-02-28T08:30:28Z</time>
      </trkpt>
      <trkpt lat="42.8588" lon="1.8317">
        <ele>1004.54</ele>
        <time>2021-02-28T08:30:30Z</time>
      </trkpt>
      <trkpt lat="42.85882" lon="1.83172">
        <ele>1005.3</ele>
        <time>2021-02-28T08:30:32Z</time>
      </trkpt>
      <trkpt lat="42.85884" lon="1.83174">
        <ele>1005.379</ele>
        <time>2021-02-28T08:30:34Z</time>
      </trkpt>
      <trkpt lat="42.85886" lon="1.83177">
        <ele>1006.059</ele>
        <time>2021-02-28T08:30:36Z</time>
      </trkpt>
      <trkpt lat="42.85888" lon="1.8318">
        <ele>1006.561</ele>
        <time>2021-02-28T08:30:39Z</time>
      </trkpt>
      <trkpt lat="42.8589" lon="1.83182">
        <ele>1005.947</ele>
        <time>2021-02-28T08:30:41Z</time>
      </trkpt>
      <trkpt lat="42.85892" lon="1.83184">
        <ele>1005.247</ele>
        <time>2021-02-28T08:30:43Z</time>
      </trkpt>
      <trkpt lat="42.85893" lon="1.83187">
        <ele>1005.706</ele>
        <time>2021-02-28T08:30:45Z</time>
      </trkpt>
      <trkpt lat="42.85896" lon="1.83191">
        <ele>1006.662</ele>
        <time>2021-02-28T08:30:48Z</time>
      </trkpt>
      <trkpt lat="42.85898" lon="1.83194">
        <ele>1007.711</ele>
        <time>2021-02-28T08:30:50Z</time>
      </trkpt>
      <trkpt lat="42.85899" lon="1.83196">
        <ele>1008.724</ele>
        <time>2021-02-28T08:30:52Z</time>
      </trkpt>
      <trkpt lat="42.85901" lon="1.83199">
        <ele>1008.642</ele>
        <time>2021-02-28T08:30:54Z</time>
      </trkpt>
      <trkpt lat="42.85903" lon="1.83201">
        <ele>1009.344</ele>
        <time>2021-02-28T08:30:56Z</time>
      </trkpt>
      <trkpt lat="42.85905" lon="1.83204">
        <ele>1009.579</ele>
        <time>2021-02-28T08:30:58Z</time>
      </trkpt>
      <trkpt lat="42.85907" lon="1.83206">
        <ele>1009.819</ele>
        <time>2021-02-28T08:31:00Z</time>
      </trkpt>
      <trkpt lat="42.85909" lon="1.83208">
        <ele>1009.63</ele>
        <time>2021-02-28T08:31:02Z</time>
      </trkpt>
      <trkpt lat="42.85911" lon="1.8321">
        <ele>1010.254</ele>
        <time>2021-02-28T08:31:04Z</time>
      </trkpt>
      <trkpt lat="42.85912" lon="1.83213">
        <ele>1010.932</ele>
        <time>2021-02-28T08:31:06Z</time>
      </trkpt>
      <trkpt lat="42.85914" lon="1.83214">
        <ele>1010.891</ele>
        <time>2021-02-28T08:31:08Z</time>
      </trkpt>
      <trkpt lat="42.85917" lon="1.83217">
        <ele>1010.57</ele>
        <time>2021-02-28T08:31:11Z</time>
      </trkpt>
      <trkpt lat="42.85919" lon="1.83219">
        <ele>1010.632</ele>
        <time>2021-02-28T08:31:13Z</time>
      </trkpt>
      <trkpt lat="42.85921" lon="1.83221">
        <ele>1010.521</ele>
        <time>2021-02-28T08:31:15Z</time>
      </trkpt>
      <trkpt lat="42.85923" lon="1.83224">
        <ele>1010.943</ele>
        <time>2021-02-28T08:31:17Z</time>
      </trkpt>
      <trkpt lat="42.85925" lon="1.83225">
        <ele>1011.907</ele>
        <time>2021-02-28T08:31:19Z</time>
      </trkpt>
      <trkpt lat="42.85927" lon="1.83228">
        <ele>1011.919</ele>
        <time>2021-02-28T08:31:21Z</time>
      </trkpt>
      <trkpt lat="42.85929" lon="1.8323">
        <ele>1012.123</ele>
        <time>2021-02-28T08:31:23Z</time>
      </trkpt>
      <trkpt lat="42.85931" lon="1.83233">
        <ele>1013.08</ele>
        <time>2021-02-28T08:31:25Z</time>
      </trkpt>
      <trkpt lat="42.85932" lon="1.83235">
        <ele>1013.915</ele>
        <time>2021-02-28T08:31:27Z</time>
      </trkpt>
      <trkpt lat="42.85934" lon="1.83237">
        <ele>1013.824</ele>
        <time>2021-02-28T08:31:29Z</time>
      </trkpt>
      <trkpt lat="42.85936" lon="1.83239">
        <ele>1013.838</ele>
        <time>2021-02-28T08:31:31Z</time>
      </trkpt>
      <trkpt lat="42.85938" lon="1.83241">
        <ele>1014.309</ele>
        <time>2021-02-28T08:31:33Z</time>
      </trkpt>
      <trkpt lat="42.8594" lon="1.83243">
        <ele>1014.079</ele>
        <time>2021-02-28T08:31:35Z</time>
      </trkpt>
      <trkpt lat="42.85942" lon="1.83245">
        <ele>1014.627</ele>
        <time>2021-02-28T08:31:37Z</time>
      </trkpt>
      <trkpt lat="42.85945" lon="1.83249">
        <ele>1014.998</ele>
        <time>2021-02-28T08:31:40Z</time>
      </trkpt>
      <trkpt lat="42.85946" lon="1.83251">
        <ele>1015.227</ele>
        <time>2021-02-28T08:31:42Z</time>
      </trkpt>
      <trkpt lat="42.85948" lon="1.83253">
        <ele>1015.472</ele>
        <time>2021-02-28T08:31:44Z</time>
      </trkpt>
      <trkpt lat="42.85949" lon="1.83256">
        <ele>1015.243</ele>
        <time>2021-02-28T08:31:46Z</time>
      </trkpt>
      <trkpt lat="42.85951" lon="1.83258">
        <ele>1015.699</ele>
        <time>2021-02-28T08:31:48Z</time>
      </trkpt>
      <trkpt lat="42.85953" lon="1.83261">
        <ele>1016.999</ele>
        <time>2021-02-28T08:31:50Z</time>
      </trkpt>
      <trkpt lat="42.85955" lon="1.83264">
        <ele>1018.397</ele>
        <time>2021-02-28T08:31:52Z</time>
      </trkpt>
      <trkpt lat="42.85956" lon="1.83267">
        <ele>1018.476</ele>
        <time>2021-02-28T08:31:54Z</time>
      </trkpt>
      <trkpt lat="42.85959" lon="1.83271">
        <ele>1019.279</ele>
        <time>2021-02-28T08:31:57Z</time>
      </trkpt>
      <trkpt lat="42.8596" lon="1.83273">
        <ele>1019.57</ele>
        <time>2021-02-28T08:31:59Z</time>
      </trkpt>
      <trkpt lat="42.85963" lon="1.83277">
        <ele>1020.543</ele>
        <time>2021-02-28T08:32:02Z</time>
      </trkpt>
      <trkpt lat="42.85965" lon="1.83279">
        <ele>1021.12</ele>
        <time>2021-02-28T08:32:04Z</time>
      </trkpt>
      <trkpt lat="42.85966" lon="1.83282">
        <ele>1021.186</ele>
        <time>2021-02-28T08:32:06Z</time>
      </trkpt>
      <trkpt lat="42.85968" lon="1.83285">
        <ele>1021.965</ele>
        <time>2021-02-28T08:32:08Z</time>
      </trkpt>
      <trkpt lat="42.8597" lon="1.83287">
        <ele>1022.557</ele>
        <time>2021-02-28T08:32:10Z</time>
      </trkpt>
      <trkpt lat="42.85972" lon="1.8329">
        <ele>1022.36</ele>
        <time>2021-02-28T08:32:12Z</time>
      </trkpt>
      <trkpt lat="42.85974" lon="1.83292">
        <ele>1022.575</ele>
        <time>2021-02-28T08:32:14Z</time>
      </trkpt>
      <trkpt lat="42.85976" lon="1.83294">
        <ele>1022.972</ele>
        <time>2021-02-28T08:32:16Z</time>
      </trkpt>
      <trkpt lat="42.85977" lon="1.83296">
        <ele>1022.806</ele>
        <time>2021-02-28T08:32:17Z</time>
      </trkpt>
      <trkpt lat="42.8598" lon="1.83299">
        <ele>1022.502</ele>
        <time>2021-02-28T08:32:20Z</time>
      </trkpt>
      <trkpt lat="42.85982" lon="1.83301">
        <ele>1023.284</ele>
        <time>2021-02-28T08:32:22Z</time>
      </trkpt>
      <trkpt lat="42.85984" lon="1.83304">
        <ele>1022.853</ele>
        <time>2021-02-28T08:32:24Z</time>
      </trkpt>
      <trkpt lat="42.85985" lon="1.83306">
        <ele>1023.923</ele>
        <time>2021-02-28T08:32:26Z</time>
      </trkpt>
      <trkpt lat="42.85987" lon="1.83308">
        <ele>1024.647</ele>
        <time>2021-02-28T08:32:28Z</time>
      </trkpt>
      <trkpt lat="42.85989" lon="1.8331">
        <ele>1025.192</ele>
        <time>2021-02-28T08:32:30Z</time>
      </trkpt>
      <trkpt lat="42.85991" lon="1.83312">
        <ele>1025.07</ele>
        <time>2021-02-28T08:32:32Z</time>
      </trkpt>
      <trkpt lat="42.85993" lon="1.83315">
        <ele>1025.917</ele>
        <time>2021-02-28T08:32:34Z</time>
      </trkpt>
      <trkpt lat="42.85995" lon="1.83317">
        <ele>1026.475</ele>
        <time>2021-02-28T08:32:36Z</time>
      </trkpt>
      <trkpt lat="42.85997" lon="1.83319">
        <ele>1027.133</ele>
        <time>2021-02-28T08:32:38Z</time>
      </trkpt>
      <trkpt lat="42.85999" lon="1.83321">
        <ele>1026.657</ele>
        <time>2021-02-28T08:32:40Z</time>
      </trkpt>
      <trkpt lat="42.86001" lon="1.83324">
        <ele>1026.785</ele>
        <time>2021-02-28T08:32:42Z</time>
      </trkpt>
      <trkpt lat="42.86003" lon="1.83326">
        <ele>1027.428</ele>
        <time>2021-02-28T08:32:44Z</time>
      </trkpt>
      <trkpt lat="42.86005" lon="1.83327">
        <ele>1028.039</ele>
        <time>2021-02-28T08:32:46Z</time>
      </trkpt>
      <trkpt lat="42.86007" lon="1.83329">
        <ele>1028.408</ele>
        <time>2021-02-28T08:32:48Z</time>
      </trkpt>
      <trkpt lat="42.86009" lon="1.83332">
        <ele>1027.644</ele>
        <time>2021-02-28T08:32:50Z</time>
      </trkpt>
      <trkpt lat="42.86012" lon="1.83335">
        <ele>1027.052</ele>
        <time>2021-02-28T08:32:53Z</time>
      </trkpt>
      <trkpt lat="42.86013" lon="1.83337">
        <ele>1026.891</ele>
        <time>2021-02-28T08:32:55Z</time>
      </trkpt>
      <trkpt lat="42.86015" lon="1.83339">
        <ele>1026.708</ele>
        <time>2021-02-28T08:32:57Z</time>
      </trkpt>
      <trkpt lat="42.86017" lon="1.83341">
        <ele>1026.454</ele>
        <time>2021-02-28T08:32:59Z</time>
      </trkpt>
      <trkpt lat="42.86018" lon="1.83344">
        <ele>1027.208</ele>
        <time>2021-02-28T08:33:01Z</time>
      </trkpt>
      <trkpt lat="42.8602" lon="1.83346">
        <ele>1027.446</ele>
        <time>2021-02-28T08:33:03Z</time>
      </trkpt>
      <trkpt lat="42.86022" lon="1.83349">
        <ele>1026.93</ele>
        <time>2021-02-28T08:33:05Z</time>
      </trkpt>
      <trkpt lat="42.86024" lon="1.83351">
        <ele>1028.309</ele>
        <time>2021-02-28T08:33:07Z</time>
      </trkpt>
      <trkpt lat="42.86025" lon="1.83352">
        <ele>1029.184</ele>
        <time>2021-02-28T08:33:08Z</time>
      </trkpt>
      <trkpt lat="42.86028" lon="1.83356">
        <ele>1028.714</ele>
        <time>2021-02-28T08:33:11Z</time>
      </trkpt>
      <trkpt lat="42.86029" lon="1.83358">
        <ele>1028.338</ele>
        <time>2021-02-28T08:33:13Z</time>
      </trkpt>
      <trkpt lat="42.86031" lon="1.83361">
        <ele>1028.745</ele>
        <time>2021-02-28T08:33:15Z</time>
      </trkpt>
      <trkpt lat="42.86033" lon="1.83363">
        <ele>1027.97</ele>
        <time>2021-02-28T08:33:17Z</time>
      </trkpt>
      <trkpt lat="42.86035" lon="1.83365">
        <ele>1028.631</ele>
        <time>2021-02-28T08:33:19Z</time>
      </trkpt>
      <trkpt lat="42.86037" lon="1.83367">
        <ele>1028.534</ele>
        <time>2021-02-28T08:33:21Z</time>
      </trkpt>
      <trkpt lat="42.86038" lon="1.83369">
        <ele>1028.837</ele>
        <time>2021-02-28T08:33:23Z</time>
      </trkpt>
      <trkpt lat="42.8604" lon="1.83371">
        <ele>1028.053</ele>
        <time>2021-02-28T08:33:25Z</time>
      </trkpt>
      <trkpt lat="42.86043" lon="1.83374">
        <ele>1028.485</ele>
        <time>2021-02-28T08:33:28Z</time>
      </trkpt>
      <trkpt lat="42.86045" lon="1.83376">
        <ele>1029.395</ele>
        <time>2021-02-28T08:33:30Z</time>
      </trkpt>
      <trkpt lat="42.86047" lon="1.83379">
        <ele>1029.54</ele>
        <time>2021-02-28T08:33:32Z</time>
      </trkpt>
      <trkpt lat="42.86049" lon="1.83381">
        <ele>1030.238</ele>
        <time>2021-02-28T08:33:34Z</time>
      </trkpt>
      <trkpt lat="42.86051" lon="1.83383">
        <ele>1030.423</ele>
        <time>2021-02-28T08:33:36Z</time>
      </trkpt>
      <trkpt lat="42.86053" lon="1.83384">
        <ele>1030.858</ele>
        <time>2021-02-28T08:33:38Z</time>
      </trkpt>
      <trkpt lat="42.86054" lon="1.83386">
        <ele>1031.23</ele>
        <time>2021-02-28T08:33:40Z</time>
      </trkpt>
      <trkpt lat="42.86056" lon="1.83388">
        <ele>1030.595</ele>
        <time>2021-02-28T08:33:42Z</time>
      </trkpt>
      <trkpt lat="42.86058" lon="1.8339">
        <ele>1030.219</ele>
        <time>2021-02-28T08:33:44Z</time>
      </trkpt>
      <trkpt lat="42.8606" lon="1.83392">
        <ele>1029.918</ele>
        <time>2021-02-28T08:33:46Z</time>
      </trkpt>
      <trkpt lat="42.86062" lon="1.83395">
        <ele>1030.552</ele>
        <time>2021-02-28T08:33:49Z</time>
      </trkpt>
      <trkpt lat="42.86064" lon="1.83398">
        <ele>1031.411</ele>
        <time>2021-02-28T08:33:51Z</time>
      </trkpt>
      <trkpt lat="42.86066" lon="1.834">
        <ele>1031.758</ele>
        <time>2021-02-28T08:33:53Z</time>
      </trkpt>
      <trkpt lat="42.86067" lon="1.83402">
        <ele>1032.099</ele>
        <time>2021-02-28T08:33:55Z</time>
      </trkpt>
      <trkpt lat="42.86068" lon="1.83405">
        <ele>1031.316</ele>
        <time>2021-02-28T08:33:57Z</time>
      </trkpt>
      <trkpt lat="42.8607" lon="1.83408">
        <ele>1032.057</ele>
        <time>2021-02-28T08:33:59Z</time>
      </trkpt>
      <trkpt lat="42.86072" lon="1.8341">
        <ele>1032.219</ele>
        <time>2021-02-28T08:34:01Z</time>
      </trkpt>
      <trkpt lat="42.86073" lon="1.83412">
        <ele>1032.305</ele>
        <time>2021-02-28T08:34:03Z</time>
      </trkpt>
      <trkpt lat="42.86075" lon="1.83415">
        <ele>1032.911</ele>
        <time>2021-02-28T08:34:05Z</time>
      </trkpt>
      <trkpt lat="42.86077" lon="1.83417">
        <ele>1033.436</ele>
        <time>2021-02-28T08:34:07Z</time>
      </trkpt>
      <trkpt lat="42.86078" lon="1.83419">
        <ele>1034.048</ele>
        <time>2021-02-28T08:34:09Z</time>
      </trkpt>
      <trkpt lat="42.8608" lon="1.83421">
        <ele>1035.356</ele>
        <time>2021-02-28T08:34:11Z</time>
      </trkpt>
      <trkpt lat="42.86082" lon="1.83423">
        <ele>1036.079</ele>
        <time>2021-02-28T08:34:13Z</time>
      </trkpt>
      <trkpt lat="42.86083" lon="1.83425">
        <ele>1036.675</ele>
        <time>2021-02-28T08:34:15Z</time>
      </trkpt>
      <trkpt lat="42.86085" lon="1.83428">
        <ele>1036.505</ele>
        <time>2021-02-28T08:34:17Z</time>
      </trkpt>
      <trkpt lat="42.86086" lon="1.8343">
        <ele>1036.891</ele>
        <time>2021-02-28T08:34:19Z</time>
      </trkpt>
      <trkpt lat="42.86088" lon="1.83432">
        <ele>1037.382</ele>
        <time>2021-02-28T08:34:21Z</time>
      </trkpt>
      <trkpt lat="42.86089" lon="1.83434">
        <ele>1037.659</ele>
        <time>2021-02-28T08:34:23Z</time>
      </trkpt>
      <trkpt lat="42.8609" lon="1.83435">
        <ele>1039.025</ele>
        <time>2021-02-28T08:34:25Z</time>
      </trkpt>
      <trkpt lat="42.8609" lon="1.83435">
        <ele>1039.149</ele>
        <time>2021-02-28T08:34:27Z</time>
      </trkpt>
      <trkpt lat="42.8609" lon="1.83435">
        <ele>1039.06</ele>
        <time>2021-02-28T08:34:29Z</time>
      </trkpt>
      <trkpt lat="42.8609" lon="1.83435">
        <ele>1039.073</ele>
        <time>2021-02-28T08:34:31Z</time>
      </trkpt>
      <trkpt lat="42.8609" lon="1.83435">
        <ele>1039.077</ele>
        <time>2021-02-28T08:34:33Z</time>
      </trkpt>
      <trkpt lat="42.8609" lon="1.83435">
        <ele>1038.91</ele>
        <time>2021-02-28T08:34:35Z</time>
      </trkpt>
      <trkpt lat="42.86089" lon="1.83435">
        <ele>1038.788</ele>
        <time>2021-02-28T08:34:37Z</time>
      </trkpt>
      <trkpt lat="42.86089" lon="1.83435">
        <ele>1038.8</ele>
        <time>2021-02-28T08:34:39Z</time>
      </trkpt>
      <trkpt lat="42.86089" lon="1.83435">
        <ele>1039.196</ele>
        <time>2021-02-28T08:34:41Z</time>
      </trkpt>
      <trkpt lat="42.8609" lon="1.83435">
        <ele>1039.486</ele>
        <time>2021-02-28T08:34:43Z</time>
      </trkpt>
      <trkpt lat="42.86092" lon="1.83436">
        <ele>1039.72</ele>
        <time>2021-02-28T08:34:45Z</time>
      </trkpt>
      <trkpt lat="42.86094" lon="1.83437">
        <ele>1040.489</ele>
        <time>2021-02-28T08:34:47Z</time>
      </trkpt>
      <trkpt lat="42.86095" lon="1.83439">
        <ele>1040.399</ele>
        <time>2021-02-28T08:34:49Z</time>
      </trkpt>
      <trkpt lat="42.86096" lon="1.83441">
        <ele>1040.484</ele>
        <time>2021-02-28T08:34:51Z</time>
      </trkpt>
      <trkpt lat="42.86097" lon="1.83443">
        <ele>1039.721</ele>
        <time>2021-02-28T08:34:53Z</time>
      </trkpt>
      <trkpt lat="42.86098" lon="1.83445">
        <ele>1039.767</ele>
        <time>2021-02-28T08:34:55Z</time>
      </trkpt>
      <trkpt lat="42.861" lon="1.83447">
        <ele>1040.355</ele>
        <time>2021-02-28T08:34:57Z</time>
      </trkpt>
      <trkpt lat="42.86102" lon="1.83449">
        <ele>1042.554</ele>
        <time>2021-02-28T08:34:59Z</time>
      </trkpt>
      <trkpt lat="42.86104" lon="1.8345">
        <ele>1042.849</ele>
        <time>2021-02-28T08:35:01Z</time>
      </trkpt>
      <trkpt lat="42.86105" lon="1.83452">
        <ele>1043.454</ele>
        <time>2021-02-28T08:35:03Z</time>
      </trkpt>
      <trkpt lat="42.86107" lon="1.83453">
        <ele>1044.426</ele>
        <time>2021-02-28T08:35:05Z</time>
      </trkpt>
      <trkpt lat="42.86108" lon="1.83455">
        <ele>1044.778</ele>
        <time>2021-02-28T08:35:07Z</time>
      </trkpt>
      <trkpt lat="42.86109" lon="1.83456">
        <ele>1044.584</ele>
        <time>2021-02-28T08:35:09Z</time>
      </trkpt>
      <trkpt lat="42.86111" lon="1.83458">
        <ele>1046.325</ele>
        <time>2021-02-28T08:35:11Z</time>
      </trkpt>
      <trkpt lat="42.86113" lon="1.83459">
        <ele>1048.029</ele>
        <time>2021-02-28T08:35:13Z</time>
      </trkpt>
      <trkpt lat="42.86114" lon="1.8346">
        <ele>1048.488</ele>
        <time>2021-02-28T08:35:15Z</time>
      </trkpt>
      <trkpt lat="42.86114" lon="1.8346">
        <ele>1048.788</ele>
        <time>2021-02-28T08:35:17Z</time>
      </trkpt>
      <trkpt lat="42.86114" lon="1.8346">
        <ele>1048.785</ele>
        <time>2021-02-28T08:35:19Z</time>
      </trkpt>
      <trkpt lat="42.86114" lon="1.8346">
        <ele>1048.784</ele>
        <time>2021-02-28T08:35:21Z</time>
      </trkpt>
      <trkpt lat="42.86114" lon="1.8346">
        <ele>1048.787</ele>
        <time>2021-02-28T08:35:23Z</time>
      </trkpt>
      <trkpt lat="42.86114" lon="1.8346">
        <ele>1048.774</ele>
        <time>2021-02-28T08:35:25Z</time>
      </trkpt>
      <trkpt lat="42.86114" lon="1.8346">
        <ele>1048.783</ele>
        <time>2021-02-28T08:35:27Z</time>
      </trkpt>
      <trkpt lat="42.86114" lon="1.8346">
        <ele>1048.784</ele>
        <time>2021-02-28T08:35:29Z</time>
      </trkpt>
      <trkpt lat="42.86114" lon="1.8346">
        <ele>1048.791</ele>
        <time>2021-02-28T08:35:31Z</time>
      </trkpt>
      <trkpt lat="42.86114" lon="1.8346">
        <ele>1048.792</ele>
        <time>2021-02-28T08:35:33Z</time>
      </trkpt>
      <trkpt lat="42.86114" lon="1.8346">
        <ele>1047.67</ele>
        <time>2021-02-28T08:35:35Z</time>
      </trkpt>
      <trkpt lat="42.86114" lon="1.83461">
        <ele>1048.027</ele>
        <time>2021-02-28T08:35:37Z</time>
      </trkpt>
      <trkpt lat="42.86114" lon="1.83462">
        <ele>1048.434</ele>
        <time>2021-02-28T08:35:39Z</time>
      </trkpt>
      <trkpt lat="42.86114" lon="1.83464">
        <ele>1047.116</ele>
        <time>2021-02-28T08:35:41Z</time>
      </trkpt>
      <trkpt lat="42.86114" lon="1.83464">
        <ele>1047.288</ele>
        <time>2021-02-28T08:35:43Z</time>
      </trkpt>
      <trkpt lat="42.86114" lon="1.83464">
        <ele>1047.298</ele>
        <time>2021-02-28T08:35:45Z</time>
      </trkpt>
      <trkpt lat="42.86114" lon="1.83464">
        <ele>1047.286</ele>
        <time>2021-02-28T08:35:47Z</time>
      </trkpt>
      <trkpt lat="42.86114" lon="1.83464">
        <ele>1047.269</ele>
        <time>2021-02-28T08:35:49Z</time>
      </trkpt>
      <trkpt lat="42.86114" lon="1.83464">
        <ele>1046.957</ele>
        <time>2021-02-28T08:35:51Z</time>
      </trkpt>
      <trkpt lat="42.86113" lon="1.83464">
        <ele>1046.935</ele>
        <time>2021-02-28T08:35:53Z</time>
      </trkpt>
      <trkpt lat="42.86113" lon="1.83464">
        <ele>1046.931</ele>
        <time>2021-02-28T08:35:55Z</time>
      </trkpt>
      <trkpt lat="42.86113" lon="1.83463">
        <ele>1046.644</ele>
        <time>2021-02-28T08:35:57Z</time>
      </trkpt>
      <trkpt lat="42.86113" lon="1.83463">
        <ele>1046.638</ele>
        <time>2021-02-28T08:35:59Z</time>
      </trkpt>
      <trkpt lat="42.86113" lon="1.83463">
        <ele>1046.226</ele>
        <time>2021-02-28T08:36:01Z</time>
      </trkpt>
      <trkpt lat="42.86113" lon="1.83464">
        <ele>1046.224</ele>
        <time>2021-02-28T08:36:03Z</time>
      </trkpt>
      <trkpt lat="42.86113" lon="1.83464">
        <ele>1046.221</ele>
        <time>2021-02-28T08:36:05Z</time>
      </trkpt>
      <trkpt lat="42.86113" lon="1.83464">
        <ele>1046.216</ele>
        <time>2021-02-28T08:36:07Z</time>
      </trkpt>
      <trkpt lat="42.86113" lon="1.83464">
        <ele>1046.212</ele>
        <time>2021-02-28T08:36:09Z</time>
      </trkpt>
      <trkpt lat="42.86113" lon="1.83464">
        <ele>1046.208</ele>
        <time>2021-02-28T08:36:11Z</time>
      </trkpt>
      <trkpt lat="42.86113" lon="1.83464">
        <ele>1046.2</ele>
        <time>2021-02-28T08:36:13Z</time>
      </trkpt>
      <trkpt lat="42.86113" lon="1.83464">
        <ele>1046.191</ele>
        <time>2021-02-28T08:36:15Z</time>
      </trkpt>
      <trkpt lat="42.86113" lon="1.83464">
        <ele>1046.179</ele>
        <time>2021-02-28T08:36:17Z</time>
      </trkpt>
      <trkpt lat="42.86113" lon="1.83464">
        <ele>1046.173</ele>
        <time>2021-02-28T08:36:19Z</time>
      </trkpt>
      <trkpt lat="42.86113" lon="1.83464">
        <ele>1046.171</ele>
        <time>2021-02-28T08:36:21Z</time>
      </trkpt>
      <trkpt lat="42.86113" lon="1.83463">
        <ele>1046.163</ele>
        <time>2021-02-28T08:36:23Z</time>
      </trkpt>
      <trkpt lat="42.86113" lon="1.83463">
        <ele>1046.158</ele>
        <time>2021-02-28T08:36:25Z</time>
      </trkpt>
      <trkpt lat="42.86113" lon="1.83463">
        <ele>1046.159</ele>
        <time>2021-02-28T08:36:27Z</time>
      </trkpt>
      <trkpt lat="42.86113" lon="1.83463">
        <ele>1046.153</ele>
        <time>2021-02-28T08:36:29Z</time>
      </trkpt>
      <trkpt lat="42.86112" lon="1.83464">
        <ele>1045.453</ele>
        <time>2021-02-28T08:36:31Z</time>
      </trkpt>
      <trkpt lat="42.86113" lon="1.83466">
        <ele>1046.21</ele>
        <time>2021-02-28T08:36:33Z</time>
      </trkpt>
      <trkpt lat="42.86114" lon="1.83467">
        <ele>1046.175</ele>
        <time>2021-02-28T08:36:35Z</time>
      </trkpt>
      <trkpt lat="42.86115" lon="1.83468">
        <ele>1045.743</ele>
        <time>2021-02-28T08:36:37Z</time>
      </trkpt>
      <trkpt lat="42.86116" lon="1.8347">
        <ele>1045.985</ele>
        <time>2021-02-28T08:36:39Z</time>
      </trkpt>
      <trkpt lat="42.86117" lon="1.83472">
        <ele>1046.028</ele>
        <time>2021-02-28T08:36:41Z</time>
      </trkpt>
      <trkpt lat="42.86118" lon="1.83473">
        <ele>1045.81</ele>
        <time>2021-02-28T08:36:43Z</time>
      </trkpt>
      <trkpt lat="42.86119" lon="1.83475">
        <ele>1045.25</ele>
        <time>2021-02-28T08:36:45Z</time>
      </trkpt>
      <trkpt lat="42.86121" lon="1.83477">
        <ele>1045.329</ele>
        <time>2021-02-28T08:36:47Z</time>
      </trkpt>
      <trkpt lat="42.86123" lon="1.83478">
        <ele>1046.107</ele>
        <time>2021-02-28T08:36:49Z</time>
      </trkpt>
      <trkpt lat="42.86122" lon="1.8348">
        <ele>1043.427</ele>
        <time>2021-02-28T08:36:51Z</time>
      </trkpt>
      <trkpt lat="42.86122" lon="1.83482">
        <ele>1043.054</ele>
        <time>2021-02-28T08:36:53Z</time>
      </trkpt>
      <trkpt lat="42.86124" lon="1.83484">
        <ele>1042.745</ele>
        <time>2021-02-28T08:36:55Z</time>
      </trkpt>
      <trkpt lat="42.86125" lon="1.83486">
        <ele>1042.504</ele>
        <time>2021-02-28T08:36:57Z</time>
      </trkpt>
      <trkpt lat="42.86126" lon="1.83488">
        <ele>1042.155</ele>
        <time>2021-02-28T08:36:59Z</time>
      </trkpt>
      <trkpt lat="42.86128" lon="1.8349">
        <ele>1042.416</ele>
        <time>2021-02-28T08:37:01Z</time>
      </trkpt>
      <trkpt lat="42.86129" lon="1.83492">
        <ele>1041.966</ele>
        <time>2021-02-28T08:37:03Z</time>
      </trkpt>
      <trkpt lat="42.86131" lon="1.83495">
        <ele>1041.509</ele>
        <time>2021-02-28T08:37:05Z</time>
      </trkpt>
      <trkpt lat="42.86132" lon="1.83496">
        <ele>1041.328</ele>
        <time>2021-02-28T08:37:07Z</time>
      </trkpt>
      <trkpt lat="42.86133" lon="1.83498">
        <ele>1041.471</ele>
        <time>2021-02-28T08:37:09Z</time>
      </trkpt>
      <trkpt lat="42.86135" lon="1.835">
        <ele>1041.748</ele>
        <time>2021-02-28T08:37:11Z</time>
      </trkpt>
      <trkpt lat="42.86136" lon="1.83502">
        <ele>1041.321</ele>
        <time>2021-02-28T08:37:13Z</time>
      </trkpt>
      <trkpt lat="42.86137" lon="1.83504">
        <ele>1040.702</ele>
        <time>2021-02-28T08:37:15Z</time>
      </trkpt>
      <trkpt lat="42.86138" lon="1.83507">
        <ele>1040.808</ele>
        <time>2021-02-28T08:37:17Z</time>
      </trkpt>
      <trkpt lat="42.8614" lon="1.83509">
        <ele>1041.209</ele>
        <time>2021-02-28T08:37:19Z</time>
      </trkpt>
      <trkpt lat="42.86141" lon="1.83512">
        <ele>1041.448</ele>
        <time>2021-02-28T08:37:21Z</time>
      </trkpt>
      <trkpt lat="42.86142" lon="1.83515">
        <ele>1040.896</ele>
        <time>2021-02-28T08:37:23Z</time>
      </trkpt>
      <trkpt lat="42.86143" lon="1.83517">
        <ele>1040.551</ele>
        <time>2021-02-28T08:37:25Z</time>
      </trkpt>
      <trkpt lat="42.86145" lon="1.83519">
        <ele>1041.122</ele>
        <time>2021-02-28T08:37:27Z</time>
      </trkpt>
      <trkpt lat="42.86146" lon="1.83522">
        <ele>1041.663</ele>
        <time>2021-02-28T08:37:29Z</time>
      </trkpt>
      <trkpt lat="42.86147" lon="1.83524">
        <ele>1040.563</ele>
        <time>2021-02-28T08:37:31Z</time>
      </trkpt>
      <trkpt lat="42.86148" lon="1.83527">
        <ele>1040.939</ele>
        <time>2021-02-28T08:37:33Z</time>
      </trkpt>
      <trkpt lat="42.8615" lon="1.83529">
        <ele>1041.597</ele>
        <time>2021-02-28T08:37:35Z</time>
      </trkpt>
      <trkpt lat="42.86151" lon="1.83531">
        <ele>1041.387</ele>
        <time>2021-02-28T08:37:37Z</time>
      </trkpt>
      <trkpt lat="42.86152" lon="1.83533">
        <ele>1040.315</ele>
        <time>2021-02-28T08:37:39Z</time>
      </trkpt>
      <trkpt lat="42.86154" lon="1.83536">
        <ele>1040.348</ele>
        <time>2021-02-28T08:37:41Z</time>
      </trkpt>
      <trkpt lat="42.86155" lon="1.83538">
        <ele>1040.544</ele>
        <time>2021-02-28T08:37:43Z</time>
      </trkpt>
      <trkpt lat="42.86157" lon="1.83539">
        <ele>1039.728</ele>
        <time>2021-02-28T08:37:45Z</time>
      </trkpt>
      <trkpt lat="42.86158" lon="1.83542">
        <ele>1039.156</ele>
        <time>2021-02-28T08:37:47Z</time>
      </trkpt>
      <trkpt lat="42.8616" lon="1.83545">
        <ele>1038.527</ele>
        <time>2021-02-28T08:37:49Z</time>
      </trkpt>
      <trkpt lat="42.86161" lon="1.83548">
        <ele>1036.957</ele>
        <time>2021-02-28T08:37:51Z</time>
      </trkpt>
      <trkpt lat="42.86162" lon="1.8355">
        <ele>1035.953</ele>
        <time>2021-02-28T08:37:53Z</time>
      </trkpt>
      <trkpt lat="42.86164" lon="1.83553">
        <ele>1035.832</ele>
        <time>2021-02-28T08:37:55Z</time>
      </trkpt>
      <trkpt lat="42.86165" lon="1.83556">
        <ele>1035.602</ele>
        <time>2021-02-28T08:37:57Z</time>
      </trkpt>
      <trkpt lat="42.86166" lon="1.83558">
        <ele>1035.097</ele>
        <time>2021-02-28T08:37:59Z</time>
      </trkpt>
      <trkpt lat="42.86167" lon="1.83561">
        <ele>1034.756</ele>
        <time>2021-02-28T08:38:01Z</time>
      </trkpt>
      <trkpt lat="42.86169" lon="1.83563">
        <ele>1034.602</ele>
        <time>2021-02-28T08:38:03Z</time>
      </trkpt>
      <trkpt lat="42.86169" lon="1.83566">
        <ele>1034.581</ele>
        <time>2021-02-28T08:38:05Z</time>
      </trkpt>
      <trkpt lat="42.8617" lon="1.83569">
        <ele>1034.052</ele>
        <time>2021-02-28T08:38:07Z</time>
      </trkpt>
      <trkpt lat="42.86171" lon="1.83571">
        <ele>1034.091</ele>
        <time>2021-02-28T08:38:09Z</time>
      </trkpt>
      <trkpt lat="42.86172" lon="1.83573">
        <ele>1034.067</ele>
        <time>2021-02-28T08:38:11Z</time>
      </trkpt>
      <trkpt lat="42.86174" lon="1.83575">
        <ele>1034.128</ele>
        <time>2021-02-28T08:38:13Z</time>
      </trkpt>
      <trkpt lat="42.86175" lon="1.83578">
        <ele>1033.48</ele>
        <time>2021-02-28T08:38:15Z</time>
      </trkpt>
      <trkpt lat="42.86176" lon="1.8358">
        <ele>1033.604</ele>
        <time>2021-02-28T08:38:17Z</time>
      </trkpt>
      <trkpt lat="42.86177" lon="1.83583">
        <ele>1034.616</ele>
        <time>2021-02-28T08:38:19Z</time>
      </trkpt>
      <trkpt lat="42.86178" lon="1.83584">
        <ele>1034.611</ele>
        <time>2021-02-28T08:38:20Z</time>
      </trkpt>
      <trkpt lat="42.86179" lon="1.83588">
        <ele>1034.313</ele>
        <time>2021-02-28T08:38:23Z</time>
      </trkpt>
      <trkpt lat="42.86181" lon="1.83591">
        <ele>1034.162</ele>
        <time>2021-02-28T08:38:25Z</time>
      </trkpt>
      <trkpt lat="42.86181" lon="1.83593">
        <ele>1033.454</ele>
        <time>2021-02-28T08:38:27Z</time>
      </trkpt>
      <trkpt lat="42.86183" lon="1.83596">
        <ele>1032.824</ele>
        <time>2021-02-28T08:38:29Z</time>
      </trkpt>
      <trkpt lat="42.86183" lon="1.83599">
        <ele>1032.777</ele>
        <time>2021-02-28T08:38:31Z</time>
      </trkpt>
      <trkpt lat="42.86183" lon="1.83602">
        <ele>1032.015</ele>
        <time>2021-02-28T08:38:33Z</time>
      </trkpt>
      <trkpt lat="42.86185" lon="1.83604">
        <ele>1031.916</ele>
        <time>2021-02-28T08:38:35Z</time>
      </trkpt>
      <trkpt lat="42.86186" lon="1.83607">
        <ele>1030.859</ele>
        <time>2021-02-28T08:38:37Z</time>
      </trkpt>
      <trkpt lat="42.86186" lon="1.8361">
        <ele>1030.864</ele>
        <time>2021-02-28T08:38:39Z</time>
      </trkpt>
      <trkpt lat="42.86187" lon="1.83613">
        <ele>1029.854</ele>
        <time>2021-02-28T08:38:41Z</time>
      </trkpt>
      <trkpt lat="42.86187" lon="1.83616">
        <ele>1030.319</ele>
        <time>2021-02-28T08:38:43Z</time>
      </trkpt>
      <trkpt lat="42.86188" lon="1.83619">
        <ele>1030.521</ele>
        <time>2021-02-28T08:38:45Z</time>
      </trkpt>
      <trkpt lat="42.8619" lon="1.83621">
        <ele>1030.777</ele>
        <time>2021-02-28T08:38:47Z</time>
      </trkpt>
      <trkpt lat="42.86191" lon="1.83624">
        <ele>1031.128</ele>
        <time>2021-02-28T08:38:49Z</time>
      </trkpt>
      <trkpt lat="42.86191" lon="1.83626">
        <ele>1031.456</ele>
        <time>2021-02-28T08:38:50Z</time>
      </trkpt>
      <trkpt lat="42.86192" lon="1.8363">
        <ele>1030.78</ele>
        <time>2021-02-28T08:38:53Z</time>
      </trkpt>
      <trkpt lat="42.86192" lon="1.83633">
        <ele>1031.149</ele>
        <time>2021-02-28T08:38:55Z</time>
      </trkpt>
      <trkpt lat="42.86194" lon="1.83635">
        <ele>1031.21</ele>
        <time>2021-02-28T08:38:57Z</time>
      </trkpt>
      <trkpt lat="42.86194" lon="1.83638">
        <ele>1031.745</ele>
        <time>2021-02-28T08:38:59Z</time>
      </trkpt>
      <trkpt lat="42.86196" lon="1.83641">
        <ele>1032.44</ele>
        <time>2021-02-28T08:39:01Z</time>
      </trkpt>
      <trkpt lat="42.86198" lon="1.83644">
        <ele>1032.365</ele>
        <time>2021-02-28T08:39:03Z</time>
      </trkpt>
      <trkpt lat="42.86199" lon="1.83647">
        <ele>1032.075</ele>
        <time>2021-02-28T08:39:05Z</time>
      </trkpt>
      <trkpt lat="42.86199" lon="1.8365">
        <ele>1032.928</ele>
        <time>2021-02-28T08:39:07Z</time>
      </trkpt>
      <trkpt lat="42.862" lon="1.83654">
        <ele>1033.795</ele>
        <time>2021-02-28T08:39:09Z</time>
      </trkpt>
      <trkpt lat="42.86201" lon="1.83657">
        <ele>1035.005</ele>
        <time>2021-02-28T08:39:11Z</time>
      </trkpt>
      <trkpt lat="42.86202" lon="1.83662">
        <ele>1036.705</ele>
        <time>2021-02-28T08:39:13Z</time>
      </trkpt>
      <trkpt lat="42.86202" lon="1.83666">
        <ele>1038.866</ele>
        <time>2021-02-28T08:39:15Z</time>
      </trkpt>
      <trkpt lat="42.86203" lon="1.8367">
        <ele>1039.682</ele>
        <time>2021-02-28T08:39:17Z</time>
      </trkpt>
      <trkpt lat="42.86204" lon="1.83674">
        <ele>1041.361</ele>
        <time>2021-02-28T08:39:19Z</time>
      </trkpt>
      <trkpt lat="42.86205" lon="1.83678">
        <ele>1043.453</ele>
        <time>2021-02-28T08:39:21Z</time>
      </trkpt>
      <trkpt lat="42.86206" lon="1.83682">
        <ele>1045.675</ele>
        <time>2021-02-28T08:39:23Z</time>
      </trkpt>
      <trkpt lat="42.86207" lon="1.83686">
        <ele>1047.326</ele>
        <time>2021-02-28T08:39:25Z</time>
      </trkpt>
      <trkpt lat="42.86207" lon="1.83689">
        <ele>1049.534</ele>
        <time>2021-02-28T08:39:27Z</time>
      </trkpt>
      <trkpt lat="42.86208" lon="1.83693">
        <ele>1051.378</ele>
        <time>2021-02-28T08:39:29Z</time>
      </trkpt>
      <trkpt lat="42.86208" lon="1.83697">
        <ele>1051.473</ele>
        <time>2021-02-28T08:39:31Z</time>
      </trkpt>
      <trkpt lat="42.86208" lon="1.83701">
        <ele>1052.626</ele>
        <time>2021-02-28T08:39:33Z</time>
      </trkpt>
      <trkpt lat="42.86208" lon="1.83704">
        <ele>1054.643</ele>
        <time>2021-02-28T08:39:35Z</time>
      </trkpt>
      <trkpt lat="42.86209" lon="1.83708">
        <ele>1056.217</ele>
        <time>2021-02-28T08:39:37Z</time>
      </trkpt>
      <trkpt lat="42.86209" lon="1.83711">
        <ele>1056.671</ele>
        <time>2021-02-28T08:39:39Z</time>
      </trkpt>
      <trkpt lat="42.86209" lon="1.83714">
        <ele>1057.709</ele>
        <time>2021-02-28T08:39:41Z</time>
      </trkpt>
      <trkpt lat="42.86209" lon="1.83718">
        <ele>1058.661</ele>
        <time>2021-02-28T08:39:43Z</time>
      </trkpt>
      <trkpt lat="42.86209" lon="1.83721">
        <ele>1058.856</ele>
        <time>2021-02-28T08:39:45Z</time>
      </trkpt>
      <trkpt lat="42.86209" lon="1.83724">
        <ele>1059.569</ele>
        <time>2021-02-28T08:39:47Z</time>
      </trkpt>
      <trkpt lat="42.86209" lon="1.83727">
        <ele>1060.164</ele>
        <time>2021-02-28T08:39:49Z</time>
      </trkpt>
      <trkpt lat="42.86208" lon="1.83729">
        <ele>1061.229</ele>
        <time>2021-02-28T08:39:51Z</time>
      </trkpt>
      <trkpt lat="42.86207" lon="1.83729">
        <ele>1060.818</ele>
        <time>2021-02-28T08:39:53Z</time>
      </trkpt>
      <trkpt lat="42.86207" lon="1.8373">
        <ele>1061.136</ele>
        <time>2021-02-28T08:39:55Z</time>
      </trkpt>
      <trkpt lat="42.86207" lon="1.83733">
        <ele>1061.874</ele>
        <time>2021-02-28T08:39:57Z</time>
      </trkpt>
      <trkpt lat="42.86207" lon="1.83734">
        <ele>1061.864</ele>
        <time>2021-02-28T08:39:59Z</time>
      </trkpt>
      <trkpt lat="42.86207" lon="1.83734">
        <ele>1061.87</ele>
        <time>2021-02-28T08:40:01Z</time>
      </trkpt>
      <trkpt lat="42.86207" lon="1.83734">
        <ele>1061.9</ele>
        <time>2021-02-28T08:40:03Z</time>
      </trkpt>
      <trkpt lat="42.86207" lon="1.83734">
        <ele>1061.904</ele>
        <time>2021-02-28T08:40:05Z</time>
      </trkpt>
      <trkpt lat="42.86207" lon="1.83734">
        <ele>1061.916</ele>
        <time>2021-02-28T08:40:07Z</time>
      </trkpt>
      <trkpt lat="42.86207" lon="1.83734">
        <ele>1061.956</ele>
        <time>2021-02-28T08:40:09Z</time>
      </trkpt>
      <trkpt lat="42.86207" lon="1.83734">
        <ele>1061.958</ele>
        <time>2021-02-28T08:40:11Z</time>
      </trkpt>
      <trkpt lat="42.86207" lon="1.83734">
        <ele>1061.968</ele>
        <time>2021-02-28T08:40:13Z</time>
      </trkpt>
      <trkpt lat="42.86207" lon="1.83735">
        <ele>1063.603</ele>
        <time>2021-02-28T08:40:15Z</time>
      </trkpt>
      <trkpt lat="42.86207" lon="1.83737">
        <ele>1063.582</ele>
        <time>2021-02-28T08:40:17Z</time>
      </trkpt>
      <trkpt lat="42.86208" lon="1.8374">
        <ele>1064.16</ele>
        <time>2021-02-28T08:40:19Z</time>
      </trkpt>
      <trkpt lat="42.86209" lon="1.83743">
        <ele>1064.527</ele>
        <time>2021-02-28T08:40:21Z</time>
      </trkpt>
      <trkpt lat="42.86209" lon="1.83746">
        <ele>1065.057</ele>
        <time>2021-02-28T08:40:23Z</time>
      </trkpt>
      <trkpt lat="42.86209" lon="1.83746">
        <ele>1065.275</ele>
        <time>2021-02-28T08:40:25Z</time>
      </trkpt>
      <trkpt lat="42.86209" lon="1.83746">
        <ele>1065.288</ele>
        <time>2021-02-28T08:40:27Z</time>
      </trkpt>
      <trkpt lat="42.86209" lon="1.83746">
        <ele>1065.302</ele>
        <time>2021-02-28T08:40:29Z</time>
      </trkpt>
      <trkpt lat="42.86209" lon="1.83746">
        <ele>1065.321</ele>
        <time>2021-02-28T08:40:31Z</time>
      </trkpt>
      <trkpt lat="42.86209" lon="1.83747">
        <ele>1065.502</ele>
        <time>2021-02-28T08:40:33Z</time>
      </trkpt>
      <trkpt lat="42.86208" lon="1.83748">
        <ele>1065.323</ele>
        <time>2021-02-28T08:40:35Z</time>
      </trkpt>
      <trkpt lat="42.8621" lon="1.83751">
        <ele>1066.065</ele>
        <time>2021-02-28T08:40:37Z</time>
      </trkpt>
      <trkpt lat="42.86211" lon="1.83753">
        <ele>1066.143</ele>
        <time>2021-02-28T08:40:39Z</time>
      </trkpt>
      <trkpt lat="42.86212" lon="1.83756">
        <ele>1066.378</ele>
        <time>2021-02-28T08:40:41Z</time>
      </trkpt>
      <trkpt lat="42.86212" lon="1.83759">
        <ele>1066.532</ele>
        <time>2021-02-28T08:40:43Z</time>
      </trkpt>
      <trkpt lat="42.86211" lon="1.83762">
        <ele>1066.495</ele>
        <time>2021-02-28T08:40:45Z</time>
      </trkpt>
      <trkpt lat="42.86211" lon="1.83765">
        <ele>1066.91</ele>
        <time>2021-02-28T08:40:47Z</time>
      </trkpt>
      <trkpt lat="42.86211" lon="1.83767">
        <ele>1067.716</ele>
        <time>2021-02-28T08:40:49Z</time>
      </trkpt>
      <trkpt lat="42.86211" lon="1.8377">
        <ele>1068.254</ele>
        <time>2021-02-28T08:40:51Z</time>
      </trkpt>
      <trkpt lat="42.86211" lon="1.83773">
        <ele>1068.91</ele>
        <time>2021-02-28T08:40:53Z</time>
      </trkpt>
      <trkpt lat="42.8621" lon="1.83776">
        <ele>1069.069</ele>
        <time>2021-02-28T08:40:55Z</time>
      </trkpt>
      <trkpt lat="42.86209" lon="1.83779">
        <ele>1068.971</ele>
        <time>2021-02-28T08:40:57Z</time>
      </trkpt>
      <trkpt lat="42.8621" lon="1.83782">
        <ele>1069.808</ele>
        <time>2021-02-28T08:40:59Z</time>
      </trkpt>
      <trkpt lat="42.86211" lon="1.83782">
        <ele>1071.453</ele>
        <time>2021-02-28T08:41:01Z</time>
      </trkpt>
      <trkpt lat="42.86211" lon="1.83782">
        <ele>1071.463</ele>
        <time>2021-02-28T08:41:03Z</time>
      </trkpt>
      <trkpt lat="42.86211" lon="1.83782">
        <ele>1071.467</ele>
        <time>2021-02-28T08:41:05Z</time>
      </trkpt>
      <trkpt lat="42.86211" lon="1.83782">
        <ele>1071.47</ele>
        <time>2021-02-28T08:41:07Z</time>
      </trkpt>
      <trkpt lat="42.86211" lon="1.83783">
        <ele>1071.991</ele>
        <time>2021-02-28T08:41:09Z</time>
      </trkpt>
      <trkpt lat="42.86211" lon="1.83783">
        <ele>1071.996</ele>
        <time>2021-02-28T08:41:11Z</time>
      </trkpt>
      <trkpt lat="42.86211" lon="1.83784">
        <ele>1072.651</ele>
        <time>2021-02-28T08:41:13Z</time>
      </trkpt>
      <trkpt lat="42.86211" lon="1.83787">
        <ele>1073.298</ele>
        <time>2021-02-28T08:41:15Z</time>
      </trkpt>
      <trkpt lat="42.86211" lon="1.8379">
        <ele>1073.572</ele>
        <time>2021-02-28T08:41:17Z</time>
      </trkpt>
      <trkpt lat="42.86211" lon="1.83793">
        <ele>1075.286</ele>
        <time>2021-02-28T08:41:19Z</time>
      </trkpt>
      <trkpt lat="42.86211" lon="1.83795">
        <ele>1075.469</ele>
        <time>2021-02-28T08:41:21Z</time>
      </trkpt>
      <trkpt lat="42.8621" lon="1.83798">
        <ele>1074.83</ele>
        <time>2021-02-28T08:41:23Z</time>
      </trkpt>
      <trkpt lat="42.86209" lon="1.83801">
        <ele>1075.404</ele>
        <time>2021-02-28T08:41:25Z</time>
      </trkpt>
      <trkpt lat="42.86209" lon="1.83803">
        <ele>1075.764</ele>
        <time>2021-02-28T08:41:27Z</time>
      </trkpt>
      <trkpt lat="42.86208" lon="1.83807">
        <ele>1075.647</ele>
        <time>2021-02-28T08:41:29Z</time>
      </trkpt>
      <trkpt lat="42.86207" lon="1.83809">
        <ele>1075.029</ele>
        <time>2021-02-28T08:41:31Z</time>
      </trkpt>
      <trkpt lat="42.86206" lon="1.83812">
        <ele>1075.136</ele>
        <time>2021-02-28T08:41:33Z</time>
      </trkpt>
      <trkpt lat="42.86205" lon="1.83815">
        <ele>1075.281</ele>
        <time>2021-02-28T08:41:35Z</time>
      </trkpt>
      <trkpt lat="42.86204" lon="1.83817">
        <ele>1075.947</ele>
        <time>2021-02-28T08:41:37Z</time>
      </trkpt>
      <trkpt lat="42.86204" lon="1.8382">
        <ele>1075.918</ele>
        <time>2021-02-28T08:41:39Z</time>
      </trkpt>
      <trkpt lat="42.86204" lon="1.83823">
        <ele>1076.845</ele>
        <time>2021-02-28T08:41:41Z</time>
      </trkpt>
      <trkpt lat="42.86203" lon="1.83826">
        <ele>1077.425</ele>
        <time>2021-02-28T08:41:43Z</time>
      </trkpt>
      <trkpt lat="42.86201" lon="1.83829">
        <ele>1077.269</ele>
        <time>2021-02-28T08:41:45Z</time>
      </trkpt>
      <trkpt lat="42.862" lon="1.83831">
        <ele>1077.464</ele>
        <time>2021-02-28T08:41:47Z</time>
      </trkpt>
      <trkpt lat="42.862" lon="1.83834">
        <ele>1077.667</ele>
        <time>2021-02-28T08:41:49Z</time>
      </trkpt>
      <trkpt lat="42.86199" lon="1.83837">
        <ele>1077.657</ele>
        <time>2021-02-28T08:41:51Z</time>
      </trkpt>
      <trkpt lat="42.86198" lon="1.8384">
        <ele>1077.264</ele>
        <time>2021-02-28T08:41:53Z</time>
      </trkpt>
      <trkpt lat="42.86198" lon="1.83842">
        <ele>1078.347</ele>
        <time>2021-02-28T08:41:55Z</time>
      </trkpt>
      <trkpt lat="42.86198" lon="1.83845">
        <ele>1077.101</ele>
        <time>2021-02-28T08:41:57Z</time>
      </trkpt>
      <trkpt lat="42.86197" lon="1.83848">
        <ele>1076.82</ele>
        <time>2021-02-28T08:41:59Z</time>
      </trkpt>
      <trkpt lat="42.86196" lon="1.8385">
        <ele>1076.724</ele>
        <time>2021-02-28T08:42:01Z</time>
      </trkpt>
      <trkpt lat="42.86195" lon="1.83853">
        <ele>1077.249</ele>
        <time>2021-02-28T08:42:03Z</time>
      </trkpt>
      <trkpt lat="42.86194" lon="1.83856">
        <ele>1076.518</ele>
        <time>2021-02-28T08:42:05Z</time>
      </trkpt>
      <trkpt lat="42.86193" lon="1.83859">
        <ele>1076.697</ele>
        <time>2021-02-28T08:42:07Z</time>
      </trkpt>
      <trkpt lat="42.86193" lon="1.83862">
        <ele>1078.237</ele>
        <time>2021-02-28T08:42:09Z</time>
      </trkpt>
      <trkpt lat="42.86193" lon="1.83865">
        <ele>1079.814</ele>
        <time>2021-02-28T08:42:11Z</time>
      </trkpt>
      <trkpt lat="42.86193" lon="1.83868">
        <ele>1080.361</ele>
        <time>2021-02-28T08:42:13Z</time>
      </trkpt>
      <trkpt lat="42.86192" lon="1.83871">
        <ele>1080.252</ele>
        <time>2021-02-28T08:42:15Z</time>
      </trkpt>
      <trkpt lat="42.86192" lon="1.83874">
        <ele>1080.923</ele>
        <time>2021-02-28T08:42:17Z</time>
      </trkpt>
      <trkpt lat="42.86193" lon="1.83877">
        <ele>1081.614</ele>
        <time>2021-02-28T08:42:19Z</time>
      </trkpt>
      <trkpt lat="42.86193" lon="1.8388">
        <ele>1082.76</ele>
        <time>2021-02-28T08:42:21Z</time>
      </trkpt>
      <trkpt lat="42.86192" lon="1.83883">
        <ele>1082.34</ele>
        <time>2021-02-28T08:42:23Z</time>
      </trkpt>
      <trkpt lat="42.86192" lon="1.83886">
        <ele>1082.026</ele>
        <time>2021-02-28T08:42:25Z</time>
      </trkpt>
      <trkpt lat="42.86193" lon="1.83889">
        <ele>1083.523</ele>
        <time>2021-02-28T08:42:27Z</time>
      </trkpt>
      <trkpt lat="42.86192" lon="1.83891">
        <ele>1081.635</ele>
        <time>2021-02-28T08:42:29Z</time>
      </trkpt>
      <trkpt lat="42.86191" lon="1.83893">
        <ele>1080.901</ele>
        <time>2021-02-28T08:42:31Z</time>
      </trkpt>
      <trkpt lat="42.8619" lon="1.83895">
        <ele>1079.228</ele>
        <time>2021-02-28T08:42:33Z</time>
      </trkpt>
      <trkpt lat="42.8619" lon="1.83897">
        <ele>1081.273</ele>
        <time>2021-02-28T08:42:35Z</time>
      </trkpt>
      <trkpt lat="42.86189" lon="1.83899">
        <ele>1079.785</ele>
        <time>2021-02-28T08:42:37Z</time>
      </trkpt>
      <trkpt lat="42.86186" lon="1.839">
        <ele>1078.882</ele>
        <time>2021-02-28T08:42:39Z</time>
      </trkpt>
      <trkpt lat="42.86183" lon="1.83898">
        <ele>1078.954</ele>
        <time>2021-02-28T08:42:41Z</time>
      </trkpt>
      <trkpt lat="42.86185" lon="1.83901">
        <ele>1081.518</ele>
        <time>2021-02-28T08:42:43Z</time>
      </trkpt>
      <trkpt lat="42.86187" lon="1.83902">
        <ele>1081.407</ele>
        <time>2021-02-28T08:42:45Z</time>
      </trkpt>
      <trkpt lat="42.86188" lon="1.83904">
        <ele>1081.569</ele>
        <time>2021-02-28T08:42:47Z</time>
      </trkpt>
      <trkpt lat="42.86188" lon="1.83904">
        <ele>1081.565</ele>
        <time>2021-02-28T08:42:49Z</time>
      </trkpt>
      <trkpt lat="42.86188" lon="1.83904">
        <ele>1081.564</ele>
        <time>2021-02-28T08:42:51Z</time>
      </trkpt>
      <trkpt lat="42.86187" lon="1.83905">
        <ele>1082.048</ele>
        <time>2021-02-28T08:42:53Z</time>
      </trkpt>
      <trkpt lat="42.86187" lon="1.83906">
        <ele>1082.373</ele>
        <time>2021-02-28T08:42:55Z</time>
      </trkpt>
      <trkpt lat="42.86187" lon="1.83906">
        <ele>1082.428</ele>
        <time>2021-02-28T08:42:57Z</time>
      </trkpt>
      <trkpt lat="42.86187" lon="1.83906">
        <ele>1082.441</ele>
        <time>2021-02-28T08:42:59Z</time>
      </trkpt>
      <trkpt lat="42.86187" lon="1.83906">
        <ele>1082.445</ele>
        <time>2021-02-28T08:43:01Z</time>
      </trkpt>
      <trkpt lat="42.86187" lon="1.83906">
        <ele>1082.457</ele>
        <time>2021-02-28T08:43:03Z</time>
      </trkpt>
      <trkpt lat="42.86187" lon="1.83906">
        <ele>1082.47</ele>
        <time>2021-02-28T08:43:05Z</time>
      </trkpt>
      <trkpt lat="42.86187" lon="1.83907">
        <ele>1083.119</ele>
        <time>2021-02-28T08:43:07Z</time>
      </trkpt>
      <trkpt lat="42.86188" lon="1.83908">
        <ele>1083.322</ele>
        <time>2021-02-28T08:43:09Z</time>
      </trkpt>
      <trkpt lat="42.86188" lon="1.83911">
        <ele>1082.939</ele>
        <time>2021-02-28T08:43:11Z</time>
      </trkpt>
      <trkpt lat="42.86187" lon="1.83914">
        <ele>1083.243</ele>
        <time>2021-02-28T08:43:13Z</time>
      </trkpt>
      <trkpt lat="42.86186" lon="1.83917">
        <ele>1082.577</ele>
        <time>2021-02-28T08:43:15Z</time>
      </trkpt>
      <trkpt lat="42.86186" lon="1.8392">
        <ele>1082.425</ele>
        <time>2021-02-28T08:43:17Z</time>
      </trkpt>
      <trkpt lat="42.86185" lon="1.83922">
        <ele>1081.692</ele>
        <time>2021-02-28T08:43:19Z</time>
      </trkpt>
      <trkpt lat="42.86185" lon="1.83926">
        <ele>1082.438</ele>
        <time>2021-02-28T08:43:21Z</time>
      </trkpt>
      <trkpt lat="42.86184" lon="1.83929">
        <ele>1081.886</ele>
        <time>2021-02-28T08:43:23Z</time>
      </trkpt>
      <trkpt lat="42.86183" lon="1.83931">
        <ele>1081.381</ele>
        <time>2021-02-28T08:43:25Z</time>
      </trkpt>
      <trkpt lat="42.86183" lon="1.83934">
        <ele>1080.662</ele>
        <time>2021-02-28T08:43:27Z</time>
      </trkpt>
      <trkpt lat="42.86183" lon="1.83938">
        <ele>1081.069</ele>
        <time>2021-02-28T08:43:29Z</time>
      </trkpt>
      <trkpt lat="42.86181" lon="1.83941">
        <ele>1079.913</ele>
        <time>2021-02-28T08:43:31Z</time>
      </trkpt>
      <trkpt lat="42.86181" lon="1.83944">
        <ele>1080.741</ele>
        <time>2021-02-28T08:43:33Z</time>
      </trkpt>
      <trkpt lat="42.86181" lon="1.83947">
        <ele>1079.893</ele>
        <time>2021-02-28T08:43:35Z</time>
      </trkpt>
      <trkpt lat="42.8618" lon="1.8395">
        <ele>1079.722</ele>
        <time>2021-02-28T08:43:37Z</time>
      </trkpt>
      <trkpt lat="42.8618" lon="1.83954">
        <ele>1079.636</ele>
        <time>2021-02-28T08:43:39Z</time>
      </trkpt>
      <trkpt lat="42.86181" lon="1.83957">
        <ele>1080.735</ele>
        <time>2021-02-28T08:43:41Z</time>
      </trkpt>
      <trkpt lat="42.86182" lon="1.8396">
        <ele>1082.998</ele>
        <time>2021-02-28T08:43:43Z</time>
      </trkpt>
      <trkpt lat="42.86182" lon="1.83963">
        <ele>1083.166</ele>
        <time>2021-02-28T08:43:45Z</time>
      </trkpt>
      <trkpt lat="42.86181" lon="1.83966">
        <ele>1082.967</ele>
        <time>2021-02-28T08:43:47Z</time>
      </trkpt>
      <trkpt lat="42.86181" lon="1.83968">
        <ele>1080.943</ele>
        <time>2021-02-28T08:43:49Z</time>
      </trkpt>
      <trkpt lat="42.8618" lon="1.83971">
        <ele>1080.517</ele>
        <time>2021-02-28T08:43:51Z</time>
      </trkpt>
      <trkpt lat="42.86178" lon="1.83974">
        <ele>1081.077</ele>
        <time>2021-02-28T08:43:53Z</time>
      </trkpt>
      <trkpt lat="42.86177" lon="1.83977">
        <ele>1082.448</ele>
        <time>2021-02-28T08:43:55Z</time>
      </trkpt>
      <trkpt lat="42.86177" lon="1.83981">
        <ele>1083.334</ele>
        <time>2021-02-28T08:43:57Z</time>
      </trkpt>
      <trkpt lat="42.86178" lon="1.83984">
        <ele>1083.361</ele>
        <time>2021-02-28T08:43:59Z</time>
      </trkpt>
      <trkpt lat="42.8618" lon="1.83988">
        <ele>1084.586</ele>
        <time>2021-02-28T08:44:01Z</time>
      </trkpt>
      <trkpt lat="42.86179" lon="1.83991">
        <ele>1082.855</ele>
        <time>2021-02-28T08:44:03Z</time>
      </trkpt>
      <trkpt lat="42.86179" lon="1.83994">
        <ele>1082.362</ele>
        <time>2021-02-28T08:44:05Z</time>
      </trkpt>
      <trkpt lat="42.86179" lon="1.83997">
        <ele>1082.126</ele>
        <time>2021-02-28T08:44:07Z</time>
      </trkpt>
      <trkpt lat="42.86179" lon="1.84">
        <ele>1081.441</ele>
        <time>2021-02-28T08:44:09Z</time>
      </trkpt>
      <trkpt lat="42.86179" lon="1.84002">
        <ele>1081.572</ele>
        <time>2021-02-28T08:44:11Z</time>
      </trkpt>
      <trkpt lat="42.86178" lon="1.84005">
        <ele>1081.266</ele>
        <time>2021-02-28T08:44:13Z</time>
      </trkpt>
      <trkpt lat="42.86178" lon="1.84008">
        <ele>1081.17</ele>
        <time>2021-02-28T08:44:15Z</time>
      </trkpt>
      <trkpt lat="42.86177" lon="1.84011">
        <ele>1080.702</ele>
        <time>2021-02-28T08:44:17Z</time>
      </trkpt>
      <trkpt lat="42.86176" lon="1.84013">
        <ele>1079.222</ele>
        <time>2021-02-28T08:44:19Z</time>
      </trkpt>
      <trkpt lat="42.86176" lon="1.84016">
        <ele>1079.62</ele>
        <time>2021-02-28T08:44:21Z</time>
      </trkpt>
      <trkpt lat="42.86175" lon="1.84019">
        <ele>1079.868</ele>
        <time>2021-02-28T08:44:23Z</time>
      </trkpt>
      <trkpt lat="42.86174" lon="1.84021">
        <ele>1078.989</ele>
        <time>2021-02-28T08:44:25Z</time>
      </trkpt>
      <trkpt lat="42.86174" lon="1.84024">
        <ele>1078.441</ele>
        <time>2021-02-28T08:44:27Z</time>
      </trkpt>
      <trkpt lat="42.86174" lon="1.84027">
        <ele>1077.602</ele>
        <time>2021-02-28T08:44:29Z</time>
      </trkpt>
      <trkpt lat="42.86174" lon="1.84029">
        <ele>1076.487</ele>
        <time>2021-02-28T08:44:31Z</time>
      </trkpt>
      <trkpt lat="42.86173" lon="1.84031">
        <ele>1075.822</ele>
        <time>2021-02-28T08:44:33Z</time>
      </trkpt>
      <trkpt lat="42.86173" lon="1.84034">
        <ele>1076.689</ele>
        <time>2021-02-28T08:44:35Z</time>
      </trkpt>
      <trkpt lat="42.86173" lon="1.84039">
        <ele>1079.036</ele>
        <time>2021-02-28T08:44:37Z</time>
      </trkpt>
      <trkpt lat="42.86173" lon="1.84042">
        <ele>1078.455</ele>
        <time>2021-02-28T08:44:39Z</time>
      </trkpt>
      <trkpt lat="42.86172" lon="1.84045">
        <ele>1077.61</ele>
        <time>2021-02-28T08:44:41Z</time>
      </trkpt>
      <trkpt lat="42.86171" lon="1.84047">
        <ele>1076.391</ele>
        <time>2021-02-28T08:44:43Z</time>
      </trkpt>
      <trkpt lat="42.86172" lon="1.84051">
        <ele>1077.686</ele>
        <time>2021-02-28T08:44:45Z</time>
      </trkpt>
      <trkpt lat="42.86171" lon="1.84054">
        <ele>1076.892</ele>
        <time>2021-02-28T08:44:47Z</time>
      </trkpt>
      <trkpt lat="42.86172" lon="1.84057">
        <ele>1077.888</ele>
        <time>2021-02-28T08:44:49Z</time>
      </trkpt>
      <trkpt lat="42.86172" lon="1.84059">
        <ele>1077.947</ele>
        <time>2021-02-28T08:44:51Z</time>
      </trkpt>
      <trkpt lat="42.86172" lon="1.84063">
        <ele>1077.671</ele>
        <time>2021-02-28T08:44:53Z</time>
      </trkpt>
      <trkpt lat="42.86172" lon="1.84066">
        <ele>1077.796</ele>
        <time>2021-02-28T08:44:55Z</time>
      </trkpt>
      <trkpt lat="42.86172" lon="1.84069">
        <ele>1077.953</ele>
        <time>2021-02-28T08:44:57Z</time>
      </trkpt>
      <trkpt lat="42.86172" lon="1.84072">
        <ele>1077.57</ele>
        <time>2021-02-28T08:44:59Z</time>
      </trkpt>
      <trkpt lat="42.86171" lon="1.84075">
        <ele>1076.663</ele>
        <time>2021-02-28T08:45:01Z</time>
      </trkpt>
      <trkpt lat="42.86171" lon="1.84078">
        <ele>1076.454</ele>
        <time>2021-02-28T08:45:03Z</time>
      </trkpt>
      <trkpt lat="42.86171" lon="1.84081">
        <ele>1076.189</ele>
        <time>2021-02-28T08:45:05Z</time>
      </trkpt>
      <trkpt lat="42.86171" lon="1.84083">
        <ele>1076.303</ele>
        <time>2021-02-28T08:45:07Z</time>
      </trkpt>
      <trkpt lat="42.8617" lon="1.84086">
        <ele>1075.832</ele>
        <time>2021-02-28T08:45:09Z</time>
      </trkpt>
      <trkpt lat="42.8617" lon="1.8409">
        <ele>1077.335</ele>
        <time>2021-02-28T08:45:11Z</time>
      </trkpt>
      <trkpt lat="42.8617" lon="1.84093">
        <ele>1076.898</ele>
        <time>2021-02-28T08:45:13Z</time>
      </trkpt>
      <trkpt lat="42.8617" lon="1.84096">
        <ele>1076.238</ele>
        <time>2021-02-28T08:45:15Z</time>
      </trkpt>
      <trkpt lat="42.8617" lon="1.84099">
        <ele>1076.578</ele>
        <time>2021-02-28T08:45:17Z</time>
      </trkpt>
      <trkpt lat="42.8617" lon="1.84102">
        <ele>1074.69</ele>
        <time>2021-02-28T08:45:19Z</time>
      </trkpt>
      <trkpt lat="42.8617" lon="1.84104">
        <ele>1073.708</ele>
        <time>2021-02-28T08:45:21Z</time>
      </trkpt>
      <trkpt lat="42.8617" lon="1.84106">
        <ele>1071.054</ele>
        <time>2021-02-28T08:45:23Z</time>
      </trkpt>
      <trkpt lat="42.8617" lon="1.8411">
        <ele>1068.833</ele>
        <time>2021-02-28T08:45:25Z</time>
      </trkpt>
      <trkpt lat="42.86169" lon="1.84112">
        <ele>1067.111</ele>
        <time>2021-02-28T08:45:27Z</time>
      </trkpt>
      <trkpt lat="42.86169" lon="1.84115">
        <ele>1067.433</ele>
        <time>2021-02-28T08:45:29Z</time>
      </trkpt>
      <trkpt lat="42.86169" lon="1.84118">
        <ele>1066.481</ele>
        <time>2021-02-28T08:45:31Z</time>
      </trkpt>
      <trkpt lat="42.8617" lon="1.84123">
        <ele>1066.122</ele>
        <time>2021-02-28T08:45:33Z</time>
      </trkpt>
      <trkpt lat="42.8617" lon="1.84126">
        <ele>1065.543</ele>
        <time>2021-02-28T08:45:35Z</time>
      </trkpt>
      <trkpt lat="42.8617" lon="1.84128">
        <ele>1065.774</ele>
        <time>2021-02-28T08:45:37Z</time>
      </trkpt>
      <trkpt lat="42.8617" lon="1.8413">
        <ele>1066.626</ele>
        <time>2021-02-28T08:45:38Z</time>
      </trkpt>
      <trkpt lat="42.8617" lon="1.84134">
        <ele>1069.151</ele>
        <time>2021-02-28T08:45:41Z</time>
      </trkpt>
      <trkpt lat="42.86171" lon="1.84138">
        <ele>1069.385</ele>
        <time>2021-02-28T08:45:43Z</time>
      </trkpt>
      <trkpt lat="42.8617" lon="1.84141">
        <ele>1071.954</ele>
        <time>2021-02-28T08:45:45Z</time>
      </trkpt>
      <trkpt lat="42.8617" lon="1.84144">
        <ele>1073.158</ele>
        <time>2021-02-28T08:45:47Z</time>
      </trkpt>
      <trkpt lat="42.86171" lon="1.84147">
        <ele>1073.429</ele>
        <time>2021-02-28T08:45:49Z</time>
      </trkpt>
      <trkpt lat="42.86172" lon="1.84151">
        <ele>1074.446</ele>
        <time>2021-02-28T08:45:51Z</time>
      </trkpt>
      <trkpt lat="42.86172" lon="1.84154">
        <ele>1075.131</ele>
        <time>2021-02-28T08:45:53Z</time>
      </trkpt>
      <trkpt lat="42.86172" lon="1.84157">
        <ele>1075.454</ele>
        <time>2021-02-28T08:45:55Z</time>
      </trkpt>
      <trkpt lat="42.86173" lon="1.8416">
        <ele>1075.99</ele>
        <time>2021-02-28T08:45:57Z</time>
      </trkpt>
      <trkpt lat="42.86173" lon="1.84163">
        <ele>1076.171</ele>
        <time>2021-02-28T08:45:59Z</time>
      </trkpt>
      <trkpt lat="42.86173" lon="1.84166">
        <ele>1077.34</ele>
        <time>2021-02-28T08:46:01Z</time>
      </trkpt>
      <trkpt lat="42.86174" lon="1.84169">
        <ele>1077.664</ele>
        <time>2021-02-28T08:46:03Z</time>
      </trkpt>
      <trkpt lat="42.86174" lon="1.84172">
        <ele>1078.284</ele>
        <time>2021-02-28T08:46:05Z</time>
      </trkpt>
      <trkpt lat="42.86174" lon="1.84176">
        <ele>1078.761</ele>
        <time>2021-02-28T08:46:07Z</time>
      </trkpt>
      <trkpt lat="42.86174" lon="1.84179">
        <ele>1080.055</ele>
        <time>2021-02-28T08:46:09Z</time>
      </trkpt>
      <trkpt lat="42.86175" lon="1.84183">
        <ele>1080.944</ele>
        <time>2021-02-28T08:46:11Z</time>
      </trkpt>
      <trkpt lat="42.86175" lon="1.84186">
        <ele>1080.938</ele>
        <time>2021-02-28T08:46:13Z</time>
      </trkpt>
      <trkpt lat="42.86176" lon="1.8419">
        <ele>1081.383</ele>
        <time>2021-02-28T08:46:15Z</time>
      </trkpt>
      <trkpt lat="42.86177" lon="1.84193">
        <ele>1082.245</ele>
        <time>2021-02-28T08:46:17Z</time>
      </trkpt>
      <trkpt lat="42.86178" lon="1.84196">
        <ele>1082.104</ele>
        <time>2021-02-28T08:46:19Z</time>
      </trkpt>
      <trkpt lat="42.86178" lon="1.842">
        <ele>1082.719</ele>
        <time>2021-02-28T08:46:21Z</time>
      </trkpt>
      <trkpt lat="42.86178" lon="1.84204">
        <ele>1084.357</ele>
        <time>2021-02-28T08:46:23Z</time>
      </trkpt>
      <trkpt lat="42.86179" lon="1.84207">
        <ele>1084.612</ele>
        <time>2021-02-28T08:46:25Z</time>
      </trkpt>
      <trkpt lat="42.86181" lon="1.8421">
        <ele>1084.809</ele>
        <time>2021-02-28T08:46:27Z</time>
      </trkpt>
      <trkpt lat="42.86181" lon="1.84213">
        <ele>1085.365</ele>
        <time>2021-02-28T08:46:29Z</time>
      </trkpt>
      <trkpt lat="42.86183" lon="1.84216">
        <ele>1086.216</ele>
        <time>2021-02-28T08:46:31Z</time>
      </trkpt>
      <trkpt lat="42.86184" lon="1.8422">
        <ele>1086.74</ele>
        <time>2021-02-28T08:46:33Z</time>
      </trkpt>
      <trkpt lat="42.86184" lon="1.84223">
        <ele>1087.857</ele>
        <time>2021-02-28T08:46:35Z</time>
      </trkpt>
      <trkpt lat="42.86185" lon="1.84225">
        <ele>1089.075</ele>
        <time>2021-02-28T08:46:37Z</time>
      </trkpt>
      <trkpt lat="42.86187" lon="1.84227">
        <ele>1090.787</ele>
        <time>2021-02-28T08:46:39Z</time>
      </trkpt>
      <trkpt lat="42.86188" lon="1.8423">
        <ele>1092.53</ele>
        <time>2021-02-28T08:46:41Z</time>
      </trkpt>
      <trkpt lat="42.86189" lon="1.84234">
        <ele>1093.957</ele>
        <time>2021-02-28T08:46:43Z</time>
      </trkpt>
      <trkpt lat="42.8619" lon="1.84237">
        <ele>1094.854</ele>
        <time>2021-02-28T08:46:45Z</time>
      </trkpt>
      <trkpt lat="42.8619" lon="1.8424">
        <ele>1094.813</ele>
        <time>2021-02-28T08:46:47Z</time>
      </trkpt>
      <trkpt lat="42.86191" lon="1.84243">
        <ele>1095.654</ele>
        <time>2021-02-28T08:46:49Z</time>
      </trkpt>
      <trkpt lat="42.86191" lon="1.84245">
        <ele>1095.464</ele>
        <time>2021-02-28T08:46:51Z</time>
      </trkpt>
      <trkpt lat="42.86192" lon="1.8425">
        <ele>1096.123</ele>
        <time>2021-02-28T08:46:53Z</time>
      </trkpt>
      <trkpt lat="42.86192" lon="1.84253">
        <ele>1096.832</ele>
        <time>2021-02-28T08:46:55Z</time>
      </trkpt>
      <trkpt lat="42.86192" lon="1.84257">
        <ele>1097.267</ele>
        <time>2021-02-28T08:46:57Z</time>
      </trkpt>
      <trkpt lat="42.86193" lon="1.8426">
        <ele>1097.883</ele>
        <time>2021-02-28T08:46:59Z</time>
      </trkpt>
      <trkpt lat="42.86192" lon="1.84263">
        <ele>1096.921</ele>
        <time>2021-02-28T08:47:01Z</time>
      </trkpt>
      <trkpt lat="42.86192" lon="1.84267">
        <ele>1098.025</ele>
        <time>2021-02-28T08:47:03Z</time>
      </trkpt>
      <trkpt lat="42.86193" lon="1.84271">
        <ele>1098.627</ele>
        <time>2021-02-28T08:47:05Z</time>
      </trkpt>
      <trkpt lat="42.86193" lon="1.84276">
        <ele>1099.821</ele>
        <time>2021-02-28T08:47:07Z</time>
      </trkpt>
      <trkpt lat="42.86194" lon="1.84279">
        <ele>1100.185</ele>
        <time>2021-02-28T08:47:09Z</time>
      </trkpt>
      <trkpt lat="42.86195" lon="1.84282">
        <ele>1101.371</ele>
        <time>2021-02-28T08:47:11Z</time>
      </trkpt>
      <trkpt lat="42.86196" lon="1.84285">
        <ele>1101.953</ele>
        <time>2021-02-28T08:47:13Z</time>
      </trkpt>
      <trkpt lat="42.86197" lon="1.84288">
        <ele>1101.889</ele>
        <time>2021-02-28T08:47:15Z</time>
      </trkpt>
      <trkpt lat="42.86197" lon="1.84292">
        <ele>1103.125</ele>
        <time>2021-02-28T08:47:17Z</time>
      </trkpt>
      <trkpt lat="42.86198" lon="1.84295">
        <ele>1103.728</ele>
        <time>2021-02-28T08:47:19Z</time>
      </trkpt>
      <trkpt lat="42.86199" lon="1.84299">
        <ele>1104.707</ele>
        <time>2021-02-28T08:47:21Z</time>
      </trkpt>
      <trkpt lat="42.86199" lon="1.84302">
        <ele>1105.456</ele>
        <time>2021-02-28T08:47:23Z</time>
      </trkpt>
      <trkpt lat="42.862" lon="1.84305">
        <ele>1105.894</ele>
        <time>2021-02-28T08:47:25Z</time>
      </trkpt>
      <trkpt lat="42.86201" lon="1.84309">
        <ele>1105.868</ele>
        <time>2021-02-28T08:47:27Z</time>
      </trkpt>
      <trkpt lat="42.86201" lon="1.84312">
        <ele>1106.264</ele>
        <time>2021-02-28T08:47:29Z</time>
      </trkpt>
      <trkpt lat="42.86202" lon="1.84314">
        <ele>1105.871</ele>
        <time>2021-02-28T08:47:31Z</time>
      </trkpt>
      <trkpt lat="42.86203" lon="1.84318">
        <ele>1106.414</ele>
        <time>2021-02-28T08:47:33Z</time>
      </trkpt>
      <trkpt lat="42.86203" lon="1.84321">
        <ele>1106.461</ele>
        <time>2021-02-28T08:47:35Z</time>
      </trkpt>
      <trkpt lat="42.86204" lon="1.84325">
        <ele>1107.003</ele>
        <time>2021-02-28T08:47:37Z</time>
      </trkpt>
      <trkpt lat="42.86205" lon="1.84328">
        <ele>1107.793</ele>
        <time>2021-02-28T08:47:39Z</time>
      </trkpt>
      <trkpt lat="42.86206" lon="1.84331">
        <ele>1107.798</ele>
        <time>2021-02-28T08:47:41Z</time>
      </trkpt>
      <trkpt lat="42.86207" lon="1.84334">
        <ele>1108.534</ele>
        <time>2021-02-28T08:47:43Z</time>
      </trkpt>
      <trkpt lat="42.86208" lon="1.84337">
        <ele>1108.594</ele>
        <time>2021-02-28T08:47:45Z</time>
      </trkpt>
      <trkpt lat="42.86209" lon="1.8434">
        <ele>1109.031</ele>
        <time>2021-02-28T08:47:47Z</time>
      </trkpt>
      <trkpt lat="42.8621" lon="1.84343">
        <ele>1109.082</ele>
        <time>2021-02-28T08:47:49Z</time>
      </trkpt>
      <trkpt lat="42.86211" lon="1.84346">
        <ele>1108.821</ele>
        <time>2021-02-28T08:47:51Z</time>
      </trkpt>
      <trkpt lat="42.86211" lon="1.84349">
        <ele>1110.348</ele>
        <time>2021-02-28T08:47:53Z</time>
      </trkpt>
      <trkpt lat="42.86211" lon="1.84353">
        <ele>1110.269</ele>
        <time>2021-02-28T08:47:55Z</time>
      </trkpt>
      <trkpt lat="42.86212" lon="1.84356">
        <ele>1110.353</ele>
        <time>2021-02-28T08:47:57Z</time>
      </trkpt>
      <trkpt lat="42.86213" lon="1.84359">
        <ele>1109.898</ele>
        <time>2021-02-28T08:47:59Z</time>
      </trkpt>
      <trkpt lat="42.86213" lon="1.84362">
        <ele>1109.679</ele>
        <time>2021-02-28T08:48:01Z</time>
      </trkpt>
      <trkpt lat="42.86214" lon="1.84365">
        <ele>1109.588</ele>
        <time>2021-02-28T08:48:03Z</time>
      </trkpt>
      <trkpt lat="42.86214" lon="1.84368">
        <ele>1108.986</ele>
        <time>2021-02-28T08:48:05Z</time>
      </trkpt>
      <trkpt lat="42.86214" lon="1.84371">
        <ele>1108.501</ele>
        <time>2021-02-28T08:48:07Z</time>
      </trkpt>
      <trkpt lat="42.86213" lon="1.84374">
        <ele>1107.921</ele>
        <time>2021-02-28T08:48:09Z</time>
      </trkpt>
      <trkpt lat="42.86213" lon="1.84377">
        <ele>1107.961</ele>
        <time>2021-02-28T08:48:11Z</time>
      </trkpt>
      <trkpt lat="42.86212" lon="1.8438">
        <ele>1107.726</ele>
        <time>2021-02-28T08:48:13Z</time>
      </trkpt>
      <trkpt lat="42.86212" lon="1.84383">
        <ele>1106.918</ele>
        <time>2021-02-28T08:48:15Z</time>
      </trkpt>
      <trkpt lat="42.86211" lon="1.84387">
        <ele>1106.113</ele>
        <time>2021-02-28T08:48:17Z</time>
      </trkpt>
      <trkpt lat="42.8621" lon="1.8439">
        <ele>1105.708</ele>
        <time>2021-02-28T08:48:19Z</time>
      </trkpt>
      <trkpt lat="42.86209" lon="1.84393">
        <ele>1105.36</ele>
        <time>2021-02-28T08:48:21Z</time>
      </trkpt>
      <trkpt lat="42.86208" lon="1.84396">
        <ele>1104.966</ele>
        <time>2021-02-28T08:48:23Z</time>
      </trkpt>
      <trkpt lat="42.86207" lon="1.844">
        <ele>1104.549</ele>
        <time>2021-02-28T08:48:25Z</time>
      </trkpt>
      <trkpt lat="42.86206" lon="1.84402">
        <ele>1104.273</ele>
        <time>2021-02-28T08:48:27Z</time>
      </trkpt>
      <trkpt lat="42.86205" lon="1.84405">
        <ele>1103.538</ele>
        <time>2021-02-28T08:48:29Z</time>
      </trkpt>
      <trkpt lat="42.86204" lon="1.84407">
        <ele>1102.969</ele>
        <time>2021-02-28T08:48:31Z</time>
      </trkpt>
      <trkpt lat="42.86203" lon="1.84411">
        <ele>1103.547</ele>
        <time>2021-02-28T08:48:33Z</time>
      </trkpt>
      <trkpt lat="42.86202" lon="1.84414">
        <ele>1103.272</ele>
        <time>2021-02-28T08:48:35Z</time>
      </trkpt>
      <trkpt lat="42.86201" lon="1.84418">
        <ele>1102.94</ele>
        <time>2021-02-28T08:48:38Z</time>
      </trkpt>
      <trkpt lat="42.86199" lon="1.84421">
        <ele>1102.906</ele>
        <time>2021-02-28T08:48:40Z</time>
      </trkpt>
      <trkpt lat="42.86198" lon="1.84424">
        <ele>1102.991</ele>
        <time>2021-02-28T08:48:42Z</time>
      </trkpt>
      <trkpt lat="42.86196" lon="1.84426">
        <ele>1103.295</ele>
        <time>2021-02-28T08:48:44Z</time>
      </trkpt>
      <trkpt lat="42.86195" lon="1.84429">
        <ele>1102.816</ele>
        <time>2021-02-28T08:48:46Z</time>
      </trkpt>
      <trkpt lat="42.86194" lon="1.84432">
        <ele>1102.618</ele>
        <time>2021-02-28T08:48:48Z</time>
      </trkpt>
      <trkpt lat="42.86193" lon="1.84435">
        <ele>1103.409</ele>
        <time>2021-02-28T08:48:50Z</time>
      </trkpt>
      <trkpt lat="42.86192" lon="1.84437">
        <ele>1103.97</ele>
        <time>2021-02-28T08:48:52Z</time>
      </trkpt>
      <trkpt lat="42.86191" lon="1.8444">
        <ele>1104.751</ele>
        <time>2021-02-28T08:48:54Z</time>
      </trkpt>
      <trkpt lat="42.86191" lon="1.84443">
        <ele>1105.59</ele>
        <time>2021-02-28T08:48:56Z</time>
      </trkpt>
      <trkpt lat="42.8619" lon="1.84446">
        <ele>1106.641</ele>
        <time>2021-02-28T08:48:58Z</time>
      </trkpt>
      <trkpt lat="42.86189" lon="1.84449">
        <ele>1107.362</ele>
        <time>2021-02-28T08:49:00Z</time>
      </trkpt>
      <trkpt lat="42.86189" lon="1.84452">
        <ele>1108.513</ele>
        <time>2021-02-28T08:49:02Z</time>
      </trkpt>
      <trkpt lat="42.86188" lon="1.84456">
        <ele>1109.525</ele>
        <time>2021-02-28T08:49:04Z</time>
      </trkpt>
      <trkpt lat="42.86189" lon="1.84459">
        <ele>1111.404</ele>
        <time>2021-02-28T08:49:06Z</time>
      </trkpt>
      <trkpt lat="42.86191" lon="1.84463">
        <ele>1112.411</ele>
        <time>2021-02-28T08:49:08Z</time>
      </trkpt>
      <trkpt lat="42.86191" lon="1.84463">
        <ele>1112.234</ele>
        <time>2021-02-28T08:49:10Z</time>
      </trkpt>
      <trkpt lat="42.86191" lon="1.84463">
        <ele>1112.253</ele>
        <time>2021-02-28T08:49:12Z</time>
      </trkpt>
      <trkpt lat="42.86191" lon="1.84463">
        <ele>1112.286</ele>
        <time>2021-02-28T08:49:14Z</time>
      </trkpt>
      <trkpt lat="42.86191" lon="1.84463">
        <ele>1112.311</ele>
        <time>2021-02-28T08:49:16Z</time>
      </trkpt>
      <trkpt lat="42.8619" lon="1.84464">
        <ele>1112.75</ele>
        <time>2021-02-28T08:49:18Z</time>
      </trkpt>
      <trkpt lat="42.86189" lon="1.84466">
        <ele>1113.303</ele>
        <time>2021-02-28T08:49:20Z</time>
      </trkpt>
      <trkpt lat="42.86188" lon="1.84469">
        <ele>1114.385</ele>
        <time>2021-02-28T08:49:22Z</time>
      </trkpt>
      <trkpt lat="42.86187" lon="1.84471">
        <ele>1115.365</ele>
        <time>2021-02-28T08:49:24Z</time>
      </trkpt>
      <trkpt lat="42.86188" lon="1.84473">
        <ele>1116.124</ele>
        <time>2021-02-28T08:49:26Z</time>
      </trkpt>
      <trkpt lat="42.86189" lon="1.84474">
        <ele>1116.765</ele>
        <time>2021-02-28T08:49:28Z</time>
      </trkpt>
      <trkpt lat="42.86189" lon="1.84476">
        <ele>1118.104</ele>
        <time>2021-02-28T08:49:30Z</time>
      </trkpt>
      <trkpt lat="42.86189" lon="1.84478">
        <ele>1118.86</ele>
        <time>2021-02-28T08:49:32Z</time>
      </trkpt>
      <trkpt lat="42.86188" lon="1.8448">
        <ele>1119.335</ele>
        <time>2021-02-28T08:49:34Z</time>
      </trkpt>
      <trkpt lat="42.86187" lon="1.84482">
        <ele>1120.272</ele>
        <time>2021-02-28T08:49:36Z</time>
      </trkpt>
      <trkpt lat="42.86185" lon="1.84482">
        <ele>1119.981</ele>
        <time>2021-02-28T08:49:38Z</time>
      </trkpt>
      <trkpt lat="42.86185" lon="1.84481">
        <ele>1119.99</ele>
        <time>2021-02-28T08:49:40Z</time>
      </trkpt>
      <trkpt lat="42.86184" lon="1.84482">
        <ele>1120.194</ele>
        <time>2021-02-28T08:49:42Z</time>
      </trkpt>
      <trkpt lat="42.86184" lon="1.84484">
        <ele>1120.363</ele>
        <time>2021-02-28T08:49:44Z</time>
      </trkpt>
      <trkpt lat="42.86183" lon="1.84485">
        <ele>1120.367</ele>
        <time>2021-02-28T08:49:46Z</time>
      </trkpt>
      <trkpt lat="42.86182" lon="1.84487">
        <ele>1120.996</ele>
        <time>2021-02-28T08:49:48Z</time>
      </trkpt>
      <trkpt lat="42.86182" lon="1.84489">
        <ele>1120.931</ele>
        <time>2021-02-28T08:49:50Z</time>
      </trkpt>
      <trkpt lat="42.86181" lon="1.84491">
        <ele>1121.595</ele>
        <time>2021-02-28T08:49:52Z</time>
      </trkpt>
      <trkpt lat="42.86181" lon="1.84492">
        <ele>1121.825</ele>
        <time>2021-02-28T08:49:54Z</time>
      </trkpt>
      <trkpt lat="42.86179" lon="1.84492">
        <ele>1122.411</ele>
        <time>2021-02-28T08:49:56Z</time>
      </trkpt>
      <trkpt lat="42.86179" lon="1.84492">
        <ele>1122.441</ele>
        <time>2021-02-28T08:49:58Z</time>
      </trkpt>
      <trkpt lat="42.86178" lon="1.84493">
        <ele>1122.045</ele>
        <time>2021-02-28T08:50:00Z</time>
      </trkpt>
      <trkpt lat="42.86177" lon="1.84495">
        <ele>1123.253</ele>
        <time>2021-02-28T08:50:02Z</time>
      </trkpt>
      <trkpt lat="42.86176" lon="1.84495">
        <ele>1123.059</ele>
        <time>2021-02-28T08:50:04Z</time>
      </trkpt>
      <trkpt lat="42.86176" lon="1.84495">
        <ele>1123.067</ele>
        <time>2021-02-28T08:50:06Z</time>
      </trkpt>
      <trkpt lat="42.86176" lon="1.84495">
        <ele>1123.07</ele>
        <time>2021-02-28T08:50:08Z</time>
      </trkpt>
      <trkpt lat="42.86176" lon="1.84495">
        <ele>1123.072</ele>
        <time>2021-02-28T08:50:10Z</time>
      </trkpt>
      <trkpt lat="42.86176" lon="1.84495">
        <ele>1123.078</ele>
        <time>2021-02-28T08:50:12Z</time>
      </trkpt>
      <trkpt lat="42.86176" lon="1.84495">
        <ele>1123.076</ele>
        <time>2021-02-28T08:50:14Z</time>
      </trkpt>
      <trkpt lat="42.86176" lon="1.84495">
        <ele>1123.076</ele>
        <time>2021-02-28T08:50:16Z</time>
      </trkpt>
      <trkpt lat="42.86176" lon="1.84495">
        <ele>1123.078</ele>
        <time>2021-02-28T08:50:18Z</time>
      </trkpt>
      <trkpt lat="42.86176" lon="1.84495">
        <ele>1123.08</ele>
        <time>2021-02-28T08:50:20Z</time>
      </trkpt>
      <trkpt lat="42.86176" lon="1.84495">
        <ele>1123.089</ele>
        <time>2021-02-28T08:50:22Z</time>
      </trkpt>
      <trkpt lat="42.86176" lon="1.84495">
        <ele>1122.809</ele>
        <time>2021-02-28T08:50:24Z</time>
      </trkpt>
      <trkpt lat="42.86176" lon="1.84495">
        <ele>1122.044</ele>
        <time>2021-02-28T08:50:26Z</time>
      </trkpt>
      <trkpt lat="42.86176" lon="1.84495">
        <ele>1122.018</ele>
        <time>2021-02-28T08:50:28Z</time>
      </trkpt>
      <trkpt lat="42.86176" lon="1.84495">
        <ele>1122.014</ele>
        <time>2021-02-28T08:50:30Z</time>
      </trkpt>
      <trkpt lat="42.86176" lon="1.84495">
        <ele>1122.012</ele>
        <time>2021-02-28T08:50:32Z</time>
      </trkpt>
      <trkpt lat="42.86175" lon="1.84497">
        <ele>1122.034</ele>
        <time>2021-02-28T08:50:34Z</time>
      </trkpt>
      <trkpt lat="42.86174" lon="1.84496">
        <ele>1121.222</ele>
        <time>2021-02-28T08:50:36Z</time>
      </trkpt>
      <trkpt lat="42.86174" lon="1.84497">
        <ele>1121.35</ele>
        <time>2021-02-28T08:50:38Z</time>
      </trkpt>
      <trkpt lat="42.86173" lon="1.84499">
        <ele>1120.478</ele>
        <time>2021-02-28T08:50:40Z</time>
      </trkpt>
      <trkpt lat="42.86176" lon="1.84504">
        <ele>1121.958</ele>
        <time>2021-02-28T08:50:42Z</time>
      </trkpt>
      <trkpt lat="42.86176" lon="1.84504">
        <ele>1121.665</ele>
        <time>2021-02-28T08:50:44Z</time>
      </trkpt>
      <trkpt lat="42.86177" lon="1.84504">
        <ele>1121.664</ele>
        <time>2021-02-28T08:50:46Z</time>
      </trkpt>
      <trkpt lat="42.86177" lon="1.84504">
        <ele>1121.471</ele>
        <time>2021-02-28T08:50:48Z</time>
      </trkpt>
      <trkpt lat="42.86177" lon="1.84504">
        <ele>1121.48</ele>
        <time>2021-02-28T08:50:50Z</time>
      </trkpt>
      <trkpt lat="42.86177" lon="1.84504">
        <ele>1121.47</ele>
        <time>2021-02-28T08:50:52Z</time>
      </trkpt>
      <trkpt lat="42.86177" lon="1.84504">
        <ele>1121.463</ele>
        <time>2021-02-28T08:50:54Z</time>
      </trkpt>
      <trkpt lat="42.86176" lon="1.84504">
        <ele>1122.069</ele>
        <time>2021-02-28T08:50:56Z</time>
      </trkpt>
      <trkpt lat="42.86176" lon="1.84504">
        <ele>1121.963</ele>
        <time>2021-02-28T08:50:58Z</time>
      </trkpt>
      <trkpt lat="42.86176" lon="1.84504">
        <ele>1121.967</ele>
        <time>2021-02-28T08:51:00Z</time>
      </trkpt>
      <trkpt lat="42.86176" lon="1.84504">
        <ele>1122.09</ele>
        <time>2021-02-28T08:51:02Z</time>
      </trkpt>
      <trkpt lat="42.86176" lon="1.84504">
        <ele>1121.796</ele>
        <time>2021-02-28T08:51:04Z</time>
      </trkpt>
      <trkpt lat="42.86175" lon="1.84505">
        <ele>1121.5</ele>
        <time>2021-02-28T08:51:06Z</time>
      </trkpt>
      <trkpt lat="42.86174" lon="1.84507">
        <ele>1122.483</ele>
        <time>2021-02-28T08:51:08Z</time>
      </trkpt>
      <trkpt lat="42.86173" lon="1.84507">
        <ele>1122.642</ele>
        <time>2021-02-28T08:51:10Z</time>
      </trkpt>
      <trkpt lat="42.86173" lon="1.84507">
        <ele>1122.635</ele>
        <time>2021-02-28T08:51:12Z</time>
      </trkpt>
      <trkpt lat="42.86173" lon="1.84507">
        <ele>1122.637</ele>
        <time>2021-02-28T08:51:14Z</time>
      </trkpt>
      <trkpt lat="42.86173" lon="1.84507">
        <ele>1122.635</ele>
        <time>2021-02-28T08:51:16Z</time>
      </trkpt>
      <trkpt lat="42.86173" lon="1.84507">
        <ele>1122.635</ele>
        <time>2021-02-28T08:51:18Z</time>
      </trkpt>
      <trkpt lat="42.86173" lon="1.84508">
        <ele>1122.454</ele>
        <time>2021-02-28T08:51:20Z</time>
      </trkpt>
      <trkpt lat="42.86172" lon="1.84509">
        <ele>1122.649</ele>
        <time>2021-02-28T08:51:22Z</time>
      </trkpt>
      <trkpt lat="42.86171" lon="1.84511">
        <ele>1122.052</ele>
        <time>2021-02-28T08:51:24Z</time>
      </trkpt>
      <trkpt lat="42.86169" lon="1.84513">
        <ele>1122.409</ele>
        <time>2021-02-28T08:51:26Z</time>
      </trkpt>
      <trkpt lat="42.86168" lon="1.84514">
        <ele>1122.767</ele>
        <time>2021-02-28T08:51:28Z</time>
      </trkpt>
      <trkpt lat="42.86167" lon="1.84516">
        <ele>1122.647</ele>
        <time>2021-02-28T08:51:30Z</time>
      </trkpt>
      <trkpt lat="42.86166" lon="1.84518">
        <ele>1122.196</ele>
        <time>2021-02-28T08:51:32Z</time>
      </trkpt>
      <trkpt lat="42.86165" lon="1.8452">
        <ele>1121.788</ele>
        <time>2021-02-28T08:51:34Z</time>
      </trkpt>
      <trkpt lat="42.86164" lon="1.84521">
        <ele>1122.229</ele>
        <time>2021-02-28T08:51:36Z</time>
      </trkpt>
      <trkpt lat="42.86163" lon="1.84523">
        <ele>1122.295</ele>
        <time>2021-02-28T08:51:38Z</time>
      </trkpt>
      <trkpt lat="42.86162" lon="1.84525">
        <ele>1122.331</ele>
        <time>2021-02-28T08:51:40Z</time>
      </trkpt>
      <trkpt lat="42.8616" lon="1.84528">
        <ele>1122.895</ele>
        <time>2021-02-28T08:51:42Z</time>
      </trkpt>
      <trkpt lat="42.8616" lon="1.84531">
        <ele>1122.191</ele>
        <time>2021-02-28T08:51:44Z</time>
      </trkpt>
      <trkpt lat="42.86158" lon="1.84533">
        <ele>1121.956</ele>
        <time>2021-02-28T08:51:46Z</time>
      </trkpt>
      <trkpt lat="42.86157" lon="1.84535">
        <ele>1121.534</ele>
        <time>2021-02-28T08:51:48Z</time>
      </trkpt>
      <trkpt lat="42.86157" lon="1.84537">
        <ele>1121.744</ele>
        <time>2021-02-28T08:51:50Z</time>
      </trkpt>
      <trkpt lat="42.86156" lon="1.8454">
        <ele>1122.091</ele>
        <time>2021-02-28T08:51:52Z</time>
      </trkpt>
      <trkpt lat="42.86155" lon="1.84543">
        <ele>1122.09</ele>
        <time>2021-02-28T08:51:54Z</time>
      </trkpt>
      <trkpt lat="42.86154" lon="1.84546">
        <ele>1122.87</ele>
        <time>2021-02-28T08:51:56Z</time>
      </trkpt>
      <trkpt lat="42.86153" lon="1.84548">
        <ele>1122.714</ele>
        <time>2021-02-28T08:51:58Z</time>
      </trkpt>
      <trkpt lat="42.86152" lon="1.84551">
        <ele>1122.411</ele>
        <time>2021-02-28T08:52:00Z</time>
      </trkpt>
      <trkpt lat="42.86151" lon="1.84554">
        <ele>1122.405</ele>
        <time>2021-02-28T08:52:02Z</time>
      </trkpt>
      <trkpt lat="42.8615" lon="1.84557">
        <ele>1122.201</ele>
        <time>2021-02-28T08:52:04Z</time>
      </trkpt>
      <trkpt lat="42.86149" lon="1.84559">
        <ele>1121.658</ele>
        <time>2021-02-28T08:52:06Z</time>
      </trkpt>
      <trkpt lat="42.86148" lon="1.84562">
        <ele>1121.92</ele>
        <time>2021-02-28T08:52:08Z</time>
      </trkpt>
      <trkpt lat="42.86147" lon="1.84565">
        <ele>1121.746</ele>
        <time>2021-02-28T08:52:10Z</time>
      </trkpt>
      <trkpt lat="42.86146" lon="1.84567">
        <ele>1121.629</ele>
        <time>2021-02-28T08:52:12Z</time>
      </trkpt>
      <trkpt lat="42.86144" lon="1.8457">
        <ele>1121.292</ele>
        <time>2021-02-28T08:52:15Z</time>
      </trkpt>
      <trkpt lat="42.86142" lon="1.84572">
        <ele>1121.132</ele>
        <time>2021-02-28T08:52:17Z</time>
      </trkpt>
      <trkpt lat="42.86141" lon="1.84574">
        <ele>1121.004</ele>
        <time>2021-02-28T08:52:19Z</time>
      </trkpt>
      <trkpt lat="42.86138" lon="1.84575">
        <ele>1121.357</ele>
        <time>2021-02-28T08:52:21Z</time>
      </trkpt>
      <trkpt lat="42.86136" lon="1.84575">
        <ele>1120.653</ele>
        <time>2021-02-28T08:52:23Z</time>
      </trkpt>
      <trkpt lat="42.86134" lon="1.84576">
        <ele>1120.961</ele>
        <time>2021-02-28T08:52:25Z</time>
      </trkpt>
      <trkpt lat="42.86132" lon="1.84575">
        <ele>1120.684</ele>
        <time>2021-02-28T08:52:27Z</time>
      </trkpt>
      <trkpt lat="42.8613" lon="1.84575">
        <ele>1121.084</ele>
        <time>2021-02-28T08:52:29Z</time>
      </trkpt>
      <trkpt lat="42.86128" lon="1.84574">
        <ele>1121.417</ele>
        <time>2021-02-28T08:52:31Z</time>
      </trkpt>
      <trkpt lat="42.86126" lon="1.84572">
        <ele>1121.089</ele>
        <time>2021-02-28T08:52:33Z</time>
      </trkpt>
      <trkpt lat="42.86124" lon="1.8457">
        <ele>1121.496</ele>
        <time>2021-02-28T08:52:35Z</time>
      </trkpt>
      <trkpt lat="42.86122" lon="1.84568">
        <ele>1122.283</ele>
        <time>2021-02-28T08:52:37Z</time>
      </trkpt>
      <trkpt lat="42.86121" lon="1.84566">
        <ele>1121.631</ele>
        <time>2021-02-28T08:52:39Z</time>
      </trkpt>
      <trkpt lat="42.86121" lon="1.84563">
        <ele>1120.956</ele>
        <time>2021-02-28T08:52:41Z</time>
      </trkpt>
      <trkpt lat="42.8612" lon="1.84561">
        <ele>1120.997</ele>
        <time>2021-02-28T08:52:43Z</time>
      </trkpt>
      <trkpt lat="42.86119" lon="1.84558">
        <ele>1120.338</ele>
        <time>2021-02-28T08:52:45Z</time>
      </trkpt>
      <trkpt lat="42.86118" lon="1.84556">
        <ele>1120.709</ele>
        <time>2021-02-28T08:52:47Z</time>
      </trkpt>
      <trkpt lat="42.86117" lon="1.84553">
        <ele>1120.362</ele>
        <time>2021-02-28T08:52:49Z</time>
      </trkpt>
      <trkpt lat="42.86117" lon="1.84551">
        <ele>1120.834</ele>
        <time>2021-02-28T08:52:51Z</time>
      </trkpt>
      <trkpt lat="42.86116" lon="1.84548">
        <ele>1121.179</ele>
        <time>2021-02-28T08:52:53Z</time>
      </trkpt>
      <trkpt lat="42.86116" lon="1.84546">
        <ele>1121.457</ele>
        <time>2021-02-28T08:52:55Z</time>
      </trkpt>
      <trkpt lat="42.86114" lon="1.84544">
        <ele>1122.973</ele>
        <time>2021-02-28T08:52:57Z</time>
      </trkpt>
      <trkpt lat="42.86114" lon="1.84541">
        <ele>1123.335</ele>
        <time>2021-02-28T08:52:59Z</time>
      </trkpt>
      <trkpt lat="42.86114" lon="1.84539">
        <ele>1123.442</ele>
        <time>2021-02-28T08:53:01Z</time>
      </trkpt>
      <trkpt lat="42.86114" lon="1.84536">
        <ele>1123.158</ele>
        <time>2021-02-28T08:53:03Z</time>
      </trkpt>
      <trkpt lat="42.86113" lon="1.84533">
        <ele>1123.094</ele>
        <time>2021-02-28T08:53:05Z</time>
      </trkpt>
      <trkpt lat="42.86113" lon="1.8453">
        <ele>1123.314</ele>
        <time>2021-02-28T08:53:07Z</time>
      </trkpt>
      <trkpt lat="42.86113" lon="1.84527">
        <ele>1123.969</ele>
        <time>2021-02-28T08:53:09Z</time>
      </trkpt>
      <trkpt lat="42.86112" lon="1.84524">
        <ele>1124.802</ele>
        <time>2021-02-28T08:53:11Z</time>
      </trkpt>
      <trkpt lat="42.86112" lon="1.8452">
        <ele>1125.143</ele>
        <time>2021-02-28T08:53:13Z</time>
      </trkpt>
      <trkpt lat="42.86112" lon="1.84517">
        <ele>1126.088</ele>
        <time>2021-02-28T08:53:15Z</time>
      </trkpt>
      <trkpt lat="42.86112" lon="1.84514">
        <ele>1126.006</ele>
        <time>2021-02-28T08:53:17Z</time>
      </trkpt>
      <trkpt lat="42.86112" lon="1.8451">
        <ele>1127.392</ele>
        <time>2021-02-28T08:53:19Z</time>
      </trkpt>
      <trkpt lat="42.86112" lon="1.84508">
        <ele>1126.119</ele>
        <time>2021-02-28T08:53:21Z</time>
      </trkpt>
      <trkpt lat="42.86112" lon="1.84505">
        <ele>1126.051</ele>
        <time>2021-02-28T08:53:23Z</time>
      </trkpt>
      <trkpt lat="42.86113" lon="1.84502">
        <ele>1125.733</ele>
        <time>2021-02-28T08:53:25Z</time>
      </trkpt>
      <trkpt lat="42.86113" lon="1.84499">
        <ele>1125.54</ele>
        <time>2021-02-28T08:53:27Z</time>
      </trkpt>
      <trkpt lat="42.86113" lon="1.84496">
        <ele>1125.71</ele>
        <time>2021-02-28T08:53:29Z</time>
      </trkpt>
      <trkpt lat="42.86113" lon="1.84493">
        <ele>1125.043</ele>
        <time>2021-02-28T08:53:31Z</time>
      </trkpt>
      <trkpt lat="42.86113" lon="1.8449">
        <ele>1125.909</ele>
        <time>2021-02-28T08:53:33Z</time>
      </trkpt>
      <trkpt lat="42.86112" lon="1.84487">
        <ele>1125.633</ele>
        <time>2021-02-28T08:53:35Z</time>
      </trkpt>
      <trkpt lat="42.86112" lon="1.84484">
        <ele>1125.488</ele>
        <time>2021-02-28T08:53:37Z</time>
      </trkpt>
      <trkpt lat="42.86112" lon="1.84481">
        <ele>1125.568</ele>
        <time>2021-02-28T08:53:39Z</time>
      </trkpt>
      <trkpt lat="42.86112" lon="1.84478">
        <ele>1126.812</ele>
        <time>2021-02-28T08:53:41Z</time>
      </trkpt>
      <trkpt lat="42.8611" lon="1.84475">
        <ele>1125.636</ele>
        <time>2021-02-28T08:53:43Z</time>
      </trkpt>
      <trkpt lat="42.8611" lon="1.84472">
        <ele>1125.323</ele>
        <time>2021-02-28T08:53:45Z</time>
      </trkpt>
      <trkpt lat="42.86109" lon="1.84469">
        <ele>1125.586</ele>
        <time>2021-02-28T08:53:47Z</time>
      </trkpt>
      <trkpt lat="42.86108" lon="1.84467">
        <ele>1126.598</ele>
        <time>2021-02-28T08:53:49Z</time>
      </trkpt>
      <trkpt lat="42.86107" lon="1.84464">
        <ele>1126.582</ele>
        <time>2021-02-28T08:53:51Z</time>
      </trkpt>
      <trkpt lat="42.86107" lon="1.84462">
        <ele>1127.469</ele>
        <time>2021-02-28T08:53:53Z</time>
      </trkpt>
      <trkpt lat="42.86106" lon="1.84459">
        <ele>1126.804</ele>
        <time>2021-02-28T08:53:55Z</time>
      </trkpt>
      <trkpt lat="42.86105" lon="1.84456">
        <ele>1126.157</ele>
        <time>2021-02-28T08:53:57Z</time>
      </trkpt>
      <trkpt lat="42.86105" lon="1.84454">
        <ele>1126.561</ele>
        <time>2021-02-28T08:53:59Z</time>
      </trkpt>
      <trkpt lat="42.86104" lon="1.84451">
        <ele>1125.401</ele>
        <time>2021-02-28T08:54:01Z</time>
      </trkpt>
      <trkpt lat="42.86103" lon="1.84448">
        <ele>1127.989</ele>
        <time>2021-02-28T08:54:03Z</time>
      </trkpt>
      <trkpt lat="42.86103" lon="1.84449">
        <ele>1127.723</ele>
        <time>2021-02-28T08:54:05Z</time>
      </trkpt>
      <trkpt lat="42.86103" lon="1.84449">
        <ele>1127.859</ele>
        <time>2021-02-28T08:54:07Z</time>
      </trkpt>
      <trkpt lat="42.86103" lon="1.84449">
        <ele>1127.875</ele>
        <time>2021-02-28T08:54:09Z</time>
      </trkpt>
      <trkpt lat="42.86102" lon="1.84448">
        <ele>1128.988</ele>
        <time>2021-02-28T08:54:11Z</time>
      </trkpt>
      <trkpt lat="42.86102" lon="1.84447">
        <ele>1129.56</ele>
        <time>2021-02-28T08:54:13Z</time>
      </trkpt>
      <trkpt lat="42.86102" lon="1.84447">
        <ele>1129.575</ele>
        <time>2021-02-28T08:54:15Z</time>
      </trkpt>
      <trkpt lat="42.86102" lon="1.84447">
        <ele>1129.612</ele>
        <time>2021-02-28T08:54:17Z</time>
      </trkpt>
      <trkpt lat="42.86102" lon="1.84447">
        <ele>1129.615</ele>
        <time>2021-02-28T08:54:19Z</time>
      </trkpt>
      <trkpt lat="42.86102" lon="1.84446">
        <ele>1129.581</ele>
        <time>2021-02-28T08:54:21Z</time>
      </trkpt>
      <trkpt lat="42.86102" lon="1.84446">
        <ele>1129.605</ele>
        <time>2021-02-28T08:54:23Z</time>
      </trkpt>
      <trkpt lat="42.86102" lon="1.84446">
        <ele>1129.611</ele>
        <time>2021-02-28T08:54:25Z</time>
      </trkpt>
      <trkpt lat="42.86102" lon="1.84446">
        <ele>1129.623</ele>
        <time>2021-02-28T08:54:27Z</time>
      </trkpt>
      <trkpt lat="42.86102" lon="1.84446">
        <ele>1129.629</ele>
        <time>2021-02-28T08:54:29Z</time>
      </trkpt>
      <trkpt lat="42.86102" lon="1.84446">
        <ele>1129.639</ele>
        <time>2021-02-28T08:54:31Z</time>
      </trkpt>
      <trkpt lat="42.86102" lon="1.84446">
        <ele>1129.642</ele>
        <time>2021-02-28T08:54:33Z</time>
      </trkpt>
      <trkpt lat="42.86102" lon="1.84446">
        <ele>1129.653</ele>
        <time>2021-02-28T08:54:35Z</time>
      </trkpt>
      <trkpt lat="42.86101" lon="1.84446">
        <ele>1130.254</ele>
        <time>2021-02-28T08:54:37Z</time>
      </trkpt>
      <trkpt lat="42.86101" lon="1.84446">
        <ele>1130.643</ele>
        <time>2021-02-28T08:54:39Z</time>
      </trkpt>
      <trkpt lat="42.861" lon="1.84445">
        <ele>1131.422</ele>
        <time>2021-02-28T08:54:41Z</time>
      </trkpt>
      <trkpt lat="42.861" lon="1.84444">
        <ele>1131.355</ele>
        <time>2021-02-28T08:54:43Z</time>
      </trkpt>
      <trkpt lat="42.861" lon="1.84443">
        <ele>1131.615</ele>
        <time>2021-02-28T08:54:45Z</time>
      </trkpt>
      <trkpt lat="42.86099" lon="1.8444">
        <ele>1133.036</ele>
        <time>2021-02-28T08:54:47Z</time>
      </trkpt>
      <trkpt lat="42.86098" lon="1.84438">
        <ele>1133.311</ele>
        <time>2021-02-28T08:54:49Z</time>
      </trkpt>
      <trkpt lat="42.86096" lon="1.84435">
        <ele>1133.743</ele>
        <time>2021-02-28T08:54:51Z</time>
      </trkpt>
      <trkpt lat="42.86095" lon="1.84432">
        <ele>1135.079</ele>
        <time>2021-02-28T08:54:53Z</time>
      </trkpt>
      <trkpt lat="42.86093" lon="1.8443">
        <ele>1136.862</ele>
        <time>2021-02-28T08:54:55Z</time>
      </trkpt>
      <trkpt lat="42.86092" lon="1.84427">
        <ele>1138.318</ele>
        <time>2021-02-28T08:54:57Z</time>
      </trkpt>
      <trkpt lat="42.86091" lon="1.84425">
        <ele>1138.006</ele>
        <time>2021-02-28T08:54:59Z</time>
      </trkpt>
      <trkpt lat="42.86089" lon="1.84422">
        <ele>1137.965</ele>
        <time>2021-02-28T08:55:01Z</time>
      </trkpt>
      <trkpt lat="42.86088" lon="1.84419">
        <ele>1138.674</ele>
        <time>2021-02-28T08:55:03Z</time>
      </trkpt>
      <trkpt lat="42.86087" lon="1.84416">
        <ele>1140.034</ele>
        <time>2021-02-28T08:55:05Z</time>
      </trkpt>
      <trkpt lat="42.86085" lon="1.84414">
        <ele>1140.677</ele>
        <time>2021-02-28T08:55:07Z</time>
      </trkpt>
      <trkpt lat="42.86084" lon="1.84411">
        <ele>1140.868</ele>
        <time>2021-02-28T08:55:09Z</time>
      </trkpt>
      <trkpt lat="42.86082" lon="1.84408">
        <ele>1140.856</ele>
        <time>2021-02-28T08:55:11Z</time>
      </trkpt>
      <trkpt lat="42.8608" lon="1.84406">
        <ele>1141.858</ele>
        <time>2021-02-28T08:55:13Z</time>
      </trkpt>
      <trkpt lat="42.86079" lon="1.84403">
        <ele>1142.346</ele>
        <time>2021-02-28T08:55:15Z</time>
      </trkpt>
      <trkpt lat="42.86077" lon="1.844">
        <ele>1143.373</ele>
        <time>2021-02-28T08:55:17Z</time>
      </trkpt>
      <trkpt lat="42.86076" lon="1.84398">
        <ele>1143.426</ele>
        <time>2021-02-28T08:55:19Z</time>
      </trkpt>
      <trkpt lat="42.86074" lon="1.84395">
        <ele>1143.71</ele>
        <time>2021-02-28T08:55:21Z</time>
      </trkpt>
      <trkpt lat="42.86074" lon="1.84392">
        <ele>1143.36</ele>
        <time>2021-02-28T08:55:23Z</time>
      </trkpt>
      <trkpt lat="42.86072" lon="1.8439">
        <ele>1144.177</ele>
        <time>2021-02-28T08:55:25Z</time>
      </trkpt>
      <trkpt lat="42.86071" lon="1.84387">
        <ele>1143.978</ele>
        <time>2021-02-28T08:55:27Z</time>
      </trkpt>
      <trkpt lat="42.8607" lon="1.84385">
        <ele>1143.727</ele>
        <time>2021-02-28T08:55:29Z</time>
      </trkpt>
      <trkpt lat="42.86068" lon="1.84382">
        <ele>1144.198</ele>
        <time>2021-02-28T08:55:31Z</time>
      </trkpt>
      <trkpt lat="42.86067" lon="1.84379">
        <ele>1145.026</ele>
        <time>2021-02-28T08:55:33Z</time>
      </trkpt>
      <trkpt lat="42.86065" lon="1.84377">
        <ele>1145.647</ele>
        <time>2021-02-28T08:55:35Z</time>
      </trkpt>
      <trkpt lat="42.86063" lon="1.84375">
        <ele>1144.931</ele>
        <time>2021-02-28T08:55:37Z</time>
      </trkpt>
      <trkpt lat="42.86062" lon="1.84373">
        <ele>1145.024</ele>
        <time>2021-02-28T08:55:39Z</time>
      </trkpt>
      <trkpt lat="42.86061" lon="1.8437">
        <ele>1144.022</ele>
        <time>2021-02-28T08:55:41Z</time>
      </trkpt>
      <trkpt lat="42.86061" lon="1.84367">
        <ele>1143.449</ele>
        <time>2021-02-28T08:55:43Z</time>
      </trkpt>
      <trkpt lat="42.8606" lon="1.84364">
        <ele>1143.274</ele>
        <time>2021-02-28T08:55:45Z</time>
      </trkpt>
      <trkpt lat="42.8606" lon="1.84361">
        <ele>1142.349</ele>
        <time>2021-02-28T08:55:47Z</time>
      </trkpt>
      <trkpt lat="42.86059" lon="1.84359">
        <ele>1142.031</ele>
        <time>2021-02-28T08:55:49Z</time>
      </trkpt>
      <trkpt lat="42.86058" lon="1.84357">
        <ele>1141.293</ele>
        <time>2021-02-28T08:55:51Z</time>
      </trkpt>
      <trkpt lat="42.86057" lon="1.84354">
        <ele>1141.49</ele>
        <time>2021-02-28T08:55:53Z</time>
      </trkpt>
      <trkpt lat="42.86056" lon="1.84352">
        <ele>1141.474</ele>
        <time>2021-02-28T08:55:55Z</time>
      </trkpt>
      <trkpt lat="42.86055" lon="1.8435">
        <ele>1141.212</ele>
        <time>2021-02-28T08:55:57Z</time>
      </trkpt>
      <trkpt lat="42.86054" lon="1.84347">
        <ele>1142.634</ele>
        <time>2021-02-28T08:55:59Z</time>
      </trkpt>
      <trkpt lat="42.86053" lon="1.84345">
        <ele>1143.019</ele>
        <time>2021-02-28T08:56:01Z</time>
      </trkpt>
      <trkpt lat="42.86051" lon="1.84342">
        <ele>1143.21</ele>
        <time>2021-02-28T08:56:03Z</time>
      </trkpt>
      <trkpt lat="42.8605" lon="1.8434">
        <ele>1143.098</ele>
        <time>2021-02-28T08:56:05Z</time>
      </trkpt>
      <trkpt lat="42.86048" lon="1.84337">
        <ele>1142.378</ele>
        <time>2021-02-28T08:56:07Z</time>
      </trkpt>
      <trkpt lat="42.86047" lon="1.84334">
        <ele>1142.562</ele>
        <time>2021-02-28T08:56:09Z</time>
      </trkpt>
      <trkpt lat="42.86045" lon="1.84332">
        <ele>1143.018</ele>
        <time>2021-02-28T08:56:11Z</time>
      </trkpt>
      <trkpt lat="42.86043" lon="1.84329">
        <ele>1142.559</ele>
        <time>2021-02-28T08:56:13Z</time>
      </trkpt>
      <trkpt lat="42.86042" lon="1.84327">
        <ele>1142.663</ele>
        <time>2021-02-28T08:56:15Z</time>
      </trkpt>
      <trkpt lat="42.8604" lon="1.84325">
        <ele>1141.259</ele>
        <time>2021-02-28T08:56:17Z</time>
      </trkpt>
      <trkpt lat="42.86038" lon="1.84323">
        <ele>1141.065</ele>
        <time>2021-02-28T08:56:19Z</time>
      </trkpt>
      <trkpt lat="42.86036" lon="1.84321">
        <ele>1139.881</ele>
        <time>2021-02-28T08:56:21Z</time>
      </trkpt>
      <trkpt lat="42.86034" lon="1.8432">
        <ele>1139.723</ele>
        <time>2021-02-28T08:56:23Z</time>
      </trkpt>
      <trkpt lat="42.86032" lon="1.84317">
        <ele>1139.037</ele>
        <time>2021-02-28T08:56:25Z</time>
      </trkpt>
      <trkpt lat="42.8603" lon="1.84315">
        <ele>1138.395</ele>
        <time>2021-02-28T08:56:27Z</time>
      </trkpt>
      <trkpt lat="42.86027" lon="1.84314">
        <ele>1138.114</ele>
        <time>2021-02-28T08:56:29Z</time>
      </trkpt>
      <trkpt lat="42.86025" lon="1.84312">
        <ele>1139.125</ele>
        <time>2021-02-28T08:56:31Z</time>
      </trkpt>
      <trkpt lat="42.86022" lon="1.84311">
        <ele>1140.228</ele>
        <time>2021-02-28T08:56:33Z</time>
      </trkpt>
      <trkpt lat="42.8602" lon="1.8431">
        <ele>1140.907</ele>
        <time>2021-02-28T08:56:35Z</time>
      </trkpt>
      <trkpt lat="42.86018" lon="1.84309">
        <ele>1139.821</ele>
        <time>2021-02-28T08:56:37Z</time>
      </trkpt>
      <trkpt lat="42.86015" lon="1.84309">
        <ele>1140.349</ele>
        <time>2021-02-28T08:56:39Z</time>
      </trkpt>
      <trkpt lat="42.86013" lon="1.84308">
        <ele>1140.031</ele>
        <time>2021-02-28T08:56:41Z</time>
      </trkpt>
      <trkpt lat="42.8601" lon="1.84307">
        <ele>1141.319</ele>
        <time>2021-02-28T08:56:43Z</time>
      </trkpt>
      <trkpt lat="42.86007" lon="1.84306">
        <ele>1142.807</ele>
        <time>2021-02-28T08:56:45Z</time>
      </trkpt>
      <trkpt lat="42.86005" lon="1.84304">
        <ele>1143.971</ele>
        <time>2021-02-28T08:56:47Z</time>
      </trkpt>
      <trkpt lat="42.86002" lon="1.84303">
        <ele>1144.215</ele>
        <time>2021-02-28T08:56:49Z</time>
      </trkpt>
      <trkpt lat="42.86" lon="1.84301">
        <ele>1145.788</ele>
        <time>2021-02-28T08:56:51Z</time>
      </trkpt>
      <trkpt lat="42.85997" lon="1.843">
        <ele>1147.26</ele>
        <time>2021-02-28T08:56:53Z</time>
      </trkpt>
      <trkpt lat="42.85994" lon="1.84298">
        <ele>1149.897</ele>
        <time>2021-02-28T08:56:55Z</time>
      </trkpt>
      <trkpt lat="42.85992" lon="1.84296">
        <ele>1150.801</ele>
        <time>2021-02-28T08:56:57Z</time>
      </trkpt>
      <trkpt lat="42.85989" lon="1.84295">
        <ele>1151.196</ele>
        <time>2021-02-28T08:56:59Z</time>
      </trkpt>
      <trkpt lat="42.85987" lon="1.84293">
        <ele>1151.853</ele>
        <time>2021-02-28T08:57:01Z</time>
      </trkpt>
      <trkpt lat="42.85984" lon="1.8429">
        <ele>1154.306</ele>
        <time>2021-02-28T08:57:03Z</time>
      </trkpt>
      <trkpt lat="42.85982" lon="1.84288">
        <ele>1156.756</ele>
        <time>2021-02-28T08:57:05Z</time>
      </trkpt>
      <trkpt lat="42.8598" lon="1.84285">
        <ele>1157.723</ele>
        <time>2021-02-28T08:57:07Z</time>
      </trkpt>
      <trkpt lat="42.85979" lon="1.84282">
        <ele>1158.908</ele>
        <time>2021-02-28T08:57:09Z</time>
      </trkpt>
      <trkpt lat="42.85978" lon="1.84279">
        <ele>1159.808</ele>
        <time>2021-02-28T08:57:11Z</time>
      </trkpt>
      <trkpt lat="42.85978" lon="1.84278">
        <ele>1160.033</ele>
        <time>2021-02-28T08:57:13Z</time>
      </trkpt>
      <trkpt lat="42.85978" lon="1.84278">
        <ele>1160.302</ele>
        <time>2021-02-28T08:57:15Z</time>
      </trkpt>
      <trkpt lat="42.85977" lon="1.84276">
        <ele>1160.181</ele>
        <time>2021-02-28T08:57:17Z</time>
      </trkpt>
      <trkpt lat="42.85976" lon="1.84273">
        <ele>1161.553</ele>
        <time>2021-02-28T08:57:19Z</time>
      </trkpt>
      <trkpt lat="42.85976" lon="1.84272">
        <ele>1161.889</ele>
        <time>2021-02-28T08:57:21Z</time>
      </trkpt>
      <trkpt lat="42.85976" lon="1.84272">
        <ele>1161.893</ele>
        <time>2021-02-28T08:57:23Z</time>
      </trkpt>
      <trkpt lat="42.85976" lon="1.84272">
        <ele>1161.901</ele>
        <time>2021-02-28T08:57:25Z</time>
      </trkpt>
      <trkpt lat="42.85976" lon="1.84273">
        <ele>1161.819</ele>
        <time>2021-02-28T08:57:27Z</time>
      </trkpt>
      <trkpt lat="42.85976" lon="1.84272">
        <ele>1159.633</ele>
        <time>2021-02-28T08:57:29Z</time>
      </trkpt>
      <trkpt lat="42.85976" lon="1.84272">
        <ele>1159.357</ele>
        <time>2021-02-28T08:57:31Z</time>
      </trkpt>
      <trkpt lat="42.85976" lon="1.84271">
        <ele>1159.775</ele>
        <time>2021-02-28T08:57:33Z</time>
      </trkpt>
      <trkpt lat="42.85975" lon="1.8427">
        <ele>1159.97</ele>
        <time>2021-02-28T08:57:35Z</time>
      </trkpt>
      <trkpt lat="42.85975" lon="1.84269">
        <ele>1160.033</ele>
        <time>2021-02-28T08:57:37Z</time>
      </trkpt>
      <trkpt lat="42.85975" lon="1.84269">
        <ele>1159.081</ele>
        <time>2021-02-28T08:57:39Z</time>
      </trkpt>
      <trkpt lat="42.85975" lon="1.84269">
        <ele>1158.636</ele>
        <time>2021-02-28T08:57:41Z</time>
      </trkpt>
      <trkpt lat="42.85974" lon="1.84269">
        <ele>1159.739</ele>
        <time>2021-02-28T08:57:43Z</time>
      </trkpt>
      <trkpt lat="42.85973" lon="1.84269">
        <ele>1159.573</ele>
        <time>2021-02-28T08:57:45Z</time>
      </trkpt>
      <trkpt lat="42.85973" lon="1.8427">
        <ele>1159.746</ele>
        <time>2021-02-28T08:57:47Z</time>
      </trkpt>
      <trkpt lat="42.85973" lon="1.84268">
        <ele>1158.897</ele>
        <time>2021-02-28T08:57:49Z</time>
      </trkpt>
      <trkpt lat="42.85972" lon="1.84267">
        <ele>1158.566</ele>
        <time>2021-02-28T08:57:51Z</time>
      </trkpt>
      <trkpt lat="42.85972" lon="1.84268">
        <ele>1158.518</ele>
        <time>2021-02-28T08:57:53Z</time>
      </trkpt>
      <trkpt lat="42.85971" lon="1.84267">
        <ele>1158.116</ele>
        <time>2021-02-28T08:57:55Z</time>
      </trkpt>
      <trkpt lat="42.85971" lon="1.84267">
        <ele>1159.171</ele>
        <time>2021-02-28T08:57:57Z</time>
      </trkpt>
      <trkpt lat="42.8597" lon="1.84267">
        <ele>1160.139</ele>
        <time>2021-02-28T08:57:59Z</time>
      </trkpt>
      <trkpt lat="42.85971" lon="1.84267">
        <ele>1160.156</ele>
        <time>2021-02-28T08:58:01Z</time>
      </trkpt>
      <trkpt lat="42.85972" lon="1.84265">
        <ele>1159.545</ele>
        <time>2021-02-28T08:58:03Z</time>
      </trkpt>
      <trkpt lat="42.85972" lon="1.84264">
        <ele>1160.173</ele>
        <time>2021-02-28T08:58:05Z</time>
      </trkpt>
      <trkpt lat="42.85972" lon="1.84264">
        <ele>1159.798</ele>
        <time>2021-02-28T08:58:07Z</time>
      </trkpt>
      <trkpt lat="42.85972" lon="1.84264">
        <ele>1159.808</ele>
        <time>2021-02-28T08:58:09Z</time>
      </trkpt>
      <trkpt lat="42.85971" lon="1.84263">
        <ele>1160.381</ele>
        <time>2021-02-28T08:58:11Z</time>
      </trkpt>
      <trkpt lat="42.85971" lon="1.84261">
        <ele>1160.96</ele>
        <time>2021-02-28T08:58:13Z</time>
      </trkpt>
      <trkpt lat="42.85971" lon="1.8426">
        <ele>1160.43</ele>
        <time>2021-02-28T08:58:15Z</time>
      </trkpt>
      <trkpt lat="42.85971" lon="1.8426">
        <ele>1160.308</ele>
        <time>2021-02-28T08:58:17Z</time>
      </trkpt>
      <trkpt lat="42.85971" lon="1.84258">
        <ele>1161.566</ele>
        <time>2021-02-28T08:58:19Z</time>
      </trkpt>
      <trkpt lat="42.85971" lon="1.84258">
        <ele>1160.96</ele>
        <time>2021-02-28T08:58:21Z</time>
      </trkpt>
      <trkpt lat="42.85972" lon="1.84256">
        <ele>1161.215</ele>
        <time>2021-02-28T08:58:23Z</time>
      </trkpt>
      <trkpt lat="42.85972" lon="1.84255">
        <ele>1160.812</ele>
        <time>2021-02-28T08:58:25Z</time>
      </trkpt>
      <trkpt lat="42.85971" lon="1.84254">
        <ele>1162.526</ele>
        <time>2021-02-28T08:58:27Z</time>
      </trkpt>
      <trkpt lat="42.85972" lon="1.84252">
        <ele>1163.884</ele>
        <time>2021-02-28T08:58:29Z</time>
      </trkpt>
      <trkpt lat="42.85972" lon="1.84251">
        <ele>1163.729</ele>
        <time>2021-02-28T08:58:31Z</time>
      </trkpt>
      <trkpt lat="42.85973" lon="1.84249">
        <ele>1164.167</ele>
        <time>2021-02-28T08:58:33Z</time>
      </trkpt>
      <trkpt lat="42.85971" lon="1.84249">
        <ele>1164.835</ele>
        <time>2021-02-28T08:58:35Z</time>
      </trkpt>
      <trkpt lat="42.8597" lon="1.84248">
        <ele>1166.237</ele>
        <time>2021-02-28T08:58:37Z</time>
      </trkpt>
      <trkpt lat="42.8597" lon="1.84247">
        <ele>1166.634</ele>
        <time>2021-02-28T08:58:39Z</time>
      </trkpt>
      <trkpt lat="42.85969" lon="1.84247">
        <ele>1167.309</ele>
        <time>2021-02-28T08:58:41Z</time>
      </trkpt>
      <trkpt lat="42.85969" lon="1.84247">
        <ele>1166.531</ele>
        <time>2021-02-28T08:58:43Z</time>
      </trkpt>
      <trkpt lat="42.8597" lon="1.84246">
        <ele>1167.093</ele>
        <time>2021-02-28T08:58:45Z</time>
      </trkpt>
      <trkpt lat="42.85971" lon="1.84245">
        <ele>1167.817</ele>
        <time>2021-02-28T08:58:47Z</time>
      </trkpt>
      <trkpt lat="42.85971" lon="1.84243">
        <ele>1168.714</ele>
        <time>2021-02-28T08:58:49Z</time>
      </trkpt>
      <trkpt lat="42.85972" lon="1.84241">
        <ele>1168.568</ele>
        <time>2021-02-28T08:58:51Z</time>
      </trkpt>
      <trkpt lat="42.85973" lon="1.84238">
        <ele>1168.448</ele>
        <time>2021-02-28T08:58:53Z</time>
      </trkpt>
      <trkpt lat="42.85973" lon="1.84237">
        <ele>1166.998</ele>
        <time>2021-02-28T08:58:55Z</time>
      </trkpt>
      <trkpt lat="42.85973" lon="1.84235">
        <ele>1166.902</ele>
        <time>2021-02-28T08:58:58Z</time>
      </trkpt>
      <trkpt lat="42.85974" lon="1.84234">
        <ele>1165.536</ele>
        <time>2021-02-28T08:59:00Z</time>
      </trkpt>
      <trkpt lat="42.85974" lon="1.84233">
        <ele>1166.096</ele>
        <time>2021-02-28T08:59:02Z</time>
      </trkpt>
      <trkpt lat="42.85974" lon="1.84232">
        <ele>1165.867</ele>
        <time>2021-02-28T08:59:04Z</time>
      </trkpt>
      <trkpt lat="42.85975" lon="1.8423">
        <ele>1167.61</ele>
        <time>2021-02-28T08:59:06Z</time>
      </trkpt>
      <trkpt lat="42.85974" lon="1.84229">
        <ele>1167.728</ele>
        <time>2021-02-28T08:59:08Z</time>
      </trkpt>
      <trkpt lat="42.85974" lon="1.84227">
        <ele>1166.575</ele>
        <time>2021-02-28T08:59:10Z</time>
      </trkpt>
      <trkpt lat="42.85974" lon="1.84225">
        <ele>1166.715</ele>
        <time>2021-02-28T08:59:12Z</time>
      </trkpt>
      <trkpt lat="42.85974" lon="1.84222">
        <ele>1165.676</ele>
        <time>2021-02-28T08:59:14Z</time>
      </trkpt>
      <trkpt lat="42.85973" lon="1.84221">
        <ele>1167.051</ele>
        <time>2021-02-28T08:59:16Z</time>
      </trkpt>
      <trkpt lat="42.85972" lon="1.84219">
        <ele>1168.095</ele>
        <time>2021-02-28T08:59:18Z</time>
      </trkpt>
      <trkpt lat="42.85972" lon="1.84217">
        <ele>1168.542</ele>
        <time>2021-02-28T08:59:20Z</time>
      </trkpt>
      <trkpt lat="42.85972" lon="1.84215">
        <ele>1167.884</ele>
        <time>2021-02-28T08:59:22Z</time>
      </trkpt>
      <trkpt lat="42.85972" lon="1.84214">
        <ele>1166.893</ele>
        <time>2021-02-28T08:59:24Z</time>
      </trkpt>
      <trkpt lat="42.85972" lon="1.84212">
        <ele>1167.911</ele>
        <time>2021-02-28T08:59:26Z</time>
      </trkpt>
      <trkpt lat="42.85973" lon="1.84211">
        <ele>1168.187</ele>
        <time>2021-02-28T08:59:28Z</time>
      </trkpt>
      <trkpt lat="42.85972" lon="1.84209">
        <ele>1167.959</ele>
        <time>2021-02-28T08:59:30Z</time>
      </trkpt>
      <trkpt lat="42.85972" lon="1.84207">
        <ele>1169.646</ele>
        <time>2021-02-28T08:59:32Z</time>
      </trkpt>
      <trkpt lat="42.85972" lon="1.84205">
        <ele>1169.68</ele>
        <time>2021-02-28T08:59:34Z</time>
      </trkpt>
      <trkpt lat="42.85973" lon="1.84203">
        <ele>1169.724</ele>
        <time>2021-02-28T08:59:36Z</time>
      </trkpt>
      <trkpt lat="42.85973" lon="1.84201">
        <ele>1169.598</ele>
        <time>2021-02-28T08:59:38Z</time>
      </trkpt>
      <trkpt lat="42.85973" lon="1.84198">
        <ele>1171.027</ele>
        <time>2021-02-28T08:59:40Z</time>
      </trkpt>
      <trkpt lat="42.85974" lon="1.84197">
        <ele>1171.85</ele>
        <time>2021-02-28T08:59:42Z</time>
      </trkpt>
      <trkpt lat="42.85974" lon="1.84195">
        <ele>1171.916</ele>
        <time>2021-02-28T08:59:44Z</time>
      </trkpt>
      <trkpt lat="42.85973" lon="1.84194">
        <ele>1173.035</ele>
        <time>2021-02-28T08:59:46Z</time>
      </trkpt>
      <trkpt lat="42.85971" lon="1.84195">
        <ele>1174.791</ele>
        <time>2021-02-28T08:59:49Z</time>
      </trkpt>
      <trkpt lat="42.8597" lon="1.84194">
        <ele>1176.443</ele>
        <time>2021-02-28T08:59:51Z</time>
      </trkpt>
      <trkpt lat="42.8597" lon="1.84193">
        <ele>1175.99</ele>
        <time>2021-02-28T08:59:53Z</time>
      </trkpt>
      <trkpt lat="42.85971" lon="1.84191">
        <ele>1175.056</ele>
        <time>2021-02-28T08:59:55Z</time>
      </trkpt>
      <trkpt lat="42.85971" lon="1.8419">
        <ele>1175.055</ele>
        <time>2021-02-28T08:59:57Z</time>
      </trkpt>
      <trkpt lat="42.85972" lon="1.84188">
        <ele>1174.794</ele>
        <time>2021-02-28T08:59:59Z</time>
      </trkpt>
      <trkpt lat="42.85972" lon="1.84187">
        <ele>1175.169</ele>
        <time>2021-02-28T09:00:01Z</time>
      </trkpt>
      <trkpt lat="42.85972" lon="1.84185">
        <ele>1175.33</ele>
        <time>2021-02-28T09:00:03Z</time>
      </trkpt>
      <trkpt lat="42.85973" lon="1.84184">
        <ele>1175.729</ele>
        <time>2021-02-28T09:00:05Z</time>
      </trkpt>
      <trkpt lat="42.85974" lon="1.84182">
        <ele>1175.674</ele>
        <time>2021-02-28T09:00:07Z</time>
      </trkpt>
      <trkpt lat="42.85974" lon="1.84179">
        <ele>1176.189</ele>
        <time>2021-02-28T09:00:09Z</time>
      </trkpt>
      <trkpt lat="42.85973" lon="1.84177">
        <ele>1174.469</ele>
        <time>2021-02-28T09:00:11Z</time>
      </trkpt>
      <trkpt lat="42.85974" lon="1.84176">
        <ele>1174.817</ele>
        <time>2021-02-28T09:00:13Z</time>
      </trkpt>
      <trkpt lat="42.85974" lon="1.84174">
        <ele>1173.983</ele>
        <time>2021-02-28T09:00:15Z</time>
      </trkpt>
      <trkpt lat="42.85974" lon="1.84172">
        <ele>1173.24</ele>
        <time>2021-02-28T09:00:17Z</time>
      </trkpt>
      <trkpt lat="42.85974" lon="1.84169">
        <ele>1173.096</ele>
        <time>2021-02-28T09:00:19Z</time>
      </trkpt>
      <trkpt lat="42.85974" lon="1.84167">
        <ele>1174.34</ele>
        <time>2021-02-28T09:00:21Z</time>
      </trkpt>
      <trkpt lat="42.85973" lon="1.84166">
        <ele>1175.37</ele>
        <time>2021-02-28T09:00:23Z</time>
      </trkpt>
      <trkpt lat="42.85974" lon="1.84165">
        <ele>1174.684</ele>
        <time>2021-02-28T09:00:25Z</time>
      </trkpt>
      <trkpt lat="42.85974" lon="1.84164">
        <ele>1175.347</ele>
        <time>2021-02-28T09:00:27Z</time>
      </trkpt>
      <trkpt lat="42.85974" lon="1.84164">
        <ele>1175.359</ele>
        <time>2021-02-28T09:00:29Z</time>
      </trkpt>
      <trkpt lat="42.85975" lon="1.84163">
        <ele>1176.488</ele>
        <time>2021-02-28T09:00:31Z</time>
      </trkpt>
      <trkpt lat="42.85975" lon="1.84162">
        <ele>1176.874</ele>
        <time>2021-02-28T09:00:33Z</time>
      </trkpt>
      <trkpt lat="42.85975" lon="1.84159">
        <ele>1176.169</ele>
        <time>2021-02-28T09:00:35Z</time>
      </trkpt>
      <trkpt lat="42.85975" lon="1.84157">
        <ele>1177.06</ele>
        <time>2021-02-28T09:00:37Z</time>
      </trkpt>
      <trkpt lat="42.85974" lon="1.84155">
        <ele>1177.746</ele>
        <time>2021-02-28T09:00:39Z</time>
      </trkpt>
      <trkpt lat="42.85974" lon="1.84154">
        <ele>1177.114</ele>
        <time>2021-02-28T09:00:41Z</time>
      </trkpt>
      <trkpt lat="42.85974" lon="1.84152">
        <ele>1175.145</ele>
        <time>2021-02-28T09:00:43Z</time>
      </trkpt>
      <trkpt lat="42.85974" lon="1.8415">
        <ele>1174.506</ele>
        <time>2021-02-28T09:00:45Z</time>
      </trkpt>
      <trkpt lat="42.85972" lon="1.8415">
        <ele>1174.754</ele>
        <time>2021-02-28T09:00:47Z</time>
      </trkpt>
      <trkpt lat="42.85971" lon="1.8415">
        <ele>1174.595</ele>
        <time>2021-02-28T09:00:49Z</time>
      </trkpt>
      <trkpt lat="42.85969" lon="1.8415">
        <ele>1175.902</ele>
        <time>2021-02-28T09:00:51Z</time>
      </trkpt>
      <trkpt lat="42.85967" lon="1.8415">
        <ele>1179.073</ele>
        <time>2021-02-28T09:00:53Z</time>
      </trkpt>
      <trkpt lat="42.85964" lon="1.8415">
        <ele>1179.887</ele>
        <time>2021-02-28T09:00:55Z</time>
      </trkpt>
      <trkpt lat="42.85962" lon="1.84149">
        <ele>1180.242</ele>
        <time>2021-02-28T09:00:57Z</time>
      </trkpt>
      <trkpt lat="42.8596" lon="1.84149">
        <ele>1181.389</ele>
        <time>2021-02-28T09:00:59Z</time>
      </trkpt>
      <trkpt lat="42.85958" lon="1.84149">
        <ele>1181.983</ele>
        <time>2021-02-28T09:01:01Z</time>
      </trkpt>
      <trkpt lat="42.85956" lon="1.84149">
        <ele>1183.329</ele>
        <time>2021-02-28T09:01:03Z</time>
      </trkpt>
      <trkpt lat="42.85954" lon="1.84149">
        <ele>1184.775</ele>
        <time>2021-02-28T09:01:05Z</time>
      </trkpt>
      <trkpt lat="42.85952" lon="1.84148">
        <ele>1185.85</ele>
        <time>2021-02-28T09:01:07Z</time>
      </trkpt>
      <trkpt lat="42.8595" lon="1.84148">
        <ele>1185.692</ele>
        <time>2021-02-28T09:01:09Z</time>
      </trkpt>
      <trkpt lat="42.85948" lon="1.84148">
        <ele>1186.043</ele>
        <time>2021-02-28T09:01:11Z</time>
      </trkpt>
      <trkpt lat="42.85947" lon="1.84147">
        <ele>1187.477</ele>
        <time>2021-02-28T09:01:13Z</time>
      </trkpt>
      <trkpt lat="42.85945" lon="1.84146">
        <ele>1188.423</ele>
        <time>2021-02-28T09:01:15Z</time>
      </trkpt>
      <trkpt lat="42.85943" lon="1.84145">
        <ele>1188.775</ele>
        <time>2021-02-28T09:01:17Z</time>
      </trkpt>
      <trkpt lat="42.85942" lon="1.84144">
        <ele>1188.991</ele>
        <time>2021-02-28T09:01:19Z</time>
      </trkpt>
      <trkpt lat="42.8594" lon="1.84142">
        <ele>1189.113</ele>
        <time>2021-02-28T09:01:21Z</time>
      </trkpt>
      <trkpt lat="42.85938" lon="1.84141">
        <ele>1189.507</ele>
        <time>2021-02-28T09:01:23Z</time>
      </trkpt>
      <trkpt lat="42.85937" lon="1.84139">
        <ele>1189.1</ele>
        <time>2021-02-28T09:01:25Z</time>
      </trkpt>
      <trkpt lat="42.85935" lon="1.84137">
        <ele>1189.376</ele>
        <time>2021-02-28T09:01:27Z</time>
      </trkpt>
      <trkpt lat="42.85934" lon="1.84135">
        <ele>1190.523</ele>
        <time>2021-02-28T09:01:29Z</time>
      </trkpt>
      <trkpt lat="42.85932" lon="1.84133">
        <ele>1191.681</ele>
        <time>2021-02-28T09:01:31Z</time>
      </trkpt>
      <trkpt lat="42.85931" lon="1.84131">
        <ele>1191.8</ele>
        <time>2021-02-28T09:01:33Z</time>
      </trkpt>
      <trkpt lat="42.8593" lon="1.84128">
        <ele>1192.722</ele>
        <time>2021-02-28T09:01:35Z</time>
      </trkpt>
      <trkpt lat="42.8593" lon="1.84125">
        <ele>1192.696</ele>
        <time>2021-02-28T09:01:37Z</time>
      </trkpt>
      <trkpt lat="42.85928" lon="1.84123">
        <ele>1192.832</ele>
        <time>2021-02-28T09:01:39Z</time>
      </trkpt>
      <trkpt lat="42.85928" lon="1.8412">
        <ele>1193.987</ele>
        <time>2021-02-28T09:01:41Z</time>
      </trkpt>
      <trkpt lat="42.85927" lon="1.84117">
        <ele>1194.253</ele>
        <time>2021-02-28T09:01:43Z</time>
      </trkpt>
      <trkpt lat="42.85927" lon="1.84114">
        <ele>1194.879</ele>
        <time>2021-02-28T09:01:45Z</time>
      </trkpt>
      <trkpt lat="42.85926" lon="1.84113">
        <ele>1196.684</ele>
        <time>2021-02-28T09:01:47Z</time>
      </trkpt>
      <trkpt lat="42.85925" lon="1.8411">
        <ele>1197.131</ele>
        <time>2021-02-28T09:01:49Z</time>
      </trkpt>
      <trkpt lat="42.85924" lon="1.84107">
        <ele>1197.543</ele>
        <time>2021-02-28T09:01:51Z</time>
      </trkpt>
      <trkpt lat="42.85924" lon="1.84104">
        <ele>1198.051</ele>
        <time>2021-02-28T09:01:53Z</time>
      </trkpt>
      <trkpt lat="42.85924" lon="1.84101">
        <ele>1197.974</ele>
        <time>2021-02-28T09:01:55Z</time>
      </trkpt>
      <trkpt lat="42.85923" lon="1.84098">
        <ele>1198.62</ele>
        <time>2021-02-28T09:01:57Z</time>
      </trkpt>
      <trkpt lat="42.85923" lon="1.84095">
        <ele>1200.136</ele>
        <time>2021-02-28T09:01:59Z</time>
      </trkpt>
      <trkpt lat="42.85922" lon="1.84093">
        <ele>1200.565</ele>
        <time>2021-02-28T09:02:01Z</time>
      </trkpt>
      <trkpt lat="42.85921" lon="1.8409">
        <ele>1200.478</ele>
        <time>2021-02-28T09:02:03Z</time>
      </trkpt>
      <trkpt lat="42.8592" lon="1.84088">
        <ele>1201.304</ele>
        <time>2021-02-28T09:02:05Z</time>
      </trkpt>
      <trkpt lat="42.85919" lon="1.84085">
        <ele>1200.45</ele>
        <time>2021-02-28T09:02:07Z</time>
      </trkpt>
      <trkpt lat="42.85918" lon="1.84083">
        <ele>1201.074</ele>
        <time>2021-02-28T09:02:09Z</time>
      </trkpt>
      <trkpt lat="42.85917" lon="1.84081">
        <ele>1201.86</ele>
        <time>2021-02-28T09:02:11Z</time>
      </trkpt>
      <trkpt lat="42.85916" lon="1.84079">
        <ele>1202.602</ele>
        <time>2021-02-28T09:02:13Z</time>
      </trkpt>
      <trkpt lat="42.85915" lon="1.84077">
        <ele>1202.52</ele>
        <time>2021-02-28T09:02:15Z</time>
      </trkpt>
      <trkpt lat="42.85913" lon="1.84075">
        <ele>1203.101</ele>
        <time>2021-02-28T09:02:17Z</time>
      </trkpt>
      <trkpt lat="42.8591" lon="1.84075">
        <ele>1203.72</ele>
        <time>2021-02-28T09:02:19Z</time>
      </trkpt>
      <trkpt lat="42.85908" lon="1.84073">
        <ele>1202.639</ele>
        <time>2021-02-28T09:02:21Z</time>
      </trkpt>
      <trkpt lat="42.85907" lon="1.84072">
        <ele>1202.773</ele>
        <time>2021-02-28T09:02:23Z</time>
      </trkpt>
      <trkpt lat="42.85905" lon="1.8407">
        <ele>1203.073</ele>
        <time>2021-02-28T09:02:25Z</time>
      </trkpt>
      <trkpt lat="42.85904" lon="1.84068">
        <ele>1202.554</ele>
        <time>2021-02-28T09:02:27Z</time>
      </trkpt>
      <trkpt lat="42.85902" lon="1.84066">
        <ele>1201.563</ele>
        <time>2021-02-28T09:02:29Z</time>
      </trkpt>
      <trkpt lat="42.85899" lon="1.84066">
        <ele>1202.482</ele>
        <time>2021-02-28T09:02:31Z</time>
      </trkpt>
      <trkpt lat="42.85897" lon="1.84066">
        <ele>1202.696</ele>
        <time>2021-02-28T09:02:33Z</time>
      </trkpt>
      <trkpt lat="42.85895" lon="1.84067">
        <ele>1202.402</ele>
        <time>2021-02-28T09:02:35Z</time>
      </trkpt>
      <trkpt lat="42.85892" lon="1.84067">
        <ele>1203.253</ele>
        <time>2021-02-28T09:02:37Z</time>
      </trkpt>
      <trkpt lat="42.8589" lon="1.84067">
        <ele>1203.071</ele>
        <time>2021-02-28T09:02:39Z</time>
      </trkpt>
      <trkpt lat="42.85888" lon="1.84067">
        <ele>1204.071</ele>
        <time>2021-02-28T09:02:41Z</time>
      </trkpt>
      <trkpt lat="42.85886" lon="1.84066">
        <ele>1204.493</ele>
        <time>2021-02-28T09:02:43Z</time>
      </trkpt>
      <trkpt lat="42.85884" lon="1.84065">
        <ele>1203.005</ele>
        <time>2021-02-28T09:02:46Z</time>
      </trkpt>
      <trkpt lat="42.85883" lon="1.84064">
        <ele>1201.755</ele>
        <time>2021-02-28T09:02:48Z</time>
      </trkpt>
      <trkpt lat="42.85881" lon="1.84064">
        <ele>1201.289</ele>
        <time>2021-02-28T09:02:50Z</time>
      </trkpt>
      <trkpt lat="42.85878" lon="1.84063">
        <ele>1202.476</ele>
        <time>2021-02-28T09:02:52Z</time>
      </trkpt>
      <trkpt lat="42.85876" lon="1.84063">
        <ele>1203.516</ele>
        <time>2021-02-28T09:02:54Z</time>
      </trkpt>
      <trkpt lat="42.85874" lon="1.84063">
        <ele>1202.575</ele>
        <time>2021-02-28T09:02:56Z</time>
      </trkpt>
      <trkpt lat="42.85872" lon="1.84063">
        <ele>1201.626</ele>
        <time>2021-02-28T09:02:59Z</time>
      </trkpt>
      <trkpt lat="42.8587" lon="1.84062">
        <ele>1200.571</ele>
        <time>2021-02-28T09:03:01Z</time>
      </trkpt>
      <trkpt lat="42.85868" lon="1.84063">
        <ele>1199.761</ele>
        <time>2021-02-28T09:03:03Z</time>
      </trkpt>
      <trkpt lat="42.85866" lon="1.84062">
        <ele>1198.083</ele>
        <time>2021-02-28T09:03:05Z</time>
      </trkpt>
      <trkpt lat="42.85863" lon="1.84062">
        <ele>1199.195</ele>
        <time>2021-02-28T09:03:07Z</time>
      </trkpt>
      <trkpt lat="42.85861" lon="1.84063">
        <ele>1199.762</ele>
        <time>2021-02-28T09:03:09Z</time>
      </trkpt>
      <trkpt lat="42.85858" lon="1.84063">
        <ele>1200.09</ele>
        <time>2021-02-28T09:03:11Z</time>
      </trkpt>
      <trkpt lat="42.85857" lon="1.84063">
        <ele>1199.022</ele>
        <time>2021-02-28T09:03:13Z</time>
      </trkpt>
      <trkpt lat="42.85855" lon="1.84063">
        <ele>1198.514</ele>
        <time>2021-02-28T09:03:15Z</time>
      </trkpt>
      <trkpt lat="42.85853" lon="1.84063">
        <ele>1197.781</ele>
        <time>2021-02-28T09:03:17Z</time>
      </trkpt>
      <trkpt lat="42.85851" lon="1.84063">
        <ele>1196.777</ele>
        <time>2021-02-28T09:03:19Z</time>
      </trkpt>
      <trkpt lat="42.85849" lon="1.84064">
        <ele>1196.442</ele>
        <time>2021-02-28T09:03:21Z</time>
      </trkpt>
      <trkpt lat="42.85848" lon="1.84064">
        <ele>1196.39</ele>
        <time>2021-02-28T09:03:23Z</time>
      </trkpt>
      <trkpt lat="42.85845" lon="1.84064">
        <ele>1196.031</ele>
        <time>2021-02-28T09:03:25Z</time>
      </trkpt>
      <trkpt lat="42.85843" lon="1.84065">
        <ele>1195.025</ele>
        <time>2021-02-28T09:03:27Z</time>
      </trkpt>
      <trkpt lat="42.85841" lon="1.84066">
        <ele>1195.012</ele>
        <time>2021-02-28T09:03:29Z</time>
      </trkpt>
      <trkpt lat="42.85839" lon="1.84067">
        <ele>1194.21</ele>
        <time>2021-02-28T09:03:31Z</time>
      </trkpt>
      <trkpt lat="42.85837" lon="1.84068">
        <ele>1194.561</ele>
        <time>2021-02-28T09:03:33Z</time>
      </trkpt>
      <trkpt lat="42.85835" lon="1.84069">
        <ele>1194.557</ele>
        <time>2021-02-28T09:03:35Z</time>
      </trkpt>
      <trkpt lat="42.85833" lon="1.84071">
        <ele>1194.202</ele>
        <time>2021-02-28T09:03:37Z</time>
      </trkpt>
      <trkpt lat="42.85831" lon="1.84072">
        <ele>1194.531</ele>
        <time>2021-02-28T09:03:39Z</time>
      </trkpt>
      <trkpt lat="42.85828" lon="1.84073">
        <ele>1194.68</ele>
        <time>2021-02-28T09:03:41Z</time>
      </trkpt>
      <trkpt lat="42.85826" lon="1.84075">
        <ele>1194.452</ele>
        <time>2021-02-28T09:03:43Z</time>
      </trkpt>
      <trkpt lat="42.85824" lon="1.84076">
        <ele>1195.233</ele>
        <time>2021-02-28T09:03:45Z</time>
      </trkpt>
      <trkpt lat="42.85821" lon="1.84078">
        <ele>1195.907</ele>
        <time>2021-02-28T09:03:48Z</time>
      </trkpt>
      <trkpt lat="42.85819" lon="1.84079">
        <ele>1195.777</ele>
        <time>2021-02-28T09:03:50Z</time>
      </trkpt>
      <trkpt lat="42.85817" lon="1.84079">
        <ele>1196.692</ele>
        <time>2021-02-28T09:03:52Z</time>
      </trkpt>
      <trkpt lat="42.85815" lon="1.84081">
        <ele>1196.843</ele>
        <time>2021-02-28T09:03:54Z</time>
      </trkpt>
      <trkpt lat="42.85812" lon="1.84083">
        <ele>1196.586</ele>
        <time>2021-02-28T09:03:56Z</time>
      </trkpt>
      <trkpt lat="42.85809" lon="1.84083">
        <ele>1197.882</ele>
        <time>2021-02-28T09:03:58Z</time>
      </trkpt>
      <trkpt lat="42.85806" lon="1.84084">
        <ele>1197.812</ele>
        <time>2021-02-28T09:04:00Z</time>
      </trkpt>
      <trkpt lat="42.85804" lon="1.84086">
        <ele>1198.424</ele>
        <time>2021-02-28T09:04:02Z</time>
      </trkpt>
      <trkpt lat="42.85802" lon="1.84087">
        <ele>1199.021</ele>
        <time>2021-02-28T09:04:04Z</time>
      </trkpt>
      <trkpt lat="42.85799" lon="1.84089">
        <ele>1201.101</ele>
        <time>2021-02-28T09:04:06Z</time>
      </trkpt>
      <trkpt lat="42.85797" lon="1.84091">
        <ele>1201.956</ele>
        <time>2021-02-28T09:04:08Z</time>
      </trkpt>
      <trkpt lat="42.85795" lon="1.84091">
        <ele>1201.952</ele>
        <time>2021-02-28T09:04:10Z</time>
      </trkpt>
      <trkpt lat="42.85793" lon="1.84092">
        <ele>1201.776</ele>
        <time>2021-02-28T09:04:12Z</time>
      </trkpt>
      <trkpt lat="42.8579" lon="1.84092">
        <ele>1202.086</ele>
        <time>2021-02-28T09:04:14Z</time>
      </trkpt>
      <trkpt lat="42.85788" lon="1.84094">
        <ele>1202.899</ele>
        <time>2021-02-28T09:04:16Z</time>
      </trkpt>
      <trkpt lat="42.85785" lon="1.84095">
        <ele>1203.863</ele>
        <time>2021-02-28T09:04:18Z</time>
      </trkpt>
      <trkpt lat="42.85783" lon="1.84096">
        <ele>1204.15</ele>
        <time>2021-02-28T09:04:20Z</time>
      </trkpt>
      <trkpt lat="42.85781" lon="1.84097">
        <ele>1204</ele>
        <time>2021-02-28T09:04:22Z</time>
      </trkpt>
      <trkpt lat="42.85779" lon="1.84099">
        <ele>1204.874</ele>
        <time>2021-02-28T09:04:24Z</time>
      </trkpt>
      <trkpt lat="42.85776" lon="1.84101">
        <ele>1205.607</ele>
        <time>2021-02-28T09:04:26Z</time>
      </trkpt>
      <trkpt lat="42.85774" lon="1.84103">
        <ele>1206.254</ele>
        <time>2021-02-28T09:04:28Z</time>
      </trkpt>
      <trkpt lat="42.85772" lon="1.84104">
        <ele>1207.194</ele>
        <time>2021-02-28T09:04:30Z</time>
      </trkpt>
      <trkpt lat="42.8577" lon="1.84105">
        <ele>1206.568</ele>
        <time>2021-02-28T09:04:32Z</time>
      </trkpt>
      <trkpt lat="42.85768" lon="1.84106">
        <ele>1207.664</ele>
        <time>2021-02-28T09:04:34Z</time>
      </trkpt>
      <trkpt lat="42.85766" lon="1.84106">
        <ele>1206.296</ele>
        <time>2021-02-28T09:04:36Z</time>
      </trkpt>
      <trkpt lat="42.85765" lon="1.84106">
        <ele>1206.105</ele>
        <time>2021-02-28T09:04:38Z</time>
      </trkpt>
      <trkpt lat="42.85763" lon="1.84107">
        <ele>1205.374</ele>
        <time>2021-02-28T09:04:40Z</time>
      </trkpt>
      <trkpt lat="42.85761" lon="1.84109">
        <ele>1205.002</ele>
        <time>2021-02-28T09:04:42Z</time>
      </trkpt>
      <trkpt lat="42.85759" lon="1.84111">
        <ele>1206.327</ele>
        <time>2021-02-28T09:04:44Z</time>
      </trkpt>
      <trkpt lat="42.85758" lon="1.84112">
        <ele>1206.484</ele>
        <time>2021-02-28T09:04:46Z</time>
      </trkpt>
      <trkpt lat="42.85756" lon="1.84113">
        <ele>1206.478</ele>
        <time>2021-02-28T09:04:48Z</time>
      </trkpt>
      <trkpt lat="42.85754" lon="1.84113">
        <ele>1205.288</ele>
        <time>2021-02-28T09:04:50Z</time>
      </trkpt>
      <trkpt lat="42.85752" lon="1.84115">
        <ele>1205.531</ele>
        <time>2021-02-28T09:04:52Z</time>
      </trkpt>
      <trkpt lat="42.8575" lon="1.84116">
        <ele>1206.306</ele>
        <time>2021-02-28T09:04:54Z</time>
      </trkpt>
      <trkpt lat="42.85748" lon="1.84118">
        <ele>1206.692</ele>
        <time>2021-02-28T09:04:56Z</time>
      </trkpt>
      <trkpt lat="42.85746" lon="1.8412">
        <ele>1207.343</ele>
        <time>2021-02-28T09:04:58Z</time>
      </trkpt>
      <trkpt lat="42.85744" lon="1.84122">
        <ele>1207.094</ele>
        <time>2021-02-28T09:05:00Z</time>
      </trkpt>
      <trkpt lat="42.85741" lon="1.84124">
        <ele>1207.169</ele>
        <time>2021-02-28T09:05:02Z</time>
      </trkpt>
      <trkpt lat="42.8574" lon="1.84125">
        <ele>1206.919</ele>
        <time>2021-02-28T09:05:04Z</time>
      </trkpt>
      <trkpt lat="42.85738" lon="1.84127">
        <ele>1207.211</ele>
        <time>2021-02-28T09:05:06Z</time>
      </trkpt>
      <trkpt lat="42.85736" lon="1.84129">
        <ele>1207.868</ele>
        <time>2021-02-28T09:05:08Z</time>
      </trkpt>
      <trkpt lat="42.85734" lon="1.84131">
        <ele>1210.013</ele>
        <time>2021-02-28T09:05:10Z</time>
      </trkpt>
      <trkpt lat="42.85732" lon="1.84133">
        <ele>1209.986</ele>
        <time>2021-02-28T09:05:12Z</time>
      </trkpt>
      <trkpt lat="42.8573" lon="1.84134">
        <ele>1209.605</ele>
        <time>2021-02-28T09:05:14Z</time>
      </trkpt>
      <trkpt lat="42.85728" lon="1.84136">
        <ele>1210.857</ele>
        <time>2021-02-28T09:05:16Z</time>
      </trkpt>
      <trkpt lat="42.85726" lon="1.84139">
        <ele>1212.663</ele>
        <time>2021-02-28T09:05:18Z</time>
      </trkpt>
      <trkpt lat="42.85723" lon="1.84141">
        <ele>1213.92</ele>
        <time>2021-02-28T09:05:20Z</time>
      </trkpt>
      <trkpt lat="42.85721" lon="1.84143">
        <ele>1214.639</ele>
        <time>2021-02-28T09:05:22Z</time>
      </trkpt>
      <trkpt lat="42.85719" lon="1.84145">
        <ele>1215.046</ele>
        <time>2021-02-28T09:05:24Z</time>
      </trkpt>
      <trkpt lat="42.85717" lon="1.84147">
        <ele>1215.255</ele>
        <time>2021-02-28T09:05:26Z</time>
      </trkpt>
      <trkpt lat="42.85715" lon="1.84149">
        <ele>1215.839</ele>
        <time>2021-02-28T09:05:28Z</time>
      </trkpt>
      <trkpt lat="42.85713" lon="1.84151">
        <ele>1217.305</ele>
        <time>2021-02-28T09:05:30Z</time>
      </trkpt>
      <trkpt lat="42.85711" lon="1.84153">
        <ele>1217.689</ele>
        <time>2021-02-28T09:05:32Z</time>
      </trkpt>
      <trkpt lat="42.85709" lon="1.84155">
        <ele>1218.69</ele>
        <time>2021-02-28T09:05:34Z</time>
      </trkpt>
      <trkpt lat="42.85707" lon="1.84157">
        <ele>1219.395</ele>
        <time>2021-02-28T09:05:36Z</time>
      </trkpt>
      <trkpt lat="42.85705" lon="1.84159">
        <ele>1219.659</ele>
        <time>2021-02-28T09:05:38Z</time>
      </trkpt>
      <trkpt lat="42.85703" lon="1.84161">
        <ele>1219.985</ele>
        <time>2021-02-28T09:05:40Z</time>
      </trkpt>
      <trkpt lat="42.85701" lon="1.84163">
        <ele>1220.294</ele>
        <time>2021-02-28T09:05:42Z</time>
      </trkpt>
      <trkpt lat="42.85699" lon="1.84165">
        <ele>1221.503</ele>
        <time>2021-02-28T09:05:44Z</time>
      </trkpt>
      <trkpt lat="42.85697" lon="1.84167">
        <ele>1221.607</ele>
        <time>2021-02-28T09:05:46Z</time>
      </trkpt>
      <trkpt lat="42.85694" lon="1.84168">
        <ele>1222.084</ele>
        <time>2021-02-28T09:05:48Z</time>
      </trkpt>
      <trkpt lat="42.85693" lon="1.8417">
        <ele>1223.218</ele>
        <time>2021-02-28T09:05:50Z</time>
      </trkpt>
      <trkpt lat="42.85693" lon="1.84171">
        <ele>1223.475</ele>
        <time>2021-02-28T09:05:52Z</time>
      </trkpt>
      <trkpt lat="42.85693" lon="1.84171">
        <ele>1223.491</ele>
        <time>2021-02-28T09:05:54Z</time>
      </trkpt>
      <trkpt lat="42.85693" lon="1.84171">
        <ele>1224.089</ele>
        <time>2021-02-28T09:05:56Z</time>
      </trkpt>
      <trkpt lat="42.85693" lon="1.8417">
        <ele>1224.586</ele>
        <time>2021-02-28T09:05:58Z</time>
      </trkpt>
      <trkpt lat="42.85692" lon="1.8417">
        <ele>1224.429</ele>
        <time>2021-02-28T09:06:00Z</time>
      </trkpt>
      <trkpt lat="42.85692" lon="1.8417">
        <ele>1224.446</ele>
        <time>2021-02-28T09:06:02Z</time>
      </trkpt>
      <trkpt lat="42.85692" lon="1.8417">
        <ele>1224.46</ele>
        <time>2021-02-28T09:06:04Z</time>
      </trkpt>
      <trkpt lat="42.85692" lon="1.84171">
        <ele>1225.006</ele>
        <time>2021-02-28T09:06:06Z</time>
      </trkpt>
      <trkpt lat="42.8569" lon="1.84172">
        <ele>1225.915</ele>
        <time>2021-02-28T09:06:08Z</time>
      </trkpt>
      <trkpt lat="42.8569" lon="1.84178">
        <ele>1228.686</ele>
        <time>2021-02-28T09:06:10Z</time>
      </trkpt>
      <trkpt lat="42.85688" lon="1.8418">
        <ele>1228.256</ele>
        <time>2021-02-28T09:06:12Z</time>
      </trkpt>
      <trkpt lat="42.85687" lon="1.84181">
        <ele>1228.202</ele>
        <time>2021-02-28T09:06:14Z</time>
      </trkpt>
      <trkpt lat="42.85685" lon="1.84183">
        <ele>1229.252</ele>
        <time>2021-02-28T09:06:16Z</time>
      </trkpt>
      <trkpt lat="42.85683" lon="1.84184">
        <ele>1228.93</ele>
        <time>2021-02-28T09:06:18Z</time>
      </trkpt>
      <trkpt lat="42.85682" lon="1.84185">
        <ele>1228.74</ele>
        <time>2021-02-28T09:06:20Z</time>
      </trkpt>
      <trkpt lat="42.8568" lon="1.84185">
        <ele>1228.969</ele>
        <time>2021-02-28T09:06:22Z</time>
      </trkpt>
      <trkpt lat="42.85679" lon="1.84185">
        <ele>1227.762</ele>
        <time>2021-02-28T09:06:24Z</time>
      </trkpt>
      <trkpt lat="42.85677" lon="1.84186">
        <ele>1227.141</ele>
        <time>2021-02-28T09:06:26Z</time>
      </trkpt>
      <trkpt lat="42.85675" lon="1.84187">
        <ele>1226.244</ele>
        <time>2021-02-28T09:06:28Z</time>
      </trkpt>
      <trkpt lat="42.85673" lon="1.84188">
        <ele>1225.042</ele>
        <time>2021-02-28T09:06:30Z</time>
      </trkpt>
      <trkpt lat="42.85671" lon="1.84188">
        <ele>1224.188</ele>
        <time>2021-02-28T09:06:32Z</time>
      </trkpt>
      <trkpt lat="42.85669" lon="1.8419">
        <ele>1224.293</ele>
        <time>2021-02-28T09:06:34Z</time>
      </trkpt>
      <trkpt lat="42.85667" lon="1.84191">
        <ele>1224.92</ele>
        <time>2021-02-28T09:06:36Z</time>
      </trkpt>
      <trkpt lat="42.85666" lon="1.84193">
        <ele>1225.765</ele>
        <time>2021-02-28T09:06:38Z</time>
      </trkpt>
      <trkpt lat="42.85664" lon="1.84195">
        <ele>1224.904</ele>
        <time>2021-02-28T09:06:40Z</time>
      </trkpt>
      <trkpt lat="42.85662" lon="1.84196">
        <ele>1224.173</ele>
        <time>2021-02-28T09:06:42Z</time>
      </trkpt>
      <trkpt lat="42.8566" lon="1.84197">
        <ele>1224.423</ele>
        <time>2021-02-28T09:06:44Z</time>
      </trkpt>
      <trkpt lat="42.85658" lon="1.84197">
        <ele>1222.592</ele>
        <time>2021-02-28T09:06:46Z</time>
      </trkpt>
      <trkpt lat="42.85656" lon="1.84199">
        <ele>1223.246</ele>
        <time>2021-02-28T09:06:48Z</time>
      </trkpt>
      <trkpt lat="42.85654" lon="1.842">
        <ele>1224.123</ele>
        <time>2021-02-28T09:06:50Z</time>
      </trkpt>
      <trkpt lat="42.85652" lon="1.84201">
        <ele>1224.071</ele>
        <time>2021-02-28T09:06:52Z</time>
      </trkpt>
      <trkpt lat="42.8565" lon="1.84202">
        <ele>1223.446</ele>
        <time>2021-02-28T09:06:54Z</time>
      </trkpt>
      <trkpt lat="42.85648" lon="1.84204">
        <ele>1224.006</ele>
        <time>2021-02-28T09:06:56Z</time>
      </trkpt>
      <trkpt lat="42.85646" lon="1.84206">
        <ele>1225.334</ele>
        <time>2021-02-28T09:06:58Z</time>
      </trkpt>
      <trkpt lat="42.85644" lon="1.84208">
        <ele>1225.307</ele>
        <time>2021-02-28T09:07:00Z</time>
      </trkpt>
      <trkpt lat="42.85642" lon="1.8421">
        <ele>1224.768</ele>
        <time>2021-02-28T09:07:02Z</time>
      </trkpt>
      <trkpt lat="42.8564" lon="1.84211">
        <ele>1223.97</ele>
        <time>2021-02-28T09:07:04Z</time>
      </trkpt>
      <trkpt lat="42.85639" lon="1.84213">
        <ele>1224.411</ele>
        <time>2021-02-28T09:07:06Z</time>
      </trkpt>
      <trkpt lat="42.85637" lon="1.84214">
        <ele>1224.473</ele>
        <time>2021-02-28T09:07:08Z</time>
      </trkpt>
      <trkpt lat="42.85635" lon="1.84216">
        <ele>1224.157</ele>
        <time>2021-02-28T09:07:10Z</time>
      </trkpt>
      <trkpt lat="42.85633" lon="1.84218">
        <ele>1224.589</ele>
        <time>2021-02-28T09:07:12Z</time>
      </trkpt>
      <trkpt lat="42.85631" lon="1.84218">
        <ele>1223.713</ele>
        <time>2021-02-28T09:07:14Z</time>
      </trkpt>
      <trkpt lat="42.85629" lon="1.84219">
        <ele>1223.086</ele>
        <time>2021-02-28T09:07:16Z</time>
      </trkpt>
      <trkpt lat="42.85627" lon="1.8422">
        <ele>1223.439</ele>
        <time>2021-02-28T09:07:18Z</time>
      </trkpt>
      <trkpt lat="42.85625" lon="1.84222">
        <ele>1224.122</ele>
        <time>2021-02-28T09:07:20Z</time>
      </trkpt>
      <trkpt lat="42.85623" lon="1.84223">
        <ele>1223.997</ele>
        <time>2021-02-28T09:07:22Z</time>
      </trkpt>
      <trkpt lat="42.85621" lon="1.84224">
        <ele>1224.428</ele>
        <time>2021-02-28T09:07:24Z</time>
      </trkpt>
      <trkpt lat="42.85618" lon="1.84228">
        <ele>1226.157</ele>
        <time>2021-02-28T09:07:27Z</time>
      </trkpt>
      <trkpt lat="42.85616" lon="1.84229">
        <ele>1225.348</ele>
        <time>2021-02-28T09:07:29Z</time>
      </trkpt>
      <trkpt lat="42.85615" lon="1.84231">
        <ele>1225.761</ele>
        <time>2021-02-28T09:07:31Z</time>
      </trkpt>
      <trkpt lat="42.85613" lon="1.84233">
        <ele>1226.525</ele>
        <time>2021-02-28T09:07:33Z</time>
      </trkpt>
      <trkpt lat="42.85611" lon="1.84233">
        <ele>1225.902</ele>
        <time>2021-02-28T09:07:35Z</time>
      </trkpt>
      <trkpt lat="42.85609" lon="1.84234">
        <ele>1225.456</ele>
        <time>2021-02-28T09:07:37Z</time>
      </trkpt>
      <trkpt lat="42.85607" lon="1.84236">
        <ele>1224.957</ele>
        <time>2021-02-28T09:07:39Z</time>
      </trkpt>
      <trkpt lat="42.85606" lon="1.84238">
        <ele>1225.512</ele>
        <time>2021-02-28T09:07:41Z</time>
      </trkpt>
      <trkpt lat="42.85604" lon="1.84239">
        <ele>1224.631</ele>
        <time>2021-02-28T09:07:43Z</time>
      </trkpt>
      <trkpt lat="42.85602" lon="1.84241">
        <ele>1225.317</ele>
        <time>2021-02-28T09:07:45Z</time>
      </trkpt>
      <trkpt lat="42.856" lon="1.84243">
        <ele>1226.038</ele>
        <time>2021-02-28T09:07:47Z</time>
      </trkpt>
      <trkpt lat="42.85598" lon="1.84245">
        <ele>1226.768</ele>
        <time>2021-02-28T09:07:49Z</time>
      </trkpt>
      <trkpt lat="42.85596" lon="1.84246">
        <ele>1226.425</ele>
        <time>2021-02-28T09:07:51Z</time>
      </trkpt>
      <trkpt lat="42.85594" lon="1.84248">
        <ele>1227.357</ele>
        <time>2021-02-28T09:07:53Z</time>
      </trkpt>
      <trkpt lat="42.85592" lon="1.84249">
        <ele>1227.223</ele>
        <time>2021-02-28T09:07:55Z</time>
      </trkpt>
      <trkpt lat="42.8559" lon="1.84251">
        <ele>1228.289</ele>
        <time>2021-02-28T09:07:57Z</time>
      </trkpt>
      <trkpt lat="42.85588" lon="1.84253">
        <ele>1228.592</ele>
        <time>2021-02-28T09:07:59Z</time>
      </trkpt>
      <trkpt lat="42.85586" lon="1.84255">
        <ele>1228.855</ele>
        <time>2021-02-28T09:08:01Z</time>
      </trkpt>
      <trkpt lat="42.85584" lon="1.84258">
        <ele>1229.041</ele>
        <time>2021-02-28T09:08:03Z</time>
      </trkpt>
      <trkpt lat="42.85582" lon="1.84259">
        <ele>1230.012</ele>
        <time>2021-02-28T09:08:05Z</time>
      </trkpt>
      <trkpt lat="42.8558" lon="1.8426">
        <ele>1228.446</ele>
        <time>2021-02-28T09:08:07Z</time>
      </trkpt>
      <trkpt lat="42.85578" lon="1.84262">
        <ele>1227.901</ele>
        <time>2021-02-28T09:08:09Z</time>
      </trkpt>
      <trkpt lat="42.85576" lon="1.84263">
        <ele>1227.414</ele>
        <time>2021-02-28T09:08:11Z</time>
      </trkpt>
      <trkpt lat="42.85574" lon="1.84264">
        <ele>1228.504</ele>
        <time>2021-02-28T09:08:13Z</time>
      </trkpt>
      <trkpt lat="42.85573" lon="1.84266">
        <ele>1228.837</ele>
        <time>2021-02-28T09:08:15Z</time>
      </trkpt>
      <trkpt lat="42.85571" lon="1.84267">
        <ele>1228.871</ele>
        <time>2021-02-28T09:08:17Z</time>
      </trkpt>
      <trkpt lat="42.85569" lon="1.84267">
        <ele>1228.663</ele>
        <time>2021-02-28T09:08:19Z</time>
      </trkpt>
      <trkpt lat="42.85567" lon="1.84269">
        <ele>1228.706</ele>
        <time>2021-02-28T09:08:21Z</time>
      </trkpt>
      <trkpt lat="42.85566" lon="1.84271">
        <ele>1229.361</ele>
        <time>2021-02-28T09:08:23Z</time>
      </trkpt>
      <trkpt lat="42.85564" lon="1.84273">
        <ele>1229.916</ele>
        <time>2021-02-28T09:08:25Z</time>
      </trkpt>
      <trkpt lat="42.85563" lon="1.84274">
        <ele>1230.097</ele>
        <time>2021-02-28T09:08:27Z</time>
      </trkpt>
      <trkpt lat="42.85561" lon="1.84275">
        <ele>1229.799</ele>
        <time>2021-02-28T09:08:29Z</time>
      </trkpt>
      <trkpt lat="42.85559" lon="1.84276">
        <ele>1229.897</ele>
        <time>2021-02-28T09:08:31Z</time>
      </trkpt>
      <trkpt lat="42.85557" lon="1.84277">
        <ele>1229.211</ele>
        <time>2021-02-28T09:08:33Z</time>
      </trkpt>
      <trkpt lat="42.85555" lon="1.84279">
        <ele>1229.184</ele>
        <time>2021-02-28T09:08:35Z</time>
      </trkpt>
      <trkpt lat="42.85554" lon="1.84281">
        <ele>1229.498</ele>
        <time>2021-02-28T09:08:37Z</time>
      </trkpt>
      <trkpt lat="42.85552" lon="1.84283">
        <ele>1229.634</ele>
        <time>2021-02-28T09:08:39Z</time>
      </trkpt>
      <trkpt lat="42.8555" lon="1.84284">
        <ele>1230.054</ele>
        <time>2021-02-28T09:08:41Z</time>
      </trkpt>
      <trkpt lat="42.85548" lon="1.84286">
        <ele>1230.257</ele>
        <time>2021-02-28T09:08:43Z</time>
      </trkpt>
      <trkpt lat="42.85547" lon="1.84287">
        <ele>1230.13</ele>
        <time>2021-02-28T09:08:45Z</time>
      </trkpt>
      <trkpt lat="42.85545" lon="1.84288">
        <ele>1231.127</ele>
        <time>2021-02-28T09:08:47Z</time>
      </trkpt>
      <trkpt lat="42.85544" lon="1.84291">
        <ele>1230.941</ele>
        <time>2021-02-28T09:08:49Z</time>
      </trkpt>
      <trkpt lat="42.85542" lon="1.84293">
        <ele>1230.593</ele>
        <time>2021-02-28T09:08:51Z</time>
      </trkpt>
      <trkpt lat="42.8554" lon="1.84295">
        <ele>1231.54</ele>
        <time>2021-02-28T09:08:53Z</time>
      </trkpt>
      <trkpt lat="42.85538" lon="1.84296">
        <ele>1231.066</ele>
        <time>2021-02-28T09:08:55Z</time>
      </trkpt>
      <trkpt lat="42.85536" lon="1.84297">
        <ele>1230.601</ele>
        <time>2021-02-28T09:08:57Z</time>
      </trkpt>
      <trkpt lat="42.85534" lon="1.84298">
        <ele>1231.022</ele>
        <time>2021-02-28T09:08:59Z</time>
      </trkpt>
      <trkpt lat="42.85532" lon="1.843">
        <ele>1232.187</ele>
        <time>2021-02-28T09:09:01Z</time>
      </trkpt>
      <trkpt lat="42.8553" lon="1.84302">
        <ele>1232.784</ele>
        <time>2021-02-28T09:09:03Z</time>
      </trkpt>
      <trkpt lat="42.85528" lon="1.84303">
        <ele>1231.493</ele>
        <time>2021-02-28T09:09:05Z</time>
      </trkpt>
      <trkpt lat="42.85526" lon="1.84304">
        <ele>1231.644</ele>
        <time>2021-02-28T09:09:07Z</time>
      </trkpt>
      <trkpt lat="42.85524" lon="1.84306">
        <ele>1232.004</ele>
        <time>2021-02-28T09:09:09Z</time>
      </trkpt>
      <trkpt lat="42.85523" lon="1.84307">
        <ele>1231.785</ele>
        <time>2021-02-28T09:09:11Z</time>
      </trkpt>
      <trkpt lat="42.85521" lon="1.84309">
        <ele>1231.972</ele>
        <time>2021-02-28T09:09:13Z</time>
      </trkpt>
      <trkpt lat="42.85519" lon="1.8431">
        <ele>1231.212</ele>
        <time>2021-02-28T09:09:15Z</time>
      </trkpt>
      <trkpt lat="42.85518" lon="1.84313">
        <ele>1232.162</ele>
        <time>2021-02-28T09:09:17Z</time>
      </trkpt>
      <trkpt lat="42.85516" lon="1.84314">
        <ele>1232.519</ele>
        <time>2021-02-28T09:09:19Z</time>
      </trkpt>
      <trkpt lat="42.85514" lon="1.84316">
        <ele>1233.576</ele>
        <time>2021-02-28T09:09:21Z</time>
      </trkpt>
      <trkpt lat="42.85512" lon="1.84319">
        <ele>1233.907</ele>
        <time>2021-02-28T09:09:23Z</time>
      </trkpt>
      <trkpt lat="42.85511" lon="1.84321">
        <ele>1234.237</ele>
        <time>2021-02-28T09:09:25Z</time>
      </trkpt>
      <trkpt lat="42.85509" lon="1.84323">
        <ele>1234.468</ele>
        <time>2021-02-28T09:09:27Z</time>
      </trkpt>
      <trkpt lat="42.85507" lon="1.84325">
        <ele>1235.701</ele>
        <time>2021-02-28T09:09:29Z</time>
      </trkpt>
      <trkpt lat="42.85505" lon="1.84329">
        <ele>1236.208</ele>
        <time>2021-02-28T09:09:31Z</time>
      </trkpt>
      <trkpt lat="42.85503" lon="1.84331">
        <ele>1236.396</ele>
        <time>2021-02-28T09:09:33Z</time>
      </trkpt>
      <trkpt lat="42.85502" lon="1.84332">
        <ele>1236.906</ele>
        <time>2021-02-28T09:09:35Z</time>
      </trkpt>
      <trkpt lat="42.855" lon="1.84334">
        <ele>1237.4</ele>
        <time>2021-02-28T09:09:37Z</time>
      </trkpt>
      <trkpt lat="42.85498" lon="1.84336">
        <ele>1237.588</ele>
        <time>2021-02-28T09:09:39Z</time>
      </trkpt>
      <trkpt lat="42.85496" lon="1.84338">
        <ele>1238.723</ele>
        <time>2021-02-28T09:09:41Z</time>
      </trkpt>
      <trkpt lat="42.85494" lon="1.8434">
        <ele>1239.157</ele>
        <time>2021-02-28T09:09:43Z</time>
      </trkpt>
      <trkpt lat="42.85492" lon="1.84342">
        <ele>1238.387</ele>
        <time>2021-02-28T09:09:45Z</time>
      </trkpt>
      <trkpt lat="42.8549" lon="1.84345">
        <ele>1238.804</ele>
        <time>2021-02-28T09:09:47Z</time>
      </trkpt>
      <trkpt lat="42.85489" lon="1.84348">
        <ele>1239.489</ele>
        <time>2021-02-28T09:09:49Z</time>
      </trkpt>
      <trkpt lat="42.85487" lon="1.84351">
        <ele>1240.072</ele>
        <time>2021-02-28T09:09:51Z</time>
      </trkpt>
      <trkpt lat="42.85485" lon="1.84354">
        <ele>1241.467</ele>
        <time>2021-02-28T09:09:53Z</time>
      </trkpt>
      <trkpt lat="42.85483" lon="1.84356">
        <ele>1241.007</ele>
        <time>2021-02-28T09:09:55Z</time>
      </trkpt>
      <trkpt lat="42.85481" lon="1.84359">
        <ele>1241.392</ele>
        <time>2021-02-28T09:09:57Z</time>
      </trkpt>
      <trkpt lat="42.85479" lon="1.84362">
        <ele>1242.079</ele>
        <time>2021-02-28T09:09:59Z</time>
      </trkpt>
      <trkpt lat="42.85478" lon="1.84366">
        <ele>1243.497</ele>
        <time>2021-02-28T09:10:01Z</time>
      </trkpt>
      <trkpt lat="42.85476" lon="1.84368">
        <ele>1243.387</ele>
        <time>2021-02-28T09:10:03Z</time>
      </trkpt>
      <trkpt lat="42.85474" lon="1.8437">
        <ele>1245.007</ele>
        <time>2021-02-28T09:10:05Z</time>
      </trkpt>
      <trkpt lat="42.85472" lon="1.84373">
        <ele>1245.612</ele>
        <time>2021-02-28T09:10:07Z</time>
      </trkpt>
      <trkpt lat="42.8547" lon="1.84375">
        <ele>1245.724</ele>
        <time>2021-02-28T09:10:09Z</time>
      </trkpt>
      <trkpt lat="42.85469" lon="1.84378">
        <ele>1247.275</ele>
        <time>2021-02-28T09:10:11Z</time>
      </trkpt>
      <trkpt lat="42.85467" lon="1.84381">
        <ele>1247.911</ele>
        <time>2021-02-28T09:10:13Z</time>
      </trkpt>
      <trkpt lat="42.85465" lon="1.84383">
        <ele>1248.521</ele>
        <time>2021-02-28T09:10:15Z</time>
      </trkpt>
      <trkpt lat="42.85462" lon="1.84385">
        <ele>1249.358</ele>
        <time>2021-02-28T09:10:17Z</time>
      </trkpt>
      <trkpt lat="42.8546" lon="1.84388">
        <ele>1250.395</ele>
        <time>2021-02-28T09:10:19Z</time>
      </trkpt>
      <trkpt lat="42.85459" lon="1.84391">
        <ele>1250.859</ele>
        <time>2021-02-28T09:10:21Z</time>
      </trkpt>
      <trkpt lat="42.85457" lon="1.84394">
        <ele>1252.019</ele>
        <time>2021-02-28T09:10:23Z</time>
      </trkpt>
      <trkpt lat="42.85454" lon="1.84396">
        <ele>1252.262</ele>
        <time>2021-02-28T09:10:25Z</time>
      </trkpt>
      <trkpt lat="42.85452" lon="1.84397">
        <ele>1253.11</ele>
        <time>2021-02-28T09:10:27Z</time>
      </trkpt>
      <trkpt lat="42.8545" lon="1.84398">
        <ele>1253.519</ele>
        <time>2021-02-28T09:10:29Z</time>
      </trkpt>
      <trkpt lat="42.85449" lon="1.84399">
        <ele>1253.918</ele>
        <time>2021-02-28T09:10:31Z</time>
      </trkpt>
      <trkpt lat="42.85448" lon="1.844">
        <ele>1254.981</ele>
        <time>2021-02-28T09:10:33Z</time>
      </trkpt>
      <trkpt lat="42.85447" lon="1.844">
        <ele>1255.785</ele>
        <time>2021-02-28T09:10:35Z</time>
      </trkpt>
      <trkpt lat="42.85446" lon="1.844">
        <ele>1256.73</ele>
        <time>2021-02-28T09:10:37Z</time>
      </trkpt>
      <trkpt lat="42.85444" lon="1.84399">
        <ele>1256.55</ele>
        <time>2021-02-28T09:10:39Z</time>
      </trkpt>
      <trkpt lat="42.85443" lon="1.84398">
        <ele>1257.427</ele>
        <time>2021-02-28T09:10:41Z</time>
      </trkpt>
      <trkpt lat="42.85445" lon="1.844">
        <ele>1258.379</ele>
        <time>2021-02-28T09:10:43Z</time>
      </trkpt>
      <trkpt lat="42.85444" lon="1.844">
        <ele>1257.995</ele>
        <time>2021-02-28T09:10:45Z</time>
      </trkpt>
      <trkpt lat="42.85442" lon="1.84404">
        <ele>1258.246</ele>
        <time>2021-02-28T09:10:47Z</time>
      </trkpt>
      <trkpt lat="42.85442" lon="1.84406">
        <ele>1259.038</ele>
        <time>2021-02-28T09:10:49Z</time>
      </trkpt>
      <trkpt lat="42.85441" lon="1.84409">
        <ele>1259.934</ele>
        <time>2021-02-28T09:10:51Z</time>
      </trkpt>
      <trkpt lat="42.8544" lon="1.8441">
        <ele>1259.811</ele>
        <time>2021-02-28T09:10:53Z</time>
      </trkpt>
      <trkpt lat="42.85439" lon="1.84412">
        <ele>1261.009</ele>
        <time>2021-02-28T09:10:55Z</time>
      </trkpt>
      <trkpt lat="42.85438" lon="1.84413">
        <ele>1262.062</ele>
        <time>2021-02-28T09:10:57Z</time>
      </trkpt>
      <trkpt lat="42.85436" lon="1.84415">
        <ele>1261.992</ele>
        <time>2021-02-28T09:10:59Z</time>
      </trkpt>
      <trkpt lat="42.85434" lon="1.84415">
        <ele>1262.956</ele>
        <time>2021-02-28T09:11:01Z</time>
      </trkpt>
      <trkpt lat="42.85433" lon="1.84416">
        <ele>1263.15</ele>
        <time>2021-02-28T09:11:03Z</time>
      </trkpt>
      <trkpt lat="42.85433" lon="1.84416">
        <ele>1262.876</ele>
        <time>2021-02-28T09:11:05Z</time>
      </trkpt>
      <trkpt lat="42.85432" lon="1.84417">
        <ele>1262.57</ele>
        <time>2021-02-28T09:11:07Z</time>
      </trkpt>
      <trkpt lat="42.85431" lon="1.84417">
        <ele>1261.273</ele>
        <time>2021-02-28T09:11:09Z</time>
      </trkpt>
      <trkpt lat="42.85429" lon="1.84416">
        <ele>1261.226</ele>
        <time>2021-02-28T09:11:11Z</time>
      </trkpt>
      <trkpt lat="42.8543" lon="1.84416">
        <ele>1261.718</ele>
        <time>2021-02-28T09:11:13Z</time>
      </trkpt>
      <trkpt lat="42.8543" lon="1.84417">
        <ele>1261.418</ele>
        <time>2021-02-28T09:11:15Z</time>
      </trkpt>
      <trkpt lat="42.85431" lon="1.84418">
        <ele>1261.807</ele>
        <time>2021-02-28T09:11:17Z</time>
      </trkpt>
      <trkpt lat="42.85433" lon="1.84418">
        <ele>1262.02</ele>
        <time>2021-02-28T09:11:19Z</time>
      </trkpt>
      <trkpt lat="42.85435" lon="1.84416">
        <ele>1262.089</ele>
        <time>2021-02-28T09:11:21Z</time>
      </trkpt>
      <trkpt lat="42.85437" lon="1.84415">
        <ele>1262.049</ele>
        <time>2021-02-28T09:11:23Z</time>
      </trkpt>
      <trkpt lat="42.85438" lon="1.84413">
        <ele>1262.564</ele>
        <time>2021-02-28T09:11:25Z</time>
      </trkpt>
      <trkpt lat="42.85439" lon="1.8441">
        <ele>1262.773</ele>
        <time>2021-02-28T09:11:27Z</time>
      </trkpt>
      <trkpt lat="42.8544" lon="1.84408">
        <ele>1262.691</ele>
        <time>2021-02-28T09:11:29Z</time>
      </trkpt>
      <trkpt lat="42.85442" lon="1.84406">
        <ele>1262.62</ele>
        <time>2021-02-28T09:11:31Z</time>
      </trkpt>
      <trkpt lat="42.85443" lon="1.84404">
        <ele>1262.424</ele>
        <time>2021-02-28T09:11:33Z</time>
      </trkpt>
      <trkpt lat="42.85444" lon="1.84402">
        <ele>1262.858</ele>
        <time>2021-02-28T09:11:35Z</time>
      </trkpt>
      <trkpt lat="42.85444" lon="1.84402">
        <ele>1263.365</ele>
        <time>2021-02-28T09:11:37Z</time>
      </trkpt>
      <trkpt lat="42.85444" lon="1.84402">
        <ele>1263.366</ele>
        <time>2021-02-28T09:11:39Z</time>
      </trkpt>
      <trkpt lat="42.85444" lon="1.84402">
        <ele>1263.369</ele>
        <time>2021-02-28T09:11:41Z</time>
      </trkpt>
      <trkpt lat="42.85445" lon="1.84402">
        <ele>1263.666</ele>
        <time>2021-02-28T09:11:43Z</time>
      </trkpt>
      <trkpt lat="42.85445" lon="1.84401">
        <ele>1263.309</ele>
        <time>2021-02-28T09:11:45Z</time>
      </trkpt>
      <trkpt lat="42.85445" lon="1.84401">
        <ele>1263.306</ele>
        <time>2021-02-28T09:11:47Z</time>
      </trkpt>
      <trkpt lat="42.85445" lon="1.84401">
        <ele>1263.292</ele>
        <time>2021-02-28T09:11:49Z</time>
      </trkpt>
      <trkpt lat="42.85445" lon="1.84401">
        <ele>1263.279</ele>
        <time>2021-02-28T09:11:51Z</time>
      </trkpt>
      <trkpt lat="42.85445" lon="1.84401">
        <ele>1263.189</ele>
        <time>2021-02-28T09:11:53Z</time>
      </trkpt>
      <trkpt lat="42.85445" lon="1.84401">
        <ele>1263.193</ele>
        <time>2021-02-28T09:11:55Z</time>
      </trkpt>
      <trkpt lat="42.85445" lon="1.84401">
        <ele>1263.774</ele>
        <time>2021-02-28T09:11:57Z</time>
      </trkpt>
      <trkpt lat="42.85446" lon="1.84399">
        <ele>1263.698</ele>
        <time>2021-02-28T09:11:59Z</time>
      </trkpt>
      <trkpt lat="42.85447" lon="1.84398">
        <ele>1263.883</ele>
        <time>2021-02-28T09:12:01Z</time>
      </trkpt>
      <trkpt lat="42.85449" lon="1.84396">
        <ele>1263.973</ele>
        <time>2021-02-28T09:12:03Z</time>
      </trkpt>
      <trkpt lat="42.85449" lon="1.84394">
        <ele>1263.432</ele>
        <time>2021-02-28T09:12:05Z</time>
      </trkpt>
      <trkpt lat="42.85451" lon="1.84392">
        <ele>1263.494</ele>
        <time>2021-02-28T09:12:07Z</time>
      </trkpt>
      <trkpt lat="42.85452" lon="1.84389">
        <ele>1263.151</ele>
        <time>2021-02-28T09:12:09Z</time>
      </trkpt>
      <trkpt lat="42.85453" lon="1.84387">
        <ele>1262.712</ele>
        <time>2021-02-28T09:12:11Z</time>
      </trkpt>
      <trkpt lat="42.85453" lon="1.84385">
        <ele>1262.787</ele>
        <time>2021-02-28T09:12:13Z</time>
      </trkpt>
      <trkpt lat="42.85454" lon="1.84383">
        <ele>1262.699</ele>
        <time>2021-02-28T09:12:15Z</time>
      </trkpt>
      <trkpt lat="42.85455" lon="1.84381">
        <ele>1262.662</ele>
        <time>2021-02-28T09:12:17Z</time>
      </trkpt>
      <trkpt lat="42.85455" lon="1.84378">
        <ele>1262.055</ele>
        <time>2021-02-28T09:12:19Z</time>
      </trkpt>
      <trkpt lat="42.85454" lon="1.84375">
        <ele>1261.215</ele>
        <time>2021-02-28T09:12:21Z</time>
      </trkpt>
      <trkpt lat="42.85456" lon="1.84374">
        <ele>1261.978</ele>
        <time>2021-02-28T09:12:23Z</time>
      </trkpt>
      <trkpt lat="42.85457" lon="1.84373">
        <ele>1263.147</ele>
        <time>2021-02-28T09:12:25Z</time>
      </trkpt>
      <trkpt lat="42.85459" lon="1.84371">
        <ele>1263.988</ele>
        <time>2021-02-28T09:12:27Z</time>
      </trkpt>
      <trkpt lat="42.85461" lon="1.8437">
        <ele>1264.384</ele>
        <time>2021-02-28T09:12:29Z</time>
      </trkpt>
      <trkpt lat="42.85462" lon="1.84369">
        <ele>1264.676</ele>
        <time>2021-02-28T09:12:31Z</time>
      </trkpt>
      <trkpt lat="42.85463" lon="1.84366">
        <ele>1264.946</ele>
        <time>2021-02-28T09:12:33Z</time>
      </trkpt>
      <trkpt lat="42.85464" lon="1.84364">
        <ele>1265.227</ele>
        <time>2021-02-28T09:12:35Z</time>
      </trkpt>
      <trkpt lat="42.85465" lon="1.84361">
        <ele>1264.703</ele>
        <time>2021-02-28T09:12:38Z</time>
      </trkpt>
      <trkpt lat="42.85465" lon="1.84359">
        <ele>1263.995</ele>
        <time>2021-02-28T09:12:40Z</time>
      </trkpt>
      <trkpt lat="42.85466" lon="1.84358">
        <ele>1264.242</ele>
        <time>2021-02-28T09:12:42Z</time>
      </trkpt>
      <trkpt lat="42.85467" lon="1.84356">
        <ele>1264.822</ele>
        <time>2021-02-28T09:12:44Z</time>
      </trkpt>
      <trkpt lat="42.85468" lon="1.84354">
        <ele>1264.331</ele>
        <time>2021-02-28T09:12:46Z</time>
      </trkpt>
      <trkpt lat="42.85468" lon="1.84352">
        <ele>1263.073</ele>
        <time>2021-02-28T09:12:48Z</time>
      </trkpt>
      <trkpt lat="42.85469" lon="1.8435">
        <ele>1262.788</ele>
        <time>2021-02-28T09:12:50Z</time>
      </trkpt>
      <trkpt lat="42.8547" lon="1.84348">
        <ele>1262.242</ele>
        <time>2021-02-28T09:12:52Z</time>
      </trkpt>
      <trkpt lat="42.85471" lon="1.84346">
        <ele>1262.756</ele>
        <time>2021-02-28T09:12:54Z</time>
      </trkpt>
      <trkpt lat="42.85472" lon="1.84344">
        <ele>1262.898</ele>
        <time>2021-02-28T09:12:56Z</time>
      </trkpt>
      <trkpt lat="42.85473" lon="1.84343">
        <ele>1262.915</ele>
        <time>2021-02-28T09:12:58Z</time>
      </trkpt>
      <trkpt lat="42.85474" lon="1.84341">
        <ele>1262.61</ele>
        <time>2021-02-28T09:13:00Z</time>
      </trkpt>
      <trkpt lat="42.85474" lon="1.84339">
        <ele>1262.387</ele>
        <time>2021-02-28T09:13:02Z</time>
      </trkpt>
      <trkpt lat="42.85475" lon="1.84337">
        <ele>1262.851</ele>
        <time>2021-02-28T09:13:04Z</time>
      </trkpt>
      <trkpt lat="42.85476" lon="1.84335">
        <ele>1263.437</ele>
        <time>2021-02-28T09:13:06Z</time>
      </trkpt>
      <trkpt lat="42.85477" lon="1.84333">
        <ele>1263.161</ele>
        <time>2021-02-28T09:13:08Z</time>
      </trkpt>
      <trkpt lat="42.85477" lon="1.84332">
        <ele>1262.444</ele>
        <time>2021-02-28T09:13:10Z</time>
      </trkpt>
      <trkpt lat="42.85477" lon="1.84331">
        <ele>1262.193</ele>
        <time>2021-02-28T09:13:12Z</time>
      </trkpt>
      <trkpt lat="42.85477" lon="1.84329">
        <ele>1262.6</ele>
        <time>2021-02-28T09:13:14Z</time>
      </trkpt>
      <trkpt lat="42.85478" lon="1.84327">
        <ele>1263.14</ele>
        <time>2021-02-28T09:13:16Z</time>
      </trkpt>
      <trkpt lat="42.85479" lon="1.84326">
        <ele>1263.467</ele>
        <time>2021-02-28T09:13:18Z</time>
      </trkpt>
      <trkpt lat="42.85479" lon="1.84324">
        <ele>1263.516</ele>
        <time>2021-02-28T09:13:20Z</time>
      </trkpt>
      <trkpt lat="42.8548" lon="1.84322">
        <ele>1263.169</ele>
        <time>2021-02-28T09:13:22Z</time>
      </trkpt>
      <trkpt lat="42.8548" lon="1.8432">
        <ele>1262.984</ele>
        <time>2021-02-28T09:13:24Z</time>
      </trkpt>
      <trkpt lat="42.85482" lon="1.84318">
        <ele>1263.04</ele>
        <time>2021-02-28T09:13:26Z</time>
      </trkpt>
      <trkpt lat="42.85482" lon="1.84316">
        <ele>1262.546</ele>
        <time>2021-02-28T09:13:28Z</time>
      </trkpt>
      <trkpt lat="42.85483" lon="1.84314">
        <ele>1261.341</ele>
        <time>2021-02-28T09:13:30Z</time>
      </trkpt>
      <trkpt lat="42.85484" lon="1.84312">
        <ele>1261.388</ele>
        <time>2021-02-28T09:13:32Z</time>
      </trkpt>
      <trkpt lat="42.85484" lon="1.8431">
        <ele>1260.964</ele>
        <time>2021-02-28T09:13:34Z</time>
      </trkpt>
      <trkpt lat="42.85485" lon="1.84308">
        <ele>1260.373</ele>
        <time>2021-02-28T09:13:36Z</time>
      </trkpt>
      <trkpt lat="42.85486" lon="1.84307">
        <ele>1260.735</ele>
        <time>2021-02-28T09:13:38Z</time>
      </trkpt>
      <trkpt lat="42.85487" lon="1.84306">
        <ele>1260.504</ele>
        <time>2021-02-28T09:13:40Z</time>
      </trkpt>
      <trkpt lat="42.85487" lon="1.84304">
        <ele>1260.886</ele>
        <time>2021-02-28T09:13:42Z</time>
      </trkpt>
      <trkpt lat="42.85489" lon="1.84302">
        <ele>1260.806</ele>
        <time>2021-02-28T09:13:44Z</time>
      </trkpt>
      <trkpt lat="42.8549" lon="1.843">
        <ele>1261.185</ele>
        <time>2021-02-28T09:13:46Z</time>
      </trkpt>
      <trkpt lat="42.85491" lon="1.84298">
        <ele>1261.822</ele>
        <time>2021-02-28T09:13:48Z</time>
      </trkpt>
      <trkpt lat="42.85492" lon="1.84296">
        <ele>1261.67</ele>
        <time>2021-02-28T09:13:50Z</time>
      </trkpt>
      <trkpt lat="42.85493" lon="1.84294">
        <ele>1262.008</ele>
        <time>2021-02-28T09:13:52Z</time>
      </trkpt>
      <trkpt lat="42.85493" lon="1.84292">
        <ele>1261.016</ele>
        <time>2021-02-28T09:13:54Z</time>
      </trkpt>
      <trkpt lat="42.85494" lon="1.8429">
        <ele>1260.832</ele>
        <time>2021-02-28T09:13:56Z</time>
      </trkpt>
      <trkpt lat="42.85495" lon="1.84288">
        <ele>1262.035</ele>
        <time>2021-02-28T09:13:58Z</time>
      </trkpt>
      <trkpt lat="42.85496" lon="1.84286">
        <ele>1261.681</ele>
        <time>2021-02-28T09:14:00Z</time>
      </trkpt>
      <trkpt lat="42.85497" lon="1.84284">
        <ele>1261.834</ele>
        <time>2021-02-28T09:14:02Z</time>
      </trkpt>
      <trkpt lat="42.85498" lon="1.84283">
        <ele>1261.981</ele>
        <time>2021-02-28T09:14:04Z</time>
      </trkpt>
      <trkpt lat="42.85499" lon="1.84281">
        <ele>1262.659</ele>
        <time>2021-02-28T09:14:06Z</time>
      </trkpt>
      <trkpt lat="42.855" lon="1.84279">
        <ele>1263.663</ele>
        <time>2021-02-28T09:14:08Z</time>
      </trkpt>
      <trkpt lat="42.85502" lon="1.84277">
        <ele>1264.43</ele>
        <time>2021-02-28T09:14:10Z</time>
      </trkpt>
      <trkpt lat="42.85502" lon="1.84277">
        <ele>1263.27</ele>
        <time>2021-02-28T09:14:12Z</time>
      </trkpt>
      <trkpt lat="42.85502" lon="1.84277">
        <ele>1263.268</ele>
        <time>2021-02-28T09:14:14Z</time>
      </trkpt>
      <trkpt lat="42.85502" lon="1.84277">
        <ele>1263.261</ele>
        <time>2021-02-28T09:14:16Z</time>
      </trkpt>
      <trkpt lat="42.85502" lon="1.84277">
        <ele>1263.254</ele>
        <time>2021-02-28T09:14:18Z</time>
      </trkpt>
      <trkpt lat="42.85502" lon="1.84277">
        <ele>1263.253</ele>
        <time>2021-02-28T09:14:20Z</time>
      </trkpt>
      <trkpt lat="42.85502" lon="1.84277">
        <ele>1263.172</ele>
        <time>2021-02-28T09:14:22Z</time>
      </trkpt>
      <trkpt lat="42.85502" lon="1.84277">
        <ele>1263.171</ele>
        <time>2021-02-28T09:14:24Z</time>
      </trkpt>
      <trkpt lat="42.85502" lon="1.84277">
        <ele>1263.347</ele>
        <time>2021-02-28T09:14:26Z</time>
      </trkpt>
      <trkpt lat="42.85503" lon="1.84276">
        <ele>1263.363</ele>
        <time>2021-02-28T09:14:28Z</time>
      </trkpt>
      <trkpt lat="42.85503" lon="1.84275">
        <ele>1263.483</ele>
        <time>2021-02-28T09:14:30Z</time>
      </trkpt>
      <trkpt lat="42.85503" lon="1.84273">
        <ele>1264.214</ele>
        <time>2021-02-28T09:14:32Z</time>
      </trkpt>
      <trkpt lat="42.85504" lon="1.84271">
        <ele>1264.668</ele>
        <time>2021-02-28T09:14:34Z</time>
      </trkpt>
      <trkpt lat="42.85505" lon="1.8427">
        <ele>1265.312</ele>
        <time>2021-02-28T09:14:36Z</time>
      </trkpt>
      <trkpt lat="42.85506" lon="1.84268">
        <ele>1266.334</ele>
        <time>2021-02-28T09:14:38Z</time>
      </trkpt>
      <trkpt lat="42.85508" lon="1.84266">
        <ele>1266.973</ele>
        <time>2021-02-28T09:14:40Z</time>
      </trkpt>
      <trkpt lat="42.85509" lon="1.84265">
        <ele>1267.145</ele>
        <time>2021-02-28T09:14:42Z</time>
      </trkpt>
      <trkpt lat="42.8551" lon="1.84264">
        <ele>1268.2</ele>
        <time>2021-02-28T09:14:44Z</time>
      </trkpt>
      <trkpt lat="42.85511" lon="1.84263">
        <ele>1268.113</ele>
        <time>2021-02-28T09:14:46Z</time>
      </trkpt>
      <trkpt lat="42.85512" lon="1.84261">
        <ele>1267.525</ele>
        <time>2021-02-28T09:14:48Z</time>
      </trkpt>
      <trkpt lat="42.85512" lon="1.84259">
        <ele>1267.468</ele>
        <time>2021-02-28T09:14:50Z</time>
      </trkpt>
      <trkpt lat="42.85513" lon="1.84257">
        <ele>1266.911</ele>
        <time>2021-02-28T09:14:52Z</time>
      </trkpt>
      <trkpt lat="42.85514" lon="1.84256">
        <ele>1266.767</ele>
        <time>2021-02-28T09:14:54Z</time>
      </trkpt>
      <trkpt lat="42.85514" lon="1.84255">
        <ele>1266.315</ele>
        <time>2021-02-28T09:14:56Z</time>
      </trkpt>
      <trkpt lat="42.85515" lon="1.84253">
        <ele>1265.996</ele>
        <time>2021-02-28T09:14:58Z</time>
      </trkpt>
      <trkpt lat="42.85516" lon="1.84251">
        <ele>1266.525</ele>
        <time>2021-02-28T09:15:00Z</time>
      </trkpt>
      <trkpt lat="42.85516" lon="1.8425">
        <ele>1266.194</ele>
        <time>2021-02-28T09:15:02Z</time>
      </trkpt>
      <trkpt lat="42.85516" lon="1.84248">
        <ele>1266.23</ele>
        <time>2021-02-28T09:15:04Z</time>
      </trkpt>
      <trkpt lat="42.85516" lon="1.84247">
        <ele>1266.471</ele>
        <time>2021-02-28T09:15:06Z</time>
      </trkpt>
      <trkpt lat="42.85518" lon="1.84245">
        <ele>1267.212</ele>
        <time>2021-02-28T09:15:08Z</time>
      </trkpt>
      <trkpt lat="42.85518" lon="1.84244">
        <ele>1267.67</ele>
        <time>2021-02-28T09:15:10Z</time>
      </trkpt>
      <trkpt lat="42.85519" lon="1.84242">
        <ele>1267.635</ele>
        <time>2021-02-28T09:15:12Z</time>
      </trkpt>
      <trkpt lat="42.85519" lon="1.84241">
        <ele>1267.605</ele>
        <time>2021-02-28T09:15:14Z</time>
      </trkpt>
      <trkpt lat="42.8552" lon="1.84239">
        <ele>1267.791</ele>
        <time>2021-02-28T09:15:16Z</time>
      </trkpt>
      <trkpt lat="42.8552" lon="1.84238">
        <ele>1267.909</ele>
        <time>2021-02-28T09:15:18Z</time>
      </trkpt>
      <trkpt lat="42.85521" lon="1.84236">
        <ele>1268.773</ele>
        <time>2021-02-28T09:15:20Z</time>
      </trkpt>
      <trkpt lat="42.85521" lon="1.84235">
        <ele>1267.032</ele>
        <time>2021-02-28T09:15:22Z</time>
      </trkpt>
      <trkpt lat="42.85522" lon="1.84234">
        <ele>1266.834</ele>
        <time>2021-02-28T09:15:24Z</time>
      </trkpt>
      <trkpt lat="42.85522" lon="1.84233">
        <ele>1266.936</ele>
        <time>2021-02-28T09:15:26Z</time>
      </trkpt>
      <trkpt lat="42.85522" lon="1.84231">
        <ele>1266.22</ele>
        <time>2021-02-28T09:15:28Z</time>
      </trkpt>
      <trkpt lat="42.85523" lon="1.84229">
        <ele>1266.596</ele>
        <time>2021-02-28T09:15:30Z</time>
      </trkpt>
      <trkpt lat="42.85524" lon="1.84227">
        <ele>1266.431</ele>
        <time>2021-02-28T09:15:32Z</time>
      </trkpt>
      <trkpt lat="42.85525" lon="1.84225">
        <ele>1266.63</ele>
        <time>2021-02-28T09:15:34Z</time>
      </trkpt>
      <trkpt lat="42.85526" lon="1.84223">
        <ele>1267.258</ele>
        <time>2021-02-28T09:15:36Z</time>
      </trkpt>
      <trkpt lat="42.85526" lon="1.84221">
        <ele>1266.929</ele>
        <time>2021-02-28T09:15:38Z</time>
      </trkpt>
      <trkpt lat="42.85527" lon="1.84219">
        <ele>1267.476</ele>
        <time>2021-02-28T09:15:40Z</time>
      </trkpt>
      <trkpt lat="42.85527" lon="1.84217">
        <ele>1266.913</ele>
        <time>2021-02-28T09:15:42Z</time>
      </trkpt>
      <trkpt lat="42.85528" lon="1.84215">
        <ele>1267.958</ele>
        <time>2021-02-28T09:15:44Z</time>
      </trkpt>
      <trkpt lat="42.85529" lon="1.84213">
        <ele>1268.375</ele>
        <time>2021-02-28T09:15:46Z</time>
      </trkpt>
      <trkpt lat="42.85529" lon="1.84211">
        <ele>1268.45</ele>
        <time>2021-02-28T09:15:48Z</time>
      </trkpt>
      <trkpt lat="42.8553" lon="1.84209">
        <ele>1268.409</ele>
        <time>2021-02-28T09:15:50Z</time>
      </trkpt>
      <trkpt lat="42.85531" lon="1.84207">
        <ele>1268.02</ele>
        <time>2021-02-28T09:15:52Z</time>
      </trkpt>
      <trkpt lat="42.85532" lon="1.84205">
        <ele>1268.704</ele>
        <time>2021-02-28T09:15:54Z</time>
      </trkpt>
      <trkpt lat="42.85533" lon="1.84203">
        <ele>1268.273</ele>
        <time>2021-02-28T09:15:56Z</time>
      </trkpt>
      <trkpt lat="42.85534" lon="1.84202">
        <ele>1268.556</ele>
        <time>2021-02-28T09:15:58Z</time>
      </trkpt>
      <trkpt lat="42.85535" lon="1.842">
        <ele>1269.015</ele>
        <time>2021-02-28T09:16:00Z</time>
      </trkpt>
      <trkpt lat="42.85536" lon="1.84198">
        <ele>1269.345</ele>
        <time>2021-02-28T09:16:02Z</time>
      </trkpt>
      <trkpt lat="42.85537" lon="1.84196">
        <ele>1269.92</ele>
        <time>2021-02-28T09:16:04Z</time>
      </trkpt>
      <trkpt lat="42.85537" lon="1.84194">
        <ele>1270.32</ele>
        <time>2021-02-28T09:16:06Z</time>
      </trkpt>
      <trkpt lat="42.85538" lon="1.84192">
        <ele>1271.45</ele>
        <time>2021-02-28T09:16:08Z</time>
      </trkpt>
      <trkpt lat="42.8554" lon="1.84191">
        <ele>1271.791</ele>
        <time>2021-02-28T09:16:10Z</time>
      </trkpt>
      <trkpt lat="42.85541" lon="1.84189">
        <ele>1271.914</ele>
        <time>2021-02-28T09:16:12Z</time>
      </trkpt>
      <trkpt lat="42.85541" lon="1.84187">
        <ele>1272.26</ele>
        <time>2021-02-28T09:16:14Z</time>
      </trkpt>
      <trkpt lat="42.85543" lon="1.84186">
        <ele>1272.743</ele>
        <time>2021-02-28T09:16:16Z</time>
      </trkpt>
      <trkpt lat="42.85544" lon="1.84184">
        <ele>1272.691</ele>
        <time>2021-02-28T09:16:18Z</time>
      </trkpt>
      <trkpt lat="42.85543" lon="1.84182">
        <ele>1272</ele>
        <time>2021-02-28T09:16:20Z</time>
      </trkpt>
      <trkpt lat="42.85543" lon="1.84181">
        <ele>1271.562</ele>
        <time>2021-02-28T09:16:22Z</time>
      </trkpt>
      <trkpt lat="42.85543" lon="1.84181">
        <ele>1271.569</ele>
        <time>2021-02-28T09:16:24Z</time>
      </trkpt>
      <trkpt lat="42.85543" lon="1.84181">
        <ele>1271.922</ele>
        <time>2021-02-28T09:16:26Z</time>
      </trkpt>
      <trkpt lat="42.85544" lon="1.84179">
        <ele>1272.255</ele>
        <time>2021-02-28T09:16:28Z</time>
      </trkpt>
      <trkpt lat="42.85545" lon="1.84178">
        <ele>1272.323</ele>
        <time>2021-02-28T09:16:30Z</time>
      </trkpt>
      <trkpt lat="42.85546" lon="1.84176">
        <ele>1272.023</ele>
        <time>2021-02-28T09:16:32Z</time>
      </trkpt>
      <trkpt lat="42.85547" lon="1.84174">
        <ele>1272.306</ele>
        <time>2021-02-28T09:16:34Z</time>
      </trkpt>
      <trkpt lat="42.85548" lon="1.84172">
        <ele>1272.009</ele>
        <time>2021-02-28T09:16:36Z</time>
      </trkpt>
      <trkpt lat="42.8555" lon="1.84171">
        <ele>1271.663</ele>
        <time>2021-02-28T09:16:38Z</time>
      </trkpt>
      <trkpt lat="42.85551" lon="1.84169">
        <ele>1271.729</ele>
        <time>2021-02-28T09:16:40Z</time>
      </trkpt>
      <trkpt lat="42.85552" lon="1.84167">
        <ele>1271.853</ele>
        <time>2021-02-28T09:16:42Z</time>
      </trkpt>
      <trkpt lat="42.85553" lon="1.84165">
        <ele>1271.833</ele>
        <time>2021-02-28T09:16:44Z</time>
      </trkpt>
      <trkpt lat="42.85553" lon="1.84163">
        <ele>1271.273</ele>
        <time>2021-02-28T09:16:46Z</time>
      </trkpt>
      <trkpt lat="42.85554" lon="1.84161">
        <ele>1271.522</ele>
        <time>2021-02-28T09:16:48Z</time>
      </trkpt>
      <trkpt lat="42.85556" lon="1.84159">
        <ele>1271.552</ele>
        <time>2021-02-28T09:16:50Z</time>
      </trkpt>
      <trkpt lat="42.85557" lon="1.84158">
        <ele>1271.252</ele>
        <time>2021-02-28T09:16:52Z</time>
      </trkpt>
      <trkpt lat="42.85558" lon="1.84155">
        <ele>1271.229</ele>
        <time>2021-02-28T09:16:54Z</time>
      </trkpt>
      <trkpt lat="42.85559" lon="1.84153">
        <ele>1271.46</ele>
        <time>2021-02-28T09:16:56Z</time>
      </trkpt>
      <trkpt lat="42.85561" lon="1.84151">
        <ele>1271.999</ele>
        <time>2021-02-28T09:16:58Z</time>
      </trkpt>
      <trkpt lat="42.85562" lon="1.84149">
        <ele>1272.235</ele>
        <time>2021-02-28T09:17:00Z</time>
      </trkpt>
      <trkpt lat="42.85563" lon="1.84147">
        <ele>1272.599</ele>
        <time>2021-02-28T09:17:02Z</time>
      </trkpt>
      <trkpt lat="42.85564" lon="1.84144">
        <ele>1273.147</ele>
        <time>2021-02-28T09:17:04Z</time>
      </trkpt>
      <trkpt lat="42.85566" lon="1.84142">
        <ele>1273.728</ele>
        <time>2021-02-28T09:17:06Z</time>
      </trkpt>
      <trkpt lat="42.85567" lon="1.8414">
        <ele>1273.55</ele>
        <time>2021-02-28T09:17:08Z</time>
      </trkpt>
      <trkpt lat="42.85568" lon="1.84137">
        <ele>1274.311</ele>
        <time>2021-02-28T09:17:10Z</time>
      </trkpt>
      <trkpt lat="42.85569" lon="1.84135">
        <ele>1274.75</ele>
        <time>2021-02-28T09:17:12Z</time>
      </trkpt>
      <trkpt lat="42.8557" lon="1.84133">
        <ele>1274.94</ele>
        <time>2021-02-28T09:17:14Z</time>
      </trkpt>
      <trkpt lat="42.85572" lon="1.84131">
        <ele>1275.466</ele>
        <time>2021-02-28T09:17:16Z</time>
      </trkpt>
      <trkpt lat="42.85573" lon="1.84129">
        <ele>1275.67</ele>
        <time>2021-02-28T09:17:18Z</time>
      </trkpt>
      <trkpt lat="42.85575" lon="1.84127">
        <ele>1276.174</ele>
        <time>2021-02-28T09:17:20Z</time>
      </trkpt>
      <trkpt lat="42.85576" lon="1.84124">
        <ele>1276.063</ele>
        <time>2021-02-28T09:17:22Z</time>
      </trkpt>
      <trkpt lat="42.85578" lon="1.84122">
        <ele>1276.766</ele>
        <time>2021-02-28T09:17:24Z</time>
      </trkpt>
      <trkpt lat="42.85579" lon="1.8412">
        <ele>1275.679</ele>
        <time>2021-02-28T09:17:26Z</time>
      </trkpt>
      <trkpt lat="42.8558" lon="1.84117">
        <ele>1276.334</ele>
        <time>2021-02-28T09:17:28Z</time>
      </trkpt>
      <trkpt lat="42.85582" lon="1.84115">
        <ele>1277.799</ele>
        <time>2021-02-28T09:17:30Z</time>
      </trkpt>
      <trkpt lat="42.85583" lon="1.84112">
        <ele>1277.915</ele>
        <time>2021-02-28T09:17:32Z</time>
      </trkpt>
      <trkpt lat="42.85585" lon="1.8411">
        <ele>1278.205</ele>
        <time>2021-02-28T09:17:34Z</time>
      </trkpt>
      <trkpt lat="42.85586" lon="1.84107">
        <ele>1279.208</ele>
        <time>2021-02-28T09:17:36Z</time>
      </trkpt>
      <trkpt lat="42.85588" lon="1.84106">
        <ele>1279.098</ele>
        <time>2021-02-28T09:17:38Z</time>
      </trkpt>
      <trkpt lat="42.85589" lon="1.84104">
        <ele>1278.877</ele>
        <time>2021-02-28T09:17:40Z</time>
      </trkpt>
      <trkpt lat="42.85591" lon="1.84102">
        <ele>1279.47</ele>
        <time>2021-02-28T09:17:42Z</time>
      </trkpt>
      <trkpt lat="42.85592" lon="1.84099">
        <ele>1279.815</ele>
        <time>2021-02-28T09:17:44Z</time>
      </trkpt>
      <trkpt lat="42.85594" lon="1.84097">
        <ele>1281.219</ele>
        <time>2021-02-28T09:17:46Z</time>
      </trkpt>
      <trkpt lat="42.85596" lon="1.84094">
        <ele>1282.17</ele>
        <time>2021-02-28T09:17:48Z</time>
      </trkpt>
      <trkpt lat="42.85597" lon="1.84092">
        <ele>1282.397</ele>
        <time>2021-02-28T09:17:50Z</time>
      </trkpt>
      <trkpt lat="42.85598" lon="1.84089">
        <ele>1283.332</ele>
        <time>2021-02-28T09:17:52Z</time>
      </trkpt>
      <trkpt lat="42.856" lon="1.84087">
        <ele>1283.681</ele>
        <time>2021-02-28T09:17:54Z</time>
      </trkpt>
      <trkpt lat="42.85601" lon="1.84085">
        <ele>1284.203</ele>
        <time>2021-02-28T09:17:56Z</time>
      </trkpt>
      <trkpt lat="42.85602" lon="1.84084">
        <ele>1284.141</ele>
        <time>2021-02-28T09:17:58Z</time>
      </trkpt>
      <trkpt lat="42.85603" lon="1.84082">
        <ele>1284.255</ele>
        <time>2021-02-28T09:18:00Z</time>
      </trkpt>
      <trkpt lat="42.85604" lon="1.8408">
        <ele>1283.887</ele>
        <time>2021-02-28T09:18:02Z</time>
      </trkpt>
      <trkpt lat="42.85604" lon="1.84078">
        <ele>1283.602</ele>
        <time>2021-02-28T09:18:04Z</time>
      </trkpt>
      <trkpt lat="42.85605" lon="1.84076">
        <ele>1283.85</ele>
        <time>2021-02-28T09:18:06Z</time>
      </trkpt>
      <trkpt lat="42.85606" lon="1.84073">
        <ele>1283.565</ele>
        <time>2021-02-28T09:18:08Z</time>
      </trkpt>
      <trkpt lat="42.85607" lon="1.84071">
        <ele>1284.349</ele>
        <time>2021-02-28T09:18:10Z</time>
      </trkpt>
      <trkpt lat="42.85608" lon="1.84069">
        <ele>1285.319</ele>
        <time>2021-02-28T09:18:12Z</time>
      </trkpt>
      <trkpt lat="42.8561" lon="1.84066">
        <ele>1285.945</ele>
        <time>2021-02-28T09:18:14Z</time>
      </trkpt>
      <trkpt lat="42.85611" lon="1.84063">
        <ele>1285.646</ele>
        <time>2021-02-28T09:18:16Z</time>
      </trkpt>
      <trkpt lat="42.85612" lon="1.84061">
        <ele>1285.272</ele>
        <time>2021-02-28T09:18:18Z</time>
      </trkpt>
      <trkpt lat="42.85613" lon="1.84058">
        <ele>1285.463</ele>
        <time>2021-02-28T09:18:20Z</time>
      </trkpt>
      <trkpt lat="42.85614" lon="1.84056">
        <ele>1284.851</ele>
        <time>2021-02-28T09:18:22Z</time>
      </trkpt>
      <trkpt lat="42.85615" lon="1.84054">
        <ele>1285.593</ele>
        <time>2021-02-28T09:18:24Z</time>
      </trkpt>
      <trkpt lat="42.85616" lon="1.84051">
        <ele>1285.605</ele>
        <time>2021-02-28T09:18:26Z</time>
      </trkpt>
      <trkpt lat="42.85617" lon="1.84049">
        <ele>1286.312</ele>
        <time>2021-02-28T09:18:28Z</time>
      </trkpt>
      <trkpt lat="42.85617" lon="1.84046">
        <ele>1286.582</ele>
        <time>2021-02-28T09:18:30Z</time>
      </trkpt>
      <trkpt lat="42.85619" lon="1.84043">
        <ele>1286.599</ele>
        <time>2021-02-28T09:18:32Z</time>
      </trkpt>
      <trkpt lat="42.8562" lon="1.84041">
        <ele>1286.967</ele>
        <time>2021-02-28T09:18:34Z</time>
      </trkpt>
      <trkpt lat="42.85621" lon="1.84038">
        <ele>1287.388</ele>
        <time>2021-02-28T09:18:36Z</time>
      </trkpt>
      <trkpt lat="42.85622" lon="1.84036">
        <ele>1287.794</ele>
        <time>2021-02-28T09:18:38Z</time>
      </trkpt>
      <trkpt lat="42.85623" lon="1.84033">
        <ele>1287.925</ele>
        <time>2021-02-28T09:18:40Z</time>
      </trkpt>
      <trkpt lat="42.85623" lon="1.8403">
        <ele>1287.876</ele>
        <time>2021-02-28T09:18:42Z</time>
      </trkpt>
      <trkpt lat="42.85624" lon="1.84028">
        <ele>1287.395</ele>
        <time>2021-02-28T09:18:44Z</time>
      </trkpt>
      <trkpt lat="42.85625" lon="1.84025">
        <ele>1287.361</ele>
        <time>2021-02-28T09:18:46Z</time>
      </trkpt>
      <trkpt lat="42.85625" lon="1.84023">
        <ele>1287.468</ele>
        <time>2021-02-28T09:18:48Z</time>
      </trkpt>
      <trkpt lat="42.85626" lon="1.84021">
        <ele>1287.91</ele>
        <time>2021-02-28T09:18:50Z</time>
      </trkpt>
      <trkpt lat="42.85627" lon="1.84018">
        <ele>1288.688</ele>
        <time>2021-02-28T09:18:52Z</time>
      </trkpt>
      <trkpt lat="42.85629" lon="1.84016">
        <ele>1288.35</ele>
        <time>2021-02-28T09:18:54Z</time>
      </trkpt>
      <trkpt lat="42.8563" lon="1.84014">
        <ele>1288.14</ele>
        <time>2021-02-28T09:18:56Z</time>
      </trkpt>
      <trkpt lat="42.85631" lon="1.84011">
        <ele>1289.116</ele>
        <time>2021-02-28T09:18:58Z</time>
      </trkpt>
      <trkpt lat="42.85633" lon="1.84009">
        <ele>1290.096</ele>
        <time>2021-02-28T09:19:00Z</time>
      </trkpt>
      <trkpt lat="42.85634" lon="1.84007">
        <ele>1289.889</ele>
        <time>2021-02-28T09:19:02Z</time>
      </trkpt>
      <trkpt lat="42.85635" lon="1.84004">
        <ele>1290.66</ele>
        <time>2021-02-28T09:19:04Z</time>
      </trkpt>
      <trkpt lat="42.85636" lon="1.84001">
        <ele>1292.018</ele>
        <time>2021-02-28T09:19:06Z</time>
      </trkpt>
      <trkpt lat="42.85637" lon="1.83999">
        <ele>1292.165</ele>
        <time>2021-02-28T09:19:08Z</time>
      </trkpt>
      <trkpt lat="42.85639" lon="1.83996">
        <ele>1292.783</ele>
        <time>2021-02-28T09:19:10Z</time>
      </trkpt>
      <trkpt lat="42.85641" lon="1.83993">
        <ele>1292.635</ele>
        <time>2021-02-28T09:19:12Z</time>
      </trkpt>
      <trkpt lat="42.85642" lon="1.83991">
        <ele>1293.899</ele>
        <time>2021-02-28T09:19:14Z</time>
      </trkpt>
      <trkpt lat="42.85644" lon="1.83989">
        <ele>1294.98</ele>
        <time>2021-02-28T09:19:16Z</time>
      </trkpt>
      <trkpt lat="42.85645" lon="1.83986">
        <ele>1295.357</ele>
        <time>2021-02-28T09:19:18Z</time>
      </trkpt>
      <trkpt lat="42.85647" lon="1.83983">
        <ele>1295.414</ele>
        <time>2021-02-28T09:19:20Z</time>
      </trkpt>
      <trkpt lat="42.85648" lon="1.83981">
        <ele>1295.108</ele>
        <time>2021-02-28T09:19:22Z</time>
      </trkpt>
      <trkpt lat="42.85649" lon="1.83978">
        <ele>1296.405</ele>
        <time>2021-02-28T09:19:24Z</time>
      </trkpt>
      <trkpt lat="42.85651" lon="1.83975">
        <ele>1297.592</ele>
        <time>2021-02-28T09:19:26Z</time>
      </trkpt>
      <trkpt lat="42.85652" lon="1.83973">
        <ele>1296.556</ele>
        <time>2021-02-28T09:19:28Z</time>
      </trkpt>
      <trkpt lat="42.85654" lon="1.83971">
        <ele>1297.633</ele>
        <time>2021-02-28T09:19:30Z</time>
      </trkpt>
      <trkpt lat="42.85655" lon="1.83968">
        <ele>1298.264</ele>
        <time>2021-02-28T09:19:32Z</time>
      </trkpt>
      <trkpt lat="42.85657" lon="1.83966">
        <ele>1298.636</ele>
        <time>2021-02-28T09:19:34Z</time>
      </trkpt>
      <trkpt lat="42.85658" lon="1.83963">
        <ele>1299.247</ele>
        <time>2021-02-28T09:19:36Z</time>
      </trkpt>
      <trkpt lat="42.85659" lon="1.8396">
        <ele>1300.051</ele>
        <time>2021-02-28T09:19:38Z</time>
      </trkpt>
      <trkpt lat="42.85661" lon="1.83958">
        <ele>1300.409</ele>
        <time>2021-02-28T09:19:40Z</time>
      </trkpt>
      <trkpt lat="42.85662" lon="1.83956">
        <ele>1300.682</ele>
        <time>2021-02-28T09:19:42Z</time>
      </trkpt>
      <trkpt lat="42.85663" lon="1.83953">
        <ele>1302.098</ele>
        <time>2021-02-28T09:19:44Z</time>
      </trkpt>
      <trkpt lat="42.85664" lon="1.83951">
        <ele>1303.494</ele>
        <time>2021-02-28T09:19:46Z</time>
      </trkpt>
      <trkpt lat="42.85665" lon="1.83948">
        <ele>1303.69</ele>
        <time>2021-02-28T09:19:48Z</time>
      </trkpt>
      <trkpt lat="42.85666" lon="1.83945">
        <ele>1303.254</ele>
        <time>2021-02-28T09:19:50Z</time>
      </trkpt>
      <trkpt lat="42.85667" lon="1.83943">
        <ele>1303.893</ele>
        <time>2021-02-28T09:19:52Z</time>
      </trkpt>
      <trkpt lat="42.85668" lon="1.8394">
        <ele>1303.471</ele>
        <time>2021-02-28T09:19:54Z</time>
      </trkpt>
      <trkpt lat="42.8567" lon="1.83937">
        <ele>1303.399</ele>
        <time>2021-02-28T09:19:56Z</time>
      </trkpt>
      <trkpt lat="42.85671" lon="1.83935">
        <ele>1303.033</ele>
        <time>2021-02-28T09:19:58Z</time>
      </trkpt>
      <trkpt lat="42.85672" lon="1.83933">
        <ele>1303.422</ele>
        <time>2021-02-28T09:20:00Z</time>
      </trkpt>
      <trkpt lat="42.85674" lon="1.8393">
        <ele>1304.154</ele>
        <time>2021-02-28T09:20:02Z</time>
      </trkpt>
      <trkpt lat="42.85675" lon="1.83927">
        <ele>1304.41</ele>
        <time>2021-02-28T09:20:04Z</time>
      </trkpt>
      <trkpt lat="42.85677" lon="1.83925">
        <ele>1304.415</ele>
        <time>2021-02-28T09:20:06Z</time>
      </trkpt>
      <trkpt lat="42.85677" lon="1.83922">
        <ele>1304.596</ele>
        <time>2021-02-28T09:20:08Z</time>
      </trkpt>
      <trkpt lat="42.85678" lon="1.83919">
        <ele>1304.833</ele>
        <time>2021-02-28T09:20:10Z</time>
      </trkpt>
      <trkpt lat="42.85679" lon="1.83916">
        <ele>1305.032</ele>
        <time>2021-02-28T09:20:12Z</time>
      </trkpt>
      <trkpt lat="42.8568" lon="1.83913">
        <ele>1305.399</ele>
        <time>2021-02-28T09:20:14Z</time>
      </trkpt>
      <trkpt lat="42.85681" lon="1.8391">
        <ele>1306.087</ele>
        <time>2021-02-28T09:20:16Z</time>
      </trkpt>
      <trkpt lat="42.85682" lon="1.83908">
        <ele>1306.239</ele>
        <time>2021-02-28T09:20:18Z</time>
      </trkpt>
      <trkpt lat="42.85683" lon="1.83904">
        <ele>1307.432</ele>
        <time>2021-02-28T09:20:20Z</time>
      </trkpt>
      <trkpt lat="42.85684" lon="1.83901">
        <ele>1307.846</ele>
        <time>2021-02-28T09:20:22Z</time>
      </trkpt>
      <trkpt lat="42.85685" lon="1.83899">
        <ele>1307.459</ele>
        <time>2021-02-28T09:20:24Z</time>
      </trkpt>
      <trkpt lat="42.85686" lon="1.83896">
        <ele>1307.101</ele>
        <time>2021-02-28T09:20:26Z</time>
      </trkpt>
      <trkpt lat="42.85687" lon="1.83894">
        <ele>1307.218</ele>
        <time>2021-02-28T09:20:28Z</time>
      </trkpt>
      <trkpt lat="42.85688" lon="1.83891">
        <ele>1307.109</ele>
        <time>2021-02-28T09:20:30Z</time>
      </trkpt>
      <trkpt lat="42.85689" lon="1.83888">
        <ele>1307.886</ele>
        <time>2021-02-28T09:20:32Z</time>
      </trkpt>
      <trkpt lat="42.8569" lon="1.83886">
        <ele>1307.944</ele>
        <time>2021-02-28T09:20:34Z</time>
      </trkpt>
      <trkpt lat="42.85691" lon="1.83883">
        <ele>1307.536</ele>
        <time>2021-02-28T09:20:36Z</time>
      </trkpt>
      <trkpt lat="42.85692" lon="1.83881">
        <ele>1307.899</ele>
        <time>2021-02-28T09:20:38Z</time>
      </trkpt>
      <trkpt lat="42.85694" lon="1.83878">
        <ele>1308.508</ele>
        <time>2021-02-28T09:20:40Z</time>
      </trkpt>
      <trkpt lat="42.85694" lon="1.83876">
        <ele>1308.764</ele>
        <time>2021-02-28T09:20:42Z</time>
      </trkpt>
      <trkpt lat="42.85696" lon="1.83874">
        <ele>1309.371</ele>
        <time>2021-02-28T09:20:44Z</time>
      </trkpt>
      <trkpt lat="42.85698" lon="1.83871">
        <ele>1310.506</ele>
        <time>2021-02-28T09:20:46Z</time>
      </trkpt>
      <trkpt lat="42.85699" lon="1.8387">
        <ele>1310.433</ele>
        <time>2021-02-28T09:20:48Z</time>
      </trkpt>
      <trkpt lat="42.857" lon="1.83866">
        <ele>1311.354</ele>
        <time>2021-02-28T09:20:50Z</time>
      </trkpt>
      <trkpt lat="42.85702" lon="1.83863">
        <ele>1312.285</ele>
        <time>2021-02-28T09:20:52Z</time>
      </trkpt>
      <trkpt lat="42.85703" lon="1.8386">
        <ele>1313.399</ele>
        <time>2021-02-28T09:20:54Z</time>
      </trkpt>
      <trkpt lat="42.85705" lon="1.83858">
        <ele>1313.78</ele>
        <time>2021-02-28T09:20:56Z</time>
      </trkpt>
      <trkpt lat="42.85706" lon="1.83856">
        <ele>1313.319</ele>
        <time>2021-02-28T09:20:58Z</time>
      </trkpt>
      <trkpt lat="42.85708" lon="1.83854">
        <ele>1313.905</ele>
        <time>2021-02-28T09:21:00Z</time>
      </trkpt>
      <trkpt lat="42.85709" lon="1.83852">
        <ele>1315.55</ele>
        <time>2021-02-28T09:21:02Z</time>
      </trkpt>
      <trkpt lat="42.8571" lon="1.83849">
        <ele>1313.826</ele>
        <time>2021-02-28T09:21:04Z</time>
      </trkpt>
      <trkpt lat="42.85712" lon="1.83846">
        <ele>1313.642</ele>
        <time>2021-02-28T09:21:06Z</time>
      </trkpt>
      <trkpt lat="42.85714" lon="1.83844">
        <ele>1314.067</ele>
        <time>2021-02-28T09:21:08Z</time>
      </trkpt>
      <trkpt lat="42.85716" lon="1.83842">
        <ele>1314.31</ele>
        <time>2021-02-28T09:21:10Z</time>
      </trkpt>
      <trkpt lat="42.85718" lon="1.83841">
        <ele>1314.652</ele>
        <time>2021-02-28T09:21:12Z</time>
      </trkpt>
      <trkpt lat="42.8572" lon="1.83839">
        <ele>1315.47</ele>
        <time>2021-02-28T09:21:14Z</time>
      </trkpt>
      <trkpt lat="42.85722" lon="1.83838">
        <ele>1315.311</ele>
        <time>2021-02-28T09:21:16Z</time>
      </trkpt>
      <trkpt lat="42.85723" lon="1.83836">
        <ele>1315.114</ele>
        <time>2021-02-28T09:21:18Z</time>
      </trkpt>
      <trkpt lat="42.85726" lon="1.83835">
        <ele>1316.363</ele>
        <time>2021-02-28T09:21:20Z</time>
      </trkpt>
      <trkpt lat="42.85728" lon="1.83833">
        <ele>1316.763</ele>
        <time>2021-02-28T09:21:22Z</time>
      </trkpt>
      <trkpt lat="42.85732" lon="1.83832">
        <ele>1319.467</ele>
        <time>2021-02-28T09:21:24Z</time>
      </trkpt>
      <trkpt lat="42.85733" lon="1.83831">
        <ele>1319.955</ele>
        <time>2021-02-28T09:21:26Z</time>
      </trkpt>
      <trkpt lat="42.85733" lon="1.83831">
        <ele>1319.97</ele>
        <time>2021-02-28T09:21:28Z</time>
      </trkpt>
      <trkpt lat="42.85733" lon="1.83831">
        <ele>1319.974</ele>
        <time>2021-02-28T09:21:30Z</time>
      </trkpt>
      <trkpt lat="42.85733" lon="1.83831">
        <ele>1319.988</ele>
        <time>2021-02-28T09:21:32Z</time>
      </trkpt>
      <trkpt lat="42.85733" lon="1.83831">
        <ele>1320.236</ele>
        <time>2021-02-28T09:21:34Z</time>
      </trkpt>
      <trkpt lat="42.85733" lon="1.8383">
        <ele>1320.129</ele>
        <time>2021-02-28T09:21:36Z</time>
      </trkpt>
      <trkpt lat="42.85734" lon="1.83829">
        <ele>1320.025</ele>
        <time>2021-02-28T09:21:38Z</time>
      </trkpt>
      <trkpt lat="42.85735" lon="1.83829">
        <ele>1320.343</ele>
        <time>2021-02-28T09:21:40Z</time>
      </trkpt>
      <trkpt lat="42.85735" lon="1.83829">
        <ele>1320.357</ele>
        <time>2021-02-28T09:21:42Z</time>
      </trkpt>
      <trkpt lat="42.85735" lon="1.83829">
        <ele>1320.363</ele>
        <time>2021-02-28T09:21:44Z</time>
      </trkpt>
      <trkpt lat="42.85735" lon="1.83829">
        <ele>1320.608</ele>
        <time>2021-02-28T09:21:46Z</time>
      </trkpt>
      <trkpt lat="42.85734" lon="1.83829">
        <ele>1321.057</ele>
        <time>2021-02-28T09:21:48Z</time>
      </trkpt>
      <trkpt lat="42.85734" lon="1.83828">
        <ele>1320.696</ele>
        <time>2021-02-28T09:21:50Z</time>
      </trkpt>
      <trkpt lat="42.85734" lon="1.83828">
        <ele>1320.723</ele>
        <time>2021-02-28T09:21:52Z</time>
      </trkpt>
      <trkpt lat="42.85734" lon="1.83828">
        <ele>1320.755</ele>
        <time>2021-02-28T09:21:54Z</time>
      </trkpt>
      <trkpt lat="42.85734" lon="1.83828">
        <ele>1320.764</ele>
        <time>2021-02-28T09:21:56Z</time>
      </trkpt>
      <trkpt lat="42.85734" lon="1.83828">
        <ele>1320.774</ele>
        <time>2021-02-28T09:21:58Z</time>
      </trkpt>
      <trkpt lat="42.85734" lon="1.83828">
        <ele>1320.771</ele>
        <time>2021-02-28T09:22:00Z</time>
      </trkpt>
      <trkpt lat="42.85734" lon="1.83828">
        <ele>1320.783</ele>
        <time>2021-02-28T09:22:02Z</time>
      </trkpt>
      <trkpt lat="42.85734" lon="1.83828">
        <ele>1320.791</ele>
        <time>2021-02-28T09:22:04Z</time>
      </trkpt>
      <trkpt lat="42.85735" lon="1.83828">
        <ele>1320.833</ele>
        <time>2021-02-28T09:22:06Z</time>
      </trkpt>
      <trkpt lat="42.85735" lon="1.83828">
        <ele>1320.857</ele>
        <time>2021-02-28T09:22:08Z</time>
      </trkpt>
      <trkpt lat="42.85735" lon="1.83828">
        <ele>1320.893</ele>
        <time>2021-02-28T09:22:10Z</time>
      </trkpt>
      <trkpt lat="42.85735" lon="1.83828">
        <ele>1321.444</ele>
        <time>2021-02-28T09:22:12Z</time>
      </trkpt>
      <trkpt lat="42.85736" lon="1.83828">
        <ele>1321.486</ele>
        <time>2021-02-28T09:22:14Z</time>
      </trkpt>
      <trkpt lat="42.85736" lon="1.83828">
        <ele>1321.797</ele>
        <time>2021-02-28T09:22:16Z</time>
      </trkpt>
      <trkpt lat="42.85736" lon="1.83828">
        <ele>1321.844</ele>
        <time>2021-02-28T09:22:18Z</time>
      </trkpt>
      <trkpt lat="42.85736" lon="1.83828">
        <ele>1321.885</ele>
        <time>2021-02-28T09:22:20Z</time>
      </trkpt>
      <trkpt lat="42.85736" lon="1.83828">
        <ele>1321.92</ele>
        <time>2021-02-28T09:22:22Z</time>
      </trkpt>
      <trkpt lat="42.85736" lon="1.83828">
        <ele>1321.917</ele>
        <time>2021-02-28T09:22:24Z</time>
      </trkpt>
      <trkpt lat="42.85736" lon="1.83828">
        <ele>1321.914</ele>
        <time>2021-02-28T09:22:26Z</time>
      </trkpt>
      <trkpt lat="42.85736" lon="1.83828">
        <ele>1321.926</ele>
        <time>2021-02-28T09:22:28Z</time>
      </trkpt>
      <trkpt lat="42.85736" lon="1.83828">
        <ele>1322.087</ele>
        <time>2021-02-28T09:22:30Z</time>
      </trkpt>
      <trkpt lat="42.85736" lon="1.83828">
        <ele>1322.679</ele>
        <time>2021-02-28T09:22:32Z</time>
      </trkpt>
      <trkpt lat="42.85736" lon="1.83828">
        <ele>1322.702</ele>
        <time>2021-02-28T09:22:34Z</time>
      </trkpt>
      <trkpt lat="42.85736" lon="1.83827">
        <ele>1322.746</ele>
        <time>2021-02-28T09:22:36Z</time>
      </trkpt>
      <trkpt lat="42.85736" lon="1.83826">
        <ele>1322.768</ele>
        <time>2021-02-28T09:22:38Z</time>
      </trkpt>
      <trkpt lat="42.85735" lon="1.83825">
        <ele>1322.614</ele>
        <time>2021-02-28T09:22:40Z</time>
      </trkpt>
      <trkpt lat="42.85734" lon="1.83825">
        <ele>1323.839</ele>
        <time>2021-02-28T09:22:42Z</time>
      </trkpt>
      <trkpt lat="42.85733" lon="1.83823">
        <ele>1326.154</ele>
        <time>2021-02-28T09:22:44Z</time>
      </trkpt>
      <trkpt lat="42.85734" lon="1.83822">
        <ele>1326.853</ele>
        <time>2021-02-28T09:22:46Z</time>
      </trkpt>
      <trkpt lat="42.85735" lon="1.83819">
        <ele>1326.574</ele>
        <time>2021-02-28T09:22:48Z</time>
      </trkpt>
      <trkpt lat="42.85736" lon="1.83817">
        <ele>1326.914</ele>
        <time>2021-02-28T09:22:50Z</time>
      </trkpt>
      <trkpt lat="42.85737" lon="1.83816">
        <ele>1326.944</ele>
        <time>2021-02-28T09:22:52Z</time>
      </trkpt>
      <trkpt lat="42.85737" lon="1.83814">
        <ele>1326.724</ele>
        <time>2021-02-28T09:22:54Z</time>
      </trkpt>
      <trkpt lat="42.85737" lon="1.83813">
        <ele>1326.972</ele>
        <time>2021-02-28T09:22:56Z</time>
      </trkpt>
      <trkpt lat="42.85737" lon="1.83811">
        <ele>1327.435</ele>
        <time>2021-02-28T09:22:59Z</time>
      </trkpt>
      <trkpt lat="42.85736" lon="1.8381">
        <ele>1327.097</ele>
        <time>2021-02-28T09:23:01Z</time>
      </trkpt>
      <trkpt lat="42.85736" lon="1.83808">
        <ele>1327.266</ele>
        <time>2021-02-28T09:23:03Z</time>
      </trkpt>
      <trkpt lat="42.85736" lon="1.83806">
        <ele>1326.675</ele>
        <time>2021-02-28T09:23:05Z</time>
      </trkpt>
      <trkpt lat="42.85735" lon="1.83803">
        <ele>1326.523</ele>
        <time>2021-02-28T09:23:07Z</time>
      </trkpt>
      <trkpt lat="42.85734" lon="1.83801">
        <ele>1327.574</ele>
        <time>2021-02-28T09:23:09Z</time>
      </trkpt>
      <trkpt lat="42.85735" lon="1.838">
        <ele>1328.857</ele>
        <time>2021-02-28T09:23:11Z</time>
      </trkpt>
      <trkpt lat="42.85734" lon="1.83799">
        <ele>1329.789</ele>
        <time>2021-02-28T09:23:13Z</time>
      </trkpt>
      <trkpt lat="42.85735" lon="1.83797">
        <ele>1328.526</ele>
        <time>2021-02-28T09:23:15Z</time>
      </trkpt>
      <trkpt lat="42.85735" lon="1.83796">
        <ele>1328.887</ele>
        <time>2021-02-28T09:23:17Z</time>
      </trkpt>
      <trkpt lat="42.85735" lon="1.83794">
        <ele>1329.013</ele>
        <time>2021-02-28T09:23:19Z</time>
      </trkpt>
      <trkpt lat="42.85736" lon="1.83793">
        <ele>1329.862</ele>
        <time>2021-02-28T09:23:21Z</time>
      </trkpt>
      <trkpt lat="42.85736" lon="1.83792">
        <ele>1330.783</ele>
        <time>2021-02-28T09:23:23Z</time>
      </trkpt>
      <trkpt lat="42.85737" lon="1.83791">
        <ele>1331.292</ele>
        <time>2021-02-28T09:23:25Z</time>
      </trkpt>
      <trkpt lat="42.85738" lon="1.83789">
        <ele>1330.888</ele>
        <time>2021-02-28T09:23:27Z</time>
      </trkpt>
      <trkpt lat="42.85738" lon="1.83788">
        <ele>1332.241</ele>
        <time>2021-02-28T09:23:29Z</time>
      </trkpt>
      <trkpt lat="42.85738" lon="1.83788">
        <ele>1332.52</ele>
        <time>2021-02-28T09:23:31Z</time>
      </trkpt>
      <trkpt lat="42.85738" lon="1.83788">
        <ele>1332.516</ele>
        <time>2021-02-28T09:23:33Z</time>
      </trkpt>
      <trkpt lat="42.85739" lon="1.83788">
        <ele>1332.997</ele>
        <time>2021-02-28T09:23:35Z</time>
      </trkpt>
      <trkpt lat="42.85739" lon="1.83788">
        <ele>1333.147</ele>
        <time>2021-02-28T09:23:37Z</time>
      </trkpt>
      <trkpt lat="42.85738" lon="1.83786">
        <ele>1332.767</ele>
        <time>2021-02-28T09:23:39Z</time>
      </trkpt>
      <trkpt lat="42.85738" lon="1.83785">
        <ele>1333.081</ele>
        <time>2021-02-28T09:23:41Z</time>
      </trkpt>
      <trkpt lat="42.85739" lon="1.83784">
        <ele>1333.233</ele>
        <time>2021-02-28T09:23:43Z</time>
      </trkpt>
      <trkpt lat="42.8574" lon="1.83783">
        <ele>1335.064</ele>
        <time>2021-02-28T09:23:45Z</time>
      </trkpt>
      <trkpt lat="42.8574" lon="1.83783">
        <ele>1334.761</ele>
        <time>2021-02-28T09:23:47Z</time>
      </trkpt>
      <trkpt lat="42.8574" lon="1.83783">
        <ele>1334.772</ele>
        <time>2021-02-28T09:23:49Z</time>
      </trkpt>
      <trkpt lat="42.8574" lon="1.83783">
        <ele>1335.111</ele>
        <time>2021-02-28T09:23:51Z</time>
      </trkpt>
      <trkpt lat="42.85739" lon="1.83782">
        <ele>1335.419</ele>
        <time>2021-02-28T09:23:53Z</time>
      </trkpt>
      <trkpt lat="42.85739" lon="1.83781">
        <ele>1336.958</ele>
        <time>2021-02-28T09:23:55Z</time>
      </trkpt>
      <trkpt lat="42.85738" lon="1.8378">
        <ele>1337.549</ele>
        <time>2021-02-28T09:23:57Z</time>
      </trkpt>
      <trkpt lat="42.85738" lon="1.83778">
        <ele>1338.132</ele>
        <time>2021-02-28T09:23:59Z</time>
      </trkpt>
      <trkpt lat="42.85738" lon="1.83776">
        <ele>1336.533</ele>
        <time>2021-02-28T09:24:01Z</time>
      </trkpt>
      <trkpt lat="42.85737" lon="1.83775">
        <ele>1335.939</ele>
        <time>2021-02-28T09:24:03Z</time>
      </trkpt>
      <trkpt lat="42.85737" lon="1.83773">
        <ele>1335.021</ele>
        <time>2021-02-28T09:24:05Z</time>
      </trkpt>
      <trkpt lat="42.85737" lon="1.83772">
        <ele>1335.821</ele>
        <time>2021-02-28T09:24:07Z</time>
      </trkpt>
      <trkpt lat="42.85735" lon="1.83772">
        <ele>1337.93</ele>
        <time>2021-02-28T09:24:09Z</time>
      </trkpt>
      <trkpt lat="42.85734" lon="1.83771">
        <ele>1338.027</ele>
        <time>2021-02-28T09:24:11Z</time>
      </trkpt>
      <trkpt lat="42.85734" lon="1.8377">
        <ele>1338.096</ele>
        <time>2021-02-28T09:24:13Z</time>
      </trkpt>
      <trkpt lat="42.85733" lon="1.83769">
        <ele>1339.261</ele>
        <time>2021-02-28T09:24:15Z</time>
      </trkpt>
      <trkpt lat="42.85732" lon="1.8377">
        <ele>1340.931</ele>
        <time>2021-02-28T09:24:17Z</time>
      </trkpt>
      <trkpt lat="42.85732" lon="1.8377">
        <ele>1340.717</ele>
        <time>2021-02-28T09:24:19Z</time>
      </trkpt>
      <trkpt lat="42.85731" lon="1.83769">
        <ele>1341.579</ele>
        <time>2021-02-28T09:24:21Z</time>
      </trkpt>
      <trkpt lat="42.8573" lon="1.83769">
        <ele>1341.665</ele>
        <time>2021-02-28T09:24:23Z</time>
      </trkpt>
      <trkpt lat="42.85729" lon="1.83769">
        <ele>1342.936</ele>
        <time>2021-02-28T09:24:25Z</time>
      </trkpt>
      <trkpt lat="42.85728" lon="1.83768">
        <ele>1343.225</ele>
        <time>2021-02-28T09:24:27Z</time>
      </trkpt>
      <trkpt lat="42.85727" lon="1.83768">
        <ele>1343.455</ele>
        <time>2021-02-28T09:24:29Z</time>
      </trkpt>
      <trkpt lat="42.85726" lon="1.83765">
        <ele>1342.595</ele>
        <time>2021-02-28T09:24:31Z</time>
      </trkpt>
      <trkpt lat="42.85725" lon="1.83765">
        <ele>1342.977</ele>
        <time>2021-02-28T09:24:33Z</time>
      </trkpt>
      <trkpt lat="42.85724" lon="1.83765">
        <ele>1343.816</ele>
        <time>2021-02-28T09:24:35Z</time>
      </trkpt>
      <trkpt lat="42.85723" lon="1.83764">
        <ele>1345.167</ele>
        <time>2021-02-28T09:24:37Z</time>
      </trkpt>
      <trkpt lat="42.85725" lon="1.83763">
        <ele>1345.25</ele>
        <time>2021-02-28T09:24:39Z</time>
      </trkpt>
      <trkpt lat="42.85726" lon="1.83762">
        <ele>1345.871</ele>
        <time>2021-02-28T09:24:41Z</time>
      </trkpt>
      <trkpt lat="42.85727" lon="1.8376">
        <ele>1346.024</ele>
        <time>2021-02-28T09:24:43Z</time>
      </trkpt>
      <trkpt lat="42.85728" lon="1.83758">
        <ele>1346.295</ele>
        <time>2021-02-28T09:24:45Z</time>
      </trkpt>
      <trkpt lat="42.85728" lon="1.83756">
        <ele>1348.478</ele>
        <time>2021-02-28T09:24:47Z</time>
      </trkpt>
      <trkpt lat="42.85727" lon="1.83755">
        <ele>1348.648</ele>
        <time>2021-02-28T09:24:49Z</time>
      </trkpt>
      <trkpt lat="42.85726" lon="1.83754">
        <ele>1350.372</ele>
        <time>2021-02-28T09:24:51Z</time>
      </trkpt>
      <trkpt lat="42.85725" lon="1.83752">
        <ele>1349.951</ele>
        <time>2021-02-28T09:24:53Z</time>
      </trkpt>
      <trkpt lat="42.85725" lon="1.83751">
        <ele>1350.115</ele>
        <time>2021-02-28T09:24:55Z</time>
      </trkpt>
      <trkpt lat="42.85726" lon="1.83749">
        <ele>1350.723</ele>
        <time>2021-02-28T09:24:57Z</time>
      </trkpt>
      <trkpt lat="42.85726" lon="1.83748">
        <ele>1352.648</ele>
        <time>2021-02-28T09:24:59Z</time>
      </trkpt>
      <trkpt lat="42.85726" lon="1.83747">
        <ele>1353.076</ele>
        <time>2021-02-28T09:25:01Z</time>
      </trkpt>
      <trkpt lat="42.85726" lon="1.83746">
        <ele>1353.403</ele>
        <time>2021-02-28T09:25:03Z</time>
      </trkpt>
      <trkpt lat="42.85726" lon="1.83745">
        <ele>1354.429</ele>
        <time>2021-02-28T09:25:05Z</time>
      </trkpt>
      <trkpt lat="42.85725" lon="1.83744">
        <ele>1354.309</ele>
        <time>2021-02-28T09:25:07Z</time>
      </trkpt>
      <trkpt lat="42.85725" lon="1.83744">
        <ele>1354.822</ele>
        <time>2021-02-28T09:25:09Z</time>
      </trkpt>
      <trkpt lat="42.85724" lon="1.83744">
        <ele>1354.281</ele>
        <time>2021-02-28T09:25:11Z</time>
      </trkpt>
      <trkpt lat="42.85724" lon="1.83743">
        <ele>1354.372</ele>
        <time>2021-02-28T09:25:13Z</time>
      </trkpt>
      <trkpt lat="42.85722" lon="1.83743">
        <ele>1355.097</ele>
        <time>2021-02-28T09:25:15Z</time>
      </trkpt>
      <trkpt lat="42.85721" lon="1.83742">
        <ele>1355.583</ele>
        <time>2021-02-28T09:25:17Z</time>
      </trkpt>
      <trkpt lat="42.8572" lon="1.83742">
        <ele>1356.851</ele>
        <time>2021-02-28T09:25:19Z</time>
      </trkpt>
      <trkpt lat="42.8572" lon="1.83742">
        <ele>1357.242</ele>
        <time>2021-02-28T09:25:21Z</time>
      </trkpt>
      <trkpt lat="42.8572" lon="1.83741">
        <ele>1358.644</ele>
        <time>2021-02-28T09:25:23Z</time>
      </trkpt>
      <trkpt lat="42.85719" lon="1.83741">
        <ele>1358.597</ele>
        <time>2021-02-28T09:25:25Z</time>
      </trkpt>
      <trkpt lat="42.85718" lon="1.8374">
        <ele>1358.915</ele>
        <time>2021-02-28T09:25:27Z</time>
      </trkpt>
      <trkpt lat="42.85718" lon="1.83738">
        <ele>1358.556</ele>
        <time>2021-02-28T09:25:29Z</time>
      </trkpt>
      <trkpt lat="42.85718" lon="1.83737">
        <ele>1357.873</ele>
        <time>2021-02-28T09:25:31Z</time>
      </trkpt>
      <trkpt lat="42.85718" lon="1.83735">
        <ele>1358.107</ele>
        <time>2021-02-28T09:25:33Z</time>
      </trkpt>
      <trkpt lat="42.85719" lon="1.83734">
        <ele>1358.601</ele>
        <time>2021-02-28T09:25:35Z</time>
      </trkpt>
      <trkpt lat="42.8572" lon="1.83733">
        <ele>1360.897</ele>
        <time>2021-02-28T09:25:37Z</time>
      </trkpt>
      <trkpt lat="42.85721" lon="1.83732">
        <ele>1361.533</ele>
        <time>2021-02-28T09:25:39Z</time>
      </trkpt>
      <trkpt lat="42.85722" lon="1.83731">
        <ele>1362.151</ele>
        <time>2021-02-28T09:25:41Z</time>
      </trkpt>
      <trkpt lat="42.85723" lon="1.83729">
        <ele>1362.357</ele>
        <time>2021-02-28T09:25:43Z</time>
      </trkpt>
      <trkpt lat="42.85724" lon="1.83728">
        <ele>1364.006</ele>
        <time>2021-02-28T09:25:45Z</time>
      </trkpt>
      <trkpt lat="42.85725" lon="1.83728">
        <ele>1363.784</ele>
        <time>2021-02-28T09:25:47Z</time>
      </trkpt>
      <trkpt lat="42.85726" lon="1.83726">
        <ele>1365.186</ele>
        <time>2021-02-28T09:25:49Z</time>
      </trkpt>
      <trkpt lat="42.85726" lon="1.83725">
        <ele>1366.017</ele>
        <time>2021-02-28T09:25:51Z</time>
      </trkpt>
      <trkpt lat="42.85727" lon="1.83724">
        <ele>1365.788</ele>
        <time>2021-02-28T09:25:53Z</time>
      </trkpt>
      <trkpt lat="42.85726" lon="1.83724">
        <ele>1364.644</ele>
        <time>2021-02-28T09:25:55Z</time>
      </trkpt>
      <trkpt lat="42.85724" lon="1.83724">
        <ele>1363.801</ele>
        <time>2021-02-28T09:25:57Z</time>
      </trkpt>
      <trkpt lat="42.85722" lon="1.83723">
        <ele>1363.994</ele>
        <time>2021-02-28T09:25:59Z</time>
      </trkpt>
      <trkpt lat="42.85722" lon="1.83722">
        <ele>1364.275</ele>
        <time>2021-02-28T09:26:01Z</time>
      </trkpt>
      <trkpt lat="42.85723" lon="1.83721">
        <ele>1364.846</ele>
        <time>2021-02-28T09:26:03Z</time>
      </trkpt>
      <trkpt lat="42.85722" lon="1.83719">
        <ele>1364.972</ele>
        <time>2021-02-28T09:26:05Z</time>
      </trkpt>
      <trkpt lat="42.85721" lon="1.83719">
        <ele>1364.812</ele>
        <time>2021-02-28T09:26:07Z</time>
      </trkpt>
      <trkpt lat="42.85721" lon="1.83718">
        <ele>1364.82</ele>
        <time>2021-02-28T09:26:09Z</time>
      </trkpt>
      <trkpt lat="42.85721" lon="1.83718">
        <ele>1364.823</ele>
        <time>2021-02-28T09:26:11Z</time>
      </trkpt>
      <trkpt lat="42.85721" lon="1.83718">
        <ele>1364.827</ele>
        <time>2021-02-28T09:26:13Z</time>
      </trkpt>
      <trkpt lat="42.85721" lon="1.83718">
        <ele>1364.843</ele>
        <time>2021-02-28T09:26:15Z</time>
      </trkpt>
      <trkpt lat="42.8572" lon="1.83718">
        <ele>1363.926</ele>
        <time>2021-02-28T09:26:17Z</time>
      </trkpt>
      <trkpt lat="42.8572" lon="1.83716">
        <ele>1364.727</ele>
        <time>2021-02-28T09:26:19Z</time>
      </trkpt>
      <trkpt lat="42.85721" lon="1.83715">
        <ele>1365.038</ele>
        <time>2021-02-28T09:26:21Z</time>
      </trkpt>
      <trkpt lat="42.8572" lon="1.83715">
        <ele>1364.556</ele>
        <time>2021-02-28T09:26:23Z</time>
      </trkpt>
      <trkpt lat="42.85719" lon="1.83714">
        <ele>1364.382</ele>
        <time>2021-02-28T09:26:25Z</time>
      </trkpt>
      <trkpt lat="42.85718" lon="1.83714">
        <ele>1364.748</ele>
        <time>2021-02-28T09:26:27Z</time>
      </trkpt>
      <trkpt lat="42.85717" lon="1.83713">
        <ele>1364.35</ele>
        <time>2021-02-28T09:26:29Z</time>
      </trkpt>
      <trkpt lat="42.85716" lon="1.83713">
        <ele>1365.991</ele>
        <time>2021-02-28T09:26:31Z</time>
      </trkpt>
      <trkpt lat="42.85715" lon="1.83713">
        <ele>1367.1</ele>
        <time>2021-02-28T09:26:33Z</time>
      </trkpt>
      <trkpt lat="42.85714" lon="1.83713">
        <ele>1367.814</ele>
        <time>2021-02-28T09:26:35Z</time>
      </trkpt>
      <trkpt lat="42.85713" lon="1.83712">
        <ele>1368.864</ele>
        <time>2021-02-28T09:26:37Z</time>
      </trkpt>
      <trkpt lat="42.85712" lon="1.83712">
        <ele>1370.08</ele>
        <time>2021-02-28T09:26:39Z</time>
      </trkpt>
      <trkpt lat="42.85712" lon="1.8371">
        <ele>1372.344</ele>
        <time>2021-02-28T09:26:41Z</time>
      </trkpt>
      <trkpt lat="42.85712" lon="1.8371">
        <ele>1372.121</ele>
        <time>2021-02-28T09:26:43Z</time>
      </trkpt>
      <trkpt lat="42.85711" lon="1.83709">
        <ele>1372.883</ele>
        <time>2021-02-28T09:26:45Z</time>
      </trkpt>
      <trkpt lat="42.8571" lon="1.83709">
        <ele>1373.846</ele>
        <time>2021-02-28T09:26:47Z</time>
      </trkpt>
      <trkpt lat="42.85709" lon="1.83708">
        <ele>1373.968</ele>
        <time>2021-02-28T09:26:49Z</time>
      </trkpt>
      <trkpt lat="42.8571" lon="1.83708">
        <ele>1374.253</ele>
        <time>2021-02-28T09:26:50Z</time>
      </trkpt>
      <trkpt lat="42.8571" lon="1.83707">
        <ele>1374.998</ele>
        <time>2021-02-28T09:26:53Z</time>
      </trkpt>
      <trkpt lat="42.8571" lon="1.83707">
        <ele>1375.212</ele>
        <time>2021-02-28T09:26:55Z</time>
      </trkpt>
      <trkpt lat="42.85709" lon="1.83707">
        <ele>1376.027</ele>
        <time>2021-02-28T09:26:57Z</time>
      </trkpt>
      <trkpt lat="42.85709" lon="1.83706">
        <ele>1376.493</ele>
        <time>2021-02-28T09:26:59Z</time>
      </trkpt>
      <trkpt lat="42.85709" lon="1.83705">
        <ele>1377.82</ele>
        <time>2021-02-28T09:27:01Z</time>
      </trkpt>
      <trkpt lat="42.85709" lon="1.83704">
        <ele>1378.691</ele>
        <time>2021-02-28T09:27:03Z</time>
      </trkpt>
      <trkpt lat="42.85709" lon="1.83705">
        <ele>1378.654</ele>
        <time>2021-02-28T09:27:05Z</time>
      </trkpt>
      <trkpt lat="42.85709" lon="1.83703">
        <ele>1379.257</ele>
        <time>2021-02-28T09:27:07Z</time>
      </trkpt>
      <trkpt lat="42.85709" lon="1.83703">
        <ele>1378.704</ele>
        <time>2021-02-28T09:27:09Z</time>
      </trkpt>
      <trkpt lat="42.85709" lon="1.83702">
        <ele>1378.724</ele>
        <time>2021-02-28T09:27:11Z</time>
      </trkpt>
      <trkpt lat="42.85709" lon="1.837">
        <ele>1378.503</ele>
        <time>2021-02-28T09:27:13Z</time>
      </trkpt>
      <trkpt lat="42.85708" lon="1.83699">
        <ele>1379.419</ele>
        <time>2021-02-28T09:27:15Z</time>
      </trkpt>
      <trkpt lat="42.85707" lon="1.83697">
        <ele>1380.921</ele>
        <time>2021-02-28T09:27:17Z</time>
      </trkpt>
      <trkpt lat="42.85707" lon="1.83697">
        <ele>1380.868</ele>
        <time>2021-02-28T09:27:19Z</time>
      </trkpt>
      <trkpt lat="42.85707" lon="1.83697">
        <ele>1380.872</ele>
        <time>2021-02-28T09:27:21Z</time>
      </trkpt>
      <trkpt lat="42.85707" lon="1.83697">
        <ele>1380.875</ele>
        <time>2021-02-28T09:27:23Z</time>
      </trkpt>
      <trkpt lat="42.85707" lon="1.83696">
        <ele>1381.297</ele>
        <time>2021-02-28T09:27:25Z</time>
      </trkpt>
      <trkpt lat="42.85707" lon="1.83696">
        <ele>1381.107</ele>
        <time>2021-02-28T09:27:27Z</time>
      </trkpt>
      <trkpt lat="42.85706" lon="1.83693">
        <ele>1380.659</ele>
        <time>2021-02-28T09:27:29Z</time>
      </trkpt>
      <trkpt lat="42.85706" lon="1.83693">
        <ele>1381.058</ele>
        <time>2021-02-28T09:27:31Z</time>
      </trkpt>
      <trkpt lat="42.85706" lon="1.83693">
        <ele>1381.005</ele>
        <time>2021-02-28T09:27:33Z</time>
      </trkpt>
      <trkpt lat="42.85707" lon="1.83691">
        <ele>1382.483</ele>
        <time>2021-02-28T09:27:35Z</time>
      </trkpt>
      <trkpt lat="42.85708" lon="1.83691">
        <ele>1382.309</ele>
        <time>2021-02-28T09:27:37Z</time>
      </trkpt>
      <trkpt lat="42.85707" lon="1.83692">
        <ele>1382.316</ele>
        <time>2021-02-28T09:27:39Z</time>
      </trkpt>
      <trkpt lat="42.85707" lon="1.83692">
        <ele>1382.305</ele>
        <time>2021-02-28T09:27:41Z</time>
      </trkpt>
      <trkpt lat="42.85707" lon="1.83692">
        <ele>1382.311</ele>
        <time>2021-02-28T09:27:43Z</time>
      </trkpt>
      <trkpt lat="42.85707" lon="1.83692">
        <ele>1382.305</ele>
        <time>2021-02-28T09:27:45Z</time>
      </trkpt>
      <trkpt lat="42.85707" lon="1.83692">
        <ele>1382.316</ele>
        <time>2021-02-28T09:27:47Z</time>
      </trkpt>
      <trkpt lat="42.85707" lon="1.83692">
        <ele>1382.323</ele>
        <time>2021-02-28T09:27:49Z</time>
      </trkpt>
      <trkpt lat="42.85707" lon="1.83692">
        <ele>1382.329</ele>
        <time>2021-02-28T09:27:51Z</time>
      </trkpt>
      <trkpt lat="42.85708" lon="1.83692">
        <ele>1382.042</ele>
        <time>2021-02-28T09:27:53Z</time>
      </trkpt>
      <trkpt lat="42.85708" lon="1.83692">
        <ele>1382.02</ele>
        <time>2021-02-28T09:27:55Z</time>
      </trkpt>
      <trkpt lat="42.85708" lon="1.83693">
        <ele>1381.182</ele>
        <time>2021-02-28T09:27:57Z</time>
      </trkpt>
      <trkpt lat="42.85708" lon="1.83693">
        <ele>1381.166</ele>
        <time>2021-02-28T09:27:59Z</time>
      </trkpt>
      <trkpt lat="42.85708" lon="1.83693">
        <ele>1380.356</ele>
        <time>2021-02-28T09:28:01Z</time>
      </trkpt>
      <trkpt lat="42.85708" lon="1.83694">
        <ele>1380.304</ele>
        <time>2021-02-28T09:28:03Z</time>
      </trkpt>
      <trkpt lat="42.85707" lon="1.83695">
        <ele>1380.24</ele>
        <time>2021-02-28T09:28:05Z</time>
      </trkpt>
      <trkpt lat="42.85707" lon="1.83696">
        <ele>1380.26</ele>
        <time>2021-02-28T09:28:07Z</time>
      </trkpt>
      <trkpt lat="42.85707" lon="1.83696">
        <ele>1380.264</ele>
        <time>2021-02-28T09:28:09Z</time>
      </trkpt>
      <trkpt lat="42.85707" lon="1.83696">
        <ele>1380.272</ele>
        <time>2021-02-28T09:28:11Z</time>
      </trkpt>
      <trkpt lat="42.85707" lon="1.83696">
        <ele>1380.294</ele>
        <time>2021-02-28T09:28:13Z</time>
      </trkpt>
      <trkpt lat="42.85708" lon="1.83696">
        <ele>1380.183</ele>
        <time>2021-02-28T09:28:15Z</time>
      </trkpt>
      <trkpt lat="42.85707" lon="1.83696">
        <ele>1380.103</ele>
        <time>2021-02-28T09:28:17Z</time>
      </trkpt>
      <trkpt lat="42.85707" lon="1.83697">
        <ele>1379.755</ele>
        <time>2021-02-28T09:28:19Z</time>
      </trkpt>
      <trkpt lat="42.85705" lon="1.83697">
        <ele>1380.159</ele>
        <time>2021-02-28T09:28:21Z</time>
      </trkpt>
      <trkpt lat="42.85705" lon="1.83698">
        <ele>1380.08</ele>
        <time>2021-02-28T09:28:23Z</time>
      </trkpt>
      <trkpt lat="42.85705" lon="1.83698">
        <ele>1379.626</ele>
        <time>2021-02-28T09:28:25Z</time>
      </trkpt>
      <trkpt lat="42.85705" lon="1.83698">
        <ele>1379.934</ele>
        <time>2021-02-28T09:28:27Z</time>
      </trkpt>
      <trkpt lat="42.85705" lon="1.83698">
        <ele>1379.72</ele>
        <time>2021-02-28T09:28:29Z</time>
      </trkpt>
      <trkpt lat="42.85705" lon="1.83699">
        <ele>1379.025</ele>
        <time>2021-02-28T09:28:31Z</time>
      </trkpt>
      <trkpt lat="42.85705" lon="1.83699">
        <ele>1378.622</ele>
        <time>2021-02-28T09:28:33Z</time>
      </trkpt>
      <trkpt lat="42.85705" lon="1.837">
        <ele>1378.578</ele>
        <time>2021-02-28T09:28:35Z</time>
      </trkpt>
      <trkpt lat="42.85705" lon="1.83701">
        <ele>1378.577</ele>
        <time>2021-02-28T09:28:37Z</time>
      </trkpt>
      <trkpt lat="42.85705" lon="1.83701">
        <ele>1378.581</ele>
        <time>2021-02-28T09:28:39Z</time>
      </trkpt>
      <trkpt lat="42.85705" lon="1.83701">
        <ele>1378.582</ele>
        <time>2021-02-28T09:28:41Z</time>
      </trkpt>
      <trkpt lat="42.85705" lon="1.83701">
        <ele>1378.59</ele>
        <time>2021-02-28T09:28:43Z</time>
      </trkpt>
      <trkpt lat="42.85704" lon="1.83701">
        <ele>1378.025</ele>
        <time>2021-02-28T09:28:45Z</time>
      </trkpt>
      <trkpt lat="42.85704" lon="1.83702">
        <ele>1377.581</ele>
        <time>2021-02-28T09:28:47Z</time>
      </trkpt>
      <trkpt lat="42.85704" lon="1.83703">
        <ele>1377.482</ele>
        <time>2021-02-28T09:28:49Z</time>
      </trkpt>
      <trkpt lat="42.85704" lon="1.83703">
        <ele>1377.48</ele>
        <time>2021-02-28T09:28:51Z</time>
      </trkpt>
      <trkpt lat="42.85704" lon="1.83703">
        <ele>1377.477</ele>
        <time>2021-02-28T09:28:53Z</time>
      </trkpt>
      <trkpt lat="42.85703" lon="1.83703">
        <ele>1377.826</ele>
        <time>2021-02-28T09:28:55Z</time>
      </trkpt>
      <trkpt lat="42.85703" lon="1.83704">
        <ele>1377.839</ele>
        <time>2021-02-28T09:28:57Z</time>
      </trkpt>
      <trkpt lat="42.85703" lon="1.83704">
        <ele>1378.34</ele>
        <time>2021-02-28T09:28:59Z</time>
      </trkpt>
      <trkpt lat="42.85703" lon="1.83704">
        <ele>1378.474</ele>
        <time>2021-02-28T09:29:01Z</time>
      </trkpt>
      <trkpt lat="42.85703" lon="1.83704">
        <ele>1378.471</ele>
        <time>2021-02-28T09:29:03Z</time>
      </trkpt>
      <trkpt lat="42.85703" lon="1.83704">
        <ele>1378.467</ele>
        <time>2021-02-28T09:29:05Z</time>
      </trkpt>
      <trkpt lat="42.85703" lon="1.83704">
        <ele>1378.468</ele>
        <time>2021-02-28T09:29:07Z</time>
      </trkpt>
      <trkpt lat="42.85704" lon="1.83704">
        <ele>1378.33</ele>
        <time>2021-02-28T09:29:09Z</time>
      </trkpt>
      <trkpt lat="42.85704" lon="1.83705">
        <ele>1378.144</ele>
        <time>2021-02-28T09:29:11Z</time>
      </trkpt>
      <trkpt lat="42.85704" lon="1.83706">
        <ele>1378.711</ele>
        <time>2021-02-28T09:29:13Z</time>
      </trkpt>
      <trkpt lat="42.85704" lon="1.83706">
        <ele>1377.63</ele>
        <time>2021-02-28T09:29:15Z</time>
      </trkpt>
      <trkpt lat="42.85703" lon="1.83706">
        <ele>1376.53</ele>
        <time>2021-02-28T09:29:17Z</time>
      </trkpt>
      <trkpt lat="42.85702" lon="1.83706">
        <ele>1377.106</ele>
        <time>2021-02-28T09:29:19Z</time>
      </trkpt>
      <trkpt lat="42.85701" lon="1.83707">
        <ele>1378.726</ele>
        <time>2021-02-28T09:29:21Z</time>
      </trkpt>
      <trkpt lat="42.85699" lon="1.83709">
        <ele>1379.539</ele>
        <time>2021-02-28T09:29:23Z</time>
      </trkpt>
      <trkpt lat="42.85697" lon="1.83711">
        <ele>1380.641</ele>
        <time>2021-02-28T09:29:25Z</time>
      </trkpt>
      <trkpt lat="42.85697" lon="1.83709">
        <ele>1378.637</ele>
        <time>2021-02-28T09:29:27Z</time>
      </trkpt>
      <trkpt lat="42.85697" lon="1.83709">
        <ele>1378.983</ele>
        <time>2021-02-28T09:29:29Z</time>
      </trkpt>
      <trkpt lat="42.85698" lon="1.83711">
        <ele>1378.756</ele>
        <time>2021-02-28T09:29:31Z</time>
      </trkpt>
      <trkpt lat="42.85698" lon="1.83713">
        <ele>1379.852</ele>
        <time>2021-02-28T09:29:33Z</time>
      </trkpt>
      <trkpt lat="42.857" lon="1.83714">
        <ele>1379.832</ele>
        <time>2021-02-28T09:29:35Z</time>
      </trkpt>
      <trkpt lat="42.857" lon="1.83715">
        <ele>1380.364</ele>
        <time>2021-02-28T09:29:37Z</time>
      </trkpt>
      <trkpt lat="42.857" lon="1.83716">
        <ele>1380.706</ele>
        <time>2021-02-28T09:29:39Z</time>
      </trkpt>
      <trkpt lat="42.857" lon="1.83717">
        <ele>1380.694</ele>
        <time>2021-02-28T09:29:41Z</time>
      </trkpt>
      <trkpt lat="42.857" lon="1.83717">
        <ele>1380.685</ele>
        <time>2021-02-28T09:29:43Z</time>
      </trkpt>
      <trkpt lat="42.857" lon="1.83717">
        <ele>1380.682</ele>
        <time>2021-02-28T09:29:45Z</time>
      </trkpt>
      <trkpt lat="42.857" lon="1.83717">
        <ele>1379.354</ele>
        <time>2021-02-28T09:29:47Z</time>
      </trkpt>
      <trkpt lat="42.857" lon="1.83718">
        <ele>1379.234</ele>
        <time>2021-02-28T09:29:49Z</time>
      </trkpt>
      <trkpt lat="42.857" lon="1.83719">
        <ele>1379.438</ele>
        <time>2021-02-28T09:29:51Z</time>
      </trkpt>
      <trkpt lat="42.857" lon="1.83719">
        <ele>1379.285</ele>
        <time>2021-02-28T09:29:53Z</time>
      </trkpt>
      <trkpt lat="42.857" lon="1.83719">
        <ele>1379.286</ele>
        <time>2021-02-28T09:29:55Z</time>
      </trkpt>
      <trkpt lat="42.857" lon="1.83719">
        <ele>1378.254</ele>
        <time>2021-02-28T09:29:57Z</time>
      </trkpt>
      <trkpt lat="42.85699" lon="1.83719">
        <ele>1378.301</ele>
        <time>2021-02-28T09:29:59Z</time>
      </trkpt>
      <trkpt lat="42.85698" lon="1.8372">
        <ele>1376.769</ele>
        <time>2021-02-28T09:30:01Z</time>
      </trkpt>
      <trkpt lat="42.85697" lon="1.83717">
        <ele>1374.838</ele>
        <time>2021-02-28T09:30:03Z</time>
      </trkpt>
      <trkpt lat="42.85697" lon="1.83719">
        <ele>1375.11</ele>
        <time>2021-02-28T09:30:05Z</time>
      </trkpt>
      <trkpt lat="42.85697" lon="1.83721">
        <ele>1375.077</ele>
        <time>2021-02-28T09:30:07Z</time>
      </trkpt>
      <trkpt lat="42.85696" lon="1.83724">
        <ele>1375.668</ele>
        <time>2021-02-28T09:30:09Z</time>
      </trkpt>
      <trkpt lat="42.85695" lon="1.83727">
        <ele>1378.329</ele>
        <time>2021-02-28T09:30:11Z</time>
      </trkpt>
      <trkpt lat="42.85696" lon="1.83729">
        <ele>1377.795</ele>
        <time>2021-02-28T09:30:13Z</time>
      </trkpt>
      <trkpt lat="42.85696" lon="1.83731">
        <ele>1377.8</ele>
        <time>2021-02-28T09:30:15Z</time>
      </trkpt>
      <trkpt lat="42.85696" lon="1.83732">
        <ele>1378.158</ele>
        <time>2021-02-28T09:30:17Z</time>
      </trkpt>
      <trkpt lat="42.85695" lon="1.83733">
        <ele>1377.11</ele>
        <time>2021-02-28T09:30:19Z</time>
      </trkpt>
      <trkpt lat="42.85694" lon="1.83734">
        <ele>1376.256</ele>
        <time>2021-02-28T09:30:21Z</time>
      </trkpt>
      <trkpt lat="42.85693" lon="1.83734">
        <ele>1376.258</ele>
        <time>2021-02-28T09:30:23Z</time>
      </trkpt>
      <trkpt lat="42.85693" lon="1.83734">
        <ele>1376.261</ele>
        <time>2021-02-28T09:30:25Z</time>
      </trkpt>
      <trkpt lat="42.85693" lon="1.83734">
        <ele>1376.263</ele>
        <time>2021-02-28T09:30:27Z</time>
      </trkpt>
      <trkpt lat="42.85692" lon="1.83734">
        <ele>1375.767</ele>
        <time>2021-02-28T09:30:29Z</time>
      </trkpt>
      <trkpt lat="42.8569" lon="1.83735">
        <ele>1375.305</ele>
        <time>2021-02-28T09:30:31Z</time>
      </trkpt>
      <trkpt lat="42.85689" lon="1.83735">
        <ele>1376.201</ele>
        <time>2021-02-28T09:30:33Z</time>
      </trkpt>
      <trkpt lat="42.85687" lon="1.83736">
        <ele>1376.632</ele>
        <time>2021-02-28T09:30:35Z</time>
      </trkpt>
      <trkpt lat="42.85686" lon="1.83736">
        <ele>1377.255</ele>
        <time>2021-02-28T09:30:37Z</time>
      </trkpt>
      <trkpt lat="42.85684" lon="1.83736">
        <ele>1377.071</ele>
        <time>2021-02-28T09:30:39Z</time>
      </trkpt>
      <trkpt lat="42.85684" lon="1.83735">
        <ele>1375.471</ele>
        <time>2021-02-28T09:30:41Z</time>
      </trkpt>
      <trkpt lat="42.85684" lon="1.83734">
        <ele>1375.849</ele>
        <time>2021-02-28T09:30:43Z</time>
      </trkpt>
      <trkpt lat="42.85683" lon="1.83733">
        <ele>1375.545</ele>
        <time>2021-02-28T09:30:45Z</time>
      </trkpt>
      <trkpt lat="42.85683" lon="1.83732">
        <ele>1375.202</ele>
        <time>2021-02-28T09:30:47Z</time>
      </trkpt>
      <trkpt lat="42.85682" lon="1.83731">
        <ele>1375.627</ele>
        <time>2021-02-28T09:30:49Z</time>
      </trkpt>
      <trkpt lat="42.85682" lon="1.83731">
        <ele>1376.465</ele>
        <time>2021-02-28T09:30:51Z</time>
      </trkpt>
      <trkpt lat="42.85681" lon="1.83732">
        <ele>1377.079</ele>
        <time>2021-02-28T09:30:53Z</time>
      </trkpt>
      <trkpt lat="42.85681" lon="1.83732">
        <ele>1377.08</ele>
        <time>2021-02-28T09:30:55Z</time>
      </trkpt>
      <trkpt lat="42.85681" lon="1.83732">
        <ele>1377.095</ele>
        <time>2021-02-28T09:30:57Z</time>
      </trkpt>
      <trkpt lat="42.85681" lon="1.83731">
        <ele>1377.671</ele>
        <time>2021-02-28T09:30:59Z</time>
      </trkpt>
      <trkpt lat="42.85681" lon="1.8373">
        <ele>1378.049</ele>
        <time>2021-02-28T09:31:01Z</time>
      </trkpt>
      <trkpt lat="42.85682" lon="1.83729">
        <ele>1377.966</ele>
        <time>2021-02-28T09:31:03Z</time>
      </trkpt>
      <trkpt lat="42.85681" lon="1.83727">
        <ele>1376.872</ele>
        <time>2021-02-28T09:31:05Z</time>
      </trkpt>
      <trkpt lat="42.8568" lon="1.83726">
        <ele>1375.478</ele>
        <time>2021-02-28T09:31:07Z</time>
      </trkpt>
      <trkpt lat="42.8568" lon="1.83725">
        <ele>1374.386</ele>
        <time>2021-02-28T09:31:09Z</time>
      </trkpt>
      <trkpt lat="42.85681" lon="1.83725">
        <ele>1373.328</ele>
        <time>2021-02-28T09:31:11Z</time>
      </trkpt>
      <trkpt lat="42.85679" lon="1.83724">
        <ele>1374.675</ele>
        <time>2021-02-28T09:31:13Z</time>
      </trkpt>
      <trkpt lat="42.85679" lon="1.83724">
        <ele>1374.593</ele>
        <time>2021-02-28T09:31:15Z</time>
      </trkpt>
      <trkpt lat="42.85678" lon="1.83723">
        <ele>1373.949</ele>
        <time>2021-02-28T09:31:17Z</time>
      </trkpt>
      <trkpt lat="42.85677" lon="1.83724">
        <ele>1374.895</ele>
        <time>2021-02-28T09:31:19Z</time>
      </trkpt>
      <trkpt lat="42.85676" lon="1.83724">
        <ele>1374.356</ele>
        <time>2021-02-28T09:31:21Z</time>
      </trkpt>
      <trkpt lat="42.85676" lon="1.83723">
        <ele>1374.156</ele>
        <time>2021-02-28T09:31:23Z</time>
      </trkpt>
      <trkpt lat="42.85676" lon="1.83722">
        <ele>1375.935</ele>
        <time>2021-02-28T09:31:25Z</time>
      </trkpt>
      <trkpt lat="42.85677" lon="1.8372">
        <ele>1376.854</ele>
        <time>2021-02-28T09:31:27Z</time>
      </trkpt>
      <trkpt lat="42.85678" lon="1.83719">
        <ele>1378.118</ele>
        <time>2021-02-28T09:31:29Z</time>
      </trkpt>
      <trkpt lat="42.85678" lon="1.83717">
        <ele>1378.04</ele>
        <time>2021-02-28T09:31:31Z</time>
      </trkpt>
      <trkpt lat="42.85679" lon="1.83716">
        <ele>1377.698</ele>
        <time>2021-02-28T09:31:33Z</time>
      </trkpt>
      <trkpt lat="42.8568" lon="1.83715">
        <ele>1377.253</ele>
        <time>2021-02-28T09:31:35Z</time>
      </trkpt>
      <trkpt lat="42.85681" lon="1.83715">
        <ele>1377.526</ele>
        <time>2021-02-28T09:31:37Z</time>
      </trkpt>
      <trkpt lat="42.85681" lon="1.83714">
        <ele>1377.983</ele>
        <time>2021-02-28T09:31:39Z</time>
      </trkpt>
      <trkpt lat="42.85681" lon="1.83714">
        <ele>1376.285</ele>
        <time>2021-02-28T09:31:41Z</time>
      </trkpt>
      <trkpt lat="42.85682" lon="1.83712">
        <ele>1376.622</ele>
        <time>2021-02-28T09:31:43Z</time>
      </trkpt>
      <trkpt lat="42.85682" lon="1.8371">
        <ele>1376.88</ele>
        <time>2021-02-28T09:31:45Z</time>
      </trkpt>
      <trkpt lat="42.85682" lon="1.83709">
        <ele>1378.546</ele>
        <time>2021-02-28T09:31:47Z</time>
      </trkpt>
      <trkpt lat="42.85682" lon="1.83706">
        <ele>1378.811</ele>
        <time>2021-02-28T09:31:49Z</time>
      </trkpt>
      <trkpt lat="42.8568" lon="1.83706">
        <ele>1375.773</ele>
        <time>2021-02-28T09:31:51Z</time>
      </trkpt>
      <trkpt lat="42.8568" lon="1.83704">
        <ele>1374.946</ele>
        <time>2021-02-28T09:31:53Z</time>
      </trkpt>
      <trkpt lat="42.85679" lon="1.83702">
        <ele>1375.988</ele>
        <time>2021-02-28T09:31:55Z</time>
      </trkpt>
      <trkpt lat="42.85679" lon="1.83701">
        <ele>1375.8</ele>
        <time>2021-02-28T09:31:57Z</time>
      </trkpt>
      <trkpt lat="42.85679" lon="1.83699">
        <ele>1376.103</ele>
        <time>2021-02-28T09:31:59Z</time>
      </trkpt>
      <trkpt lat="42.85679" lon="1.83698">
        <ele>1376.553</ele>
        <time>2021-02-28T09:32:01Z</time>
      </trkpt>
      <trkpt lat="42.8568" lon="1.83696">
        <ele>1375.83</ele>
        <time>2021-02-28T09:32:03Z</time>
      </trkpt>
      <trkpt lat="42.8568" lon="1.83695">
        <ele>1376.15</ele>
        <time>2021-02-28T09:32:05Z</time>
      </trkpt>
      <trkpt lat="42.85679" lon="1.83693">
        <ele>1376.358</ele>
        <time>2021-02-28T09:32:07Z</time>
      </trkpt>
      <trkpt lat="42.85679" lon="1.83692">
        <ele>1376.014</ele>
        <time>2021-02-28T09:32:09Z</time>
      </trkpt>
      <trkpt lat="42.85678" lon="1.83692">
        <ele>1375.873</ele>
        <time>2021-02-28T09:32:11Z</time>
      </trkpt>
      <trkpt lat="42.85677" lon="1.8369">
        <ele>1375.763</ele>
        <time>2021-02-28T09:32:13Z</time>
      </trkpt>
      <trkpt lat="42.85677" lon="1.83689">
        <ele>1376.41</ele>
        <time>2021-02-28T09:32:15Z</time>
      </trkpt>
      <trkpt lat="42.85676" lon="1.83689">
        <ele>1376.782</ele>
        <time>2021-02-28T09:32:17Z</time>
      </trkpt>
      <trkpt lat="42.85676" lon="1.83688">
        <ele>1376.784</ele>
        <time>2021-02-28T09:32:19Z</time>
      </trkpt>
      <trkpt lat="42.85676" lon="1.83688">
        <ele>1376.96</ele>
        <time>2021-02-28T09:32:21Z</time>
      </trkpt>
      <trkpt lat="42.85676" lon="1.83688">
        <ele>1376.951</ele>
        <time>2021-02-28T09:32:23Z</time>
      </trkpt>
      <trkpt lat="42.85676" lon="1.83688">
        <ele>1376.953</ele>
        <time>2021-02-28T09:32:25Z</time>
      </trkpt>
      <trkpt lat="42.85676" lon="1.83688">
        <ele>1377.512</ele>
        <time>2021-02-28T09:32:27Z</time>
      </trkpt>
      <trkpt lat="42.85677" lon="1.8369">
        <ele>1377.864</ele>
        <time>2021-02-28T09:32:29Z</time>
      </trkpt>
      <trkpt lat="42.85677" lon="1.83692">
        <ele>1377.194</ele>
        <time>2021-02-28T09:32:31Z</time>
      </trkpt>
      <trkpt lat="42.85678" lon="1.83694">
        <ele>1376.511</ele>
        <time>2021-02-28T09:32:33Z</time>
      </trkpt>
      <trkpt lat="42.85679" lon="1.83694">
        <ele>1376.47</ele>
        <time>2021-02-28T09:32:35Z</time>
      </trkpt>
      <trkpt lat="42.85681" lon="1.83695">
        <ele>1377.294</ele>
        <time>2021-02-28T09:32:37Z</time>
      </trkpt>
      <trkpt lat="42.85682" lon="1.83694">
        <ele>1378.374</ele>
        <time>2021-02-28T09:32:39Z</time>
      </trkpt>
      <trkpt lat="42.85683" lon="1.83694">
        <ele>1379.087</ele>
        <time>2021-02-28T09:32:41Z</time>
      </trkpt>
      <trkpt lat="42.85684" lon="1.83694">
        <ele>1379.424</ele>
        <time>2021-02-28T09:32:43Z</time>
      </trkpt>
      <trkpt lat="42.85685" lon="1.83693">
        <ele>1379.513</ele>
        <time>2021-02-28T09:32:45Z</time>
      </trkpt>
      <trkpt lat="42.85686" lon="1.83693">
        <ele>1380.128</ele>
        <time>2021-02-28T09:32:47Z</time>
      </trkpt>
      <trkpt lat="42.85687" lon="1.83692">
        <ele>1379.992</ele>
        <time>2021-02-28T09:32:49Z</time>
      </trkpt>
      <trkpt lat="42.85688" lon="1.83691">
        <ele>1379.017</ele>
        <time>2021-02-28T09:32:51Z</time>
      </trkpt>
      <trkpt lat="42.85688" lon="1.83691">
        <ele>1379.692</ele>
        <time>2021-02-28T09:32:53Z</time>
      </trkpt>
      <trkpt lat="42.85689" lon="1.83691">
        <ele>1379.996</ele>
        <time>2021-02-28T09:32:55Z</time>
      </trkpt>
      <trkpt lat="42.8569" lon="1.8369">
        <ele>1380.258</ele>
        <time>2021-02-28T09:32:57Z</time>
      </trkpt>
      <trkpt lat="42.85691" lon="1.83689">
        <ele>1380.455</ele>
        <time>2021-02-28T09:32:59Z</time>
      </trkpt>
      <trkpt lat="42.85692" lon="1.83687">
        <ele>1381.792</ele>
        <time>2021-02-28T09:33:01Z</time>
      </trkpt>
      <trkpt lat="42.85693" lon="1.83686">
        <ele>1381.412</ele>
        <time>2021-02-28T09:33:03Z</time>
      </trkpt>
      <trkpt lat="42.85693" lon="1.83685">
        <ele>1382.093</ele>
        <time>2021-02-28T09:33:05Z</time>
      </trkpt>
      <trkpt lat="42.85694" lon="1.83685">
        <ele>1381.976</ele>
        <time>2021-02-28T09:33:07Z</time>
      </trkpt>
      <trkpt lat="42.85693" lon="1.83686">
        <ele>1381.333</ele>
        <time>2021-02-28T09:33:09Z</time>
      </trkpt>
      <trkpt lat="42.85693" lon="1.83688">
        <ele>1380.875</ele>
        <time>2021-02-28T09:33:11Z</time>
      </trkpt>
      <trkpt lat="42.85695" lon="1.8369">
        <ele>1380.61</ele>
        <time>2021-02-28T09:33:13Z</time>
      </trkpt>
      <trkpt lat="42.85697" lon="1.83687">
        <ele>1379.201</ele>
        <time>2021-02-28T09:33:15Z</time>
      </trkpt>
      <trkpt lat="42.85697" lon="1.83687">
        <ele>1379.2</ele>
        <time>2021-02-28T09:33:17Z</time>
      </trkpt>
      <trkpt lat="42.85697" lon="1.83687">
        <ele>1379.196</ele>
        <time>2021-02-28T09:33:19Z</time>
      </trkpt>
      <trkpt lat="42.85697" lon="1.83687">
        <ele>1378.969</ele>
        <time>2021-02-28T09:33:21Z</time>
      </trkpt>
      <trkpt lat="42.85696" lon="1.83688">
        <ele>1378.555</ele>
        <time>2021-02-28T09:33:23Z</time>
      </trkpt>
      <trkpt lat="42.85694" lon="1.8369">
        <ele>1379.338</ele>
        <time>2021-02-28T09:33:25Z</time>
      </trkpt>
      <trkpt lat="42.85692" lon="1.83691">
        <ele>1379.091</ele>
        <time>2021-02-28T09:33:27Z</time>
      </trkpt>
      <trkpt lat="42.85692" lon="1.83691">
        <ele>1379.002</ele>
        <time>2021-02-28T09:33:29Z</time>
      </trkpt>
      <trkpt lat="42.85691" lon="1.83691">
        <ele>1378.547</ele>
        <time>2021-02-28T09:33:32Z</time>
      </trkpt>
      <trkpt lat="42.85689" lon="1.83691">
        <ele>1379.543</ele>
        <time>2021-02-28T09:33:34Z</time>
      </trkpt>
      <trkpt lat="42.85688" lon="1.8369">
        <ele>1380.268</ele>
        <time>2021-02-28T09:33:36Z</time>
      </trkpt>
      <trkpt lat="42.85686" lon="1.8369">
        <ele>1380.798</ele>
        <time>2021-02-28T09:33:38Z</time>
      </trkpt>
      <trkpt lat="42.85686" lon="1.83692">
        <ele>1380.712</ele>
        <time>2021-02-28T09:33:40Z</time>
      </trkpt>
      <trkpt lat="42.85686" lon="1.83692">
        <ele>1381.303</ele>
        <time>2021-02-28T09:33:42Z</time>
      </trkpt>
      <trkpt lat="42.85685" lon="1.83693">
        <ele>1381.739</ele>
        <time>2021-02-28T09:33:44Z</time>
      </trkpt>
      <trkpt lat="42.85685" lon="1.83693">
        <ele>1381.746</ele>
        <time>2021-02-28T09:33:46Z</time>
      </trkpt>
      <trkpt lat="42.85685" lon="1.83693">
        <ele>1381.75</ele>
        <time>2021-02-28T09:33:48Z</time>
      </trkpt>
      <trkpt lat="42.85684" lon="1.83694">
        <ele>1381.803</ele>
        <time>2021-02-28T09:33:50Z</time>
      </trkpt>
      <trkpt lat="42.85684" lon="1.83693">
        <ele>1382.159</ele>
        <time>2021-02-28T09:33:52Z</time>
      </trkpt>
      <trkpt lat="42.85684" lon="1.83693">
        <ele>1381.84</ele>
        <time>2021-02-28T09:33:54Z</time>
      </trkpt>
      <trkpt lat="42.85684" lon="1.83693">
        <ele>1381.972</ele>
        <time>2021-02-28T09:33:56Z</time>
      </trkpt>
      <trkpt lat="42.85684" lon="1.83694">
        <ele>1381.944</ele>
        <time>2021-02-28T09:33:58Z</time>
      </trkpt>
      <trkpt lat="42.85684" lon="1.83695">
        <ele>1381.429</ele>
        <time>2021-02-28T09:34:00Z</time>
      </trkpt>
      <trkpt lat="42.85683" lon="1.83693">
        <ele>1382.415</ele>
        <time>2021-02-28T09:34:02Z</time>
      </trkpt>
      <trkpt lat="42.85683" lon="1.83693">
        <ele>1382.345</ele>
        <time>2021-02-28T09:34:04Z</time>
      </trkpt>
      <trkpt lat="42.85683" lon="1.83693">
        <ele>1382.338</ele>
        <time>2021-02-28T09:34:06Z</time>
      </trkpt>
      <trkpt lat="42.85683" lon="1.83694">
        <ele>1382.668</ele>
        <time>2021-02-28T09:34:08Z</time>
      </trkpt>
      <trkpt lat="42.85682" lon="1.83696">
        <ele>1382.869</ele>
        <time>2021-02-28T09:34:10Z</time>
      </trkpt>
      <trkpt lat="42.85682" lon="1.83699">
        <ele>1382.665</ele>
        <time>2021-02-28T09:34:12Z</time>
      </trkpt>
      <trkpt lat="42.85681" lon="1.837">
        <ele>1380.712</ele>
        <time>2021-02-28T09:34:14Z</time>
      </trkpt>
      <trkpt lat="42.8568" lon="1.83702">
        <ele>1380.337</ele>
        <time>2021-02-28T09:34:16Z</time>
      </trkpt>
      <trkpt lat="42.85679" lon="1.83704">
        <ele>1380.032</ele>
        <time>2021-02-28T09:34:18Z</time>
      </trkpt>
      <trkpt lat="42.85679" lon="1.83707">
        <ele>1380.481</ele>
        <time>2021-02-28T09:34:20Z</time>
      </trkpt>
      <trkpt lat="42.8568" lon="1.83709">
        <ele>1380.246</ele>
        <time>2021-02-28T09:34:22Z</time>
      </trkpt>
      <trkpt lat="42.8568" lon="1.83711">
        <ele>1380.166</ele>
        <time>2021-02-28T09:34:24Z</time>
      </trkpt>
      <trkpt lat="42.8568" lon="1.83713">
        <ele>1380.108</ele>
        <time>2021-02-28T09:34:26Z</time>
      </trkpt>
      <trkpt lat="42.85681" lon="1.83713">
        <ele>1380.391</ele>
        <time>2021-02-28T09:34:28Z</time>
      </trkpt>
      <trkpt lat="42.85682" lon="1.83713">
        <ele>1381.253</ele>
        <time>2021-02-28T09:34:30Z</time>
      </trkpt>
      <trkpt lat="42.85683" lon="1.83715">
        <ele>1380.937</ele>
        <time>2021-02-28T09:34:32Z</time>
      </trkpt>
      <trkpt lat="42.85683" lon="1.83715">
        <ele>1380.268</ele>
        <time>2021-02-28T09:34:34Z</time>
      </trkpt>
      <trkpt lat="42.85683" lon="1.83716">
        <ele>1379.721</ele>
        <time>2021-02-28T09:34:36Z</time>
      </trkpt>
      <trkpt lat="42.85682" lon="1.83717">
        <ele>1378.607</ele>
        <time>2021-02-28T09:34:38Z</time>
      </trkpt>
      <trkpt lat="42.85681" lon="1.83717">
        <ele>1379.695</ele>
        <time>2021-02-28T09:34:40Z</time>
      </trkpt>
      <trkpt lat="42.85682" lon="1.83717">
        <ele>1379.805</ele>
        <time>2021-02-28T09:34:42Z</time>
      </trkpt>
      <trkpt lat="42.85682" lon="1.83719">
        <ele>1378.882</ele>
        <time>2021-02-28T09:34:44Z</time>
      </trkpt>
      <trkpt lat="42.85685" lon="1.83719">
        <ele>1382.086</ele>
        <time>2021-02-28T09:34:46Z</time>
      </trkpt>
      <trkpt lat="42.85687" lon="1.83719">
        <ele>1382.919</ele>
        <time>2021-02-28T09:34:48Z</time>
      </trkpt>
      <trkpt lat="42.85688" lon="1.83719">
        <ele>1381.923</ele>
        <time>2021-02-28T09:34:50Z</time>
      </trkpt>
      <trkpt lat="42.85688" lon="1.8372">
        <ele>1381.349</ele>
        <time>2021-02-28T09:34:52Z</time>
      </trkpt>
      <trkpt lat="42.85689" lon="1.8372">
        <ele>1381.403</ele>
        <time>2021-02-28T09:34:54Z</time>
      </trkpt>
      <trkpt lat="42.85692" lon="1.83721">
        <ele>1381.179</ele>
        <time>2021-02-28T09:34:56Z</time>
      </trkpt>
      <trkpt lat="42.85693" lon="1.83721">
        <ele>1381.275</ele>
        <time>2021-02-28T09:34:58Z</time>
      </trkpt>
      <trkpt lat="42.85694" lon="1.83721">
        <ele>1381.779</ele>
        <time>2021-02-28T09:35:00Z</time>
      </trkpt>
      <trkpt lat="42.85696" lon="1.83721">
        <ele>1380.809</ele>
        <time>2021-02-28T09:35:02Z</time>
      </trkpt>
      <trkpt lat="42.85697" lon="1.83721">
        <ele>1379.922</ele>
        <time>2021-02-28T09:35:04Z</time>
      </trkpt>
      <trkpt lat="42.85698" lon="1.8372">
        <ele>1378.834</ele>
        <time>2021-02-28T09:35:06Z</time>
      </trkpt>
      <trkpt lat="42.85701" lon="1.83719">
        <ele>1379.387</ele>
        <time>2021-02-28T09:35:08Z</time>
      </trkpt>
      <trkpt lat="42.85699" lon="1.83718">
        <ele>1378.519</ele>
        <time>2021-02-28T09:35:10Z</time>
      </trkpt>
      <trkpt lat="42.857" lon="1.83716">
        <ele>1379.045</ele>
        <time>2021-02-28T09:35:12Z</time>
      </trkpt>
      <trkpt lat="42.857" lon="1.83714">
        <ele>1379.292</ele>
        <time>2021-02-28T09:35:14Z</time>
      </trkpt>
      <trkpt lat="42.857" lon="1.83713">
        <ele>1379.497</ele>
        <time>2021-02-28T09:35:16Z</time>
      </trkpt>
      <trkpt lat="42.85702" lon="1.83713">
        <ele>1379.668</ele>
        <time>2021-02-28T09:35:18Z</time>
      </trkpt>
      <trkpt lat="42.85702" lon="1.83713">
        <ele>1379.66</ele>
        <time>2021-02-28T09:35:20Z</time>
      </trkpt>
      <trkpt lat="42.85702" lon="1.83712">
        <ele>1379.379</ele>
        <time>2021-02-28T09:35:22Z</time>
      </trkpt>
      <trkpt lat="42.85702" lon="1.83712">
        <ele>1379.38</ele>
        <time>2021-02-28T09:35:23Z</time>
      </trkpt>
      <trkpt lat="42.85703" lon="1.83711">
        <ele>1379.122</ele>
        <time>2021-02-28T09:35:26Z</time>
      </trkpt>
      <trkpt lat="42.85703" lon="1.8371">
        <ele>1378.972</ele>
        <time>2021-02-28T09:35:28Z</time>
      </trkpt>
      <trkpt lat="42.85704" lon="1.8371">
        <ele>1378.762</ele>
        <time>2021-02-28T09:35:30Z</time>
      </trkpt>
      <trkpt lat="42.85705" lon="1.83711">
        <ele>1379.429</ele>
        <time>2021-02-28T09:35:32Z</time>
      </trkpt>
      <trkpt lat="42.85706" lon="1.83712">
        <ele>1379.377</ele>
        <time>2021-02-28T09:35:34Z</time>
      </trkpt>
      <trkpt lat="42.85706" lon="1.83712">
        <ele>1379.346</ele>
        <time>2021-02-28T09:35:36Z</time>
      </trkpt>
      <trkpt lat="42.85706" lon="1.83712">
        <ele>1379.348</ele>
        <time>2021-02-28T09:35:38Z</time>
      </trkpt>
      <trkpt lat="42.85706" lon="1.83712">
        <ele>1378.928</ele>
        <time>2021-02-28T09:35:40Z</time>
      </trkpt>
      <trkpt lat="42.85707" lon="1.83712">
        <ele>1379.021</ele>
        <time>2021-02-28T09:35:42Z</time>
      </trkpt>
      <trkpt lat="42.85707" lon="1.83712">
        <ele>1379.018</ele>
        <time>2021-02-28T09:35:44Z</time>
      </trkpt>
      <trkpt lat="42.85707" lon="1.83712">
        <ele>1379.011</ele>
        <time>2021-02-28T09:35:46Z</time>
      </trkpt>
      <trkpt lat="42.85706" lon="1.83711">
        <ele>1378.65</ele>
        <time>2021-02-28T09:35:48Z</time>
      </trkpt>
      <trkpt lat="42.85706" lon="1.83711">
        <ele>1378.897</ele>
        <time>2021-02-28T09:35:50Z</time>
      </trkpt>
      <trkpt lat="42.85706" lon="1.83711">
        <ele>1378.991</ele>
        <time>2021-02-28T09:35:52Z</time>
      </trkpt>
      <trkpt lat="42.85704" lon="1.83711">
        <ele>1378.43</ele>
        <time>2021-02-28T09:35:54Z</time>
      </trkpt>
      <trkpt lat="42.85704" lon="1.83711">
        <ele>1379.024</ele>
        <time>2021-02-28T09:35:56Z</time>
      </trkpt>
      <trkpt lat="42.85704" lon="1.83711">
        <ele>1378.518</ele>
        <time>2021-02-28T09:35:58Z</time>
      </trkpt>
      <trkpt lat="42.85704" lon="1.83709">
        <ele>1379.15</ele>
        <time>2021-02-28T09:36:00Z</time>
      </trkpt>
      <trkpt lat="42.85704" lon="1.83709">
        <ele>1379.149</ele>
        <time>2021-02-28T09:36:02Z</time>
      </trkpt>
      <trkpt lat="42.85704" lon="1.83709">
        <ele>1379.333</ele>
        <time>2021-02-28T09:36:04Z</time>
      </trkpt>
      <trkpt lat="42.85703" lon="1.83711">
        <ele>1381.045</ele>
        <time>2021-02-28T09:36:06Z</time>
      </trkpt>
      <trkpt lat="42.857" lon="1.83713">
        <ele>1382.265</ele>
        <time>2021-02-28T09:36:08Z</time>
      </trkpt>
      <trkpt lat="42.85699" lon="1.83713">
        <ele>1382.414</ele>
        <time>2021-02-28T09:36:10Z</time>
      </trkpt>
      <trkpt lat="42.85699" lon="1.83712">
        <ele>1382.216</ele>
        <time>2021-02-28T09:36:12Z</time>
      </trkpt>
      <trkpt lat="42.85698" lon="1.8371">
        <ele>1381.825</ele>
        <time>2021-02-28T09:36:14Z</time>
      </trkpt>
      <trkpt lat="42.85697" lon="1.83709">
        <ele>1382.639</ele>
        <time>2021-02-28T09:36:16Z</time>
      </trkpt>
      <trkpt lat="42.85697" lon="1.83709">
        <ele>1381.151</ele>
        <time>2021-02-28T09:36:18Z</time>
      </trkpt>
      <trkpt lat="42.85698" lon="1.83709">
        <ele>1381.229</ele>
        <time>2021-02-28T09:36:20Z</time>
      </trkpt>
      <trkpt lat="42.85698" lon="1.83708">
        <ele>1380.991</ele>
        <time>2021-02-28T09:36:22Z</time>
      </trkpt>
      <trkpt lat="42.85697" lon="1.83709">
        <ele>1379.802</ele>
        <time>2021-02-28T09:36:24Z</time>
      </trkpt>
      <trkpt lat="42.85698" lon="1.83709">
        <ele>1379.802</ele>
        <time>2021-02-28T09:36:26Z</time>
      </trkpt>
      <trkpt lat="42.85698" lon="1.83709">
        <ele>1379.795</ele>
        <time>2021-02-28T09:36:28Z</time>
      </trkpt>
      <trkpt lat="42.85698" lon="1.83709">
        <ele>1379.78</ele>
        <time>2021-02-28T09:36:30Z</time>
      </trkpt>
      <trkpt lat="42.85698" lon="1.83708">
        <ele>1379.69</ele>
        <time>2021-02-28T09:36:32Z</time>
      </trkpt>
      <trkpt lat="42.85698" lon="1.83708">
        <ele>1378.811</ele>
        <time>2021-02-28T09:36:34Z</time>
      </trkpt>
      <trkpt lat="42.85698" lon="1.83707">
        <ele>1377.16</ele>
        <time>2021-02-28T09:36:36Z</time>
      </trkpt>
      <trkpt lat="42.85699" lon="1.83706">
        <ele>1377.661</ele>
        <time>2021-02-28T09:36:38Z</time>
      </trkpt>
      <trkpt lat="42.857" lon="1.83706">
        <ele>1377.655</ele>
        <time>2021-02-28T09:36:40Z</time>
      </trkpt>
      <trkpt lat="42.857" lon="1.83706">
        <ele>1378.06</ele>
        <time>2021-02-28T09:36:42Z</time>
      </trkpt>
      <trkpt lat="42.85701" lon="1.83706">
        <ele>1378.053</ele>
        <time>2021-02-28T09:36:43Z</time>
      </trkpt>
      <trkpt lat="42.85701" lon="1.83706">
        <ele>1376.71</ele>
        <time>2021-02-28T09:36:46Z</time>
      </trkpt>
      <trkpt lat="42.85702" lon="1.83706">
        <ele>1376.656</ele>
        <time>2021-02-28T09:36:48Z</time>
      </trkpt>
      <trkpt lat="42.85702" lon="1.83706">
        <ele>1376.652</ele>
        <time>2021-02-28T09:36:50Z</time>
      </trkpt>
      <trkpt lat="42.85702" lon="1.83706">
        <ele>1376.641</ele>
        <time>2021-02-28T09:36:52Z</time>
      </trkpt>
      <trkpt lat="42.85702" lon="1.83706">
        <ele>1375.696</ele>
        <time>2021-02-28T09:36:54Z</time>
      </trkpt>
      <trkpt lat="42.85703" lon="1.83706">
        <ele>1376.178</ele>
        <time>2021-02-28T09:36:56Z</time>
      </trkpt>
      <trkpt lat="42.85705" lon="1.83707">
        <ele>1376.025</ele>
        <time>2021-02-28T09:36:58Z</time>
      </trkpt>
      <trkpt lat="42.85705" lon="1.83706">
        <ele>1374.71</ele>
        <time>2021-02-28T09:37:00Z</time>
      </trkpt>
      <trkpt lat="42.85706" lon="1.83705">
        <ele>1374.807</ele>
        <time>2021-02-28T09:37:02Z</time>
      </trkpt>
      <trkpt lat="42.85706" lon="1.83705">
        <ele>1374.806</ele>
        <time>2021-02-28T09:37:04Z</time>
      </trkpt>
      <trkpt lat="42.85707" lon="1.83705">
        <ele>1375.592</ele>
        <time>2021-02-28T09:37:06Z</time>
      </trkpt>
      <trkpt lat="42.85707" lon="1.83705">
        <ele>1376.056</ele>
        <time>2021-02-28T09:37:08Z</time>
      </trkpt>
      <trkpt lat="42.85707" lon="1.83705">
        <ele>1376.367</ele>
        <time>2021-02-28T09:37:10Z</time>
      </trkpt>
      <trkpt lat="42.85707" lon="1.83705">
        <ele>1376.411</ele>
        <time>2021-02-28T09:37:12Z</time>
      </trkpt>
      <trkpt lat="42.85708" lon="1.83705">
        <ele>1377.458</ele>
        <time>2021-02-28T09:37:15Z</time>
      </trkpt>
      <trkpt lat="42.85708" lon="1.83705">
        <ele>1377.461</ele>
        <time>2021-02-28T09:37:17Z</time>
      </trkpt>
      <trkpt lat="42.85709" lon="1.83704">
        <ele>1378.637</ele>
        <time>2021-02-28T09:37:19Z</time>
      </trkpt>
      <trkpt lat="42.8571" lon="1.83703">
        <ele>1378.954</ele>
        <time>2021-02-28T09:37:21Z</time>
      </trkpt>
      <trkpt lat="42.85711" lon="1.83702">
        <ele>1379.061</ele>
        <time>2021-02-28T09:37:23Z</time>
      </trkpt>
      <trkpt lat="42.85712" lon="1.83701">
        <ele>1379.465</ele>
        <time>2021-02-28T09:37:25Z</time>
      </trkpt>
      <trkpt lat="42.85712" lon="1.83701">
        <ele>1379.288</ele>
        <time>2021-02-28T09:37:27Z</time>
      </trkpt>
      <trkpt lat="42.85714" lon="1.837">
        <ele>1378.924</ele>
        <time>2021-02-28T09:37:29Z</time>
      </trkpt>
      <trkpt lat="42.85714" lon="1.837">
        <ele>1378.894</ele>
        <time>2021-02-28T09:37:31Z</time>
      </trkpt>
      <trkpt lat="42.85714" lon="1.837">
        <ele>1378.905</ele>
        <time>2021-02-28T09:37:33Z</time>
      </trkpt>
      <trkpt lat="42.85714" lon="1.837">
        <ele>1379.117</ele>
        <time>2021-02-28T09:37:35Z</time>
      </trkpt>
      <trkpt lat="42.85714" lon="1.837">
        <ele>1379.133</ele>
        <time>2021-02-28T09:37:37Z</time>
      </trkpt>
      <trkpt lat="42.85714" lon="1.837">
        <ele>1379.381</ele>
        <time>2021-02-28T09:37:39Z</time>
      </trkpt>
      <trkpt lat="42.85714" lon="1.837">
        <ele>1379.492</ele>
        <time>2021-02-28T09:37:41Z</time>
      </trkpt>
      <trkpt lat="42.85715" lon="1.837">
        <ele>1379.401</ele>
        <time>2021-02-28T09:37:43Z</time>
      </trkpt>
      <trkpt lat="42.85714" lon="1.83702">
        <ele>1379.448</ele>
        <time>2021-02-28T09:37:45Z</time>
      </trkpt>
      <trkpt lat="42.85715" lon="1.83703">
        <ele>1378.92</ele>
        <time>2021-02-28T09:37:47Z</time>
      </trkpt>
      <trkpt lat="42.85714" lon="1.83704">
        <ele>1379.099</ele>
        <time>2021-02-28T09:37:49Z</time>
      </trkpt>
      <trkpt lat="42.85713" lon="1.83704">
        <ele>1379.672</ele>
        <time>2021-02-28T09:37:51Z</time>
      </trkpt>
      <trkpt lat="42.85712" lon="1.83704">
        <ele>1380.791</ele>
        <time>2021-02-28T09:37:53Z</time>
      </trkpt>
      <trkpt lat="42.85711" lon="1.83703">
        <ele>1381.115</ele>
        <time>2021-02-28T09:37:55Z</time>
      </trkpt>
      <trkpt lat="42.85711" lon="1.83701">
        <ele>1381.704</ele>
        <time>2021-02-28T09:37:57Z</time>
      </trkpt>
      <trkpt lat="42.85711" lon="1.83701">
        <ele>1381.685</ele>
        <time>2021-02-28T09:37:59Z</time>
      </trkpt>
      <trkpt lat="42.8571" lon="1.83701">
        <ele>1381.656</ele>
        <time>2021-02-28T09:38:01Z</time>
      </trkpt>
      <trkpt lat="42.8571" lon="1.83702">
        <ele>1381.217</ele>
        <time>2021-02-28T09:38:03Z</time>
      </trkpt>
      <trkpt lat="42.8571" lon="1.83702">
        <ele>1381.211</ele>
        <time>2021-02-28T09:38:05Z</time>
      </trkpt>
      <trkpt lat="42.8571" lon="1.83702">
        <ele>1381.224</ele>
        <time>2021-02-28T09:38:07Z</time>
      </trkpt>
      <trkpt lat="42.85709" lon="1.83702">
        <ele>1380.935</ele>
        <time>2021-02-28T09:38:09Z</time>
      </trkpt>
      <trkpt lat="42.8571" lon="1.83703">
        <ele>1379.927</ele>
        <time>2021-02-28T09:38:11Z</time>
      </trkpt>
      <trkpt lat="42.85709" lon="1.83705">
        <ele>1380.192</ele>
        <time>2021-02-28T09:38:13Z</time>
      </trkpt>
      <trkpt lat="42.85709" lon="1.83705">
        <ele>1380.189</ele>
        <time>2021-02-28T09:38:15Z</time>
      </trkpt>
      <trkpt lat="42.85709" lon="1.83705">
        <ele>1380.2</ele>
        <time>2021-02-28T09:38:17Z</time>
      </trkpt>
      <trkpt lat="42.85708" lon="1.83705">
        <ele>1379.895</ele>
        <time>2021-02-28T09:38:19Z</time>
      </trkpt>
      <trkpt lat="42.85707" lon="1.83705">
        <ele>1377.779</ele>
        <time>2021-02-28T09:38:21Z</time>
      </trkpt>
      <trkpt lat="42.85707" lon="1.83705">
        <ele>1377.793</ele>
        <time>2021-02-28T09:38:23Z</time>
      </trkpt>
      <trkpt lat="42.85707" lon="1.83705">
        <ele>1378.876</ele>
        <time>2021-02-28T09:38:25Z</time>
      </trkpt>
      <trkpt lat="42.85706" lon="1.83705">
        <ele>1379.357</ele>
        <time>2021-02-28T09:38:27Z</time>
      </trkpt>
      <trkpt lat="42.85706" lon="1.83704">
        <ele>1379.503</ele>
        <time>2021-02-28T09:38:29Z</time>
      </trkpt>
      <trkpt lat="42.85706" lon="1.83704">
        <ele>1379.309</ele>
        <time>2021-02-28T09:38:31Z</time>
      </trkpt>
      <trkpt lat="42.85706" lon="1.83704">
        <ele>1379.307</ele>
        <time>2021-02-28T09:38:33Z</time>
      </trkpt>
      <trkpt lat="42.85706" lon="1.83704">
        <ele>1379.306</ele>
        <time>2021-02-28T09:38:35Z</time>
      </trkpt>
      <trkpt lat="42.85705" lon="1.83704">
        <ele>1379.459</ele>
        <time>2021-02-28T09:38:37Z</time>
      </trkpt>
      <trkpt lat="42.85705" lon="1.83705">
        <ele>1379.455</ele>
        <time>2021-02-28T09:38:39Z</time>
      </trkpt>
      <trkpt lat="42.85705" lon="1.83705">
        <ele>1379.467</ele>
        <time>2021-02-28T09:38:41Z</time>
      </trkpt>
      <trkpt lat="42.85705" lon="1.83705">
        <ele>1379.472</ele>
        <time>2021-02-28T09:38:43Z</time>
      </trkpt>
      <trkpt lat="42.85705" lon="1.83705">
        <ele>1379.472</ele>
        <time>2021-02-28T09:38:45Z</time>
      </trkpt>
      <trkpt lat="42.85705" lon="1.83705">
        <ele>1379.473</ele>
        <time>2021-02-28T09:38:47Z</time>
      </trkpt>
      <trkpt lat="42.85704" lon="1.83705">
        <ele>1380.048</ele>
        <time>2021-02-28T09:38:49Z</time>
      </trkpt>
      <trkpt lat="42.85703" lon="1.83705">
        <ele>1379.98</ele>
        <time>2021-02-28T09:38:51Z</time>
      </trkpt>
      <trkpt lat="42.85702" lon="1.83706">
        <ele>1381.132</ele>
        <time>2021-02-28T09:38:53Z</time>
      </trkpt>
      <trkpt lat="42.85701" lon="1.83707">
        <ele>1380.72</ele>
        <time>2021-02-28T09:38:55Z</time>
      </trkpt>
      <trkpt lat="42.85701" lon="1.83707">
        <ele>1380.83</ele>
        <time>2021-02-28T09:38:57Z</time>
      </trkpt>
      <trkpt lat="42.85701" lon="1.83707">
        <ele>1380.836</ele>
        <time>2021-02-28T09:38:59Z</time>
      </trkpt>
      <trkpt lat="42.85701" lon="1.83707">
        <ele>1380.66</ele>
        <time>2021-02-28T09:39:01Z</time>
      </trkpt>
      <trkpt lat="42.85701" lon="1.83708">
        <ele>1380.852</ele>
        <time>2021-02-28T09:39:03Z</time>
      </trkpt>
      <trkpt lat="42.857" lon="1.83709">
        <ele>1381.837</ele>
        <time>2021-02-28T09:39:05Z</time>
      </trkpt>
      <trkpt lat="42.85699" lon="1.83709">
        <ele>1382.649</ele>
        <time>2021-02-28T09:39:07Z</time>
      </trkpt>
      <trkpt lat="42.85697" lon="1.83711">
        <ele>1381.182</ele>
        <time>2021-02-28T09:39:09Z</time>
      </trkpt>
      <trkpt lat="42.85697" lon="1.83711">
        <ele>1381.288</ele>
        <time>2021-02-28T09:39:11Z</time>
      </trkpt>
      <trkpt lat="42.85698" lon="1.83711">
        <ele>1381.122</ele>
        <time>2021-02-28T09:39:13Z</time>
      </trkpt>
      <trkpt lat="42.85698" lon="1.83712">
        <ele>1380.87</ele>
        <time>2021-02-28T09:39:15Z</time>
      </trkpt>
      <trkpt lat="42.85698" lon="1.83712">
        <ele>1380.867</ele>
        <time>2021-02-28T09:39:17Z</time>
      </trkpt>
      <trkpt lat="42.85699" lon="1.83712">
        <ele>1381.131</ele>
        <time>2021-02-28T09:39:19Z</time>
      </trkpt>
      <trkpt lat="42.857" lon="1.83713">
        <ele>1380.628</ele>
        <time>2021-02-28T09:39:21Z</time>
      </trkpt>
      <trkpt lat="42.85702" lon="1.83713">
        <ele>1380.874</ele>
        <time>2021-02-28T09:39:23Z</time>
      </trkpt>
      <trkpt lat="42.85702" lon="1.83714">
        <ele>1379.515</ele>
        <time>2021-02-28T09:39:25Z</time>
      </trkpt>
      <trkpt lat="42.85702" lon="1.83716">
        <ele>1379.406</ele>
        <time>2021-02-28T09:39:27Z</time>
      </trkpt>
      <trkpt lat="42.85704" lon="1.83717">
        <ele>1379.12</ele>
        <time>2021-02-28T09:39:29Z</time>
      </trkpt>
      <trkpt lat="42.85705" lon="1.83718">
        <ele>1379.151</ele>
        <time>2021-02-28T09:39:31Z</time>
      </trkpt>
      <trkpt lat="42.85706" lon="1.83719">
        <ele>1378.604</ele>
        <time>2021-02-28T09:39:33Z</time>
      </trkpt>
      <trkpt lat="42.85707" lon="1.83719">
        <ele>1377.964</ele>
        <time>2021-02-28T09:39:35Z</time>
      </trkpt>
      <trkpt lat="42.85707" lon="1.8372">
        <ele>1377.573</ele>
        <time>2021-02-28T09:39:37Z</time>
      </trkpt>
      <trkpt lat="42.85707" lon="1.83718">
        <ele>1376.835</ele>
        <time>2021-02-28T09:39:39Z</time>
      </trkpt>
      <trkpt lat="42.85707" lon="1.83718">
        <ele>1376.829</ele>
        <time>2021-02-28T09:39:41Z</time>
      </trkpt>
      <trkpt lat="42.85707" lon="1.83718">
        <ele>1376.832</ele>
        <time>2021-02-28T09:39:43Z</time>
      </trkpt>
      <trkpt lat="42.85707" lon="1.83719">
        <ele>1376.922</ele>
        <time>2021-02-28T09:39:45Z</time>
      </trkpt>
      <trkpt lat="42.85707" lon="1.83719">
        <ele>1376.624</ele>
        <time>2021-02-28T09:39:47Z</time>
      </trkpt>
      <trkpt lat="42.85708" lon="1.8372">
        <ele>1376.394</ele>
        <time>2021-02-28T09:39:49Z</time>
      </trkpt>
      <trkpt lat="42.8571" lon="1.83721">
        <ele>1376.793</ele>
        <time>2021-02-28T09:39:51Z</time>
      </trkpt>
      <trkpt lat="42.85711" lon="1.83722">
        <ele>1377.014</ele>
        <time>2021-02-28T09:39:53Z</time>
      </trkpt>
      <trkpt lat="42.85713" lon="1.83724">
        <ele>1377.153</ele>
        <time>2021-02-28T09:39:55Z</time>
      </trkpt>
      <trkpt lat="42.85714" lon="1.83723">
        <ele>1377.189</ele>
        <time>2021-02-28T09:39:57Z</time>
      </trkpt>
      <trkpt lat="42.85715" lon="1.83723">
        <ele>1377.168</ele>
        <time>2021-02-28T09:39:59Z</time>
      </trkpt>
      <trkpt lat="42.85715" lon="1.83722">
        <ele>1376.797</ele>
        <time>2021-02-28T09:40:01Z</time>
      </trkpt>
      <trkpt lat="42.85715" lon="1.83721">
        <ele>1375.927</ele>
        <time>2021-02-28T09:40:03Z</time>
      </trkpt>
      <trkpt lat="42.85717" lon="1.83721">
        <ele>1374.213</ele>
        <time>2021-02-28T09:40:05Z</time>
      </trkpt>
      <trkpt lat="42.85718" lon="1.83723">
        <ele>1373.393</ele>
        <time>2021-02-28T09:40:07Z</time>
      </trkpt>
      <trkpt lat="42.85717" lon="1.83722">
        <ele>1373.488</ele>
        <time>2021-02-28T09:40:09Z</time>
      </trkpt>
      <trkpt lat="42.85717" lon="1.83722">
        <ele>1373.477</ele>
        <time>2021-02-28T09:40:11Z</time>
      </trkpt>
      <trkpt lat="42.85717" lon="1.83722">
        <ele>1373.462</ele>
        <time>2021-02-28T09:40:13Z</time>
      </trkpt>
      <trkpt lat="42.85718" lon="1.83722">
        <ele>1374.181</ele>
        <time>2021-02-28T09:40:15Z</time>
      </trkpt>
      <trkpt lat="42.85718" lon="1.83722">
        <ele>1373.638</ele>
        <time>2021-02-28T09:40:17Z</time>
      </trkpt>
      <trkpt lat="42.85718" lon="1.83719">
        <ele>1374.046</ele>
        <time>2021-02-28T09:40:19Z</time>
      </trkpt>
      <trkpt lat="42.85718" lon="1.8372">
        <ele>1374.052</ele>
        <time>2021-02-28T09:40:21Z</time>
      </trkpt>
      <trkpt lat="42.85718" lon="1.8372">
        <ele>1374.052</ele>
        <time>2021-02-28T09:40:23Z</time>
      </trkpt>
      <trkpt lat="42.85718" lon="1.8372">
        <ele>1374.053</ele>
        <time>2021-02-28T09:40:25Z</time>
      </trkpt>
      <trkpt lat="42.85718" lon="1.8372">
        <ele>1374.051</ele>
        <time>2021-02-28T09:40:27Z</time>
      </trkpt>
      <trkpt lat="42.85718" lon="1.8372">
        <ele>1374.045</ele>
        <time>2021-02-28T09:40:29Z</time>
      </trkpt>
      <trkpt lat="42.85718" lon="1.8372">
        <ele>1374.039</ele>
        <time>2021-02-28T09:40:31Z</time>
      </trkpt>
      <trkpt lat="42.85718" lon="1.8372">
        <ele>1374.032</ele>
        <time>2021-02-28T09:40:33Z</time>
      </trkpt>
      <trkpt lat="42.85718" lon="1.8372">
        <ele>1374.025</ele>
        <time>2021-02-28T09:40:35Z</time>
      </trkpt>
      <trkpt lat="42.85718" lon="1.8372">
        <ele>1374.018</ele>
        <time>2021-02-28T09:40:37Z</time>
      </trkpt>
      <trkpt lat="42.85718" lon="1.8372">
        <ele>1374.016</ele>
        <time>2021-02-28T09:40:39Z</time>
      </trkpt>
      <trkpt lat="42.85718" lon="1.8372">
        <ele>1374.015</ele>
        <time>2021-02-28T09:40:41Z</time>
      </trkpt>
      <trkpt lat="42.85718" lon="1.8372">
        <ele>1374.015</ele>
        <time>2021-02-28T09:40:43Z</time>
      </trkpt>
      <trkpt lat="42.85718" lon="1.8372">
        <ele>1374.012</ele>
        <time>2021-02-28T09:40:45Z</time>
      </trkpt>
      <trkpt lat="42.85719" lon="1.8372">
        <ele>1373.985</ele>
        <time>2021-02-28T09:40:47Z</time>
      </trkpt>
      <trkpt lat="42.85719" lon="1.8372">
        <ele>1373.897</ele>
        <time>2021-02-28T09:40:49Z</time>
      </trkpt>
      <trkpt lat="42.85718" lon="1.8372">
        <ele>1373.622</ele>
        <time>2021-02-28T09:40:51Z</time>
      </trkpt>
      <trkpt lat="42.85717" lon="1.8372">
        <ele>1371.64</ele>
        <time>2021-02-28T09:40:53Z</time>
      </trkpt>
      <trkpt lat="42.85716" lon="1.8372">
        <ele>1370.426</ele>
        <time>2021-02-28T09:40:55Z</time>
      </trkpt>
      <trkpt lat="42.85713" lon="1.83721">
        <ele>1370.816</ele>
        <time>2021-02-28T09:40:57Z</time>
      </trkpt>
      <trkpt lat="42.8571" lon="1.83721">
        <ele>1371.005</ele>
        <time>2021-02-28T09:40:59Z</time>
      </trkpt>
      <trkpt lat="42.85708" lon="1.83722">
        <ele>1371.215</ele>
        <time>2021-02-28T09:41:01Z</time>
      </trkpt>
      <trkpt lat="42.85708" lon="1.83723">
        <ele>1371.239</ele>
        <time>2021-02-28T09:41:03Z</time>
      </trkpt>
      <trkpt lat="42.85707" lon="1.83724">
        <ele>1370.976</ele>
        <time>2021-02-28T09:41:05Z</time>
      </trkpt>
      <trkpt lat="42.85706" lon="1.83726">
        <ele>1371.056</ele>
        <time>2021-02-28T09:41:07Z</time>
      </trkpt>
      <trkpt lat="42.85704" lon="1.83727">
        <ele>1370.309</ele>
        <time>2021-02-28T09:41:09Z</time>
      </trkpt>
      <trkpt lat="42.85701" lon="1.83729">
        <ele>1369.989</ele>
        <time>2021-02-28T09:41:11Z</time>
      </trkpt>
      <trkpt lat="42.85698" lon="1.83729">
        <ele>1369.394</ele>
        <time>2021-02-28T09:41:13Z</time>
      </trkpt>
      <trkpt lat="42.85696" lon="1.83729">
        <ele>1369.905</ele>
        <time>2021-02-28T09:41:15Z</time>
      </trkpt>
      <trkpt lat="42.85694" lon="1.83729">
        <ele>1369.919</ele>
        <time>2021-02-28T09:41:17Z</time>
      </trkpt>
      <trkpt lat="42.85693" lon="1.8373">
        <ele>1369.434</ele>
        <time>2021-02-28T09:41:19Z</time>
      </trkpt>
      <trkpt lat="42.85692" lon="1.83731">
        <ele>1369.349</ele>
        <time>2021-02-28T09:41:21Z</time>
      </trkpt>
      <trkpt lat="42.85692" lon="1.8373">
        <ele>1369.584</ele>
        <time>2021-02-28T09:41:23Z</time>
      </trkpt>
      <trkpt lat="42.85691" lon="1.83729">
        <ele>1369.56</ele>
        <time>2021-02-28T09:41:25Z</time>
      </trkpt>
      <trkpt lat="42.85688" lon="1.83729">
        <ele>1370.796</ele>
        <time>2021-02-28T09:41:27Z</time>
      </trkpt>
      <trkpt lat="42.85686" lon="1.83729">
        <ele>1373.117</ele>
        <time>2021-02-28T09:41:29Z</time>
      </trkpt>
      <trkpt lat="42.85685" lon="1.83729">
        <ele>1372.749</ele>
        <time>2021-02-28T09:41:31Z</time>
      </trkpt>
      <trkpt lat="42.85684" lon="1.83729">
        <ele>1371.911</ele>
        <time>2021-02-28T09:41:33Z</time>
      </trkpt>
      <trkpt lat="42.85682" lon="1.83729">
        <ele>1372.562</ele>
        <time>2021-02-28T09:41:35Z</time>
      </trkpt>
      <trkpt lat="42.85681" lon="1.83729">
        <ele>1372.843</ele>
        <time>2021-02-28T09:41:37Z</time>
      </trkpt>
      <trkpt lat="42.85679" lon="1.8373">
        <ele>1373.432</ele>
        <time>2021-02-28T09:41:39Z</time>
      </trkpt>
      <trkpt lat="42.85678" lon="1.83731">
        <ele>1372.238</ele>
        <time>2021-02-28T09:41:41Z</time>
      </trkpt>
      <trkpt lat="42.85677" lon="1.83732">
        <ele>1371.152</ele>
        <time>2021-02-28T09:41:43Z</time>
      </trkpt>
      <trkpt lat="42.85675" lon="1.83733">
        <ele>1371.569</ele>
        <time>2021-02-28T09:41:45Z</time>
      </trkpt>
      <trkpt lat="42.85674" lon="1.83734">
        <ele>1370.955</ele>
        <time>2021-02-28T09:41:47Z</time>
      </trkpt>
      <trkpt lat="42.85672" lon="1.83736">
        <ele>1371.622</ele>
        <time>2021-02-28T09:41:49Z</time>
      </trkpt>
      <trkpt lat="42.85671" lon="1.83737">
        <ele>1372.403</ele>
        <time>2021-02-28T09:41:51Z</time>
      </trkpt>
      <trkpt lat="42.8567" lon="1.83737">
        <ele>1373.398</ele>
        <time>2021-02-28T09:41:53Z</time>
      </trkpt>
      <trkpt lat="42.8567" lon="1.83736">
        <ele>1373.398</ele>
        <time>2021-02-28T09:41:55Z</time>
      </trkpt>
      <trkpt lat="42.85669" lon="1.83736">
        <ele>1372.857</ele>
        <time>2021-02-28T09:41:57Z</time>
      </trkpt>
      <trkpt lat="42.85668" lon="1.83734">
        <ele>1372.136</ele>
        <time>2021-02-28T09:41:59Z</time>
      </trkpt>
      <trkpt lat="42.85666" lon="1.83734">
        <ele>1371.826</ele>
        <time>2021-02-28T09:42:01Z</time>
      </trkpt>
      <trkpt lat="42.85667" lon="1.83732">
        <ele>1371.844</ele>
        <time>2021-02-28T09:42:03Z</time>
      </trkpt>
      <trkpt lat="42.85667" lon="1.83731">
        <ele>1372.92</ele>
        <time>2021-02-28T09:42:05Z</time>
      </trkpt>
      <trkpt lat="42.85668" lon="1.83729">
        <ele>1374.072</ele>
        <time>2021-02-28T09:42:07Z</time>
      </trkpt>
      <trkpt lat="42.85667" lon="1.8373">
        <ele>1373.783</ele>
        <time>2021-02-28T09:42:09Z</time>
      </trkpt>
      <trkpt lat="42.85665" lon="1.8373">
        <ele>1374.681</ele>
        <time>2021-02-28T09:42:11Z</time>
      </trkpt>
      <trkpt lat="42.85663" lon="1.83731">
        <ele>1374.279</ele>
        <time>2021-02-28T09:42:13Z</time>
      </trkpt>
      <trkpt lat="42.85662" lon="1.83731">
        <ele>1374.581</ele>
        <time>2021-02-28T09:42:15Z</time>
      </trkpt>
      <trkpt lat="42.85661" lon="1.8373">
        <ele>1373.482</ele>
        <time>2021-02-28T09:42:17Z</time>
      </trkpt>
      <trkpt lat="42.8566" lon="1.8373">
        <ele>1373.549</ele>
        <time>2021-02-28T09:42:19Z</time>
      </trkpt>
      <trkpt lat="42.85659" lon="1.83731">
        <ele>1374.09</ele>
        <time>2021-02-28T09:42:21Z</time>
      </trkpt>
      <trkpt lat="42.85658" lon="1.8373">
        <ele>1373.462</ele>
        <time>2021-02-28T09:42:23Z</time>
      </trkpt>
      <trkpt lat="42.85658" lon="1.83729">
        <ele>1373.02</ele>
        <time>2021-02-28T09:42:25Z</time>
      </trkpt>
      <trkpt lat="42.85657" lon="1.83728">
        <ele>1371.442</ele>
        <time>2021-02-28T09:42:27Z</time>
      </trkpt>
      <trkpt lat="42.85657" lon="1.83727">
        <ele>1372.102</ele>
        <time>2021-02-28T09:42:29Z</time>
      </trkpt>
      <trkpt lat="42.85656" lon="1.83727">
        <ele>1373.315</ele>
        <time>2021-02-28T09:42:31Z</time>
      </trkpt>
      <trkpt lat="42.85656" lon="1.83727">
        <ele>1372.696</ele>
        <time>2021-02-28T09:42:33Z</time>
      </trkpt>
      <trkpt lat="42.85657" lon="1.83729">
        <ele>1372.951</ele>
        <time>2021-02-28T09:42:35Z</time>
      </trkpt>
      <trkpt lat="42.85657" lon="1.83729">
        <ele>1372.786</ele>
        <time>2021-02-28T09:42:37Z</time>
      </trkpt>
      <trkpt lat="42.85656" lon="1.8373">
        <ele>1373.552</ele>
        <time>2021-02-28T09:42:39Z</time>
      </trkpt>
      <trkpt lat="42.85655" lon="1.83731">
        <ele>1373.496</ele>
        <time>2021-02-28T09:42:41Z</time>
      </trkpt>
      <trkpt lat="42.85654" lon="1.83731">
        <ele>1373.586</ele>
        <time>2021-02-28T09:42:43Z</time>
      </trkpt>
      <trkpt lat="42.85653" lon="1.8373">
        <ele>1374.167</ele>
        <time>2021-02-28T09:42:45Z</time>
      </trkpt>
      <trkpt lat="42.85652" lon="1.8373">
        <ele>1375.517</ele>
        <time>2021-02-28T09:42:47Z</time>
      </trkpt>
      <trkpt lat="42.85652" lon="1.8373">
        <ele>1375.537</ele>
        <time>2021-02-28T09:42:49Z</time>
      </trkpt>
      <trkpt lat="42.85651" lon="1.8373">
        <ele>1375.242</ele>
        <time>2021-02-28T09:42:51Z</time>
      </trkpt>
      <trkpt lat="42.85651" lon="1.8373">
        <ele>1375.255</ele>
        <time>2021-02-28T09:42:53Z</time>
      </trkpt>
      <trkpt lat="42.85651" lon="1.8373">
        <ele>1375.266</ele>
        <time>2021-02-28T09:42:55Z</time>
      </trkpt>
      <trkpt lat="42.85651" lon="1.8373">
        <ele>1375.647</ele>
        <time>2021-02-28T09:42:57Z</time>
      </trkpt>
      <trkpt lat="42.85652" lon="1.83731">
        <ele>1375.892</ele>
        <time>2021-02-28T09:42:59Z</time>
      </trkpt>
      <trkpt lat="42.85652" lon="1.83731">
        <ele>1375.892</ele>
        <time>2021-02-28T09:43:01Z</time>
      </trkpt>
      <trkpt lat="42.85651" lon="1.83731">
        <ele>1375.819</ele>
        <time>2021-02-28T09:43:03Z</time>
      </trkpt>
      <trkpt lat="42.85651" lon="1.83731">
        <ele>1375.608</ele>
        <time>2021-02-28T09:43:05Z</time>
      </trkpt>
      <trkpt lat="42.85651" lon="1.83732">
        <ele>1374.807</ele>
        <time>2021-02-28T09:43:07Z</time>
      </trkpt>
      <trkpt lat="42.8565" lon="1.83732">
        <ele>1375.268</ele>
        <time>2021-02-28T09:43:09Z</time>
      </trkpt>
      <trkpt lat="42.85649" lon="1.83731">
        <ele>1375.693</ele>
        <time>2021-02-28T09:43:11Z</time>
      </trkpt>
      <trkpt lat="42.85649" lon="1.83731">
        <ele>1376.18</ele>
        <time>2021-02-28T09:43:13Z</time>
      </trkpt>
      <trkpt lat="42.85648" lon="1.83733">
        <ele>1376.657</ele>
        <time>2021-02-28T09:43:15Z</time>
      </trkpt>
      <trkpt lat="42.85647" lon="1.83734">
        <ele>1377.373</ele>
        <time>2021-02-28T09:43:17Z</time>
      </trkpt>
      <trkpt lat="42.85647" lon="1.83735">
        <ele>1377.341</ele>
        <time>2021-02-28T09:43:19Z</time>
      </trkpt>
      <trkpt lat="42.85648" lon="1.83735">
        <ele>1378.277</ele>
        <time>2021-02-28T09:43:21Z</time>
      </trkpt>
      <trkpt lat="42.85647" lon="1.83735">
        <ele>1379.295</ele>
        <time>2021-02-28T09:43:23Z</time>
      </trkpt>
      <trkpt lat="42.85646" lon="1.83734">
        <ele>1378.801</ele>
        <time>2021-02-28T09:43:25Z</time>
      </trkpt>
      <trkpt lat="42.85646" lon="1.83733">
        <ele>1378.736</ele>
        <time>2021-02-28T09:43:27Z</time>
      </trkpt>
      <trkpt lat="42.85644" lon="1.83732">
        <ele>1378.045</ele>
        <time>2021-02-28T09:43:29Z</time>
      </trkpt>
      <trkpt lat="42.85644" lon="1.83733">
        <ele>1378.895</ele>
        <time>2021-02-28T09:43:31Z</time>
      </trkpt>
      <trkpt lat="42.85644" lon="1.83734">
        <ele>1380.632</ele>
        <time>2021-02-28T09:43:33Z</time>
      </trkpt>
      <trkpt lat="42.85644" lon="1.83734">
        <ele>1380.493</ele>
        <time>2021-02-28T09:43:35Z</time>
      </trkpt>
      <trkpt lat="42.85643" lon="1.83734">
        <ele>1380.585</ele>
        <time>2021-02-28T09:43:37Z</time>
      </trkpt>
      <trkpt lat="42.85643" lon="1.83734">
        <ele>1380.717</ele>
        <time>2021-02-28T09:43:39Z</time>
      </trkpt>
      <trkpt lat="42.85643" lon="1.83734">
        <ele>1380.919</ele>
        <time>2021-02-28T09:43:41Z</time>
      </trkpt>
      <trkpt lat="42.85642" lon="1.83734">
        <ele>1380.84</ele>
        <time>2021-02-28T09:43:43Z</time>
      </trkpt>
      <trkpt lat="42.85641" lon="1.83734">
        <ele>1380.925</ele>
        <time>2021-02-28T09:43:45Z</time>
      </trkpt>
      <trkpt lat="42.8564" lon="1.83734">
        <ele>1382.099</ele>
        <time>2021-02-28T09:43:47Z</time>
      </trkpt>
      <trkpt lat="42.8564" lon="1.83732">
        <ele>1384.054</ele>
        <time>2021-02-28T09:43:49Z</time>
      </trkpt>
      <trkpt lat="42.85639" lon="1.83732">
        <ele>1385.259</ele>
        <time>2021-02-28T09:43:51Z</time>
      </trkpt>
      <trkpt lat="42.85638" lon="1.83732">
        <ele>1385.545</ele>
        <time>2021-02-28T09:43:53Z</time>
      </trkpt>
      <trkpt lat="42.85637" lon="1.83733">
        <ele>1385.754</ele>
        <time>2021-02-28T09:43:55Z</time>
      </trkpt>
      <trkpt lat="42.85637" lon="1.83733">
        <ele>1385.767</ele>
        <time>2021-02-28T09:43:57Z</time>
      </trkpt>
      <trkpt lat="42.85637" lon="1.83733">
        <ele>1385.78</ele>
        <time>2021-02-28T09:43:59Z</time>
      </trkpt>
      <trkpt lat="42.85637" lon="1.83733">
        <ele>1385.663</ele>
        <time>2021-02-28T09:44:01Z</time>
      </trkpt>
      <trkpt lat="42.85636" lon="1.83733">
        <ele>1386.221</ele>
        <time>2021-02-28T09:44:03Z</time>
      </trkpt>
      <trkpt lat="42.85635" lon="1.83734">
        <ele>1387.244</ele>
        <time>2021-02-28T09:44:05Z</time>
      </trkpt>
      <trkpt lat="42.85635" lon="1.83735">
        <ele>1388.418</ele>
        <time>2021-02-28T09:44:07Z</time>
      </trkpt>
      <trkpt lat="42.85634" lon="1.83736">
        <ele>1389.569</ele>
        <time>2021-02-28T09:44:09Z</time>
      </trkpt>
      <trkpt lat="42.85633" lon="1.83736">
        <ele>1389.473</ele>
        <time>2021-02-28T09:44:11Z</time>
      </trkpt>
      <trkpt lat="42.85633" lon="1.83737">
        <ele>1388.357</ele>
        <time>2021-02-28T09:44:13Z</time>
      </trkpt>
      <trkpt lat="42.85631" lon="1.83738">
        <ele>1387.15</ele>
        <time>2021-02-28T09:44:15Z</time>
      </trkpt>
      <trkpt lat="42.8563" lon="1.83738">
        <ele>1387.915</ele>
        <time>2021-02-28T09:44:17Z</time>
      </trkpt>
      <trkpt lat="42.85629" lon="1.83739">
        <ele>1389.145</ele>
        <time>2021-02-28T09:44:19Z</time>
      </trkpt>
      <trkpt lat="42.85628" lon="1.8374">
        <ele>1389.959</ele>
        <time>2021-02-28T09:44:21Z</time>
      </trkpt>
      <trkpt lat="42.85627" lon="1.8374">
        <ele>1390.556</ele>
        <time>2021-02-28T09:44:23Z</time>
      </trkpt>
      <trkpt lat="42.85627" lon="1.83741">
        <ele>1390.754</ele>
        <time>2021-02-28T09:44:25Z</time>
      </trkpt>
      <trkpt lat="42.85626" lon="1.83741">
        <ele>1391.506</ele>
        <time>2021-02-28T09:44:27Z</time>
      </trkpt>
      <trkpt lat="42.85625" lon="1.83741">
        <ele>1392.662</ele>
        <time>2021-02-28T09:44:29Z</time>
      </trkpt>
      <trkpt lat="42.85625" lon="1.8374">
        <ele>1393.543</ele>
        <time>2021-02-28T09:44:31Z</time>
      </trkpt>
      <trkpt lat="42.85624" lon="1.8374">
        <ele>1394.723</ele>
        <time>2021-02-28T09:44:33Z</time>
      </trkpt>
      <trkpt lat="42.85623" lon="1.8374">
        <ele>1394.053</ele>
        <time>2021-02-28T09:44:35Z</time>
      </trkpt>
      <trkpt lat="42.85621" lon="1.8374">
        <ele>1393.341</ele>
        <time>2021-02-28T09:44:37Z</time>
      </trkpt>
      <trkpt lat="42.8562" lon="1.83739">
        <ele>1393.139</ele>
        <time>2021-02-28T09:44:39Z</time>
      </trkpt>
      <trkpt lat="42.85619" lon="1.83739">
        <ele>1393.385</ele>
        <time>2021-02-28T09:44:41Z</time>
      </trkpt>
      <trkpt lat="42.85617" lon="1.83739">
        <ele>1393.879</ele>
        <time>2021-02-28T09:44:43Z</time>
      </trkpt>
      <trkpt lat="42.85616" lon="1.8374">
        <ele>1394.573</ele>
        <time>2021-02-28T09:44:45Z</time>
      </trkpt>
      <trkpt lat="42.85615" lon="1.8374">
        <ele>1395.776</ele>
        <time>2021-02-28T09:44:47Z</time>
      </trkpt>
      <trkpt lat="42.85615" lon="1.83741">
        <ele>1396.8</ele>
        <time>2021-02-28T09:44:49Z</time>
      </trkpt>
      <trkpt lat="42.85614" lon="1.83741">
        <ele>1397.378</ele>
        <time>2021-02-28T09:44:51Z</time>
      </trkpt>
      <trkpt lat="42.85613" lon="1.83741">
        <ele>1398.737</ele>
        <time>2021-02-28T09:44:53Z</time>
      </trkpt>
      <trkpt lat="42.85613" lon="1.8374">
        <ele>1398.828</ele>
        <time>2021-02-28T09:44:55Z</time>
      </trkpt>
      <trkpt lat="42.85612" lon="1.83738">
        <ele>1399.349</ele>
        <time>2021-02-28T09:44:57Z</time>
      </trkpt>
      <trkpt lat="42.85612" lon="1.83737">
        <ele>1399.356</ele>
        <time>2021-02-28T09:44:59Z</time>
      </trkpt>
      <trkpt lat="42.85612" lon="1.83735">
        <ele>1400.309</ele>
        <time>2021-02-28T09:45:01Z</time>
      </trkpt>
      <trkpt lat="42.85612" lon="1.83735">
        <ele>1400.317</ele>
        <time>2021-02-28T09:45:03Z</time>
      </trkpt>
      <trkpt lat="42.85612" lon="1.83735">
        <ele>1400.317</ele>
        <time>2021-02-28T09:45:05Z</time>
      </trkpt>
      <trkpt lat="42.85611" lon="1.83736">
        <ele>1400.862</ele>
        <time>2021-02-28T09:45:07Z</time>
      </trkpt>
      <trkpt lat="42.85611" lon="1.83738">
        <ele>1401.109</ele>
        <time>2021-02-28T09:45:09Z</time>
      </trkpt>
      <trkpt lat="42.85611" lon="1.83738">
        <ele>1401.145</ele>
        <time>2021-02-28T09:45:11Z</time>
      </trkpt>
      <trkpt lat="42.85611" lon="1.83738">
        <ele>1401.545</ele>
        <time>2021-02-28T09:45:13Z</time>
      </trkpt>
      <trkpt lat="42.85611" lon="1.83738">
        <ele>1401.056</ele>
        <time>2021-02-28T09:45:15Z</time>
      </trkpt>
      <trkpt lat="42.85612" lon="1.83738">
        <ele>1401.052</ele>
        <time>2021-02-28T09:45:17Z</time>
      </trkpt>
      <trkpt lat="42.85612" lon="1.83738">
        <ele>1401.055</ele>
        <time>2021-02-28T09:45:19Z</time>
      </trkpt>
      <trkpt lat="42.85612" lon="1.83738">
        <ele>1401.066</ele>
        <time>2021-02-28T09:45:21Z</time>
      </trkpt>
      <trkpt lat="42.85612" lon="1.83738">
        <ele>1401.072</ele>
        <time>2021-02-28T09:45:23Z</time>
      </trkpt>
      <trkpt lat="42.85612" lon="1.83738">
        <ele>1401.44</ele>
        <time>2021-02-28T09:45:25Z</time>
      </trkpt>
      <trkpt lat="42.85612" lon="1.83738">
        <ele>1401.449</ele>
        <time>2021-02-28T09:45:27Z</time>
      </trkpt>
      <trkpt lat="42.85612" lon="1.83738">
        <ele>1401.455</ele>
        <time>2021-02-28T09:45:29Z</time>
      </trkpt>
      <trkpt lat="42.85612" lon="1.83738">
        <ele>1401.462</ele>
        <time>2021-02-28T09:45:31Z</time>
      </trkpt>
      <trkpt lat="42.85612" lon="1.83738">
        <ele>1401.41</ele>
        <time>2021-02-28T09:45:33Z</time>
      </trkpt>
      <trkpt lat="42.85611" lon="1.83738">
        <ele>1401.682</ele>
        <time>2021-02-28T09:45:35Z</time>
      </trkpt>
      <trkpt lat="42.85611" lon="1.83737">
        <ele>1401.67</ele>
        <time>2021-02-28T09:45:37Z</time>
      </trkpt>
      <trkpt lat="42.85611" lon="1.83736">
        <ele>1402.02</ele>
        <time>2021-02-28T09:45:39Z</time>
      </trkpt>
      <trkpt lat="42.8561" lon="1.83736">
        <ele>1402.362</ele>
        <time>2021-02-28T09:45:41Z</time>
      </trkpt>
      <trkpt lat="42.8561" lon="1.83736">
        <ele>1402.36</ele>
        <time>2021-02-28T09:45:43Z</time>
      </trkpt>
      <trkpt lat="42.8561" lon="1.83736">
        <ele>1402.359</ele>
        <time>2021-02-28T09:45:45Z</time>
      </trkpt>
      <trkpt lat="42.8561" lon="1.83736">
        <ele>1402.122</ele>
        <time>2021-02-28T09:45:46Z</time>
      </trkpt>
      <trkpt lat="42.8561" lon="1.83734">
        <ele>1402.916</ele>
        <time>2021-02-28T09:45:53Z</time>
      </trkpt>
      <trkpt lat="42.8561" lon="1.83733">
        <ele>1402.052</ele>
        <time>2021-02-28T09:45:55Z</time>
      </trkpt>
      <trkpt lat="42.8561" lon="1.83733">
        <ele>1401.371</ele>
        <time>2021-02-28T09:45:57Z</time>
      </trkpt>
      <trkpt lat="42.8561" lon="1.83733">
        <ele>1401.627</ele>
        <time>2021-02-28T09:45:59Z</time>
      </trkpt>
      <trkpt lat="42.8561" lon="1.83733">
        <ele>1401.635</ele>
        <time>2021-02-28T09:46:01Z</time>
      </trkpt>
      <trkpt lat="42.8561" lon="1.83733">
        <ele>1401.643</ele>
        <time>2021-02-28T09:46:03Z</time>
      </trkpt>
      <trkpt lat="42.8561" lon="1.83733">
        <ele>1401.648</ele>
        <time>2021-02-28T09:46:05Z</time>
      </trkpt>
      <trkpt lat="42.8561" lon="1.83734">
        <ele>1402.196</ele>
        <time>2021-02-28T09:46:07Z</time>
      </trkpt>
      <trkpt lat="42.85609" lon="1.83738">
        <ele>1402.931</ele>
        <time>2021-02-28T09:46:13Z</time>
      </trkpt>
      <trkpt lat="42.85609" lon="1.83739">
        <ele>1403.146</ele>
        <time>2021-02-28T09:46:15Z</time>
      </trkpt>
      <trkpt lat="42.85609" lon="1.83739">
        <ele>1403.149</ele>
        <time>2021-02-28T09:46:17Z</time>
      </trkpt>
      <trkpt lat="42.85609" lon="1.83739">
        <ele>1403.784</ele>
        <time>2021-02-28T09:46:19Z</time>
      </trkpt>
      <trkpt lat="42.85609" lon="1.83738">
        <ele>1403.922</ele>
        <time>2021-02-28T09:46:21Z</time>
      </trkpt>
      <trkpt lat="42.85609" lon="1.83738">
        <ele>1404.094</ele>
        <time>2021-02-28T09:46:23Z</time>
      </trkpt>
      <trkpt lat="42.85609" lon="1.83738">
        <ele>1404.099</ele>
        <time>2021-02-28T09:46:25Z</time>
      </trkpt>
      <trkpt lat="42.85609" lon="1.83738">
        <ele>1404.392</ele>
        <time>2021-02-28T09:46:27Z</time>
      </trkpt>
      <trkpt lat="42.85609" lon="1.83738">
        <ele>1404.391</ele>
        <time>2021-02-28T09:46:29Z</time>
      </trkpt>
      <trkpt lat="42.85609" lon="1.83738">
        <ele>1404.388</ele>
        <time>2021-02-28T09:46:31Z</time>
      </trkpt>
      <trkpt lat="42.85609" lon="1.83738">
        <ele>1404.392</ele>
        <time>2021-02-28T09:46:33Z</time>
      </trkpt>
      <trkpt lat="42.85609" lon="1.83738">
        <ele>1404.394</ele>
        <time>2021-02-28T09:46:35Z</time>
      </trkpt>
      <trkpt lat="42.85609" lon="1.83738">
        <ele>1404.392</ele>
        <time>2021-02-28T09:46:37Z</time>
      </trkpt>
      <trkpt lat="42.85609" lon="1.83738">
        <ele>1404.388</ele>
        <time>2021-02-28T09:46:39Z</time>
      </trkpt>
      <trkpt lat="42.85609" lon="1.83738">
        <ele>1404.387</ele>
        <time>2021-02-28T09:46:41Z</time>
      </trkpt>
      <trkpt lat="42.85609" lon="1.83738">
        <ele>1404.387</ele>
        <time>2021-02-28T09:46:43Z</time>
      </trkpt>
      <trkpt lat="42.85609" lon="1.83738">
        <ele>1404.377</ele>
        <time>2021-02-28T09:46:45Z</time>
      </trkpt>
      <trkpt lat="42.85609" lon="1.83738">
        <ele>1404.285</ele>
        <time>2021-02-28T09:46:47Z</time>
      </trkpt>
      <trkpt lat="42.85609" lon="1.83738">
        <ele>1404.267</ele>
        <time>2021-02-28T09:46:50Z</time>
      </trkpt>
      <trkpt lat="42.85609" lon="1.83738">
        <ele>1404.276</ele>
        <time>2021-02-28T09:46:52Z</time>
      </trkpt>
      <trkpt lat="42.8561" lon="1.83738">
        <ele>1404.681</ele>
        <time>2021-02-28T09:46:54Z</time>
      </trkpt>
      <trkpt lat="42.8561" lon="1.83738">
        <ele>1404.699</ele>
        <time>2021-02-28T09:46:56Z</time>
      </trkpt>
      <trkpt lat="42.8561" lon="1.83738">
        <ele>1404.698</ele>
        <time>2021-02-28T09:46:58Z</time>
      </trkpt>
      <trkpt lat="42.8561" lon="1.83738">
        <ele>1404.703</ele>
        <time>2021-02-28T09:47:00Z</time>
      </trkpt>
      <trkpt lat="42.8561" lon="1.83738">
        <ele>1404.703</ele>
        <time>2021-02-28T09:47:07Z</time>
      </trkpt>
      <trkpt lat="42.8561" lon="1.83738">
        <ele>1404.711</ele>
        <time>2021-02-28T09:47:09Z</time>
      </trkpt>
      <trkpt lat="42.8561" lon="1.83738">
        <ele>1404.715</ele>
        <time>2021-02-28T09:47:11Z</time>
      </trkpt>
      <trkpt lat="42.8561" lon="1.83738">
        <ele>1404.716</ele>
        <time>2021-02-28T09:47:13Z</time>
      </trkpt>
      <trkpt lat="42.8561" lon="1.83738">
        <ele>1404.719</ele>
        <time>2021-02-28T09:47:15Z</time>
      </trkpt>
      <trkpt lat="42.8561" lon="1.83738">
        <ele>1404.722</ele>
        <time>2021-02-28T09:47:17Z</time>
      </trkpt>
      <trkpt lat="42.8561" lon="1.83738">
        <ele>1404.53</ele>
        <time>2021-02-28T09:47:19Z</time>
      </trkpt>
      <trkpt lat="42.8561" lon="1.83738">
        <ele>1404.524</ele>
        <time>2021-02-28T09:47:20Z</time>
      </trkpt>
      <trkpt lat="42.8561" lon="1.83738">
        <ele>1404.504</ele>
        <time>2021-02-28T09:47:27Z</time>
      </trkpt>
      <trkpt lat="42.85609" lon="1.83738">
        <ele>1404.513</ele>
        <time>2021-02-28T09:47:29Z</time>
      </trkpt>
      <trkpt lat="42.85609" lon="1.83738">
        <ele>1404.511</ele>
        <time>2021-02-28T09:47:31Z</time>
      </trkpt>
      <trkpt lat="42.8561" lon="1.83738">
        <ele>1405.072</ele>
        <time>2021-02-28T09:47:33Z</time>
      </trkpt>
      <trkpt lat="42.85609" lon="1.83738">
        <ele>1405.077</ele>
        <time>2021-02-28T09:47:35Z</time>
      </trkpt>
      <trkpt lat="42.85609" lon="1.83738">
        <ele>1405.292</ele>
        <time>2021-02-28T09:47:37Z</time>
      </trkpt>
      <trkpt lat="42.85609" lon="1.83739">
        <ele>1405.275</ele>
        <time>2021-02-28T09:47:39Z</time>
      </trkpt>
      <trkpt lat="42.8561" lon="1.83738">
        <ele>1404.805</ele>
        <time>2021-02-28T09:47:41Z</time>
      </trkpt>
      <trkpt lat="42.8561" lon="1.83738">
        <ele>1404.803</ele>
        <time>2021-02-28T09:47:43Z</time>
      </trkpt>
      <trkpt lat="42.8561" lon="1.83738">
        <ele>1404.792</ele>
        <time>2021-02-28T09:47:45Z</time>
      </trkpt>
      <trkpt lat="42.8561" lon="1.83739">
        <ele>1404.87</ele>
        <time>2021-02-28T09:47:47Z</time>
      </trkpt>
      <trkpt lat="42.85609" lon="1.83739">
        <ele>1404.955</ele>
        <time>2021-02-28T09:47:49Z</time>
      </trkpt>
      <trkpt lat="42.85608" lon="1.8374">
        <ele>1404.566</ele>
        <time>2021-02-28T09:47:51Z</time>
      </trkpt>
      <trkpt lat="42.85608" lon="1.83741">
        <ele>1404.712</ele>
        <time>2021-02-28T09:47:53Z</time>
      </trkpt>
      <trkpt lat="42.85608" lon="1.83742">
        <ele>1404.689</ele>
        <time>2021-02-28T09:47:55Z</time>
      </trkpt>
      <trkpt lat="42.85607" lon="1.83743">
        <ele>1404.729</ele>
        <time>2021-02-28T09:47:57Z</time>
      </trkpt>
      <trkpt lat="42.85606" lon="1.83745">
        <ele>1404.549</ele>
        <time>2021-02-28T09:47:59Z</time>
      </trkpt>
      <trkpt lat="42.85605" lon="1.83748">
        <ele>1404.65</ele>
        <time>2021-02-28T09:48:01Z</time>
      </trkpt>
      <trkpt lat="42.85605" lon="1.83747">
        <ele>1404.746</ele>
        <time>2021-02-28T09:48:03Z</time>
      </trkpt>
      <trkpt lat="42.85605" lon="1.83747">
        <ele>1404.742</ele>
        <time>2021-02-28T09:48:05Z</time>
      </trkpt>
      <trkpt lat="42.85605" lon="1.83747">
        <ele>1404.728</ele>
        <time>2021-02-28T09:48:07Z</time>
      </trkpt>
      <trkpt lat="42.85605" lon="1.83747">
        <ele>1404.729</ele>
        <time>2021-02-28T09:48:09Z</time>
      </trkpt>
      <trkpt lat="42.85605" lon="1.83747">
        <ele>1404.722</ele>
        <time>2021-02-28T09:48:11Z</time>
      </trkpt>
      <trkpt lat="42.85605" lon="1.83747">
        <ele>1404.725</ele>
        <time>2021-02-28T09:48:13Z</time>
      </trkpt>
      <trkpt lat="42.85605" lon="1.83747">
        <ele>1404.724</ele>
        <time>2021-02-28T09:48:15Z</time>
      </trkpt>
      <trkpt lat="42.85605" lon="1.83747">
        <ele>1404.724</ele>
        <time>2021-02-28T09:48:17Z</time>
      </trkpt>
      <trkpt lat="42.85605" lon="1.83747">
        <ele>1404.518</ele>
        <time>2021-02-28T09:48:19Z</time>
      </trkpt>
      <trkpt lat="42.85605" lon="1.83748">
        <ele>1403.986</ele>
        <time>2021-02-28T09:48:21Z</time>
      </trkpt>
      <trkpt lat="42.85605" lon="1.83749">
        <ele>1403.35</ele>
        <time>2021-02-28T09:48:23Z</time>
      </trkpt>
      <trkpt lat="42.85605" lon="1.8375">
        <ele>1403.512</ele>
        <time>2021-02-28T09:48:25Z</time>
      </trkpt>
      <trkpt lat="42.85604" lon="1.83751">
        <ele>1403.199</ele>
        <time>2021-02-28T09:48:27Z</time>
      </trkpt>
      <trkpt lat="42.85603" lon="1.83751">
        <ele>1403.452</ele>
        <time>2021-02-28T09:48:29Z</time>
      </trkpt>
      <trkpt lat="42.85602" lon="1.83752">
        <ele>1403.042</ele>
        <time>2021-02-28T09:48:31Z</time>
      </trkpt>
      <trkpt lat="42.85603" lon="1.83752">
        <ele>1403.301</ele>
        <time>2021-02-28T09:48:33Z</time>
      </trkpt>
      <trkpt lat="42.85603" lon="1.83752">
        <ele>1403.295</ele>
        <time>2021-02-28T09:48:35Z</time>
      </trkpt>
      <trkpt lat="42.85603" lon="1.83752">
        <ele>1403.288</ele>
        <time>2021-02-28T09:48:37Z</time>
      </trkpt>
      <trkpt lat="42.85603" lon="1.83752">
        <ele>1403.054</ele>
        <time>2021-02-28T09:48:39Z</time>
      </trkpt>
      <trkpt lat="42.85603" lon="1.83751">
        <ele>1403.18</ele>
        <time>2021-02-28T09:48:41Z</time>
      </trkpt>
      <trkpt lat="42.85603" lon="1.83751">
        <ele>1403.18</ele>
        <time>2021-02-28T09:48:43Z</time>
      </trkpt>
      <trkpt lat="42.85603" lon="1.83751">
        <ele>1403.173</ele>
        <time>2021-02-28T09:48:45Z</time>
      </trkpt>
      <trkpt lat="42.85603" lon="1.83751">
        <ele>1403.164</ele>
        <time>2021-02-28T09:48:47Z</time>
      </trkpt>
      <trkpt lat="42.85603" lon="1.83751">
        <ele>1403.163</ele>
        <time>2021-02-28T09:48:49Z</time>
      </trkpt>
      <trkpt lat="42.85603" lon="1.83751">
        <ele>1403.165</ele>
        <time>2021-02-28T09:48:51Z</time>
      </trkpt>
      <trkpt lat="42.85603" lon="1.83751">
        <ele>1403.163</ele>
        <time>2021-02-28T09:48:53Z</time>
      </trkpt>
      <trkpt lat="42.85603" lon="1.83751">
        <ele>1403.161</ele>
        <time>2021-02-28T09:48:55Z</time>
      </trkpt>
      <trkpt lat="42.85603" lon="1.83751">
        <ele>1403.157</ele>
        <time>2021-02-28T09:48:57Z</time>
      </trkpt>
      <trkpt lat="42.85603" lon="1.83751">
        <ele>1403.152</ele>
        <time>2021-02-28T09:48:59Z</time>
      </trkpt>
      <trkpt lat="42.85603" lon="1.83751">
        <ele>1403.152</ele>
        <time>2021-02-28T09:49:01Z</time>
      </trkpt>
      <trkpt lat="42.85603" lon="1.83751">
        <ele>1403.15</ele>
        <time>2021-02-28T09:49:03Z</time>
      </trkpt>
      <trkpt lat="42.85603" lon="1.83752">
        <ele>1402.894</ele>
        <time>2021-02-28T09:49:05Z</time>
      </trkpt>
      <trkpt lat="42.85602" lon="1.83753">
        <ele>1402.896</ele>
        <time>2021-02-28T09:49:07Z</time>
      </trkpt>
      <trkpt lat="42.856" lon="1.83754">
        <ele>1403.066</ele>
        <time>2021-02-28T09:49:09Z</time>
      </trkpt>
      <trkpt lat="42.85599" lon="1.83754">
        <ele>1402.69</ele>
        <time>2021-02-28T09:49:11Z</time>
      </trkpt>
      <trkpt lat="42.85597" lon="1.83755">
        <ele>1402.676</ele>
        <time>2021-02-28T09:49:13Z</time>
      </trkpt>
      <trkpt lat="42.85596" lon="1.83755">
        <ele>1402.915</ele>
        <time>2021-02-28T09:49:15Z</time>
      </trkpt>
      <trkpt lat="42.85596" lon="1.83754">
        <ele>1402.919</ele>
        <time>2021-02-28T09:49:17Z</time>
      </trkpt>
      <trkpt lat="42.85596" lon="1.83754">
        <ele>1402.915</ele>
        <time>2021-02-28T09:49:19Z</time>
      </trkpt>
      <trkpt lat="42.85596" lon="1.83755">
        <ele>1403.091</ele>
        <time>2021-02-28T09:49:21Z</time>
      </trkpt>
      <trkpt lat="42.85595" lon="1.83755">
        <ele>1402.971</ele>
        <time>2021-02-28T09:49:23Z</time>
      </trkpt>
      <trkpt lat="42.85595" lon="1.83755">
        <ele>1402.965</ele>
        <time>2021-02-28T09:49:25Z</time>
      </trkpt>
      <trkpt lat="42.85595" lon="1.83755">
        <ele>1402.962</ele>
        <time>2021-02-28T09:49:27Z</time>
      </trkpt>
      <trkpt lat="42.85595" lon="1.83755">
        <ele>1402.962</ele>
        <time>2021-02-28T09:49:29Z</time>
      </trkpt>
      <trkpt lat="42.85595" lon="1.83755">
        <ele>1402.972</ele>
        <time>2021-02-28T09:49:31Z</time>
      </trkpt>
      <trkpt lat="42.85595" lon="1.83755">
        <ele>1402.973</ele>
        <time>2021-02-28T09:49:33Z</time>
      </trkpt>
      <trkpt lat="42.85595" lon="1.83755">
        <ele>1402.981</ele>
        <time>2021-02-28T09:49:35Z</time>
      </trkpt>
      <trkpt lat="42.85595" lon="1.83755">
        <ele>1402.998</ele>
        <time>2021-02-28T09:49:37Z</time>
      </trkpt>
      <trkpt lat="42.85595" lon="1.83755">
        <ele>1402.987</ele>
        <time>2021-02-28T09:49:39Z</time>
      </trkpt>
      <trkpt lat="42.85595" lon="1.83755">
        <ele>1402.977</ele>
        <time>2021-02-28T09:49:41Z</time>
      </trkpt>
      <trkpt lat="42.85595" lon="1.83755">
        <ele>1402.992</ele>
        <time>2021-02-28T09:49:43Z</time>
      </trkpt>
      <trkpt lat="42.85595" lon="1.83756">
        <ele>1402.785</ele>
        <time>2021-02-28T09:49:45Z</time>
      </trkpt>
      <trkpt lat="42.85594" lon="1.83757">
        <ele>1402.354</ele>
        <time>2021-02-28T09:49:47Z</time>
      </trkpt>
      <trkpt lat="42.85593" lon="1.83758">
        <ele>1402.272</ele>
        <time>2021-02-28T09:49:49Z</time>
      </trkpt>
      <trkpt lat="42.85591" lon="1.83758">
        <ele>1402.128</ele>
        <time>2021-02-28T09:49:51Z</time>
      </trkpt>
      <trkpt lat="42.8559" lon="1.83757">
        <ele>1401.967</ele>
        <time>2021-02-28T09:49:53Z</time>
      </trkpt>
      <trkpt lat="42.85588" lon="1.83757">
        <ele>1402.112</ele>
        <time>2021-02-28T09:49:55Z</time>
      </trkpt>
      <trkpt lat="42.85587" lon="1.83758">
        <ele>1402.633</ele>
        <time>2021-02-28T09:49:57Z</time>
      </trkpt>
      <trkpt lat="42.85585" lon="1.83757">
        <ele>1402.063</ele>
        <time>2021-02-28T09:49:59Z</time>
      </trkpt>
      <trkpt lat="42.85584" lon="1.83757">
        <ele>1402.541</ele>
        <time>2021-02-28T09:50:01Z</time>
      </trkpt>
      <trkpt lat="42.85582" lon="1.83757">
        <ele>1402.785</ele>
        <time>2021-02-28T09:50:03Z</time>
      </trkpt>
      <trkpt lat="42.85581" lon="1.83758">
        <ele>1402.826</ele>
        <time>2021-02-28T09:50:05Z</time>
      </trkpt>
      <trkpt lat="42.8558" lon="1.83759">
        <ele>1403.197</ele>
        <time>2021-02-28T09:50:07Z</time>
      </trkpt>
      <trkpt lat="42.85578" lon="1.83759">
        <ele>1403.488</ele>
        <time>2021-02-28T09:50:09Z</time>
      </trkpt>
      <trkpt lat="42.85577" lon="1.83759">
        <ele>1403.804</ele>
        <time>2021-02-28T09:50:11Z</time>
      </trkpt>
      <trkpt lat="42.85575" lon="1.83759">
        <ele>1403.815</ele>
        <time>2021-02-28T09:50:13Z</time>
      </trkpt>
      <trkpt lat="42.85574" lon="1.83759">
        <ele>1404.905</ele>
        <time>2021-02-28T09:50:15Z</time>
      </trkpt>
      <trkpt lat="42.85572" lon="1.83758">
        <ele>1405.131</ele>
        <time>2021-02-28T09:50:17Z</time>
      </trkpt>
      <trkpt lat="42.85571" lon="1.83758">
        <ele>1406.033</ele>
        <time>2021-02-28T09:50:19Z</time>
      </trkpt>
      <trkpt lat="42.8557" lon="1.83758">
        <ele>1407.346</ele>
        <time>2021-02-28T09:50:21Z</time>
      </trkpt>
      <trkpt lat="42.85568" lon="1.83758">
        <ele>1407.519</ele>
        <time>2021-02-28T09:50:23Z</time>
      </trkpt>
      <trkpt lat="42.85567" lon="1.83759">
        <ele>1407.632</ele>
        <time>2021-02-28T09:50:25Z</time>
      </trkpt>
      <trkpt lat="42.85566" lon="1.8376">
        <ele>1408.534</ele>
        <time>2021-02-28T09:50:27Z</time>
      </trkpt>
      <trkpt lat="42.85566" lon="1.83761">
        <ele>1408.543</ele>
        <time>2021-02-28T09:50:29Z</time>
      </trkpt>
      <trkpt lat="42.85565" lon="1.83762">
        <ele>1407.998</ele>
        <time>2021-02-28T09:50:31Z</time>
      </trkpt>
      <trkpt lat="42.85564" lon="1.83763">
        <ele>1407.139</ele>
        <time>2021-02-28T09:50:33Z</time>
      </trkpt>
      <trkpt lat="42.85562" lon="1.83763">
        <ele>1406.109</ele>
        <time>2021-02-28T09:50:35Z</time>
      </trkpt>
      <trkpt lat="42.8556" lon="1.83764">
        <ele>1405.411</ele>
        <time>2021-02-28T09:50:37Z</time>
      </trkpt>
      <trkpt lat="42.8556" lon="1.83764">
        <ele>1405.168</ele>
        <time>2021-02-28T09:50:39Z</time>
      </trkpt>
      <trkpt lat="42.8556" lon="1.83764">
        <ele>1405.161</ele>
        <time>2021-02-28T09:50:41Z</time>
      </trkpt>
      <trkpt lat="42.8556" lon="1.83764">
        <ele>1405.166</ele>
        <time>2021-02-28T09:50:43Z</time>
      </trkpt>
      <trkpt lat="42.8556" lon="1.83764">
        <ele>1405.166</ele>
        <time>2021-02-28T09:50:45Z</time>
      </trkpt>
      <trkpt lat="42.85561" lon="1.83764">
        <ele>1405.44</ele>
        <time>2021-02-28T09:50:47Z</time>
      </trkpt>
      <trkpt lat="42.85562" lon="1.83763">
        <ele>1405.408</ele>
        <time>2021-02-28T09:50:49Z</time>
      </trkpt>
      <trkpt lat="42.85562" lon="1.83763">
        <ele>1405.392</ele>
        <time>2021-02-28T09:50:51Z</time>
      </trkpt>
      <trkpt lat="42.85563" lon="1.83761">
        <ele>1405.828</ele>
        <time>2021-02-28T09:50:53Z</time>
      </trkpt>
      <trkpt lat="42.85563" lon="1.83761">
        <ele>1406.965</ele>
        <time>2021-02-28T09:50:55Z</time>
      </trkpt>
      <trkpt lat="42.85563" lon="1.8376">
        <ele>1406.956</ele>
        <time>2021-02-28T09:50:57Z</time>
      </trkpt>
      <trkpt lat="42.85563" lon="1.8376">
        <ele>1406.95</ele>
        <time>2021-02-28T09:50:59Z</time>
      </trkpt>
      <trkpt lat="42.85563" lon="1.8376">
        <ele>1406.945</ele>
        <time>2021-02-28T09:51:01Z</time>
      </trkpt>
      <trkpt lat="42.85563" lon="1.8376">
        <ele>1406.946</ele>
        <time>2021-02-28T09:51:03Z</time>
      </trkpt>
      <trkpt lat="42.85563" lon="1.8376">
        <ele>1406.948</ele>
        <time>2021-02-28T09:51:05Z</time>
      </trkpt>
      <trkpt lat="42.85563" lon="1.8376">
        <ele>1406.945</ele>
        <time>2021-02-28T09:51:07Z</time>
      </trkpt>
      <trkpt lat="42.85563" lon="1.8376">
        <ele>1406.58</ele>
        <time>2021-02-28T09:51:09Z</time>
      </trkpt>
      <trkpt lat="42.85564" lon="1.83759">
        <ele>1406.306</ele>
        <time>2021-02-28T09:51:11Z</time>
      </trkpt>
      <trkpt lat="42.85565" lon="1.83759">
        <ele>1404.835</ele>
        <time>2021-02-28T09:51:13Z</time>
      </trkpt>
      <trkpt lat="42.85567" lon="1.83759">
        <ele>1403.882</ele>
        <time>2021-02-28T09:51:15Z</time>
      </trkpt>
      <trkpt lat="42.85568" lon="1.83758">
        <ele>1403.582</ele>
        <time>2021-02-28T09:51:17Z</time>
      </trkpt>
      <trkpt lat="42.85568" lon="1.83755">
        <ele>1403.419</ele>
        <time>2021-02-28T09:51:19Z</time>
      </trkpt>
      <trkpt lat="42.85568" lon="1.83754">
        <ele>1403.431</ele>
        <time>2021-02-28T09:51:21Z</time>
      </trkpt>
      <trkpt lat="42.85567" lon="1.83753">
        <ele>1403.922</ele>
        <time>2021-02-28T09:51:23Z</time>
      </trkpt>
      <trkpt lat="42.85567" lon="1.83752">
        <ele>1403.509</ele>
        <time>2021-02-28T09:51:25Z</time>
      </trkpt>
      <trkpt lat="42.85567" lon="1.8375">
        <ele>1402.643</ele>
        <time>2021-02-28T09:51:27Z</time>
      </trkpt>
      <trkpt lat="42.85566" lon="1.83748">
        <ele>1402.504</ele>
        <time>2021-02-28T09:51:29Z</time>
      </trkpt>
      <trkpt lat="42.85566" lon="1.83747">
        <ele>1403.42</ele>
        <time>2021-02-28T09:51:31Z</time>
      </trkpt>
      <trkpt lat="42.85565" lon="1.83745">
        <ele>1404.484</ele>
        <time>2021-02-28T09:51:33Z</time>
      </trkpt>
      <trkpt lat="42.85563" lon="1.83745">
        <ele>1404.029</ele>
        <time>2021-02-28T09:51:35Z</time>
      </trkpt>
      <trkpt lat="42.85562" lon="1.83745">
        <ele>1404.115</ele>
        <time>2021-02-28T09:51:37Z</time>
      </trkpt>
      <trkpt lat="42.85562" lon="1.83746">
        <ele>1404.171</ele>
        <time>2021-02-28T09:51:39Z</time>
      </trkpt>
      <trkpt lat="42.85562" lon="1.83746">
        <ele>1404.174</ele>
        <time>2021-02-28T09:51:41Z</time>
      </trkpt>
      <trkpt lat="42.85562" lon="1.83746">
        <ele>1405.737</ele>
        <time>2021-02-28T09:51:43Z</time>
      </trkpt>
      <trkpt lat="42.85561" lon="1.83747">
        <ele>1405</ele>
        <time>2021-02-28T09:51:45Z</time>
      </trkpt>
      <trkpt lat="42.85561" lon="1.83747">
        <ele>1404.075</ele>
        <time>2021-02-28T09:51:47Z</time>
      </trkpt>
      <trkpt lat="42.8556" lon="1.83748">
        <ele>1403.39</ele>
        <time>2021-02-28T09:51:49Z</time>
      </trkpt>
      <trkpt lat="42.85558" lon="1.83748">
        <ele>1402.29</ele>
        <time>2021-02-28T09:51:51Z</time>
      </trkpt>
      <trkpt lat="42.85558" lon="1.8375">
        <ele>1403.724</ele>
        <time>2021-02-28T09:51:53Z</time>
      </trkpt>
      <trkpt lat="42.85559" lon="1.8375">
        <ele>1404.564</ele>
        <time>2021-02-28T09:51:55Z</time>
      </trkpt>
      <trkpt lat="42.8556" lon="1.8375">
        <ele>1405.555</ele>
        <time>2021-02-28T09:51:57Z</time>
      </trkpt>
      <trkpt lat="42.85558" lon="1.83749">
        <ele>1405.202</ele>
        <time>2021-02-28T09:51:59Z</time>
      </trkpt>
      <trkpt lat="42.85556" lon="1.83749">
        <ele>1404.852</ele>
        <time>2021-02-28T09:52:01Z</time>
      </trkpt>
      <trkpt lat="42.85555" lon="1.83749">
        <ele>1406.649</ele>
        <time>2021-02-28T09:52:03Z</time>
      </trkpt>
      <trkpt lat="42.85554" lon="1.8375">
        <ele>1407.012</ele>
        <time>2021-02-28T09:52:05Z</time>
      </trkpt>
      <trkpt lat="42.85554" lon="1.8375">
        <ele>1407.582</ele>
        <time>2021-02-28T09:52:07Z</time>
      </trkpt>
      <trkpt lat="42.85553" lon="1.83749">
        <ele>1408.014</ele>
        <time>2021-02-28T09:52:09Z</time>
      </trkpt>
      <trkpt lat="42.85554" lon="1.83748">
        <ele>1407.957</ele>
        <time>2021-02-28T09:52:11Z</time>
      </trkpt>
      <trkpt lat="42.85554" lon="1.83748">
        <ele>1407.957</ele>
        <time>2021-02-28T09:52:13Z</time>
      </trkpt>
      <trkpt lat="42.85553" lon="1.83748">
        <ele>1406.891</ele>
        <time>2021-02-28T09:52:15Z</time>
      </trkpt>
      <trkpt lat="42.85551" lon="1.83747">
        <ele>1406.857</ele>
        <time>2021-02-28T09:52:17Z</time>
      </trkpt>
      <trkpt lat="42.85551" lon="1.83749">
        <ele>1406.261</ele>
        <time>2021-02-28T09:52:19Z</time>
      </trkpt>
      <trkpt lat="42.85552" lon="1.8375">
        <ele>1407.071</ele>
        <time>2021-02-28T09:52:21Z</time>
      </trkpt>
      <trkpt lat="42.85551" lon="1.8375">
        <ele>1407.512</ele>
        <time>2021-02-28T09:52:23Z</time>
      </trkpt>
      <trkpt lat="42.85552" lon="1.8375">
        <ele>1407.685</ele>
        <time>2021-02-28T09:52:25Z</time>
      </trkpt>
      <trkpt lat="42.85552" lon="1.8375">
        <ele>1409.303</ele>
        <time>2021-02-28T09:52:27Z</time>
      </trkpt>
      <trkpt lat="42.85552" lon="1.8375">
        <ele>1409.478</ele>
        <time>2021-02-28T09:52:29Z</time>
      </trkpt>
      <trkpt lat="42.85552" lon="1.83751">
        <ele>1409.883</ele>
        <time>2021-02-28T09:52:31Z</time>
      </trkpt>
      <trkpt lat="42.85553" lon="1.83751">
        <ele>1410.158</ele>
        <time>2021-02-28T09:52:33Z</time>
      </trkpt>
      <trkpt lat="42.85553" lon="1.83751">
        <ele>1410.024</ele>
        <time>2021-02-28T09:52:35Z</time>
      </trkpt>
      <trkpt lat="42.85553" lon="1.83751">
        <ele>1410.007</ele>
        <time>2021-02-28T09:52:37Z</time>
      </trkpt>
      <trkpt lat="42.85553" lon="1.83752">
        <ele>1410.068</ele>
        <time>2021-02-28T09:52:39Z</time>
      </trkpt>
      <trkpt lat="42.85553" lon="1.83751">
        <ele>1411.121</ele>
        <time>2021-02-28T09:52:41Z</time>
      </trkpt>
      <trkpt lat="42.85553" lon="1.83751">
        <ele>1411.079</ele>
        <time>2021-02-28T09:52:43Z</time>
      </trkpt>
      <trkpt lat="42.85554" lon="1.83751">
        <ele>1411.257</ele>
        <time>2021-02-28T09:52:45Z</time>
      </trkpt>
      <trkpt lat="42.85555" lon="1.8375">
        <ele>1412.323</ele>
        <time>2021-02-28T09:52:47Z</time>
      </trkpt>
      <trkpt lat="42.85555" lon="1.8375">
        <ele>1412.412</ele>
        <time>2021-02-28T09:52:49Z</time>
      </trkpt>
      <trkpt lat="42.85555" lon="1.8375">
        <ele>1413.302</ele>
        <time>2021-02-28T09:52:51Z</time>
      </trkpt>
      <trkpt lat="42.85553" lon="1.8375">
        <ele>1412.391</ele>
        <time>2021-02-28T09:52:53Z</time>
      </trkpt>
      <trkpt lat="42.85551" lon="1.83751">
        <ele>1412.105</ele>
        <time>2021-02-28T09:52:55Z</time>
      </trkpt>
      <trkpt lat="42.8555" lon="1.83753">
        <ele>1411.294</ele>
        <time>2021-02-28T09:52:57Z</time>
      </trkpt>
      <trkpt lat="42.85551" lon="1.83753">
        <ele>1410.856</ele>
        <time>2021-02-28T09:52:59Z</time>
      </trkpt>
      <trkpt lat="42.85552" lon="1.83752">
        <ele>1410.355</ele>
        <time>2021-02-28T09:53:01Z</time>
      </trkpt>
      <trkpt lat="42.85552" lon="1.83752">
        <ele>1409.656</ele>
        <time>2021-02-28T09:53:03Z</time>
      </trkpt>
      <trkpt lat="42.85553" lon="1.83752">
        <ele>1410.612</ele>
        <time>2021-02-28T09:53:05Z</time>
      </trkpt>
      <trkpt lat="42.85553" lon="1.83752">
        <ele>1410.494</ele>
        <time>2021-02-28T09:53:06Z</time>
      </trkpt>
      <trkpt lat="42.85553" lon="1.83753">
        <ele>1410.4</ele>
        <time>2021-02-28T09:53:11Z</time>
      </trkpt>
      <trkpt lat="42.85554" lon="1.83753">
        <ele>1411.883</ele>
        <time>2021-02-28T09:53:13Z</time>
      </trkpt>
      <trkpt lat="42.85554" lon="1.83753">
        <ele>1411.006</ele>
        <time>2021-02-28T09:53:15Z</time>
      </trkpt>
      <trkpt lat="42.85553" lon="1.83753">
        <ele>1411.019</ele>
        <time>2021-02-28T09:53:17Z</time>
      </trkpt>
      <trkpt lat="42.85553" lon="1.83753">
        <ele>1410.76</ele>
        <time>2021-02-28T09:53:19Z</time>
      </trkpt>
      <trkpt lat="42.85553" lon="1.83753">
        <ele>1409.557</ele>
        <time>2021-02-28T09:53:21Z</time>
      </trkpt>
      <trkpt lat="42.85553" lon="1.83753">
        <ele>1409.776</ele>
        <time>2021-02-28T09:53:23Z</time>
      </trkpt>
      <trkpt lat="42.85555" lon="1.83753">
        <ele>1411.003</ele>
        <time>2021-02-28T09:53:25Z</time>
      </trkpt>
      <trkpt lat="42.85556" lon="1.83753">
        <ele>1411.06</ele>
        <time>2021-02-28T09:53:27Z</time>
      </trkpt>
      <trkpt lat="42.85556" lon="1.83753">
        <ele>1411.327</ele>
        <time>2021-02-28T09:53:29Z</time>
      </trkpt>
      <trkpt lat="42.85556" lon="1.83754">
        <ele>1411.119</ele>
        <time>2021-02-28T09:53:31Z</time>
      </trkpt>
      <trkpt lat="42.85554" lon="1.83754">
        <ele>1410.984</ele>
        <time>2021-02-28T09:53:33Z</time>
      </trkpt>
      <trkpt lat="42.85554" lon="1.83754">
        <ele>1410.513</ele>
        <time>2021-02-28T09:53:35Z</time>
      </trkpt>
      <trkpt lat="42.85555" lon="1.83754">
        <ele>1410.298</ele>
        <time>2021-02-28T09:53:37Z</time>
      </trkpt>
      <trkpt lat="42.85555" lon="1.83754">
        <ele>1410.3</ele>
        <time>2021-02-28T09:53:39Z</time>
      </trkpt>
      <trkpt lat="42.85555" lon="1.83754">
        <ele>1410.299</ele>
        <time>2021-02-28T09:53:41Z</time>
      </trkpt>
      <trkpt lat="42.85555" lon="1.83754">
        <ele>1410.3</ele>
        <time>2021-02-28T09:53:43Z</time>
      </trkpt>
      <trkpt lat="42.85555" lon="1.83754">
        <ele>1410.141</ele>
        <time>2021-02-28T09:53:45Z</time>
      </trkpt>
      <trkpt lat="42.85555" lon="1.83754">
        <ele>1410.146</ele>
        <time>2021-02-28T09:53:47Z</time>
      </trkpt>
      <trkpt lat="42.85555" lon="1.83754">
        <ele>1410.142</ele>
        <time>2021-02-28T09:53:49Z</time>
      </trkpt>
      <trkpt lat="42.85555" lon="1.83754">
        <ele>1410.154</ele>
        <time>2021-02-28T09:53:51Z</time>
      </trkpt>
      <trkpt lat="42.85556" lon="1.83753">
        <ele>1411.052</ele>
        <time>2021-02-28T09:53:53Z</time>
      </trkpt>
      <trkpt lat="42.85556" lon="1.83754">
        <ele>1411.28</ele>
        <time>2021-02-28T09:53:55Z</time>
      </trkpt>
      <trkpt lat="42.85556" lon="1.83754">
        <ele>1411.287</ele>
        <time>2021-02-28T09:53:57Z</time>
      </trkpt>
      <trkpt lat="42.85556" lon="1.83754">
        <ele>1411.294</ele>
        <time>2021-02-28T09:53:59Z</time>
      </trkpt>
      <trkpt lat="42.85556" lon="1.83753">
        <ele>1411.095</ele>
        <time>2021-02-28T09:54:01Z</time>
      </trkpt>
      <trkpt lat="42.85555" lon="1.83753">
        <ele>1410.879</ele>
        <time>2021-02-28T09:54:03Z</time>
      </trkpt>
      <trkpt lat="42.85555" lon="1.83753">
        <ele>1410.887</ele>
        <time>2021-02-28T09:54:05Z</time>
      </trkpt>
      <trkpt lat="42.85555" lon="1.83753">
        <ele>1410.886</ele>
        <time>2021-02-28T09:54:07Z</time>
      </trkpt>
      <trkpt lat="42.85555" lon="1.83753">
        <ele>1410.885</ele>
        <time>2021-02-28T09:54:09Z</time>
      </trkpt>
      <trkpt lat="42.85555" lon="1.83753">
        <ele>1410.878</ele>
        <time>2021-02-28T09:54:11Z</time>
      </trkpt>
      <trkpt lat="42.85555" lon="1.83753">
        <ele>1410.874</ele>
        <time>2021-02-28T09:54:13Z</time>
      </trkpt>
      <trkpt lat="42.85555" lon="1.83753">
        <ele>1411.343</ele>
        <time>2021-02-28T09:54:15Z</time>
      </trkpt>
      <trkpt lat="42.85555" lon="1.83753">
        <ele>1411.335</ele>
        <time>2021-02-28T09:54:17Z</time>
      </trkpt>
      <trkpt lat="42.85555" lon="1.83753">
        <ele>1411.325</ele>
        <time>2021-02-28T09:54:19Z</time>
      </trkpt>
      <trkpt lat="42.85555" lon="1.83753">
        <ele>1411.316</ele>
        <time>2021-02-28T09:54:21Z</time>
      </trkpt>
      <trkpt lat="42.85555" lon="1.83753">
        <ele>1411.3</ele>
        <time>2021-02-28T09:54:23Z</time>
      </trkpt>
      <trkpt lat="42.85555" lon="1.83753">
        <ele>1411.296</ele>
        <time>2021-02-28T09:54:25Z</time>
      </trkpt>
      <trkpt lat="42.85554" lon="1.83753">
        <ele>1411.289</ele>
        <time>2021-02-28T09:54:27Z</time>
      </trkpt>
      <trkpt lat="42.85554" lon="1.83753">
        <ele>1411.293</ele>
        <time>2021-02-28T09:54:29Z</time>
      </trkpt>
      <trkpt lat="42.85554" lon="1.83753">
        <ele>1411.283</ele>
        <time>2021-02-28T09:54:31Z</time>
      </trkpt>
      <trkpt lat="42.85554" lon="1.83753">
        <ele>1411.27</ele>
        <time>2021-02-28T09:54:33Z</time>
      </trkpt>
      <trkpt lat="42.85554" lon="1.83753">
        <ele>1411.274</ele>
        <time>2021-02-28T09:54:35Z</time>
      </trkpt>
      <trkpt lat="42.85554" lon="1.83753">
        <ele>1411.102</ele>
        <time>2021-02-28T09:54:37Z</time>
      </trkpt>
      <trkpt lat="42.85554" lon="1.83753">
        <ele>1411.119</ele>
        <time>2021-02-28T09:54:39Z</time>
      </trkpt>
      <trkpt lat="42.85554" lon="1.83753">
        <ele>1411.119</ele>
        <time>2021-02-28T09:54:41Z</time>
      </trkpt>
      <trkpt lat="42.85554" lon="1.83753">
        <ele>1411.112</ele>
        <time>2021-02-28T09:54:43Z</time>
      </trkpt>
      <trkpt lat="42.85554" lon="1.83753">
        <ele>1411.113</ele>
        <time>2021-02-28T09:54:45Z</time>
      </trkpt>
      <trkpt lat="42.85554" lon="1.83753">
        <ele>1411.364</ele>
        <time>2021-02-28T09:54:47Z</time>
      </trkpt>
      <trkpt lat="42.85553" lon="1.83753">
        <ele>1410.969</ele>
        <time>2021-02-28T09:54:49Z</time>
      </trkpt>
      <trkpt lat="42.85553" lon="1.83753">
        <ele>1410.979</ele>
        <time>2021-02-28T09:54:51Z</time>
      </trkpt>
      <trkpt lat="42.85553" lon="1.83753">
        <ele>1410.987</ele>
        <time>2021-02-28T09:54:53Z</time>
      </trkpt>
      <trkpt lat="42.85553" lon="1.83753">
        <ele>1411.011</ele>
        <time>2021-02-28T09:54:55Z</time>
      </trkpt>
      <trkpt lat="42.85553" lon="1.83753">
        <ele>1411.025</ele>
        <time>2021-02-28T09:54:57Z</time>
      </trkpt>
      <trkpt lat="42.85553" lon="1.83753">
        <ele>1410.08</ele>
        <time>2021-02-28T09:54:59Z</time>
      </trkpt>
      <trkpt lat="42.85554" lon="1.83752">
        <ele>1409.601</ele>
        <time>2021-02-28T09:55:01Z</time>
      </trkpt>
      <trkpt lat="42.85555" lon="1.83752">
        <ele>1409.361</ele>
        <time>2021-02-28T09:55:03Z</time>
      </trkpt>
      <trkpt lat="42.85555" lon="1.83752">
        <ele>1409.372</ele>
        <time>2021-02-28T09:55:05Z</time>
      </trkpt>
      <trkpt lat="42.85555" lon="1.83752">
        <ele>1409.347</ele>
        <time>2021-02-28T09:55:07Z</time>
      </trkpt>
      <trkpt lat="42.85555" lon="1.83752">
        <ele>1409.463</ele>
        <time>2021-02-28T09:55:09Z</time>
      </trkpt>
      <trkpt lat="42.85556" lon="1.83754">
        <ele>1408.989</ele>
        <time>2021-02-28T09:55:11Z</time>
      </trkpt>
      <trkpt lat="42.85556" lon="1.83753">
        <ele>1408.258</ele>
        <time>2021-02-28T09:55:13Z</time>
      </trkpt>
      <trkpt lat="42.85556" lon="1.83752">
        <ele>1408.233</ele>
        <time>2021-02-28T09:55:15Z</time>
      </trkpt>
      <trkpt lat="42.85556" lon="1.83752">
        <ele>1407.316</ele>
        <time>2021-02-28T09:55:17Z</time>
      </trkpt>
      <trkpt lat="42.85556" lon="1.83752">
        <ele>1406.83</ele>
        <time>2021-02-28T09:55:19Z</time>
      </trkpt>
      <trkpt lat="42.85557" lon="1.83753">
        <ele>1406.213</ele>
        <time>2021-02-28T09:55:21Z</time>
      </trkpt>
      <trkpt lat="42.85558" lon="1.83753">
        <ele>1406.133</ele>
        <time>2021-02-28T09:55:23Z</time>
      </trkpt>
      <trkpt lat="42.85558" lon="1.83753">
        <ele>1406.032</ele>
        <time>2021-02-28T09:55:25Z</time>
      </trkpt>
      <trkpt lat="42.85559" lon="1.83753">
        <ele>1405.885</ele>
        <time>2021-02-28T09:55:27Z</time>
      </trkpt>
      <trkpt lat="42.85559" lon="1.83754">
        <ele>1406.067</ele>
        <time>2021-02-28T09:55:29Z</time>
      </trkpt>
      <trkpt lat="42.8556" lon="1.83754">
        <ele>1406.998</ele>
        <time>2021-02-28T09:55:31Z</time>
      </trkpt>
      <trkpt lat="42.85561" lon="1.83751">
        <ele>1407.631</ele>
        <time>2021-02-28T09:55:33Z</time>
      </trkpt>
      <trkpt lat="42.85563" lon="1.83752">
        <ele>1407.981</ele>
        <time>2021-02-28T09:55:35Z</time>
      </trkpt>
      <trkpt lat="42.85564" lon="1.83753">
        <ele>1408.287</ele>
        <time>2021-02-28T09:55:37Z</time>
      </trkpt>
      <trkpt lat="42.85564" lon="1.83753">
        <ele>1408.219</ele>
        <time>2021-02-28T09:55:39Z</time>
      </trkpt>
      <trkpt lat="42.85564" lon="1.83753">
        <ele>1408.624</ele>
        <time>2021-02-28T09:55:41Z</time>
      </trkpt>
      <trkpt lat="42.85565" lon="1.83754">
        <ele>1408.517</ele>
        <time>2021-02-28T09:55:43Z</time>
      </trkpt>
      <trkpt lat="42.85565" lon="1.83756">
        <ele>1408.016</ele>
        <time>2021-02-28T09:55:45Z</time>
      </trkpt>
      <trkpt lat="42.85566" lon="1.83758">
        <ele>1408.049</ele>
        <time>2021-02-28T09:55:47Z</time>
      </trkpt>
      <trkpt lat="42.85567" lon="1.8376">
        <ele>1407.792</ele>
        <time>2021-02-28T09:55:49Z</time>
      </trkpt>
      <trkpt lat="42.85566" lon="1.83761">
        <ele>1407.229</ele>
        <time>2021-02-28T09:55:51Z</time>
      </trkpt>
      <trkpt lat="42.85565" lon="1.83761">
        <ele>1406.004</ele>
        <time>2021-02-28T09:55:53Z</time>
      </trkpt>
      <trkpt lat="42.85564" lon="1.83762">
        <ele>1406.563</ele>
        <time>2021-02-28T09:55:55Z</time>
      </trkpt>
      <trkpt lat="42.85563" lon="1.83763">
        <ele>1406.46</ele>
        <time>2021-02-28T09:55:57Z</time>
      </trkpt>
      <trkpt lat="42.85562" lon="1.83763">
        <ele>1406.397</ele>
        <time>2021-02-28T09:55:59Z</time>
      </trkpt>
      <trkpt lat="42.85561" lon="1.83764">
        <ele>1406.047</ele>
        <time>2021-02-28T09:56:01Z</time>
      </trkpt>
      <trkpt lat="42.85559" lon="1.83765">
        <ele>1406.054</ele>
        <time>2021-02-28T09:56:03Z</time>
      </trkpt>
      <trkpt lat="42.85559" lon="1.83765">
        <ele>1406.888</ele>
        <time>2021-02-28T09:56:05Z</time>
      </trkpt>
      <trkpt lat="42.85558" lon="1.83765">
        <ele>1407.434</ele>
        <time>2021-02-28T09:56:07Z</time>
      </trkpt>
      <trkpt lat="42.85558" lon="1.83765">
        <ele>1407.123</ele>
        <time>2021-02-28T09:56:09Z</time>
      </trkpt>
      <trkpt lat="42.85558" lon="1.83764">
        <ele>1407.433</ele>
        <time>2021-02-28T09:56:11Z</time>
      </trkpt>
      <trkpt lat="42.85557" lon="1.83764">
        <ele>1407.044</ele>
        <time>2021-02-28T09:56:13Z</time>
      </trkpt>
      <trkpt lat="42.85557" lon="1.83764">
        <ele>1407.59</ele>
        <time>2021-02-28T09:56:15Z</time>
      </trkpt>
      <trkpt lat="42.85556" lon="1.83764">
        <ele>1407.293</ele>
        <time>2021-02-28T09:56:17Z</time>
      </trkpt>
      <trkpt lat="42.85555" lon="1.83764">
        <ele>1406.919</ele>
        <time>2021-02-28T09:56:19Z</time>
      </trkpt>
      <trkpt lat="42.85555" lon="1.83763">
        <ele>1407.059</ele>
        <time>2021-02-28T09:56:21Z</time>
      </trkpt>
      <trkpt lat="42.85555" lon="1.83763">
        <ele>1406.79</ele>
        <time>2021-02-28T09:56:23Z</time>
      </trkpt>
      <trkpt lat="42.85554" lon="1.83763">
        <ele>1407.202</ele>
        <time>2021-02-28T09:56:25Z</time>
      </trkpt>
      <trkpt lat="42.85552" lon="1.83763">
        <ele>1406.368</ele>
        <time>2021-02-28T09:56:27Z</time>
      </trkpt>
      <trkpt lat="42.85551" lon="1.83763">
        <ele>1406.906</ele>
        <time>2021-02-28T09:56:29Z</time>
      </trkpt>
      <trkpt lat="42.85551" lon="1.83763">
        <ele>1407.731</ele>
        <time>2021-02-28T09:56:31Z</time>
      </trkpt>
      <trkpt lat="42.8555" lon="1.83761">
        <ele>1406.857</ele>
        <time>2021-02-28T09:56:33Z</time>
      </trkpt>
      <trkpt lat="42.85549" lon="1.83761">
        <ele>1406.415</ele>
        <time>2021-02-28T09:56:35Z</time>
      </trkpt>
      <trkpt lat="42.85549" lon="1.83762">
        <ele>1406.908</ele>
        <time>2021-02-28T09:56:37Z</time>
      </trkpt>
      <trkpt lat="42.85549" lon="1.83762">
        <ele>1407.779</ele>
        <time>2021-02-28T09:56:39Z</time>
      </trkpt>
      <trkpt lat="42.85548" lon="1.83762">
        <ele>1407.583</ele>
        <time>2021-02-28T09:56:41Z</time>
      </trkpt>
      <trkpt lat="42.85547" lon="1.83762">
        <ele>1407.238</ele>
        <time>2021-02-28T09:56:42Z</time>
      </trkpt>
      <trkpt lat="42.85545" lon="1.83762">
        <ele>1407.569</ele>
        <time>2021-02-28T09:56:45Z</time>
      </trkpt>
      <trkpt lat="42.85546" lon="1.83763">
        <ele>1408.892</ele>
        <time>2021-02-28T09:56:47Z</time>
      </trkpt>
      <trkpt lat="42.85545" lon="1.83763">
        <ele>1409.852</ele>
        <time>2021-02-28T09:56:49Z</time>
      </trkpt>
      <trkpt lat="42.85545" lon="1.83763">
        <ele>1410.404</ele>
        <time>2021-02-28T09:56:51Z</time>
      </trkpt>
      <trkpt lat="42.85544" lon="1.83763">
        <ele>1410.814</ele>
        <time>2021-02-28T09:56:53Z</time>
      </trkpt>
      <trkpt lat="42.85543" lon="1.83762">
        <ele>1411.308</ele>
        <time>2021-02-28T09:56:55Z</time>
      </trkpt>
      <trkpt lat="42.85542" lon="1.83761">
        <ele>1411.25</ele>
        <time>2021-02-28T09:56:57Z</time>
      </trkpt>
      <trkpt lat="42.85541" lon="1.83761">
        <ele>1411.09</ele>
        <time>2021-02-28T09:57:00Z</time>
      </trkpt>
      <trkpt lat="42.85542" lon="1.83761">
        <ele>1411.057</ele>
        <time>2021-02-28T09:57:02Z</time>
      </trkpt>
      <trkpt lat="42.85542" lon="1.83761">
        <ele>1411.071</ele>
        <time>2021-02-28T09:57:04Z</time>
      </trkpt>
      <trkpt lat="42.85541" lon="1.83761">
        <ele>1411.453</ele>
        <time>2021-02-28T09:57:06Z</time>
      </trkpt>
      <trkpt lat="42.85541" lon="1.8376">
        <ele>1410.976</ele>
        <time>2021-02-28T09:57:08Z</time>
      </trkpt>
      <trkpt lat="42.8554" lon="1.83761">
        <ele>1410.549</ele>
        <time>2021-02-28T09:57:10Z</time>
      </trkpt>
      <trkpt lat="42.85538" lon="1.8376">
        <ele>1409.839</ele>
        <time>2021-02-28T09:57:12Z</time>
      </trkpt>
      <trkpt lat="42.85538" lon="1.8376">
        <ele>1410.669</ele>
        <time>2021-02-28T09:57:14Z</time>
      </trkpt>
      <trkpt lat="42.85537" lon="1.8376">
        <ele>1410.777</ele>
        <time>2021-02-28T09:57:16Z</time>
      </trkpt>
      <trkpt lat="42.85538" lon="1.8376">
        <ele>1411.317</ele>
        <time>2021-02-28T09:57:18Z</time>
      </trkpt>
      <trkpt lat="42.85538" lon="1.8376">
        <ele>1413.082</ele>
        <time>2021-02-28T09:57:20Z</time>
      </trkpt>
      <trkpt lat="42.85538" lon="1.83759">
        <ele>1413.004</ele>
        <time>2021-02-28T09:57:22Z</time>
      </trkpt>
      <trkpt lat="42.85537" lon="1.83759">
        <ele>1412.503</ele>
        <time>2021-02-28T09:57:24Z</time>
      </trkpt>
      <trkpt lat="42.85537" lon="1.83759">
        <ele>1412.837</ele>
        <time>2021-02-28T09:57:26Z</time>
      </trkpt>
      <trkpt lat="42.85538" lon="1.83759">
        <ele>1412.851</ele>
        <time>2021-02-28T09:57:28Z</time>
      </trkpt>
      <trkpt lat="42.85538" lon="1.83759">
        <ele>1412.863</ele>
        <time>2021-02-28T09:57:30Z</time>
      </trkpt>
      <trkpt lat="42.85537" lon="1.83759">
        <ele>1412.671</ele>
        <time>2021-02-28T09:57:32Z</time>
      </trkpt>
      <trkpt lat="42.85537" lon="1.83759">
        <ele>1412.674</ele>
        <time>2021-02-28T09:57:33Z</time>
      </trkpt>
      <trkpt lat="42.85537" lon="1.83759">
        <ele>1412.745</ele>
        <time>2021-02-28T09:57:40Z</time>
      </trkpt>
      <trkpt lat="42.85537" lon="1.83759">
        <ele>1412.752</ele>
        <time>2021-02-28T09:57:42Z</time>
      </trkpt>
      <trkpt lat="42.85537" lon="1.83759">
        <ele>1412.772</ele>
        <time>2021-02-28T09:57:44Z</time>
      </trkpt>
      <trkpt lat="42.85537" lon="1.8376">
        <ele>1414.466</ele>
        <time>2021-02-28T09:57:46Z</time>
      </trkpt>
      <trkpt lat="42.85537" lon="1.8376">
        <ele>1414.209</ele>
        <time>2021-02-28T09:57:48Z</time>
      </trkpt>
      <trkpt lat="42.85536" lon="1.83761">
        <ele>1415.084</ele>
        <time>2021-02-28T09:57:50Z</time>
      </trkpt>
      <trkpt lat="42.85535" lon="1.83761">
        <ele>1414.99</ele>
        <time>2021-02-28T09:57:52Z</time>
      </trkpt>
      <trkpt lat="42.85534" lon="1.8376">
        <ele>1415.821</ele>
        <time>2021-02-28T09:57:54Z</time>
      </trkpt>
      <trkpt lat="42.85534" lon="1.8376">
        <ele>1417.275</ele>
        <time>2021-02-28T09:57:56Z</time>
      </trkpt>
      <trkpt lat="42.85534" lon="1.8376">
        <ele>1418.08</ele>
        <time>2021-02-28T09:57:58Z</time>
      </trkpt>
      <trkpt lat="42.85535" lon="1.83761">
        <ele>1418.795</ele>
        <time>2021-02-28T09:58:00Z</time>
      </trkpt>
      <trkpt lat="42.85534" lon="1.83762">
        <ele>1419.928</ele>
        <time>2021-02-28T09:58:03Z</time>
      </trkpt>
      <trkpt lat="42.85534" lon="1.83763">
        <ele>1420.561</ele>
        <time>2021-02-28T09:58:05Z</time>
      </trkpt>
      <trkpt lat="42.85533" lon="1.83764">
        <ele>1420.144</ele>
        <time>2021-02-28T09:58:07Z</time>
      </trkpt>
      <trkpt lat="42.85532" lon="1.83764">
        <ele>1421.18</ele>
        <time>2021-02-28T09:58:09Z</time>
      </trkpt>
      <trkpt lat="42.85531" lon="1.83764">
        <ele>1421.946</ele>
        <time>2021-02-28T09:58:11Z</time>
      </trkpt>
      <trkpt lat="42.8553" lon="1.83764">
        <ele>1421.899</ele>
        <time>2021-02-28T09:58:13Z</time>
      </trkpt>
      <trkpt lat="42.8553" lon="1.83764">
        <ele>1421.377</ele>
        <time>2021-02-28T09:58:14Z</time>
      </trkpt>
      <trkpt lat="42.85529" lon="1.83765">
        <ele>1421.262</ele>
        <time>2021-02-28T09:58:17Z</time>
      </trkpt>
      <trkpt lat="42.85528" lon="1.83766">
        <ele>1422.06</ele>
        <time>2021-02-28T09:58:19Z</time>
      </trkpt>
      <trkpt lat="42.85528" lon="1.83768">
        <ele>1422.384</ele>
        <time>2021-02-28T09:58:21Z</time>
      </trkpt>
      <trkpt lat="42.85527" lon="1.83769">
        <ele>1421.677</ele>
        <time>2021-02-28T09:58:23Z</time>
      </trkpt>
      <trkpt lat="42.85527" lon="1.8377">
        <ele>1421.942</ele>
        <time>2021-02-28T09:58:25Z</time>
      </trkpt>
      <trkpt lat="42.85527" lon="1.8377">
        <ele>1422.347</ele>
        <time>2021-02-28T09:58:27Z</time>
      </trkpt>
      <trkpt lat="42.85527" lon="1.83772">
        <ele>1422.532</ele>
        <time>2021-02-28T09:58:29Z</time>
      </trkpt>
      <trkpt lat="42.85527" lon="1.83772">
        <ele>1422.542</ele>
        <time>2021-02-28T09:58:31Z</time>
      </trkpt>
      <trkpt lat="42.85527" lon="1.83772">
        <ele>1423.04</ele>
        <time>2021-02-28T09:58:33Z</time>
      </trkpt>
      <trkpt lat="42.85526" lon="1.83772">
        <ele>1423.084</ele>
        <time>2021-02-28T09:58:35Z</time>
      </trkpt>
      <trkpt lat="42.85526" lon="1.83773">
        <ele>1423.077</ele>
        <time>2021-02-28T09:58:37Z</time>
      </trkpt>
      <trkpt lat="42.85525" lon="1.83774">
        <ele>1424.145</ele>
        <time>2021-02-28T09:58:39Z</time>
      </trkpt>
      <trkpt lat="42.85524" lon="1.83775">
        <ele>1425.328</ele>
        <time>2021-02-28T09:58:41Z</time>
      </trkpt>
      <trkpt lat="42.85524" lon="1.83775">
        <ele>1425.252</ele>
        <time>2021-02-28T09:58:43Z</time>
      </trkpt>
      <trkpt lat="42.85524" lon="1.83775">
        <ele>1425.256</ele>
        <time>2021-02-28T09:58:45Z</time>
      </trkpt>
      <trkpt lat="42.85524" lon="1.83775">
        <ele>1425.094</ele>
        <time>2021-02-28T09:58:47Z</time>
      </trkpt>
      <trkpt lat="42.85523" lon="1.83776">
        <ele>1423.982</ele>
        <time>2021-02-28T09:58:49Z</time>
      </trkpt>
      <trkpt lat="42.85522" lon="1.83777">
        <ele>1423.29</ele>
        <time>2021-02-28T09:58:51Z</time>
      </trkpt>
      <trkpt lat="42.85521" lon="1.83778">
        <ele>1423.544</ele>
        <time>2021-02-28T09:58:53Z</time>
      </trkpt>
      <trkpt lat="42.8552" lon="1.83779">
        <ele>1422.883</ele>
        <time>2021-02-28T09:58:55Z</time>
      </trkpt>
      <trkpt lat="42.85519" lon="1.83781">
        <ele>1422.927</ele>
        <time>2021-02-28T09:58:57Z</time>
      </trkpt>
      <trkpt lat="42.85518" lon="1.83781">
        <ele>1422.035</ele>
        <time>2021-02-28T09:58:59Z</time>
      </trkpt>
      <trkpt lat="42.85517" lon="1.83784">
        <ele>1423.374</ele>
        <time>2021-02-28T09:59:01Z</time>
      </trkpt>
      <trkpt lat="42.85516" lon="1.83786">
        <ele>1422.651</ele>
        <time>2021-02-28T09:59:03Z</time>
      </trkpt>
      <trkpt lat="42.85516" lon="1.83787">
        <ele>1422.774</ele>
        <time>2021-02-28T09:59:05Z</time>
      </trkpt>
      <trkpt lat="42.85515" lon="1.8379">
        <ele>1423.387</ele>
        <time>2021-02-28T09:59:07Z</time>
      </trkpt>
      <trkpt lat="42.85514" lon="1.83792">
        <ele>1424.223</ele>
        <time>2021-02-28T09:59:09Z</time>
      </trkpt>
      <trkpt lat="42.85513" lon="1.83793">
        <ele>1423.577</ele>
        <time>2021-02-28T09:59:11Z</time>
      </trkpt>
      <trkpt lat="42.85512" lon="1.83794">
        <ele>1422.864</ele>
        <time>2021-02-28T09:59:13Z</time>
      </trkpt>
      <trkpt lat="42.8551" lon="1.83794">
        <ele>1424.34</ele>
        <time>2021-02-28T09:59:15Z</time>
      </trkpt>
      <trkpt lat="42.85509" lon="1.83795">
        <ele>1424.392</ele>
        <time>2021-02-28T09:59:17Z</time>
      </trkpt>
      <trkpt lat="42.85508" lon="1.83795">
        <ele>1425.769</ele>
        <time>2021-02-28T09:59:19Z</time>
      </trkpt>
      <trkpt lat="42.85507" lon="1.83796">
        <ele>1426.601</ele>
        <time>2021-02-28T09:59:21Z</time>
      </trkpt>
      <trkpt lat="42.85506" lon="1.83797">
        <ele>1427.923</ele>
        <time>2021-02-28T09:59:23Z</time>
      </trkpt>
      <trkpt lat="42.85505" lon="1.83798">
        <ele>1427.496</ele>
        <time>2021-02-28T09:59:25Z</time>
      </trkpt>
      <trkpt lat="42.85503" lon="1.83799">
        <ele>1427.305</ele>
        <time>2021-02-28T09:59:27Z</time>
      </trkpt>
      <trkpt lat="42.85502" lon="1.83799">
        <ele>1427.323</ele>
        <time>2021-02-28T09:59:29Z</time>
      </trkpt>
      <trkpt lat="42.85501" lon="1.838">
        <ele>1426.818</ele>
        <time>2021-02-28T09:59:31Z</time>
      </trkpt>
      <trkpt lat="42.855" lon="1.83801">
        <ele>1426.413</ele>
        <time>2021-02-28T09:59:33Z</time>
      </trkpt>
      <trkpt lat="42.85499" lon="1.83801">
        <ele>1427.114</ele>
        <time>2021-02-28T09:59:35Z</time>
      </trkpt>
      <trkpt lat="42.85499" lon="1.838">
        <ele>1427.322</ele>
        <time>2021-02-28T09:59:37Z</time>
      </trkpt>
      <trkpt lat="42.85498" lon="1.83801">
        <ele>1427.882</ele>
        <time>2021-02-28T09:59:39Z</time>
      </trkpt>
      <trkpt lat="42.85497" lon="1.83802">
        <ele>1428.651</ele>
        <time>2021-02-28T09:59:41Z</time>
      </trkpt>
      <trkpt lat="42.85497" lon="1.83804">
        <ele>1429.521</ele>
        <time>2021-02-28T09:59:43Z</time>
      </trkpt>
      <trkpt lat="42.85497" lon="1.83804">
        <ele>1428.882</ele>
        <time>2021-02-28T09:59:45Z</time>
      </trkpt>
      <trkpt lat="42.85497" lon="1.83805">
        <ele>1429.716</ele>
        <time>2021-02-28T09:59:47Z</time>
      </trkpt>
      <trkpt lat="42.85496" lon="1.83807">
        <ele>1430.709</ele>
        <time>2021-02-28T09:59:49Z</time>
      </trkpt>
      <trkpt lat="42.85495" lon="1.83807">
        <ele>1431.758</ele>
        <time>2021-02-28T09:59:51Z</time>
      </trkpt>
      <trkpt lat="42.85495" lon="1.83808">
        <ele>1431.934</ele>
        <time>2021-02-28T09:59:53Z</time>
      </trkpt>
      <trkpt lat="42.85494" lon="1.83808">
        <ele>1432.357</ele>
        <time>2021-02-28T09:59:55Z</time>
      </trkpt>
      <trkpt lat="42.85493" lon="1.83808">
        <ele>1433.155</ele>
        <time>2021-02-28T09:59:57Z</time>
      </trkpt>
      <trkpt lat="42.85491" lon="1.83809">
        <ele>1433.706</ele>
        <time>2021-02-28T09:59:59Z</time>
      </trkpt>
      <trkpt lat="42.8549" lon="1.8381">
        <ele>1434.745</ele>
        <time>2021-02-28T10:00:01Z</time>
      </trkpt>
      <trkpt lat="42.8549" lon="1.83811">
        <ele>1437.131</ele>
        <time>2021-02-28T10:00:03Z</time>
      </trkpt>
      <trkpt lat="42.85489" lon="1.83811">
        <ele>1437.663</ele>
        <time>2021-02-28T10:00:05Z</time>
      </trkpt>
      <trkpt lat="42.85488" lon="1.83812">
        <ele>1437.775</ele>
        <time>2021-02-28T10:00:07Z</time>
      </trkpt>
      <trkpt lat="42.85488" lon="1.83813">
        <ele>1437.762</ele>
        <time>2021-02-28T10:00:09Z</time>
      </trkpt>
      <trkpt lat="42.85487" lon="1.83812">
        <ele>1438.697</ele>
        <time>2021-02-28T10:00:11Z</time>
      </trkpt>
      <trkpt lat="42.85486" lon="1.83812">
        <ele>1438.683</ele>
        <time>2021-02-28T10:00:13Z</time>
      </trkpt>
      <trkpt lat="42.85485" lon="1.83811">
        <ele>1439.002</ele>
        <time>2021-02-28T10:00:15Z</time>
      </trkpt>
      <trkpt lat="42.85484" lon="1.83811">
        <ele>1440.241</ele>
        <time>2021-02-28T10:00:17Z</time>
      </trkpt>
      <trkpt lat="42.85483" lon="1.83811">
        <ele>1439.714</ele>
        <time>2021-02-28T10:00:19Z</time>
      </trkpt>
      <trkpt lat="42.85483" lon="1.83811">
        <ele>1440.889</ele>
        <time>2021-02-28T10:00:20Z</time>
      </trkpt>
      <trkpt lat="42.85481" lon="1.83811">
        <ele>1441.576</ele>
        <time>2021-02-28T10:00:23Z</time>
      </trkpt>
      <trkpt lat="42.8548" lon="1.8381">
        <ele>1442.849</ele>
        <time>2021-02-28T10:00:25Z</time>
      </trkpt>
      <trkpt lat="42.8548" lon="1.83808">
        <ele>1443.523</ele>
        <time>2021-02-28T10:00:27Z</time>
      </trkpt>
      <trkpt lat="42.85479" lon="1.83807">
        <ele>1443.849</ele>
        <time>2021-02-28T10:00:29Z</time>
      </trkpt>
      <trkpt lat="42.85477" lon="1.83807">
        <ele>1443.904</ele>
        <time>2021-02-28T10:00:31Z</time>
      </trkpt>
      <trkpt lat="42.85477" lon="1.83806">
        <ele>1443.931</ele>
        <time>2021-02-28T10:00:33Z</time>
      </trkpt>
      <trkpt lat="42.85477" lon="1.83805">
        <ele>1444.5</ele>
        <time>2021-02-28T10:00:35Z</time>
      </trkpt>
      <trkpt lat="42.85476" lon="1.83805">
        <ele>1444.988</ele>
        <time>2021-02-28T10:00:37Z</time>
      </trkpt>
      <trkpt lat="42.85475" lon="1.83804">
        <ele>1445.606</ele>
        <time>2021-02-28T10:00:39Z</time>
      </trkpt>
      <trkpt lat="42.85474" lon="1.83804">
        <ele>1445.856</ele>
        <time>2021-02-28T10:00:41Z</time>
      </trkpt>
      <trkpt lat="42.85473" lon="1.83804">
        <ele>1446.22</ele>
        <time>2021-02-28T10:00:43Z</time>
      </trkpt>
      <trkpt lat="42.85472" lon="1.83803">
        <ele>1447.041</ele>
        <time>2021-02-28T10:00:45Z</time>
      </trkpt>
      <trkpt lat="42.85471" lon="1.83802">
        <ele>1447.592</ele>
        <time>2021-02-28T10:00:47Z</time>
      </trkpt>
      <trkpt lat="42.85471" lon="1.83801">
        <ele>1448.054</ele>
        <time>2021-02-28T10:00:49Z</time>
      </trkpt>
      <trkpt lat="42.8547" lon="1.83801">
        <ele>1447.83</ele>
        <time>2021-02-28T10:00:51Z</time>
      </trkpt>
      <trkpt lat="42.85468" lon="1.83801">
        <ele>1447.579</ele>
        <time>2021-02-28T10:00:53Z</time>
      </trkpt>
      <trkpt lat="42.85467" lon="1.83802">
        <ele>1447.392</ele>
        <time>2021-02-28T10:00:55Z</time>
      </trkpt>
      <trkpt lat="42.85466" lon="1.83802">
        <ele>1447.578</ele>
        <time>2021-02-28T10:00:57Z</time>
      </trkpt>
      <trkpt lat="42.85465" lon="1.83803">
        <ele>1447.912</ele>
        <time>2021-02-28T10:00:59Z</time>
      </trkpt>
      <trkpt lat="42.85465" lon="1.83803">
        <ele>1448.303</ele>
        <time>2021-02-28T10:01:01Z</time>
      </trkpt>
      <trkpt lat="42.85464" lon="1.83803">
        <ele>1448.07</ele>
        <time>2021-02-28T10:01:03Z</time>
      </trkpt>
      <trkpt lat="42.85463" lon="1.83803">
        <ele>1447.305</ele>
        <time>2021-02-28T10:01:05Z</time>
      </trkpt>
      <trkpt lat="42.85462" lon="1.83805">
        <ele>1447.691</ele>
        <time>2021-02-28T10:01:07Z</time>
      </trkpt>
      <trkpt lat="42.85461" lon="1.83805">
        <ele>1446.478</ele>
        <time>2021-02-28T10:01:09Z</time>
      </trkpt>
      <trkpt lat="42.85459" lon="1.83805">
        <ele>1446.783</ele>
        <time>2021-02-28T10:01:11Z</time>
      </trkpt>
      <trkpt lat="42.85458" lon="1.83806">
        <ele>1446.74</ele>
        <time>2021-02-28T10:01:13Z</time>
      </trkpt>
      <trkpt lat="42.85457" lon="1.83807">
        <ele>1446.601</ele>
        <time>2021-02-28T10:01:15Z</time>
      </trkpt>
      <trkpt lat="42.85457" lon="1.83808">
        <ele>1446.783</ele>
        <time>2021-02-28T10:01:17Z</time>
      </trkpt>
      <trkpt lat="42.85455" lon="1.83809">
        <ele>1447.062</ele>
        <time>2021-02-28T10:01:19Z</time>
      </trkpt>
      <trkpt lat="42.85455" lon="1.8381">
        <ele>1448.045</ele>
        <time>2021-02-28T10:01:21Z</time>
      </trkpt>
      <trkpt lat="42.85454" lon="1.83812">
        <ele>1448.882</ele>
        <time>2021-02-28T10:01:23Z</time>
      </trkpt>
      <trkpt lat="42.85453" lon="1.83813">
        <ele>1449.51</ele>
        <time>2021-02-28T10:01:25Z</time>
      </trkpt>
      <trkpt lat="42.85452" lon="1.83813">
        <ele>1450.281</ele>
        <time>2021-02-28T10:01:27Z</time>
      </trkpt>
      <trkpt lat="42.8545" lon="1.83814">
        <ele>1450.472</ele>
        <time>2021-02-28T10:01:29Z</time>
      </trkpt>
      <trkpt lat="42.8545" lon="1.83814">
        <ele>1450.984</ele>
        <time>2021-02-28T10:01:31Z</time>
      </trkpt>
      <trkpt lat="42.85449" lon="1.83815">
        <ele>1451.343</ele>
        <time>2021-02-28T10:01:33Z</time>
      </trkpt>
      <trkpt lat="42.85447" lon="1.83816">
        <ele>1452.32</ele>
        <time>2021-02-28T10:01:35Z</time>
      </trkpt>
      <trkpt lat="42.85446" lon="1.83817">
        <ele>1452.148</ele>
        <time>2021-02-28T10:01:37Z</time>
      </trkpt>
      <trkpt lat="42.85444" lon="1.83818">
        <ele>1452.163</ele>
        <time>2021-02-28T10:01:39Z</time>
      </trkpt>
      <trkpt lat="42.85443" lon="1.83819">
        <ele>1452.136</ele>
        <time>2021-02-28T10:01:41Z</time>
      </trkpt>
      <trkpt lat="42.85442" lon="1.83821">
        <ele>1452.315</ele>
        <time>2021-02-28T10:01:43Z</time>
      </trkpt>
      <trkpt lat="42.85441" lon="1.83822">
        <ele>1452.365</ele>
        <time>2021-02-28T10:01:45Z</time>
      </trkpt>
      <trkpt lat="42.85439" lon="1.83822">
        <ele>1452.809</ele>
        <time>2021-02-28T10:01:47Z</time>
      </trkpt>
      <trkpt lat="42.85438" lon="1.83823">
        <ele>1453.226</ele>
        <time>2021-02-28T10:01:49Z</time>
      </trkpt>
      <trkpt lat="42.85437" lon="1.83822">
        <ele>1453.236</ele>
        <time>2021-02-28T10:01:51Z</time>
      </trkpt>
      <trkpt lat="42.85435" lon="1.83821">
        <ele>1452.662</ele>
        <time>2021-02-28T10:01:53Z</time>
      </trkpt>
      <trkpt lat="42.85434" lon="1.83821">
        <ele>1451.953</ele>
        <time>2021-02-28T10:01:55Z</time>
      </trkpt>
      <trkpt lat="42.85432" lon="1.83821">
        <ele>1452.544</ele>
        <time>2021-02-28T10:01:57Z</time>
      </trkpt>
      <trkpt lat="42.85431" lon="1.83822">
        <ele>1453.733</ele>
        <time>2021-02-28T10:01:59Z</time>
      </trkpt>
      <trkpt lat="42.85429" lon="1.83822">
        <ele>1454.087</ele>
        <time>2021-02-28T10:02:01Z</time>
      </trkpt>
      <trkpt lat="42.85428" lon="1.83823">
        <ele>1453.624</ele>
        <time>2021-02-28T10:02:03Z</time>
      </trkpt>
      <trkpt lat="42.85427" lon="1.83823">
        <ele>1453.418</ele>
        <time>2021-02-28T10:02:05Z</time>
      </trkpt>
      <trkpt lat="42.85426" lon="1.83823">
        <ele>1454.504</ele>
        <time>2021-02-28T10:02:07Z</time>
      </trkpt>
      <trkpt lat="42.85425" lon="1.83822">
        <ele>1454.576</ele>
        <time>2021-02-28T10:02:09Z</time>
      </trkpt>
      <trkpt lat="42.85424" lon="1.8382">
        <ele>1454.86</ele>
        <time>2021-02-28T10:02:11Z</time>
      </trkpt>
      <trkpt lat="42.85423" lon="1.8382">
        <ele>1454.555</ele>
        <time>2021-02-28T10:02:13Z</time>
      </trkpt>
      <trkpt lat="42.85421" lon="1.8382">
        <ele>1456.362</ele>
        <time>2021-02-28T10:02:15Z</time>
      </trkpt>
      <trkpt lat="42.85421" lon="1.83821">
        <ele>1457.015</ele>
        <time>2021-02-28T10:02:17Z</time>
      </trkpt>
      <trkpt lat="42.8542" lon="1.83822">
        <ele>1457.375</ele>
        <time>2021-02-28T10:02:19Z</time>
      </trkpt>
      <trkpt lat="42.8542" lon="1.83822">
        <ele>1458.624</ele>
        <time>2021-02-28T10:02:21Z</time>
      </trkpt>
      <trkpt lat="42.85419" lon="1.83822">
        <ele>1458.295</ele>
        <time>2021-02-28T10:02:23Z</time>
      </trkpt>
      <trkpt lat="42.85418" lon="1.83823">
        <ele>1459.955</ele>
        <time>2021-02-28T10:02:25Z</time>
      </trkpt>
      <trkpt lat="42.85419" lon="1.83824">
        <ele>1460.051</ele>
        <time>2021-02-28T10:02:27Z</time>
      </trkpt>
      <trkpt lat="42.85419" lon="1.83824">
        <ele>1460.059</ele>
        <time>2021-02-28T10:02:29Z</time>
      </trkpt>
      <trkpt lat="42.85419" lon="1.83824">
        <ele>1460.724</ele>
        <time>2021-02-28T10:02:31Z</time>
      </trkpt>
      <trkpt lat="42.85418" lon="1.83824">
        <ele>1460.803</ele>
        <time>2021-02-28T10:02:33Z</time>
      </trkpt>
      <trkpt lat="42.85418" lon="1.83824">
        <ele>1460.825</ele>
        <time>2021-02-28T10:02:35Z</time>
      </trkpt>
      <trkpt lat="42.85418" lon="1.83824">
        <ele>1460.558</ele>
        <time>2021-02-28T10:02:37Z</time>
      </trkpt>
      <trkpt lat="42.85418" lon="1.83823">
        <ele>1459.94</ele>
        <time>2021-02-28T10:02:39Z</time>
      </trkpt>
      <trkpt lat="42.85417" lon="1.83822">
        <ele>1460.164</ele>
        <time>2021-02-28T10:02:41Z</time>
      </trkpt>
      <trkpt lat="42.85418" lon="1.83821">
        <ele>1460.811</ele>
        <time>2021-02-28T10:02:43Z</time>
      </trkpt>
      <trkpt lat="42.85418" lon="1.8382">
        <ele>1462.823</ele>
        <time>2021-02-28T10:02:45Z</time>
      </trkpt>
      <trkpt lat="42.85418" lon="1.83819">
        <ele>1463.838</ele>
        <time>2021-02-28T10:02:47Z</time>
      </trkpt>
      <trkpt lat="42.85417" lon="1.83817">
        <ele>1464.485</ele>
        <time>2021-02-28T10:02:49Z</time>
      </trkpt>
      <trkpt lat="42.85416" lon="1.83816">
        <ele>1464.447</ele>
        <time>2021-02-28T10:02:51Z</time>
      </trkpt>
      <trkpt lat="42.85413" lon="1.83815">
        <ele>1465.195</ele>
        <time>2021-02-28T10:02:53Z</time>
      </trkpt>
      <trkpt lat="42.85412" lon="1.83815">
        <ele>1466.3</ele>
        <time>2021-02-28T10:02:55Z</time>
      </trkpt>
      <trkpt lat="42.85411" lon="1.83815">
        <ele>1466.642</ele>
        <time>2021-02-28T10:02:57Z</time>
      </trkpt>
      <trkpt lat="42.85411" lon="1.83814">
        <ele>1466.996</ele>
        <time>2021-02-28T10:02:59Z</time>
      </trkpt>
      <trkpt lat="42.85411" lon="1.83814">
        <ele>1468.4</ele>
        <time>2021-02-28T10:03:01Z</time>
      </trkpt>
      <trkpt lat="42.8541" lon="1.83814">
        <ele>1469.769</ele>
        <time>2021-02-28T10:03:03Z</time>
      </trkpt>
      <trkpt lat="42.8541" lon="1.83813">
        <ele>1470.348</ele>
        <time>2021-02-28T10:03:05Z</time>
      </trkpt>
      <trkpt lat="42.85409" lon="1.83813">
        <ele>1469.912</ele>
        <time>2021-02-28T10:03:07Z</time>
      </trkpt>
      <trkpt lat="42.85408" lon="1.83813">
        <ele>1470.201</ele>
        <time>2021-02-28T10:03:09Z</time>
      </trkpt>
      <trkpt lat="42.85407" lon="1.83813">
        <ele>1470.956</ele>
        <time>2021-02-28T10:03:11Z</time>
      </trkpt>
      <trkpt lat="42.85405" lon="1.83813">
        <ele>1471.903</ele>
        <time>2021-02-28T10:03:13Z</time>
      </trkpt>
      <trkpt lat="42.85404" lon="1.83813">
        <ele>1472.068</ele>
        <time>2021-02-28T10:03:15Z</time>
      </trkpt>
      <trkpt lat="42.85403" lon="1.83812">
        <ele>1472.99</ele>
        <time>2021-02-28T10:03:17Z</time>
      </trkpt>
      <trkpt lat="42.85402" lon="1.83812">
        <ele>1473.618</ele>
        <time>2021-02-28T10:03:19Z</time>
      </trkpt>
      <trkpt lat="42.85401" lon="1.83813">
        <ele>1474.474</ele>
        <time>2021-02-28T10:03:21Z</time>
      </trkpt>
      <trkpt lat="42.854" lon="1.83814">
        <ele>1474.92</ele>
        <time>2021-02-28T10:03:23Z</time>
      </trkpt>
      <trkpt lat="42.854" lon="1.83815">
        <ele>1475.783</ele>
        <time>2021-02-28T10:03:25Z</time>
      </trkpt>
      <trkpt lat="42.854" lon="1.83816">
        <ele>1475.499</ele>
        <time>2021-02-28T10:03:27Z</time>
      </trkpt>
      <trkpt lat="42.854" lon="1.83816">
        <ele>1475.502</ele>
        <time>2021-02-28T10:03:29Z</time>
      </trkpt>
      <trkpt lat="42.85399" lon="1.83817">
        <ele>1475.966</ele>
        <time>2021-02-28T10:03:31Z</time>
      </trkpt>
      <trkpt lat="42.85399" lon="1.83818">
        <ele>1476.324</ele>
        <time>2021-02-28T10:03:33Z</time>
      </trkpt>
      <trkpt lat="42.85399" lon="1.8382">
        <ele>1476.195</ele>
        <time>2021-02-28T10:03:35Z</time>
      </trkpt>
      <trkpt lat="42.85398" lon="1.8382">
        <ele>1476.004</ele>
        <time>2021-02-28T10:03:37Z</time>
      </trkpt>
      <trkpt lat="42.85397" lon="1.83821">
        <ele>1476.742</ele>
        <time>2021-02-28T10:03:39Z</time>
      </trkpt>
      <trkpt lat="42.85396" lon="1.83822">
        <ele>1476.352</ele>
        <time>2021-02-28T10:03:41Z</time>
      </trkpt>
      <trkpt lat="42.85396" lon="1.83823">
        <ele>1477.621</ele>
        <time>2021-02-28T10:03:43Z</time>
      </trkpt>
      <trkpt lat="42.85395" lon="1.83824">
        <ele>1478.723</ele>
        <time>2021-02-28T10:03:45Z</time>
      </trkpt>
      <trkpt lat="42.85394" lon="1.83825">
        <ele>1478.203</ele>
        <time>2021-02-28T10:03:47Z</time>
      </trkpt>
      <trkpt lat="42.85393" lon="1.83826">
        <ele>1478.763</ele>
        <time>2021-02-28T10:03:49Z</time>
      </trkpt>
      <trkpt lat="42.85393" lon="1.83828">
        <ele>1479.883</ele>
        <time>2021-02-28T10:03:51Z</time>
      </trkpt>
      <trkpt lat="42.85392" lon="1.83828">
        <ele>1479.472</ele>
        <time>2021-02-28T10:03:53Z</time>
      </trkpt>
      <trkpt lat="42.85391" lon="1.83829">
        <ele>1479.956</ele>
        <time>2021-02-28T10:03:55Z</time>
      </trkpt>
      <trkpt lat="42.8539" lon="1.83831">
        <ele>1480.181</ele>
        <time>2021-02-28T10:03:57Z</time>
      </trkpt>
      <trkpt lat="42.8539" lon="1.83833">
        <ele>1480.877</ele>
        <time>2021-02-28T10:03:59Z</time>
      </trkpt>
      <trkpt lat="42.85389" lon="1.83835">
        <ele>1481.763</ele>
        <time>2021-02-28T10:04:01Z</time>
      </trkpt>
      <trkpt lat="42.85389" lon="1.83836">
        <ele>1482.328</ele>
        <time>2021-02-28T10:04:03Z</time>
      </trkpt>
      <trkpt lat="42.85389" lon="1.83837">
        <ele>1483.212</ele>
        <time>2021-02-28T10:04:05Z</time>
      </trkpt>
      <trkpt lat="42.85388" lon="1.83839">
        <ele>1483.551</ele>
        <time>2021-02-28T10:04:07Z</time>
      </trkpt>
      <trkpt lat="42.85388" lon="1.83841">
        <ele>1484.032</ele>
        <time>2021-02-28T10:04:09Z</time>
      </trkpt>
      <trkpt lat="42.85388" lon="1.83842">
        <ele>1484.346</ele>
        <time>2021-02-28T10:04:11Z</time>
      </trkpt>
      <trkpt lat="42.85388" lon="1.83843">
        <ele>1485.059</ele>
        <time>2021-02-28T10:04:13Z</time>
      </trkpt>
      <trkpt lat="42.85388" lon="1.83843">
        <ele>1485.581</ele>
        <time>2021-02-28T10:04:15Z</time>
      </trkpt>
      <trkpt lat="42.85388" lon="1.83843">
        <ele>1485.561</ele>
        <time>2021-02-28T10:04:17Z</time>
      </trkpt>
      <trkpt lat="42.85388" lon="1.83843">
        <ele>1485.559</ele>
        <time>2021-02-28T10:04:19Z</time>
      </trkpt>
      <trkpt lat="42.85388" lon="1.83843">
        <ele>1485.554</ele>
        <time>2021-02-28T10:04:21Z</time>
      </trkpt>
      <trkpt lat="42.85388" lon="1.83843">
        <ele>1485.532</ele>
        <time>2021-02-28T10:04:23Z</time>
      </trkpt>
      <trkpt lat="42.85388" lon="1.83843">
        <ele>1485.528</ele>
        <time>2021-02-28T10:04:25Z</time>
      </trkpt>
      <trkpt lat="42.85388" lon="1.83844">
        <ele>1484.977</ele>
        <time>2021-02-28T10:04:27Z</time>
      </trkpt>
      <trkpt lat="42.85387" lon="1.83844">
        <ele>1485.072</ele>
        <time>2021-02-28T10:04:29Z</time>
      </trkpt>
      <trkpt lat="42.85387" lon="1.83844">
        <ele>1485.071</ele>
        <time>2021-02-28T10:04:31Z</time>
      </trkpt>
      <trkpt lat="42.85387" lon="1.83844">
        <ele>1485.069</ele>
        <time>2021-02-28T10:04:33Z</time>
      </trkpt>
      <trkpt lat="42.85387" lon="1.83844">
        <ele>1485.073</ele>
        <time>2021-02-28T10:04:35Z</time>
      </trkpt>
      <trkpt lat="42.85387" lon="1.83844">
        <ele>1485.056</ele>
        <time>2021-02-28T10:04:37Z</time>
      </trkpt>
      <trkpt lat="42.85387" lon="1.83844">
        <ele>1485.061</ele>
        <time>2021-02-28T10:04:39Z</time>
      </trkpt>
      <trkpt lat="42.85387" lon="1.83844">
        <ele>1485.074</ele>
        <time>2021-02-28T10:04:41Z</time>
      </trkpt>
      <trkpt lat="42.85387" lon="1.83844">
        <ele>1485.072</ele>
        <time>2021-02-28T10:04:43Z</time>
      </trkpt>
      <trkpt lat="42.85387" lon="1.83844">
        <ele>1485.074</ele>
        <time>2021-02-28T10:04:45Z</time>
      </trkpt>
      <trkpt lat="42.85387" lon="1.83844">
        <ele>1485.073</ele>
        <time>2021-02-28T10:04:47Z</time>
      </trkpt>
      <trkpt lat="42.85387" lon="1.83844">
        <ele>1485.466</ele>
        <time>2021-02-28T10:04:49Z</time>
      </trkpt>
      <trkpt lat="42.85387" lon="1.83844">
        <ele>1485.463</ele>
        <time>2021-02-28T10:04:51Z</time>
      </trkpt>
      <trkpt lat="42.85387" lon="1.83844">
        <ele>1485.479</ele>
        <time>2021-02-28T10:04:53Z</time>
      </trkpt>
      <trkpt lat="42.85387" lon="1.83844">
        <ele>1485.503</ele>
        <time>2021-02-28T10:04:55Z</time>
      </trkpt>
      <trkpt lat="42.85387" lon="1.83844">
        <ele>1485.511</ele>
        <time>2021-02-28T10:04:57Z</time>
      </trkpt>
      <trkpt lat="42.85387" lon="1.83844">
        <ele>1484.755</ele>
        <time>2021-02-28T10:04:59Z</time>
      </trkpt>
      <trkpt lat="42.85387" lon="1.83844">
        <ele>1486.316</ele>
        <time>2021-02-28T10:05:01Z</time>
      </trkpt>
      <trkpt lat="42.85387" lon="1.83843">
        <ele>1486.321</ele>
        <time>2021-02-28T10:05:03Z</time>
      </trkpt>
      <trkpt lat="42.85387" lon="1.83843">
        <ele>1485.913</ele>
        <time>2021-02-28T10:05:05Z</time>
      </trkpt>
      <trkpt lat="42.85387" lon="1.83843">
        <ele>1485.968</ele>
        <time>2021-02-28T10:05:12Z</time>
      </trkpt>
      <trkpt lat="42.85387" lon="1.83843">
        <ele>1486.144</ele>
        <time>2021-02-28T10:05:14Z</time>
      </trkpt>
      <trkpt lat="42.85387" lon="1.83843">
        <ele>1486.138</ele>
        <time>2021-02-28T10:05:16Z</time>
      </trkpt>
      <trkpt lat="42.85387" lon="1.83843">
        <ele>1485.967</ele>
        <time>2021-02-28T10:05:18Z</time>
      </trkpt>
      <trkpt lat="42.85387" lon="1.83843">
        <ele>1485.963</ele>
        <time>2021-02-28T10:05:20Z</time>
      </trkpt>
      <trkpt lat="42.85386" lon="1.83843">
        <ele>1486.22</ele>
        <time>2021-02-28T10:05:22Z</time>
      </trkpt>
      <trkpt lat="42.85386" lon="1.83843">
        <ele>1486.226</ele>
        <time>2021-02-28T10:05:24Z</time>
      </trkpt>
      <trkpt lat="42.85386" lon="1.83843">
        <ele>1486.239</ele>
        <time>2021-02-28T10:05:26Z</time>
      </trkpt>
      <trkpt lat="42.85386" lon="1.83843">
        <ele>1486.237</ele>
        <time>2021-02-28T10:05:28Z</time>
      </trkpt>
      <trkpt lat="42.85386" lon="1.83843">
        <ele>1486.229</ele>
        <time>2021-02-28T10:05:30Z</time>
      </trkpt>
      <trkpt lat="42.85386" lon="1.83844">
        <ele>1486.153</ele>
        <time>2021-02-28T10:05:32Z</time>
      </trkpt>
      <trkpt lat="42.85386" lon="1.83844">
        <ele>1486.139</ele>
        <time>2021-02-28T10:05:34Z</time>
      </trkpt>
      <trkpt lat="42.85386" lon="1.83844">
        <ele>1486.131</ele>
        <time>2021-02-28T10:05:36Z</time>
      </trkpt>
      <trkpt lat="42.85386" lon="1.83844">
        <ele>1486.125</ele>
        <time>2021-02-28T10:05:38Z</time>
      </trkpt>
      <trkpt lat="42.85386" lon="1.83844">
        <ele>1486.125</ele>
        <time>2021-02-28T10:05:40Z</time>
      </trkpt>
      <trkpt lat="42.85386" lon="1.83844">
        <ele>1485.842</ele>
        <time>2021-02-28T10:05:42Z</time>
      </trkpt>
      <trkpt lat="42.85386" lon="1.83844">
        <ele>1485.829</ele>
        <time>2021-02-28T10:05:44Z</time>
      </trkpt>
      <trkpt lat="42.85386" lon="1.83844">
        <ele>1485.822</ele>
        <time>2021-02-28T10:05:46Z</time>
      </trkpt>
      <trkpt lat="42.85386" lon="1.83844">
        <ele>1485.8</ele>
        <time>2021-02-28T10:05:48Z</time>
      </trkpt>
      <trkpt lat="42.85386" lon="1.83844">
        <ele>1485.794</ele>
        <time>2021-02-28T10:05:50Z</time>
      </trkpt>
      <trkpt lat="42.85386" lon="1.83844">
        <ele>1485.782</ele>
        <time>2021-02-28T10:05:52Z</time>
      </trkpt>
      <trkpt lat="42.85386" lon="1.83844">
        <ele>1485.776</ele>
        <time>2021-02-28T10:05:54Z</time>
      </trkpt>
      <trkpt lat="42.85386" lon="1.83844">
        <ele>1485.778</ele>
        <time>2021-02-28T10:05:56Z</time>
      </trkpt>
      <trkpt lat="42.85386" lon="1.83844">
        <ele>1485.778</ele>
        <time>2021-02-28T10:05:58Z</time>
      </trkpt>
      <trkpt lat="42.85386" lon="1.83843">
        <ele>1485.378</ele>
        <time>2021-02-28T10:06:00Z</time>
      </trkpt>
      <trkpt lat="42.85386" lon="1.83843">
        <ele>1485.37</ele>
        <time>2021-02-28T10:06:02Z</time>
      </trkpt>
      <trkpt lat="42.85386" lon="1.83843">
        <ele>1485.369</ele>
        <time>2021-02-28T10:06:04Z</time>
      </trkpt>
      <trkpt lat="42.85386" lon="1.83843">
        <ele>1485.367</ele>
        <time>2021-02-28T10:06:06Z</time>
      </trkpt>
      <trkpt lat="42.85386" lon="1.83843">
        <ele>1485.361</ele>
        <time>2021-02-28T10:06:08Z</time>
      </trkpt>
      <trkpt lat="42.85386" lon="1.83843">
        <ele>1485.358</ele>
        <time>2021-02-28T10:06:10Z</time>
      </trkpt>
      <trkpt lat="42.85386" lon="1.83843">
        <ele>1485.349</ele>
        <time>2021-02-28T10:06:12Z</time>
      </trkpt>
      <trkpt lat="42.85386" lon="1.83844">
        <ele>1485.345</ele>
        <time>2021-02-28T10:06:14Z</time>
      </trkpt>
      <trkpt lat="42.85386" lon="1.83844">
        <ele>1485.339</ele>
        <time>2021-02-28T10:06:16Z</time>
      </trkpt>
      <trkpt lat="42.85386" lon="1.83844">
        <ele>1485.337</ele>
        <time>2021-02-28T10:06:18Z</time>
      </trkpt>
      <trkpt lat="42.85386" lon="1.83844">
        <ele>1485.337</ele>
        <time>2021-02-28T10:06:20Z</time>
      </trkpt>
      <trkpt lat="42.85386" lon="1.83844">
        <ele>1485.336</ele>
        <time>2021-02-28T10:06:22Z</time>
      </trkpt>
      <trkpt lat="42.85386" lon="1.83844">
        <ele>1485.321</ele>
        <time>2021-02-28T10:06:24Z</time>
      </trkpt>
      <trkpt lat="42.85386" lon="1.83844">
        <ele>1485.315</ele>
        <time>2021-02-28T10:06:26Z</time>
      </trkpt>
      <trkpt lat="42.85386" lon="1.83844">
        <ele>1485.307</ele>
        <time>2021-02-28T10:06:28Z</time>
      </trkpt>
      <trkpt lat="42.85386" lon="1.83844">
        <ele>1485.301</ele>
        <time>2021-02-28T10:06:30Z</time>
      </trkpt>
      <trkpt lat="42.85386" lon="1.83844">
        <ele>1485.3</ele>
        <time>2021-02-28T10:06:32Z</time>
      </trkpt>
      <trkpt lat="42.85386" lon="1.83844">
        <ele>1485.3</ele>
        <time>2021-02-28T10:06:34Z</time>
      </trkpt>
      <trkpt lat="42.85386" lon="1.83844">
        <ele>1485.293</ele>
        <time>2021-02-28T10:06:36Z</time>
      </trkpt>
      <trkpt lat="42.85386" lon="1.83844">
        <ele>1485.293</ele>
        <time>2021-02-28T10:06:38Z</time>
      </trkpt>
      <trkpt lat="42.85386" lon="1.83844">
        <ele>1485.287</ele>
        <time>2021-02-28T10:06:40Z</time>
      </trkpt>
      <trkpt lat="42.85386" lon="1.83844">
        <ele>1485.29</ele>
        <time>2021-02-28T10:06:42Z</time>
      </trkpt>
      <trkpt lat="42.85386" lon="1.83844">
        <ele>1485.284</ele>
        <time>2021-02-28T10:06:44Z</time>
      </trkpt>
      <trkpt lat="42.85386" lon="1.83844">
        <ele>1485.287</ele>
        <time>2021-02-28T10:06:46Z</time>
      </trkpt>
      <trkpt lat="42.85386" lon="1.83844">
        <ele>1485.272</ele>
        <time>2021-02-28T10:06:48Z</time>
      </trkpt>
      <trkpt lat="42.85386" lon="1.83844">
        <ele>1485.267</ele>
        <time>2021-02-28T10:06:50Z</time>
      </trkpt>
      <trkpt lat="42.85386" lon="1.83844">
        <ele>1485.254</ele>
        <time>2021-02-28T10:06:52Z</time>
      </trkpt>
      <trkpt lat="42.85386" lon="1.83844">
        <ele>1485.25</ele>
        <time>2021-02-28T10:06:54Z</time>
      </trkpt>
      <trkpt lat="42.85386" lon="1.83844">
        <ele>1485.247</ele>
        <time>2021-02-28T10:06:56Z</time>
      </trkpt>
      <trkpt lat="42.85386" lon="1.83844">
        <ele>1485.238</ele>
        <time>2021-02-28T10:06:58Z</time>
      </trkpt>
      <trkpt lat="42.85386" lon="1.83844">
        <ele>1485.231</ele>
        <time>2021-02-28T10:07:00Z</time>
      </trkpt>
      <trkpt lat="42.85386" lon="1.83844">
        <ele>1485.241</ele>
        <time>2021-02-28T10:07:02Z</time>
      </trkpt>
      <trkpt lat="42.85386" lon="1.83844">
        <ele>1485.237</ele>
        <time>2021-02-28T10:07:04Z</time>
      </trkpt>
      <trkpt lat="42.85386" lon="1.83844">
        <ele>1485.245</ele>
        <time>2021-02-28T10:07:06Z</time>
      </trkpt>
      <trkpt lat="42.85386" lon="1.83844">
        <ele>1485.245</ele>
        <time>2021-02-28T10:07:08Z</time>
      </trkpt>
      <trkpt lat="42.85385" lon="1.83844">
        <ele>1485.253</ele>
        <time>2021-02-28T10:07:10Z</time>
      </trkpt>
      <trkpt lat="42.85385" lon="1.83844">
        <ele>1485.256</ele>
        <time>2021-02-28T10:07:12Z</time>
      </trkpt>
      <trkpt lat="42.85385" lon="1.83844">
        <ele>1485.257</ele>
        <time>2021-02-28T10:07:14Z</time>
      </trkpt>
      <trkpt lat="42.85385" lon="1.83844">
        <ele>1485.259</ele>
        <time>2021-02-28T10:07:16Z</time>
      </trkpt>
      <trkpt lat="42.85385" lon="1.83844">
        <ele>1485.26</ele>
        <time>2021-02-28T10:07:18Z</time>
      </trkpt>
      <trkpt lat="42.85385" lon="1.83844">
        <ele>1485.26</ele>
        <time>2021-02-28T10:07:20Z</time>
      </trkpt>
      <trkpt lat="42.85386" lon="1.83844">
        <ele>1485.558</ele>
        <time>2021-02-28T10:07:22Z</time>
      </trkpt>
      <trkpt lat="42.85386" lon="1.83844">
        <ele>1485.557</ele>
        <time>2021-02-28T10:07:24Z</time>
      </trkpt>
      <trkpt lat="42.85386" lon="1.83844">
        <ele>1485.551</ele>
        <time>2021-02-28T10:07:26Z</time>
      </trkpt>
      <trkpt lat="42.85386" lon="1.83844">
        <ele>1485.546</ele>
        <time>2021-02-28T10:07:28Z</time>
      </trkpt>
      <trkpt lat="42.85386" lon="1.83844">
        <ele>1485.545</ele>
        <time>2021-02-28T10:07:30Z</time>
      </trkpt>
      <trkpt lat="42.85386" lon="1.83844">
        <ele>1485.532</ele>
        <time>2021-02-28T10:07:32Z</time>
      </trkpt>
      <trkpt lat="42.85386" lon="1.83844">
        <ele>1485.529</ele>
        <time>2021-02-28T10:07:34Z</time>
      </trkpt>
      <trkpt lat="42.85386" lon="1.83844">
        <ele>1485.54</ele>
        <time>2021-02-28T10:07:36Z</time>
      </trkpt>
      <trkpt lat="42.85386" lon="1.83844">
        <ele>1485.548</ele>
        <time>2021-02-28T10:07:38Z</time>
      </trkpt>
      <trkpt lat="42.85386" lon="1.83844">
        <ele>1485.548</ele>
        <time>2021-02-28T10:07:40Z</time>
      </trkpt>
      <trkpt lat="42.85386" lon="1.83844">
        <ele>1485.529</ele>
        <time>2021-02-28T10:07:42Z</time>
      </trkpt>
      <trkpt lat="42.85386" lon="1.83844">
        <ele>1485.52</ele>
        <time>2021-02-28T10:07:44Z</time>
      </trkpt>
      <trkpt lat="42.85386" lon="1.83844">
        <ele>1485.518</ele>
        <time>2021-02-28T10:07:46Z</time>
      </trkpt>
      <trkpt lat="42.85386" lon="1.83844">
        <ele>1485.509</ele>
        <time>2021-02-28T10:07:48Z</time>
      </trkpt>
      <trkpt lat="42.85386" lon="1.83844">
        <ele>1485.506</ele>
        <time>2021-02-28T10:07:50Z</time>
      </trkpt>
      <trkpt lat="42.85386" lon="1.83844">
        <ele>1485.498</ele>
        <time>2021-02-28T10:07:52Z</time>
      </trkpt>
      <trkpt lat="42.85386" lon="1.83844">
        <ele>1485.488</ele>
        <time>2021-02-28T10:07:54Z</time>
      </trkpt>
      <trkpt lat="42.85386" lon="1.83844">
        <ele>1485.484</ele>
        <time>2021-02-28T10:07:56Z</time>
      </trkpt>
      <trkpt lat="42.85386" lon="1.83844">
        <ele>1485.475</ele>
        <time>2021-02-28T10:07:58Z</time>
      </trkpt>
      <trkpt lat="42.85386" lon="1.83844">
        <ele>1485.462</ele>
        <time>2021-02-28T10:08:00Z</time>
      </trkpt>
      <trkpt lat="42.85386" lon="1.83844">
        <ele>1485.454</ele>
        <time>2021-02-28T10:08:02Z</time>
      </trkpt>
      <trkpt lat="42.85386" lon="1.83844">
        <ele>1485.452</ele>
        <time>2021-02-28T10:08:04Z</time>
      </trkpt>
      <trkpt lat="42.85386" lon="1.83844">
        <ele>1485.456</ele>
        <time>2021-02-28T10:08:06Z</time>
      </trkpt>
      <trkpt lat="42.85386" lon="1.83844">
        <ele>1485.465</ele>
        <time>2021-02-28T10:08:08Z</time>
      </trkpt>
      <trkpt lat="42.85386" lon="1.83844">
        <ele>1485.464</ele>
        <time>2021-02-28T10:08:10Z</time>
      </trkpt>
      <trkpt lat="42.85386" lon="1.83844">
        <ele>1485.471</ele>
        <time>2021-02-28T10:08:12Z</time>
      </trkpt>
      <trkpt lat="42.85386" lon="1.83844">
        <ele>1485.468</ele>
        <time>2021-02-28T10:08:14Z</time>
      </trkpt>
      <trkpt lat="42.85385" lon="1.83843">
        <ele>1484.807</ele>
        <time>2021-02-28T10:08:16Z</time>
      </trkpt>
      <trkpt lat="42.85385" lon="1.83843">
        <ele>1484.803</ele>
        <time>2021-02-28T10:08:18Z</time>
      </trkpt>
      <trkpt lat="42.85385" lon="1.83843">
        <ele>1484.809</ele>
        <time>2021-02-28T10:08:20Z</time>
      </trkpt>
      <trkpt lat="42.85385" lon="1.83843">
        <ele>1484.808</ele>
        <time>2021-02-28T10:08:22Z</time>
      </trkpt>
      <trkpt lat="42.85385" lon="1.83843">
        <ele>1484.807</ele>
        <time>2021-02-28T10:08:24Z</time>
      </trkpt>
      <trkpt lat="42.85385" lon="1.83843">
        <ele>1484.81</ele>
        <time>2021-02-28T10:08:26Z</time>
      </trkpt>
      <trkpt lat="42.85385" lon="1.83843">
        <ele>1484.815</ele>
        <time>2021-02-28T10:08:28Z</time>
      </trkpt>
      <trkpt lat="42.85385" lon="1.83843">
        <ele>1484.814</ele>
        <time>2021-02-28T10:08:30Z</time>
      </trkpt>
      <trkpt lat="42.85385" lon="1.83843">
        <ele>1484.818</ele>
        <time>2021-02-28T10:08:32Z</time>
      </trkpt>
      <trkpt lat="42.85385" lon="1.83843">
        <ele>1484.815</ele>
        <time>2021-02-28T10:08:34Z</time>
      </trkpt>
      <trkpt lat="42.85385" lon="1.83843">
        <ele>1484.811</ele>
        <time>2021-02-28T10:08:36Z</time>
      </trkpt>
      <trkpt lat="42.85385" lon="1.83843">
        <ele>1484.132</ele>
        <time>2021-02-28T10:08:38Z</time>
      </trkpt>
      <trkpt lat="42.85385" lon="1.83843">
        <ele>1484.581</ele>
        <time>2021-02-28T10:08:40Z</time>
      </trkpt>
      <trkpt lat="42.85385" lon="1.83844">
        <ele>1484.649</ele>
        <time>2021-02-28T10:08:42Z</time>
      </trkpt>
      <trkpt lat="42.85384" lon="1.83845">
        <ele>1484.277</ele>
        <time>2021-02-28T10:08:44Z</time>
      </trkpt>
      <trkpt lat="42.85382" lon="1.83847">
        <ele>1484.044</ele>
        <time>2021-02-28T10:08:46Z</time>
      </trkpt>
      <trkpt lat="42.85381" lon="1.83848">
        <ele>1484.089</ele>
        <time>2021-02-28T10:08:48Z</time>
      </trkpt>
      <trkpt lat="42.8538" lon="1.83849">
        <ele>1483.596</ele>
        <time>2021-02-28T10:08:50Z</time>
      </trkpt>
      <trkpt lat="42.85379" lon="1.83849">
        <ele>1482.903</ele>
        <time>2021-02-28T10:08:52Z</time>
      </trkpt>
      <trkpt lat="42.85378" lon="1.8385">
        <ele>1481.202</ele>
        <time>2021-02-28T10:08:54Z</time>
      </trkpt>
      <trkpt lat="42.85378" lon="1.83852">
        <ele>1481.323</ele>
        <time>2021-02-28T10:08:56Z</time>
      </trkpt>
      <trkpt lat="42.85377" lon="1.83853">
        <ele>1482.029</ele>
        <time>2021-02-28T10:08:58Z</time>
      </trkpt>
      <trkpt lat="42.85376" lon="1.83855">
        <ele>1482.561</ele>
        <time>2021-02-28T10:09:00Z</time>
      </trkpt>
      <trkpt lat="42.85375" lon="1.83856">
        <ele>1483.413</ele>
        <time>2021-02-28T10:09:02Z</time>
      </trkpt>
      <trkpt lat="42.85374" lon="1.83858">
        <ele>1483.866</ele>
        <time>2021-02-28T10:09:04Z</time>
      </trkpt>
      <trkpt lat="42.85372" lon="1.83859">
        <ele>1483.939</ele>
        <time>2021-02-28T10:09:06Z</time>
      </trkpt>
      <trkpt lat="42.85371" lon="1.83861">
        <ele>1484.545</ele>
        <time>2021-02-28T10:09:08Z</time>
      </trkpt>
      <trkpt lat="42.8537" lon="1.83862">
        <ele>1483.63</ele>
        <time>2021-02-28T10:09:10Z</time>
      </trkpt>
      <trkpt lat="42.85369" lon="1.83863">
        <ele>1483.862</ele>
        <time>2021-02-28T10:09:12Z</time>
      </trkpt>
      <trkpt lat="42.85368" lon="1.83863">
        <ele>1483.616</ele>
        <time>2021-02-28T10:09:14Z</time>
      </trkpt>
      <trkpt lat="42.85366" lon="1.83863">
        <ele>1483.823</ele>
        <time>2021-02-28T10:09:16Z</time>
      </trkpt>
      <trkpt lat="42.85365" lon="1.83863">
        <ele>1484.563</ele>
        <time>2021-02-28T10:09:18Z</time>
      </trkpt>
      <trkpt lat="42.85363" lon="1.83864">
        <ele>1484.834</ele>
        <time>2021-02-28T10:09:20Z</time>
      </trkpt>
      <trkpt lat="42.85361" lon="1.83864">
        <ele>1484.538</ele>
        <time>2021-02-28T10:09:22Z</time>
      </trkpt>
      <trkpt lat="42.85359" lon="1.83864">
        <ele>1484.184</ele>
        <time>2021-02-28T10:09:24Z</time>
      </trkpt>
      <trkpt lat="42.85357" lon="1.83865">
        <ele>1483.725</ele>
        <time>2021-02-28T10:09:26Z</time>
      </trkpt>
      <trkpt lat="42.85355" lon="1.83865">
        <ele>1483.787</ele>
        <time>2021-02-28T10:09:28Z</time>
      </trkpt>
      <trkpt lat="42.85354" lon="1.83866">
        <ele>1483.381</ele>
        <time>2021-02-28T10:09:30Z</time>
      </trkpt>
      <trkpt lat="42.85353" lon="1.83867">
        <ele>1482.832</ele>
        <time>2021-02-28T10:09:32Z</time>
      </trkpt>
      <trkpt lat="42.85351" lon="1.83868">
        <ele>1482.937</ele>
        <time>2021-02-28T10:09:34Z</time>
      </trkpt>
      <trkpt lat="42.8535" lon="1.83869">
        <ele>1482.547</ele>
        <time>2021-02-28T10:09:36Z</time>
      </trkpt>
      <trkpt lat="42.85348" lon="1.83869">
        <ele>1482.243</ele>
        <time>2021-02-28T10:09:38Z</time>
      </trkpt>
      <trkpt lat="42.85347" lon="1.8387">
        <ele>1480.917</ele>
        <time>2021-02-28T10:09:40Z</time>
      </trkpt>
      <trkpt lat="42.85346" lon="1.83871">
        <ele>1481.348</ele>
        <time>2021-02-28T10:09:42Z</time>
      </trkpt>
      <trkpt lat="42.85344" lon="1.83871">
        <ele>1481.737</ele>
        <time>2021-02-28T10:09:44Z</time>
      </trkpt>
      <trkpt lat="42.85343" lon="1.83872">
        <ele>1482.576</ele>
        <time>2021-02-28T10:09:46Z</time>
      </trkpt>
      <trkpt lat="42.8534" lon="1.83873">
        <ele>1482.424</ele>
        <time>2021-02-28T10:09:48Z</time>
      </trkpt>
      <trkpt lat="42.85339" lon="1.83874">
        <ele>1483.262</ele>
        <time>2021-02-28T10:09:50Z</time>
      </trkpt>
      <trkpt lat="42.85338" lon="1.83875">
        <ele>1483.745</ele>
        <time>2021-02-28T10:09:52Z</time>
      </trkpt>
      <trkpt lat="42.85337" lon="1.83877">
        <ele>1483.097</ele>
        <time>2021-02-28T10:09:54Z</time>
      </trkpt>
      <trkpt lat="42.85335" lon="1.83879">
        <ele>1483.884</ele>
        <time>2021-02-28T10:09:56Z</time>
      </trkpt>
      <trkpt lat="42.85335" lon="1.8388">
        <ele>1483.332</ele>
        <time>2021-02-28T10:09:58Z</time>
      </trkpt>
      <trkpt lat="42.85334" lon="1.83881">
        <ele>1483.578</ele>
        <time>2021-02-28T10:10:00Z</time>
      </trkpt>
      <trkpt lat="42.85333" lon="1.83884">
        <ele>1483.618</ele>
        <time>2021-02-28T10:10:02Z</time>
      </trkpt>
      <trkpt lat="42.85333" lon="1.83885">
        <ele>1484.615</ele>
        <time>2021-02-28T10:10:04Z</time>
      </trkpt>
      <trkpt lat="42.85332" lon="1.83886">
        <ele>1485.076</ele>
        <time>2021-02-28T10:10:06Z</time>
      </trkpt>
      <trkpt lat="42.85331" lon="1.83887">
        <ele>1485.295</ele>
        <time>2021-02-28T10:10:08Z</time>
      </trkpt>
      <trkpt lat="42.8533" lon="1.83888">
        <ele>1486.343</ele>
        <time>2021-02-28T10:10:10Z</time>
      </trkpt>
      <trkpt lat="42.8533" lon="1.83889">
        <ele>1487.112</ele>
        <time>2021-02-28T10:10:12Z</time>
      </trkpt>
      <trkpt lat="42.85328" lon="1.8389">
        <ele>1488.692</ele>
        <time>2021-02-28T10:10:14Z</time>
      </trkpt>
      <trkpt lat="42.85328" lon="1.83891">
        <ele>1488.875</ele>
        <time>2021-02-28T10:10:16Z</time>
      </trkpt>
      <trkpt lat="42.85326" lon="1.83892">
        <ele>1489.26</ele>
        <time>2021-02-28T10:10:18Z</time>
      </trkpt>
      <trkpt lat="42.85326" lon="1.83894">
        <ele>1491.411</ele>
        <time>2021-02-28T10:10:20Z</time>
      </trkpt>
      <trkpt lat="42.85324" lon="1.83894">
        <ele>1492.142</ele>
        <time>2021-02-28T10:10:22Z</time>
      </trkpt>
      <trkpt lat="42.85323" lon="1.83895">
        <ele>1491.243</ele>
        <time>2021-02-28T10:10:24Z</time>
      </trkpt>
      <trkpt lat="42.85322" lon="1.83895">
        <ele>1492.045</ele>
        <time>2021-02-28T10:10:26Z</time>
      </trkpt>
      <trkpt lat="42.85321" lon="1.83895">
        <ele>1492.649</ele>
        <time>2021-02-28T10:10:28Z</time>
      </trkpt>
      <trkpt lat="42.85319" lon="1.83896">
        <ele>1494.006</ele>
        <time>2021-02-28T10:10:30Z</time>
      </trkpt>
      <trkpt lat="42.85319" lon="1.83896">
        <ele>1494.415</ele>
        <time>2021-02-28T10:10:32Z</time>
      </trkpt>
      <trkpt lat="42.85318" lon="1.83897">
        <ele>1493.972</ele>
        <time>2021-02-28T10:10:34Z</time>
      </trkpt>
      <trkpt lat="42.85317" lon="1.83898">
        <ele>1494.853</ele>
        <time>2021-02-28T10:10:36Z</time>
      </trkpt>
      <trkpt lat="42.85316" lon="1.83899">
        <ele>1495.465</ele>
        <time>2021-02-28T10:10:38Z</time>
      </trkpt>
      <trkpt lat="42.85314" lon="1.83899">
        <ele>1494.966</ele>
        <time>2021-02-28T10:10:40Z</time>
      </trkpt>
      <trkpt lat="42.85313" lon="1.839">
        <ele>1495.434</ele>
        <time>2021-02-28T10:10:42Z</time>
      </trkpt>
      <trkpt lat="42.85312" lon="1.83901">
        <ele>1495.529</ele>
        <time>2021-02-28T10:10:44Z</time>
      </trkpt>
      <trkpt lat="42.85311" lon="1.83902">
        <ele>1496.049</ele>
        <time>2021-02-28T10:10:46Z</time>
      </trkpt>
      <trkpt lat="42.8531" lon="1.83903">
        <ele>1496.315</ele>
        <time>2021-02-28T10:10:48Z</time>
      </trkpt>
      <trkpt lat="42.85309" lon="1.83904">
        <ele>1496.146</ele>
        <time>2021-02-28T10:10:50Z</time>
      </trkpt>
      <trkpt lat="42.85309" lon="1.83905">
        <ele>1496.153</ele>
        <time>2021-02-28T10:10:52Z</time>
      </trkpt>
      <trkpt lat="42.85308" lon="1.83905">
        <ele>1496.059</ele>
        <time>2021-02-28T10:10:54Z</time>
      </trkpt>
      <trkpt lat="42.85307" lon="1.83905">
        <ele>1496.703</ele>
        <time>2021-02-28T10:10:56Z</time>
      </trkpt>
      <trkpt lat="42.85305" lon="1.83906">
        <ele>1497.51</ele>
        <time>2021-02-28T10:10:58Z</time>
      </trkpt>
      <trkpt lat="42.85305" lon="1.83907">
        <ele>1498.809</ele>
        <time>2021-02-28T10:11:00Z</time>
      </trkpt>
      <trkpt lat="42.85305" lon="1.83908">
        <ele>1498.541</ele>
        <time>2021-02-28T10:11:02Z</time>
      </trkpt>
      <trkpt lat="42.85305" lon="1.8391">
        <ele>1498.541</ele>
        <time>2021-02-28T10:11:04Z</time>
      </trkpt>
      <trkpt lat="42.85303" lon="1.83911">
        <ele>1498.13</ele>
        <time>2021-02-28T10:11:06Z</time>
      </trkpt>
      <trkpt lat="42.85303" lon="1.83912">
        <ele>1497.786</ele>
        <time>2021-02-28T10:11:08Z</time>
      </trkpt>
      <trkpt lat="42.85302" lon="1.83913">
        <ele>1498.588</ele>
        <time>2021-02-28T10:11:10Z</time>
      </trkpt>
      <trkpt lat="42.853" lon="1.83914">
        <ele>1500.17</ele>
        <time>2021-02-28T10:11:12Z</time>
      </trkpt>
      <trkpt lat="42.85299" lon="1.83916">
        <ele>1501.234</ele>
        <time>2021-02-28T10:11:14Z</time>
      </trkpt>
      <trkpt lat="42.853" lon="1.83915">
        <ele>1501.722</ele>
        <time>2021-02-28T10:11:16Z</time>
      </trkpt>
      <trkpt lat="42.85299" lon="1.83916">
        <ele>1500.853</ele>
        <time>2021-02-28T10:11:18Z</time>
      </trkpt>
      <trkpt lat="42.85298" lon="1.83916">
        <ele>1501.939</ele>
        <time>2021-02-28T10:11:20Z</time>
      </trkpt>
      <trkpt lat="42.85297" lon="1.83917">
        <ele>1502.546</ele>
        <time>2021-02-28T10:11:22Z</time>
      </trkpt>
      <trkpt lat="42.85296" lon="1.83918">
        <ele>1502.38</ele>
        <time>2021-02-28T10:11:24Z</time>
      </trkpt>
      <trkpt lat="42.85296" lon="1.83918">
        <ele>1502.953</ele>
        <time>2021-02-28T10:11:26Z</time>
      </trkpt>
      <trkpt lat="42.85295" lon="1.83919">
        <ele>1503.125</ele>
        <time>2021-02-28T10:11:28Z</time>
      </trkpt>
      <trkpt lat="42.85294" lon="1.83921">
        <ele>1503.458</ele>
        <time>2021-02-28T10:11:30Z</time>
      </trkpt>
      <trkpt lat="42.85293" lon="1.83921">
        <ele>1503.526</ele>
        <time>2021-02-28T10:11:32Z</time>
      </trkpt>
      <trkpt lat="42.85292" lon="1.83922">
        <ele>1502.786</ele>
        <time>2021-02-28T10:11:34Z</time>
      </trkpt>
      <trkpt lat="42.85292" lon="1.83922">
        <ele>1501.63</ele>
        <time>2021-02-28T10:11:36Z</time>
      </trkpt>
      <trkpt lat="42.85291" lon="1.83922">
        <ele>1501.778</ele>
        <time>2021-02-28T10:11:38Z</time>
      </trkpt>
      <trkpt lat="42.85291" lon="1.83923">
        <ele>1502.403</ele>
        <time>2021-02-28T10:11:40Z</time>
      </trkpt>
      <trkpt lat="42.8529" lon="1.83924">
        <ele>1503.631</ele>
        <time>2021-02-28T10:11:42Z</time>
      </trkpt>
      <trkpt lat="42.85289" lon="1.83924">
        <ele>1504.538</ele>
        <time>2021-02-28T10:11:44Z</time>
      </trkpt>
      <trkpt lat="42.85288" lon="1.83925">
        <ele>1505.98</ele>
        <time>2021-02-28T10:11:46Z</time>
      </trkpt>
      <trkpt lat="42.85287" lon="1.83927">
        <ele>1506.826</ele>
        <time>2021-02-28T10:11:48Z</time>
      </trkpt>
      <trkpt lat="42.85286" lon="1.83927">
        <ele>1508.38</ele>
        <time>2021-02-28T10:11:50Z</time>
      </trkpt>
      <trkpt lat="42.85285" lon="1.83929">
        <ele>1508.186</ele>
        <time>2021-02-28T10:11:52Z</time>
      </trkpt>
      <trkpt lat="42.85285" lon="1.8393">
        <ele>1508.805</ele>
        <time>2021-02-28T10:11:54Z</time>
      </trkpt>
      <trkpt lat="42.85285" lon="1.83932">
        <ele>1509.385</ele>
        <time>2021-02-28T10:11:56Z</time>
      </trkpt>
      <trkpt lat="42.85285" lon="1.83934">
        <ele>1509.809</ele>
        <time>2021-02-28T10:11:58Z</time>
      </trkpt>
      <trkpt lat="42.85284" lon="1.83935">
        <ele>1510.103</ele>
        <time>2021-02-28T10:12:00Z</time>
      </trkpt>
      <trkpt lat="42.85283" lon="1.83935">
        <ele>1510.344</ele>
        <time>2021-02-28T10:12:02Z</time>
      </trkpt>
      <trkpt lat="42.85282" lon="1.83936">
        <ele>1511.553</ele>
        <time>2021-02-28T10:12:04Z</time>
      </trkpt>
      <trkpt lat="42.85281" lon="1.83936">
        <ele>1512.075</ele>
        <time>2021-02-28T10:12:06Z</time>
      </trkpt>
      <trkpt lat="42.8528" lon="1.83936">
        <ele>1512.296</ele>
        <time>2021-02-28T10:12:08Z</time>
      </trkpt>
      <trkpt lat="42.85279" lon="1.83937">
        <ele>1512.205</ele>
        <time>2021-02-28T10:12:10Z</time>
      </trkpt>
      <trkpt lat="42.85278" lon="1.83938">
        <ele>1512.419</ele>
        <time>2021-02-28T10:12:12Z</time>
      </trkpt>
      <trkpt lat="42.85278" lon="1.83939">
        <ele>1513.144</ele>
        <time>2021-02-28T10:12:14Z</time>
      </trkpt>
      <trkpt lat="42.85277" lon="1.83941">
        <ele>1513.252</ele>
        <time>2021-02-28T10:12:16Z</time>
      </trkpt>
      <trkpt lat="42.85276" lon="1.83941">
        <ele>1513.757</ele>
        <time>2021-02-28T10:12:18Z</time>
      </trkpt>
      <trkpt lat="42.85275" lon="1.83942">
        <ele>1514.022</ele>
        <time>2021-02-28T10:12:20Z</time>
      </trkpt>
      <trkpt lat="42.85274" lon="1.83943">
        <ele>1514.661</ele>
        <time>2021-02-28T10:12:22Z</time>
      </trkpt>
      <trkpt lat="42.85273" lon="1.83943">
        <ele>1514.139</ele>
        <time>2021-02-28T10:12:24Z</time>
      </trkpt>
      <trkpt lat="42.85272" lon="1.83944">
        <ele>1514.456</ele>
        <time>2021-02-28T10:12:26Z</time>
      </trkpt>
      <trkpt lat="42.85271" lon="1.83945">
        <ele>1515.463</ele>
        <time>2021-02-28T10:12:28Z</time>
      </trkpt>
      <trkpt lat="42.8527" lon="1.83946">
        <ele>1515.747</ele>
        <time>2021-02-28T10:12:30Z</time>
      </trkpt>
      <trkpt lat="42.85269" lon="1.83947">
        <ele>1515.99</ele>
        <time>2021-02-28T10:12:32Z</time>
      </trkpt>
      <trkpt lat="42.85268" lon="1.83948">
        <ele>1515.811</ele>
        <time>2021-02-28T10:12:34Z</time>
      </trkpt>
      <trkpt lat="42.85267" lon="1.8395">
        <ele>1516.059</ele>
        <time>2021-02-28T10:12:36Z</time>
      </trkpt>
      <trkpt lat="42.85267" lon="1.8395">
        <ele>1516.954</ele>
        <time>2021-02-28T10:12:38Z</time>
      </trkpt>
      <trkpt lat="42.85265" lon="1.8395">
        <ele>1517.906</ele>
        <time>2021-02-28T10:12:40Z</time>
      </trkpt>
      <trkpt lat="42.85264" lon="1.83951">
        <ele>1518.207</ele>
        <time>2021-02-28T10:12:42Z</time>
      </trkpt>
      <trkpt lat="42.85263" lon="1.83952">
        <ele>1518.743</ele>
        <time>2021-02-28T10:12:44Z</time>
      </trkpt>
      <trkpt lat="42.85262" lon="1.83954">
        <ele>1519.345</ele>
        <time>2021-02-28T10:12:46Z</time>
      </trkpt>
      <trkpt lat="42.85261" lon="1.83955">
        <ele>1519.84</ele>
        <time>2021-02-28T10:12:48Z</time>
      </trkpt>
      <trkpt lat="42.8526" lon="1.83956">
        <ele>1520.024</ele>
        <time>2021-02-28T10:12:50Z</time>
      </trkpt>
      <trkpt lat="42.85259" lon="1.83958">
        <ele>1520.527</ele>
        <time>2021-02-28T10:12:52Z</time>
      </trkpt>
      <trkpt lat="42.85258" lon="1.83959">
        <ele>1520.218</ele>
        <time>2021-02-28T10:12:54Z</time>
      </trkpt>
      <trkpt lat="42.85256" lon="1.8396">
        <ele>1520.809</ele>
        <time>2021-02-28T10:12:56Z</time>
      </trkpt>
      <trkpt lat="42.85255" lon="1.8396">
        <ele>1520.738</ele>
        <time>2021-02-28T10:12:58Z</time>
      </trkpt>
      <trkpt lat="42.85254" lon="1.8396">
        <ele>1520.324</ele>
        <time>2021-02-28T10:13:00Z</time>
      </trkpt>
      <trkpt lat="42.85252" lon="1.83961">
        <ele>1520.706</ele>
        <time>2021-02-28T10:13:02Z</time>
      </trkpt>
      <trkpt lat="42.85251" lon="1.83963">
        <ele>1521.321</ele>
        <time>2021-02-28T10:13:04Z</time>
      </trkpt>
      <trkpt lat="42.85251" lon="1.83965">
        <ele>1521.522</ele>
        <time>2021-02-28T10:13:06Z</time>
      </trkpt>
      <trkpt lat="42.8525" lon="1.83966">
        <ele>1522.19</ele>
        <time>2021-02-28T10:13:08Z</time>
      </trkpt>
      <trkpt lat="42.8525" lon="1.83967">
        <ele>1522.589</ele>
        <time>2021-02-28T10:13:10Z</time>
      </trkpt>
      <trkpt lat="42.85249" lon="1.83969">
        <ele>1523.413</ele>
        <time>2021-02-28T10:13:12Z</time>
      </trkpt>
      <trkpt lat="42.85248" lon="1.8397">
        <ele>1524.106</ele>
        <time>2021-02-28T10:13:14Z</time>
      </trkpt>
      <trkpt lat="42.85247" lon="1.83972">
        <ele>1524.621</ele>
        <time>2021-02-28T10:13:16Z</time>
      </trkpt>
      <trkpt lat="42.85246" lon="1.83972">
        <ele>1525.806</ele>
        <time>2021-02-28T10:13:18Z</time>
      </trkpt>
      <trkpt lat="42.85244" lon="1.83973">
        <ele>1527.13</ele>
        <time>2021-02-28T10:13:20Z</time>
      </trkpt>
      <trkpt lat="42.85243" lon="1.83973">
        <ele>1527.237</ele>
        <time>2021-02-28T10:13:22Z</time>
      </trkpt>
      <trkpt lat="42.85243" lon="1.83974">
        <ele>1527.958</ele>
        <time>2021-02-28T10:13:24Z</time>
      </trkpt>
      <trkpt lat="42.85242" lon="1.83975">
        <ele>1527.946</ele>
        <time>2021-02-28T10:13:26Z</time>
      </trkpt>
      <trkpt lat="42.85241" lon="1.83976">
        <ele>1527.607</ele>
        <time>2021-02-28T10:13:28Z</time>
      </trkpt>
      <trkpt lat="42.8524" lon="1.83977">
        <ele>1527.623</ele>
        <time>2021-02-28T10:13:30Z</time>
      </trkpt>
      <trkpt lat="42.8524" lon="1.83978">
        <ele>1527.602</ele>
        <time>2021-02-28T10:13:32Z</time>
      </trkpt>
      <trkpt lat="42.85238" lon="1.8398">
        <ele>1528.098</ele>
        <time>2021-02-28T10:13:34Z</time>
      </trkpt>
      <trkpt lat="42.85237" lon="1.8398">
        <ele>1527.93</ele>
        <time>2021-02-28T10:13:36Z</time>
      </trkpt>
      <trkpt lat="42.85236" lon="1.83981">
        <ele>1528.622</ele>
        <time>2021-02-28T10:13:38Z</time>
      </trkpt>
      <trkpt lat="42.85235" lon="1.83982">
        <ele>1529.778</ele>
        <time>2021-02-28T10:13:40Z</time>
      </trkpt>
      <trkpt lat="42.85234" lon="1.83983">
        <ele>1529.572</ele>
        <time>2021-02-28T10:13:42Z</time>
      </trkpt>
      <trkpt lat="42.85233" lon="1.83984">
        <ele>1529.49</ele>
        <time>2021-02-28T10:13:44Z</time>
      </trkpt>
      <trkpt lat="42.85232" lon="1.83985">
        <ele>1529.767</ele>
        <time>2021-02-28T10:13:46Z</time>
      </trkpt>
      <trkpt lat="42.85231" lon="1.83987">
        <ele>1529.652</ele>
        <time>2021-02-28T10:13:48Z</time>
      </trkpt>
      <trkpt lat="42.85231" lon="1.83989">
        <ele>1529.331</ele>
        <time>2021-02-28T10:13:50Z</time>
      </trkpt>
      <trkpt lat="42.85231" lon="1.8399">
        <ele>1529.167</ele>
        <time>2021-02-28T10:13:52Z</time>
      </trkpt>
      <trkpt lat="42.8523" lon="1.83992">
        <ele>1530.147</ele>
        <time>2021-02-28T10:13:54Z</time>
      </trkpt>
      <trkpt lat="42.85229" lon="1.83993">
        <ele>1531.795</ele>
        <time>2021-02-28T10:13:56Z</time>
      </trkpt>
      <trkpt lat="42.85228" lon="1.83994">
        <ele>1532.285</ele>
        <time>2021-02-28T10:13:58Z</time>
      </trkpt>
      <trkpt lat="42.85227" lon="1.83994">
        <ele>1531.185</ele>
        <time>2021-02-28T10:14:00Z</time>
      </trkpt>
      <trkpt lat="42.85226" lon="1.83995">
        <ele>1531.197</ele>
        <time>2021-02-28T10:14:02Z</time>
      </trkpt>
      <trkpt lat="42.85225" lon="1.83996">
        <ele>1531.228</ele>
        <time>2021-02-28T10:14:04Z</time>
      </trkpt>
      <trkpt lat="42.85224" lon="1.83998">
        <ele>1531.103</ele>
        <time>2021-02-28T10:14:06Z</time>
      </trkpt>
      <trkpt lat="42.85223" lon="1.83999">
        <ele>1531.561</ele>
        <time>2021-02-28T10:14:08Z</time>
      </trkpt>
      <trkpt lat="42.85222" lon="1.84">
        <ele>1531.078</ele>
        <time>2021-02-28T10:14:10Z</time>
      </trkpt>
      <trkpt lat="42.85221" lon="1.84001">
        <ele>1531.651</ele>
        <time>2021-02-28T10:14:12Z</time>
      </trkpt>
      <trkpt lat="42.8522" lon="1.84002">
        <ele>1532.335</ele>
        <time>2021-02-28T10:14:14Z</time>
      </trkpt>
      <trkpt lat="42.8522" lon="1.84003">
        <ele>1531.996</ele>
        <time>2021-02-28T10:14:16Z</time>
      </trkpt>
      <trkpt lat="42.85219" lon="1.84005">
        <ele>1532.34</ele>
        <time>2021-02-28T10:14:18Z</time>
      </trkpt>
      <trkpt lat="42.85218" lon="1.84006">
        <ele>1532.972</ele>
        <time>2021-02-28T10:14:20Z</time>
      </trkpt>
      <trkpt lat="42.85217" lon="1.84007">
        <ele>1533.77</ele>
        <time>2021-02-28T10:14:22Z</time>
      </trkpt>
      <trkpt lat="42.85217" lon="1.84008">
        <ele>1533.369</ele>
        <time>2021-02-28T10:14:24Z</time>
      </trkpt>
      <trkpt lat="42.85215" lon="1.84009">
        <ele>1534.195</ele>
        <time>2021-02-28T10:14:26Z</time>
      </trkpt>
      <trkpt lat="42.85213" lon="1.8401">
        <ele>1534.181</ele>
        <time>2021-02-28T10:14:28Z</time>
      </trkpt>
      <trkpt lat="42.85212" lon="1.8401">
        <ele>1535.174</ele>
        <time>2021-02-28T10:14:30Z</time>
      </trkpt>
      <trkpt lat="42.8521" lon="1.84011">
        <ele>1536.059</ele>
        <time>2021-02-28T10:14:32Z</time>
      </trkpt>
      <trkpt lat="42.85209" lon="1.84012">
        <ele>1536.689</ele>
        <time>2021-02-28T10:14:34Z</time>
      </trkpt>
      <trkpt lat="42.85208" lon="1.84012">
        <ele>1537.097</ele>
        <time>2021-02-28T10:14:36Z</time>
      </trkpt>
      <trkpt lat="42.85207" lon="1.84014">
        <ele>1538.121</ele>
        <time>2021-02-28T10:14:38Z</time>
      </trkpt>
      <trkpt lat="42.85206" lon="1.84016">
        <ele>1538.858</ele>
        <time>2021-02-28T10:14:40Z</time>
      </trkpt>
      <trkpt lat="42.85206" lon="1.84018">
        <ele>1539.642</ele>
        <time>2021-02-28T10:14:42Z</time>
      </trkpt>
      <trkpt lat="42.85205" lon="1.84018">
        <ele>1540.236</ele>
        <time>2021-02-28T10:14:44Z</time>
      </trkpt>
      <trkpt lat="42.85204" lon="1.8402">
        <ele>1540.403</ele>
        <time>2021-02-28T10:14:46Z</time>
      </trkpt>
      <trkpt lat="42.85203" lon="1.84021">
        <ele>1540.361</ele>
        <time>2021-02-28T10:14:48Z</time>
      </trkpt>
      <trkpt lat="42.85202" lon="1.84022">
        <ele>1541.089</ele>
        <time>2021-02-28T10:14:50Z</time>
      </trkpt>
      <trkpt lat="42.85201" lon="1.84022">
        <ele>1542.167</ele>
        <time>2021-02-28T10:14:52Z</time>
      </trkpt>
      <trkpt lat="42.85199" lon="1.84022">
        <ele>1540.988</ele>
        <time>2021-02-28T10:14:54Z</time>
      </trkpt>
      <trkpt lat="42.85198" lon="1.84022">
        <ele>1540.956</ele>
        <time>2021-02-28T10:14:56Z</time>
      </trkpt>
      <trkpt lat="42.85197" lon="1.84022">
        <ele>1541.105</ele>
        <time>2021-02-28T10:14:58Z</time>
      </trkpt>
      <trkpt lat="42.85196" lon="1.84022">
        <ele>1541.706</ele>
        <time>2021-02-28T10:15:00Z</time>
      </trkpt>
      <trkpt lat="42.85195" lon="1.84022">
        <ele>1542.072</ele>
        <time>2021-02-28T10:15:02Z</time>
      </trkpt>
      <trkpt lat="42.85194" lon="1.84023">
        <ele>1542.577</ele>
        <time>2021-02-28T10:15:04Z</time>
      </trkpt>
      <trkpt lat="42.85193" lon="1.84024">
        <ele>1542.66</ele>
        <time>2021-02-28T10:15:06Z</time>
      </trkpt>
      <trkpt lat="42.85192" lon="1.84024">
        <ele>1542.42</ele>
        <time>2021-02-28T10:15:08Z</time>
      </trkpt>
      <trkpt lat="42.8519" lon="1.84025">
        <ele>1542.476</ele>
        <time>2021-02-28T10:15:10Z</time>
      </trkpt>
      <trkpt lat="42.85189" lon="1.84026">
        <ele>1541.864</ele>
        <time>2021-02-28T10:15:12Z</time>
      </trkpt>
      <trkpt lat="42.85189" lon="1.84027">
        <ele>1541.065</ele>
        <time>2021-02-28T10:15:14Z</time>
      </trkpt>
      <trkpt lat="42.85188" lon="1.84028">
        <ele>1540.995</ele>
        <time>2021-02-28T10:15:16Z</time>
      </trkpt>
      <trkpt lat="42.85187" lon="1.84029">
        <ele>1542.125</ele>
        <time>2021-02-28T10:15:18Z</time>
      </trkpt>
      <trkpt lat="42.85185" lon="1.8403">
        <ele>1542.96</ele>
        <time>2021-02-28T10:15:20Z</time>
      </trkpt>
      <trkpt lat="42.85184" lon="1.84031">
        <ele>1542.84</ele>
        <time>2021-02-28T10:15:22Z</time>
      </trkpt>
      <trkpt lat="42.85183" lon="1.84032">
        <ele>1542.641</ele>
        <time>2021-02-28T10:15:24Z</time>
      </trkpt>
      <trkpt lat="42.85182" lon="1.84033">
        <ele>1543.621</ele>
        <time>2021-02-28T10:15:26Z</time>
      </trkpt>
      <trkpt lat="42.85181" lon="1.84035">
        <ele>1543.622</ele>
        <time>2021-02-28T10:15:28Z</time>
      </trkpt>
      <trkpt lat="42.8518" lon="1.84035">
        <ele>1543.689</ele>
        <time>2021-02-28T10:15:30Z</time>
      </trkpt>
      <trkpt lat="42.85178" lon="1.84034">
        <ele>1543.865</ele>
        <time>2021-02-28T10:15:32Z</time>
      </trkpt>
      <trkpt lat="42.85177" lon="1.84034">
        <ele>1544.881</ele>
        <time>2021-02-28T10:15:34Z</time>
      </trkpt>
      <trkpt lat="42.85177" lon="1.84035">
        <ele>1547.034</ele>
        <time>2021-02-28T10:15:36Z</time>
      </trkpt>
      <trkpt lat="42.85176" lon="1.84036">
        <ele>1546.982</ele>
        <time>2021-02-28T10:15:38Z</time>
      </trkpt>
      <trkpt lat="42.85175" lon="1.84036">
        <ele>1547.421</ele>
        <time>2021-02-28T10:15:40Z</time>
      </trkpt>
      <trkpt lat="42.85174" lon="1.84037">
        <ele>1547.487</ele>
        <time>2021-02-28T10:15:42Z</time>
      </trkpt>
      <trkpt lat="42.85173" lon="1.84037">
        <ele>1547.755</ele>
        <time>2021-02-28T10:15:44Z</time>
      </trkpt>
      <trkpt lat="42.85172" lon="1.84037">
        <ele>1548.738</ele>
        <time>2021-02-28T10:15:46Z</time>
      </trkpt>
      <trkpt lat="42.85171" lon="1.84037">
        <ele>1549.162</ele>
        <time>2021-02-28T10:15:48Z</time>
      </trkpt>
      <trkpt lat="42.8517" lon="1.84037">
        <ele>1549.97</ele>
        <time>2021-02-28T10:15:50Z</time>
      </trkpt>
      <trkpt lat="42.85169" lon="1.84036">
        <ele>1550.516</ele>
        <time>2021-02-28T10:15:53Z</time>
      </trkpt>
      <trkpt lat="42.85168" lon="1.84036">
        <ele>1549.804</ele>
        <time>2021-02-28T10:15:55Z</time>
      </trkpt>
      <trkpt lat="42.85167" lon="1.84036">
        <ele>1548.792</ele>
        <time>2021-02-28T10:15:57Z</time>
      </trkpt>
      <trkpt lat="42.85166" lon="1.84036">
        <ele>1548.48</ele>
        <time>2021-02-28T10:15:59Z</time>
      </trkpt>
      <trkpt lat="42.85164" lon="1.84036">
        <ele>1547.901</ele>
        <time>2021-02-28T10:16:01Z</time>
      </trkpt>
      <trkpt lat="42.85163" lon="1.84037">
        <ele>1548.675</ele>
        <time>2021-02-28T10:16:03Z</time>
      </trkpt>
      <trkpt lat="42.85162" lon="1.84037">
        <ele>1550.708</ele>
        <time>2021-02-28T10:16:05Z</time>
      </trkpt>
      <trkpt lat="42.85161" lon="1.84038">
        <ele>1550.686</ele>
        <time>2021-02-28T10:16:08Z</time>
      </trkpt>
      <trkpt lat="42.8516" lon="1.84039">
        <ele>1551.955</ele>
        <time>2021-02-28T10:16:10Z</time>
      </trkpt>
      <trkpt lat="42.85158" lon="1.84039">
        <ele>1551.785</ele>
        <time>2021-02-28T10:16:12Z</time>
      </trkpt>
      <trkpt lat="42.85157" lon="1.84039">
        <ele>1552.348</ele>
        <time>2021-02-28T10:16:14Z</time>
      </trkpt>
      <trkpt lat="42.85156" lon="1.84039">
        <ele>1552.246</ele>
        <time>2021-02-28T10:16:16Z</time>
      </trkpt>
      <trkpt lat="42.85157" lon="1.84039">
        <ele>1552.446</ele>
        <time>2021-02-28T10:16:18Z</time>
      </trkpt>
      <trkpt lat="42.85155" lon="1.8404">
        <ele>1552.559</ele>
        <time>2021-02-28T10:16:20Z</time>
      </trkpt>
      <trkpt lat="42.85155" lon="1.84041">
        <ele>1553.54</ele>
        <time>2021-02-28T10:16:22Z</time>
      </trkpt>
      <trkpt lat="42.85155" lon="1.84041">
        <ele>1554.069</ele>
        <time>2021-02-28T10:16:24Z</time>
      </trkpt>
      <trkpt lat="42.85154" lon="1.84042">
        <ele>1553.442</ele>
        <time>2021-02-28T10:16:26Z</time>
      </trkpt>
      <trkpt lat="42.85153" lon="1.84042">
        <ele>1554.406</ele>
        <time>2021-02-28T10:16:28Z</time>
      </trkpt>
      <trkpt lat="42.85153" lon="1.84043">
        <ele>1554.928</ele>
        <time>2021-02-28T10:16:30Z</time>
      </trkpt>
      <trkpt lat="42.85152" lon="1.84042">
        <ele>1555.314</ele>
        <time>2021-02-28T10:16:32Z</time>
      </trkpt>
      <trkpt lat="42.85152" lon="1.84042">
        <ele>1555.835</ele>
        <time>2021-02-28T10:16:34Z</time>
      </trkpt>
      <trkpt lat="42.8515" lon="1.84043">
        <ele>1556.143</ele>
        <time>2021-02-28T10:16:36Z</time>
      </trkpt>
      <trkpt lat="42.85149" lon="1.84043">
        <ele>1556.232</ele>
        <time>2021-02-28T10:16:38Z</time>
      </trkpt>
      <trkpt lat="42.85148" lon="1.84043">
        <ele>1557.476</ele>
        <time>2021-02-28T10:16:40Z</time>
      </trkpt>
      <trkpt lat="42.85148" lon="1.84043">
        <ele>1557.056</ele>
        <time>2021-02-28T10:16:42Z</time>
      </trkpt>
      <trkpt lat="42.85147" lon="1.84043">
        <ele>1558.2</ele>
        <time>2021-02-28T10:16:44Z</time>
      </trkpt>
      <trkpt lat="42.85146" lon="1.84044">
        <ele>1559.042</ele>
        <time>2021-02-28T10:16:46Z</time>
      </trkpt>
      <trkpt lat="42.85145" lon="1.84044">
        <ele>1559.418</ele>
        <time>2021-02-28T10:16:48Z</time>
      </trkpt>
      <trkpt lat="42.85144" lon="1.84044">
        <ele>1560.057</ele>
        <time>2021-02-28T10:16:50Z</time>
      </trkpt>
      <trkpt lat="42.85143" lon="1.84043">
        <ele>1560.785</ele>
        <time>2021-02-28T10:16:52Z</time>
      </trkpt>
      <trkpt lat="42.85142" lon="1.84044">
        <ele>1560.687</ele>
        <time>2021-02-28T10:16:54Z</time>
      </trkpt>
      <trkpt lat="42.85141" lon="1.84044">
        <ele>1561.928</ele>
        <time>2021-02-28T10:16:56Z</time>
      </trkpt>
      <trkpt lat="42.8514" lon="1.84045">
        <ele>1562.196</ele>
        <time>2021-02-28T10:16:58Z</time>
      </trkpt>
      <trkpt lat="42.85138" lon="1.84046">
        <ele>1563.227</ele>
        <time>2021-02-28T10:17:00Z</time>
      </trkpt>
      <trkpt lat="42.85137" lon="1.84046">
        <ele>1562.164</ele>
        <time>2021-02-28T10:17:02Z</time>
      </trkpt>
      <trkpt lat="42.85137" lon="1.84048">
        <ele>1562.315</ele>
        <time>2021-02-28T10:17:04Z</time>
      </trkpt>
      <trkpt lat="42.85137" lon="1.84048">
        <ele>1563.835</ele>
        <time>2021-02-28T10:17:06Z</time>
      </trkpt>
      <trkpt lat="42.85137" lon="1.84048">
        <ele>1563.826</ele>
        <time>2021-02-28T10:17:08Z</time>
      </trkpt>
      <trkpt lat="42.85137" lon="1.84048">
        <ele>1564.186</ele>
        <time>2021-02-28T10:17:10Z</time>
      </trkpt>
      <trkpt lat="42.85135" lon="1.8405">
        <ele>1563.099</ele>
        <time>2021-02-28T10:17:12Z</time>
      </trkpt>
      <trkpt lat="42.85134" lon="1.8405">
        <ele>1564.214</ele>
        <time>2021-02-28T10:17:14Z</time>
      </trkpt>
      <trkpt lat="42.85134" lon="1.84049">
        <ele>1565.577</ele>
        <time>2021-02-28T10:17:16Z</time>
      </trkpt>
      <trkpt lat="42.85134" lon="1.84049">
        <ele>1565.369</ele>
        <time>2021-02-28T10:17:18Z</time>
      </trkpt>
      <trkpt lat="42.85134" lon="1.84051">
        <ele>1564.839</ele>
        <time>2021-02-28T10:17:20Z</time>
      </trkpt>
      <trkpt lat="42.85135" lon="1.84052">
        <ele>1564.822</ele>
        <time>2021-02-28T10:17:22Z</time>
      </trkpt>
      <trkpt lat="42.85135" lon="1.84053">
        <ele>1565.589</ele>
        <time>2021-02-28T10:17:24Z</time>
      </trkpt>
      <trkpt lat="42.85135" lon="1.84054">
        <ele>1567.106</ele>
        <time>2021-02-28T10:17:26Z</time>
      </trkpt>
      <trkpt lat="42.85135" lon="1.84055">
        <ele>1567.942</ele>
        <time>2021-02-28T10:17:28Z</time>
      </trkpt>
      <trkpt lat="42.85136" lon="1.84056">
        <ele>1569.128</ele>
        <time>2021-02-28T10:17:30Z</time>
      </trkpt>
      <trkpt lat="42.85135" lon="1.84057">
        <ele>1570.417</ele>
        <time>2021-02-28T10:17:32Z</time>
      </trkpt>
      <trkpt lat="42.85135" lon="1.84058">
        <ele>1571.554</ele>
        <time>2021-02-28T10:17:34Z</time>
      </trkpt>
      <trkpt lat="42.85135" lon="1.84059">
        <ele>1571.779</ele>
        <time>2021-02-28T10:17:36Z</time>
      </trkpt>
      <trkpt lat="42.85135" lon="1.84061">
        <ele>1572.118</ele>
        <time>2021-02-28T10:17:38Z</time>
      </trkpt>
      <trkpt lat="42.85135" lon="1.8406">
        <ele>1572.602</ele>
        <time>2021-02-28T10:17:40Z</time>
      </trkpt>
      <trkpt lat="42.85134" lon="1.84061">
        <ele>1572.911</ele>
        <time>2021-02-28T10:17:42Z</time>
      </trkpt>
      <trkpt lat="42.85134" lon="1.84061">
        <ele>1572.419</ele>
        <time>2021-02-28T10:17:44Z</time>
      </trkpt>
      <trkpt lat="42.85134" lon="1.8406">
        <ele>1572.424</ele>
        <time>2021-02-28T10:17:46Z</time>
      </trkpt>
      <trkpt lat="42.85134" lon="1.8406">
        <ele>1572.997</ele>
        <time>2021-02-28T10:17:48Z</time>
      </trkpt>
      <trkpt lat="42.85133" lon="1.84061">
        <ele>1573.543</ele>
        <time>2021-02-28T10:17:50Z</time>
      </trkpt>
      <trkpt lat="42.85134" lon="1.84063">
        <ele>1573.786</ele>
        <time>2021-02-28T10:17:52Z</time>
      </trkpt>
      <trkpt lat="42.85133" lon="1.84064">
        <ele>1574.024</ele>
        <time>2021-02-28T10:17:54Z</time>
      </trkpt>
      <trkpt lat="42.85133" lon="1.84064">
        <ele>1573.776</ele>
        <time>2021-02-28T10:17:56Z</time>
      </trkpt>
      <trkpt lat="42.85134" lon="1.84066">
        <ele>1574.409</ele>
        <time>2021-02-28T10:17:58Z</time>
      </trkpt>
      <trkpt lat="42.85134" lon="1.84067">
        <ele>1574.166</ele>
        <time>2021-02-28T10:18:00Z</time>
      </trkpt>
      <trkpt lat="42.85134" lon="1.84068">
        <ele>1574.087</ele>
        <time>2021-02-28T10:18:02Z</time>
      </trkpt>
      <trkpt lat="42.85134" lon="1.84069">
        <ele>1574.88</ele>
        <time>2021-02-28T10:18:04Z</time>
      </trkpt>
      <trkpt lat="42.85134" lon="1.8407">
        <ele>1574.646</ele>
        <time>2021-02-28T10:18:06Z</time>
      </trkpt>
      <trkpt lat="42.85135" lon="1.84071">
        <ele>1575.208</ele>
        <time>2021-02-28T10:18:08Z</time>
      </trkpt>
      <trkpt lat="42.85135" lon="1.84073">
        <ele>1575.356</ele>
        <time>2021-02-28T10:18:10Z</time>
      </trkpt>
      <trkpt lat="42.85136" lon="1.84074">
        <ele>1575.686</ele>
        <time>2021-02-28T10:18:12Z</time>
      </trkpt>
      <trkpt lat="42.85136" lon="1.84074">
        <ele>1575.442</ele>
        <time>2021-02-28T10:18:14Z</time>
      </trkpt>
      <trkpt lat="42.85137" lon="1.84075">
        <ele>1575.883</ele>
        <time>2021-02-28T10:18:16Z</time>
      </trkpt>
      <trkpt lat="42.85138" lon="1.84076">
        <ele>1576.068</ele>
        <time>2021-02-28T10:18:18Z</time>
      </trkpt>
      <trkpt lat="42.85138" lon="1.84077">
        <ele>1576.235</ele>
        <time>2021-02-28T10:18:20Z</time>
      </trkpt>
      <trkpt lat="42.85138" lon="1.84077">
        <ele>1576.232</ele>
        <time>2021-02-28T10:18:22Z</time>
      </trkpt>
      <trkpt lat="42.85138" lon="1.84077">
        <ele>1576.237</ele>
        <time>2021-02-28T10:18:24Z</time>
      </trkpt>
      <trkpt lat="42.85138" lon="1.84077">
        <ele>1576.243</ele>
        <time>2021-02-28T10:18:26Z</time>
      </trkpt>
      <trkpt lat="42.85138" lon="1.84077">
        <ele>1576.248</ele>
        <time>2021-02-28T10:18:28Z</time>
      </trkpt>
      <trkpt lat="42.85138" lon="1.84077">
        <ele>1576.256</ele>
        <time>2021-02-28T10:18:30Z</time>
      </trkpt>
      <trkpt lat="42.85138" lon="1.84077">
        <ele>1576.25</ele>
        <time>2021-02-28T10:18:32Z</time>
      </trkpt>
      <trkpt lat="42.85138" lon="1.84077">
        <ele>1576.256</ele>
        <time>2021-02-28T10:18:34Z</time>
      </trkpt>
      <trkpt lat="42.85138" lon="1.84077">
        <ele>1576.256</ele>
        <time>2021-02-28T10:18:36Z</time>
      </trkpt>
      <trkpt lat="42.85138" lon="1.84077">
        <ele>1576.261</ele>
        <time>2021-02-28T10:18:38Z</time>
      </trkpt>
      <trkpt lat="42.85138" lon="1.84077">
        <ele>1576.268</ele>
        <time>2021-02-28T10:18:40Z</time>
      </trkpt>
      <trkpt lat="42.85138" lon="1.84077">
        <ele>1576.27</ele>
        <time>2021-02-28T10:18:42Z</time>
      </trkpt>
      <trkpt lat="42.85138" lon="1.84077">
        <ele>1576.277</ele>
        <time>2021-02-28T10:18:44Z</time>
      </trkpt>
      <trkpt lat="42.85139" lon="1.84077">
        <ele>1576.001</ele>
        <time>2021-02-28T10:18:46Z</time>
      </trkpt>
      <trkpt lat="42.85139" lon="1.84077">
        <ele>1575.829</ele>
        <time>2021-02-28T10:18:48Z</time>
      </trkpt>
      <trkpt lat="42.85139" lon="1.84077">
        <ele>1575.892</ele>
        <time>2021-02-28T10:18:50Z</time>
      </trkpt>
      <trkpt lat="42.85139" lon="1.84077">
        <ele>1575.894</ele>
        <time>2021-02-28T10:18:52Z</time>
      </trkpt>
      <trkpt lat="42.85139" lon="1.84077">
        <ele>1575.902</ele>
        <time>2021-02-28T10:18:54Z</time>
      </trkpt>
      <trkpt lat="42.85139" lon="1.84077">
        <ele>1575.908</ele>
        <time>2021-02-28T10:18:56Z</time>
      </trkpt>
      <trkpt lat="42.85139" lon="1.84077">
        <ele>1575.909</ele>
        <time>2021-02-28T10:18:58Z</time>
      </trkpt>
      <trkpt lat="42.8514" lon="1.84078">
        <ele>1576.11</ele>
        <time>2021-02-28T10:19:00Z</time>
      </trkpt>
      <trkpt lat="42.8514" lon="1.84078">
        <ele>1576.143</ele>
        <time>2021-02-28T10:19:02Z</time>
      </trkpt>
      <trkpt lat="42.8514" lon="1.84078">
        <ele>1576.143</ele>
        <time>2021-02-28T10:19:04Z</time>
      </trkpt>
      <trkpt lat="42.8514" lon="1.84078">
        <ele>1576.145</ele>
        <time>2021-02-28T10:19:06Z</time>
      </trkpt>
      <trkpt lat="42.8514" lon="1.84078">
        <ele>1576.299</ele>
        <time>2021-02-28T10:19:08Z</time>
      </trkpt>
      <trkpt lat="42.8514" lon="1.84078">
        <ele>1576.644</ele>
        <time>2021-02-28T10:19:10Z</time>
      </trkpt>
      <trkpt lat="42.8514" lon="1.84078">
        <ele>1576.653</ele>
        <time>2021-02-28T10:19:12Z</time>
      </trkpt>
      <trkpt lat="42.8514" lon="1.84078">
        <ele>1576.654</ele>
        <time>2021-02-28T10:19:14Z</time>
      </trkpt>
      <trkpt lat="42.8514" lon="1.84078">
        <ele>1577.202</ele>
        <time>2021-02-28T10:19:16Z</time>
      </trkpt>
      <trkpt lat="42.8514" lon="1.84078">
        <ele>1577.206</ele>
        <time>2021-02-28T10:19:18Z</time>
      </trkpt>
      <trkpt lat="42.8514" lon="1.84078">
        <ele>1577.226</ele>
        <time>2021-02-28T10:19:20Z</time>
      </trkpt>
      <trkpt lat="42.8514" lon="1.84078">
        <ele>1577.234</ele>
        <time>2021-02-28T10:19:22Z</time>
      </trkpt>
      <trkpt lat="42.8514" lon="1.84078">
        <ele>1577.331</ele>
        <time>2021-02-28T10:19:24Z</time>
      </trkpt>
      <trkpt lat="42.8514" lon="1.84078">
        <ele>1577.339</ele>
        <time>2021-02-28T10:19:26Z</time>
      </trkpt>
      <trkpt lat="42.8514" lon="1.84078">
        <ele>1577.37</ele>
        <time>2021-02-28T10:19:28Z</time>
      </trkpt>
      <trkpt lat="42.8514" lon="1.84078">
        <ele>1577.37</ele>
        <time>2021-02-28T10:19:30Z</time>
      </trkpt>
      <trkpt lat="42.8514" lon="1.84078">
        <ele>1577.372</ele>
        <time>2021-02-28T10:19:32Z</time>
      </trkpt>
      <trkpt lat="42.8514" lon="1.84078">
        <ele>1577.374</ele>
        <time>2021-02-28T10:19:34Z</time>
      </trkpt>
      <trkpt lat="42.8514" lon="1.84078">
        <ele>1577.371</ele>
        <time>2021-02-28T10:19:36Z</time>
      </trkpt>
      <trkpt lat="42.8514" lon="1.84078">
        <ele>1577.379</ele>
        <time>2021-02-28T10:19:38Z</time>
      </trkpt>
      <trkpt lat="42.8514" lon="1.84078">
        <ele>1577.382</ele>
        <time>2021-02-28T10:19:40Z</time>
      </trkpt>
      <trkpt lat="42.8514" lon="1.84078">
        <ele>1577.388</ele>
        <time>2021-02-28T10:19:42Z</time>
      </trkpt>
      <trkpt lat="42.8514" lon="1.84078">
        <ele>1577.394</ele>
        <time>2021-02-28T10:19:44Z</time>
      </trkpt>
      <trkpt lat="42.8514" lon="1.84078">
        <ele>1577.392</ele>
        <time>2021-02-28T10:19:46Z</time>
      </trkpt>
      <trkpt lat="42.8514" lon="1.84078">
        <ele>1577.389</ele>
        <time>2021-02-28T10:19:48Z</time>
      </trkpt>
      <trkpt lat="42.8514" lon="1.84078">
        <ele>1577.388</ele>
        <time>2021-02-28T10:19:50Z</time>
      </trkpt>
      <trkpt lat="42.8514" lon="1.84078">
        <ele>1577.387</ele>
        <time>2021-02-28T10:19:52Z</time>
      </trkpt>
      <trkpt lat="42.8514" lon="1.84078">
        <ele>1577.382</ele>
        <time>2021-02-28T10:19:54Z</time>
      </trkpt>
      <trkpt lat="42.8514" lon="1.84078">
        <ele>1577.381</ele>
        <time>2021-02-28T10:19:56Z</time>
      </trkpt>
      <trkpt lat="42.8514" lon="1.84078">
        <ele>1577.382</ele>
        <time>2021-02-28T10:19:58Z</time>
      </trkpt>
      <trkpt lat="42.8514" lon="1.84078">
        <ele>1577.386</ele>
        <time>2021-02-28T10:20:00Z</time>
      </trkpt>
      <trkpt lat="42.8514" lon="1.84078">
        <ele>1577.384</ele>
        <time>2021-02-28T10:20:02Z</time>
      </trkpt>
      <trkpt lat="42.8514" lon="1.84078">
        <ele>1577.385</ele>
        <time>2021-02-28T10:20:04Z</time>
      </trkpt>
      <trkpt lat="42.8514" lon="1.84078">
        <ele>1577.385</ele>
        <time>2021-02-28T10:20:06Z</time>
      </trkpt>
      <trkpt lat="42.8514" lon="1.84078">
        <ele>1577.828</ele>
        <time>2021-02-28T10:20:08Z</time>
      </trkpt>
      <trkpt lat="42.8514" lon="1.84078">
        <ele>1578.075</ele>
        <time>2021-02-28T10:20:10Z</time>
      </trkpt>
      <trkpt lat="42.8514" lon="1.84078">
        <ele>1578.07</ele>
        <time>2021-02-28T10:20:12Z</time>
      </trkpt>
      <trkpt lat="42.8514" lon="1.84078">
        <ele>1578.267</ele>
        <time>2021-02-28T10:20:14Z</time>
      </trkpt>
      <trkpt lat="42.8514" lon="1.84078">
        <ele>1578.26</ele>
        <time>2021-02-28T10:20:16Z</time>
      </trkpt>
      <trkpt lat="42.8514" lon="1.84078">
        <ele>1578.259</ele>
        <time>2021-02-28T10:20:18Z</time>
      </trkpt>
      <trkpt lat="42.8514" lon="1.84078">
        <ele>1578.266</ele>
        <time>2021-02-28T10:20:20Z</time>
      </trkpt>
      <trkpt lat="42.8514" lon="1.84078">
        <ele>1578.272</ele>
        <time>2021-02-28T10:20:22Z</time>
      </trkpt>
      <trkpt lat="42.8514" lon="1.84078">
        <ele>1578.273</ele>
        <time>2021-02-28T10:20:24Z</time>
      </trkpt>
      <trkpt lat="42.8514" lon="1.84078">
        <ele>1578.276</ele>
        <time>2021-02-28T10:20:26Z</time>
      </trkpt>
      <trkpt lat="42.8514" lon="1.84078">
        <ele>1578.275</ele>
        <time>2021-02-28T10:20:28Z</time>
      </trkpt>
      <trkpt lat="42.8514" lon="1.84078">
        <ele>1578.276</ele>
        <time>2021-02-28T10:20:30Z</time>
      </trkpt>
      <trkpt lat="42.8514" lon="1.84078">
        <ele>1578.272</ele>
        <time>2021-02-28T10:20:32Z</time>
      </trkpt>
      <trkpt lat="42.8514" lon="1.84078">
        <ele>1578.271</ele>
        <time>2021-02-28T10:20:34Z</time>
      </trkpt>
      <trkpt lat="42.8514" lon="1.84078">
        <ele>1578.277</ele>
        <time>2021-02-28T10:20:36Z</time>
      </trkpt>
      <trkpt lat="42.8514" lon="1.84079">
        <ele>1578.515</ele>
        <time>2021-02-28T10:20:38Z</time>
      </trkpt>
      <trkpt lat="42.8514" lon="1.84079">
        <ele>1578.669</ele>
        <time>2021-02-28T10:20:40Z</time>
      </trkpt>
      <trkpt lat="42.8514" lon="1.84079">
        <ele>1578.923</ele>
        <time>2021-02-28T10:20:42Z</time>
      </trkpt>
      <trkpt lat="42.8514" lon="1.8408">
        <ele>1579.345</ele>
        <time>2021-02-28T10:20:44Z</time>
      </trkpt>
      <trkpt lat="42.85139" lon="1.84081">
        <ele>1579.933</ele>
        <time>2021-02-28T10:20:46Z</time>
      </trkpt>
      <trkpt lat="42.85138" lon="1.84082">
        <ele>1580.273</ele>
        <time>2021-02-28T10:20:48Z</time>
      </trkpt>
      <trkpt lat="42.85137" lon="1.84082">
        <ele>1580.503</ele>
        <time>2021-02-28T10:20:50Z</time>
      </trkpt>
      <trkpt lat="42.85137" lon="1.84084">
        <ele>1579.723</ele>
        <time>2021-02-28T10:20:52Z</time>
      </trkpt>
      <trkpt lat="42.85137" lon="1.84085">
        <ele>1579.752</ele>
        <time>2021-02-28T10:20:54Z</time>
      </trkpt>
      <trkpt lat="42.85136" lon="1.84087">
        <ele>1580.522</ele>
        <time>2021-02-28T10:20:56Z</time>
      </trkpt>
      <trkpt lat="42.85136" lon="1.84087">
        <ele>1581.015</ele>
        <time>2021-02-28T10:20:58Z</time>
      </trkpt>
      <trkpt lat="42.85135" lon="1.84088">
        <ele>1581.101</ele>
        <time>2021-02-28T10:21:00Z</time>
      </trkpt>
      <trkpt lat="42.85134" lon="1.84088">
        <ele>1581.03</ele>
        <time>2021-02-28T10:21:02Z</time>
      </trkpt>
      <trkpt lat="42.85133" lon="1.84088">
        <ele>1581.682</ele>
        <time>2021-02-28T10:21:04Z</time>
      </trkpt>
      <trkpt lat="42.85132" lon="1.84088">
        <ele>1581.035</ele>
        <time>2021-02-28T10:21:06Z</time>
      </trkpt>
      <trkpt lat="42.85131" lon="1.84089">
        <ele>1581.147</ele>
        <time>2021-02-28T10:21:08Z</time>
      </trkpt>
      <trkpt lat="42.8513" lon="1.84088">
        <ele>1581.448</ele>
        <time>2021-02-28T10:21:10Z</time>
      </trkpt>
      <trkpt lat="42.85129" lon="1.84088">
        <ele>1581.46</ele>
        <time>2021-02-28T10:21:12Z</time>
      </trkpt>
      <trkpt lat="42.85128" lon="1.84087">
        <ele>1582.388</ele>
        <time>2021-02-28T10:21:14Z</time>
      </trkpt>
      <trkpt lat="42.85127" lon="1.84087">
        <ele>1582.486</ele>
        <time>2021-02-28T10:21:16Z</time>
      </trkpt>
      <trkpt lat="42.85126" lon="1.84087">
        <ele>1583.319</ele>
        <time>2021-02-28T10:21:18Z</time>
      </trkpt>
      <trkpt lat="42.85126" lon="1.84086">
        <ele>1584.598</ele>
        <time>2021-02-28T10:21:20Z</time>
      </trkpt>
      <trkpt lat="42.85125" lon="1.84085">
        <ele>1584.393</ele>
        <time>2021-02-28T10:21:22Z</time>
      </trkpt>
      <trkpt lat="42.85124" lon="1.84085">
        <ele>1584.501</ele>
        <time>2021-02-28T10:21:24Z</time>
      </trkpt>
      <trkpt lat="42.85124" lon="1.84086">
        <ele>1584.602</ele>
        <time>2021-02-28T10:21:26Z</time>
      </trkpt>
      <trkpt lat="42.85124" lon="1.84086">
        <ele>1584.601</ele>
        <time>2021-02-28T10:21:28Z</time>
      </trkpt>
      <trkpt lat="42.85123" lon="1.84086">
        <ele>1585.137</ele>
        <time>2021-02-28T10:21:30Z</time>
      </trkpt>
      <trkpt lat="42.85122" lon="1.84087">
        <ele>1585.782</ele>
        <time>2021-02-28T10:21:32Z</time>
      </trkpt>
      <trkpt lat="42.85122" lon="1.84088">
        <ele>1586.229</ele>
        <time>2021-02-28T10:21:34Z</time>
      </trkpt>
      <trkpt lat="42.85121" lon="1.84089">
        <ele>1586.153</ele>
        <time>2021-02-28T10:21:36Z</time>
      </trkpt>
      <trkpt lat="42.8512" lon="1.8409">
        <ele>1586.599</ele>
        <time>2021-02-28T10:21:38Z</time>
      </trkpt>
      <trkpt lat="42.85119" lon="1.8409">
        <ele>1586.724</ele>
        <time>2021-02-28T10:21:40Z</time>
      </trkpt>
      <trkpt lat="42.85118" lon="1.8409">
        <ele>1587.144</ele>
        <time>2021-02-28T10:21:42Z</time>
      </trkpt>
      <trkpt lat="42.85117" lon="1.8409">
        <ele>1587.258</ele>
        <time>2021-02-28T10:21:44Z</time>
      </trkpt>
      <trkpt lat="42.85116" lon="1.8409">
        <ele>1586.954</ele>
        <time>2021-02-28T10:21:46Z</time>
      </trkpt>
      <trkpt lat="42.85115" lon="1.8409">
        <ele>1587.106</ele>
        <time>2021-02-28T10:21:48Z</time>
      </trkpt>
      <trkpt lat="42.85114" lon="1.84091">
        <ele>1587.501</ele>
        <time>2021-02-28T10:21:50Z</time>
      </trkpt>
      <trkpt lat="42.85114" lon="1.84092">
        <ele>1587.943</ele>
        <time>2021-02-28T10:21:52Z</time>
      </trkpt>
      <trkpt lat="42.85113" lon="1.84093">
        <ele>1588.594</ele>
        <time>2021-02-28T10:21:54Z</time>
      </trkpt>
      <trkpt lat="42.85112" lon="1.84094">
        <ele>1588.359</ele>
        <time>2021-02-28T10:21:56Z</time>
      </trkpt>
      <trkpt lat="42.85111" lon="1.84094">
        <ele>1588.449</ele>
        <time>2021-02-28T10:21:58Z</time>
      </trkpt>
      <trkpt lat="42.8511" lon="1.84095">
        <ele>1589.321</ele>
        <time>2021-02-28T10:22:00Z</time>
      </trkpt>
      <trkpt lat="42.8511" lon="1.84095">
        <ele>1590.252</ele>
        <time>2021-02-28T10:22:02Z</time>
      </trkpt>
      <trkpt lat="42.85109" lon="1.84096">
        <ele>1590.574</ele>
        <time>2021-02-28T10:22:04Z</time>
      </trkpt>
      <trkpt lat="42.85109" lon="1.84097">
        <ele>1590.324</ele>
        <time>2021-02-28T10:22:06Z</time>
      </trkpt>
      <trkpt lat="42.85108" lon="1.84099">
        <ele>1590.691</ele>
        <time>2021-02-28T10:22:08Z</time>
      </trkpt>
      <trkpt lat="42.85107" lon="1.84099">
        <ele>1591.452</ele>
        <time>2021-02-28T10:22:10Z</time>
      </trkpt>
      <trkpt lat="42.85106" lon="1.84099">
        <ele>1591.934</ele>
        <time>2021-02-28T10:22:12Z</time>
      </trkpt>
      <trkpt lat="42.85105" lon="1.841">
        <ele>1592.129</ele>
        <time>2021-02-28T10:22:14Z</time>
      </trkpt>
      <trkpt lat="42.85104" lon="1.84101">
        <ele>1592.621</ele>
        <time>2021-02-28T10:22:16Z</time>
      </trkpt>
      <trkpt lat="42.85104" lon="1.84102">
        <ele>1593.192</ele>
        <time>2021-02-28T10:22:18Z</time>
      </trkpt>
      <trkpt lat="42.85103" lon="1.84102">
        <ele>1593.078</ele>
        <time>2021-02-28T10:22:20Z</time>
      </trkpt>
      <trkpt lat="42.85102" lon="1.84103">
        <ele>1594.281</ele>
        <time>2021-02-28T10:22:22Z</time>
      </trkpt>
      <trkpt lat="42.85101" lon="1.84103">
        <ele>1594.485</ele>
        <time>2021-02-28T10:22:24Z</time>
      </trkpt>
      <trkpt lat="42.851" lon="1.84104">
        <ele>1594.817</ele>
        <time>2021-02-28T10:22:26Z</time>
      </trkpt>
      <trkpt lat="42.85099" lon="1.84104">
        <ele>1595.363</ele>
        <time>2021-02-28T10:22:28Z</time>
      </trkpt>
      <trkpt lat="42.85098" lon="1.84105">
        <ele>1595.424</ele>
        <time>2021-02-28T10:22:30Z</time>
      </trkpt>
      <trkpt lat="42.85097" lon="1.84106">
        <ele>1595.917</ele>
        <time>2021-02-28T10:22:32Z</time>
      </trkpt>
      <trkpt lat="42.85096" lon="1.84107">
        <ele>1596.808</ele>
        <time>2021-02-28T10:22:34Z</time>
      </trkpt>
      <trkpt lat="42.85096" lon="1.84108">
        <ele>1597.585</ele>
        <time>2021-02-28T10:22:36Z</time>
      </trkpt>
      <trkpt lat="42.85095" lon="1.8411">
        <ele>1597.766</ele>
        <time>2021-02-28T10:22:38Z</time>
      </trkpt>
      <trkpt lat="42.85094" lon="1.84111">
        <ele>1598.145</ele>
        <time>2021-02-28T10:22:40Z</time>
      </trkpt>
      <trkpt lat="42.85094" lon="1.84111">
        <ele>1598.54</ele>
        <time>2021-02-28T10:22:42Z</time>
      </trkpt>
      <trkpt lat="42.85093" lon="1.84111">
        <ele>1598.879</ele>
        <time>2021-02-28T10:22:44Z</time>
      </trkpt>
      <trkpt lat="42.85092" lon="1.84111">
        <ele>1599.312</ele>
        <time>2021-02-28T10:22:46Z</time>
      </trkpt>
      <trkpt lat="42.85091" lon="1.8411">
        <ele>1599.75</ele>
        <time>2021-02-28T10:22:48Z</time>
      </trkpt>
      <trkpt lat="42.85091" lon="1.8411">
        <ele>1599.766</ele>
        <time>2021-02-28T10:22:50Z</time>
      </trkpt>
      <trkpt lat="42.8509" lon="1.84111">
        <ele>1600.198</ele>
        <time>2021-02-28T10:22:52Z</time>
      </trkpt>
      <trkpt lat="42.8509" lon="1.84111">
        <ele>1600.957</ele>
        <time>2021-02-28T10:22:54Z</time>
      </trkpt>
      <trkpt lat="42.85089" lon="1.84112">
        <ele>1600.826</ele>
        <time>2021-02-28T10:22:56Z</time>
      </trkpt>
      <trkpt lat="42.85088" lon="1.84111">
        <ele>1600.966</ele>
        <time>2021-02-28T10:22:58Z</time>
      </trkpt>
      <trkpt lat="42.85087" lon="1.84111">
        <ele>1601.258</ele>
        <time>2021-02-28T10:23:00Z</time>
      </trkpt>
      <trkpt lat="42.85087" lon="1.8411">
        <ele>1601.745</ele>
        <time>2021-02-28T10:23:02Z</time>
      </trkpt>
      <trkpt lat="42.85086" lon="1.8411">
        <ele>1602.282</ele>
        <time>2021-02-28T10:23:04Z</time>
      </trkpt>
      <trkpt lat="42.85085" lon="1.84111">
        <ele>1602.666</ele>
        <time>2021-02-28T10:23:06Z</time>
      </trkpt>
      <trkpt lat="42.85084" lon="1.84111">
        <ele>1602.741</ele>
        <time>2021-02-28T10:23:08Z</time>
      </trkpt>
      <trkpt lat="42.85084" lon="1.84112">
        <ele>1603.035</ele>
        <time>2021-02-28T10:23:10Z</time>
      </trkpt>
      <trkpt lat="42.85083" lon="1.84113">
        <ele>1603.278</ele>
        <time>2021-02-28T10:23:12Z</time>
      </trkpt>
      <trkpt lat="42.85083" lon="1.84113">
        <ele>1603.226</ele>
        <time>2021-02-28T10:23:14Z</time>
      </trkpt>
      <trkpt lat="42.85082" lon="1.84113">
        <ele>1603.67</ele>
        <time>2021-02-28T10:23:16Z</time>
      </trkpt>
      <trkpt lat="42.85081" lon="1.84112">
        <ele>1604.152</ele>
        <time>2021-02-28T10:23:18Z</time>
      </trkpt>
      <trkpt lat="42.8508" lon="1.84112">
        <ele>1604.838</ele>
        <time>2021-02-28T10:23:20Z</time>
      </trkpt>
      <trkpt lat="42.8508" lon="1.84112">
        <ele>1604.868</ele>
        <time>2021-02-28T10:23:22Z</time>
      </trkpt>
      <trkpt lat="42.85079" lon="1.84112">
        <ele>1605.481</ele>
        <time>2021-02-28T10:23:24Z</time>
      </trkpt>
      <trkpt lat="42.85078" lon="1.84112">
        <ele>1605.553</ele>
        <time>2021-02-28T10:23:26Z</time>
      </trkpt>
      <trkpt lat="42.85078" lon="1.84111">
        <ele>1606.609</ele>
        <time>2021-02-28T10:23:28Z</time>
      </trkpt>
      <trkpt lat="42.85076" lon="1.8411">
        <ele>1606.692</ele>
        <time>2021-02-28T10:23:30Z</time>
      </trkpt>
      <trkpt lat="42.85075" lon="1.8411">
        <ele>1607.478</ele>
        <time>2021-02-28T10:23:32Z</time>
      </trkpt>
      <trkpt lat="42.85074" lon="1.8411">
        <ele>1608.188</ele>
        <time>2021-02-28T10:23:34Z</time>
      </trkpt>
      <trkpt lat="42.85073" lon="1.84109">
        <ele>1608.226</ele>
        <time>2021-02-28T10:23:36Z</time>
      </trkpt>
      <trkpt lat="42.85072" lon="1.84108">
        <ele>1608.257</ele>
        <time>2021-02-28T10:23:38Z</time>
      </trkpt>
      <trkpt lat="42.8507" lon="1.84108">
        <ele>1608.886</ele>
        <time>2021-02-28T10:23:40Z</time>
      </trkpt>
      <trkpt lat="42.85069" lon="1.84108">
        <ele>1609.34</ele>
        <time>2021-02-28T10:23:42Z</time>
      </trkpt>
      <trkpt lat="42.85068" lon="1.84109">
        <ele>1609.678</ele>
        <time>2021-02-28T10:23:44Z</time>
      </trkpt>
      <trkpt lat="42.85067" lon="1.84109">
        <ele>1609.651</ele>
        <time>2021-02-28T10:23:46Z</time>
      </trkpt>
      <trkpt lat="42.85066" lon="1.84109">
        <ele>1610.029</ele>
        <time>2021-02-28T10:23:48Z</time>
      </trkpt>
      <trkpt lat="42.85065" lon="1.84108">
        <ele>1610.646</ele>
        <time>2021-02-28T10:23:50Z</time>
      </trkpt>
      <trkpt lat="42.85064" lon="1.84108">
        <ele>1611.101</ele>
        <time>2021-02-28T10:23:52Z</time>
      </trkpt>
      <trkpt lat="42.85062" lon="1.84108">
        <ele>1610.991</ele>
        <time>2021-02-28T10:23:54Z</time>
      </trkpt>
      <trkpt lat="42.85061" lon="1.84108">
        <ele>1611.339</ele>
        <time>2021-02-28T10:23:56Z</time>
      </trkpt>
      <trkpt lat="42.8506" lon="1.84108">
        <ele>1611.99</ele>
        <time>2021-02-28T10:23:58Z</time>
      </trkpt>
      <trkpt lat="42.85059" lon="1.84108">
        <ele>1612.701</ele>
        <time>2021-02-28T10:24:00Z</time>
      </trkpt>
      <trkpt lat="42.85058" lon="1.84108">
        <ele>1613.129</ele>
        <time>2021-02-28T10:24:02Z</time>
      </trkpt>
      <trkpt lat="42.85057" lon="1.84108">
        <ele>1613.699</ele>
        <time>2021-02-28T10:24:04Z</time>
      </trkpt>
      <trkpt lat="42.85056" lon="1.84108">
        <ele>1614.141</ele>
        <time>2021-02-28T10:24:06Z</time>
      </trkpt>
      <trkpt lat="42.85055" lon="1.84108">
        <ele>1613.545</ele>
        <time>2021-02-28T10:24:08Z</time>
      </trkpt>
      <trkpt lat="42.85055" lon="1.84108">
        <ele>1613.673</ele>
        <time>2021-02-28T10:24:11Z</time>
      </trkpt>
      <trkpt lat="42.85054" lon="1.84108">
        <ele>1613.526</ele>
        <time>2021-02-28T10:24:13Z</time>
      </trkpt>
      <trkpt lat="42.85053" lon="1.84109">
        <ele>1614.017</ele>
        <time>2021-02-28T10:24:15Z</time>
      </trkpt>
      <trkpt lat="42.85052" lon="1.84109">
        <ele>1614.816</ele>
        <time>2021-02-28T10:24:17Z</time>
      </trkpt>
      <trkpt lat="42.85051" lon="1.84109">
        <ele>1614.979</ele>
        <time>2021-02-28T10:24:19Z</time>
      </trkpt>
      <trkpt lat="42.85051" lon="1.84109">
        <ele>1614.885</ele>
        <time>2021-02-28T10:24:21Z</time>
      </trkpt>
      <trkpt lat="42.8505" lon="1.84108">
        <ele>1615.394</ele>
        <time>2021-02-28T10:24:23Z</time>
      </trkpt>
      <trkpt lat="42.85049" lon="1.84108">
        <ele>1615.392</ele>
        <time>2021-02-28T10:24:25Z</time>
      </trkpt>
      <trkpt lat="42.85049" lon="1.84108">
        <ele>1615.337</ele>
        <time>2021-02-28T10:24:27Z</time>
      </trkpt>
      <trkpt lat="42.85049" lon="1.84108">
        <ele>1615.374</ele>
        <time>2021-02-28T10:24:29Z</time>
      </trkpt>
      <trkpt lat="42.85049" lon="1.84108">
        <ele>1615.375</ele>
        <time>2021-02-28T10:24:31Z</time>
      </trkpt>
      <trkpt lat="42.85049" lon="1.84108">
        <ele>1615.39</ele>
        <time>2021-02-28T10:24:33Z</time>
      </trkpt>
      <trkpt lat="42.85049" lon="1.84108">
        <ele>1615.395</ele>
        <time>2021-02-28T10:24:35Z</time>
      </trkpt>
      <trkpt lat="42.85049" lon="1.84108">
        <ele>1615.399</ele>
        <time>2021-02-28T10:24:37Z</time>
      </trkpt>
      <trkpt lat="42.85049" lon="1.84108">
        <ele>1615.398</ele>
        <time>2021-02-28T10:24:39Z</time>
      </trkpt>
      <trkpt lat="42.85049" lon="1.84108">
        <ele>1615.398</ele>
        <time>2021-02-28T10:24:41Z</time>
      </trkpt>
      <trkpt lat="42.85049" lon="1.84108">
        <ele>1615.399</ele>
        <time>2021-02-28T10:24:43Z</time>
      </trkpt>
      <trkpt lat="42.85049" lon="1.84108">
        <ele>1615.404</ele>
        <time>2021-02-28T10:24:45Z</time>
      </trkpt>
      <trkpt lat="42.85049" lon="1.84108">
        <ele>1615.417</ele>
        <time>2021-02-28T10:24:47Z</time>
      </trkpt>
      <trkpt lat="42.85049" lon="1.84108">
        <ele>1615.42</ele>
        <time>2021-02-28T10:24:49Z</time>
      </trkpt>
      <trkpt lat="42.85049" lon="1.84107">
        <ele>1615.608</ele>
        <time>2021-02-28T10:24:51Z</time>
      </trkpt>
      <trkpt lat="42.85049" lon="1.84106">
        <ele>1615.781</ele>
        <time>2021-02-28T10:24:53Z</time>
      </trkpt>
      <trkpt lat="42.85048" lon="1.84105">
        <ele>1615.78</ele>
        <time>2021-02-28T10:24:55Z</time>
      </trkpt>
      <trkpt lat="42.85047" lon="1.84104">
        <ele>1616.116</ele>
        <time>2021-02-28T10:24:57Z</time>
      </trkpt>
      <trkpt lat="42.85048" lon="1.84104">
        <ele>1616.119</ele>
        <time>2021-02-28T10:24:59Z</time>
      </trkpt>
      <trkpt lat="42.85047" lon="1.84104">
        <ele>1615.974</ele>
        <time>2021-02-28T10:25:01Z</time>
      </trkpt>
      <trkpt lat="42.85047" lon="1.84103">
        <ele>1615.952</ele>
        <time>2021-02-28T10:25:03Z</time>
      </trkpt>
      <trkpt lat="42.85047" lon="1.84102">
        <ele>1615.949</ele>
        <time>2021-02-28T10:25:05Z</time>
      </trkpt>
      <trkpt lat="42.85047" lon="1.84102">
        <ele>1616.49</ele>
        <time>2021-02-28T10:25:07Z</time>
      </trkpt>
      <trkpt lat="42.85046" lon="1.84101">
        <ele>1616.664</ele>
        <time>2021-02-28T10:25:09Z</time>
      </trkpt>
      <trkpt lat="42.85044" lon="1.84099">
        <ele>1616.575</ele>
        <time>2021-02-28T10:25:11Z</time>
      </trkpt>
      <trkpt lat="42.85043" lon="1.84098">
        <ele>1616.885</ele>
        <time>2021-02-28T10:25:13Z</time>
      </trkpt>
      <trkpt lat="42.85041" lon="1.84097">
        <ele>1616.836</ele>
        <time>2021-02-28T10:25:15Z</time>
      </trkpt>
      <trkpt lat="42.85039" lon="1.84096">
        <ele>1616.7</ele>
        <time>2021-02-28T10:25:17Z</time>
      </trkpt>
      <trkpt lat="42.85037" lon="1.84095">
        <ele>1616.879</ele>
        <time>2021-02-28T10:25:19Z</time>
      </trkpt>
      <trkpt lat="42.85036" lon="1.84095">
        <ele>1616.863</ele>
        <time>2021-02-28T10:25:21Z</time>
      </trkpt>
      <trkpt lat="42.85035" lon="1.84095">
        <ele>1616.993</ele>
        <time>2021-02-28T10:25:23Z</time>
      </trkpt>
      <trkpt lat="42.85035" lon="1.84095">
        <ele>1617.033</ele>
        <time>2021-02-28T10:25:25Z</time>
      </trkpt>
      <trkpt lat="42.85035" lon="1.84095">
        <ele>1617.02</ele>
        <time>2021-02-28T10:25:27Z</time>
      </trkpt>
      <trkpt lat="42.85035" lon="1.84095">
        <ele>1617.015</ele>
        <time>2021-02-28T10:25:29Z</time>
      </trkpt>
      <trkpt lat="42.85035" lon="1.84095">
        <ele>1617.01</ele>
        <time>2021-02-28T10:25:31Z</time>
      </trkpt>
      <trkpt lat="42.85035" lon="1.84095">
        <ele>1617.007</ele>
        <time>2021-02-28T10:25:33Z</time>
      </trkpt>
      <trkpt lat="42.85035" lon="1.84095">
        <ele>1617.007</ele>
        <time>2021-02-28T10:25:35Z</time>
      </trkpt>
      <trkpt lat="42.85035" lon="1.84095">
        <ele>1617.006</ele>
        <time>2021-02-28T10:25:37Z</time>
      </trkpt>
      <trkpt lat="42.85035" lon="1.84095">
        <ele>1617.015</ele>
        <time>2021-02-28T10:25:39Z</time>
      </trkpt>
      <trkpt lat="42.85035" lon="1.84095">
        <ele>1617.013</ele>
        <time>2021-02-28T10:25:41Z</time>
      </trkpt>
      <trkpt lat="42.85035" lon="1.84095">
        <ele>1617.016</ele>
        <time>2021-02-28T10:25:43Z</time>
      </trkpt>
      <trkpt lat="42.85035" lon="1.84095">
        <ele>1617.024</ele>
        <time>2021-02-28T10:25:45Z</time>
      </trkpt>
      <trkpt lat="42.85035" lon="1.84095">
        <ele>1617.048</ele>
        <time>2021-02-28T10:25:47Z</time>
      </trkpt>
      <trkpt lat="42.85035" lon="1.84095">
        <ele>1617.056</ele>
        <time>2021-02-28T10:25:49Z</time>
      </trkpt>
      <trkpt lat="42.85035" lon="1.84095">
        <ele>1617.043</ele>
        <time>2021-02-28T10:25:51Z</time>
      </trkpt>
      <trkpt lat="42.85035" lon="1.84095">
        <ele>1617.034</ele>
        <time>2021-02-28T10:25:53Z</time>
      </trkpt>
      <trkpt lat="42.85035" lon="1.84095">
        <ele>1617.037</ele>
        <time>2021-02-28T10:25:55Z</time>
      </trkpt>
      <trkpt lat="42.85035" lon="1.84095">
        <ele>1617.027</ele>
        <time>2021-02-28T10:25:57Z</time>
      </trkpt>
      <trkpt lat="42.85034" lon="1.84094">
        <ele>1617.351</ele>
        <time>2021-02-28T10:25:59Z</time>
      </trkpt>
      <trkpt lat="42.85033" lon="1.84093">
        <ele>1617.59</ele>
        <time>2021-02-28T10:26:01Z</time>
      </trkpt>
      <trkpt lat="42.85031" lon="1.84092">
        <ele>1617.691</ele>
        <time>2021-02-28T10:26:03Z</time>
      </trkpt>
      <trkpt lat="42.8503" lon="1.84091">
        <ele>1617.39</ele>
        <time>2021-02-28T10:26:05Z</time>
      </trkpt>
      <trkpt lat="42.85029" lon="1.84089">
        <ele>1616.68</ele>
        <time>2021-02-28T10:26:07Z</time>
      </trkpt>
      <trkpt lat="42.85027" lon="1.84088">
        <ele>1616.332</ele>
        <time>2021-02-28T10:26:09Z</time>
      </trkpt>
      <trkpt lat="42.85026" lon="1.84087">
        <ele>1615.994</ele>
        <time>2021-02-28T10:26:11Z</time>
      </trkpt>
      <trkpt lat="42.85025" lon="1.84086">
        <ele>1615.852</ele>
        <time>2021-02-28T10:26:13Z</time>
      </trkpt>
      <trkpt lat="42.85024" lon="1.84084">
        <ele>1615.983</ele>
        <time>2021-02-28T10:26:15Z</time>
      </trkpt>
      <trkpt lat="42.85023" lon="1.84083">
        <ele>1615.92</ele>
        <time>2021-02-28T10:26:17Z</time>
      </trkpt>
      <trkpt lat="42.85021" lon="1.84082">
        <ele>1615.751</ele>
        <time>2021-02-28T10:26:19Z</time>
      </trkpt>
      <trkpt lat="42.8502" lon="1.84081">
        <ele>1615.806</ele>
        <time>2021-02-28T10:26:21Z</time>
      </trkpt>
      <trkpt lat="42.85019" lon="1.84081">
        <ele>1615.506</ele>
        <time>2021-02-28T10:26:23Z</time>
      </trkpt>
      <trkpt lat="42.85017" lon="1.84079">
        <ele>1615.746</ele>
        <time>2021-02-28T10:26:25Z</time>
      </trkpt>
      <trkpt lat="42.85015" lon="1.84078">
        <ele>1616.49</ele>
        <time>2021-02-28T10:26:27Z</time>
      </trkpt>
      <trkpt lat="42.85014" lon="1.84077">
        <ele>1617.106</ele>
        <time>2021-02-28T10:26:29Z</time>
      </trkpt>
      <trkpt lat="42.85014" lon="1.84075">
        <ele>1617.33</ele>
        <time>2021-02-28T10:26:31Z</time>
      </trkpt>
      <trkpt lat="42.85013" lon="1.84074">
        <ele>1617.58</ele>
        <time>2021-02-28T10:26:33Z</time>
      </trkpt>
      <trkpt lat="42.85013" lon="1.84072">
        <ele>1617.758</ele>
        <time>2021-02-28T10:26:35Z</time>
      </trkpt>
      <trkpt lat="42.85011" lon="1.84072">
        <ele>1618.119</ele>
        <time>2021-02-28T10:26:37Z</time>
      </trkpt>
      <trkpt lat="42.8501" lon="1.84072">
        <ele>1618.031</ele>
        <time>2021-02-28T10:26:39Z</time>
      </trkpt>
      <trkpt lat="42.85009" lon="1.84072">
        <ele>1618.237</ele>
        <time>2021-02-28T10:26:41Z</time>
      </trkpt>
      <trkpt lat="42.85008" lon="1.84071">
        <ele>1618.606</ele>
        <time>2021-02-28T10:26:43Z</time>
      </trkpt>
      <trkpt lat="42.85007" lon="1.8407">
        <ele>1619.117</ele>
        <time>2021-02-28T10:26:45Z</time>
      </trkpt>
      <trkpt lat="42.85006" lon="1.84068">
        <ele>1619.763</ele>
        <time>2021-02-28T10:26:47Z</time>
      </trkpt>
      <trkpt lat="42.85004" lon="1.84066">
        <ele>1619.221</ele>
        <time>2021-02-28T10:26:49Z</time>
      </trkpt>
      <trkpt lat="42.85003" lon="1.84065">
        <ele>1619.955</ele>
        <time>2021-02-28T10:26:51Z</time>
      </trkpt>
      <trkpt lat="42.85002" lon="1.84065">
        <ele>1620.745</ele>
        <time>2021-02-28T10:26:53Z</time>
      </trkpt>
      <trkpt lat="42.85001" lon="1.84064">
        <ele>1620.498</ele>
        <time>2021-02-28T10:26:55Z</time>
      </trkpt>
      <trkpt lat="42.85001" lon="1.84063">
        <ele>1620.511</ele>
        <time>2021-02-28T10:26:57Z</time>
      </trkpt>
      <trkpt lat="42.85" lon="1.84063">
        <ele>1619.727</ele>
        <time>2021-02-28T10:26:59Z</time>
      </trkpt>
      <trkpt lat="42.85" lon="1.84063">
        <ele>1619.446</ele>
        <time>2021-02-28T10:27:01Z</time>
      </trkpt>
      <trkpt lat="42.84999" lon="1.84062">
        <ele>1619.313</ele>
        <time>2021-02-28T10:27:03Z</time>
      </trkpt>
      <trkpt lat="42.84998" lon="1.84062">
        <ele>1619.556</ele>
        <time>2021-02-28T10:27:04Z</time>
      </trkpt>
      <trkpt lat="42.84997" lon="1.84062">
        <ele>1620.177</ele>
        <time>2021-02-28T10:27:07Z</time>
      </trkpt>
      <trkpt lat="42.84995" lon="1.84061">
        <ele>1621.33</ele>
        <time>2021-02-28T10:27:09Z</time>
      </trkpt>
      <trkpt lat="42.84993" lon="1.84061">
        <ele>1621.159</ele>
        <time>2021-02-28T10:27:11Z</time>
      </trkpt>
      <trkpt lat="42.84991" lon="1.84061">
        <ele>1620.684</ele>
        <time>2021-02-28T10:27:13Z</time>
      </trkpt>
      <trkpt lat="42.84989" lon="1.84062">
        <ele>1619.739</ele>
        <time>2021-02-28T10:27:15Z</time>
      </trkpt>
      <trkpt lat="42.84987" lon="1.84063">
        <ele>1619.413</ele>
        <time>2021-02-28T10:27:17Z</time>
      </trkpt>
      <trkpt lat="42.84985" lon="1.84063">
        <ele>1620.02</ele>
        <time>2021-02-28T10:27:19Z</time>
      </trkpt>
      <trkpt lat="42.84984" lon="1.84062">
        <ele>1620.656</ele>
        <time>2021-02-28T10:27:21Z</time>
      </trkpt>
      <trkpt lat="42.84982" lon="1.84061">
        <ele>1620.619</ele>
        <time>2021-02-28T10:27:23Z</time>
      </trkpt>
      <trkpt lat="42.8498" lon="1.8406">
        <ele>1621.234</ele>
        <time>2021-02-28T10:27:25Z</time>
      </trkpt>
      <trkpt lat="42.84979" lon="1.84059">
        <ele>1621.447</ele>
        <time>2021-02-28T10:27:27Z</time>
      </trkpt>
      <trkpt lat="42.84978" lon="1.84058">
        <ele>1622.692</ele>
        <time>2021-02-28T10:27:29Z</time>
      </trkpt>
      <trkpt lat="42.84976" lon="1.84057">
        <ele>1622.417</ele>
        <time>2021-02-28T10:27:31Z</time>
      </trkpt>
      <trkpt lat="42.84975" lon="1.84056">
        <ele>1623.411</ele>
        <time>2021-02-28T10:27:33Z</time>
      </trkpt>
      <trkpt lat="42.84973" lon="1.84056">
        <ele>1623.046</ele>
        <time>2021-02-28T10:27:35Z</time>
      </trkpt>
      <trkpt lat="42.84972" lon="1.84056">
        <ele>1622.492</ele>
        <time>2021-02-28T10:27:37Z</time>
      </trkpt>
      <trkpt lat="42.8497" lon="1.84056">
        <ele>1625.123</ele>
        <time>2021-02-28T10:27:39Z</time>
      </trkpt>
      <trkpt lat="42.84968" lon="1.84055">
        <ele>1625.617</ele>
        <time>2021-02-28T10:27:41Z</time>
      </trkpt>
      <trkpt lat="42.84967" lon="1.84054">
        <ele>1625.527</ele>
        <time>2021-02-28T10:27:43Z</time>
      </trkpt>
      <trkpt lat="42.84965" lon="1.84054">
        <ele>1625.568</ele>
        <time>2021-02-28T10:27:45Z</time>
      </trkpt>
      <trkpt lat="42.84963" lon="1.84054">
        <ele>1625.63</ele>
        <time>2021-02-28T10:27:47Z</time>
      </trkpt>
      <trkpt lat="42.84961" lon="1.84054">
        <ele>1625.358</ele>
        <time>2021-02-28T10:27:49Z</time>
      </trkpt>
      <trkpt lat="42.84959" lon="1.84054">
        <ele>1624.846</ele>
        <time>2021-02-28T10:27:51Z</time>
      </trkpt>
      <trkpt lat="42.84958" lon="1.84055">
        <ele>1623.34</ele>
        <time>2021-02-28T10:27:53Z</time>
      </trkpt>
      <trkpt lat="42.84957" lon="1.84054">
        <ele>1623.81</ele>
        <time>2021-02-28T10:27:55Z</time>
      </trkpt>
      <trkpt lat="42.84956" lon="1.84054">
        <ele>1623.879</ele>
        <time>2021-02-28T10:27:57Z</time>
      </trkpt>
      <trkpt lat="42.84956" lon="1.84054">
        <ele>1624.218</ele>
        <time>2021-02-28T10:27:59Z</time>
      </trkpt>
      <trkpt lat="42.84956" lon="1.84054">
        <ele>1624.75</ele>
        <time>2021-02-28T10:28:01Z</time>
      </trkpt>
      <trkpt lat="42.84956" lon="1.84054">
        <ele>1624.407</ele>
        <time>2021-02-28T10:28:03Z</time>
      </trkpt>
      <trkpt lat="42.84956" lon="1.84054">
        <ele>1624.413</ele>
        <time>2021-02-28T10:28:05Z</time>
      </trkpt>
      <trkpt lat="42.84956" lon="1.84054">
        <ele>1624.408</ele>
        <time>2021-02-28T10:28:07Z</time>
      </trkpt>
      <trkpt lat="42.84956" lon="1.84054">
        <ele>1624.641</ele>
        <time>2021-02-28T10:28:09Z</time>
      </trkpt>
      <trkpt lat="42.84956" lon="1.84054">
        <ele>1624.229</ele>
        <time>2021-02-28T10:28:11Z</time>
      </trkpt>
      <trkpt lat="42.84956" lon="1.84054">
        <ele>1624.402</ele>
        <time>2021-02-28T10:28:12Z</time>
      </trkpt>
      <trkpt lat="42.84951" lon="1.84054">
        <ele>1623.869</ele>
        <time>2021-02-28T10:28:19Z</time>
      </trkpt>
      <trkpt lat="42.8495" lon="1.84053">
        <ele>1623.523</ele>
        <time>2021-02-28T10:28:21Z</time>
      </trkpt>
      <trkpt lat="42.8495" lon="1.84053">
        <ele>1623.393</ele>
        <time>2021-02-28T10:28:23Z</time>
      </trkpt>
      <trkpt lat="42.84951" lon="1.84053">
        <ele>1623.367</ele>
        <time>2021-02-28T10:28:25Z</time>
      </trkpt>
      <trkpt lat="42.84951" lon="1.84053">
        <ele>1623.361</ele>
        <time>2021-02-28T10:28:27Z</time>
      </trkpt>
      <trkpt lat="42.84951" lon="1.84053">
        <ele>1623.352</ele>
        <time>2021-02-28T10:28:29Z</time>
      </trkpt>
      <trkpt lat="42.84951" lon="1.84053">
        <ele>1623.347</ele>
        <time>2021-02-28T10:28:30Z</time>
      </trkpt>
      <trkpt lat="42.84947" lon="1.8405">
        <ele>1623.913</ele>
        <time>2021-02-28T10:28:37Z</time>
      </trkpt>
      <trkpt lat="42.84948" lon="1.84049">
        <ele>1623.085</ele>
        <time>2021-02-28T10:28:39Z</time>
      </trkpt>
      <trkpt lat="42.84947" lon="1.84048">
        <ele>1623.343</ele>
        <time>2021-02-28T10:28:41Z</time>
      </trkpt>
      <trkpt lat="42.84945" lon="1.84047">
        <ele>1624.068</ele>
        <time>2021-02-28T10:28:43Z</time>
      </trkpt>
      <trkpt lat="42.84944" lon="1.84046">
        <ele>1624.538</ele>
        <time>2021-02-28T10:28:45Z</time>
      </trkpt>
      <trkpt lat="42.84943" lon="1.84047">
        <ele>1625.228</ele>
        <time>2021-02-28T10:28:47Z</time>
      </trkpt>
      <trkpt lat="42.84943" lon="1.84047">
        <ele>1625.506</ele>
        <time>2021-02-28T10:28:49Z</time>
      </trkpt>
      <trkpt lat="42.84943" lon="1.84047">
        <ele>1625.381</ele>
        <time>2021-02-28T10:28:51Z</time>
      </trkpt>
      <trkpt lat="42.84943" lon="1.84047">
        <ele>1625.318</ele>
        <time>2021-02-28T10:28:53Z</time>
      </trkpt>
      <trkpt lat="42.84943" lon="1.84047">
        <ele>1625.696</ele>
        <time>2021-02-28T10:28:55Z</time>
      </trkpt>
      <trkpt lat="42.84943" lon="1.84047">
        <ele>1625.696</ele>
        <time>2021-02-28T10:28:56Z</time>
      </trkpt>
      <trkpt lat="42.84943" lon="1.84048">
        <ele>1624.787</ele>
        <time>2021-02-28T10:29:03Z</time>
      </trkpt>
      <trkpt lat="42.84944" lon="1.84049">
        <ele>1624.801</ele>
        <time>2021-02-28T10:29:05Z</time>
      </trkpt>
      <trkpt lat="42.84944" lon="1.84049">
        <ele>1624.747</ele>
        <time>2021-02-28T10:29:07Z</time>
      </trkpt>
      <trkpt lat="42.84944" lon="1.84049">
        <ele>1624.743</ele>
        <time>2021-02-28T10:29:09Z</time>
      </trkpt>
      <trkpt lat="42.84943" lon="1.8405">
        <ele>1625.065</ele>
        <time>2021-02-28T10:29:16Z</time>
      </trkpt>
      <trkpt lat="42.84942" lon="1.84051">
        <ele>1623.812</ele>
        <time>2021-02-28T10:29:18Z</time>
      </trkpt>
      <trkpt lat="42.84942" lon="1.84051">
        <ele>1624.087</ele>
        <time>2021-02-28T10:29:20Z</time>
      </trkpt>
      <trkpt lat="42.84941" lon="1.84051">
        <ele>1623.987</ele>
        <time>2021-02-28T10:29:22Z</time>
      </trkpt>
      <trkpt lat="42.84941" lon="1.84051">
        <ele>1623.985</ele>
        <time>2021-02-28T10:29:24Z</time>
      </trkpt>
      <trkpt lat="42.84941" lon="1.84051">
        <ele>1623.984</ele>
        <time>2021-02-28T10:29:26Z</time>
      </trkpt>
      <trkpt lat="42.84941" lon="1.84051">
        <ele>1623.989</ele>
        <time>2021-02-28T10:29:28Z</time>
      </trkpt>
      <trkpt lat="42.84941" lon="1.84051">
        <ele>1623.968</ele>
        <time>2021-02-28T10:29:30Z</time>
      </trkpt>
      <trkpt lat="42.84941" lon="1.84051">
        <ele>1623.963</ele>
        <time>2021-02-28T10:29:32Z</time>
      </trkpt>
      <trkpt lat="42.84941" lon="1.84051">
        <ele>1623.962</ele>
        <time>2021-02-28T10:29:34Z</time>
      </trkpt>
      <trkpt lat="42.84941" lon="1.84051">
        <ele>1623.962</ele>
        <time>2021-02-28T10:29:36Z</time>
      </trkpt>
      <trkpt lat="42.84941" lon="1.84051">
        <ele>1623.958</ele>
        <time>2021-02-28T10:29:38Z</time>
      </trkpt>
      <trkpt lat="42.84941" lon="1.84051">
        <ele>1624.355</ele>
        <time>2021-02-28T10:29:45Z</time>
      </trkpt>
      <trkpt lat="42.84941" lon="1.84051">
        <ele>1624.361</ele>
        <time>2021-02-28T10:29:47Z</time>
      </trkpt>
      <trkpt lat="42.84941" lon="1.84052">
        <ele>1624.067</ele>
        <time>2021-02-28T10:29:48Z</time>
      </trkpt>
      <trkpt lat="42.84942" lon="1.84051">
        <ele>1625.65</ele>
        <time>2021-02-28T10:29:54Z</time>
      </trkpt>
      <trkpt lat="42.84942" lon="1.84051">
        <ele>1625.405</ele>
        <time>2021-02-28T10:29:56Z</time>
      </trkpt>
      <trkpt lat="42.84943" lon="1.84051">
        <ele>1625.928</ele>
        <time>2021-02-28T10:29:58Z</time>
      </trkpt>
      <trkpt lat="42.84943" lon="1.8405">
        <ele>1626.734</ele>
        <time>2021-02-28T10:30:00Z</time>
      </trkpt>
      <trkpt lat="42.84944" lon="1.84051">
        <ele>1625.632</ele>
        <time>2021-02-28T10:30:02Z</time>
      </trkpt>
      <trkpt lat="42.84944" lon="1.84051">
        <ele>1625.735</ele>
        <time>2021-02-28T10:30:04Z</time>
      </trkpt>
      <trkpt lat="42.84944" lon="1.84051">
        <ele>1625.732</ele>
        <time>2021-02-28T10:30:06Z</time>
      </trkpt>
      <trkpt lat="42.84944" lon="1.84051">
        <ele>1625.728</ele>
        <time>2021-02-28T10:30:08Z</time>
      </trkpt>
      <trkpt lat="42.84944" lon="1.84051">
        <ele>1625.73</ele>
        <time>2021-02-28T10:30:10Z</time>
      </trkpt>
      <trkpt lat="42.84944" lon="1.84051">
        <ele>1625.726</ele>
        <time>2021-02-28T10:30:12Z</time>
      </trkpt>
      <trkpt lat="42.84944" lon="1.84051">
        <ele>1625.723</ele>
        <time>2021-02-28T10:30:14Z</time>
      </trkpt>
      <trkpt lat="42.84944" lon="1.84051">
        <ele>1625.72</ele>
        <time>2021-02-28T10:30:16Z</time>
      </trkpt>
      <trkpt lat="42.84944" lon="1.84051">
        <ele>1625.716</ele>
        <time>2021-02-28T10:30:18Z</time>
      </trkpt>
      <trkpt lat="42.84944" lon="1.84051">
        <ele>1625.714</ele>
        <time>2021-02-28T10:30:20Z</time>
      </trkpt>
      <trkpt lat="42.84944" lon="1.84051">
        <ele>1625.701</ele>
        <time>2021-02-28T10:30:22Z</time>
      </trkpt>
      <trkpt lat="42.84944" lon="1.84051">
        <ele>1625.701</ele>
        <time>2021-02-28T10:30:24Z</time>
      </trkpt>
      <trkpt lat="42.84945" lon="1.84051">
        <ele>1625.779</ele>
        <time>2021-02-28T10:30:26Z</time>
      </trkpt>
      <trkpt lat="42.84945" lon="1.8405">
        <ele>1625.783</ele>
        <time>2021-02-28T10:30:28Z</time>
      </trkpt>
      <trkpt lat="42.84945" lon="1.84051">
        <ele>1625.776</ele>
        <time>2021-02-28T10:30:30Z</time>
      </trkpt>
      <trkpt lat="42.84945" lon="1.84051">
        <ele>1625.24</ele>
        <time>2021-02-28T10:30:32Z</time>
      </trkpt>
      <trkpt lat="42.84945" lon="1.84051">
        <ele>1625.248</ele>
        <time>2021-02-28T10:30:34Z</time>
      </trkpt>
      <trkpt lat="42.84945" lon="1.84051">
        <ele>1625.318</ele>
        <time>2021-02-28T10:30:36Z</time>
      </trkpt>
      <trkpt lat="42.84944" lon="1.84051">
        <ele>1624.931</ele>
        <time>2021-02-28T10:30:38Z</time>
      </trkpt>
      <trkpt lat="42.84944" lon="1.84051">
        <ele>1624.817</ele>
        <time>2021-02-28T10:30:40Z</time>
      </trkpt>
      <trkpt lat="42.84944" lon="1.84052">
        <ele>1624.074</ele>
        <time>2021-02-28T10:30:42Z</time>
      </trkpt>
      <trkpt lat="42.84945" lon="1.84052">
        <ele>1623.497</ele>
        <time>2021-02-28T10:30:44Z</time>
      </trkpt>
      <trkpt lat="42.84947" lon="1.84051">
        <ele>1623.826</ele>
        <time>2021-02-28T10:30:46Z</time>
      </trkpt>
      <trkpt lat="42.84947" lon="1.84052">
        <ele>1623.822</ele>
        <time>2021-02-28T10:30:48Z</time>
      </trkpt>
      <trkpt lat="42.84949" lon="1.84054">
        <ele>1622.563</ele>
        <time>2021-02-28T10:30:50Z</time>
      </trkpt>
      <trkpt lat="42.84948" lon="1.84056">
        <ele>1620.983</ele>
        <time>2021-02-28T10:30:52Z</time>
      </trkpt>
      <trkpt lat="42.84949" lon="1.84056">
        <ele>1622.178</ele>
        <time>2021-02-28T10:30:54Z</time>
      </trkpt>
      <trkpt lat="42.84948" lon="1.84056">
        <ele>1622.079</ele>
        <time>2021-02-28T10:30:56Z</time>
      </trkpt>
      <trkpt lat="42.84948" lon="1.84056">
        <ele>1622.073</ele>
        <time>2021-02-28T10:30:59Z</time>
      </trkpt>
      <trkpt lat="42.84948" lon="1.84056">
        <ele>1622.073</ele>
        <time>2021-02-28T10:31:01Z</time>
      </trkpt>
      <trkpt lat="42.84948" lon="1.84056">
        <ele>1622.068</ele>
        <time>2021-02-28T10:31:03Z</time>
      </trkpt>
      <trkpt lat="42.84948" lon="1.84056">
        <ele>1622.07</ele>
        <time>2021-02-28T10:31:05Z</time>
      </trkpt>
      <trkpt lat="42.84948" lon="1.84056">
        <ele>1622.075</ele>
        <time>2021-02-28T10:31:07Z</time>
      </trkpt>
      <trkpt lat="42.84948" lon="1.84056">
        <ele>1622.069</ele>
        <time>2021-02-28T10:31:09Z</time>
      </trkpt>
      <trkpt lat="42.84948" lon="1.84056">
        <ele>1622.482</ele>
        <time>2021-02-28T10:31:11Z</time>
      </trkpt>
      <trkpt lat="42.84948" lon="1.84056">
        <ele>1622.488</ele>
        <time>2021-02-28T10:31:13Z</time>
      </trkpt>
      <trkpt lat="42.84948" lon="1.84056">
        <ele>1622.302</ele>
        <time>2021-02-28T10:31:15Z</time>
      </trkpt>
      <trkpt lat="42.84949" lon="1.84055">
        <ele>1624.183</ele>
        <time>2021-02-28T10:31:17Z</time>
      </trkpt>
      <trkpt lat="42.8495" lon="1.84056">
        <ele>1623.769</ele>
        <time>2021-02-28T10:31:19Z</time>
      </trkpt>
      <trkpt lat="42.8495" lon="1.84055">
        <ele>1624.707</ele>
        <time>2021-02-28T10:31:21Z</time>
      </trkpt>
      <trkpt lat="42.8495" lon="1.84055">
        <ele>1624.703</ele>
        <time>2021-02-28T10:31:23Z</time>
      </trkpt>
      <trkpt lat="42.8495" lon="1.84054">
        <ele>1624.7</ele>
        <time>2021-02-28T10:31:25Z</time>
      </trkpt>
      <trkpt lat="42.8495" lon="1.84054">
        <ele>1624.704</ele>
        <time>2021-02-28T10:31:27Z</time>
      </trkpt>
      <trkpt lat="42.8495" lon="1.84054">
        <ele>1624.682</ele>
        <time>2021-02-28T10:31:29Z</time>
      </trkpt>
      <trkpt lat="42.8495" lon="1.84054">
        <ele>1624.673</ele>
        <time>2021-02-28T10:31:31Z</time>
      </trkpt>
      <trkpt lat="42.8495" lon="1.84054">
        <ele>1624.665</ele>
        <time>2021-02-28T10:31:33Z</time>
      </trkpt>
      <trkpt lat="42.8495" lon="1.84055">
        <ele>1624.661</ele>
        <time>2021-02-28T10:31:35Z</time>
      </trkpt>
      <trkpt lat="42.8495" lon="1.84055">
        <ele>1624.647</ele>
        <time>2021-02-28T10:31:37Z</time>
      </trkpt>
      <trkpt lat="42.8495" lon="1.84055">
        <ele>1624.638</ele>
        <time>2021-02-28T10:31:39Z</time>
      </trkpt>
      <trkpt lat="42.8495" lon="1.84055">
        <ele>1624.624</ele>
        <time>2021-02-28T10:31:41Z</time>
      </trkpt>
      <trkpt lat="42.8495" lon="1.84055">
        <ele>1624.62</ele>
        <time>2021-02-28T10:31:43Z</time>
      </trkpt>
      <trkpt lat="42.8495" lon="1.84055">
        <ele>1624.608</ele>
        <time>2021-02-28T10:31:45Z</time>
      </trkpt>
      <trkpt lat="42.8495" lon="1.84055">
        <ele>1624.603</ele>
        <time>2021-02-28T10:31:47Z</time>
      </trkpt>
      <trkpt lat="42.8495" lon="1.84054">
        <ele>1624.332</ele>
        <time>2021-02-28T10:31:49Z</time>
      </trkpt>
      <trkpt lat="42.84951" lon="1.84054">
        <ele>1624.035</ele>
        <time>2021-02-28T10:31:51Z</time>
      </trkpt>
      <trkpt lat="42.84951" lon="1.84054">
        <ele>1624.039</ele>
        <time>2021-02-28T10:31:53Z</time>
      </trkpt>
      <trkpt lat="42.84951" lon="1.84054">
        <ele>1624.578</ele>
        <time>2021-02-28T10:31:55Z</time>
      </trkpt>
      <trkpt lat="42.84951" lon="1.84054">
        <ele>1624.591</ele>
        <time>2021-02-28T10:31:57Z</time>
      </trkpt>
      <trkpt lat="42.84951" lon="1.84054">
        <ele>1624.584</ele>
        <time>2021-02-28T10:31:59Z</time>
      </trkpt>
      <trkpt lat="42.84951" lon="1.84054">
        <ele>1624.579</ele>
        <time>2021-02-28T10:32:01Z</time>
      </trkpt>
      <trkpt lat="42.84951" lon="1.84054">
        <ele>1624.576</ele>
        <time>2021-02-28T10:32:03Z</time>
      </trkpt>
      <trkpt lat="42.84951" lon="1.84054">
        <ele>1624.572</ele>
        <time>2021-02-28T10:32:05Z</time>
      </trkpt>
      <trkpt lat="42.84951" lon="1.84054">
        <ele>1624.484</ele>
        <time>2021-02-28T10:32:07Z</time>
      </trkpt>
      <trkpt lat="42.84953" lon="1.84055">
        <ele>1622.559</ele>
        <time>2021-02-28T10:32:09Z</time>
      </trkpt>
      <trkpt lat="42.84955" lon="1.84055">
        <ele>1622.106</ele>
        <time>2021-02-28T10:32:11Z</time>
      </trkpt>
      <trkpt lat="42.84957" lon="1.84055">
        <ele>1622.589</ele>
        <time>2021-02-28T10:32:13Z</time>
      </trkpt>
      <trkpt lat="42.84958" lon="1.84054">
        <ele>1622.546</ele>
        <time>2021-02-28T10:32:15Z</time>
      </trkpt>
      <trkpt lat="42.84957" lon="1.84055">
        <ele>1620.909</ele>
        <time>2021-02-28T10:32:17Z</time>
      </trkpt>
      <trkpt lat="42.84959" lon="1.84055">
        <ele>1620.692</ele>
        <time>2021-02-28T10:32:19Z</time>
      </trkpt>
      <trkpt lat="42.84961" lon="1.84054">
        <ele>1620.302</ele>
        <time>2021-02-28T10:32:21Z</time>
      </trkpt>
      <trkpt lat="42.84963" lon="1.84053">
        <ele>1621.263</ele>
        <time>2021-02-28T10:32:23Z</time>
      </trkpt>
      <trkpt lat="42.84965" lon="1.84053">
        <ele>1622.131</ele>
        <time>2021-02-28T10:32:25Z</time>
      </trkpt>
      <trkpt lat="42.84967" lon="1.84052">
        <ele>1622.373</ele>
        <time>2021-02-28T10:32:27Z</time>
      </trkpt>
      <trkpt lat="42.84969" lon="1.84054">
        <ele>1620.593</ele>
        <time>2021-02-28T10:32:29Z</time>
      </trkpt>
      <trkpt lat="42.8497" lon="1.84054">
        <ele>1620.595</ele>
        <time>2021-02-28T10:32:31Z</time>
      </trkpt>
      <trkpt lat="42.84972" lon="1.84055">
        <ele>1619.292</ele>
        <time>2021-02-28T10:32:33Z</time>
      </trkpt>
      <trkpt lat="42.84974" lon="1.84056">
        <ele>1617.724</ele>
        <time>2021-02-28T10:32:35Z</time>
      </trkpt>
      <trkpt lat="42.84976" lon="1.84058">
        <ele>1617.543</ele>
        <time>2021-02-28T10:32:37Z</time>
      </trkpt>
      <trkpt lat="42.84977" lon="1.84059">
        <ele>1618.219</ele>
        <time>2021-02-28T10:32:39Z</time>
      </trkpt>
      <trkpt lat="42.84979" lon="1.8406">
        <ele>1616.535</ele>
        <time>2021-02-28T10:32:41Z</time>
      </trkpt>
      <trkpt lat="42.84981" lon="1.84061">
        <ele>1615.978</ele>
        <time>2021-02-28T10:32:43Z</time>
      </trkpt>
      <trkpt lat="42.84982" lon="1.84063">
        <ele>1615.159</ele>
        <time>2021-02-28T10:32:45Z</time>
      </trkpt>
      <trkpt lat="42.84984" lon="1.84065">
        <ele>1614.239</ele>
        <time>2021-02-28T10:32:47Z</time>
      </trkpt>
      <trkpt lat="42.84986" lon="1.84065">
        <ele>1614.806</ele>
        <time>2021-02-28T10:32:49Z</time>
      </trkpt>
      <trkpt lat="42.84988" lon="1.84066">
        <ele>1614.012</ele>
        <time>2021-02-28T10:32:51Z</time>
      </trkpt>
      <trkpt lat="42.84991" lon="1.84066">
        <ele>1614.213</ele>
        <time>2021-02-28T10:32:53Z</time>
      </trkpt>
      <trkpt lat="42.84992" lon="1.84065">
        <ele>1615.714</ele>
        <time>2021-02-28T10:32:55Z</time>
      </trkpt>
      <trkpt lat="42.84994" lon="1.84062">
        <ele>1617.854</ele>
        <time>2021-02-28T10:32:57Z</time>
      </trkpt>
      <trkpt lat="42.84996" lon="1.84061">
        <ele>1618.283</ele>
        <time>2021-02-28T10:32:59Z</time>
      </trkpt>
      <trkpt lat="42.84998" lon="1.84062">
        <ele>1618.788</ele>
        <time>2021-02-28T10:33:01Z</time>
      </trkpt>
      <trkpt lat="42.85" lon="1.84063">
        <ele>1618.855</ele>
        <time>2021-02-28T10:33:03Z</time>
      </trkpt>
      <trkpt lat="42.85002" lon="1.84064">
        <ele>1619.38</ele>
        <time>2021-02-28T10:33:05Z</time>
      </trkpt>
      <trkpt lat="42.85004" lon="1.84066">
        <ele>1619.381</ele>
        <time>2021-02-28T10:33:07Z</time>
      </trkpt>
      <trkpt lat="42.85006" lon="1.84067">
        <ele>1619.756</ele>
        <time>2021-02-28T10:33:09Z</time>
      </trkpt>
      <trkpt lat="42.85007" lon="1.84067">
        <ele>1619.744</ele>
        <time>2021-02-28T10:33:11Z</time>
      </trkpt>
      <trkpt lat="42.85009" lon="1.84069">
        <ele>1619.841</ele>
        <time>2021-02-28T10:33:13Z</time>
      </trkpt>
      <trkpt lat="42.85011" lon="1.8407">
        <ele>1619.593</ele>
        <time>2021-02-28T10:33:15Z</time>
      </trkpt>
      <trkpt lat="42.85013" lon="1.84072">
        <ele>1620.125</ele>
        <time>2021-02-28T10:33:17Z</time>
      </trkpt>
      <trkpt lat="42.85015" lon="1.84073">
        <ele>1620.883</ele>
        <time>2021-02-28T10:33:19Z</time>
      </trkpt>
      <trkpt lat="42.85017" lon="1.84074">
        <ele>1621.398</ele>
        <time>2021-02-28T10:33:21Z</time>
      </trkpt>
      <trkpt lat="42.85019" lon="1.84076">
        <ele>1622.481</ele>
        <time>2021-02-28T10:33:23Z</time>
      </trkpt>
      <trkpt lat="42.85021" lon="1.84078">
        <ele>1622.756</ele>
        <time>2021-02-28T10:33:25Z</time>
      </trkpt>
      <trkpt lat="42.85022" lon="1.8408">
        <ele>1622.626</ele>
        <time>2021-02-28T10:33:27Z</time>
      </trkpt>
      <trkpt lat="42.85024" lon="1.84081">
        <ele>1622.375</ele>
        <time>2021-02-28T10:33:29Z</time>
      </trkpt>
      <trkpt lat="42.85025" lon="1.84083">
        <ele>1622.08</ele>
        <time>2021-02-28T10:33:31Z</time>
      </trkpt>
      <trkpt lat="42.85026" lon="1.84084">
        <ele>1622.494</ele>
        <time>2021-02-28T10:33:33Z</time>
      </trkpt>
      <trkpt lat="42.85028" lon="1.84086">
        <ele>1622.351</ele>
        <time>2021-02-28T10:33:35Z</time>
      </trkpt>
      <trkpt lat="42.8503" lon="1.84087">
        <ele>1622.045</ele>
        <time>2021-02-28T10:33:37Z</time>
      </trkpt>
      <trkpt lat="42.85031" lon="1.84088">
        <ele>1621.655</ele>
        <time>2021-02-28T10:33:39Z</time>
      </trkpt>
      <trkpt lat="42.85033" lon="1.8409">
        <ele>1622.322</ele>
        <time>2021-02-28T10:33:41Z</time>
      </trkpt>
      <trkpt lat="42.85035" lon="1.84091">
        <ele>1622.007</ele>
        <time>2021-02-28T10:33:43Z</time>
      </trkpt>
      <trkpt lat="42.85036" lon="1.84092">
        <ele>1621.844</ele>
        <time>2021-02-28T10:33:45Z</time>
      </trkpt>
      <trkpt lat="42.85038" lon="1.84094">
        <ele>1621.838</ele>
        <time>2021-02-28T10:33:47Z</time>
      </trkpt>
      <trkpt lat="42.8504" lon="1.84095">
        <ele>1621.514</ele>
        <time>2021-02-28T10:33:49Z</time>
      </trkpt>
      <trkpt lat="42.85042" lon="1.84096">
        <ele>1621.525</ele>
        <time>2021-02-28T10:33:51Z</time>
      </trkpt>
      <trkpt lat="42.85044" lon="1.84097">
        <ele>1621.555</ele>
        <time>2021-02-28T10:33:53Z</time>
      </trkpt>
      <trkpt lat="42.85045" lon="1.84099">
        <ele>1621.32</ele>
        <time>2021-02-28T10:33:55Z</time>
      </trkpt>
      <trkpt lat="42.85047" lon="1.84101">
        <ele>1621.402</ele>
        <time>2021-02-28T10:33:57Z</time>
      </trkpt>
      <trkpt lat="42.85048" lon="1.84103">
        <ele>1621.053</ele>
        <time>2021-02-28T10:33:59Z</time>
      </trkpt>
      <trkpt lat="42.85048" lon="1.84105">
        <ele>1620.17</ele>
        <time>2021-02-28T10:34:01Z</time>
      </trkpt>
      <trkpt lat="42.85047" lon="1.84108">
        <ele>1619.23</ele>
        <time>2021-02-28T10:34:03Z</time>
      </trkpt>
      <trkpt lat="42.85045" lon="1.84109">
        <ele>1618.461</ele>
        <time>2021-02-28T10:34:05Z</time>
      </trkpt>
      <trkpt lat="42.85043" lon="1.8411">
        <ele>1619.124</ele>
        <time>2021-02-28T10:34:07Z</time>
      </trkpt>
      <trkpt lat="42.85042" lon="1.84109">
        <ele>1619.775</ele>
        <time>2021-02-28T10:34:09Z</time>
      </trkpt>
      <trkpt lat="42.8504" lon="1.8411">
        <ele>1620.735</ele>
        <time>2021-02-28T10:34:11Z</time>
      </trkpt>
      <trkpt lat="42.8504" lon="1.8411">
        <ele>1620.3</ele>
        <time>2021-02-28T10:34:13Z</time>
      </trkpt>
      <trkpt lat="42.85039" lon="1.84111">
        <ele>1619.626</ele>
        <time>2021-02-28T10:34:15Z</time>
      </trkpt>
      <trkpt lat="42.85039" lon="1.84112">
        <ele>1620.056</ele>
        <time>2021-02-28T10:34:17Z</time>
      </trkpt>
      <trkpt lat="42.85037" lon="1.84113">
        <ele>1619.857</ele>
        <time>2021-02-28T10:34:19Z</time>
      </trkpt>
      <trkpt lat="42.85036" lon="1.84114">
        <ele>1619.709</ele>
        <time>2021-02-28T10:34:21Z</time>
      </trkpt>
      <trkpt lat="42.85034" lon="1.84114">
        <ele>1620.058</ele>
        <time>2021-02-28T10:34:23Z</time>
      </trkpt>
      <trkpt lat="42.85034" lon="1.84113">
        <ele>1619.621</ele>
        <time>2021-02-28T10:34:25Z</time>
      </trkpt>
      <trkpt lat="42.85032" lon="1.84113">
        <ele>1619.328</ele>
        <time>2021-02-28T10:34:27Z</time>
      </trkpt>
      <trkpt lat="42.85031" lon="1.84114">
        <ele>1619.606</ele>
        <time>2021-02-28T10:34:29Z</time>
      </trkpt>
      <trkpt lat="42.8503" lon="1.84115">
        <ele>1619.246</ele>
        <time>2021-02-28T10:34:31Z</time>
      </trkpt>
      <trkpt lat="42.85029" lon="1.84115">
        <ele>1619.672</ele>
        <time>2021-02-28T10:34:33Z</time>
      </trkpt>
      <trkpt lat="42.85028" lon="1.84115">
        <ele>1619.728</ele>
        <time>2021-02-28T10:34:35Z</time>
      </trkpt>
      <trkpt lat="42.85027" lon="1.84116">
        <ele>1619.584</ele>
        <time>2021-02-28T10:34:37Z</time>
      </trkpt>
      <trkpt lat="42.85026" lon="1.84116">
        <ele>1620.113</ele>
        <time>2021-02-28T10:34:39Z</time>
      </trkpt>
      <trkpt lat="42.85025" lon="1.84116">
        <ele>1620.256</ele>
        <time>2021-02-28T10:34:41Z</time>
      </trkpt>
      <trkpt lat="42.85024" lon="1.84115">
        <ele>1620.687</ele>
        <time>2021-02-28T10:34:43Z</time>
      </trkpt>
      <trkpt lat="42.85023" lon="1.84115">
        <ele>1620.394</ele>
        <time>2021-02-28T10:34:45Z</time>
      </trkpt>
      <trkpt lat="42.85023" lon="1.84115">
        <ele>1620.933</ele>
        <time>2021-02-28T10:34:47Z</time>
      </trkpt>
      <trkpt lat="42.85022" lon="1.84115">
        <ele>1621.307</ele>
        <time>2021-02-28T10:34:49Z</time>
      </trkpt>
      <trkpt lat="42.85022" lon="1.84114">
        <ele>1621.893</ele>
        <time>2021-02-28T10:34:51Z</time>
      </trkpt>
      <trkpt lat="42.85021" lon="1.84114">
        <ele>1622.335</ele>
        <time>2021-02-28T10:34:53Z</time>
      </trkpt>
      <trkpt lat="42.8502" lon="1.84114">
        <ele>1622.807</ele>
        <time>2021-02-28T10:34:55Z</time>
      </trkpt>
      <trkpt lat="42.85019" lon="1.84113">
        <ele>1622.655</ele>
        <time>2021-02-28T10:34:57Z</time>
      </trkpt>
      <trkpt lat="42.85018" lon="1.84114">
        <ele>1622.418</ele>
        <time>2021-02-28T10:34:59Z</time>
      </trkpt>
      <trkpt lat="42.85017" lon="1.84114">
        <ele>1622.396</ele>
        <time>2021-02-28T10:35:01Z</time>
      </trkpt>
      <trkpt lat="42.85016" lon="1.84115">
        <ele>1622.168</ele>
        <time>2021-02-28T10:35:03Z</time>
      </trkpt>
      <trkpt lat="42.85015" lon="1.84114">
        <ele>1622.431</ele>
        <time>2021-02-28T10:35:05Z</time>
      </trkpt>
      <trkpt lat="42.85014" lon="1.84113">
        <ele>1622.764</ele>
        <time>2021-02-28T10:35:07Z</time>
      </trkpt>
      <trkpt lat="42.85013" lon="1.84113">
        <ele>1623.535</ele>
        <time>2021-02-28T10:35:09Z</time>
      </trkpt>
      <trkpt lat="42.85013" lon="1.84112">
        <ele>1623.859</ele>
        <time>2021-02-28T10:35:11Z</time>
      </trkpt>
      <trkpt lat="42.85012" lon="1.84112">
        <ele>1624.42</ele>
        <time>2021-02-28T10:35:13Z</time>
      </trkpt>
      <trkpt lat="42.85011" lon="1.84112">
        <ele>1625.171</ele>
        <time>2021-02-28T10:35:15Z</time>
      </trkpt>
      <trkpt lat="42.8501" lon="1.84111">
        <ele>1625.175</ele>
        <time>2021-02-28T10:35:17Z</time>
      </trkpt>
      <trkpt lat="42.8501" lon="1.8411">
        <ele>1625.336</ele>
        <time>2021-02-28T10:35:19Z</time>
      </trkpt>
      <trkpt lat="42.85009" lon="1.84111">
        <ele>1625.756</ele>
        <time>2021-02-28T10:35:21Z</time>
      </trkpt>
      <trkpt lat="42.85008" lon="1.84111">
        <ele>1625.218</ele>
        <time>2021-02-28T10:35:23Z</time>
      </trkpt>
      <trkpt lat="42.85007" lon="1.84111">
        <ele>1625.832</ele>
        <time>2021-02-28T10:35:25Z</time>
      </trkpt>
      <trkpt lat="42.85006" lon="1.8411">
        <ele>1626.589</ele>
        <time>2021-02-28T10:35:27Z</time>
      </trkpt>
      <trkpt lat="42.85006" lon="1.8411">
        <ele>1627.557</ele>
        <time>2021-02-28T10:35:29Z</time>
      </trkpt>
      <trkpt lat="42.85005" lon="1.8411">
        <ele>1627.461</ele>
        <time>2021-02-28T10:35:31Z</time>
      </trkpt>
      <trkpt lat="42.85004" lon="1.8411">
        <ele>1627.926</ele>
        <time>2021-02-28T10:35:33Z</time>
      </trkpt>
      <trkpt lat="42.85005" lon="1.84111">
        <ele>1628.334</ele>
        <time>2021-02-28T10:35:35Z</time>
      </trkpt>
      <trkpt lat="42.85004" lon="1.8411">
        <ele>1628.559</ele>
        <time>2021-02-28T10:35:37Z</time>
      </trkpt>
      <trkpt lat="42.85004" lon="1.8411">
        <ele>1629.559</ele>
        <time>2021-02-28T10:35:39Z</time>
      </trkpt>
      <trkpt lat="42.85003" lon="1.84109">
        <ele>1630.213</ele>
        <time>2021-02-28T10:35:41Z</time>
      </trkpt>
      <trkpt lat="42.85003" lon="1.84109">
        <ele>1630.784</ele>
        <time>2021-02-28T10:35:43Z</time>
      </trkpt>
      <trkpt lat="42.85002" lon="1.84109">
        <ele>1631.534</ele>
        <time>2021-02-28T10:35:45Z</time>
      </trkpt>
      <trkpt lat="42.85002" lon="1.84109">
        <ele>1631.8</ele>
        <time>2021-02-28T10:35:47Z</time>
      </trkpt>
      <trkpt lat="42.85002" lon="1.84109">
        <ele>1631.639</ele>
        <time>2021-02-28T10:35:49Z</time>
      </trkpt>
      <trkpt lat="42.85001" lon="1.84109">
        <ele>1632.05</ele>
        <time>2021-02-28T10:35:51Z</time>
      </trkpt>
      <trkpt lat="42.85" lon="1.84109">
        <ele>1632.067</ele>
        <time>2021-02-28T10:35:53Z</time>
      </trkpt>
      <trkpt lat="42.84999" lon="1.84108">
        <ele>1632.138</ele>
        <time>2021-02-28T10:35:55Z</time>
      </trkpt>
      <trkpt lat="42.84999" lon="1.84108">
        <ele>1632.265</ele>
        <time>2021-02-28T10:35:57Z</time>
      </trkpt>
      <trkpt lat="42.84998" lon="1.84108">
        <ele>1632.498</ele>
        <time>2021-02-28T10:35:59Z</time>
      </trkpt>
      <trkpt lat="42.84998" lon="1.84108">
        <ele>1632.506</ele>
        <time>2021-02-28T10:36:01Z</time>
      </trkpt>
      <trkpt lat="42.84998" lon="1.84108">
        <ele>1632.509</ele>
        <time>2021-02-28T10:36:03Z</time>
      </trkpt>
      <trkpt lat="42.84998" lon="1.84108">
        <ele>1632.542</ele>
        <time>2021-02-28T10:36:05Z</time>
      </trkpt>
      <trkpt lat="42.84998" lon="1.84107">
        <ele>1633.266</ele>
        <time>2021-02-28T10:36:07Z</time>
      </trkpt>
      <trkpt lat="42.84998" lon="1.84107">
        <ele>1633.791</ele>
        <time>2021-02-28T10:36:09Z</time>
      </trkpt>
      <trkpt lat="42.84998" lon="1.84106">
        <ele>1634.024</ele>
        <time>2021-02-28T10:36:11Z</time>
      </trkpt>
      <trkpt lat="42.84998" lon="1.84106">
        <ele>1634.02</ele>
        <time>2021-02-28T10:36:13Z</time>
      </trkpt>
      <trkpt lat="42.84998" lon="1.84106">
        <ele>1634.026</ele>
        <time>2021-02-28T10:36:15Z</time>
      </trkpt>
      <trkpt lat="42.84998" lon="1.84106">
        <ele>1634.36</ele>
        <time>2021-02-28T10:36:17Z</time>
      </trkpt>
      <trkpt lat="42.84997" lon="1.84105">
        <ele>1634.274</ele>
        <time>2021-02-28T10:36:19Z</time>
      </trkpt>
      <trkpt lat="42.84997" lon="1.84104">
        <ele>1634.821</ele>
        <time>2021-02-28T10:36:21Z</time>
      </trkpt>
      <trkpt lat="42.84998" lon="1.84103">
        <ele>1635.199</ele>
        <time>2021-02-28T10:36:23Z</time>
      </trkpt>
      <trkpt lat="42.84997" lon="1.84103">
        <ele>1635.701</ele>
        <time>2021-02-28T10:36:25Z</time>
      </trkpt>
      <trkpt lat="42.84997" lon="1.84103">
        <ele>1636.7</ele>
        <time>2021-02-28T10:36:27Z</time>
      </trkpt>
      <trkpt lat="42.84996" lon="1.84102">
        <ele>1636.449</ele>
        <time>2021-02-28T10:36:29Z</time>
      </trkpt>
      <trkpt lat="42.84996" lon="1.84102">
        <ele>1638.546</ele>
        <time>2021-02-28T10:36:31Z</time>
      </trkpt>
      <trkpt lat="42.84994" lon="1.84102">
        <ele>1637.967</ele>
        <time>2021-02-28T10:36:33Z</time>
      </trkpt>
      <trkpt lat="42.84993" lon="1.84102">
        <ele>1637.935</ele>
        <time>2021-02-28T10:36:35Z</time>
      </trkpt>
      <trkpt lat="42.84994" lon="1.84103">
        <ele>1638.625</ele>
        <time>2021-02-28T10:36:37Z</time>
      </trkpt>
      <trkpt lat="42.84993" lon="1.84103">
        <ele>1638.951</ele>
        <time>2021-02-28T10:36:39Z</time>
      </trkpt>
      <trkpt lat="42.84993" lon="1.84103">
        <ele>1639.381</ele>
        <time>2021-02-28T10:36:41Z</time>
      </trkpt>
      <trkpt lat="42.84992" lon="1.84103">
        <ele>1639.359</ele>
        <time>2021-02-28T10:36:43Z</time>
      </trkpt>
      <trkpt lat="42.84991" lon="1.84103">
        <ele>1639.499</ele>
        <time>2021-02-28T10:36:45Z</time>
      </trkpt>
      <trkpt lat="42.84989" lon="1.84105">
        <ele>1639.131</ele>
        <time>2021-02-28T10:36:47Z</time>
      </trkpt>
      <trkpt lat="42.84988" lon="1.84107">
        <ele>1639.931</ele>
        <time>2021-02-28T10:36:49Z</time>
      </trkpt>
      <trkpt lat="42.84987" lon="1.84108">
        <ele>1640.039</ele>
        <time>2021-02-28T10:36:51Z</time>
      </trkpt>
      <trkpt lat="42.84986" lon="1.8411">
        <ele>1640.898</ele>
        <time>2021-02-28T10:36:53Z</time>
      </trkpt>
      <trkpt lat="42.84985" lon="1.8411">
        <ele>1641.569</ele>
        <time>2021-02-28T10:36:55Z</time>
      </trkpt>
      <trkpt lat="42.84984" lon="1.8411">
        <ele>1642.116</ele>
        <time>2021-02-28T10:36:57Z</time>
      </trkpt>
      <trkpt lat="42.84983" lon="1.8411">
        <ele>1642.49</ele>
        <time>2021-02-28T10:36:59Z</time>
      </trkpt>
      <trkpt lat="42.84981" lon="1.8411">
        <ele>1643.209</ele>
        <time>2021-02-28T10:37:01Z</time>
      </trkpt>
      <trkpt lat="42.8498" lon="1.8411">
        <ele>1643.661</ele>
        <time>2021-02-28T10:37:03Z</time>
      </trkpt>
      <trkpt lat="42.84979" lon="1.8411">
        <ele>1643.133</ele>
        <time>2021-02-28T10:37:05Z</time>
      </trkpt>
      <trkpt lat="42.84978" lon="1.8411">
        <ele>1643.85</ele>
        <time>2021-02-28T10:37:07Z</time>
      </trkpt>
      <trkpt lat="42.84977" lon="1.8411">
        <ele>1644.845</ele>
        <time>2021-02-28T10:37:09Z</time>
      </trkpt>
      <trkpt lat="42.84976" lon="1.84111">
        <ele>1645.264</ele>
        <time>2021-02-28T10:37:11Z</time>
      </trkpt>
      <trkpt lat="42.84975" lon="1.84111">
        <ele>1645.727</ele>
        <time>2021-02-28T10:37:13Z</time>
      </trkpt>
      <trkpt lat="42.84975" lon="1.8411">
        <ele>1645.93</ele>
        <time>2021-02-28T10:37:15Z</time>
      </trkpt>
      <trkpt lat="42.84974" lon="1.84109">
        <ele>1645.739</ele>
        <time>2021-02-28T10:37:17Z</time>
      </trkpt>
      <trkpt lat="42.84973" lon="1.84108">
        <ele>1646.48</ele>
        <time>2021-02-28T10:37:19Z</time>
      </trkpt>
      <trkpt lat="42.84972" lon="1.84108">
        <ele>1647.415</ele>
        <time>2021-02-28T10:37:21Z</time>
      </trkpt>
      <trkpt lat="42.84971" lon="1.84107">
        <ele>1648.16</ele>
        <time>2021-02-28T10:37:23Z</time>
      </trkpt>
      <trkpt lat="42.84971" lon="1.84106">
        <ele>1648.906</ele>
        <time>2021-02-28T10:37:25Z</time>
      </trkpt>
      <trkpt lat="42.8497" lon="1.84105">
        <ele>1649.252</ele>
        <time>2021-02-28T10:37:27Z</time>
      </trkpt>
      <trkpt lat="42.84969" lon="1.84104">
        <ele>1649.85</ele>
        <time>2021-02-28T10:37:29Z</time>
      </trkpt>
      <trkpt lat="42.84969" lon="1.84105">
        <ele>1649.986</ele>
        <time>2021-02-28T10:37:31Z</time>
      </trkpt>
      <trkpt lat="42.84968" lon="1.84104">
        <ele>1650.38</ele>
        <time>2021-02-28T10:37:33Z</time>
      </trkpt>
      <trkpt lat="42.84968" lon="1.84103">
        <ele>1650.665</ele>
        <time>2021-02-28T10:37:35Z</time>
      </trkpt>
      <trkpt lat="42.84967" lon="1.84103">
        <ele>1651.588</ele>
        <time>2021-02-28T10:37:37Z</time>
      </trkpt>
      <trkpt lat="42.84966" lon="1.84102">
        <ele>1651.798</ele>
        <time>2021-02-28T10:37:39Z</time>
      </trkpt>
      <trkpt lat="42.84966" lon="1.84101">
        <ele>1652.242</ele>
        <time>2021-02-28T10:37:41Z</time>
      </trkpt>
      <trkpt lat="42.84965" lon="1.841">
        <ele>1652.558</ele>
        <time>2021-02-28T10:37:43Z</time>
      </trkpt>
      <trkpt lat="42.84965" lon="1.841">
        <ele>1653.315</ele>
        <time>2021-02-28T10:37:45Z</time>
      </trkpt>
      <trkpt lat="42.84964" lon="1.84099">
        <ele>1653.747</ele>
        <time>2021-02-28T10:37:47Z</time>
      </trkpt>
      <trkpt lat="42.84963" lon="1.84098">
        <ele>1653.977</ele>
        <time>2021-02-28T10:37:49Z</time>
      </trkpt>
      <trkpt lat="42.84963" lon="1.84097">
        <ele>1654.488</ele>
        <time>2021-02-28T10:37:51Z</time>
      </trkpt>
      <trkpt lat="42.84962" lon="1.84096">
        <ele>1654.629</ele>
        <time>2021-02-28T10:37:53Z</time>
      </trkpt>
      <trkpt lat="42.84962" lon="1.84094">
        <ele>1655.254</ele>
        <time>2021-02-28T10:37:55Z</time>
      </trkpt>
      <trkpt lat="42.84961" lon="1.84094">
        <ele>1655.447</ele>
        <time>2021-02-28T10:37:57Z</time>
      </trkpt>
      <trkpt lat="42.8496" lon="1.84094">
        <ele>1655.502</ele>
        <time>2021-02-28T10:37:59Z</time>
      </trkpt>
      <trkpt lat="42.84959" lon="1.84094">
        <ele>1655.583</ele>
        <time>2021-02-28T10:38:01Z</time>
      </trkpt>
      <trkpt lat="42.84958" lon="1.84094">
        <ele>1655.873</ele>
        <time>2021-02-28T10:38:03Z</time>
      </trkpt>
      <trkpt lat="42.84957" lon="1.84094">
        <ele>1655.562</ele>
        <time>2021-02-28T10:38:05Z</time>
      </trkpt>
      <trkpt lat="42.84955" lon="1.84093">
        <ele>1655.536</ele>
        <time>2021-02-28T10:38:07Z</time>
      </trkpt>
      <trkpt lat="42.84955" lon="1.84092">
        <ele>1655.614</ele>
        <time>2021-02-28T10:38:09Z</time>
      </trkpt>
      <trkpt lat="42.84954" lon="1.84092">
        <ele>1655.737</ele>
        <time>2021-02-28T10:38:11Z</time>
      </trkpt>
      <trkpt lat="42.84953" lon="1.84092">
        <ele>1655.628</ele>
        <time>2021-02-28T10:38:13Z</time>
      </trkpt>
      <trkpt lat="42.84952" lon="1.84092">
        <ele>1656.053</ele>
        <time>2021-02-28T10:38:15Z</time>
      </trkpt>
      <trkpt lat="42.8495" lon="1.84092">
        <ele>1656.419</ele>
        <time>2021-02-28T10:38:17Z</time>
      </trkpt>
      <trkpt lat="42.8495" lon="1.84092">
        <ele>1656.656</ele>
        <time>2021-02-28T10:38:19Z</time>
      </trkpt>
      <trkpt lat="42.84949" lon="1.84092">
        <ele>1657.779</ele>
        <time>2021-02-28T10:38:21Z</time>
      </trkpt>
      <trkpt lat="42.84948" lon="1.8409">
        <ele>1658.358</ele>
        <time>2021-02-28T10:38:23Z</time>
      </trkpt>
      <trkpt lat="42.84948" lon="1.84089">
        <ele>1659.258</ele>
        <time>2021-02-28T10:38:25Z</time>
      </trkpt>
      <trkpt lat="42.84947" lon="1.84088">
        <ele>1659.439</ele>
        <time>2021-02-28T10:38:27Z</time>
      </trkpt>
      <trkpt lat="42.84947" lon="1.84087">
        <ele>1660.66</ele>
        <time>2021-02-28T10:38:29Z</time>
      </trkpt>
      <trkpt lat="42.84946" lon="1.84086">
        <ele>1661.211</ele>
        <time>2021-02-28T10:38:31Z</time>
      </trkpt>
      <trkpt lat="42.84945" lon="1.84086">
        <ele>1661.879</ele>
        <time>2021-02-28T10:38:33Z</time>
      </trkpt>
      <trkpt lat="42.84945" lon="1.84086">
        <ele>1662.597</ele>
        <time>2021-02-28T10:38:35Z</time>
      </trkpt>
      <trkpt lat="42.84944" lon="1.84086">
        <ele>1662.677</ele>
        <time>2021-02-28T10:38:37Z</time>
      </trkpt>
      <trkpt lat="42.84942" lon="1.84087">
        <ele>1662.612</ele>
        <time>2021-02-28T10:38:40Z</time>
      </trkpt>
      <trkpt lat="42.84942" lon="1.84086">
        <ele>1662.489</ele>
        <time>2021-02-28T10:38:42Z</time>
      </trkpt>
      <trkpt lat="42.84942" lon="1.84085">
        <ele>1663.055</ele>
        <time>2021-02-28T10:38:44Z</time>
      </trkpt>
      <trkpt lat="42.84941" lon="1.84084">
        <ele>1662.906</ele>
        <time>2021-02-28T10:38:46Z</time>
      </trkpt>
      <trkpt lat="42.8494" lon="1.84084">
        <ele>1663.205</ele>
        <time>2021-02-28T10:38:48Z</time>
      </trkpt>
      <trkpt lat="42.84938" lon="1.84084">
        <ele>1664.087</ele>
        <time>2021-02-28T10:38:50Z</time>
      </trkpt>
      <trkpt lat="42.84937" lon="1.84084">
        <ele>1664.225</ele>
        <time>2021-02-28T10:38:52Z</time>
      </trkpt>
      <trkpt lat="42.84936" lon="1.84083">
        <ele>1664.777</ele>
        <time>2021-02-28T10:38:54Z</time>
      </trkpt>
      <trkpt lat="42.84936" lon="1.84082">
        <ele>1664.811</ele>
        <time>2021-02-28T10:38:56Z</time>
      </trkpt>
      <trkpt lat="42.84936" lon="1.84081">
        <ele>1665.662</ele>
        <time>2021-02-28T10:38:58Z</time>
      </trkpt>
      <trkpt lat="42.84936" lon="1.8408">
        <ele>1666.621</ele>
        <time>2021-02-28T10:39:00Z</time>
      </trkpt>
      <trkpt lat="42.84936" lon="1.84078">
        <ele>1666.796</ele>
        <time>2021-02-28T10:39:02Z</time>
      </trkpt>
      <trkpt lat="42.84936" lon="1.84076">
        <ele>1667.182</ele>
        <time>2021-02-28T10:39:04Z</time>
      </trkpt>
      <trkpt lat="42.84935" lon="1.84075">
        <ele>1667.488</ele>
        <time>2021-02-28T10:39:06Z</time>
      </trkpt>
      <trkpt lat="42.84934" lon="1.84073">
        <ele>1667.856</ele>
        <time>2021-02-28T10:39:08Z</time>
      </trkpt>
      <trkpt lat="42.84933" lon="1.84073">
        <ele>1667.722</ele>
        <time>2021-02-28T10:39:10Z</time>
      </trkpt>
      <trkpt lat="42.84933" lon="1.84073">
        <ele>1667.707</ele>
        <time>2021-02-28T10:39:12Z</time>
      </trkpt>
      <trkpt lat="42.84931" lon="1.84073">
        <ele>1667.952</ele>
        <time>2021-02-28T10:39:14Z</time>
      </trkpt>
      <trkpt lat="42.84931" lon="1.84072">
        <ele>1668.469</ele>
        <time>2021-02-28T10:39:16Z</time>
      </trkpt>
      <trkpt lat="42.8493" lon="1.84072">
        <ele>1669.196</ele>
        <time>2021-02-28T10:39:18Z</time>
      </trkpt>
      <trkpt lat="42.84929" lon="1.84072">
        <ele>1669.861</ele>
        <time>2021-02-28T10:39:20Z</time>
      </trkpt>
      <trkpt lat="42.84928" lon="1.84071">
        <ele>1670.972</ele>
        <time>2021-02-28T10:39:22Z</time>
      </trkpt>
      <trkpt lat="42.84927" lon="1.84071">
        <ele>1671.739</ele>
        <time>2021-02-28T10:39:24Z</time>
      </trkpt>
      <trkpt lat="42.84927" lon="1.8407">
        <ele>1672.108</ele>
        <time>2021-02-28T10:39:26Z</time>
      </trkpt>
      <trkpt lat="42.84925" lon="1.8407">
        <ele>1671.922</ele>
        <time>2021-02-28T10:39:28Z</time>
      </trkpt>
      <trkpt lat="42.84925" lon="1.84069">
        <ele>1672.999</ele>
        <time>2021-02-28T10:39:30Z</time>
      </trkpt>
      <trkpt lat="42.84924" lon="1.84069">
        <ele>1673.221</ele>
        <time>2021-02-28T10:39:31Z</time>
      </trkpt>
      <trkpt lat="42.8492" lon="1.84068">
        <ele>1672.953</ele>
        <time>2021-02-28T10:39:39Z</time>
      </trkpt>
      <trkpt lat="42.84919" lon="1.84067">
        <ele>1673.581</ele>
        <time>2021-02-28T10:39:41Z</time>
      </trkpt>
      <trkpt lat="42.84918" lon="1.84067">
        <ele>1673.516</ele>
        <time>2021-02-28T10:39:43Z</time>
      </trkpt>
      <trkpt lat="42.84918" lon="1.84067">
        <ele>1673.433</ele>
        <time>2021-02-28T10:39:45Z</time>
      </trkpt>
      <trkpt lat="42.84917" lon="1.84068">
        <ele>1673.352</ele>
        <time>2021-02-28T10:39:47Z</time>
      </trkpt>
      <trkpt lat="42.84916" lon="1.84068">
        <ele>1673.276</ele>
        <time>2021-02-28T10:39:49Z</time>
      </trkpt>
      <trkpt lat="42.84916" lon="1.84067">
        <ele>1674.636</ele>
        <time>2021-02-28T10:39:51Z</time>
      </trkpt>
      <trkpt lat="42.84916" lon="1.84066">
        <ele>1674.982</ele>
        <time>2021-02-28T10:39:53Z</time>
      </trkpt>
      <trkpt lat="42.84915" lon="1.84066">
        <ele>1674.911</ele>
        <time>2021-02-28T10:39:55Z</time>
      </trkpt>
      <trkpt lat="42.84914" lon="1.84067">
        <ele>1675.031</ele>
        <time>2021-02-28T10:39:57Z</time>
      </trkpt>
      <trkpt lat="42.84914" lon="1.84067">
        <ele>1675.586</ele>
        <time>2021-02-28T10:39:59Z</time>
      </trkpt>
      <trkpt lat="42.84914" lon="1.84068">
        <ele>1675.232</ele>
        <time>2021-02-28T10:40:01Z</time>
      </trkpt>
      <trkpt lat="42.84913" lon="1.84068">
        <ele>1675.805</ele>
        <time>2021-02-28T10:40:03Z</time>
      </trkpt>
      <trkpt lat="42.84913" lon="1.84068">
        <ele>1676.233</ele>
        <time>2021-02-28T10:40:05Z</time>
      </trkpt>
      <trkpt lat="42.84912" lon="1.84069">
        <ele>1676.107</ele>
        <time>2021-02-28T10:40:07Z</time>
      </trkpt>
      <trkpt lat="42.84911" lon="1.84069">
        <ele>1676.651</ele>
        <time>2021-02-28T10:40:09Z</time>
      </trkpt>
      <trkpt lat="42.84911" lon="1.84068">
        <ele>1677.54</ele>
        <time>2021-02-28T10:40:11Z</time>
      </trkpt>
      <trkpt lat="42.8491" lon="1.84067">
        <ele>1677.904</ele>
        <time>2021-02-28T10:40:13Z</time>
      </trkpt>
      <trkpt lat="42.8491" lon="1.84067">
        <ele>1678.417</ele>
        <time>2021-02-28T10:40:15Z</time>
      </trkpt>
      <trkpt lat="42.84909" lon="1.84066">
        <ele>1678.579</ele>
        <time>2021-02-28T10:40:17Z</time>
      </trkpt>
      <trkpt lat="42.84909" lon="1.84066">
        <ele>1678.31</ele>
        <time>2021-02-28T10:40:19Z</time>
      </trkpt>
      <trkpt lat="42.84908" lon="1.84065">
        <ele>1679.102</ele>
        <time>2021-02-28T10:40:21Z</time>
      </trkpt>
      <trkpt lat="42.84907" lon="1.84065">
        <ele>1679.745</ele>
        <time>2021-02-28T10:40:23Z</time>
      </trkpt>
      <trkpt lat="42.84907" lon="1.84064">
        <ele>1679.888</ele>
        <time>2021-02-28T10:40:25Z</time>
      </trkpt>
      <trkpt lat="42.84906" lon="1.84064">
        <ele>1680.644</ele>
        <time>2021-02-28T10:40:27Z</time>
      </trkpt>
      <trkpt lat="42.84906" lon="1.84063">
        <ele>1681.197</ele>
        <time>2021-02-28T10:40:29Z</time>
      </trkpt>
      <trkpt lat="42.84905" lon="1.84063">
        <ele>1681.359</ele>
        <time>2021-02-28T10:40:31Z</time>
      </trkpt>
      <trkpt lat="42.84904" lon="1.84064">
        <ele>1681.936</ele>
        <time>2021-02-28T10:40:33Z</time>
      </trkpt>
      <trkpt lat="42.84903" lon="1.84065">
        <ele>1681.868</ele>
        <time>2021-02-28T10:40:35Z</time>
      </trkpt>
      <trkpt lat="42.84902" lon="1.84066">
        <ele>1681.647</ele>
        <time>2021-02-28T10:40:37Z</time>
      </trkpt>
      <trkpt lat="42.84902" lon="1.84067">
        <ele>1681.898</ele>
        <time>2021-02-28T10:40:39Z</time>
      </trkpt>
      <trkpt lat="42.84901" lon="1.84066">
        <ele>1681.966</ele>
        <time>2021-02-28T10:40:41Z</time>
      </trkpt>
      <trkpt lat="42.849" lon="1.84065">
        <ele>1682.45</ele>
        <time>2021-02-28T10:40:43Z</time>
      </trkpt>
      <trkpt lat="42.84899" lon="1.84065">
        <ele>1683.06</ele>
        <time>2021-02-28T10:40:45Z</time>
      </trkpt>
      <trkpt lat="42.84898" lon="1.84064">
        <ele>1683.238</ele>
        <time>2021-02-28T10:40:47Z</time>
      </trkpt>
      <trkpt lat="42.84898" lon="1.84063">
        <ele>1684.132</ele>
        <time>2021-02-28T10:40:49Z</time>
      </trkpt>
      <trkpt lat="42.84897" lon="1.84062">
        <ele>1684.102</ele>
        <time>2021-02-28T10:40:51Z</time>
      </trkpt>
      <trkpt lat="42.84896" lon="1.84062">
        <ele>1684.957</ele>
        <time>2021-02-28T10:40:53Z</time>
      </trkpt>
      <trkpt lat="42.84896" lon="1.84062">
        <ele>1686.066</ele>
        <time>2021-02-28T10:40:55Z</time>
      </trkpt>
      <trkpt lat="42.84895" lon="1.84063">
        <ele>1685.607</ele>
        <time>2021-02-28T10:40:57Z</time>
      </trkpt>
      <trkpt lat="42.84894" lon="1.84064">
        <ele>1685.653</ele>
        <time>2021-02-28T10:41:00Z</time>
      </trkpt>
      <trkpt lat="42.84893" lon="1.84065">
        <ele>1685.247</ele>
        <time>2021-02-28T10:41:02Z</time>
      </trkpt>
      <trkpt lat="42.84893" lon="1.84065">
        <ele>1684.89</ele>
        <time>2021-02-28T10:41:04Z</time>
      </trkpt>
      <trkpt lat="42.84892" lon="1.84066">
        <ele>1684.652</ele>
        <time>2021-02-28T10:41:06Z</time>
      </trkpt>
      <trkpt lat="42.84891" lon="1.84066">
        <ele>1684.996</ele>
        <time>2021-02-28T10:41:08Z</time>
      </trkpt>
      <trkpt lat="42.84891" lon="1.84066">
        <ele>1685.553</ele>
        <time>2021-02-28T10:41:10Z</time>
      </trkpt>
      <trkpt lat="42.8489" lon="1.84066">
        <ele>1685.856</ele>
        <time>2021-02-28T10:41:12Z</time>
      </trkpt>
      <trkpt lat="42.84889" lon="1.84066">
        <ele>1685.886</ele>
        <time>2021-02-28T10:41:14Z</time>
      </trkpt>
      <trkpt lat="42.84888" lon="1.84067">
        <ele>1686.095</ele>
        <time>2021-02-28T10:41:16Z</time>
      </trkpt>
      <trkpt lat="42.84888" lon="1.84065">
        <ele>1686.898</ele>
        <time>2021-02-28T10:41:18Z</time>
      </trkpt>
      <trkpt lat="42.84888" lon="1.84065">
        <ele>1687.184</ele>
        <time>2021-02-28T10:41:20Z</time>
      </trkpt>
      <trkpt lat="42.84888" lon="1.84064">
        <ele>1687.379</ele>
        <time>2021-02-28T10:41:22Z</time>
      </trkpt>
      <trkpt lat="42.84887" lon="1.84065">
        <ele>1687.26</ele>
        <time>2021-02-28T10:41:24Z</time>
      </trkpt>
      <trkpt lat="42.84887" lon="1.84064">
        <ele>1687.952</ele>
        <time>2021-02-28T10:41:26Z</time>
      </trkpt>
      <trkpt lat="42.84886" lon="1.84063">
        <ele>1688.433</ele>
        <time>2021-02-28T10:41:28Z</time>
      </trkpt>
      <trkpt lat="42.84886" lon="1.84064">
        <ele>1688.565</ele>
        <time>2021-02-28T10:41:30Z</time>
      </trkpt>
      <trkpt lat="42.84886" lon="1.84063">
        <ele>1688.296</ele>
        <time>2021-02-28T10:41:32Z</time>
      </trkpt>
      <trkpt lat="42.84886" lon="1.84063">
        <ele>1688.865</ele>
        <time>2021-02-28T10:41:34Z</time>
      </trkpt>
      <trkpt lat="42.84886" lon="1.84062">
        <ele>1689.514</ele>
        <time>2021-02-28T10:41:36Z</time>
      </trkpt>
      <trkpt lat="42.84885" lon="1.84061">
        <ele>1690.006</ele>
        <time>2021-02-28T10:41:38Z</time>
      </trkpt>
      <trkpt lat="42.84885" lon="1.8406">
        <ele>1690.945</ele>
        <time>2021-02-28T10:41:40Z</time>
      </trkpt>
      <trkpt lat="42.84884" lon="1.84059">
        <ele>1692.243</ele>
        <time>2021-02-28T10:41:42Z</time>
      </trkpt>
      <trkpt lat="42.84884" lon="1.84058">
        <ele>1692.883</ele>
        <time>2021-02-28T10:41:44Z</time>
      </trkpt>
      <trkpt lat="42.84884" lon="1.84057">
        <ele>1693.384</ele>
        <time>2021-02-28T10:41:46Z</time>
      </trkpt>
      <trkpt lat="42.84884" lon="1.84056">
        <ele>1693.756</ele>
        <time>2021-02-28T10:41:48Z</time>
      </trkpt>
      <trkpt lat="42.84884" lon="1.84055">
        <ele>1694.755</ele>
        <time>2021-02-28T10:41:50Z</time>
      </trkpt>
      <trkpt lat="42.84883" lon="1.84054">
        <ele>1695.163</ele>
        <time>2021-02-28T10:41:52Z</time>
      </trkpt>
      <trkpt lat="42.84883" lon="1.84053">
        <ele>1695.578</ele>
        <time>2021-02-28T10:41:54Z</time>
      </trkpt>
      <trkpt lat="42.84883" lon="1.84052">
        <ele>1696.119</ele>
        <time>2021-02-28T10:41:56Z</time>
      </trkpt>
      <trkpt lat="42.84882" lon="1.8405">
        <ele>1696.564</ele>
        <time>2021-02-28T10:41:58Z</time>
      </trkpt>
      <trkpt lat="42.84882" lon="1.8405">
        <ele>1697.047</ele>
        <time>2021-02-28T10:42:00Z</time>
      </trkpt>
      <trkpt lat="42.84881" lon="1.84048">
        <ele>1697.68</ele>
        <time>2021-02-28T10:42:02Z</time>
      </trkpt>
      <trkpt lat="42.8488" lon="1.84048">
        <ele>1697.701</ele>
        <time>2021-02-28T10:42:04Z</time>
      </trkpt>
      <trkpt lat="42.84879" lon="1.84048">
        <ele>1697.928</ele>
        <time>2021-02-28T10:42:06Z</time>
      </trkpt>
      <trkpt lat="42.84879" lon="1.84047">
        <ele>1698.25</ele>
        <time>2021-02-28T10:42:08Z</time>
      </trkpt>
      <trkpt lat="42.84877" lon="1.84047">
        <ele>1699.022</ele>
        <time>2021-02-28T10:42:10Z</time>
      </trkpt>
      <trkpt lat="42.84876" lon="1.84046">
        <ele>1699.735</ele>
        <time>2021-02-28T10:42:12Z</time>
      </trkpt>
      <trkpt lat="42.84875" lon="1.84046">
        <ele>1700.524</ele>
        <time>2021-02-28T10:42:14Z</time>
      </trkpt>
      <trkpt lat="42.84874" lon="1.84046">
        <ele>1700.284</ele>
        <time>2021-02-28T10:42:16Z</time>
      </trkpt>
      <trkpt lat="42.84873" lon="1.84046">
        <ele>1700.676</ele>
        <time>2021-02-28T10:42:18Z</time>
      </trkpt>
      <trkpt lat="42.84872" lon="1.84045">
        <ele>1700.928</ele>
        <time>2021-02-28T10:42:20Z</time>
      </trkpt>
      <trkpt lat="42.84871" lon="1.84044">
        <ele>1700.789</ele>
        <time>2021-02-28T10:42:22Z</time>
      </trkpt>
      <trkpt lat="42.84871" lon="1.84043">
        <ele>1700.651</ele>
        <time>2021-02-28T10:42:24Z</time>
      </trkpt>
      <trkpt lat="42.8487" lon="1.84043">
        <ele>1700.447</ele>
        <time>2021-02-28T10:42:26Z</time>
      </trkpt>
      <trkpt lat="42.84869" lon="1.84044">
        <ele>1700.512</ele>
        <time>2021-02-28T10:42:28Z</time>
      </trkpt>
      <trkpt lat="42.84868" lon="1.84046">
        <ele>1700.664</ele>
        <time>2021-02-28T10:42:30Z</time>
      </trkpt>
      <trkpt lat="42.84867" lon="1.84046">
        <ele>1700.403</ele>
        <time>2021-02-28T10:42:32Z</time>
      </trkpt>
      <trkpt lat="42.84866" lon="1.84047">
        <ele>1700.662</ele>
        <time>2021-02-28T10:42:34Z</time>
      </trkpt>
      <trkpt lat="42.84865" lon="1.84046">
        <ele>1700.821</ele>
        <time>2021-02-28T10:42:36Z</time>
      </trkpt>
      <trkpt lat="42.84864" lon="1.84046">
        <ele>1701.57</ele>
        <time>2021-02-28T10:42:38Z</time>
      </trkpt>
      <trkpt lat="42.84863" lon="1.84045">
        <ele>1701.423</ele>
        <time>2021-02-28T10:42:40Z</time>
      </trkpt>
      <trkpt lat="42.84863" lon="1.84045">
        <ele>1701.201</ele>
        <time>2021-02-28T10:42:42Z</time>
      </trkpt>
      <trkpt lat="42.84863" lon="1.84046">
        <ele>1701.198</ele>
        <time>2021-02-28T10:42:44Z</time>
      </trkpt>
      <trkpt lat="42.84863" lon="1.84046">
        <ele>1701.197</ele>
        <time>2021-02-28T10:42:46Z</time>
      </trkpt>
      <trkpt lat="42.84863" lon="1.84045">
        <ele>1701.627</ele>
        <time>2021-02-28T10:42:48Z</time>
      </trkpt>
      <trkpt lat="42.84863" lon="1.84046">
        <ele>1702.431</ele>
        <time>2021-02-28T10:42:50Z</time>
      </trkpt>
      <trkpt lat="42.84862" lon="1.84046">
        <ele>1702.435</ele>
        <time>2021-02-28T10:42:52Z</time>
      </trkpt>
      <trkpt lat="42.84862" lon="1.84046">
        <ele>1702.449</ele>
        <time>2021-02-28T10:42:54Z</time>
      </trkpt>
      <trkpt lat="42.84862" lon="1.84046">
        <ele>1702.45</ele>
        <time>2021-02-28T10:42:56Z</time>
      </trkpt>
      <trkpt lat="42.84862" lon="1.84046">
        <ele>1702.453</ele>
        <time>2021-02-28T10:42:58Z</time>
      </trkpt>
      <trkpt lat="42.84862" lon="1.84046">
        <ele>1702.449</ele>
        <time>2021-02-28T10:43:00Z</time>
      </trkpt>
      <trkpt lat="42.84862" lon="1.84046">
        <ele>1702.452</ele>
        <time>2021-02-28T10:43:02Z</time>
      </trkpt>
      <trkpt lat="42.84861" lon="1.84045">
        <ele>1703.685</ele>
        <time>2021-02-28T10:43:09Z</time>
      </trkpt>
      <trkpt lat="42.84861" lon="1.84046">
        <ele>1703.691</ele>
        <time>2021-02-28T10:43:11Z</time>
      </trkpt>
      <trkpt lat="42.84861" lon="1.84046">
        <ele>1703.697</ele>
        <time>2021-02-28T10:43:13Z</time>
      </trkpt>
      <trkpt lat="42.84861" lon="1.84046">
        <ele>1703.71</ele>
        <time>2021-02-28T10:43:15Z</time>
      </trkpt>
      <trkpt lat="42.8486" lon="1.84046">
        <ele>1704.053</ele>
        <time>2021-02-28T10:43:17Z</time>
      </trkpt>
      <trkpt lat="42.84859" lon="1.84046">
        <ele>1703.987</ele>
        <time>2021-02-28T10:43:19Z</time>
      </trkpt>
      <trkpt lat="42.84858" lon="1.84046">
        <ele>1704.412</ele>
        <time>2021-02-28T10:43:21Z</time>
      </trkpt>
      <trkpt lat="42.84858" lon="1.84046">
        <ele>1704.426</ele>
        <time>2021-02-28T10:43:23Z</time>
      </trkpt>
      <trkpt lat="42.84858" lon="1.84047">
        <ele>1704.283</ele>
        <time>2021-02-28T10:43:25Z</time>
      </trkpt>
      <trkpt lat="42.84858" lon="1.84047">
        <ele>1704.394</ele>
        <time>2021-02-28T10:43:27Z</time>
      </trkpt>
      <trkpt lat="42.84857" lon="1.84047">
        <ele>1705.004</ele>
        <time>2021-02-28T10:43:29Z</time>
      </trkpt>
      <trkpt lat="42.84856" lon="1.84047">
        <ele>1704.974</ele>
        <time>2021-02-28T10:43:31Z</time>
      </trkpt>
      <trkpt lat="42.84856" lon="1.84046">
        <ele>1704.902</ele>
        <time>2021-02-28T10:43:33Z</time>
      </trkpt>
      <trkpt lat="42.84855" lon="1.84046">
        <ele>1705.398</ele>
        <time>2021-02-28T10:43:35Z</time>
      </trkpt>
      <trkpt lat="42.84855" lon="1.84046">
        <ele>1705.683</ele>
        <time>2021-02-28T10:43:37Z</time>
      </trkpt>
      <trkpt lat="42.84854" lon="1.84047">
        <ele>1705.632</ele>
        <time>2021-02-28T10:43:39Z</time>
      </trkpt>
      <trkpt lat="42.84852" lon="1.84048">
        <ele>1705.847</ele>
        <time>2021-02-28T10:43:41Z</time>
      </trkpt>
      <trkpt lat="42.84851" lon="1.84048">
        <ele>1705.572</ele>
        <time>2021-02-28T10:43:43Z</time>
      </trkpt>
      <trkpt lat="42.84851" lon="1.84047">
        <ele>1705.966</ele>
        <time>2021-02-28T10:43:45Z</time>
      </trkpt>
      <trkpt lat="42.84851" lon="1.84046">
        <ele>1706.297</ele>
        <time>2021-02-28T10:43:47Z</time>
      </trkpt>
      <trkpt lat="42.8485" lon="1.84045">
        <ele>1707.023</ele>
        <time>2021-02-28T10:43:49Z</time>
      </trkpt>
      <trkpt lat="42.84849" lon="1.84044">
        <ele>1707.323</ele>
        <time>2021-02-28T10:43:51Z</time>
      </trkpt>
      <trkpt lat="42.84848" lon="1.84043">
        <ele>1707.909</ele>
        <time>2021-02-28T10:43:53Z</time>
      </trkpt>
      <trkpt lat="42.84847" lon="1.84041">
        <ele>1707.796</ele>
        <time>2021-02-28T10:43:55Z</time>
      </trkpt>
      <trkpt lat="42.84847" lon="1.8404">
        <ele>1707.354</ele>
        <time>2021-02-28T10:43:57Z</time>
      </trkpt>
      <trkpt lat="42.84846" lon="1.84039">
        <ele>1707.791</ele>
        <time>2021-02-28T10:43:59Z</time>
      </trkpt>
      <trkpt lat="42.84846" lon="1.84039">
        <ele>1707.976</ele>
        <time>2021-02-28T10:44:01Z</time>
      </trkpt>
      <trkpt lat="42.84846" lon="1.84039">
        <ele>1707.975</ele>
        <time>2021-02-28T10:44:04Z</time>
      </trkpt>
      <trkpt lat="42.84846" lon="1.84039">
        <ele>1707.976</ele>
        <time>2021-02-28T10:44:06Z</time>
      </trkpt>
      <trkpt lat="42.84846" lon="1.84039">
        <ele>1707.973</ele>
        <time>2021-02-28T10:44:08Z</time>
      </trkpt>
      <trkpt lat="42.84846" lon="1.84039">
        <ele>1707.965</ele>
        <time>2021-02-28T10:44:10Z</time>
      </trkpt>
      <trkpt lat="42.84846" lon="1.84039">
        <ele>1707.963</ele>
        <time>2021-02-28T10:44:12Z</time>
      </trkpt>
      <trkpt lat="42.84846" lon="1.84039">
        <ele>1707.966</ele>
        <time>2021-02-28T10:44:14Z</time>
      </trkpt>
      <trkpt lat="42.84845" lon="1.84038">
        <ele>1708.289</ele>
        <time>2021-02-28T10:44:16Z</time>
      </trkpt>
      <trkpt lat="42.84844" lon="1.84038">
        <ele>1707.681</ele>
        <time>2021-02-28T10:44:18Z</time>
      </trkpt>
      <trkpt lat="42.84843" lon="1.84038">
        <ele>1706.965</ele>
        <time>2021-02-28T10:44:20Z</time>
      </trkpt>
      <trkpt lat="42.84843" lon="1.84039">
        <ele>1707.037</ele>
        <time>2021-02-28T10:44:22Z</time>
      </trkpt>
      <trkpt lat="42.84843" lon="1.84039">
        <ele>1707.032</ele>
        <time>2021-02-28T10:44:24Z</time>
      </trkpt>
      <trkpt lat="42.84842" lon="1.84039">
        <ele>1707</ele>
        <time>2021-02-28T10:44:26Z</time>
      </trkpt>
      <trkpt lat="42.84841" lon="1.84038">
        <ele>1707.3</ele>
        <time>2021-02-28T10:44:28Z</time>
      </trkpt>
      <trkpt lat="42.8484" lon="1.84037">
        <ele>1707.259</ele>
        <time>2021-02-28T10:44:30Z</time>
      </trkpt>
      <trkpt lat="42.84839" lon="1.84036">
        <ele>1706.881</ele>
        <time>2021-02-28T10:44:32Z</time>
      </trkpt>
      <trkpt lat="42.84837" lon="1.84036">
        <ele>1706.789</ele>
        <time>2021-02-28T10:44:34Z</time>
      </trkpt>
      <trkpt lat="42.84835" lon="1.84035">
        <ele>1706.966</ele>
        <time>2021-02-28T10:44:36Z</time>
      </trkpt>
      <trkpt lat="42.84834" lon="1.84034">
        <ele>1706.475</ele>
        <time>2021-02-28T10:44:38Z</time>
      </trkpt>
      <trkpt lat="42.84832" lon="1.84034">
        <ele>1706.064</ele>
        <time>2021-02-28T10:44:40Z</time>
      </trkpt>
      <trkpt lat="42.84829" lon="1.84033">
        <ele>1706.612</ele>
        <time>2021-02-28T10:44:42Z</time>
      </trkpt>
      <trkpt lat="42.84826" lon="1.84033">
        <ele>1706.003</ele>
        <time>2021-02-28T10:44:44Z</time>
      </trkpt>
      <trkpt lat="42.84825" lon="1.84033">
        <ele>1705.784</ele>
        <time>2021-02-28T10:44:46Z</time>
      </trkpt>
      <trkpt lat="42.84824" lon="1.84032">
        <ele>1705.576</ele>
        <time>2021-02-28T10:44:48Z</time>
      </trkpt>
      <trkpt lat="42.84823" lon="1.8403">
        <ele>1706.678</ele>
        <time>2021-02-28T10:44:50Z</time>
      </trkpt>
      <trkpt lat="42.84822" lon="1.84029">
        <ele>1706.909</ele>
        <time>2021-02-28T10:44:52Z</time>
      </trkpt>
      <trkpt lat="42.84822" lon="1.84028">
        <ele>1707.231</ele>
        <time>2021-02-28T10:44:54Z</time>
      </trkpt>
      <trkpt lat="42.84821" lon="1.84027">
        <ele>1707.247</ele>
        <time>2021-02-28T10:44:56Z</time>
      </trkpt>
      <trkpt lat="42.8482" lon="1.84025">
        <ele>1707.518</ele>
        <time>2021-02-28T10:44:58Z</time>
      </trkpt>
      <trkpt lat="42.84819" lon="1.84024">
        <ele>1707.641</ele>
        <time>2021-02-28T10:45:00Z</time>
      </trkpt>
      <trkpt lat="42.84819" lon="1.84022">
        <ele>1708.048</ele>
        <time>2021-02-28T10:45:02Z</time>
      </trkpt>
      <trkpt lat="42.84818" lon="1.8402">
        <ele>1708.995</ele>
        <time>2021-02-28T10:45:04Z</time>
      </trkpt>
      <trkpt lat="42.84817" lon="1.84018">
        <ele>1709.468</ele>
        <time>2021-02-28T10:45:06Z</time>
      </trkpt>
      <trkpt lat="42.84816" lon="1.84017">
        <ele>1709.368</ele>
        <time>2021-02-28T10:45:08Z</time>
      </trkpt>
      <trkpt lat="42.84815" lon="1.84016">
        <ele>1709.944</ele>
        <time>2021-02-28T10:45:10Z</time>
      </trkpt>
      <trkpt lat="42.84814" lon="1.84015">
        <ele>1709.616</ele>
        <time>2021-02-28T10:45:12Z</time>
      </trkpt>
      <trkpt lat="42.84813" lon="1.84015">
        <ele>1708.451</ele>
        <time>2021-02-28T10:45:14Z</time>
      </trkpt>
      <trkpt lat="42.84811" lon="1.84015">
        <ele>1708.095</ele>
        <time>2021-02-28T10:45:16Z</time>
      </trkpt>
      <trkpt lat="42.84811" lon="1.84015">
        <ele>1708.218</ele>
        <time>2021-02-28T10:45:18Z</time>
      </trkpt>
      <trkpt lat="42.84811" lon="1.84014">
        <ele>1708.33</ele>
        <time>2021-02-28T10:45:20Z</time>
      </trkpt>
      <trkpt lat="42.8481" lon="1.84014">
        <ele>1708.373</ele>
        <time>2021-02-28T10:45:22Z</time>
      </trkpt>
      <trkpt lat="42.84809" lon="1.84015">
        <ele>1708.23</ele>
        <time>2021-02-28T10:45:24Z</time>
      </trkpt>
      <trkpt lat="42.84809" lon="1.84014">
        <ele>1708.532</ele>
        <time>2021-02-28T10:45:26Z</time>
      </trkpt>
      <trkpt lat="42.84809" lon="1.84014">
        <ele>1708.538</ele>
        <time>2021-02-28T10:45:28Z</time>
      </trkpt>
      <trkpt lat="42.84809" lon="1.84015">
        <ele>1708.281</ele>
        <time>2021-02-28T10:45:30Z</time>
      </trkpt>
      <trkpt lat="42.84808" lon="1.84015">
        <ele>1708.424</ele>
        <time>2021-02-28T10:45:32Z</time>
      </trkpt>
      <trkpt lat="42.84808" lon="1.84015">
        <ele>1708.462</ele>
        <time>2021-02-28T10:45:34Z</time>
      </trkpt>
      <trkpt lat="42.84808" lon="1.84016">
        <ele>1707.672</ele>
        <time>2021-02-28T10:45:36Z</time>
      </trkpt>
      <trkpt lat="42.84807" lon="1.84016">
        <ele>1707.894</ele>
        <time>2021-02-28T10:45:38Z</time>
      </trkpt>
      <trkpt lat="42.84807" lon="1.84016">
        <ele>1707.769</ele>
        <time>2021-02-28T10:45:40Z</time>
      </trkpt>
      <trkpt lat="42.84806" lon="1.84016">
        <ele>1708.082</ele>
        <time>2021-02-28T10:45:42Z</time>
      </trkpt>
      <trkpt lat="42.84804" lon="1.84016">
        <ele>1708.128</ele>
        <time>2021-02-28T10:45:44Z</time>
      </trkpt>
      <trkpt lat="42.84803" lon="1.84015">
        <ele>1708.444</ele>
        <time>2021-02-28T10:45:46Z</time>
      </trkpt>
      <trkpt lat="42.84803" lon="1.84015">
        <ele>1707.904</ele>
        <time>2021-02-28T10:45:48Z</time>
      </trkpt>
      <trkpt lat="42.84802" lon="1.84014">
        <ele>1708.383</ele>
        <time>2021-02-28T10:45:50Z</time>
      </trkpt>
      <trkpt lat="42.84802" lon="1.84014">
        <ele>1708.555</ele>
        <time>2021-02-28T10:45:52Z</time>
      </trkpt>
      <trkpt lat="42.84801" lon="1.84014">
        <ele>1708.63</ele>
        <time>2021-02-28T10:45:54Z</time>
      </trkpt>
      <trkpt lat="42.84799" lon="1.84013">
        <ele>1709.274</ele>
        <time>2021-02-28T10:45:56Z</time>
      </trkpt>
      <trkpt lat="42.84798" lon="1.84012">
        <ele>1709.751</ele>
        <time>2021-02-28T10:45:58Z</time>
      </trkpt>
      <trkpt lat="42.84797" lon="1.84011">
        <ele>1709.765</ele>
        <time>2021-02-28T10:46:00Z</time>
      </trkpt>
      <trkpt lat="42.84796" lon="1.84009">
        <ele>1709.359</ele>
        <time>2021-02-28T10:46:02Z</time>
      </trkpt>
      <trkpt lat="42.84796" lon="1.84008">
        <ele>1709.614</ele>
        <time>2021-02-28T10:46:04Z</time>
      </trkpt>
      <trkpt lat="42.84796" lon="1.84006">
        <ele>1709.362</ele>
        <time>2021-02-28T10:46:06Z</time>
      </trkpt>
      <trkpt lat="42.84796" lon="1.84004">
        <ele>1709.674</ele>
        <time>2021-02-28T10:46:08Z</time>
      </trkpt>
      <trkpt lat="42.84796" lon="1.84002">
        <ele>1709.87</ele>
        <time>2021-02-28T10:46:10Z</time>
      </trkpt>
      <trkpt lat="42.84795" lon="1.84002">
        <ele>1709.798</ele>
        <time>2021-02-28T10:46:12Z</time>
      </trkpt>
      <trkpt lat="42.84793" lon="1.84">
        <ele>1710.639</ele>
        <time>2021-02-28T10:46:14Z</time>
      </trkpt>
      <trkpt lat="42.84792" lon="1.83999">
        <ele>1711.07</ele>
        <time>2021-02-28T10:46:16Z</time>
      </trkpt>
      <trkpt lat="42.84791" lon="1.83999">
        <ele>1710.555</ele>
        <time>2021-02-28T10:46:18Z</time>
      </trkpt>
      <trkpt lat="42.84789" lon="1.83998">
        <ele>1710.225</ele>
        <time>2021-02-28T10:46:20Z</time>
      </trkpt>
      <trkpt lat="42.84788" lon="1.83997">
        <ele>1710.273</ele>
        <time>2021-02-28T10:46:22Z</time>
      </trkpt>
      <trkpt lat="42.84786" lon="1.83997">
        <ele>1710.748</ele>
        <time>2021-02-28T10:46:24Z</time>
      </trkpt>
      <trkpt lat="42.84784" lon="1.83996">
        <ele>1711.166</ele>
        <time>2021-02-28T10:46:26Z</time>
      </trkpt>
      <trkpt lat="42.84783" lon="1.83995">
        <ele>1711.435</ele>
        <time>2021-02-28T10:46:28Z</time>
      </trkpt>
      <trkpt lat="42.84782" lon="1.83993">
        <ele>1711.758</ele>
        <time>2021-02-28T10:46:30Z</time>
      </trkpt>
      <trkpt lat="42.84781" lon="1.83992">
        <ele>1711.737</ele>
        <time>2021-02-28T10:46:32Z</time>
      </trkpt>
      <trkpt lat="42.84779" lon="1.8399">
        <ele>1711.916</ele>
        <time>2021-02-28T10:46:34Z</time>
      </trkpt>
      <trkpt lat="42.84779" lon="1.83989">
        <ele>1712.431</ele>
        <time>2021-02-28T10:46:36Z</time>
      </trkpt>
      <trkpt lat="42.84778" lon="1.83988">
        <ele>1712.806</ele>
        <time>2021-02-28T10:46:38Z</time>
      </trkpt>
      <trkpt lat="42.84777" lon="1.83987">
        <ele>1712.941</ele>
        <time>2021-02-28T10:46:40Z</time>
      </trkpt>
      <trkpt lat="42.84775" lon="1.83985">
        <ele>1712.764</ele>
        <time>2021-02-28T10:46:42Z</time>
      </trkpt>
      <trkpt lat="42.84775" lon="1.83984">
        <ele>1713.306</ele>
        <time>2021-02-28T10:46:44Z</time>
      </trkpt>
      <trkpt lat="42.84773" lon="1.83984">
        <ele>1712.926</ele>
        <time>2021-02-28T10:46:46Z</time>
      </trkpt>
      <trkpt lat="42.84772" lon="1.83983">
        <ele>1712.984</ele>
        <time>2021-02-28T10:46:48Z</time>
      </trkpt>
      <trkpt lat="42.84771" lon="1.83982">
        <ele>1713.329</ele>
        <time>2021-02-28T10:46:50Z</time>
      </trkpt>
      <trkpt lat="42.8477" lon="1.83981">
        <ele>1713.423</ele>
        <time>2021-02-28T10:46:52Z</time>
      </trkpt>
      <trkpt lat="42.84769" lon="1.8398">
        <ele>1713.94</ele>
        <time>2021-02-28T10:46:54Z</time>
      </trkpt>
      <trkpt lat="42.84768" lon="1.83979">
        <ele>1713.764</ele>
        <time>2021-02-28T10:46:56Z</time>
      </trkpt>
      <trkpt lat="42.84767" lon="1.83978">
        <ele>1714.656</ele>
        <time>2021-02-28T10:46:58Z</time>
      </trkpt>
      <trkpt lat="42.84766" lon="1.83977">
        <ele>1714.415</ele>
        <time>2021-02-28T10:47:00Z</time>
      </trkpt>
      <trkpt lat="42.84767" lon="1.83978">
        <ele>1714.2</ele>
        <time>2021-02-28T10:47:02Z</time>
      </trkpt>
      <trkpt lat="42.84767" lon="1.83978">
        <ele>1714.197</ele>
        <time>2021-02-28T10:47:04Z</time>
      </trkpt>
      <trkpt lat="42.84766" lon="1.83977">
        <ele>1714.233</ele>
        <time>2021-02-28T10:47:06Z</time>
      </trkpt>
      <trkpt lat="42.84765" lon="1.83976">
        <ele>1714.547</ele>
        <time>2021-02-28T10:47:08Z</time>
      </trkpt>
      <trkpt lat="42.84764" lon="1.83976">
        <ele>1713.733</ele>
        <time>2021-02-28T10:47:10Z</time>
      </trkpt>
      <trkpt lat="42.84762" lon="1.83976">
        <ele>1713.129</ele>
        <time>2021-02-28T10:47:12Z</time>
      </trkpt>
      <trkpt lat="42.84761" lon="1.83976">
        <ele>1713.441</ele>
        <time>2021-02-28T10:47:14Z</time>
      </trkpt>
      <trkpt lat="42.84759" lon="1.83976">
        <ele>1713.241</ele>
        <time>2021-02-28T10:47:16Z</time>
      </trkpt>
      <trkpt lat="42.84757" lon="1.83977">
        <ele>1714.021</ele>
        <time>2021-02-28T10:47:18Z</time>
      </trkpt>
      <trkpt lat="42.84756" lon="1.83977">
        <ele>1714.47</ele>
        <time>2021-02-28T10:47:20Z</time>
      </trkpt>
      <trkpt lat="42.84755" lon="1.83979">
        <ele>1713.711</ele>
        <time>2021-02-28T10:47:22Z</time>
      </trkpt>
      <trkpt lat="42.84755" lon="1.83979">
        <ele>1713.645</ele>
        <time>2021-02-28T10:47:24Z</time>
      </trkpt>
      <trkpt lat="42.84754" lon="1.83978">
        <ele>1712.909</ele>
        <time>2021-02-28T10:47:26Z</time>
      </trkpt>
      <trkpt lat="42.84754" lon="1.83978">
        <ele>1712.705</ele>
        <time>2021-02-28T10:47:28Z</time>
      </trkpt>
      <trkpt lat="42.84754" lon="1.83978">
        <ele>1712.609</ele>
        <time>2021-02-28T10:47:30Z</time>
      </trkpt>
      <trkpt lat="42.84754" lon="1.83978">
        <ele>1712.213</ele>
        <time>2021-02-28T10:47:32Z</time>
      </trkpt>
      <trkpt lat="42.84754" lon="1.83978">
        <ele>1712.215</ele>
        <time>2021-02-28T10:47:34Z</time>
      </trkpt>
      <trkpt lat="42.84754" lon="1.83978">
        <ele>1712.228</ele>
        <time>2021-02-28T10:47:36Z</time>
      </trkpt>
      <trkpt lat="42.84754" lon="1.83978">
        <ele>1712.96</ele>
        <time>2021-02-28T10:47:38Z</time>
      </trkpt>
      <trkpt lat="42.84754" lon="1.83978">
        <ele>1712.789</ele>
        <time>2021-02-28T10:47:40Z</time>
      </trkpt>
      <trkpt lat="42.84754" lon="1.83978">
        <ele>1712.791</ele>
        <time>2021-02-28T10:47:42Z</time>
      </trkpt>
      <trkpt lat="42.84754" lon="1.83978">
        <ele>1712.793</ele>
        <time>2021-02-28T10:47:44Z</time>
      </trkpt>
      <trkpt lat="42.84754" lon="1.83978">
        <ele>1712.552</ele>
        <time>2021-02-28T10:47:46Z</time>
      </trkpt>
      <trkpt lat="42.84754" lon="1.83977">
        <ele>1712.848</ele>
        <time>2021-02-28T10:47:48Z</time>
      </trkpt>
      <trkpt lat="42.84753" lon="1.83976">
        <ele>1712.837</ele>
        <time>2021-02-28T10:47:50Z</time>
      </trkpt>
      <trkpt lat="42.84753" lon="1.83976">
        <ele>1713.295</ele>
        <time>2021-02-28T10:47:52Z</time>
      </trkpt>
      <trkpt lat="42.84752" lon="1.83975">
        <ele>1712.761</ele>
        <time>2021-02-28T10:47:54Z</time>
      </trkpt>
      <trkpt lat="42.84752" lon="1.83974">
        <ele>1712.921</ele>
        <time>2021-02-28T10:47:56Z</time>
      </trkpt>
      <trkpt lat="42.84751" lon="1.83974">
        <ele>1713.016</ele>
        <time>2021-02-28T10:47:58Z</time>
      </trkpt>
      <trkpt lat="42.8475" lon="1.83973">
        <ele>1712.902</ele>
        <time>2021-02-28T10:48:00Z</time>
      </trkpt>
      <trkpt lat="42.8475" lon="1.83973">
        <ele>1712.66</ele>
        <time>2021-02-28T10:48:02Z</time>
      </trkpt>
      <trkpt lat="42.84749" lon="1.83971">
        <ele>1712.691</ele>
        <time>2021-02-28T10:48:04Z</time>
      </trkpt>
      <trkpt lat="42.84749" lon="1.8397">
        <ele>1712.51</ele>
        <time>2021-02-28T10:48:06Z</time>
      </trkpt>
      <trkpt lat="42.84748" lon="1.83969">
        <ele>1712.619</ele>
        <time>2021-02-28T10:48:08Z</time>
      </trkpt>
      <trkpt lat="42.84747" lon="1.83968">
        <ele>1713.639</ele>
        <time>2021-02-28T10:48:10Z</time>
      </trkpt>
      <trkpt lat="42.84747" lon="1.83967">
        <ele>1714.227</ele>
        <time>2021-02-28T10:48:12Z</time>
      </trkpt>
      <trkpt lat="42.84745" lon="1.83965">
        <ele>1714.557</ele>
        <time>2021-02-28T10:48:14Z</time>
      </trkpt>
      <trkpt lat="42.84745" lon="1.83964">
        <ele>1714.65</ele>
        <time>2021-02-28T10:48:16Z</time>
      </trkpt>
      <trkpt lat="42.84746" lon="1.83963">
        <ele>1714.215</ele>
        <time>2021-02-28T10:48:18Z</time>
      </trkpt>
      <trkpt lat="42.84746" lon="1.83961">
        <ele>1714.171</ele>
        <time>2021-02-28T10:48:20Z</time>
      </trkpt>
      <trkpt lat="42.84746" lon="1.8396">
        <ele>1713.99</ele>
        <time>2021-02-28T10:48:22Z</time>
      </trkpt>
      <trkpt lat="42.84744" lon="1.8396">
        <ele>1713.714</ele>
        <time>2021-02-28T10:48:24Z</time>
      </trkpt>
      <trkpt lat="42.84743" lon="1.83959">
        <ele>1714.192</ele>
        <time>2021-02-28T10:48:26Z</time>
      </trkpt>
      <trkpt lat="42.84742" lon="1.83959">
        <ele>1713.902</ele>
        <time>2021-02-28T10:48:28Z</time>
      </trkpt>
      <trkpt lat="42.84742" lon="1.83958">
        <ele>1714.364</ele>
        <time>2021-02-28T10:48:30Z</time>
      </trkpt>
      <trkpt lat="42.84741" lon="1.83957">
        <ele>1714.336</ele>
        <time>2021-02-28T10:48:32Z</time>
      </trkpt>
      <trkpt lat="42.8474" lon="1.83956">
        <ele>1714.267</ele>
        <time>2021-02-28T10:48:34Z</time>
      </trkpt>
      <trkpt lat="42.84741" lon="1.83957">
        <ele>1714.072</ele>
        <time>2021-02-28T10:48:36Z</time>
      </trkpt>
      <trkpt lat="42.84741" lon="1.83957">
        <ele>1713.924</ele>
        <time>2021-02-28T10:48:38Z</time>
      </trkpt>
      <trkpt lat="42.8474" lon="1.83957">
        <ele>1713.777</ele>
        <time>2021-02-28T10:48:40Z</time>
      </trkpt>
      <trkpt lat="42.84739" lon="1.83957">
        <ele>1713.434</ele>
        <time>2021-02-28T10:48:42Z</time>
      </trkpt>
      <trkpt lat="42.84738" lon="1.83956">
        <ele>1714.164</ele>
        <time>2021-02-28T10:48:44Z</time>
      </trkpt>
      <trkpt lat="42.84736" lon="1.83956">
        <ele>1714.253</ele>
        <time>2021-02-28T10:48:46Z</time>
      </trkpt>
      <trkpt lat="42.84735" lon="1.83955">
        <ele>1714.365</ele>
        <time>2021-02-28T10:48:48Z</time>
      </trkpt>
      <trkpt lat="42.84734" lon="1.83954">
        <ele>1714.537</ele>
        <time>2021-02-28T10:48:50Z</time>
      </trkpt>
      <trkpt lat="42.84733" lon="1.83954">
        <ele>1714.593</ele>
        <time>2021-02-28T10:48:52Z</time>
      </trkpt>
      <trkpt lat="42.84731" lon="1.83954">
        <ele>1715.458</ele>
        <time>2021-02-28T10:48:54Z</time>
      </trkpt>
      <trkpt lat="42.8473" lon="1.83954">
        <ele>1715.65</ele>
        <time>2021-02-28T10:48:56Z</time>
      </trkpt>
      <trkpt lat="42.84729" lon="1.83953">
        <ele>1716.019</ele>
        <time>2021-02-28T10:48:58Z</time>
      </trkpt>
      <trkpt lat="42.84728" lon="1.83951">
        <ele>1716.433</ele>
        <time>2021-02-28T10:49:00Z</time>
      </trkpt>
      <trkpt lat="42.84728" lon="1.8395">
        <ele>1716.374</ele>
        <time>2021-02-28T10:49:02Z</time>
      </trkpt>
      <trkpt lat="42.84727" lon="1.83948">
        <ele>1717.246</ele>
        <time>2021-02-28T10:49:04Z</time>
      </trkpt>
      <trkpt lat="42.84727" lon="1.83947">
        <ele>1718.283</ele>
        <time>2021-02-28T10:49:06Z</time>
      </trkpt>
      <trkpt lat="42.84727" lon="1.83946">
        <ele>1718.068</ele>
        <time>2021-02-28T10:49:08Z</time>
      </trkpt>
      <trkpt lat="42.84726" lon="1.83945">
        <ele>1718.324</ele>
        <time>2021-02-28T10:49:10Z</time>
      </trkpt>
      <trkpt lat="42.84725" lon="1.83944">
        <ele>1718.938</ele>
        <time>2021-02-28T10:49:12Z</time>
      </trkpt>
      <trkpt lat="42.84723" lon="1.83944">
        <ele>1720.031</ele>
        <time>2021-02-28T10:49:14Z</time>
      </trkpt>
      <trkpt lat="42.84722" lon="1.83943">
        <ele>1720.604</ele>
        <time>2021-02-28T10:49:16Z</time>
      </trkpt>
      <trkpt lat="42.84722" lon="1.83942">
        <ele>1721.418</ele>
        <time>2021-02-28T10:49:18Z</time>
      </trkpt>
      <trkpt lat="42.84721" lon="1.83941">
        <ele>1721.88</ele>
        <time>2021-02-28T10:49:20Z</time>
      </trkpt>
      <trkpt lat="42.8472" lon="1.8394">
        <ele>1722.086</ele>
        <time>2021-02-28T10:49:22Z</time>
      </trkpt>
      <trkpt lat="42.84718" lon="1.8394">
        <ele>1721.994</ele>
        <time>2021-02-28T10:49:24Z</time>
      </trkpt>
      <trkpt lat="42.84717" lon="1.83939">
        <ele>1722.678</ele>
        <time>2021-02-28T10:49:26Z</time>
      </trkpt>
      <trkpt lat="42.84716" lon="1.83939">
        <ele>1722.792</ele>
        <time>2021-02-28T10:49:28Z</time>
      </trkpt>
      <trkpt lat="42.84714" lon="1.83939">
        <ele>1722.756</ele>
        <time>2021-02-28T10:49:30Z</time>
      </trkpt>
      <trkpt lat="42.84713" lon="1.83938">
        <ele>1723.389</ele>
        <time>2021-02-28T10:49:32Z</time>
      </trkpt>
      <trkpt lat="42.84711" lon="1.83938">
        <ele>1724.723</ele>
        <time>2021-02-28T10:49:34Z</time>
      </trkpt>
      <trkpt lat="42.8471" lon="1.83937">
        <ele>1724.707</ele>
        <time>2021-02-28T10:49:36Z</time>
      </trkpt>
      <trkpt lat="42.84709" lon="1.83937">
        <ele>1724.4</ele>
        <time>2021-02-28T10:49:38Z</time>
      </trkpt>
      <trkpt lat="42.84708" lon="1.83937">
        <ele>1724.431</ele>
        <time>2021-02-28T10:49:40Z</time>
      </trkpt>
      <trkpt lat="42.84707" lon="1.83937">
        <ele>1725.136</ele>
        <time>2021-02-28T10:49:42Z</time>
      </trkpt>
      <trkpt lat="42.84706" lon="1.83937">
        <ele>1724.229</ele>
        <time>2021-02-28T10:49:44Z</time>
      </trkpt>
      <trkpt lat="42.84705" lon="1.83936">
        <ele>1723.596</ele>
        <time>2021-02-28T10:49:46Z</time>
      </trkpt>
      <trkpt lat="42.84704" lon="1.83936">
        <ele>1724.43</ele>
        <time>2021-02-28T10:49:48Z</time>
      </trkpt>
      <trkpt lat="42.84703" lon="1.83935">
        <ele>1724.853</ele>
        <time>2021-02-28T10:49:50Z</time>
      </trkpt>
      <trkpt lat="42.84702" lon="1.83934">
        <ele>1725.551</ele>
        <time>2021-02-28T10:49:52Z</time>
      </trkpt>
      <trkpt lat="42.84702" lon="1.83933">
        <ele>1726.442</ele>
        <time>2021-02-28T10:49:54Z</time>
      </trkpt>
      <trkpt lat="42.84701" lon="1.83932">
        <ele>1726.881</ele>
        <time>2021-02-28T10:49:56Z</time>
      </trkpt>
      <trkpt lat="42.847" lon="1.83932">
        <ele>1727.256</ele>
        <time>2021-02-28T10:49:58Z</time>
      </trkpt>
      <trkpt lat="42.84699" lon="1.83933">
        <ele>1726.848</ele>
        <time>2021-02-28T10:50:00Z</time>
      </trkpt>
      <trkpt lat="42.84698" lon="1.83933">
        <ele>1726.148</ele>
        <time>2021-02-28T10:50:02Z</time>
      </trkpt>
      <trkpt lat="42.84696" lon="1.83933">
        <ele>1726.555</ele>
        <time>2021-02-28T10:50:04Z</time>
      </trkpt>
      <trkpt lat="42.84695" lon="1.83932">
        <ele>1727.554</ele>
        <time>2021-02-28T10:50:06Z</time>
      </trkpt>
      <trkpt lat="42.84694" lon="1.83932">
        <ele>1727.758</ele>
        <time>2021-02-28T10:50:08Z</time>
      </trkpt>
      <trkpt lat="42.84693" lon="1.83931">
        <ele>1728.041</ele>
        <time>2021-02-28T10:50:10Z</time>
      </trkpt>
      <trkpt lat="42.84692" lon="1.83931">
        <ele>1728.785</ele>
        <time>2021-02-28T10:50:12Z</time>
      </trkpt>
      <trkpt lat="42.84691" lon="1.83931">
        <ele>1729.332</ele>
        <time>2021-02-28T10:50:14Z</time>
      </trkpt>
      <trkpt lat="42.84691" lon="1.83931">
        <ele>1729.334</ele>
        <time>2021-02-28T10:50:16Z</time>
      </trkpt>
      <trkpt lat="42.84691" lon="1.83931">
        <ele>1729.339</ele>
        <time>2021-02-28T10:50:18Z</time>
      </trkpt>
      <trkpt lat="42.84691" lon="1.83931">
        <ele>1729.341</ele>
        <time>2021-02-28T10:50:20Z</time>
      </trkpt>
      <trkpt lat="42.84692" lon="1.83931">
        <ele>1729.274</ele>
        <time>2021-02-28T10:50:22Z</time>
      </trkpt>
      <trkpt lat="42.84692" lon="1.83931">
        <ele>1729.192</ele>
        <time>2021-02-28T10:50:24Z</time>
      </trkpt>
      <trkpt lat="42.84691" lon="1.8393">
        <ele>1729.255</ele>
        <time>2021-02-28T10:50:26Z</time>
      </trkpt>
      <trkpt lat="42.84691" lon="1.8393">
        <ele>1729.258</ele>
        <time>2021-02-28T10:50:28Z</time>
      </trkpt>
      <trkpt lat="42.84691" lon="1.8393">
        <ele>1729.258</ele>
        <time>2021-02-28T10:50:30Z</time>
      </trkpt>
      <trkpt lat="42.84692" lon="1.83931">
        <ele>1729.493</ele>
        <time>2021-02-28T10:50:32Z</time>
      </trkpt>
      <trkpt lat="42.84691" lon="1.83931">
        <ele>1729.934</ele>
        <time>2021-02-28T10:50:34Z</time>
      </trkpt>
      <trkpt lat="42.8469" lon="1.83932">
        <ele>1730.65</ele>
        <time>2021-02-28T10:50:36Z</time>
      </trkpt>
      <trkpt lat="42.84689" lon="1.83932">
        <ele>1730.541</ele>
        <time>2021-02-28T10:50:38Z</time>
      </trkpt>
      <trkpt lat="42.84688" lon="1.83931">
        <ele>1731.692</ele>
        <time>2021-02-28T10:50:40Z</time>
      </trkpt>
      <trkpt lat="42.84688" lon="1.8393">
        <ele>1731.448</ele>
        <time>2021-02-28T10:50:42Z</time>
      </trkpt>
      <trkpt lat="42.84687" lon="1.83929">
        <ele>1731.204</ele>
        <time>2021-02-28T10:50:44Z</time>
      </trkpt>
      <trkpt lat="42.84687" lon="1.83929">
        <ele>1731.152</ele>
        <time>2021-02-28T10:50:46Z</time>
      </trkpt>
      <trkpt lat="42.84685" lon="1.83928">
        <ele>1731.043</ele>
        <time>2021-02-28T10:50:48Z</time>
      </trkpt>
      <trkpt lat="42.84684" lon="1.83928">
        <ele>1730.865</ele>
        <time>2021-02-28T10:50:50Z</time>
      </trkpt>
      <trkpt lat="42.84683" lon="1.83927">
        <ele>1731.277</ele>
        <time>2021-02-28T10:50:52Z</time>
      </trkpt>
      <trkpt lat="42.84682" lon="1.83927">
        <ele>1731.852</ele>
        <time>2021-02-28T10:50:54Z</time>
      </trkpt>
      <trkpt lat="42.8468" lon="1.83927">
        <ele>1732.384</ele>
        <time>2021-02-28T10:50:56Z</time>
      </trkpt>
      <trkpt lat="42.84679" lon="1.83927">
        <ele>1732.446</ele>
        <time>2021-02-28T10:50:58Z</time>
      </trkpt>
      <trkpt lat="42.84678" lon="1.83927">
        <ele>1733.219</ele>
        <time>2021-02-28T10:51:00Z</time>
      </trkpt>
      <trkpt lat="42.84677" lon="1.83926">
        <ele>1733.082</ele>
        <time>2021-02-28T10:51:02Z</time>
      </trkpt>
      <trkpt lat="42.84677" lon="1.83926">
        <ele>1732.936</ele>
        <time>2021-02-28T10:51:04Z</time>
      </trkpt>
      <trkpt lat="42.84676" lon="1.83926">
        <ele>1733.109</ele>
        <time>2021-02-28T10:51:06Z</time>
      </trkpt>
      <trkpt lat="42.84675" lon="1.83925">
        <ele>1733.513</ele>
        <time>2021-02-28T10:51:08Z</time>
      </trkpt>
      <trkpt lat="42.84674" lon="1.83925">
        <ele>1733.999</ele>
        <time>2021-02-28T10:51:10Z</time>
      </trkpt>
      <trkpt lat="42.84673" lon="1.83924">
        <ele>1733.524</ele>
        <time>2021-02-28T10:51:12Z</time>
      </trkpt>
      <trkpt lat="42.84672" lon="1.83923">
        <ele>1733.46</ele>
        <time>2021-02-28T10:51:14Z</time>
      </trkpt>
      <trkpt lat="42.84671" lon="1.83923">
        <ele>1733.968</ele>
        <time>2021-02-28T10:51:16Z</time>
      </trkpt>
      <trkpt lat="42.8467" lon="1.83922">
        <ele>1734.178</ele>
        <time>2021-02-28T10:51:18Z</time>
      </trkpt>
      <trkpt lat="42.8467" lon="1.83921">
        <ele>1733.631</ele>
        <time>2021-02-28T10:51:20Z</time>
      </trkpt>
      <trkpt lat="42.8467" lon="1.8392">
        <ele>1735.224</ele>
        <time>2021-02-28T10:51:22Z</time>
      </trkpt>
      <trkpt lat="42.8467" lon="1.83919">
        <ele>1736.367</ele>
        <time>2021-02-28T10:51:24Z</time>
      </trkpt>
      <trkpt lat="42.84669" lon="1.83918">
        <ele>1736.023</ele>
        <time>2021-02-28T10:51:26Z</time>
      </trkpt>
      <trkpt lat="42.84668" lon="1.83917">
        <ele>1737.265</ele>
        <time>2021-02-28T10:51:28Z</time>
      </trkpt>
      <trkpt lat="42.84667" lon="1.83916">
        <ele>1738.565</ele>
        <time>2021-02-28T10:51:30Z</time>
      </trkpt>
      <trkpt lat="42.84666" lon="1.83916">
        <ele>1739.051</ele>
        <time>2021-02-28T10:51:32Z</time>
      </trkpt>
      <trkpt lat="42.84665" lon="1.83915">
        <ele>1739.904</ele>
        <time>2021-02-28T10:51:34Z</time>
      </trkpt>
      <trkpt lat="42.84664" lon="1.83916">
        <ele>1739.197</ele>
        <time>2021-02-28T10:51:36Z</time>
      </trkpt>
      <trkpt lat="42.84663" lon="1.83916">
        <ele>1739.284</ele>
        <time>2021-02-28T10:51:38Z</time>
      </trkpt>
      <trkpt lat="42.84663" lon="1.83914">
        <ele>1739.776</ele>
        <time>2021-02-28T10:51:40Z</time>
      </trkpt>
      <trkpt lat="42.84663" lon="1.83913">
        <ele>1739.671</ele>
        <time>2021-02-28T10:51:42Z</time>
      </trkpt>
      <trkpt lat="42.84662" lon="1.83912">
        <ele>1740.429</ele>
        <time>2021-02-28T10:51:44Z</time>
      </trkpt>
      <trkpt lat="42.84662" lon="1.8391">
        <ele>1741.783</ele>
        <time>2021-02-28T10:51:46Z</time>
      </trkpt>
      <trkpt lat="42.84662" lon="1.83908">
        <ele>1741.776</ele>
        <time>2021-02-28T10:51:48Z</time>
      </trkpt>
      <trkpt lat="42.84662" lon="1.83906">
        <ele>1742.738</ele>
        <time>2021-02-28T10:51:50Z</time>
      </trkpt>
      <trkpt lat="42.84662" lon="1.83905">
        <ele>1742.621</ele>
        <time>2021-02-28T10:51:52Z</time>
      </trkpt>
      <trkpt lat="42.84662" lon="1.83903">
        <ele>1743.971</ele>
        <time>2021-02-28T10:51:54Z</time>
      </trkpt>
      <trkpt lat="42.84663" lon="1.83902">
        <ele>1743.551</ele>
        <time>2021-02-28T10:51:56Z</time>
      </trkpt>
      <trkpt lat="42.84663" lon="1.83901">
        <ele>1744.481</ele>
        <time>2021-02-28T10:51:58Z</time>
      </trkpt>
      <trkpt lat="42.84662" lon="1.839">
        <ele>1744.994</ele>
        <time>2021-02-28T10:52:00Z</time>
      </trkpt>
      <trkpt lat="42.84661" lon="1.839">
        <ele>1744.531</ele>
        <time>2021-02-28T10:52:02Z</time>
      </trkpt>
      <trkpt lat="42.8466" lon="1.83902">
        <ele>1744.547</ele>
        <time>2021-02-28T10:52:04Z</time>
      </trkpt>
      <trkpt lat="42.84659" lon="1.83903">
        <ele>1745.301</ele>
        <time>2021-02-28T10:52:06Z</time>
      </trkpt>
      <trkpt lat="42.84657" lon="1.83904">
        <ele>1745.649</ele>
        <time>2021-02-28T10:52:08Z</time>
      </trkpt>
      <trkpt lat="42.84656" lon="1.83904">
        <ele>1745.971</ele>
        <time>2021-02-28T10:52:10Z</time>
      </trkpt>
      <trkpt lat="42.84655" lon="1.83904">
        <ele>1746.908</ele>
        <time>2021-02-28T10:52:12Z</time>
      </trkpt>
      <trkpt lat="42.84655" lon="1.83903">
        <ele>1747.488</ele>
        <time>2021-02-28T10:52:14Z</time>
      </trkpt>
      <trkpt lat="42.84655" lon="1.83902">
        <ele>1747.967</ele>
        <time>2021-02-28T10:52:16Z</time>
      </trkpt>
      <trkpt lat="42.84654" lon="1.83901">
        <ele>1748.196</ele>
        <time>2021-02-28T10:52:18Z</time>
      </trkpt>
      <trkpt lat="42.84653" lon="1.839">
        <ele>1748.365</ele>
        <time>2021-02-28T10:52:20Z</time>
      </trkpt>
      <trkpt lat="42.84652" lon="1.83899">
        <ele>1748.97</ele>
        <time>2021-02-28T10:52:22Z</time>
      </trkpt>
      <trkpt lat="42.84652" lon="1.83898">
        <ele>1749.643</ele>
        <time>2021-02-28T10:52:24Z</time>
      </trkpt>
      <trkpt lat="42.84651" lon="1.83898">
        <ele>1749.602</ele>
        <time>2021-02-28T10:52:26Z</time>
      </trkpt>
      <trkpt lat="42.8465" lon="1.83897">
        <ele>1749.505</ele>
        <time>2021-02-28T10:52:28Z</time>
      </trkpt>
      <trkpt lat="42.8465" lon="1.83896">
        <ele>1750.598</ele>
        <time>2021-02-28T10:52:30Z</time>
      </trkpt>
      <trkpt lat="42.84649" lon="1.83895">
        <ele>1751.239</ele>
        <time>2021-02-28T10:52:32Z</time>
      </trkpt>
      <trkpt lat="42.84649" lon="1.83895">
        <ele>1751.105</ele>
        <time>2021-02-28T10:52:34Z</time>
      </trkpt>
      <trkpt lat="42.84648" lon="1.83895">
        <ele>1751.161</ele>
        <time>2021-02-28T10:52:36Z</time>
      </trkpt>
      <trkpt lat="42.84647" lon="1.83894">
        <ele>1752.677</ele>
        <time>2021-02-28T10:52:38Z</time>
      </trkpt>
      <trkpt lat="42.84647" lon="1.83892">
        <ele>1752.831</ele>
        <time>2021-02-28T10:52:40Z</time>
      </trkpt>
      <trkpt lat="42.84646" lon="1.83891">
        <ele>1753.219</ele>
        <time>2021-02-28T10:52:42Z</time>
      </trkpt>
      <trkpt lat="42.84646" lon="1.83889">
        <ele>1753.62</ele>
        <time>2021-02-28T10:52:44Z</time>
      </trkpt>
      <trkpt lat="42.84646" lon="1.83888">
        <ele>1754.05</ele>
        <time>2021-02-28T10:52:46Z</time>
      </trkpt>
      <trkpt lat="42.84645" lon="1.83886">
        <ele>1754.371</ele>
        <time>2021-02-28T10:52:48Z</time>
      </trkpt>
      <trkpt lat="42.84644" lon="1.83885">
        <ele>1754.619</ele>
        <time>2021-02-28T10:52:50Z</time>
      </trkpt>
      <trkpt lat="42.84643" lon="1.83884">
        <ele>1754.884</ele>
        <time>2021-02-28T10:52:52Z</time>
      </trkpt>
      <trkpt lat="42.84643" lon="1.83883">
        <ele>1755.077</ele>
        <time>2021-02-28T10:52:54Z</time>
      </trkpt>
      <trkpt lat="42.84642" lon="1.83882">
        <ele>1755.57</ele>
        <time>2021-02-28T10:52:56Z</time>
      </trkpt>
      <trkpt lat="42.84642" lon="1.8388">
        <ele>1755.574</ele>
        <time>2021-02-28T10:52:58Z</time>
      </trkpt>
      <trkpt lat="42.84641" lon="1.83879">
        <ele>1756.263</ele>
        <time>2021-02-28T10:53:00Z</time>
      </trkpt>
      <trkpt lat="42.84641" lon="1.83879">
        <ele>1756.557</ele>
        <time>2021-02-28T10:53:02Z</time>
      </trkpt>
      <trkpt lat="42.8464" lon="1.83878">
        <ele>1756.996</ele>
        <time>2021-02-28T10:53:04Z</time>
      </trkpt>
      <trkpt lat="42.8464" lon="1.83877">
        <ele>1757.27</ele>
        <time>2021-02-28T10:53:06Z</time>
      </trkpt>
      <trkpt lat="42.8464" lon="1.83875">
        <ele>1757.98</ele>
        <time>2021-02-28T10:53:08Z</time>
      </trkpt>
      <trkpt lat="42.84639" lon="1.83874">
        <ele>1757.824</ele>
        <time>2021-02-28T10:53:10Z</time>
      </trkpt>
      <trkpt lat="42.84639" lon="1.83874">
        <ele>1757.99</ele>
        <time>2021-02-28T10:53:12Z</time>
      </trkpt>
      <trkpt lat="42.84639" lon="1.83874">
        <ele>1757.981</ele>
        <time>2021-02-28T10:53:14Z</time>
      </trkpt>
      <trkpt lat="42.84639" lon="1.83874">
        <ele>1757.976</ele>
        <time>2021-02-28T10:53:16Z</time>
      </trkpt>
      <trkpt lat="42.84639" lon="1.83874">
        <ele>1757.976</ele>
        <time>2021-02-28T10:53:18Z</time>
      </trkpt>
      <trkpt lat="42.84639" lon="1.83874">
        <ele>1757.971</ele>
        <time>2021-02-28T10:53:20Z</time>
      </trkpt>
      <trkpt lat="42.84639" lon="1.83874">
        <ele>1757.967</ele>
        <time>2021-02-28T10:53:22Z</time>
      </trkpt>
      <trkpt lat="42.84638" lon="1.83873">
        <ele>1758.231</ele>
        <time>2021-02-28T10:53:24Z</time>
      </trkpt>
      <trkpt lat="42.84638" lon="1.83874">
        <ele>1758.185</ele>
        <time>2021-02-28T10:53:26Z</time>
      </trkpt>
      <trkpt lat="42.84637" lon="1.83874">
        <ele>1757.969</ele>
        <time>2021-02-28T10:53:28Z</time>
      </trkpt>
      <trkpt lat="42.84637" lon="1.83875">
        <ele>1757.957</ele>
        <time>2021-02-28T10:53:30Z</time>
      </trkpt>
      <trkpt lat="42.84637" lon="1.83875">
        <ele>1757.959</ele>
        <time>2021-02-28T10:53:32Z</time>
      </trkpt>
      <trkpt lat="42.84637" lon="1.83875">
        <ele>1757.772</ele>
        <time>2021-02-28T10:53:34Z</time>
      </trkpt>
      <trkpt lat="42.84637" lon="1.83875">
        <ele>1758.229</ele>
        <time>2021-02-28T10:53:36Z</time>
      </trkpt>
      <trkpt lat="42.84637" lon="1.83874">
        <ele>1758.474</ele>
        <time>2021-02-28T10:53:38Z</time>
      </trkpt>
      <trkpt lat="42.84636" lon="1.83874">
        <ele>1758.726</ele>
        <time>2021-02-28T10:53:40Z</time>
      </trkpt>
      <trkpt lat="42.84636" lon="1.83874">
        <ele>1758.63</ele>
        <time>2021-02-28T10:53:42Z</time>
      </trkpt>
      <trkpt lat="42.84636" lon="1.83874">
        <ele>1758.791</ele>
        <time>2021-02-28T10:53:44Z</time>
      </trkpt>
      <trkpt lat="42.84636" lon="1.83874">
        <ele>1759.143</ele>
        <time>2021-02-28T10:53:46Z</time>
      </trkpt>
      <trkpt lat="42.84636" lon="1.83875">
        <ele>1758.931</ele>
        <time>2021-02-28T10:53:48Z</time>
      </trkpt>
      <trkpt lat="42.84636" lon="1.83875">
        <ele>1758.76</ele>
        <time>2021-02-28T10:53:50Z</time>
      </trkpt>
      <trkpt lat="42.84636" lon="1.83875">
        <ele>1758.632</ele>
        <time>2021-02-28T10:53:52Z</time>
      </trkpt>
      <trkpt lat="42.84636" lon="1.83875">
        <ele>1758.637</ele>
        <time>2021-02-28T10:53:54Z</time>
      </trkpt>
      <trkpt lat="42.84636" lon="1.83875">
        <ele>1758.627</ele>
        <time>2021-02-28T10:53:56Z</time>
      </trkpt>
      <trkpt lat="42.84636" lon="1.83875">
        <ele>1759.121</ele>
        <time>2021-02-28T10:53:58Z</time>
      </trkpt>
      <trkpt lat="42.84636" lon="1.83875">
        <ele>1758.775</ele>
        <time>2021-02-28T10:54:00Z</time>
      </trkpt>
      <trkpt lat="42.84636" lon="1.83874">
        <ele>1758.425</ele>
        <time>2021-02-28T10:54:02Z</time>
      </trkpt>
      <trkpt lat="42.84635" lon="1.83875">
        <ele>1758.268</ele>
        <time>2021-02-28T10:54:04Z</time>
      </trkpt>
      <trkpt lat="42.84635" lon="1.83875">
        <ele>1758.259</ele>
        <time>2021-02-28T10:54:06Z</time>
      </trkpt>
      <trkpt lat="42.84635" lon="1.83875">
        <ele>1758.261</ele>
        <time>2021-02-28T10:54:08Z</time>
      </trkpt>
      <trkpt lat="42.84635" lon="1.83875">
        <ele>1758.762</ele>
        <time>2021-02-28T10:54:10Z</time>
      </trkpt>
      <trkpt lat="42.84635" lon="1.83875">
        <ele>1758.641</ele>
        <time>2021-02-28T10:54:12Z</time>
      </trkpt>
      <trkpt lat="42.84635" lon="1.83875">
        <ele>1758.646</ele>
        <time>2021-02-28T10:54:14Z</time>
      </trkpt>
      <trkpt lat="42.84635" lon="1.83875">
        <ele>1758.655</ele>
        <time>2021-02-28T10:54:16Z</time>
      </trkpt>
      <trkpt lat="42.84635" lon="1.83875">
        <ele>1758.655</ele>
        <time>2021-02-28T10:54:18Z</time>
      </trkpt>
      <trkpt lat="42.84635" lon="1.83875">
        <ele>1758.656</ele>
        <time>2021-02-28T10:54:20Z</time>
      </trkpt>
      <trkpt lat="42.84635" lon="1.83875">
        <ele>1758.657</ele>
        <time>2021-02-28T10:54:22Z</time>
      </trkpt>
      <trkpt lat="42.84635" lon="1.83875">
        <ele>1758.66</ele>
        <time>2021-02-28T10:54:24Z</time>
      </trkpt>
      <trkpt lat="42.84635" lon="1.83875">
        <ele>1758.659</ele>
        <time>2021-02-28T10:54:26Z</time>
      </trkpt>
      <trkpt lat="42.84635" lon="1.83875">
        <ele>1758.661</ele>
        <time>2021-02-28T10:54:28Z</time>
      </trkpt>
      <trkpt lat="42.84635" lon="1.83875">
        <ele>1758.66</ele>
        <time>2021-02-28T10:54:30Z</time>
      </trkpt>
      <trkpt lat="42.84635" lon="1.83875">
        <ele>1758.66</ele>
        <time>2021-02-28T10:54:32Z</time>
      </trkpt>
      <trkpt lat="42.84635" lon="1.83875">
        <ele>1758.66</ele>
        <time>2021-02-28T10:54:34Z</time>
      </trkpt>
      <trkpt lat="42.84635" lon="1.83875">
        <ele>1758.658</ele>
        <time>2021-02-28T10:54:36Z</time>
      </trkpt>
      <trkpt lat="42.84635" lon="1.83875">
        <ele>1758.655</ele>
        <time>2021-02-28T10:54:38Z</time>
      </trkpt>
      <trkpt lat="42.84635" lon="1.83875">
        <ele>1758.651</ele>
        <time>2021-02-28T10:54:40Z</time>
      </trkpt>
      <trkpt lat="42.84635" lon="1.83875">
        <ele>1758.65</ele>
        <time>2021-02-28T10:54:42Z</time>
      </trkpt>
      <trkpt lat="42.84635" lon="1.83875">
        <ele>1758.648</ele>
        <time>2021-02-28T10:54:44Z</time>
      </trkpt>
      <trkpt lat="42.84635" lon="1.83875">
        <ele>1758.647</ele>
        <time>2021-02-28T10:54:46Z</time>
      </trkpt>
      <trkpt lat="42.84635" lon="1.83875">
        <ele>1758.649</ele>
        <time>2021-02-28T10:54:48Z</time>
      </trkpt>
      <trkpt lat="42.84635" lon="1.83875">
        <ele>1758.652</ele>
        <time>2021-02-28T10:54:50Z</time>
      </trkpt>
      <trkpt lat="42.84635" lon="1.83875">
        <ele>1758.657</ele>
        <time>2021-02-28T10:54:52Z</time>
      </trkpt>
      <trkpt lat="42.84635" lon="1.83875">
        <ele>1758.655</ele>
        <time>2021-02-28T10:54:54Z</time>
      </trkpt>
      <trkpt lat="42.84635" lon="1.83875">
        <ele>1758.652</ele>
        <time>2021-02-28T10:54:56Z</time>
      </trkpt>
      <trkpt lat="42.84634" lon="1.83874">
        <ele>1757.845</ele>
        <time>2021-02-28T10:54:58Z</time>
      </trkpt>
      <trkpt lat="42.84632" lon="1.83872">
        <ele>1757.254</ele>
        <time>2021-02-28T10:55:00Z</time>
      </trkpt>
      <trkpt lat="42.8463" lon="1.83871">
        <ele>1756.839</ele>
        <time>2021-02-28T10:55:02Z</time>
      </trkpt>
      <trkpt lat="42.84628" lon="1.83869">
        <ele>1756.815</ele>
        <time>2021-02-28T10:55:04Z</time>
      </trkpt>
      <trkpt lat="42.84626" lon="1.83869">
        <ele>1756.858</ele>
        <time>2021-02-28T10:55:06Z</time>
      </trkpt>
      <trkpt lat="42.84624" lon="1.83869">
        <ele>1757.241</ele>
        <time>2021-02-28T10:55:08Z</time>
      </trkpt>
      <trkpt lat="42.84622" lon="1.83868">
        <ele>1756.735</ele>
        <time>2021-02-28T10:55:10Z</time>
      </trkpt>
      <trkpt lat="42.8462" lon="1.83867">
        <ele>1756.797</ele>
        <time>2021-02-28T10:55:12Z</time>
      </trkpt>
      <trkpt lat="42.84618" lon="1.83867">
        <ele>1756.755</ele>
        <time>2021-02-28T10:55:14Z</time>
      </trkpt>
      <trkpt lat="42.84616" lon="1.83867">
        <ele>1756.869</ele>
        <time>2021-02-28T10:55:16Z</time>
      </trkpt>
      <trkpt lat="42.84615" lon="1.83868">
        <ele>1756.993</ele>
        <time>2021-02-28T10:55:18Z</time>
      </trkpt>
      <trkpt lat="42.84614" lon="1.83869">
        <ele>1756.622</ele>
        <time>2021-02-28T10:55:20Z</time>
      </trkpt>
      <trkpt lat="42.84612" lon="1.8387">
        <ele>1756.871</ele>
        <time>2021-02-28T10:55:22Z</time>
      </trkpt>
      <trkpt lat="42.84611" lon="1.83871">
        <ele>1756.474</ele>
        <time>2021-02-28T10:55:24Z</time>
      </trkpt>
      <trkpt lat="42.8461" lon="1.83872">
        <ele>1756.459</ele>
        <time>2021-02-28T10:55:26Z</time>
      </trkpt>
      <trkpt lat="42.84608" lon="1.83872">
        <ele>1756.072</ele>
        <time>2021-02-28T10:55:28Z</time>
      </trkpt>
      <trkpt lat="42.84606" lon="1.83873">
        <ele>1755.875</ele>
        <time>2021-02-28T10:55:30Z</time>
      </trkpt>
      <trkpt lat="42.84605" lon="1.83874">
        <ele>1755.556</ele>
        <time>2021-02-28T10:55:32Z</time>
      </trkpt>
      <trkpt lat="42.84603" lon="1.83875">
        <ele>1755.135</ele>
        <time>2021-02-28T10:55:34Z</time>
      </trkpt>
      <trkpt lat="42.84601" lon="1.83874">
        <ele>1755.229</ele>
        <time>2021-02-28T10:55:36Z</time>
      </trkpt>
      <trkpt lat="42.84598" lon="1.83874">
        <ele>1754.557</ele>
        <time>2021-02-28T10:55:38Z</time>
      </trkpt>
      <trkpt lat="42.84596" lon="1.83874">
        <ele>1754.151</ele>
        <time>2021-02-28T10:55:40Z</time>
      </trkpt>
      <trkpt lat="42.84595" lon="1.83873">
        <ele>1753.991</ele>
        <time>2021-02-28T10:55:41Z</time>
      </trkpt>
      <trkpt lat="42.84591" lon="1.83873">
        <ele>1753.072</ele>
        <time>2021-02-28T10:55:44Z</time>
      </trkpt>
      <trkpt lat="42.84589" lon="1.83873">
        <ele>1752.949</ele>
        <time>2021-02-28T10:55:46Z</time>
      </trkpt>
      <trkpt lat="42.84587" lon="1.83875">
        <ele>1752.452</ele>
        <time>2021-02-28T10:55:48Z</time>
      </trkpt>
      <trkpt lat="42.84585" lon="1.83874">
        <ele>1752.265</ele>
        <time>2021-02-28T10:55:50Z</time>
      </trkpt>
      <trkpt lat="42.84583" lon="1.83873">
        <ele>1752.217</ele>
        <time>2021-02-28T10:55:52Z</time>
      </trkpt>
      <trkpt lat="42.84581" lon="1.83871">
        <ele>1752.297</ele>
        <time>2021-02-28T10:55:54Z</time>
      </trkpt>
      <trkpt lat="42.84579" lon="1.83869">
        <ele>1752.442</ele>
        <time>2021-02-28T10:55:56Z</time>
      </trkpt>
      <trkpt lat="42.84577" lon="1.83867">
        <ele>1752.708</ele>
        <time>2021-02-28T10:55:58Z</time>
      </trkpt>
      <trkpt lat="42.84575" lon="1.83865">
        <ele>1752.86</ele>
        <time>2021-02-28T10:56:00Z</time>
      </trkpt>
      <trkpt lat="42.84573" lon="1.83863">
        <ele>1752.959</ele>
        <time>2021-02-28T10:56:02Z</time>
      </trkpt>
      <trkpt lat="42.84571" lon="1.83861">
        <ele>1753.135</ele>
        <time>2021-02-28T10:56:04Z</time>
      </trkpt>
      <trkpt lat="42.84569" lon="1.83859">
        <ele>1753.413</ele>
        <time>2021-02-28T10:56:06Z</time>
      </trkpt>
      <trkpt lat="42.84567" lon="1.83857">
        <ele>1753.791</ele>
        <time>2021-02-28T10:56:08Z</time>
      </trkpt>
      <trkpt lat="42.84566" lon="1.83855">
        <ele>1753.65</ele>
        <time>2021-02-28T10:56:10Z</time>
      </trkpt>
      <trkpt lat="42.84564" lon="1.83853">
        <ele>1753.949</ele>
        <time>2021-02-28T10:56:12Z</time>
      </trkpt>
      <trkpt lat="42.84563" lon="1.83851">
        <ele>1754.042</ele>
        <time>2021-02-28T10:56:14Z</time>
      </trkpt>
      <trkpt lat="42.84561" lon="1.8385">
        <ele>1754.224</ele>
        <time>2021-02-28T10:56:16Z</time>
      </trkpt>
      <trkpt lat="42.84559" lon="1.83849">
        <ele>1754.804</ele>
        <time>2021-02-28T10:56:18Z</time>
      </trkpt>
      <trkpt lat="42.84558" lon="1.83847">
        <ele>1755.562</ele>
        <time>2021-02-28T10:56:20Z</time>
      </trkpt>
      <trkpt lat="42.84556" lon="1.83846">
        <ele>1756.091</ele>
        <time>2021-02-28T10:56:22Z</time>
      </trkpt>
      <trkpt lat="42.84554" lon="1.83844">
        <ele>1756.598</ele>
        <time>2021-02-28T10:56:24Z</time>
      </trkpt>
      <trkpt lat="42.84552" lon="1.83841">
        <ele>1756.972</ele>
        <time>2021-02-28T10:56:27Z</time>
      </trkpt>
      <trkpt lat="42.84552" lon="1.83839">
        <ele>1756.725</ele>
        <time>2021-02-28T10:56:29Z</time>
      </trkpt>
      <trkpt lat="42.8455" lon="1.83837">
        <ele>1757.056</ele>
        <time>2021-02-28T10:56:31Z</time>
      </trkpt>
      <trkpt lat="42.8455" lon="1.83835">
        <ele>1757.529</ele>
        <time>2021-02-28T10:56:33Z</time>
      </trkpt>
      <trkpt lat="42.84549" lon="1.83833">
        <ele>1757.945</ele>
        <time>2021-02-28T10:56:35Z</time>
      </trkpt>
      <trkpt lat="42.84547" lon="1.83832">
        <ele>1757.927</ele>
        <time>2021-02-28T10:56:37Z</time>
      </trkpt>
      <trkpt lat="42.84546" lon="1.83832">
        <ele>1758.01</ele>
        <time>2021-02-28T10:56:39Z</time>
      </trkpt>
      <trkpt lat="42.84544" lon="1.8383">
        <ele>1758.418</ele>
        <time>2021-02-28T10:56:41Z</time>
      </trkpt>
      <trkpt lat="42.84544" lon="1.83828">
        <ele>1758.502</ele>
        <time>2021-02-28T10:56:43Z</time>
      </trkpt>
      <trkpt lat="42.84542" lon="1.83828">
        <ele>1758.451</ele>
        <time>2021-02-28T10:56:45Z</time>
      </trkpt>
      <trkpt lat="42.8454" lon="1.83827">
        <ele>1758.787</ele>
        <time>2021-02-28T10:56:47Z</time>
      </trkpt>
      <trkpt lat="42.84538" lon="1.83825">
        <ele>1759.091</ele>
        <time>2021-02-28T10:56:49Z</time>
      </trkpt>
      <trkpt lat="42.84537" lon="1.83822">
        <ele>1759.623</ele>
        <time>2021-02-28T10:56:51Z</time>
      </trkpt>
      <trkpt lat="42.84535" lon="1.8382">
        <ele>1759.596</ele>
        <time>2021-02-28T10:56:53Z</time>
      </trkpt>
      <trkpt lat="42.84533" lon="1.83818">
        <ele>1759.76</ele>
        <time>2021-02-28T10:56:55Z</time>
      </trkpt>
      <trkpt lat="42.84532" lon="1.83816">
        <ele>1759.711</ele>
        <time>2021-02-28T10:56:57Z</time>
      </trkpt>
      <trkpt lat="42.8453" lon="1.83815">
        <ele>1759.996</ele>
        <time>2021-02-28T10:56:59Z</time>
      </trkpt>
      <trkpt lat="42.84529" lon="1.83813">
        <ele>1760.54</ele>
        <time>2021-02-28T10:57:01Z</time>
      </trkpt>
      <trkpt lat="42.84528" lon="1.83811">
        <ele>1760.77</ele>
        <time>2021-02-28T10:57:03Z</time>
      </trkpt>
      <trkpt lat="42.84528" lon="1.8381">
        <ele>1761.21</ele>
        <time>2021-02-28T10:57:05Z</time>
      </trkpt>
      <trkpt lat="42.84527" lon="1.83808">
        <ele>1762.245</ele>
        <time>2021-02-28T10:57:07Z</time>
      </trkpt>
      <trkpt lat="42.84525" lon="1.83807">
        <ele>1762.726</ele>
        <time>2021-02-28T10:57:09Z</time>
      </trkpt>
      <trkpt lat="42.84524" lon="1.83806">
        <ele>1762.989</ele>
        <time>2021-02-28T10:57:11Z</time>
      </trkpt>
      <trkpt lat="42.84523" lon="1.83805">
        <ele>1763.734</ele>
        <time>2021-02-28T10:57:13Z</time>
      </trkpt>
      <trkpt lat="42.84522" lon="1.83804">
        <ele>1763.869</ele>
        <time>2021-02-28T10:57:15Z</time>
      </trkpt>
      <trkpt lat="42.84521" lon="1.83803">
        <ele>1764.246</ele>
        <time>2021-02-28T10:57:17Z</time>
      </trkpt>
      <trkpt lat="42.84519" lon="1.83801">
        <ele>1764.91</ele>
        <time>2021-02-28T10:57:19Z</time>
      </trkpt>
      <trkpt lat="42.84518" lon="1.83799">
        <ele>1765.243</ele>
        <time>2021-02-28T10:57:21Z</time>
      </trkpt>
      <trkpt lat="42.84517" lon="1.83797">
        <ele>1765.411</ele>
        <time>2021-02-28T10:57:23Z</time>
      </trkpt>
      <trkpt lat="42.84516" lon="1.83796">
        <ele>1765.99</ele>
        <time>2021-02-28T10:57:25Z</time>
      </trkpt>
      <trkpt lat="42.84516" lon="1.83795">
        <ele>1766.523</ele>
        <time>2021-02-28T10:57:27Z</time>
      </trkpt>
      <trkpt lat="42.84515" lon="1.83794">
        <ele>1766.13</ele>
        <time>2021-02-28T10:57:29Z</time>
      </trkpt>
      <trkpt lat="42.84513" lon="1.83793">
        <ele>1766.252</ele>
        <time>2021-02-28T10:57:31Z</time>
      </trkpt>
      <trkpt lat="42.84512" lon="1.83791">
        <ele>1766.086</ele>
        <time>2021-02-28T10:57:33Z</time>
      </trkpt>
      <trkpt lat="42.84511" lon="1.83789">
        <ele>1765.936</ele>
        <time>2021-02-28T10:57:35Z</time>
      </trkpt>
      <trkpt lat="42.84509" lon="1.83787">
        <ele>1765.285</ele>
        <time>2021-02-28T10:57:37Z</time>
      </trkpt>
      <trkpt lat="42.84508" lon="1.83784">
        <ele>1764.986</ele>
        <time>2021-02-28T10:57:39Z</time>
      </trkpt>
      <trkpt lat="42.84507" lon="1.83782">
        <ele>1764.502</ele>
        <time>2021-02-28T10:57:41Z</time>
      </trkpt>
      <trkpt lat="42.84506" lon="1.83779">
        <ele>1764.817</ele>
        <time>2021-02-28T10:57:43Z</time>
      </trkpt>
      <trkpt lat="42.84505" lon="1.83777">
        <ele>1764.888</ele>
        <time>2021-02-28T10:57:45Z</time>
      </trkpt>
      <trkpt lat="42.84503" lon="1.83775">
        <ele>1765.022</ele>
        <time>2021-02-28T10:57:47Z</time>
      </trkpt>
      <trkpt lat="42.84502" lon="1.83773">
        <ele>1765.327</ele>
        <time>2021-02-28T10:57:49Z</time>
      </trkpt>
      <trkpt lat="42.845" lon="1.83771">
        <ele>1765.385</ele>
        <time>2021-02-28T10:57:51Z</time>
      </trkpt>
      <trkpt lat="42.84499" lon="1.83769">
        <ele>1765.852</ele>
        <time>2021-02-28T10:57:53Z</time>
      </trkpt>
      <trkpt lat="42.84498" lon="1.83767">
        <ele>1765.892</ele>
        <time>2021-02-28T10:57:55Z</time>
      </trkpt>
      <trkpt lat="42.84497" lon="1.83766">
        <ele>1765.759</ele>
        <time>2021-02-28T10:57:57Z</time>
      </trkpt>
      <trkpt lat="42.84496" lon="1.83764">
        <ele>1766.251</ele>
        <time>2021-02-28T10:57:59Z</time>
      </trkpt>
      <trkpt lat="42.84495" lon="1.83762">
        <ele>1766.55</ele>
        <time>2021-02-28T10:58:01Z</time>
      </trkpt>
      <trkpt lat="42.84495" lon="1.8376">
        <ele>1766.562</ele>
        <time>2021-02-28T10:58:03Z</time>
      </trkpt>
      <trkpt lat="42.84494" lon="1.83758">
        <ele>1767.01</ele>
        <time>2021-02-28T10:58:05Z</time>
      </trkpt>
      <trkpt lat="42.84493" lon="1.83757">
        <ele>1767.318</ele>
        <time>2021-02-28T10:58:07Z</time>
      </trkpt>
      <trkpt lat="42.84492" lon="1.83755">
        <ele>1767.712</ele>
        <time>2021-02-28T10:58:09Z</time>
      </trkpt>
      <trkpt lat="42.84491" lon="1.83753">
        <ele>1768.105</ele>
        <time>2021-02-28T10:58:11Z</time>
      </trkpt>
      <trkpt lat="42.8449" lon="1.83751">
        <ele>1768.64</ele>
        <time>2021-02-28T10:58:13Z</time>
      </trkpt>
      <trkpt lat="42.8449" lon="1.83749">
        <ele>1769.007</ele>
        <time>2021-02-28T10:58:15Z</time>
      </trkpt>
      <trkpt lat="42.84489" lon="1.83748">
        <ele>1769.452</ele>
        <time>2021-02-28T10:58:17Z</time>
      </trkpt>
      <trkpt lat="42.84489" lon="1.83746">
        <ele>1769.866</ele>
        <time>2021-02-28T10:58:19Z</time>
      </trkpt>
      <trkpt lat="42.84488" lon="1.83744">
        <ele>1770.462</ele>
        <time>2021-02-28T10:58:21Z</time>
      </trkpt>
      <trkpt lat="42.84488" lon="1.83742">
        <ele>1770.832</ele>
        <time>2021-02-28T10:58:23Z</time>
      </trkpt>
      <trkpt lat="42.84487" lon="1.8374">
        <ele>1770.444</ele>
        <time>2021-02-28T10:58:25Z</time>
      </trkpt>
      <trkpt lat="42.84487" lon="1.83738">
        <ele>1771.035</ele>
        <time>2021-02-28T10:58:27Z</time>
      </trkpt>
      <trkpt lat="42.84486" lon="1.83736">
        <ele>1771.73</ele>
        <time>2021-02-28T10:58:29Z</time>
      </trkpt>
      <trkpt lat="42.84486" lon="1.83734">
        <ele>1772.415</ele>
        <time>2021-02-28T10:58:31Z</time>
      </trkpt>
      <trkpt lat="42.84486" lon="1.83732">
        <ele>1773.034</ele>
        <time>2021-02-28T10:58:33Z</time>
      </trkpt>
      <trkpt lat="42.84485" lon="1.8373">
        <ele>1773.612</ele>
        <time>2021-02-28T10:58:35Z</time>
      </trkpt>
      <trkpt lat="42.84484" lon="1.83729">
        <ele>1773.918</ele>
        <time>2021-02-28T10:58:37Z</time>
      </trkpt>
      <trkpt lat="42.84483" lon="1.83727">
        <ele>1773.716</ele>
        <time>2021-02-28T10:58:39Z</time>
      </trkpt>
      <trkpt lat="42.84482" lon="1.83726">
        <ele>1774.317</ele>
        <time>2021-02-28T10:58:41Z</time>
      </trkpt>
      <trkpt lat="42.84481" lon="1.83724">
        <ele>1774.699</ele>
        <time>2021-02-28T10:58:43Z</time>
      </trkpt>
      <trkpt lat="42.84481" lon="1.83724">
        <ele>1774.932</ele>
        <time>2021-02-28T10:58:44Z</time>
      </trkpt>
      <trkpt lat="42.84479" lon="1.83722">
        <ele>1775.345</ele>
        <time>2021-02-28T10:58:47Z</time>
      </trkpt>
      <trkpt lat="42.84478" lon="1.8372">
        <ele>1775.579</ele>
        <time>2021-02-28T10:58:49Z</time>
      </trkpt>
      <trkpt lat="42.84477" lon="1.83719">
        <ele>1776.083</ele>
        <time>2021-02-28T10:58:51Z</time>
      </trkpt>
      <trkpt lat="42.84475" lon="1.83713">
        <ele>1777.027</ele>
        <time>2021-02-28T10:58:58Z</time>
      </trkpt>
      <trkpt lat="42.84475" lon="1.83712">
        <ele>1777.412</ele>
        <time>2021-02-28T10:59:00Z</time>
      </trkpt>
      <trkpt lat="42.84474" lon="1.8371">
        <ele>1777.812</ele>
        <time>2021-02-28T10:59:02Z</time>
      </trkpt>
      <trkpt lat="42.84473" lon="1.83709">
        <ele>1777.725</ele>
        <time>2021-02-28T10:59:04Z</time>
      </trkpt>
      <trkpt lat="42.84472" lon="1.83707">
        <ele>1778.011</ele>
        <time>2021-02-28T10:59:06Z</time>
      </trkpt>
      <trkpt lat="42.8447" lon="1.83706">
        <ele>1778.102</ele>
        <time>2021-02-28T10:59:08Z</time>
      </trkpt>
      <trkpt lat="42.84469" lon="1.83706">
        <ele>1778.39</ele>
        <time>2021-02-28T10:59:10Z</time>
      </trkpt>
      <trkpt lat="42.84468" lon="1.83706">
        <ele>1778.284</ele>
        <time>2021-02-28T10:59:12Z</time>
      </trkpt>
      <trkpt lat="42.84467" lon="1.83706">
        <ele>1778.118</ele>
        <time>2021-02-28T10:59:14Z</time>
      </trkpt>
      <trkpt lat="42.84465" lon="1.83707">
        <ele>1778.537</ele>
        <time>2021-02-28T10:59:16Z</time>
      </trkpt>
      <trkpt lat="42.84463" lon="1.83707">
        <ele>1778.664</ele>
        <time>2021-02-28T10:59:18Z</time>
      </trkpt>
      <trkpt lat="42.84462" lon="1.83708">
        <ele>1779.034</ele>
        <time>2021-02-28T10:59:20Z</time>
      </trkpt>
      <trkpt lat="42.8446" lon="1.83707">
        <ele>1778.993</ele>
        <time>2021-02-28T10:59:22Z</time>
      </trkpt>
      <trkpt lat="42.84459" lon="1.83707">
        <ele>1778.809</ele>
        <time>2021-02-28T10:59:24Z</time>
      </trkpt>
      <trkpt lat="42.84457" lon="1.83706">
        <ele>1778.969</ele>
        <time>2021-02-28T10:59:26Z</time>
      </trkpt>
      <trkpt lat="42.84456" lon="1.83707">
        <ele>1779.203</ele>
        <time>2021-02-28T10:59:28Z</time>
      </trkpt>
      <trkpt lat="42.84454" lon="1.83707">
        <ele>1779.194</ele>
        <time>2021-02-28T10:59:30Z</time>
      </trkpt>
      <trkpt lat="42.84453" lon="1.83707">
        <ele>1779.552</ele>
        <time>2021-02-28T10:59:32Z</time>
      </trkpt>
      <trkpt lat="42.84451" lon="1.83708">
        <ele>1779.628</ele>
        <time>2021-02-28T10:59:34Z</time>
      </trkpt>
      <trkpt lat="42.8445" lon="1.83709">
        <ele>1779.413</ele>
        <time>2021-02-28T10:59:36Z</time>
      </trkpt>
      <trkpt lat="42.84449" lon="1.83709">
        <ele>1779.44</ele>
        <time>2021-02-28T10:59:38Z</time>
      </trkpt>
      <trkpt lat="42.84448" lon="1.8371">
        <ele>1779.287</ele>
        <time>2021-02-28T10:59:40Z</time>
      </trkpt>
      <trkpt lat="42.84446" lon="1.8371">
        <ele>1779.183</ele>
        <time>2021-02-28T10:59:42Z</time>
      </trkpt>
      <trkpt lat="42.84445" lon="1.8371">
        <ele>1779.227</ele>
        <time>2021-02-28T10:59:44Z</time>
      </trkpt>
      <trkpt lat="42.84443" lon="1.83711">
        <ele>1778.563</ele>
        <time>2021-02-28T10:59:46Z</time>
      </trkpt>
      <trkpt lat="42.84442" lon="1.83711">
        <ele>1778.701</ele>
        <time>2021-02-28T10:59:48Z</time>
      </trkpt>
      <trkpt lat="42.84441" lon="1.8371">
        <ele>1779.542</ele>
        <time>2021-02-28T10:59:50Z</time>
      </trkpt>
      <trkpt lat="42.8444" lon="1.8371">
        <ele>1779.695</ele>
        <time>2021-02-28T10:59:52Z</time>
      </trkpt>
      <trkpt lat="42.84439" lon="1.8371">
        <ele>1779.59</ele>
        <time>2021-02-28T10:59:54Z</time>
      </trkpt>
      <trkpt lat="42.84438" lon="1.83711">
        <ele>1780.679</ele>
        <time>2021-02-28T10:59:56Z</time>
      </trkpt>
      <trkpt lat="42.84437" lon="1.83711">
        <ele>1780.575</ele>
        <time>2021-02-28T10:59:58Z</time>
      </trkpt>
      <trkpt lat="42.84435" lon="1.83711">
        <ele>1780.13</ele>
        <time>2021-02-28T11:00:00Z</time>
      </trkpt>
      <trkpt lat="42.84434" lon="1.83711">
        <ele>1781.819</ele>
        <time>2021-02-28T11:00:02Z</time>
      </trkpt>
      <trkpt lat="42.84433" lon="1.83712">
        <ele>1782.191</ele>
        <time>2021-02-28T11:00:04Z</time>
      </trkpt>
      <trkpt lat="42.84432" lon="1.83714">
        <ele>1781.082</ele>
        <time>2021-02-28T11:00:06Z</time>
      </trkpt>
      <trkpt lat="42.84431" lon="1.83716">
        <ele>1780.44</ele>
        <time>2021-02-28T11:00:08Z</time>
      </trkpt>
      <trkpt lat="42.8443" lon="1.83718">
        <ele>1781.198</ele>
        <time>2021-02-28T11:00:10Z</time>
      </trkpt>
      <trkpt lat="42.8443" lon="1.83719">
        <ele>1781.424</ele>
        <time>2021-02-28T11:00:12Z</time>
      </trkpt>
      <trkpt lat="42.84429" lon="1.83721">
        <ele>1782.007</ele>
        <time>2021-02-28T11:00:14Z</time>
      </trkpt>
      <trkpt lat="42.84429" lon="1.83722">
        <ele>1782.862</ele>
        <time>2021-02-28T11:00:16Z</time>
      </trkpt>
      <trkpt lat="42.84427" lon="1.83725">
        <ele>1782.425</ele>
        <time>2021-02-28T11:00:18Z</time>
      </trkpt>
      <trkpt lat="42.84426" lon="1.83729">
        <ele>1782.847</ele>
        <time>2021-02-28T11:00:20Z</time>
      </trkpt>
      <trkpt lat="42.84426" lon="1.83733">
        <ele>1785.736</ele>
        <time>2021-02-28T11:00:22Z</time>
      </trkpt>
      <trkpt lat="42.84424" lon="1.83735">
        <ele>1788.145</ele>
        <time>2021-02-28T11:00:24Z</time>
      </trkpt>
      <trkpt lat="42.84422" lon="1.83735">
        <ele>1788.86</ele>
        <time>2021-02-28T11:00:26Z</time>
      </trkpt>
      <trkpt lat="42.84421" lon="1.83735">
        <ele>1788.34</ele>
        <time>2021-02-28T11:00:28Z</time>
      </trkpt>
      <trkpt lat="42.84421" lon="1.83734">
        <ele>1788.364</ele>
        <time>2021-02-28T11:00:30Z</time>
      </trkpt>
      <trkpt lat="42.8442" lon="1.83734">
        <ele>1787.966</ele>
        <time>2021-02-28T11:00:32Z</time>
      </trkpt>
      <trkpt lat="42.84419" lon="1.83734">
        <ele>1788.189</ele>
        <time>2021-02-28T11:00:34Z</time>
      </trkpt>
      <trkpt lat="42.84419" lon="1.83733">
        <ele>1787.609</ele>
        <time>2021-02-28T11:00:36Z</time>
      </trkpt>
      <trkpt lat="42.84418" lon="1.83732">
        <ele>1787.307</ele>
        <time>2021-02-28T11:00:38Z</time>
      </trkpt>
      <trkpt lat="42.84416" lon="1.83733">
        <ele>1788.169</ele>
        <time>2021-02-28T11:00:40Z</time>
      </trkpt>
      <trkpt lat="42.84415" lon="1.83734">
        <ele>1789.443</ele>
        <time>2021-02-28T11:00:42Z</time>
      </trkpt>
      <trkpt lat="42.84414" lon="1.83734">
        <ele>1790.461</ele>
        <time>2021-02-28T11:00:44Z</time>
      </trkpt>
      <trkpt lat="42.84413" lon="1.83733">
        <ele>1790.26</ele>
        <time>2021-02-28T11:00:46Z</time>
      </trkpt>
      <trkpt lat="42.84413" lon="1.83732">
        <ele>1790.251</ele>
        <time>2021-02-28T11:00:48Z</time>
      </trkpt>
      <trkpt lat="42.84412" lon="1.8373">
        <ele>1790.424</ele>
        <time>2021-02-28T11:00:50Z</time>
      </trkpt>
      <trkpt lat="42.84411" lon="1.8373">
        <ele>1789.619</ele>
        <time>2021-02-28T11:00:52Z</time>
      </trkpt>
      <trkpt lat="42.8441" lon="1.83731">
        <ele>1789.014</ele>
        <time>2021-02-28T11:00:54Z</time>
      </trkpt>
      <trkpt lat="42.84409" lon="1.83731">
        <ele>1788.803</ele>
        <time>2021-02-28T11:00:56Z</time>
      </trkpt>
      <trkpt lat="42.84408" lon="1.8373">
        <ele>1789.276</ele>
        <time>2021-02-28T11:00:58Z</time>
      </trkpt>
      <trkpt lat="42.84407" lon="1.83731">
        <ele>1789.046</ele>
        <time>2021-02-28T11:01:00Z</time>
      </trkpt>
      <trkpt lat="42.84406" lon="1.83732">
        <ele>1788.85</ele>
        <time>2021-02-28T11:01:02Z</time>
      </trkpt>
      <trkpt lat="42.84405" lon="1.83734">
        <ele>1788.822</ele>
        <time>2021-02-28T11:01:04Z</time>
      </trkpt>
      <trkpt lat="42.84404" lon="1.83736">
        <ele>1789.531</ele>
        <time>2021-02-28T11:01:06Z</time>
      </trkpt>
      <trkpt lat="42.84403" lon="1.83736">
        <ele>1789.401</ele>
        <time>2021-02-28T11:01:08Z</time>
      </trkpt>
      <trkpt lat="42.84402" lon="1.83736">
        <ele>1789.182</ele>
        <time>2021-02-28T11:01:10Z</time>
      </trkpt>
      <trkpt lat="42.84401" lon="1.83735">
        <ele>1789.438</ele>
        <time>2021-02-28T11:01:12Z</time>
      </trkpt>
      <trkpt lat="42.844" lon="1.83736">
        <ele>1789.361</ele>
        <time>2021-02-28T11:01:14Z</time>
      </trkpt>
      <trkpt lat="42.84399" lon="1.83736">
        <ele>1789.137</ele>
        <time>2021-02-28T11:01:16Z</time>
      </trkpt>
      <trkpt lat="42.84398" lon="1.83737">
        <ele>1789.481</ele>
        <time>2021-02-28T11:01:18Z</time>
      </trkpt>
      <trkpt lat="42.84397" lon="1.83737">
        <ele>1789.599</ele>
        <time>2021-02-28T11:01:20Z</time>
      </trkpt>
      <trkpt lat="42.84396" lon="1.83737">
        <ele>1789.864</ele>
        <time>2021-02-28T11:01:22Z</time>
      </trkpt>
      <trkpt lat="42.84394" lon="1.83737">
        <ele>1790.219</ele>
        <time>2021-02-28T11:01:24Z</time>
      </trkpt>
      <trkpt lat="42.84393" lon="1.83738">
        <ele>1790.781</ele>
        <time>2021-02-28T11:01:26Z</time>
      </trkpt>
      <trkpt lat="42.84392" lon="1.83739">
        <ele>1791.475</ele>
        <time>2021-02-28T11:01:28Z</time>
      </trkpt>
      <trkpt lat="42.84391" lon="1.83739">
        <ele>1791.769</ele>
        <time>2021-02-28T11:01:30Z</time>
      </trkpt>
      <trkpt lat="42.8439" lon="1.8374">
        <ele>1792.179</ele>
        <time>2021-02-28T11:01:32Z</time>
      </trkpt>
      <trkpt lat="42.84389" lon="1.8374">
        <ele>1792.35</ele>
        <time>2021-02-28T11:01:34Z</time>
      </trkpt>
      <trkpt lat="42.84388" lon="1.8374">
        <ele>1792.154</ele>
        <time>2021-02-28T11:01:36Z</time>
      </trkpt>
      <trkpt lat="42.84387" lon="1.83741">
        <ele>1792.56</ele>
        <time>2021-02-28T11:01:38Z</time>
      </trkpt>
      <trkpt lat="42.84386" lon="1.83742">
        <ele>1792.357</ele>
        <time>2021-02-28T11:01:40Z</time>
      </trkpt>
      <trkpt lat="42.84385" lon="1.83742">
        <ele>1792.853</ele>
        <time>2021-02-28T11:01:42Z</time>
      </trkpt>
      <trkpt lat="42.84384" lon="1.83743">
        <ele>1793.298</ele>
        <time>2021-02-28T11:01:44Z</time>
      </trkpt>
      <trkpt lat="42.84384" lon="1.83744">
        <ele>1794.312</ele>
        <time>2021-02-28T11:01:46Z</time>
      </trkpt>
      <trkpt lat="42.84383" lon="1.83745">
        <ele>1794.323</ele>
        <time>2021-02-28T11:01:48Z</time>
      </trkpt>
      <trkpt lat="42.84382" lon="1.83746">
        <ele>1794.479</ele>
        <time>2021-02-28T11:01:50Z</time>
      </trkpt>
      <trkpt lat="42.84381" lon="1.83745">
        <ele>1794.79</ele>
        <time>2021-02-28T11:01:52Z</time>
      </trkpt>
      <trkpt lat="42.8438" lon="1.83745">
        <ele>1795.159</ele>
        <time>2021-02-28T11:01:54Z</time>
      </trkpt>
      <trkpt lat="42.84379" lon="1.83745">
        <ele>1794.78</ele>
        <time>2021-02-28T11:01:56Z</time>
      </trkpt>
      <trkpt lat="42.84378" lon="1.83745">
        <ele>1794.884</ele>
        <time>2021-02-28T11:01:58Z</time>
      </trkpt>
      <trkpt lat="42.84378" lon="1.83745">
        <ele>1795.372</ele>
        <time>2021-02-28T11:02:00Z</time>
      </trkpt>
      <trkpt lat="42.84377" lon="1.83745">
        <ele>1795.974</ele>
        <time>2021-02-28T11:02:02Z</time>
      </trkpt>
      <trkpt lat="42.84376" lon="1.83746">
        <ele>1796.099</ele>
        <time>2021-02-28T11:02:04Z</time>
      </trkpt>
      <trkpt lat="42.84375" lon="1.83745">
        <ele>1796.103</ele>
        <time>2021-02-28T11:02:06Z</time>
      </trkpt>
      <trkpt lat="42.84374" lon="1.83744">
        <ele>1795.999</ele>
        <time>2021-02-28T11:02:08Z</time>
      </trkpt>
      <trkpt lat="42.84373" lon="1.83743">
        <ele>1796.617</ele>
        <time>2021-02-28T11:02:10Z</time>
      </trkpt>
      <trkpt lat="42.84371" lon="1.83743">
        <ele>1797.069</ele>
        <time>2021-02-28T11:02:12Z</time>
      </trkpt>
      <trkpt lat="42.8437" lon="1.83743">
        <ele>1797.397</ele>
        <time>2021-02-28T11:02:14Z</time>
      </trkpt>
      <trkpt lat="42.84369" lon="1.83744">
        <ele>1797.326</ele>
        <time>2021-02-28T11:02:16Z</time>
      </trkpt>
      <trkpt lat="42.84367" lon="1.83744">
        <ele>1797.235</ele>
        <time>2021-02-28T11:02:18Z</time>
      </trkpt>
      <trkpt lat="42.84366" lon="1.83744">
        <ele>1797.581</ele>
        <time>2021-02-28T11:02:20Z</time>
      </trkpt>
      <trkpt lat="42.84364" lon="1.83745">
        <ele>1797.531</ele>
        <time>2021-02-28T11:02:22Z</time>
      </trkpt>
      <trkpt lat="42.84363" lon="1.83745">
        <ele>1797.388</ele>
        <time>2021-02-28T11:02:24Z</time>
      </trkpt>
      <trkpt lat="42.84361" lon="1.83745">
        <ele>1797.662</ele>
        <time>2021-02-28T11:02:26Z</time>
      </trkpt>
      <trkpt lat="42.84359" lon="1.83746">
        <ele>1798.033</ele>
        <time>2021-02-28T11:02:28Z</time>
      </trkpt>
      <trkpt lat="42.84358" lon="1.83747">
        <ele>1797.951</ele>
        <time>2021-02-28T11:02:30Z</time>
      </trkpt>
      <trkpt lat="42.84358" lon="1.83747">
        <ele>1798.468</ele>
        <time>2021-02-28T11:02:32Z</time>
      </trkpt>
      <trkpt lat="42.84357" lon="1.83748">
        <ele>1798.714</ele>
        <time>2021-02-28T11:02:34Z</time>
      </trkpt>
      <trkpt lat="42.84356" lon="1.83747">
        <ele>1799.047</ele>
        <time>2021-02-28T11:02:36Z</time>
      </trkpt>
      <trkpt lat="42.84355" lon="1.83748">
        <ele>1799.243</ele>
        <time>2021-02-28T11:02:38Z</time>
      </trkpt>
      <trkpt lat="42.84354" lon="1.83748">
        <ele>1799.608</ele>
        <time>2021-02-28T11:02:40Z</time>
      </trkpt>
      <trkpt lat="42.84352" lon="1.83748">
        <ele>1800.139</ele>
        <time>2021-02-28T11:02:42Z</time>
      </trkpt>
      <trkpt lat="42.8435" lon="1.83748">
        <ele>1800.413</ele>
        <time>2021-02-28T11:02:44Z</time>
      </trkpt>
      <trkpt lat="42.84349" lon="1.83747">
        <ele>1800.672</ele>
        <time>2021-02-28T11:02:46Z</time>
      </trkpt>
      <trkpt lat="42.84347" lon="1.83746">
        <ele>1800.883</ele>
        <time>2021-02-28T11:02:48Z</time>
      </trkpt>
      <trkpt lat="42.84346" lon="1.83745">
        <ele>1801.405</ele>
        <time>2021-02-28T11:02:50Z</time>
      </trkpt>
      <trkpt lat="42.84344" lon="1.83744">
        <ele>1801.312</ele>
        <time>2021-02-28T11:02:52Z</time>
      </trkpt>
      <trkpt lat="42.84342" lon="1.83743">
        <ele>1801.178</ele>
        <time>2021-02-28T11:02:54Z</time>
      </trkpt>
      <trkpt lat="42.84341" lon="1.83742">
        <ele>1801.869</ele>
        <time>2021-02-28T11:02:56Z</time>
      </trkpt>
      <trkpt lat="42.84339" lon="1.83742">
        <ele>1802.036</ele>
        <time>2021-02-28T11:02:58Z</time>
      </trkpt>
      <trkpt lat="42.84337" lon="1.83741">
        <ele>1801.755</ele>
        <time>2021-02-28T11:03:00Z</time>
      </trkpt>
      <trkpt lat="42.84335" lon="1.8374">
        <ele>1801.786</ele>
        <time>2021-02-28T11:03:02Z</time>
      </trkpt>
      <trkpt lat="42.84333" lon="1.83739">
        <ele>1802.142</ele>
        <time>2021-02-28T11:03:04Z</time>
      </trkpt>
      <trkpt lat="42.84331" lon="1.83738">
        <ele>1802.222</ele>
        <time>2021-02-28T11:03:06Z</time>
      </trkpt>
      <trkpt lat="42.84329" lon="1.83738">
        <ele>1802.048</ele>
        <time>2021-02-28T11:03:08Z</time>
      </trkpt>
      <trkpt lat="42.84327" lon="1.83737">
        <ele>1802.413</ele>
        <time>2021-02-28T11:03:10Z</time>
      </trkpt>
      <trkpt lat="42.84325" lon="1.83736">
        <ele>1802.947</ele>
        <time>2021-02-28T11:03:12Z</time>
      </trkpt>
      <trkpt lat="42.84324" lon="1.83736">
        <ele>1803.784</ele>
        <time>2021-02-28T11:03:14Z</time>
      </trkpt>
      <trkpt lat="42.84322" lon="1.83735">
        <ele>1804.057</ele>
        <time>2021-02-28T11:03:16Z</time>
      </trkpt>
      <trkpt lat="42.8432" lon="1.83734">
        <ele>1803.856</ele>
        <time>2021-02-28T11:03:18Z</time>
      </trkpt>
      <trkpt lat="42.84318" lon="1.83732">
        <ele>1803.704</ele>
        <time>2021-02-28T11:03:20Z</time>
      </trkpt>
      <trkpt lat="42.84316" lon="1.83729">
        <ele>1803.594</ele>
        <time>2021-02-28T11:03:22Z</time>
      </trkpt>
      <trkpt lat="42.84314" lon="1.83728">
        <ele>1804.268</ele>
        <time>2021-02-28T11:03:24Z</time>
      </trkpt>
      <trkpt lat="42.84311" lon="1.83727">
        <ele>1804.893</ele>
        <time>2021-02-28T11:03:26Z</time>
      </trkpt>
      <trkpt lat="42.8431" lon="1.83726">
        <ele>1805.111</ele>
        <time>2021-02-28T11:03:28Z</time>
      </trkpt>
      <trkpt lat="42.84309" lon="1.83725">
        <ele>1804.918</ele>
        <time>2021-02-28T11:03:30Z</time>
      </trkpt>
      <trkpt lat="42.84308" lon="1.83724">
        <ele>1805.41</ele>
        <time>2021-02-28T11:03:32Z</time>
      </trkpt>
      <trkpt lat="42.84307" lon="1.83722">
        <ele>1805.352</ele>
        <time>2021-02-28T11:03:34Z</time>
      </trkpt>
      <trkpt lat="42.84305" lon="1.83721">
        <ele>1805.409</ele>
        <time>2021-02-28T11:03:36Z</time>
      </trkpt>
      <trkpt lat="42.84304" lon="1.8372">
        <ele>1804.989</ele>
        <time>2021-02-28T11:03:38Z</time>
      </trkpt>
      <trkpt lat="42.84302" lon="1.83719">
        <ele>1804.764</ele>
        <time>2021-02-28T11:03:40Z</time>
      </trkpt>
      <trkpt lat="42.843" lon="1.83718">
        <ele>1804.585</ele>
        <time>2021-02-28T11:03:42Z</time>
      </trkpt>
      <trkpt lat="42.84299" lon="1.83716">
        <ele>1804.597</ele>
        <time>2021-02-28T11:03:44Z</time>
      </trkpt>
      <trkpt lat="42.84297" lon="1.83716">
        <ele>1804.58</ele>
        <time>2021-02-28T11:03:46Z</time>
      </trkpt>
      <trkpt lat="42.84296" lon="1.83715">
        <ele>1804.23</ele>
        <time>2021-02-28T11:03:48Z</time>
      </trkpt>
      <trkpt lat="42.84294" lon="1.83713">
        <ele>1804.106</ele>
        <time>2021-02-28T11:03:50Z</time>
      </trkpt>
      <trkpt lat="42.84292" lon="1.83712">
        <ele>1803.622</ele>
        <time>2021-02-28T11:03:52Z</time>
      </trkpt>
      <trkpt lat="42.8429" lon="1.83711">
        <ele>1803.829</ele>
        <time>2021-02-28T11:03:54Z</time>
      </trkpt>
      <trkpt lat="42.84289" lon="1.83711">
        <ele>1804.342</ele>
        <time>2021-02-28T11:03:56Z</time>
      </trkpt>
      <trkpt lat="42.84287" lon="1.8371">
        <ele>1804.406</ele>
        <time>2021-02-28T11:03:58Z</time>
      </trkpt>
      <trkpt lat="42.84286" lon="1.83709">
        <ele>1804.868</ele>
        <time>2021-02-28T11:04:00Z</time>
      </trkpt>
      <trkpt lat="42.84285" lon="1.83707">
        <ele>1805.17</ele>
        <time>2021-02-28T11:04:02Z</time>
      </trkpt>
      <trkpt lat="42.84284" lon="1.83706">
        <ele>1805.207</ele>
        <time>2021-02-28T11:04:04Z</time>
      </trkpt>
      <trkpt lat="42.84282" lon="1.83705">
        <ele>1805.653</ele>
        <time>2021-02-28T11:04:06Z</time>
      </trkpt>
      <trkpt lat="42.84282" lon="1.83703">
        <ele>1805.788</ele>
        <time>2021-02-28T11:04:08Z</time>
      </trkpt>
      <trkpt lat="42.84281" lon="1.83702">
        <ele>1806.231</ele>
        <time>2021-02-28T11:04:10Z</time>
      </trkpt>
      <trkpt lat="42.84279" lon="1.83701">
        <ele>1806.617</ele>
        <time>2021-02-28T11:04:12Z</time>
      </trkpt>
      <trkpt lat="42.84278" lon="1.837">
        <ele>1806.955</ele>
        <time>2021-02-28T11:04:14Z</time>
      </trkpt>
      <trkpt lat="42.84277" lon="1.837">
        <ele>1806.538</ele>
        <time>2021-02-28T11:04:16Z</time>
      </trkpt>
      <trkpt lat="42.84276" lon="1.83699">
        <ele>1807.007</ele>
        <time>2021-02-28T11:04:18Z</time>
      </trkpt>
      <trkpt lat="42.84274" lon="1.83698">
        <ele>1807.705</ele>
        <time>2021-02-28T11:04:20Z</time>
      </trkpt>
      <trkpt lat="42.84273" lon="1.83697">
        <ele>1807.578</ele>
        <time>2021-02-28T11:04:22Z</time>
      </trkpt>
      <trkpt lat="42.84273" lon="1.83695">
        <ele>1807.371</ele>
        <time>2021-02-28T11:04:24Z</time>
      </trkpt>
      <trkpt lat="42.84272" lon="1.83694">
        <ele>1807.421</ele>
        <time>2021-02-28T11:04:26Z</time>
      </trkpt>
      <trkpt lat="42.8427" lon="1.83693">
        <ele>1807.992</ele>
        <time>2021-02-28T11:04:28Z</time>
      </trkpt>
      <trkpt lat="42.84269" lon="1.83691">
        <ele>1807.952</ele>
        <time>2021-02-28T11:04:30Z</time>
      </trkpt>
      <trkpt lat="42.84267" lon="1.8369">
        <ele>1807.612</ele>
        <time>2021-02-28T11:04:32Z</time>
      </trkpt>
      <trkpt lat="42.84266" lon="1.83689">
        <ele>1807.42</ele>
        <time>2021-02-28T11:04:34Z</time>
      </trkpt>
      <trkpt lat="42.84265" lon="1.83688">
        <ele>1807.314</ele>
        <time>2021-02-28T11:04:36Z</time>
      </trkpt>
      <trkpt lat="42.84264" lon="1.83687">
        <ele>1807.841</ele>
        <time>2021-02-28T11:04:38Z</time>
      </trkpt>
      <trkpt lat="42.84263" lon="1.83686">
        <ele>1807.781</ele>
        <time>2021-02-28T11:04:40Z</time>
      </trkpt>
      <trkpt lat="42.84261" lon="1.83684">
        <ele>1808.106</ele>
        <time>2021-02-28T11:04:42Z</time>
      </trkpt>
      <trkpt lat="42.8426" lon="1.83683">
        <ele>1808.294</ele>
        <time>2021-02-28T11:04:44Z</time>
      </trkpt>
      <trkpt lat="42.84259" lon="1.83682">
        <ele>1808.242</ele>
        <time>2021-02-28T11:04:46Z</time>
      </trkpt>
      <trkpt lat="42.84257" lon="1.83681">
        <ele>1808.616</ele>
        <time>2021-02-28T11:04:48Z</time>
      </trkpt>
      <trkpt lat="42.84255" lon="1.83681">
        <ele>1808.252</ele>
        <time>2021-02-28T11:04:50Z</time>
      </trkpt>
      <trkpt lat="42.84254" lon="1.8368">
        <ele>1808.27</ele>
        <time>2021-02-28T11:04:52Z</time>
      </trkpt>
      <trkpt lat="42.84252" lon="1.83679">
        <ele>1808.817</ele>
        <time>2021-02-28T11:04:54Z</time>
      </trkpt>
      <trkpt lat="42.8425" lon="1.83677">
        <ele>1809.283</ele>
        <time>2021-02-28T11:04:56Z</time>
      </trkpt>
      <trkpt lat="42.84249" lon="1.83675">
        <ele>1809.496</ele>
        <time>2021-02-28T11:04:58Z</time>
      </trkpt>
      <trkpt lat="42.84247" lon="1.83673">
        <ele>1809.565</ele>
        <time>2021-02-28T11:05:00Z</time>
      </trkpt>
      <trkpt lat="42.84245" lon="1.83672">
        <ele>1809.792</ele>
        <time>2021-02-28T11:05:02Z</time>
      </trkpt>
      <trkpt lat="42.84244" lon="1.83671">
        <ele>1809.936</ele>
        <time>2021-02-28T11:05:04Z</time>
      </trkpt>
      <trkpt lat="42.84242" lon="1.83671">
        <ele>1809.795</ele>
        <time>2021-02-28T11:05:06Z</time>
      </trkpt>
      <trkpt lat="42.84241" lon="1.83669">
        <ele>1809.735</ele>
        <time>2021-02-28T11:05:08Z</time>
      </trkpt>
      <trkpt lat="42.84239" lon="1.83668">
        <ele>1809.316</ele>
        <time>2021-02-28T11:05:10Z</time>
      </trkpt>
      <trkpt lat="42.84237" lon="1.83667">
        <ele>1809.376</ele>
        <time>2021-02-28T11:05:12Z</time>
      </trkpt>
      <trkpt lat="42.84236" lon="1.83665">
        <ele>1809.457</ele>
        <time>2021-02-28T11:05:14Z</time>
      </trkpt>
      <trkpt lat="42.84234" lon="1.83663">
        <ele>1809.678</ele>
        <time>2021-02-28T11:05:16Z</time>
      </trkpt>
      <trkpt lat="42.84233" lon="1.83661">
        <ele>1809.569</ele>
        <time>2021-02-28T11:05:18Z</time>
      </trkpt>
      <trkpt lat="42.84232" lon="1.83659">
        <ele>1809.895</ele>
        <time>2021-02-28T11:05:20Z</time>
      </trkpt>
      <trkpt lat="42.84231" lon="1.83658">
        <ele>1810.034</ele>
        <time>2021-02-28T11:05:22Z</time>
      </trkpt>
      <trkpt lat="42.84229" lon="1.83657">
        <ele>1809.695</ele>
        <time>2021-02-28T11:05:24Z</time>
      </trkpt>
      <trkpt lat="42.84228" lon="1.83656">
        <ele>1810.143</ele>
        <time>2021-02-28T11:05:26Z</time>
      </trkpt>
      <trkpt lat="42.84227" lon="1.83656">
        <ele>1810.886</ele>
        <time>2021-02-28T11:05:28Z</time>
      </trkpt>
      <trkpt lat="42.84226" lon="1.83655">
        <ele>1811.798</ele>
        <time>2021-02-28T11:05:30Z</time>
      </trkpt>
      <trkpt lat="42.84224" lon="1.83654">
        <ele>1812.606</ele>
        <time>2021-02-28T11:05:32Z</time>
      </trkpt>
      <trkpt lat="42.84223" lon="1.83653">
        <ele>1812.951</ele>
        <time>2021-02-28T11:05:34Z</time>
      </trkpt>
      <trkpt lat="42.84222" lon="1.83652">
        <ele>1813.06</ele>
        <time>2021-02-28T11:05:36Z</time>
      </trkpt>
      <trkpt lat="42.8422" lon="1.83651">
        <ele>1813.218</ele>
        <time>2021-02-28T11:05:38Z</time>
      </trkpt>
      <trkpt lat="42.84219" lon="1.8365">
        <ele>1813.795</ele>
        <time>2021-02-28T11:05:40Z</time>
      </trkpt>
      <trkpt lat="42.84218" lon="1.8365">
        <ele>1814.313</ele>
        <time>2021-02-28T11:05:42Z</time>
      </trkpt>
      <trkpt lat="42.84217" lon="1.8365">
        <ele>1814.917</ele>
        <time>2021-02-28T11:05:44Z</time>
      </trkpt>
      <trkpt lat="42.84216" lon="1.8365">
        <ele>1815.541</ele>
        <time>2021-02-28T11:05:46Z</time>
      </trkpt>
      <trkpt lat="42.84214" lon="1.8365">
        <ele>1815.669</ele>
        <time>2021-02-28T11:05:48Z</time>
      </trkpt>
      <trkpt lat="42.84213" lon="1.83651">
        <ele>1815.742</ele>
        <time>2021-02-28T11:05:50Z</time>
      </trkpt>
      <trkpt lat="42.84211" lon="1.83651">
        <ele>1815.36</ele>
        <time>2021-02-28T11:05:52Z</time>
      </trkpt>
      <trkpt lat="42.8421" lon="1.83651">
        <ele>1815.935</ele>
        <time>2021-02-28T11:05:54Z</time>
      </trkpt>
      <trkpt lat="42.8421" lon="1.83651">
        <ele>1816.099</ele>
        <time>2021-02-28T11:05:56Z</time>
      </trkpt>
      <trkpt lat="42.84208" lon="1.83653">
        <ele>1816.156</ele>
        <time>2021-02-28T11:05:58Z</time>
      </trkpt>
      <trkpt lat="42.84207" lon="1.83654">
        <ele>1816.949</ele>
        <time>2021-02-28T11:06:00Z</time>
      </trkpt>
      <trkpt lat="42.84206" lon="1.83654">
        <ele>1817.237</ele>
        <time>2021-02-28T11:06:02Z</time>
      </trkpt>
      <trkpt lat="42.84205" lon="1.83655">
        <ele>1816.953</ele>
        <time>2021-02-28T11:06:04Z</time>
      </trkpt>
      <trkpt lat="42.84204" lon="1.83655">
        <ele>1817.157</ele>
        <time>2021-02-28T11:06:06Z</time>
      </trkpt>
      <trkpt lat="42.84203" lon="1.83654">
        <ele>1816.887</ele>
        <time>2021-02-28T11:06:08Z</time>
      </trkpt>
      <trkpt lat="42.84202" lon="1.83654">
        <ele>1817.201</ele>
        <time>2021-02-28T11:06:10Z</time>
      </trkpt>
      <trkpt lat="42.84201" lon="1.83655">
        <ele>1817.677</ele>
        <time>2021-02-28T11:06:12Z</time>
      </trkpt>
      <trkpt lat="42.842" lon="1.83656">
        <ele>1818.316</ele>
        <time>2021-02-28T11:06:14Z</time>
      </trkpt>
      <trkpt lat="42.84199" lon="1.83657">
        <ele>1818.483</ele>
        <time>2021-02-28T11:06:16Z</time>
      </trkpt>
      <trkpt lat="42.84198" lon="1.83657">
        <ele>1818.944</ele>
        <time>2021-02-28T11:06:18Z</time>
      </trkpt>
      <trkpt lat="42.84196" lon="1.83658">
        <ele>1819.3</ele>
        <time>2021-02-28T11:06:20Z</time>
      </trkpt>
      <trkpt lat="42.84195" lon="1.83658">
        <ele>1819.552</ele>
        <time>2021-02-28T11:06:22Z</time>
      </trkpt>
      <trkpt lat="42.84194" lon="1.83658">
        <ele>1820.54</ele>
        <time>2021-02-28T11:06:24Z</time>
      </trkpt>
      <trkpt lat="42.84193" lon="1.83659">
        <ele>1820.737</ele>
        <time>2021-02-28T11:06:26Z</time>
      </trkpt>
      <trkpt lat="42.84192" lon="1.83659">
        <ele>1821.106</ele>
        <time>2021-02-28T11:06:28Z</time>
      </trkpt>
      <trkpt lat="42.8419" lon="1.83659">
        <ele>1821.358</ele>
        <time>2021-02-28T11:06:30Z</time>
      </trkpt>
      <trkpt lat="42.84189" lon="1.83659">
        <ele>1821.394</ele>
        <time>2021-02-28T11:06:32Z</time>
      </trkpt>
      <trkpt lat="42.84188" lon="1.83659">
        <ele>1821.806</ele>
        <time>2021-02-28T11:06:34Z</time>
      </trkpt>
      <trkpt lat="42.84187" lon="1.8366">
        <ele>1822.055</ele>
        <time>2021-02-28T11:06:36Z</time>
      </trkpt>
      <trkpt lat="42.84186" lon="1.83661">
        <ele>1822.664</ele>
        <time>2021-02-28T11:06:38Z</time>
      </trkpt>
      <trkpt lat="42.84186" lon="1.83661">
        <ele>1822.864</ele>
        <time>2021-02-28T11:06:40Z</time>
      </trkpt>
      <trkpt lat="42.84185" lon="1.83661">
        <ele>1822.719</ele>
        <time>2021-02-28T11:06:42Z</time>
      </trkpt>
      <trkpt lat="42.84184" lon="1.8366">
        <ele>1822.721</ele>
        <time>2021-02-28T11:06:44Z</time>
      </trkpt>
      <trkpt lat="42.84183" lon="1.8366">
        <ele>1823.213</ele>
        <time>2021-02-28T11:06:46Z</time>
      </trkpt>
      <trkpt lat="42.84183" lon="1.8366">
        <ele>1822.814</ele>
        <time>2021-02-28T11:06:48Z</time>
      </trkpt>
      <trkpt lat="42.84182" lon="1.83659">
        <ele>1822.996</ele>
        <time>2021-02-28T11:06:50Z</time>
      </trkpt>
      <trkpt lat="42.84181" lon="1.83658">
        <ele>1822.563</ele>
        <time>2021-02-28T11:06:52Z</time>
      </trkpt>
      <trkpt lat="42.8418" lon="1.83657">
        <ele>1822.697</ele>
        <time>2021-02-28T11:06:54Z</time>
      </trkpt>
      <trkpt lat="42.84179" lon="1.83656">
        <ele>1823.076</ele>
        <time>2021-02-28T11:06:56Z</time>
      </trkpt>
      <trkpt lat="42.84177" lon="1.83656">
        <ele>1823.237</ele>
        <time>2021-02-28T11:06:58Z</time>
      </trkpt>
      <trkpt lat="42.84177" lon="1.83656">
        <ele>1823.272</ele>
        <time>2021-02-28T11:07:00Z</time>
      </trkpt>
      <trkpt lat="42.84175" lon="1.83656">
        <ele>1823.054</ele>
        <time>2021-02-28T11:07:02Z</time>
      </trkpt>
      <trkpt lat="42.84174" lon="1.83657">
        <ele>1823.849</ele>
        <time>2021-02-28T11:07:04Z</time>
      </trkpt>
      <trkpt lat="42.84174" lon="1.83658">
        <ele>1824.627</ele>
        <time>2021-02-28T11:07:06Z</time>
      </trkpt>
      <trkpt lat="42.84173" lon="1.8366">
        <ele>1825.004</ele>
        <time>2021-02-28T11:07:08Z</time>
      </trkpt>
      <trkpt lat="42.84173" lon="1.8366">
        <ele>1825.015</ele>
        <time>2021-02-28T11:07:10Z</time>
      </trkpt>
      <trkpt lat="42.84172" lon="1.83661">
        <ele>1825.591</ele>
        <time>2021-02-28T11:07:12Z</time>
      </trkpt>
      <trkpt lat="42.84171" lon="1.83662">
        <ele>1825.882</ele>
        <time>2021-02-28T11:07:14Z</time>
      </trkpt>
      <trkpt lat="42.8417" lon="1.83664">
        <ele>1825.836</ele>
        <time>2021-02-28T11:07:16Z</time>
      </trkpt>
      <trkpt lat="42.84168" lon="1.83664">
        <ele>1825.896</ele>
        <time>2021-02-28T11:07:18Z</time>
      </trkpt>
      <trkpt lat="42.84167" lon="1.83664">
        <ele>1825.922</ele>
        <time>2021-02-28T11:07:20Z</time>
      </trkpt>
      <trkpt lat="42.84166" lon="1.83664">
        <ele>1826.377</ele>
        <time>2021-02-28T11:07:22Z</time>
      </trkpt>
      <trkpt lat="42.84165" lon="1.83663">
        <ele>1826.737</ele>
        <time>2021-02-28T11:07:24Z</time>
      </trkpt>
      <trkpt lat="42.84164" lon="1.83663">
        <ele>1826.895</ele>
        <time>2021-02-28T11:07:26Z</time>
      </trkpt>
      <trkpt lat="42.84162" lon="1.83662">
        <ele>1826.81</ele>
        <time>2021-02-28T11:07:28Z</time>
      </trkpt>
      <trkpt lat="42.84161" lon="1.83662">
        <ele>1827.183</ele>
        <time>2021-02-28T11:07:30Z</time>
      </trkpt>
      <trkpt lat="42.8416" lon="1.83663">
        <ele>1827.629</ele>
        <time>2021-02-28T11:07:32Z</time>
      </trkpt>
      <trkpt lat="42.84158" lon="1.83663">
        <ele>1827.769</ele>
        <time>2021-02-28T11:07:34Z</time>
      </trkpt>
      <trkpt lat="42.84157" lon="1.83665">
        <ele>1828.581</ele>
        <time>2021-02-28T11:07:36Z</time>
      </trkpt>
      <trkpt lat="42.84157" lon="1.83667">
        <ele>1829.232</ele>
        <time>2021-02-28T11:07:38Z</time>
      </trkpt>
      <trkpt lat="42.84156" lon="1.83667">
        <ele>1830.053</ele>
        <time>2021-02-28T11:07:40Z</time>
      </trkpt>
      <trkpt lat="42.84155" lon="1.83667">
        <ele>1830.913</ele>
        <time>2021-02-28T11:07:42Z</time>
      </trkpt>
      <trkpt lat="42.84154" lon="1.83668">
        <ele>1831.103</ele>
        <time>2021-02-28T11:07:44Z</time>
      </trkpt>
      <trkpt lat="42.84154" lon="1.83669">
        <ele>1832.019</ele>
        <time>2021-02-28T11:07:46Z</time>
      </trkpt>
      <trkpt lat="42.84153" lon="1.8367">
        <ele>1832.771</ele>
        <time>2021-02-28T11:07:48Z</time>
      </trkpt>
      <trkpt lat="42.84153" lon="1.8367">
        <ele>1833.151</ele>
        <time>2021-02-28T11:07:50Z</time>
      </trkpt>
      <trkpt lat="42.84152" lon="1.83671">
        <ele>1833.475</ele>
        <time>2021-02-28T11:07:52Z</time>
      </trkpt>
      <trkpt lat="42.84151" lon="1.83673">
        <ele>1833.672</ele>
        <time>2021-02-28T11:07:54Z</time>
      </trkpt>
      <trkpt lat="42.8415" lon="1.83673">
        <ele>1834.06</ele>
        <time>2021-02-28T11:07:56Z</time>
      </trkpt>
      <trkpt lat="42.84149" lon="1.83674">
        <ele>1834.804</ele>
        <time>2021-02-28T11:07:58Z</time>
      </trkpt>
      <trkpt lat="42.84149" lon="1.83674">
        <ele>1834.864</ele>
        <time>2021-02-28T11:08:00Z</time>
      </trkpt>
      <trkpt lat="42.84148" lon="1.83675">
        <ele>1835.039</ele>
        <time>2021-02-28T11:08:02Z</time>
      </trkpt>
      <trkpt lat="42.84147" lon="1.83676">
        <ele>1835.23</ele>
        <time>2021-02-28T11:08:04Z</time>
      </trkpt>
      <trkpt lat="42.84146" lon="1.83676">
        <ele>1835.567</ele>
        <time>2021-02-28T11:08:06Z</time>
      </trkpt>
      <trkpt lat="42.84145" lon="1.83677">
        <ele>1835.895</ele>
        <time>2021-02-28T11:08:08Z</time>
      </trkpt>
      <trkpt lat="42.84145" lon="1.83677">
        <ele>1836.864</ele>
        <time>2021-02-28T11:08:10Z</time>
      </trkpt>
      <trkpt lat="42.84144" lon="1.83677">
        <ele>1836.496</ele>
        <time>2021-02-28T11:08:11Z</time>
      </trkpt>
      <trkpt lat="42.84144" lon="1.83678">
        <ele>1837.996</ele>
        <time>2021-02-28T11:08:14Z</time>
      </trkpt>
      <trkpt lat="42.84143" lon="1.8368">
        <ele>1838.137</ele>
        <time>2021-02-28T11:08:16Z</time>
      </trkpt>
      <trkpt lat="42.84143" lon="1.83681">
        <ele>1839.015</ele>
        <time>2021-02-28T11:08:18Z</time>
      </trkpt>
      <trkpt lat="42.84143" lon="1.83682">
        <ele>1839.447</ele>
        <time>2021-02-28T11:08:20Z</time>
      </trkpt>
      <trkpt lat="42.84142" lon="1.83683">
        <ele>1840.156</ele>
        <time>2021-02-28T11:08:22Z</time>
      </trkpt>
      <trkpt lat="42.84141" lon="1.83684">
        <ele>1840.132</ele>
        <time>2021-02-28T11:08:24Z</time>
      </trkpt>
      <trkpt lat="42.8414" lon="1.83686">
        <ele>1840.539</ele>
        <time>2021-02-28T11:08:26Z</time>
      </trkpt>
      <trkpt lat="42.84139" lon="1.83686">
        <ele>1840.853</ele>
        <time>2021-02-28T11:08:28Z</time>
      </trkpt>
      <trkpt lat="42.84139" lon="1.83687">
        <ele>1840.61</ele>
        <time>2021-02-28T11:08:30Z</time>
      </trkpt>
      <trkpt lat="42.84138" lon="1.83687">
        <ele>1840.68</ele>
        <time>2021-02-28T11:08:32Z</time>
      </trkpt>
      <trkpt lat="42.84137" lon="1.83688">
        <ele>1841.272</ele>
        <time>2021-02-28T11:08:34Z</time>
      </trkpt>
      <trkpt lat="42.84136" lon="1.83688">
        <ele>1840.901</ele>
        <time>2021-02-28T11:08:36Z</time>
      </trkpt>
      <trkpt lat="42.84135" lon="1.83689">
        <ele>1840.842</ele>
        <time>2021-02-28T11:08:38Z</time>
      </trkpt>
      <trkpt lat="42.84134" lon="1.8369">
        <ele>1841.052</ele>
        <time>2021-02-28T11:08:40Z</time>
      </trkpt>
      <trkpt lat="42.84134" lon="1.8369">
        <ele>1841.738</ele>
        <time>2021-02-28T11:08:42Z</time>
      </trkpt>
      <trkpt lat="42.84133" lon="1.83692">
        <ele>1842.065</ele>
        <time>2021-02-28T11:08:44Z</time>
      </trkpt>
      <trkpt lat="42.84133" lon="1.83693">
        <ele>1842.63</ele>
        <time>2021-02-28T11:08:46Z</time>
      </trkpt>
      <trkpt lat="42.84132" lon="1.83694">
        <ele>1842.516</ele>
        <time>2021-02-28T11:08:48Z</time>
      </trkpt>
      <trkpt lat="42.84131" lon="1.83694">
        <ele>1842.624</ele>
        <time>2021-02-28T11:08:50Z</time>
      </trkpt>
      <trkpt lat="42.84131" lon="1.83695">
        <ele>1842.94</ele>
        <time>2021-02-28T11:08:52Z</time>
      </trkpt>
      <trkpt lat="42.8413" lon="1.83696">
        <ele>1843.375</ele>
        <time>2021-02-28T11:08:54Z</time>
      </trkpt>
      <trkpt lat="42.8413" lon="1.83698">
        <ele>1843.55</ele>
        <time>2021-02-28T11:08:56Z</time>
      </trkpt>
      <trkpt lat="42.84129" lon="1.83699">
        <ele>1843.639</ele>
        <time>2021-02-28T11:08:58Z</time>
      </trkpt>
      <trkpt lat="42.84128" lon="1.837">
        <ele>1844.003</ele>
        <time>2021-02-28T11:09:00Z</time>
      </trkpt>
      <trkpt lat="42.84128" lon="1.83701">
        <ele>1844.689</ele>
        <time>2021-02-28T11:09:02Z</time>
      </trkpt>
      <trkpt lat="42.84127" lon="1.83702">
        <ele>1845.373</ele>
        <time>2021-02-28T11:09:04Z</time>
      </trkpt>
      <trkpt lat="42.84127" lon="1.83703">
        <ele>1846.818</ele>
        <time>2021-02-28T11:09:06Z</time>
      </trkpt>
      <trkpt lat="42.84127" lon="1.83704">
        <ele>1847.451</ele>
        <time>2021-02-28T11:09:08Z</time>
      </trkpt>
      <trkpt lat="42.84127" lon="1.83705">
        <ele>1848.05</ele>
        <time>2021-02-28T11:09:10Z</time>
      </trkpt>
      <trkpt lat="42.84126" lon="1.83705">
        <ele>1847.666</ele>
        <time>2021-02-28T11:09:12Z</time>
      </trkpt>
      <trkpt lat="42.84126" lon="1.83706">
        <ele>1847.78</ele>
        <time>2021-02-28T11:09:14Z</time>
      </trkpt>
      <trkpt lat="42.84125" lon="1.83706">
        <ele>1848.028</ele>
        <time>2021-02-28T11:09:16Z</time>
      </trkpt>
      <trkpt lat="42.84124" lon="1.83707">
        <ele>1848.934</ele>
        <time>2021-02-28T11:09:18Z</time>
      </trkpt>
      <trkpt lat="42.84124" lon="1.83708">
        <ele>1849.402</ele>
        <time>2021-02-28T11:09:20Z</time>
      </trkpt>
      <trkpt lat="42.84125" lon="1.83708">
        <ele>1849.509</ele>
        <time>2021-02-28T11:09:22Z</time>
      </trkpt>
      <trkpt lat="42.84124" lon="1.83709">
        <ele>1849.001</ele>
        <time>2021-02-28T11:09:24Z</time>
      </trkpt>
      <trkpt lat="42.84124" lon="1.8371">
        <ele>1849.236</ele>
        <time>2021-02-28T11:09:26Z</time>
      </trkpt>
      <trkpt lat="42.84124" lon="1.83711">
        <ele>1849.505</ele>
        <time>2021-02-28T11:09:28Z</time>
      </trkpt>
      <trkpt lat="42.84123" lon="1.83712">
        <ele>1849.904</ele>
        <time>2021-02-28T11:09:30Z</time>
      </trkpt>
      <trkpt lat="42.84122" lon="1.83713">
        <ele>1850.032</ele>
        <time>2021-02-28T11:09:32Z</time>
      </trkpt>
      <trkpt lat="42.84122" lon="1.83713">
        <ele>1850.28</ele>
        <time>2021-02-28T11:09:34Z</time>
      </trkpt>
      <trkpt lat="42.84122" lon="1.83714">
        <ele>1850.365</ele>
        <time>2021-02-28T11:09:36Z</time>
      </trkpt>
      <trkpt lat="42.84122" lon="1.83715">
        <ele>1850.683</ele>
        <time>2021-02-28T11:09:38Z</time>
      </trkpt>
      <trkpt lat="42.84122" lon="1.83716">
        <ele>1850.651</ele>
        <time>2021-02-28T11:09:40Z</time>
      </trkpt>
      <trkpt lat="42.84122" lon="1.83717">
        <ele>1850.925</ele>
        <time>2021-02-28T11:09:42Z</time>
      </trkpt>
      <trkpt lat="42.84122" lon="1.83718">
        <ele>1851.113</ele>
        <time>2021-02-28T11:09:44Z</time>
      </trkpt>
      <trkpt lat="42.84121" lon="1.83718">
        <ele>1850.988</ele>
        <time>2021-02-28T11:09:46Z</time>
      </trkpt>
      <trkpt lat="42.84121" lon="1.83718">
        <ele>1850.985</ele>
        <time>2021-02-28T11:09:48Z</time>
      </trkpt>
      <trkpt lat="42.8412" lon="1.83719">
        <ele>1851.436</ele>
        <time>2021-02-28T11:09:50Z</time>
      </trkpt>
      <trkpt lat="42.8412" lon="1.8372">
        <ele>1851.795</ele>
        <time>2021-02-28T11:09:52Z</time>
      </trkpt>
      <trkpt lat="42.8412" lon="1.83721">
        <ele>1852.195</ele>
        <time>2021-02-28T11:09:54Z</time>
      </trkpt>
      <trkpt lat="42.84119" lon="1.83721">
        <ele>1852.712</ele>
        <time>2021-02-28T11:09:56Z</time>
      </trkpt>
      <trkpt lat="42.84119" lon="1.83722">
        <ele>1853.154</ele>
        <time>2021-02-28T11:09:58Z</time>
      </trkpt>
      <trkpt lat="42.84119" lon="1.83723">
        <ele>1853.629</ele>
        <time>2021-02-28T11:10:00Z</time>
      </trkpt>
      <trkpt lat="42.84118" lon="1.83724">
        <ele>1853.689</ele>
        <time>2021-02-28T11:10:02Z</time>
      </trkpt>
      <trkpt lat="42.84118" lon="1.83725">
        <ele>1854.284</ele>
        <time>2021-02-28T11:10:04Z</time>
      </trkpt>
      <trkpt lat="42.84117" lon="1.83726">
        <ele>1854.52</ele>
        <time>2021-02-28T11:10:06Z</time>
      </trkpt>
      <trkpt lat="42.84116" lon="1.83726">
        <ele>1854.323</ele>
        <time>2021-02-28T11:10:08Z</time>
      </trkpt>
      <trkpt lat="42.84115" lon="1.83726">
        <ele>1854.398</ele>
        <time>2021-02-28T11:10:10Z</time>
      </trkpt>
      <trkpt lat="42.84115" lon="1.83726">
        <ele>1854.929</ele>
        <time>2021-02-28T11:10:12Z</time>
      </trkpt>
      <trkpt lat="42.84113" lon="1.83726">
        <ele>1854.995</ele>
        <time>2021-02-28T11:10:14Z</time>
      </trkpt>
      <trkpt lat="42.84112" lon="1.83726">
        <ele>1855.231</ele>
        <time>2021-02-28T11:10:16Z</time>
      </trkpt>
      <trkpt lat="42.84111" lon="1.83726">
        <ele>1855.363</ele>
        <time>2021-02-28T11:10:18Z</time>
      </trkpt>
      <trkpt lat="42.84111" lon="1.83727">
        <ele>1855.533</ele>
        <time>2021-02-28T11:10:20Z</time>
      </trkpt>
      <trkpt lat="42.8411" lon="1.83728">
        <ele>1855.425</ele>
        <time>2021-02-28T11:10:22Z</time>
      </trkpt>
      <trkpt lat="42.8411" lon="1.83729">
        <ele>1856.432</ele>
        <time>2021-02-28T11:10:24Z</time>
      </trkpt>
      <trkpt lat="42.84111" lon="1.83731">
        <ele>1856.389</ele>
        <time>2021-02-28T11:10:26Z</time>
      </trkpt>
      <trkpt lat="42.84111" lon="1.83731">
        <ele>1856.497</ele>
        <time>2021-02-28T11:10:28Z</time>
      </trkpt>
      <trkpt lat="42.84112" lon="1.83733">
        <ele>1856.178</ele>
        <time>2021-02-28T11:10:30Z</time>
      </trkpt>
      <trkpt lat="42.84112" lon="1.83735">
        <ele>1856.701</ele>
        <time>2021-02-28T11:10:32Z</time>
      </trkpt>
      <trkpt lat="42.84111" lon="1.83737">
        <ele>1856.722</ele>
        <time>2021-02-28T11:10:34Z</time>
      </trkpt>
      <trkpt lat="42.84111" lon="1.83737">
        <ele>1856.668</ele>
        <time>2021-02-28T11:10:36Z</time>
      </trkpt>
      <trkpt lat="42.8411" lon="1.83736">
        <ele>1856.747</ele>
        <time>2021-02-28T11:10:38Z</time>
      </trkpt>
      <trkpt lat="42.8411" lon="1.83736">
        <ele>1856.746</ele>
        <time>2021-02-28T11:10:40Z</time>
      </trkpt>
      <trkpt lat="42.84109" lon="1.83736">
        <ele>1857.007</ele>
        <time>2021-02-28T11:10:42Z</time>
      </trkpt>
      <trkpt lat="42.84107" lon="1.83738">
        <ele>1857.095</ele>
        <time>2021-02-28T11:10:44Z</time>
      </trkpt>
      <trkpt lat="42.84107" lon="1.8374">
        <ele>1858.383</ele>
        <time>2021-02-28T11:10:46Z</time>
      </trkpt>
      <trkpt lat="42.84107" lon="1.83739">
        <ele>1858.079</ele>
        <time>2021-02-28T11:10:48Z</time>
      </trkpt>
      <trkpt lat="42.84107" lon="1.83739">
        <ele>1858.713</ele>
        <time>2021-02-28T11:10:49Z</time>
      </trkpt>
      <trkpt lat="42.84107" lon="1.83739">
        <ele>1859.155</ele>
        <time>2021-02-28T11:10:52Z</time>
      </trkpt>
      <trkpt lat="42.84108" lon="1.83741">
        <ele>1860</ele>
        <time>2021-02-28T11:10:54Z</time>
      </trkpt>
      <trkpt lat="42.84109" lon="1.83741">
        <ele>1859.527</ele>
        <time>2021-02-28T11:10:56Z</time>
      </trkpt>
      <trkpt lat="42.84109" lon="1.83741">
        <ele>1859.826</ele>
        <time>2021-02-28T11:10:58Z</time>
      </trkpt>
      <trkpt lat="42.8411" lon="1.83741">
        <ele>1859.774</ele>
        <time>2021-02-28T11:11:00Z</time>
      </trkpt>
      <trkpt lat="42.84111" lon="1.83742">
        <ele>1859.082</ele>
        <time>2021-02-28T11:11:02Z</time>
      </trkpt>
      <trkpt lat="42.84111" lon="1.83743">
        <ele>1860.267</ele>
        <time>2021-02-28T11:11:04Z</time>
      </trkpt>
      <trkpt lat="42.84111" lon="1.83743">
        <ele>1860.467</ele>
        <time>2021-02-28T11:11:05Z</time>
      </trkpt>
      <trkpt lat="42.84111" lon="1.83743">
        <ele>1860.762</ele>
        <time>2021-02-28T11:11:08Z</time>
      </trkpt>
      <trkpt lat="42.84111" lon="1.83744">
        <ele>1860.7</ele>
        <time>2021-02-28T11:11:10Z</time>
      </trkpt>
      <trkpt lat="42.84109" lon="1.83744">
        <ele>1861.07</ele>
        <time>2021-02-28T11:11:12Z</time>
      </trkpt>
      <trkpt lat="42.84109" lon="1.83745">
        <ele>1861.741</ele>
        <time>2021-02-28T11:11:14Z</time>
      </trkpt>
      <trkpt lat="42.84109" lon="1.83746">
        <ele>1862.036</ele>
        <time>2021-02-28T11:11:16Z</time>
      </trkpt>
      <trkpt lat="42.84109" lon="1.83746">
        <ele>1862.32</ele>
        <time>2021-02-28T11:11:18Z</time>
      </trkpt>
      <trkpt lat="42.84108" lon="1.83746">
        <ele>1861.942</ele>
        <time>2021-02-28T11:11:20Z</time>
      </trkpt>
      <trkpt lat="42.84107" lon="1.83748">
        <ele>1861.638</ele>
        <time>2021-02-28T11:11:22Z</time>
      </trkpt>
      <trkpt lat="42.84107" lon="1.83748">
        <ele>1862.153</ele>
        <time>2021-02-28T11:11:24Z</time>
      </trkpt>
      <trkpt lat="42.84106" lon="1.83749">
        <ele>1862.129</ele>
        <time>2021-02-28T11:11:26Z</time>
      </trkpt>
      <trkpt lat="42.84106" lon="1.83749">
        <ele>1861.905</ele>
        <time>2021-02-28T11:11:28Z</time>
      </trkpt>
      <trkpt lat="42.84106" lon="1.83749">
        <ele>1862.85</ele>
        <time>2021-02-28T11:11:30Z</time>
      </trkpt>
      <trkpt lat="42.84106" lon="1.83749">
        <ele>1863.011</ele>
        <time>2021-02-28T11:11:32Z</time>
      </trkpt>
      <trkpt lat="42.84106" lon="1.8375">
        <ele>1863.173</ele>
        <time>2021-02-28T11:11:34Z</time>
      </trkpt>
      <trkpt lat="42.84106" lon="1.8375">
        <ele>1863.358</ele>
        <time>2021-02-28T11:11:36Z</time>
      </trkpt>
      <trkpt lat="42.84106" lon="1.83751">
        <ele>1864.09</ele>
        <time>2021-02-28T11:11:38Z</time>
      </trkpt>
      <trkpt lat="42.84105" lon="1.83751">
        <ele>1864.362</ele>
        <time>2021-02-28T11:11:40Z</time>
      </trkpt>
      <trkpt lat="42.84105" lon="1.83751">
        <ele>1864.856</ele>
        <time>2021-02-28T11:11:42Z</time>
      </trkpt>
      <trkpt lat="42.84103" lon="1.83752">
        <ele>1865.083</ele>
        <time>2021-02-28T11:11:44Z</time>
      </trkpt>
      <trkpt lat="42.84102" lon="1.83752">
        <ele>1865.317</ele>
        <time>2021-02-28T11:11:46Z</time>
      </trkpt>
      <trkpt lat="42.84103" lon="1.83752">
        <ele>1865.287</ele>
        <time>2021-02-28T11:11:48Z</time>
      </trkpt>
      <trkpt lat="42.84102" lon="1.83752">
        <ele>1865.266</ele>
        <time>2021-02-28T11:11:50Z</time>
      </trkpt>
      <trkpt lat="42.84102" lon="1.83752">
        <ele>1865.272</ele>
        <time>2021-02-28T11:11:52Z</time>
      </trkpt>
      <trkpt lat="42.84102" lon="1.83753">
        <ele>1865.903</ele>
        <time>2021-02-28T11:11:54Z</time>
      </trkpt>
      <trkpt lat="42.84102" lon="1.83753">
        <ele>1866.452</ele>
        <time>2021-02-28T11:11:56Z</time>
      </trkpt>
      <trkpt lat="42.841" lon="1.83754">
        <ele>1866.354</ele>
        <time>2021-02-28T11:11:58Z</time>
      </trkpt>
      <trkpt lat="42.84099" lon="1.83755">
        <ele>1866.398</ele>
        <time>2021-02-28T11:12:00Z</time>
      </trkpt>
      <trkpt lat="42.84099" lon="1.83756">
        <ele>1866.4</ele>
        <time>2021-02-28T11:12:02Z</time>
      </trkpt>
      <trkpt lat="42.84099" lon="1.83756">
        <ele>1866.401</ele>
        <time>2021-02-28T11:12:04Z</time>
      </trkpt>
      <trkpt lat="42.84099" lon="1.83756">
        <ele>1866.399</ele>
        <time>2021-02-28T11:12:06Z</time>
      </trkpt>
      <trkpt lat="42.84099" lon="1.83756">
        <ele>1866.446</ele>
        <time>2021-02-28T11:12:08Z</time>
      </trkpt>
      <trkpt lat="42.84098" lon="1.83756">
        <ele>1866.689</ele>
        <time>2021-02-28T11:12:10Z</time>
      </trkpt>
      <trkpt lat="42.84097" lon="1.83757">
        <ele>1867.263</ele>
        <time>2021-02-28T11:12:12Z</time>
      </trkpt>
      <trkpt lat="42.84098" lon="1.83757">
        <ele>1867.463</ele>
        <time>2021-02-28T11:12:14Z</time>
      </trkpt>
      <trkpt lat="42.84098" lon="1.83758">
        <ele>1868.138</ele>
        <time>2021-02-28T11:12:16Z</time>
      </trkpt>
      <trkpt lat="42.84098" lon="1.83759">
        <ele>1868.626</ele>
        <time>2021-02-28T11:12:18Z</time>
      </trkpt>
      <trkpt lat="42.84097" lon="1.83759">
        <ele>1869.456</ele>
        <time>2021-02-28T11:12:20Z</time>
      </trkpt>
      <trkpt lat="42.84097" lon="1.8376">
        <ele>1869.754</ele>
        <time>2021-02-28T11:12:22Z</time>
      </trkpt>
      <trkpt lat="42.84096" lon="1.83761">
        <ele>1869.94</ele>
        <time>2021-02-28T11:12:24Z</time>
      </trkpt>
      <trkpt lat="42.84096" lon="1.83762">
        <ele>1870.184</ele>
        <time>2021-02-28T11:12:26Z</time>
      </trkpt>
      <trkpt lat="42.84095" lon="1.83762">
        <ele>1870.253</ele>
        <time>2021-02-28T11:12:28Z</time>
      </trkpt>
      <trkpt lat="42.84094" lon="1.83763">
        <ele>1870.745</ele>
        <time>2021-02-28T11:12:30Z</time>
      </trkpt>
      <trkpt lat="42.84094" lon="1.83764">
        <ele>1871.425</ele>
        <time>2021-02-28T11:12:32Z</time>
      </trkpt>
      <trkpt lat="42.84093" lon="1.83764">
        <ele>1871.828</ele>
        <time>2021-02-28T11:12:34Z</time>
      </trkpt>
      <trkpt lat="42.84092" lon="1.83765">
        <ele>1872.567</ele>
        <time>2021-02-28T11:12:36Z</time>
      </trkpt>
      <trkpt lat="42.84091" lon="1.83766">
        <ele>1873.255</ele>
        <time>2021-02-28T11:12:38Z</time>
      </trkpt>
      <trkpt lat="42.84091" lon="1.83767">
        <ele>1873.92</ele>
        <time>2021-02-28T11:12:40Z</time>
      </trkpt>
      <trkpt lat="42.84091" lon="1.83767">
        <ele>1873.464</ele>
        <time>2021-02-28T11:12:42Z</time>
      </trkpt>
      <trkpt lat="42.84091" lon="1.83768">
        <ele>1874.455</ele>
        <time>2021-02-28T11:12:44Z</time>
      </trkpt>
      <trkpt lat="42.84091" lon="1.83769">
        <ele>1874.32</ele>
        <time>2021-02-28T11:12:46Z</time>
      </trkpt>
      <trkpt lat="42.8409" lon="1.8377">
        <ele>1874.847</ele>
        <time>2021-02-28T11:12:48Z</time>
      </trkpt>
      <trkpt lat="42.8409" lon="1.8377">
        <ele>1874.861</ele>
        <time>2021-02-28T11:12:50Z</time>
      </trkpt>
      <trkpt lat="42.8409" lon="1.8377">
        <ele>1874.864</ele>
        <time>2021-02-28T11:12:52Z</time>
      </trkpt>
      <trkpt lat="42.8409" lon="1.8377">
        <ele>1874.868</ele>
        <time>2021-02-28T11:12:54Z</time>
      </trkpt>
      <trkpt lat="42.8409" lon="1.8377">
        <ele>1874.871</ele>
        <time>2021-02-28T11:12:56Z</time>
      </trkpt>
      <trkpt lat="42.8409" lon="1.83771">
        <ele>1875.479</ele>
        <time>2021-02-28T11:12:58Z</time>
      </trkpt>
      <trkpt lat="42.8409" lon="1.83771">
        <ele>1875.658</ele>
        <time>2021-02-28T11:13:00Z</time>
      </trkpt>
      <trkpt lat="42.84091" lon="1.83772">
        <ele>1876.206</ele>
        <time>2021-02-28T11:13:02Z</time>
      </trkpt>
      <trkpt lat="42.84091" lon="1.83771">
        <ele>1876.203</ele>
        <time>2021-02-28T11:13:04Z</time>
      </trkpt>
      <trkpt lat="42.8409" lon="1.83772">
        <ele>1876.368</ele>
        <time>2021-02-28T11:13:06Z</time>
      </trkpt>
      <trkpt lat="42.8409" lon="1.83772">
        <ele>1876.243</ele>
        <time>2021-02-28T11:13:08Z</time>
      </trkpt>
      <trkpt lat="42.8409" lon="1.83772">
        <ele>1876.245</ele>
        <time>2021-02-28T11:13:10Z</time>
      </trkpt>
      <trkpt lat="42.8409" lon="1.83772">
        <ele>1876.52</ele>
        <time>2021-02-28T11:13:12Z</time>
      </trkpt>
      <trkpt lat="42.84091" lon="1.83772">
        <ele>1876.447</ele>
        <time>2021-02-28T11:13:14Z</time>
      </trkpt>
      <trkpt lat="42.8409" lon="1.83772">
        <ele>1876.82</ele>
        <time>2021-02-28T11:13:16Z</time>
      </trkpt>
      <trkpt lat="42.8409" lon="1.83772">
        <ele>1876.848</ele>
        <time>2021-02-28T11:13:18Z</time>
      </trkpt>
      <trkpt lat="42.8409" lon="1.83772">
        <ele>1876.855</ele>
        <time>2021-02-28T11:13:20Z</time>
      </trkpt>
      <trkpt lat="42.8409" lon="1.83772">
        <ele>1876.781</ele>
        <time>2021-02-28T11:13:22Z</time>
      </trkpt>
      <trkpt lat="42.8409" lon="1.83773">
        <ele>1877</ele>
        <time>2021-02-28T11:13:24Z</time>
      </trkpt>
      <trkpt lat="42.8409" lon="1.83773">
        <ele>1876.654</ele>
        <time>2021-02-28T11:13:26Z</time>
      </trkpt>
      <trkpt lat="42.8409" lon="1.83773">
        <ele>1876.374</ele>
        <time>2021-02-28T11:13:28Z</time>
      </trkpt>
      <trkpt lat="42.8409" lon="1.83773">
        <ele>1876.361</ele>
        <time>2021-02-28T11:13:30Z</time>
      </trkpt>
      <trkpt lat="42.8409" lon="1.83773">
        <ele>1876.36</ele>
        <time>2021-02-28T11:13:32Z</time>
      </trkpt>
      <trkpt lat="42.8409" lon="1.83773">
        <ele>1876.346</ele>
        <time>2021-02-28T11:13:34Z</time>
      </trkpt>
      <trkpt lat="42.8409" lon="1.83773">
        <ele>1876.344</ele>
        <time>2021-02-28T11:13:36Z</time>
      </trkpt>
      <trkpt lat="42.8409" lon="1.83773">
        <ele>1876.343</ele>
        <time>2021-02-28T11:13:38Z</time>
      </trkpt>
      <trkpt lat="42.8409" lon="1.83773">
        <ele>1876.347</ele>
        <time>2021-02-28T11:13:40Z</time>
      </trkpt>
      <trkpt lat="42.8409" lon="1.83773">
        <ele>1876.178</ele>
        <time>2021-02-28T11:13:42Z</time>
      </trkpt>
      <trkpt lat="42.8409" lon="1.83773">
        <ele>1876.652</ele>
        <time>2021-02-28T11:13:44Z</time>
      </trkpt>
      <trkpt lat="42.8409" lon="1.83774">
        <ele>1877.233</ele>
        <time>2021-02-28T11:13:46Z</time>
      </trkpt>
      <trkpt lat="42.8409" lon="1.83775">
        <ele>1877.774</ele>
        <time>2021-02-28T11:13:48Z</time>
      </trkpt>
      <trkpt lat="42.84091" lon="1.83776">
        <ele>1878.658</ele>
        <time>2021-02-28T11:13:50Z</time>
      </trkpt>
      <trkpt lat="42.8409" lon="1.83778">
        <ele>1878.861</ele>
        <time>2021-02-28T11:13:52Z</time>
      </trkpt>
      <trkpt lat="42.8409" lon="1.83779">
        <ele>1878.743</ele>
        <time>2021-02-28T11:13:54Z</time>
      </trkpt>
      <trkpt lat="42.84091" lon="1.8378">
        <ele>1879.338</ele>
        <time>2021-02-28T11:13:56Z</time>
      </trkpt>
      <trkpt lat="42.84091" lon="1.83782">
        <ele>1879.419</ele>
        <time>2021-02-28T11:13:58Z</time>
      </trkpt>
      <trkpt lat="42.84091" lon="1.83782">
        <ele>1879.608</ele>
        <time>2021-02-28T11:14:00Z</time>
      </trkpt>
      <trkpt lat="42.8409" lon="1.83783">
        <ele>1880.218</ele>
        <time>2021-02-28T11:14:02Z</time>
      </trkpt>
      <trkpt lat="42.8409" lon="1.83785">
        <ele>1879.957</ele>
        <time>2021-02-28T11:14:04Z</time>
      </trkpt>
      <trkpt lat="42.84089" lon="1.83786">
        <ele>1880.325</ele>
        <time>2021-02-28T11:14:06Z</time>
      </trkpt>
      <trkpt lat="42.84089" lon="1.83787">
        <ele>1881.128</ele>
        <time>2021-02-28T11:14:08Z</time>
      </trkpt>
      <trkpt lat="42.84089" lon="1.83789">
        <ele>1881.334</ele>
        <time>2021-02-28T11:14:10Z</time>
      </trkpt>
      <trkpt lat="42.84088" lon="1.8379">
        <ele>1881.741</ele>
        <time>2021-02-28T11:14:12Z</time>
      </trkpt>
      <trkpt lat="42.84087" lon="1.8379">
        <ele>1881.536</ele>
        <time>2021-02-28T11:14:14Z</time>
      </trkpt>
      <trkpt lat="42.84087" lon="1.8379">
        <ele>1881.558</ele>
        <time>2021-02-28T11:14:16Z</time>
      </trkpt>
      <trkpt lat="42.84086" lon="1.8379">
        <ele>1881.793</ele>
        <time>2021-02-28T11:14:18Z</time>
      </trkpt>
      <trkpt lat="42.84085" lon="1.83791">
        <ele>1881.933</ele>
        <time>2021-02-28T11:14:20Z</time>
      </trkpt>
      <trkpt lat="42.84085" lon="1.83792">
        <ele>1882.352</ele>
        <time>2021-02-28T11:14:22Z</time>
      </trkpt>
      <trkpt lat="42.84084" lon="1.83792">
        <ele>1882.642</ele>
        <time>2021-02-28T11:14:24Z</time>
      </trkpt>
      <trkpt lat="42.84084" lon="1.83793">
        <ele>1882.529</ele>
        <time>2021-02-28T11:14:26Z</time>
      </trkpt>
      <trkpt lat="42.84083" lon="1.83794">
        <ele>1882.91</ele>
        <time>2021-02-28T11:14:28Z</time>
      </trkpt>
      <trkpt lat="42.84082" lon="1.83794">
        <ele>1883.093</ele>
        <time>2021-02-28T11:14:30Z</time>
      </trkpt>
      <trkpt lat="42.84082" lon="1.83795">
        <ele>1883.21</ele>
        <time>2021-02-28T11:14:32Z</time>
      </trkpt>
      <trkpt lat="42.84081" lon="1.83796">
        <ele>1883.482</ele>
        <time>2021-02-28T11:14:34Z</time>
      </trkpt>
      <trkpt lat="42.84081" lon="1.83797">
        <ele>1883.832</ele>
        <time>2021-02-28T11:14:36Z</time>
      </trkpt>
      <trkpt lat="42.8408" lon="1.83798">
        <ele>1884.456</ele>
        <time>2021-02-28T11:14:38Z</time>
      </trkpt>
      <trkpt lat="42.84079" lon="1.83799">
        <ele>1884.558</ele>
        <time>2021-02-28T11:14:40Z</time>
      </trkpt>
      <trkpt lat="42.84079" lon="1.838">
        <ele>1885.06</ele>
        <time>2021-02-28T11:14:42Z</time>
      </trkpt>
      <trkpt lat="42.84079" lon="1.83801">
        <ele>1885.069</ele>
        <time>2021-02-28T11:14:44Z</time>
      </trkpt>
      <trkpt lat="42.84079" lon="1.83803">
        <ele>1885.087</ele>
        <time>2021-02-28T11:14:46Z</time>
      </trkpt>
      <trkpt lat="42.84079" lon="1.83804">
        <ele>1886.093</ele>
        <time>2021-02-28T11:14:48Z</time>
      </trkpt>
      <trkpt lat="42.84079" lon="1.83805">
        <ele>1886.547</ele>
        <time>2021-02-28T11:14:50Z</time>
      </trkpt>
      <trkpt lat="42.84079" lon="1.83806">
        <ele>1885.97</ele>
        <time>2021-02-28T11:14:52Z</time>
      </trkpt>
      <trkpt lat="42.8408" lon="1.83806">
        <ele>1886.564</ele>
        <time>2021-02-28T11:14:54Z</time>
      </trkpt>
      <trkpt lat="42.8408" lon="1.83807">
        <ele>1886.54</ele>
        <time>2021-02-28T11:14:56Z</time>
      </trkpt>
      <trkpt lat="42.84079" lon="1.83807">
        <ele>1886.64</ele>
        <time>2021-02-28T11:14:58Z</time>
      </trkpt>
      <trkpt lat="42.84078" lon="1.83808">
        <ele>1887.206</ele>
        <time>2021-02-28T11:15:00Z</time>
      </trkpt>
      <trkpt lat="42.84077" lon="1.83808">
        <ele>1887.538</ele>
        <time>2021-02-28T11:15:02Z</time>
      </trkpt>
      <trkpt lat="42.84075" lon="1.83809">
        <ele>1887.406</ele>
        <time>2021-02-28T11:15:04Z</time>
      </trkpt>
      <trkpt lat="42.84074" lon="1.8381">
        <ele>1888.07</ele>
        <time>2021-02-28T11:15:06Z</time>
      </trkpt>
      <trkpt lat="42.84073" lon="1.8381">
        <ele>1888.489</ele>
        <time>2021-02-28T11:15:08Z</time>
      </trkpt>
      <trkpt lat="42.84072" lon="1.8381">
        <ele>1888.8</ele>
        <time>2021-02-28T11:15:10Z</time>
      </trkpt>
      <trkpt lat="42.84071" lon="1.8381">
        <ele>1888.568</ele>
        <time>2021-02-28T11:15:12Z</time>
      </trkpt>
      <trkpt lat="42.8407" lon="1.8381">
        <ele>1889.08</ele>
        <time>2021-02-28T11:15:14Z</time>
      </trkpt>
      <trkpt lat="42.84069" lon="1.83809">
        <ele>1889.258</ele>
        <time>2021-02-28T11:15:16Z</time>
      </trkpt>
      <trkpt lat="42.84068" lon="1.8381">
        <ele>1889.647</ele>
        <time>2021-02-28T11:15:18Z</time>
      </trkpt>
      <trkpt lat="42.84068" lon="1.8381">
        <ele>1889.87</ele>
        <time>2021-02-28T11:15:20Z</time>
      </trkpt>
      <trkpt lat="42.84067" lon="1.83811">
        <ele>1890.206</ele>
        <time>2021-02-28T11:15:22Z</time>
      </trkpt>
      <trkpt lat="42.84066" lon="1.83811">
        <ele>1890.568</ele>
        <time>2021-02-28T11:15:24Z</time>
      </trkpt>
      <trkpt lat="42.84065" lon="1.83811">
        <ele>1891.105</ele>
        <time>2021-02-28T11:15:26Z</time>
      </trkpt>
      <trkpt lat="42.84065" lon="1.83812">
        <ele>1891.417</ele>
        <time>2021-02-28T11:15:28Z</time>
      </trkpt>
      <trkpt lat="42.84065" lon="1.83813">
        <ele>1891.8</ele>
        <time>2021-02-28T11:15:30Z</time>
      </trkpt>
      <trkpt lat="42.84064" lon="1.83815">
        <ele>1891.965</ele>
        <time>2021-02-28T11:15:32Z</time>
      </trkpt>
      <trkpt lat="42.84065" lon="1.83816">
        <ele>1892.647</ele>
        <time>2021-02-28T11:15:34Z</time>
      </trkpt>
      <trkpt lat="42.84065" lon="1.83817">
        <ele>1892.834</ele>
        <time>2021-02-28T11:15:36Z</time>
      </trkpt>
      <trkpt lat="42.84065" lon="1.83818">
        <ele>1893.253</ele>
        <time>2021-02-28T11:15:38Z</time>
      </trkpt>
      <trkpt lat="42.84065" lon="1.83819">
        <ele>1893.822</ele>
        <time>2021-02-28T11:15:40Z</time>
      </trkpt>
      <trkpt lat="42.84065" lon="1.8382">
        <ele>1894.085</ele>
        <time>2021-02-28T11:15:42Z</time>
      </trkpt>
      <trkpt lat="42.84064" lon="1.83821">
        <ele>1894.742</ele>
        <time>2021-02-28T11:15:44Z</time>
      </trkpt>
      <trkpt lat="42.84063" lon="1.83821">
        <ele>1895.151</ele>
        <time>2021-02-28T11:15:46Z</time>
      </trkpt>
      <trkpt lat="42.84062" lon="1.83821">
        <ele>1895.151</ele>
        <time>2021-02-28T11:15:48Z</time>
      </trkpt>
      <trkpt lat="42.84062" lon="1.83822">
        <ele>1895.264</ele>
        <time>2021-02-28T11:15:50Z</time>
      </trkpt>
      <trkpt lat="42.84061" lon="1.83823">
        <ele>1895.194</ele>
        <time>2021-02-28T11:15:52Z</time>
      </trkpt>
      <trkpt lat="42.84061" lon="1.83824">
        <ele>1895.434</ele>
        <time>2021-02-28T11:15:54Z</time>
      </trkpt>
      <trkpt lat="42.8406" lon="1.83825">
        <ele>1895.608</ele>
        <time>2021-02-28T11:15:56Z</time>
      </trkpt>
      <trkpt lat="42.84059" lon="1.83826">
        <ele>1895.638</ele>
        <time>2021-02-28T11:15:58Z</time>
      </trkpt>
      <trkpt lat="42.84058" lon="1.83826">
        <ele>1896.338</ele>
        <time>2021-02-28T11:16:00Z</time>
      </trkpt>
      <trkpt lat="42.84058" lon="1.83827">
        <ele>1896.967</ele>
        <time>2021-02-28T11:16:02Z</time>
      </trkpt>
      <trkpt lat="42.84058" lon="1.83828">
        <ele>1897.282</ele>
        <time>2021-02-28T11:16:04Z</time>
      </trkpt>
      <trkpt lat="42.84057" lon="1.83829">
        <ele>1898.057</ele>
        <time>2021-02-28T11:16:06Z</time>
      </trkpt>
      <trkpt lat="42.84056" lon="1.83829">
        <ele>1898.116</ele>
        <time>2021-02-28T11:16:08Z</time>
      </trkpt>
      <trkpt lat="42.84055" lon="1.83829">
        <ele>1898.244</ele>
        <time>2021-02-28T11:16:10Z</time>
      </trkpt>
      <trkpt lat="42.84055" lon="1.8383">
        <ele>1898.517</ele>
        <time>2021-02-28T11:16:12Z</time>
      </trkpt>
      <trkpt lat="42.84054" lon="1.8383">
        <ele>1898.493</ele>
        <time>2021-02-28T11:16:14Z</time>
      </trkpt>
      <trkpt lat="42.84053" lon="1.8383">
        <ele>1898.499</ele>
        <time>2021-02-28T11:16:16Z</time>
      </trkpt>
      <trkpt lat="42.84052" lon="1.83831">
        <ele>1898.818</ele>
        <time>2021-02-28T11:16:18Z</time>
      </trkpt>
      <trkpt lat="42.84051" lon="1.83831">
        <ele>1898.966</ele>
        <time>2021-02-28T11:16:20Z</time>
      </trkpt>
      <trkpt lat="42.8405" lon="1.83831">
        <ele>1899.351</ele>
        <time>2021-02-28T11:16:22Z</time>
      </trkpt>
      <trkpt lat="42.84049" lon="1.83832">
        <ele>1899.458</ele>
        <time>2021-02-28T11:16:24Z</time>
      </trkpt>
      <trkpt lat="42.84048" lon="1.83832">
        <ele>1899.818</ele>
        <time>2021-02-28T11:16:26Z</time>
      </trkpt>
      <trkpt lat="42.84047" lon="1.83833">
        <ele>1899.715</ele>
        <time>2021-02-28T11:16:28Z</time>
      </trkpt>
      <trkpt lat="42.84046" lon="1.83833">
        <ele>1900.021</ele>
        <time>2021-02-28T11:16:30Z</time>
      </trkpt>
      <trkpt lat="42.84045" lon="1.83834">
        <ele>1900.405</ele>
        <time>2021-02-28T11:16:32Z</time>
      </trkpt>
      <trkpt lat="42.84044" lon="1.83834">
        <ele>1900.663</ele>
        <time>2021-02-28T11:16:34Z</time>
      </trkpt>
      <trkpt lat="42.84043" lon="1.83835">
        <ele>1900.959</ele>
        <time>2021-02-28T11:16:36Z</time>
      </trkpt>
      <trkpt lat="42.84042" lon="1.83836">
        <ele>1901.48</ele>
        <time>2021-02-28T11:16:38Z</time>
      </trkpt>
      <trkpt lat="42.84041" lon="1.83837">
        <ele>1901.745</ele>
        <time>2021-02-28T11:16:40Z</time>
      </trkpt>
      <trkpt lat="42.8404" lon="1.83837">
        <ele>1901.84</ele>
        <time>2021-02-28T11:16:42Z</time>
      </trkpt>
      <trkpt lat="42.8404" lon="1.83838">
        <ele>1901.629</ele>
        <time>2021-02-28T11:16:44Z</time>
      </trkpt>
      <trkpt lat="42.84039" lon="1.83839">
        <ele>1901.98</ele>
        <time>2021-02-28T11:16:46Z</time>
      </trkpt>
      <trkpt lat="42.84039" lon="1.8384">
        <ele>1902.197</ele>
        <time>2021-02-28T11:16:48Z</time>
      </trkpt>
      <trkpt lat="42.84038" lon="1.83841">
        <ele>1902.256</ele>
        <time>2021-02-28T11:16:50Z</time>
      </trkpt>
      <trkpt lat="42.84037" lon="1.83841">
        <ele>1902.357</ele>
        <time>2021-02-28T11:16:52Z</time>
      </trkpt>
      <trkpt lat="42.84036" lon="1.83842">
        <ele>1902.871</ele>
        <time>2021-02-28T11:16:54Z</time>
      </trkpt>
      <trkpt lat="42.84035" lon="1.83842">
        <ele>1903.267</ele>
        <time>2021-02-28T11:16:56Z</time>
      </trkpt>
      <trkpt lat="42.84034" lon="1.83842">
        <ele>1903.339</ele>
        <time>2021-02-28T11:16:58Z</time>
      </trkpt>
      <trkpt lat="42.84033" lon="1.83842">
        <ele>1904.025</ele>
        <time>2021-02-28T11:17:00Z</time>
      </trkpt>
      <trkpt lat="42.84032" lon="1.83843">
        <ele>1904.423</ele>
        <time>2021-02-28T11:17:02Z</time>
      </trkpt>
      <trkpt lat="42.84031" lon="1.83843">
        <ele>1904.943</ele>
        <time>2021-02-28T11:17:04Z</time>
      </trkpt>
      <trkpt lat="42.8403" lon="1.83844">
        <ele>1905.704</ele>
        <time>2021-02-28T11:17:06Z</time>
      </trkpt>
      <trkpt lat="42.84029" lon="1.83845">
        <ele>1906.115</ele>
        <time>2021-02-28T11:17:08Z</time>
      </trkpt>
      <trkpt lat="42.84027" lon="1.83845">
        <ele>1906.066</ele>
        <time>2021-02-28T11:17:10Z</time>
      </trkpt>
      <trkpt lat="42.84026" lon="1.83845">
        <ele>1906.466</ele>
        <time>2021-02-28T11:17:12Z</time>
      </trkpt>
      <trkpt lat="42.84025" lon="1.83845">
        <ele>1906.766</ele>
        <time>2021-02-28T11:17:14Z</time>
      </trkpt>
      <trkpt lat="42.84024" lon="1.83846">
        <ele>1907.412</ele>
        <time>2021-02-28T11:17:16Z</time>
      </trkpt>
      <trkpt lat="42.84022" lon="1.83846">
        <ele>1907.988</ele>
        <time>2021-02-28T11:17:18Z</time>
      </trkpt>
      <trkpt lat="42.84021" lon="1.83846">
        <ele>1908.243</ele>
        <time>2021-02-28T11:17:20Z</time>
      </trkpt>
      <trkpt lat="42.8402" lon="1.83846">
        <ele>1908.476</ele>
        <time>2021-02-28T11:17:22Z</time>
      </trkpt>
      <trkpt lat="42.84019" lon="1.83847">
        <ele>1908.703</ele>
        <time>2021-02-28T11:17:24Z</time>
      </trkpt>
      <trkpt lat="42.84018" lon="1.83847">
        <ele>1909.615</ele>
        <time>2021-02-28T11:17:26Z</time>
      </trkpt>
      <trkpt lat="42.84017" lon="1.83847">
        <ele>1909.926</ele>
        <time>2021-02-28T11:17:28Z</time>
      </trkpt>
      <trkpt lat="42.84016" lon="1.83848">
        <ele>1910.409</ele>
        <time>2021-02-28T11:17:30Z</time>
      </trkpt>
      <trkpt lat="42.84015" lon="1.83849">
        <ele>1910.917</ele>
        <time>2021-02-28T11:17:32Z</time>
      </trkpt>
      <trkpt lat="42.84014" lon="1.83851">
        <ele>1911.098</ele>
        <time>2021-02-28T11:17:34Z</time>
      </trkpt>
      <trkpt lat="42.84013" lon="1.83851">
        <ele>1911.58</ele>
        <time>2021-02-28T11:17:36Z</time>
      </trkpt>
      <trkpt lat="42.84013" lon="1.83852">
        <ele>1911.776</ele>
        <time>2021-02-28T11:17:38Z</time>
      </trkpt>
      <trkpt lat="42.84013" lon="1.83852">
        <ele>1911.794</ele>
        <time>2021-02-28T11:17:40Z</time>
      </trkpt>
      <trkpt lat="42.84013" lon="1.83852">
        <ele>1911.798</ele>
        <time>2021-02-28T11:17:42Z</time>
      </trkpt>
      <trkpt lat="42.84013" lon="1.83852">
        <ele>1911.801</ele>
        <time>2021-02-28T11:17:44Z</time>
      </trkpt>
      <trkpt lat="42.84013" lon="1.83852">
        <ele>1911.805</ele>
        <time>2021-02-28T11:17:46Z</time>
      </trkpt>
      <trkpt lat="42.84013" lon="1.83852">
        <ele>1911.809</ele>
        <time>2021-02-28T11:17:48Z</time>
      </trkpt>
      <trkpt lat="42.84013" lon="1.83852">
        <ele>1912.325</ele>
        <time>2021-02-28T11:17:50Z</time>
      </trkpt>
      <trkpt lat="42.84012" lon="1.83852">
        <ele>1912.532</ele>
        <time>2021-02-28T11:17:52Z</time>
      </trkpt>
      <trkpt lat="42.84011" lon="1.83852">
        <ele>1912.947</ele>
        <time>2021-02-28T11:17:54Z</time>
      </trkpt>
      <trkpt lat="42.84011" lon="1.83853">
        <ele>1912.944</ele>
        <time>2021-02-28T11:17:56Z</time>
      </trkpt>
      <trkpt lat="42.8401" lon="1.83854">
        <ele>1913.406</ele>
        <time>2021-02-28T11:17:58Z</time>
      </trkpt>
      <trkpt lat="42.8401" lon="1.83856">
        <ele>1913.858</ele>
        <time>2021-02-28T11:18:00Z</time>
      </trkpt>
      <trkpt lat="42.8401" lon="1.83858">
        <ele>1914.144</ele>
        <time>2021-02-28T11:18:02Z</time>
      </trkpt>
      <trkpt lat="42.8401" lon="1.83859">
        <ele>1914.707</ele>
        <time>2021-02-28T11:18:04Z</time>
      </trkpt>
      <trkpt lat="42.8401" lon="1.8386">
        <ele>1914.903</ele>
        <time>2021-02-28T11:18:06Z</time>
      </trkpt>
      <trkpt lat="42.84009" lon="1.83862">
        <ele>1915.387</ele>
        <time>2021-02-28T11:18:08Z</time>
      </trkpt>
      <trkpt lat="42.84008" lon="1.83862">
        <ele>1915.872</ele>
        <time>2021-02-28T11:18:10Z</time>
      </trkpt>
      <trkpt lat="42.84006" lon="1.83861">
        <ele>1916.448</ele>
        <time>2021-02-28T11:18:12Z</time>
      </trkpt>
      <trkpt lat="42.84005" lon="1.8386">
        <ele>1916.689</ele>
        <time>2021-02-28T11:18:14Z</time>
      </trkpt>
      <trkpt lat="42.84005" lon="1.83859">
        <ele>1916.852</ele>
        <time>2021-02-28T11:18:16Z</time>
      </trkpt>
      <trkpt lat="42.84003" lon="1.83861">
        <ele>1917.091</ele>
        <time>2021-02-28T11:18:18Z</time>
      </trkpt>
      <trkpt lat="42.84003" lon="1.83863">
        <ele>1917.488</ele>
        <time>2021-02-28T11:18:20Z</time>
      </trkpt>
      <trkpt lat="42.84002" lon="1.83864">
        <ele>1917.872</ele>
        <time>2021-02-28T11:18:22Z</time>
      </trkpt>
      <trkpt lat="42.84" lon="1.83865">
        <ele>1918.453</ele>
        <time>2021-02-28T11:18:24Z</time>
      </trkpt>
      <trkpt lat="42.84" lon="1.83866">
        <ele>1918.929</ele>
        <time>2021-02-28T11:18:26Z</time>
      </trkpt>
      <trkpt lat="42.83998" lon="1.83869">
        <ele>1919.645</ele>
        <time>2021-02-28T11:18:29Z</time>
      </trkpt>
      <trkpt lat="42.83998" lon="1.8387">
        <ele>1919.934</ele>
        <time>2021-02-28T11:18:31Z</time>
      </trkpt>
      <trkpt lat="42.83997" lon="1.83872">
        <ele>1919.944</ele>
        <time>2021-02-28T11:18:33Z</time>
      </trkpt>
      <trkpt lat="42.83996" lon="1.83873">
        <ele>1920.136</ele>
        <time>2021-02-28T11:18:35Z</time>
      </trkpt>
      <trkpt lat="42.83995" lon="1.83875">
        <ele>1920.247</ele>
        <time>2021-02-28T11:18:37Z</time>
      </trkpt>
      <trkpt lat="42.83995" lon="1.83878">
        <ele>1921.304</ele>
        <time>2021-02-28T11:18:39Z</time>
      </trkpt>
      <trkpt lat="42.83995" lon="1.8388">
        <ele>1922.017</ele>
        <time>2021-02-28T11:18:41Z</time>
      </trkpt>
      <trkpt lat="42.83995" lon="1.8388">
        <ele>1922.65</ele>
        <time>2021-02-28T11:18:43Z</time>
      </trkpt>
      <trkpt lat="42.83995" lon="1.83881">
        <ele>1922.938</ele>
        <time>2021-02-28T11:18:45Z</time>
      </trkpt>
      <trkpt lat="42.83995" lon="1.83882">
        <ele>1923.262</ele>
        <time>2021-02-28T11:18:47Z</time>
      </trkpt>
      <trkpt lat="42.83994" lon="1.83883">
        <ele>1923.027</ele>
        <time>2021-02-28T11:18:49Z</time>
      </trkpt>
      <trkpt lat="42.83994" lon="1.83885">
        <ele>1923.487</ele>
        <time>2021-02-28T11:18:51Z</time>
      </trkpt>
      <trkpt lat="42.83994" lon="1.83887">
        <ele>1923.623</ele>
        <time>2021-02-28T11:18:53Z</time>
      </trkpt>
      <trkpt lat="42.83994" lon="1.83888">
        <ele>1924.338</ele>
        <time>2021-02-28T11:18:55Z</time>
      </trkpt>
      <trkpt lat="42.83994" lon="1.83889">
        <ele>1924.535</ele>
        <time>2021-02-28T11:18:57Z</time>
      </trkpt>
      <trkpt lat="42.83993" lon="1.8389">
        <ele>1924.602</ele>
        <time>2021-02-28T11:18:59Z</time>
      </trkpt>
      <trkpt lat="42.83993" lon="1.8389">
        <ele>1924.308</ele>
        <time>2021-02-28T11:19:01Z</time>
      </trkpt>
      <trkpt lat="42.83993" lon="1.8389">
        <ele>1924.301</ele>
        <time>2021-02-28T11:19:03Z</time>
      </trkpt>
      <trkpt lat="42.83993" lon="1.8389">
        <ele>1924.295</ele>
        <time>2021-02-28T11:19:05Z</time>
      </trkpt>
      <trkpt lat="42.83991" lon="1.83888">
        <ele>1925.41</ele>
        <time>2021-02-28T11:19:07Z</time>
      </trkpt>
      <trkpt lat="42.8399" lon="1.8389">
        <ele>1925.641</ele>
        <time>2021-02-28T11:19:09Z</time>
      </trkpt>
      <trkpt lat="42.8399" lon="1.83892">
        <ele>1925.619</ele>
        <time>2021-02-28T11:19:11Z</time>
      </trkpt>
      <trkpt lat="42.83991" lon="1.83892">
        <ele>1925.622</ele>
        <time>2021-02-28T11:19:13Z</time>
      </trkpt>
      <trkpt lat="42.83991" lon="1.83892">
        <ele>1925.619</ele>
        <time>2021-02-28T11:19:15Z</time>
      </trkpt>
      <trkpt lat="42.83991" lon="1.83892">
        <ele>1925.622</ele>
        <time>2021-02-28T11:19:17Z</time>
      </trkpt>
      <trkpt lat="42.83991" lon="1.83892">
        <ele>1925.622</ele>
        <time>2021-02-28T11:19:19Z</time>
      </trkpt>
      <trkpt lat="42.83991" lon="1.83892">
        <ele>1925.623</ele>
        <time>2021-02-28T11:19:21Z</time>
      </trkpt>
      <trkpt lat="42.83991" lon="1.83892">
        <ele>1925.624</ele>
        <time>2021-02-28T11:19:23Z</time>
      </trkpt>
      <trkpt lat="42.83991" lon="1.83892">
        <ele>1925.626</ele>
        <time>2021-02-28T11:19:25Z</time>
      </trkpt>
      <trkpt lat="42.83991" lon="1.83892">
        <ele>1925.625</ele>
        <time>2021-02-28T11:19:27Z</time>
      </trkpt>
      <trkpt lat="42.8399" lon="1.83892">
        <ele>1925.842</ele>
        <time>2021-02-28T11:19:29Z</time>
      </trkpt>
      <trkpt lat="42.8399" lon="1.83892">
        <ele>1925.839</ele>
        <time>2021-02-28T11:19:31Z</time>
      </trkpt>
      <trkpt lat="42.8399" lon="1.83892">
        <ele>1925.569</ele>
        <time>2021-02-28T11:19:33Z</time>
      </trkpt>
      <trkpt lat="42.8399" lon="1.83892">
        <ele>1925.557</ele>
        <time>2021-02-28T11:19:35Z</time>
      </trkpt>
      <trkpt lat="42.8399" lon="1.83892">
        <ele>1925.368</ele>
        <time>2021-02-28T11:19:37Z</time>
      </trkpt>
      <trkpt lat="42.83991" lon="1.83892">
        <ele>1925.123</ele>
        <time>2021-02-28T11:19:39Z</time>
      </trkpt>
      <trkpt lat="42.83991" lon="1.83892">
        <ele>1925.059</ele>
        <time>2021-02-28T11:19:41Z</time>
      </trkpt>
      <trkpt lat="42.83991" lon="1.83892">
        <ele>1925.058</ele>
        <time>2021-02-28T11:19:43Z</time>
      </trkpt>
      <trkpt lat="42.83991" lon="1.83892">
        <ele>1925.058</ele>
        <time>2021-02-28T11:19:45Z</time>
      </trkpt>
      <trkpt lat="42.83991" lon="1.83892">
        <ele>1925.058</ele>
        <time>2021-02-28T11:19:47Z</time>
      </trkpt>
      <trkpt lat="42.83991" lon="1.83892">
        <ele>1925.059</ele>
        <time>2021-02-28T11:19:49Z</time>
      </trkpt>
      <trkpt lat="42.83991" lon="1.83892">
        <ele>1925.057</ele>
        <time>2021-02-28T11:19:51Z</time>
      </trkpt>
      <trkpt lat="42.8399" lon="1.83893">
        <ele>1925.022</ele>
        <time>2021-02-28T11:19:53Z</time>
      </trkpt>
      <trkpt lat="42.83989" lon="1.83895">
        <ele>1924.709</ele>
        <time>2021-02-28T11:19:55Z</time>
      </trkpt>
      <trkpt lat="42.83988" lon="1.83896">
        <ele>1924.297</ele>
        <time>2021-02-28T11:19:57Z</time>
      </trkpt>
      <trkpt lat="42.83988" lon="1.83895">
        <ele>1924.343</ele>
        <time>2021-02-28T11:19:59Z</time>
      </trkpt>
      <trkpt lat="42.83989" lon="1.83894">
        <ele>1924.352</ele>
        <time>2021-02-28T11:20:01Z</time>
      </trkpt>
      <trkpt lat="42.83989" lon="1.83894">
        <ele>1923.877</ele>
        <time>2021-02-28T11:20:03Z</time>
      </trkpt>
      <trkpt lat="42.83989" lon="1.83894">
        <ele>1923.724</ele>
        <time>2021-02-28T11:20:05Z</time>
      </trkpt>
      <trkpt lat="42.83989" lon="1.83893">
        <ele>1923.842</ele>
        <time>2021-02-28T11:20:07Z</time>
      </trkpt>
      <trkpt lat="42.8399" lon="1.83892">
        <ele>1924.251</ele>
        <time>2021-02-28T11:20:09Z</time>
      </trkpt>
      <trkpt lat="42.8399" lon="1.8389">
        <ele>1924.069</ele>
        <time>2021-02-28T11:20:11Z</time>
      </trkpt>
      <trkpt lat="42.83989" lon="1.83889">
        <ele>1923.418</ele>
        <time>2021-02-28T11:20:13Z</time>
      </trkpt>
      <trkpt lat="42.83988" lon="1.83889">
        <ele>1923.364</ele>
        <time>2021-02-28T11:20:15Z</time>
      </trkpt>
      <trkpt lat="42.83988" lon="1.83889">
        <ele>1923.068</ele>
        <time>2021-02-28T11:20:17Z</time>
      </trkpt>
      <trkpt lat="42.83988" lon="1.83889">
        <ele>1923.162</ele>
        <time>2021-02-28T11:20:19Z</time>
      </trkpt>
      <trkpt lat="42.83987" lon="1.83889">
        <ele>1922.641</ele>
        <time>2021-02-28T11:20:21Z</time>
      </trkpt>
      <trkpt lat="42.83987" lon="1.8389">
        <ele>1922.817</ele>
        <time>2021-02-28T11:20:23Z</time>
      </trkpt>
      <trkpt lat="42.83987" lon="1.8389">
        <ele>1922.814</ele>
        <time>2021-02-28T11:20:25Z</time>
      </trkpt>
      <trkpt lat="42.83988" lon="1.83891">
        <ele>1922.714</ele>
        <time>2021-02-28T11:20:27Z</time>
      </trkpt>
      <trkpt lat="42.83989" lon="1.83891">
        <ele>1923.564</ele>
        <time>2021-02-28T11:20:29Z</time>
      </trkpt>
      <trkpt lat="42.83989" lon="1.83891">
        <ele>1923.147</ele>
        <time>2021-02-28T11:20:31Z</time>
      </trkpt>
      <trkpt lat="42.8399" lon="1.83892">
        <ele>1923.239</ele>
        <time>2021-02-28T11:20:33Z</time>
      </trkpt>
      <trkpt lat="42.83991" lon="1.83893">
        <ele>1922.751</ele>
        <time>2021-02-28T11:20:35Z</time>
      </trkpt>
      <trkpt lat="42.83992" lon="1.83895">
        <ele>1923.13</ele>
        <time>2021-02-28T11:20:37Z</time>
      </trkpt>
      <trkpt lat="42.83993" lon="1.83896">
        <ele>1922.928</ele>
        <time>2021-02-28T11:20:39Z</time>
      </trkpt>
      <trkpt lat="42.83994" lon="1.83896">
        <ele>1922.955</ele>
        <time>2021-02-28T11:20:41Z</time>
      </trkpt>
      <trkpt lat="42.83994" lon="1.83897">
        <ele>1922.679</ele>
        <time>2021-02-28T11:20:43Z</time>
      </trkpt>
      <trkpt lat="42.83994" lon="1.83897">
        <ele>1922.675</ele>
        <time>2021-02-28T11:20:45Z</time>
      </trkpt>
      <trkpt lat="42.83994" lon="1.83897">
        <ele>1922.678</ele>
        <time>2021-02-28T11:20:47Z</time>
      </trkpt>
      <trkpt lat="42.83994" lon="1.83898">
        <ele>1922.482</ele>
        <time>2021-02-28T11:20:49Z</time>
      </trkpt>
      <trkpt lat="42.83995" lon="1.83899">
        <ele>1922.712</ele>
        <time>2021-02-28T11:20:51Z</time>
      </trkpt>
      <trkpt lat="42.83996" lon="1.839">
        <ele>1922.781</ele>
        <time>2021-02-28T11:20:53Z</time>
      </trkpt>
      <trkpt lat="42.83995" lon="1.83898">
        <ele>1922.572</ele>
        <time>2021-02-28T11:20:55Z</time>
      </trkpt>
      <trkpt lat="42.83995" lon="1.83897">
        <ele>1923.017</ele>
        <time>2021-02-28T11:20:57Z</time>
      </trkpt>
      <trkpt lat="42.83995" lon="1.83898">
        <ele>1922.91</ele>
        <time>2021-02-28T11:20:59Z</time>
      </trkpt>
      <trkpt lat="42.83995" lon="1.839">
        <ele>1922.821</ele>
        <time>2021-02-28T11:21:01Z</time>
      </trkpt>
      <trkpt lat="42.83995" lon="1.83898">
        <ele>1922.878</ele>
        <time>2021-02-28T11:21:03Z</time>
      </trkpt>
      <trkpt lat="42.83995" lon="1.83894">
        <ele>1923.033</ele>
        <time>2021-02-28T11:21:05Z</time>
      </trkpt>
      <trkpt lat="42.83994" lon="1.83892">
        <ele>1923.363</ele>
        <time>2021-02-28T11:21:07Z</time>
      </trkpt>
      <trkpt lat="42.83994" lon="1.8389">
        <ele>1923.455</ele>
        <time>2021-02-28T11:21:09Z</time>
      </trkpt>
      <trkpt lat="42.83993" lon="1.83888">
        <ele>1923.694</ele>
        <time>2021-02-28T11:21:11Z</time>
      </trkpt>
      <trkpt lat="42.83993" lon="1.83886">
        <ele>1924.003</ele>
        <time>2021-02-28T11:21:13Z</time>
      </trkpt>
      <trkpt lat="42.83993" lon="1.83885">
        <ele>1924.183</ele>
        <time>2021-02-28T11:21:15Z</time>
      </trkpt>
      <trkpt lat="42.83992" lon="1.83884">
        <ele>1924.146</ele>
        <time>2021-02-28T11:21:17Z</time>
      </trkpt>
      <trkpt lat="42.83993" lon="1.83883">
        <ele>1924.148</ele>
        <time>2021-02-28T11:21:19Z</time>
      </trkpt>
      <trkpt lat="42.83993" lon="1.83885">
        <ele>1924.084</ele>
        <time>2021-02-28T11:21:21Z</time>
      </trkpt>
      <trkpt lat="42.83992" lon="1.83887">
        <ele>1923.986</ele>
        <time>2021-02-28T11:21:23Z</time>
      </trkpt>
      <trkpt lat="42.83992" lon="1.83886">
        <ele>1923.892</ele>
        <time>2021-02-28T11:21:25Z</time>
      </trkpt>
      <trkpt lat="42.83992" lon="1.83886">
        <ele>1923.892</ele>
        <time>2021-02-28T11:21:27Z</time>
      </trkpt>
      <trkpt lat="42.83992" lon="1.83886">
        <ele>1923.894</ele>
        <time>2021-02-28T11:21:29Z</time>
      </trkpt>
      <trkpt lat="42.83992" lon="1.83886">
        <ele>1923.892</ele>
        <time>2021-02-28T11:21:31Z</time>
      </trkpt>
      <trkpt lat="42.83992" lon="1.83887">
        <ele>1923.992</ele>
        <time>2021-02-28T11:21:33Z</time>
      </trkpt>
      <trkpt lat="42.83992" lon="1.83886">
        <ele>1924.057</ele>
        <time>2021-02-28T11:21:35Z</time>
      </trkpt>
      <trkpt lat="42.83994" lon="1.83888">
        <ele>1923.562</ele>
        <time>2021-02-28T11:21:37Z</time>
      </trkpt>
      <trkpt lat="42.83996" lon="1.83888">
        <ele>1923.561</ele>
        <time>2021-02-28T11:21:39Z</time>
      </trkpt>
      <trkpt lat="42.83997" lon="1.83888">
        <ele>1922.811</ele>
        <time>2021-02-28T11:21:41Z</time>
      </trkpt>
      <trkpt lat="42.83999" lon="1.83888">
        <ele>1922.461</ele>
        <time>2021-02-28T11:21:43Z</time>
      </trkpt>
      <trkpt lat="42.84" lon="1.83889">
        <ele>1922.24</ele>
        <time>2021-02-28T11:21:45Z</time>
      </trkpt>
      <trkpt lat="42.84002" lon="1.8389">
        <ele>1922.217</ele>
        <time>2021-02-28T11:21:47Z</time>
      </trkpt>
      <trkpt lat="42.84003" lon="1.83891">
        <ele>1922.237</ele>
        <time>2021-02-28T11:21:49Z</time>
      </trkpt>
      <trkpt lat="42.84004" lon="1.83892">
        <ele>1922.3</ele>
        <time>2021-02-28T11:21:51Z</time>
      </trkpt>
      <trkpt lat="42.84006" lon="1.83894">
        <ele>1922.248</ele>
        <time>2021-02-28T11:21:53Z</time>
      </trkpt>
      <trkpt lat="42.84007" lon="1.83895">
        <ele>1921.935</ele>
        <time>2021-02-28T11:21:55Z</time>
      </trkpt>
      <trkpt lat="42.84009" lon="1.83895">
        <ele>1922.078</ele>
        <time>2021-02-28T11:21:57Z</time>
      </trkpt>
      <trkpt lat="42.84009" lon="1.83894">
        <ele>1922.005</ele>
        <time>2021-02-28T11:21:59Z</time>
      </trkpt>
      <trkpt lat="42.84009" lon="1.83894">
        <ele>1921.99</ele>
        <time>2021-02-28T11:22:01Z</time>
      </trkpt>
      <trkpt lat="42.84009" lon="1.83894">
        <ele>1921.66</ele>
        <time>2021-02-28T11:22:03Z</time>
      </trkpt>
      <trkpt lat="42.84009" lon="1.83895">
        <ele>1921.675</ele>
        <time>2021-02-28T11:22:05Z</time>
      </trkpt>
      <trkpt lat="42.84009" lon="1.83895">
        <ele>1921.677</ele>
        <time>2021-02-28T11:22:07Z</time>
      </trkpt>
      <trkpt lat="42.84009" lon="1.83895">
        <ele>1921.625</ele>
        <time>2021-02-28T11:22:09Z</time>
      </trkpt>
      <trkpt lat="42.84009" lon="1.83895">
        <ele>1921.623</ele>
        <time>2021-02-28T11:22:11Z</time>
      </trkpt>
      <trkpt lat="42.84008" lon="1.83895">
        <ele>1921.694</ele>
        <time>2021-02-28T11:22:13Z</time>
      </trkpt>
      <trkpt lat="42.84007" lon="1.83895">
        <ele>1921.616</ele>
        <time>2021-02-28T11:22:15Z</time>
      </trkpt>
      <trkpt lat="42.84008" lon="1.83896">
        <ele>1921.55</ele>
        <time>2021-02-28T11:22:17Z</time>
      </trkpt>
      <trkpt lat="42.84008" lon="1.83896">
        <ele>1921.72</ele>
        <time>2021-02-28T11:22:19Z</time>
      </trkpt>
      <trkpt lat="42.84008" lon="1.83894">
        <ele>1920.55</ele>
        <time>2021-02-28T11:22:21Z</time>
      </trkpt>
      <trkpt lat="42.84007" lon="1.83895">
        <ele>1920.313</ele>
        <time>2021-02-28T11:22:23Z</time>
      </trkpt>
      <trkpt lat="42.84006" lon="1.83896">
        <ele>1920.136</ele>
        <time>2021-02-28T11:22:25Z</time>
      </trkpt>
      <trkpt lat="42.84006" lon="1.83896">
        <ele>1920.132</ele>
        <time>2021-02-28T11:22:27Z</time>
      </trkpt>
      <trkpt lat="42.84006" lon="1.83896">
        <ele>1920.132</ele>
        <time>2021-02-28T11:22:29Z</time>
      </trkpt>
      <trkpt lat="42.84006" lon="1.83896">
        <ele>1920.132</ele>
        <time>2021-02-28T11:22:31Z</time>
      </trkpt>
      <trkpt lat="42.84006" lon="1.83896">
        <ele>1920.129</ele>
        <time>2021-02-28T11:22:33Z</time>
      </trkpt>
      <trkpt lat="42.84006" lon="1.83896">
        <ele>1920.128</ele>
        <time>2021-02-28T11:22:35Z</time>
      </trkpt>
      <trkpt lat="42.84006" lon="1.83896">
        <ele>1920.127</ele>
        <time>2021-02-28T11:22:37Z</time>
      </trkpt>
      <trkpt lat="42.84006" lon="1.83896">
        <ele>1920.129</ele>
        <time>2021-02-28T11:22:39Z</time>
      </trkpt>
      <trkpt lat="42.84006" lon="1.83896">
        <ele>1920.129</ele>
        <time>2021-02-28T11:22:41Z</time>
      </trkpt>
      <trkpt lat="42.84006" lon="1.83896">
        <ele>1920.128</ele>
        <time>2021-02-28T11:22:43Z</time>
      </trkpt>
      <trkpt lat="42.84006" lon="1.83896">
        <ele>1920.131</ele>
        <time>2021-02-28T11:22:45Z</time>
      </trkpt>
      <trkpt lat="42.84005" lon="1.83897">
        <ele>1919.833</ele>
        <time>2021-02-28T11:22:47Z</time>
      </trkpt>
      <trkpt lat="42.84005" lon="1.83898">
        <ele>1919.952</ele>
        <time>2021-02-28T11:22:49Z</time>
      </trkpt>
      <trkpt lat="42.84005" lon="1.839">
        <ele>1920.523</ele>
        <time>2021-02-28T11:22:51Z</time>
      </trkpt>
      <trkpt lat="42.84005" lon="1.83901">
        <ele>1920.221</ele>
        <time>2021-02-28T11:22:53Z</time>
      </trkpt>
      <trkpt lat="42.84007" lon="1.83902">
        <ele>1920.579</ele>
        <time>2021-02-28T11:22:55Z</time>
      </trkpt>
      <trkpt lat="42.84007" lon="1.83903">
        <ele>1920.377</ele>
        <time>2021-02-28T11:22:57Z</time>
      </trkpt>
      <trkpt lat="42.84007" lon="1.83905">
        <ele>1920.597</ele>
        <time>2021-02-28T11:22:59Z</time>
      </trkpt>
      <trkpt lat="42.84007" lon="1.83908">
        <ele>1920.521</ele>
        <time>2021-02-28T11:23:01Z</time>
      </trkpt>
      <trkpt lat="42.84006" lon="1.83911">
        <ele>1920.099</ele>
        <time>2021-02-28T11:23:03Z</time>
      </trkpt>
      <trkpt lat="42.84006" lon="1.83913">
        <ele>1920.676</ele>
        <time>2021-02-28T11:23:05Z</time>
      </trkpt>
      <trkpt lat="42.84005" lon="1.83915">
        <ele>1920.68</ele>
        <time>2021-02-28T11:23:07Z</time>
      </trkpt>
      <trkpt lat="42.84006" lon="1.83917">
        <ele>1921.269</ele>
        <time>2021-02-28T11:23:09Z</time>
      </trkpt>
      <trkpt lat="42.84007" lon="1.83918">
        <ele>1921.043</ele>
        <time>2021-02-28T11:23:11Z</time>
      </trkpt>
      <trkpt lat="42.84007" lon="1.83919">
        <ele>1920.335</ele>
        <time>2021-02-28T11:23:13Z</time>
      </trkpt>
      <trkpt lat="42.84007" lon="1.8392">
        <ele>1921.015</ele>
        <time>2021-02-28T11:23:15Z</time>
      </trkpt>
      <trkpt lat="42.84006" lon="1.83923">
        <ele>1920.55</ele>
        <time>2021-02-28T11:23:18Z</time>
      </trkpt>
      <trkpt lat="42.84006" lon="1.83923">
        <ele>1919.883</ele>
        <time>2021-02-28T11:23:20Z</time>
      </trkpt>
      <trkpt lat="42.84005" lon="1.83923">
        <ele>1920.062</ele>
        <time>2021-02-28T11:23:22Z</time>
      </trkpt>
      <trkpt lat="42.84004" lon="1.83923">
        <ele>1920.397</ele>
        <time>2021-02-28T11:23:24Z</time>
      </trkpt>
      <trkpt lat="42.84002" lon="1.83925">
        <ele>1920.773</ele>
        <time>2021-02-28T11:23:26Z</time>
      </trkpt>
      <trkpt lat="42.84001" lon="1.83927">
        <ele>1920.362</ele>
        <time>2021-02-28T11:23:28Z</time>
      </trkpt>
      <trkpt lat="42.84" lon="1.83928">
        <ele>1920.368</ele>
        <time>2021-02-28T11:23:30Z</time>
      </trkpt>
      <trkpt lat="42.83999" lon="1.8393">
        <ele>1920.587</ele>
        <time>2021-02-28T11:23:32Z</time>
      </trkpt>
      <trkpt lat="42.83999" lon="1.83931">
        <ele>1919.901</ele>
        <time>2021-02-28T11:23:34Z</time>
      </trkpt>
      <trkpt lat="42.83999" lon="1.83931">
        <ele>1920.008</ele>
        <time>2021-02-28T11:23:36Z</time>
      </trkpt>
      <trkpt lat="42.83999" lon="1.83931">
        <ele>1920.008</ele>
        <time>2021-02-28T11:23:38Z</time>
      </trkpt>
      <trkpt lat="42.83999" lon="1.83931">
        <ele>1920.144</ele>
        <time>2021-02-28T11:23:40Z</time>
      </trkpt>
      <trkpt lat="42.83999" lon="1.8393">
        <ele>1920.207</ele>
        <time>2021-02-28T11:23:42Z</time>
      </trkpt>
      <trkpt lat="42.83999" lon="1.8393">
        <ele>1920.206</ele>
        <time>2021-02-28T11:23:44Z</time>
      </trkpt>
      <trkpt lat="42.83999" lon="1.83931">
        <ele>1920.134</ele>
        <time>2021-02-28T11:23:46Z</time>
      </trkpt>
      <trkpt lat="42.84" lon="1.83931">
        <ele>1919.965</ele>
        <time>2021-02-28T11:23:48Z</time>
      </trkpt>
      <trkpt lat="42.84001" lon="1.83932">
        <ele>1919.999</ele>
        <time>2021-02-28T11:23:50Z</time>
      </trkpt>
      <trkpt lat="42.84003" lon="1.83934">
        <ele>1919.816</ele>
        <time>2021-02-28T11:23:52Z</time>
      </trkpt>
      <trkpt lat="42.84004" lon="1.83934">
        <ele>1920.089</ele>
        <time>2021-02-28T11:23:54Z</time>
      </trkpt>
      <trkpt lat="42.84005" lon="1.83935">
        <ele>1919.558</ele>
        <time>2021-02-28T11:23:56Z</time>
      </trkpt>
      <trkpt lat="42.84006" lon="1.83937">
        <ele>1919.317</ele>
        <time>2021-02-28T11:23:58Z</time>
      </trkpt>
      <trkpt lat="42.84007" lon="1.83939">
        <ele>1918.805</ele>
        <time>2021-02-28T11:24:00Z</time>
      </trkpt>
      <trkpt lat="42.84007" lon="1.83941">
        <ele>1918.495</ele>
        <time>2021-02-28T11:24:02Z</time>
      </trkpt>
      <trkpt lat="42.84007" lon="1.83944">
        <ele>1918.101</ele>
        <time>2021-02-28T11:24:04Z</time>
      </trkpt>
      <trkpt lat="42.84007" lon="1.83946">
        <ele>1918.408</ele>
        <time>2021-02-28T11:24:06Z</time>
      </trkpt>
      <trkpt lat="42.84008" lon="1.83946">
        <ele>1917.538</ele>
        <time>2021-02-28T11:24:08Z</time>
      </trkpt>
      <trkpt lat="42.84008" lon="1.83948">
        <ele>1917.973</ele>
        <time>2021-02-28T11:24:10Z</time>
      </trkpt>
      <trkpt lat="42.84008" lon="1.83952">
        <ele>1917.57</ele>
        <time>2021-02-28T11:24:12Z</time>
      </trkpt>
      <trkpt lat="42.84008" lon="1.83955">
        <ele>1917.555</ele>
        <time>2021-02-28T11:24:14Z</time>
      </trkpt>
      <trkpt lat="42.84008" lon="1.83958">
        <ele>1917.857</ele>
        <time>2021-02-28T11:24:16Z</time>
      </trkpt>
      <trkpt lat="42.84008" lon="1.83961">
        <ele>1917.846</ele>
        <time>2021-02-28T11:24:18Z</time>
      </trkpt>
      <trkpt lat="42.84008" lon="1.83963">
        <ele>1918.262</ele>
        <time>2021-02-28T11:24:20Z</time>
      </trkpt>
      <trkpt lat="42.84007" lon="1.83966">
        <ele>1918.112</ele>
        <time>2021-02-28T11:24:22Z</time>
      </trkpt>
      <trkpt lat="42.84007" lon="1.83968">
        <ele>1917.705</ele>
        <time>2021-02-28T11:24:24Z</time>
      </trkpt>
      <trkpt lat="42.84007" lon="1.83971">
        <ele>1917.761</ele>
        <time>2021-02-28T11:24:26Z</time>
      </trkpt>
      <trkpt lat="42.84006" lon="1.83974">
        <ele>1917.798</ele>
        <time>2021-02-28T11:24:28Z</time>
      </trkpt>
      <trkpt lat="42.84006" lon="1.83974">
        <ele>1917.919</ele>
        <time>2021-02-28T11:24:30Z</time>
      </trkpt>
      <trkpt lat="42.84006" lon="1.83974">
        <ele>1917.915</ele>
        <time>2021-02-28T11:24:32Z</time>
      </trkpt>
      <trkpt lat="42.84006" lon="1.83975">
        <ele>1918.167</ele>
        <time>2021-02-28T11:24:34Z</time>
      </trkpt>
      <trkpt lat="42.84005" lon="1.83978">
        <ele>1918.289</ele>
        <time>2021-02-28T11:24:36Z</time>
      </trkpt>
      <trkpt lat="42.84006" lon="1.83978">
        <ele>1918.073</ele>
        <time>2021-02-28T11:24:38Z</time>
      </trkpt>
      <trkpt lat="42.84006" lon="1.83978">
        <ele>1918.072</ele>
        <time>2021-02-28T11:24:40Z</time>
      </trkpt>
      <trkpt lat="42.84006" lon="1.83978">
        <ele>1918.074</ele>
        <time>2021-02-28T11:24:42Z</time>
      </trkpt>
      <trkpt lat="42.84006" lon="1.83979">
        <ele>1918.002</ele>
        <time>2021-02-28T11:24:44Z</time>
      </trkpt>
      <trkpt lat="42.84006" lon="1.83979">
        <ele>1918.193</ele>
        <time>2021-02-28T11:24:46Z</time>
      </trkpt>
      <trkpt lat="42.84006" lon="1.83979">
        <ele>1917.875</ele>
        <time>2021-02-28T11:24:48Z</time>
      </trkpt>
      <trkpt lat="42.84007" lon="1.83981">
        <ele>1917.57</ele>
        <time>2021-02-28T11:24:50Z</time>
      </trkpt>
      <trkpt lat="42.84008" lon="1.83982">
        <ele>1917.244</ele>
        <time>2021-02-28T11:24:52Z</time>
      </trkpt>
      <trkpt lat="42.84009" lon="1.83983">
        <ele>1916.884</ele>
        <time>2021-02-28T11:24:54Z</time>
      </trkpt>
      <trkpt lat="42.84011" lon="1.83983">
        <ele>1916.649</ele>
        <time>2021-02-28T11:24:56Z</time>
      </trkpt>
      <trkpt lat="42.84012" lon="1.83985">
        <ele>1915.766</ele>
        <time>2021-02-28T11:24:58Z</time>
      </trkpt>
      <trkpt lat="42.84012" lon="1.83987">
        <ele>1915.037</ele>
        <time>2021-02-28T11:25:00Z</time>
      </trkpt>
      <trkpt lat="42.84014" lon="1.83988">
        <ele>1914.9</ele>
        <time>2021-02-28T11:25:02Z</time>
      </trkpt>
      <trkpt lat="42.84015" lon="1.83989">
        <ele>1914.375</ele>
        <time>2021-02-28T11:25:04Z</time>
      </trkpt>
      <trkpt lat="42.84016" lon="1.83991">
        <ele>1914.266</ele>
        <time>2021-02-28T11:25:06Z</time>
      </trkpt>
      <trkpt lat="42.84016" lon="1.83993">
        <ele>1914.049</ele>
        <time>2021-02-28T11:25:08Z</time>
      </trkpt>
      <trkpt lat="42.84016" lon="1.83995">
        <ele>1914.003</ele>
        <time>2021-02-28T11:25:10Z</time>
      </trkpt>
      <trkpt lat="42.84016" lon="1.83998">
        <ele>1914.467</ele>
        <time>2021-02-28T11:25:12Z</time>
      </trkpt>
      <trkpt lat="42.84016" lon="1.83998">
        <ele>1914.463</ele>
        <time>2021-02-28T11:25:14Z</time>
      </trkpt>
      <trkpt lat="42.84016" lon="1.83998">
        <ele>1914.455</ele>
        <time>2021-02-28T11:25:16Z</time>
      </trkpt>
      <trkpt lat="42.84016" lon="1.83998">
        <ele>1914.394</ele>
        <time>2021-02-28T11:25:18Z</time>
      </trkpt>
      <trkpt lat="42.84017" lon="1.83999">
        <ele>1914.105</ele>
        <time>2021-02-28T11:25:20Z</time>
      </trkpt>
      <trkpt lat="42.84018" lon="1.84001">
        <ele>1913.72</ele>
        <time>2021-02-28T11:25:22Z</time>
      </trkpt>
      <trkpt lat="42.84019" lon="1.84003">
        <ele>1913.389</ele>
        <time>2021-02-28T11:25:24Z</time>
      </trkpt>
      <trkpt lat="42.8402" lon="1.84004">
        <ele>1912.654</ele>
        <time>2021-02-28T11:25:26Z</time>
      </trkpt>
      <trkpt lat="42.8402" lon="1.84006">
        <ele>1912.537</ele>
        <time>2021-02-28T11:25:28Z</time>
      </trkpt>
      <trkpt lat="42.8402" lon="1.84008">
        <ele>1912.267</ele>
        <time>2021-02-28T11:25:30Z</time>
      </trkpt>
      <trkpt lat="42.84021" lon="1.84011">
        <ele>1911.622</ele>
        <time>2021-02-28T11:25:32Z</time>
      </trkpt>
      <trkpt lat="42.84022" lon="1.84012">
        <ele>1910.642</ele>
        <time>2021-02-28T11:25:34Z</time>
      </trkpt>
      <trkpt lat="42.84023" lon="1.84014">
        <ele>1910.028</ele>
        <time>2021-02-28T11:25:36Z</time>
      </trkpt>
      <trkpt lat="42.84022" lon="1.84014">
        <ele>1909.919</ele>
        <time>2021-02-28T11:25:38Z</time>
      </trkpt>
      <trkpt lat="42.84023" lon="1.84013">
        <ele>1910.004</ele>
        <time>2021-02-28T11:25:40Z</time>
      </trkpt>
      <trkpt lat="42.84023" lon="1.84013">
        <ele>1909.999</ele>
        <time>2021-02-28T11:25:42Z</time>
      </trkpt>
      <trkpt lat="42.84024" lon="1.84013">
        <ele>1909.736</ele>
        <time>2021-02-28T11:25:44Z</time>
      </trkpt>
      <trkpt lat="42.84024" lon="1.84013">
        <ele>1909.734</ele>
        <time>2021-02-28T11:25:46Z</time>
      </trkpt>
      <trkpt lat="42.84024" lon="1.84013">
        <ele>1909.734</ele>
        <time>2021-02-28T11:25:48Z</time>
      </trkpt>
      <trkpt lat="42.84023" lon="1.84012">
        <ele>1910.254</ele>
        <time>2021-02-28T11:25:50Z</time>
      </trkpt>
      <trkpt lat="42.84024" lon="1.84012">
        <ele>1910.234</ele>
        <time>2021-02-28T11:25:52Z</time>
      </trkpt>
      <trkpt lat="42.84024" lon="1.84012">
        <ele>1910.226</ele>
        <time>2021-02-28T11:25:54Z</time>
      </trkpt>
      <trkpt lat="42.84023" lon="1.84012">
        <ele>1910.225</ele>
        <time>2021-02-28T11:25:56Z</time>
      </trkpt>
      <trkpt lat="42.84024" lon="1.84011">
        <ele>1910.144</ele>
        <time>2021-02-28T11:25:58Z</time>
      </trkpt>
      <trkpt lat="42.84024" lon="1.84011">
        <ele>1910.13</ele>
        <time>2021-02-28T11:26:00Z</time>
      </trkpt>
      <trkpt lat="42.84024" lon="1.84011">
        <ele>1910.128</ele>
        <time>2021-02-28T11:26:02Z</time>
      </trkpt>
      <trkpt lat="42.84024" lon="1.8401">
        <ele>1910.265</ele>
        <time>2021-02-28T11:26:04Z</time>
      </trkpt>
      <trkpt lat="42.84024" lon="1.8401">
        <ele>1910.268</ele>
        <time>2021-02-28T11:26:06Z</time>
      </trkpt>
      <trkpt lat="42.84024" lon="1.8401">
        <ele>1910.265</ele>
        <time>2021-02-28T11:26:08Z</time>
      </trkpt>
      <trkpt lat="42.84023" lon="1.84011">
        <ele>1910.129</ele>
        <time>2021-02-28T11:26:10Z</time>
      </trkpt>
      <trkpt lat="42.84022" lon="1.84012">
        <ele>1910.195</ele>
        <time>2021-02-28T11:26:12Z</time>
      </trkpt>
      <trkpt lat="42.84021" lon="1.84011">
        <ele>1909.902</ele>
        <time>2021-02-28T11:26:14Z</time>
      </trkpt>
      <trkpt lat="42.8402" lon="1.8401">
        <ele>1909.741</ele>
        <time>2021-02-28T11:26:16Z</time>
      </trkpt>
      <trkpt lat="42.84019" lon="1.84009">
        <ele>1909.938</ele>
        <time>2021-02-28T11:26:18Z</time>
      </trkpt>
      <trkpt lat="42.84018" lon="1.84009">
        <ele>1910.124</ele>
        <time>2021-02-28T11:26:20Z</time>
      </trkpt>
      <trkpt lat="42.84016" lon="1.84008">
        <ele>1910.554</ele>
        <time>2021-02-28T11:26:22Z</time>
      </trkpt>
      <trkpt lat="42.84014" lon="1.84008">
        <ele>1910.968</ele>
        <time>2021-02-28T11:26:24Z</time>
      </trkpt>
      <trkpt lat="42.84013" lon="1.84007">
        <ele>1910.916</ele>
        <time>2021-02-28T11:26:26Z</time>
      </trkpt>
      <trkpt lat="42.84011" lon="1.84007">
        <ele>1910.745</ele>
        <time>2021-02-28T11:26:28Z</time>
      </trkpt>
      <trkpt lat="42.8401" lon="1.84006">
        <ele>1911.087</ele>
        <time>2021-02-28T11:26:30Z</time>
      </trkpt>
      <trkpt lat="42.84009" lon="1.84006">
        <ele>1911.419</ele>
        <time>2021-02-28T11:26:32Z</time>
      </trkpt>
      <trkpt lat="42.84008" lon="1.84007">
        <ele>1912.257</ele>
        <time>2021-02-28T11:26:34Z</time>
      </trkpt>
      <trkpt lat="42.84006" lon="1.84008">
        <ele>1912.894</ele>
        <time>2021-02-28T11:26:36Z</time>
      </trkpt>
      <trkpt lat="42.84004" lon="1.84008">
        <ele>1913.4</ele>
        <time>2021-02-28T11:26:38Z</time>
      </trkpt>
      <trkpt lat="42.84003" lon="1.84009">
        <ele>1913.495</ele>
        <time>2021-02-28T11:26:40Z</time>
      </trkpt>
      <trkpt lat="42.84002" lon="1.84009">
        <ele>1913.531</ele>
        <time>2021-02-28T11:26:42Z</time>
      </trkpt>
      <trkpt lat="42.84" lon="1.84008">
        <ele>1913.803</ele>
        <time>2021-02-28T11:26:44Z</time>
      </trkpt>
      <trkpt lat="42.83999" lon="1.84008">
        <ele>1914.433</ele>
        <time>2021-02-28T11:26:46Z</time>
      </trkpt>
      <trkpt lat="42.83997" lon="1.84008">
        <ele>1914.39</ele>
        <time>2021-02-28T11:26:48Z</time>
      </trkpt>
      <trkpt lat="42.83996" lon="1.84007">
        <ele>1914.402</ele>
        <time>2021-02-28T11:26:50Z</time>
      </trkpt>
      <trkpt lat="42.83995" lon="1.84006">
        <ele>1914.429</ele>
        <time>2021-02-28T11:26:52Z</time>
      </trkpt>
      <trkpt lat="42.83993" lon="1.84006">
        <ele>1914.252</ele>
        <time>2021-02-28T11:26:54Z</time>
      </trkpt>
      <trkpt lat="42.83993" lon="1.84005">
        <ele>1915.228</ele>
        <time>2021-02-28T11:26:56Z</time>
      </trkpt>
      <trkpt lat="42.83991" lon="1.84005">
        <ele>1914.963</ele>
        <time>2021-02-28T11:26:58Z</time>
      </trkpt>
      <trkpt lat="42.8399" lon="1.84005">
        <ele>1914.914</ele>
        <time>2021-02-28T11:27:00Z</time>
      </trkpt>
      <trkpt lat="42.83988" lon="1.84006">
        <ele>1915</ele>
        <time>2021-02-28T11:27:02Z</time>
      </trkpt>
      <trkpt lat="42.83987" lon="1.84006">
        <ele>1915.387</ele>
        <time>2021-02-28T11:27:04Z</time>
      </trkpt>
      <trkpt lat="42.83986" lon="1.84005">
        <ele>1915.393</ele>
        <time>2021-02-28T11:27:06Z</time>
      </trkpt>
      <trkpt lat="42.83984" lon="1.84005">
        <ele>1915.92</ele>
        <time>2021-02-28T11:27:08Z</time>
      </trkpt>
      <trkpt lat="42.83982" lon="1.84005">
        <ele>1916.015</ele>
        <time>2021-02-28T11:27:10Z</time>
      </trkpt>
      <trkpt lat="42.8398" lon="1.84005">
        <ele>1915.943</ele>
        <time>2021-02-28T11:27:12Z</time>
      </trkpt>
      <trkpt lat="42.83979" lon="1.84004">
        <ele>1916.201</ele>
        <time>2021-02-28T11:27:14Z</time>
      </trkpt>
      <trkpt lat="42.83977" lon="1.84004">
        <ele>1916.326</ele>
        <time>2021-02-28T11:27:16Z</time>
      </trkpt>
      <trkpt lat="42.83975" lon="1.84005">
        <ele>1916.329</ele>
        <time>2021-02-28T11:27:18Z</time>
      </trkpt>
      <trkpt lat="42.83974" lon="1.84003">
        <ele>1916.166</ele>
        <time>2021-02-28T11:27:20Z</time>
      </trkpt>
      <trkpt lat="42.83973" lon="1.84002">
        <ele>1916.012</ele>
        <time>2021-02-28T11:27:22Z</time>
      </trkpt>
      <trkpt lat="42.83972" lon="1.84002">
        <ele>1916.278</ele>
        <time>2021-02-28T11:27:24Z</time>
      </trkpt>
      <trkpt lat="42.83971" lon="1.84">
        <ele>1916.323</ele>
        <time>2021-02-28T11:27:26Z</time>
      </trkpt>
      <trkpt lat="42.83971" lon="1.84">
        <ele>1916.528</ele>
        <time>2021-02-28T11:27:28Z</time>
      </trkpt>
      <trkpt lat="42.83971" lon="1.84">
        <ele>1916.532</ele>
        <time>2021-02-28T11:27:30Z</time>
      </trkpt>
      <trkpt lat="42.83971" lon="1.84">
        <ele>1916.532</ele>
        <time>2021-02-28T11:27:32Z</time>
      </trkpt>
      <trkpt lat="42.83971" lon="1.83999">
        <ele>1916.532</ele>
        <time>2021-02-28T11:27:34Z</time>
      </trkpt>
      <trkpt lat="42.8397" lon="1.83999">
        <ele>1916.32</ele>
        <time>2021-02-28T11:27:36Z</time>
      </trkpt>
      <trkpt lat="42.83971" lon="1.83998">
        <ele>1916.168</ele>
        <time>2021-02-28T11:27:38Z</time>
      </trkpt>
      <trkpt lat="42.83971" lon="1.83998">
        <ele>1916.061</ele>
        <time>2021-02-28T11:27:40Z</time>
      </trkpt>
      <trkpt lat="42.83971" lon="1.83998">
        <ele>1916.059</ele>
        <time>2021-02-28T11:27:42Z</time>
      </trkpt>
      <trkpt lat="42.83971" lon="1.83998">
        <ele>1916.061</ele>
        <time>2021-02-28T11:27:44Z</time>
      </trkpt>
      <trkpt lat="42.83971" lon="1.83998">
        <ele>1916.29</ele>
        <time>2021-02-28T11:27:46Z</time>
      </trkpt>
      <trkpt lat="42.83971" lon="1.83998">
        <ele>1916.276</ele>
        <time>2021-02-28T11:27:48Z</time>
      </trkpt>
      <trkpt lat="42.83971" lon="1.83998">
        <ele>1916.368</ele>
        <time>2021-02-28T11:27:50Z</time>
      </trkpt>
      <trkpt lat="42.83971" lon="1.83998">
        <ele>1916.371</ele>
        <time>2021-02-28T11:27:52Z</time>
      </trkpt>
      <trkpt lat="42.83971" lon="1.83998">
        <ele>1916.42</ele>
        <time>2021-02-28T11:27:54Z</time>
      </trkpt>
      <trkpt lat="42.83971" lon="1.83998">
        <ele>1916.248</ele>
        <time>2021-02-28T11:27:56Z</time>
      </trkpt>
      <trkpt lat="42.83971" lon="1.83998">
        <ele>1916.248</ele>
        <time>2021-02-28T11:27:58Z</time>
      </trkpt>
      <trkpt lat="42.83971" lon="1.83997">
        <ele>1916.516</ele>
        <time>2021-02-28T11:28:00Z</time>
      </trkpt>
      <trkpt lat="42.83971" lon="1.83997">
        <ele>1916.633</ele>
        <time>2021-02-28T11:28:02Z</time>
      </trkpt>
      <trkpt lat="42.83971" lon="1.83997">
        <ele>1916.63</ele>
        <time>2021-02-28T11:28:04Z</time>
      </trkpt>
      <trkpt lat="42.83971" lon="1.83997">
        <ele>1916.632</ele>
        <time>2021-02-28T11:28:06Z</time>
      </trkpt>
      <trkpt lat="42.83971" lon="1.83997">
        <ele>1916.639</ele>
        <time>2021-02-28T11:28:08Z</time>
      </trkpt>
      <trkpt lat="42.83971" lon="1.83997">
        <ele>1916.567</ele>
        <time>2021-02-28T11:28:10Z</time>
      </trkpt>
      <trkpt lat="42.8397" lon="1.83995">
        <ele>1916.49</ele>
        <time>2021-02-28T11:28:12Z</time>
      </trkpt>
      <trkpt lat="42.83969" lon="1.83992">
        <ele>1916.527</ele>
        <time>2021-02-28T11:28:14Z</time>
      </trkpt>
      <trkpt lat="42.8397" lon="1.8399">
        <ele>1915.745</ele>
        <time>2021-02-28T11:28:16Z</time>
      </trkpt>
      <trkpt lat="42.83971" lon="1.83988">
        <ele>1915.961</ele>
        <time>2021-02-28T11:28:18Z</time>
      </trkpt>
      <trkpt lat="42.83969" lon="1.83986">
        <ele>1915.177</ele>
        <time>2021-02-28T11:28:20Z</time>
      </trkpt>
      <trkpt lat="42.83968" lon="1.83985">
        <ele>1914.909</ele>
        <time>2021-02-28T11:28:22Z</time>
      </trkpt>
      <trkpt lat="42.83966" lon="1.83982">
        <ele>1915.13</ele>
        <time>2021-02-28T11:28:24Z</time>
      </trkpt>
      <trkpt lat="42.83965" lon="1.83981">
        <ele>1915.654</ele>
        <time>2021-02-28T11:28:26Z</time>
      </trkpt>
      <trkpt lat="42.83963" lon="1.83979">
        <ele>1915.197</ele>
        <time>2021-02-28T11:28:28Z</time>
      </trkpt>
      <trkpt lat="42.83962" lon="1.83977">
        <ele>1914.94</ele>
        <time>2021-02-28T11:28:30Z</time>
      </trkpt>
      <trkpt lat="42.8396" lon="1.83976">
        <ele>1914.68</ele>
        <time>2021-02-28T11:28:32Z</time>
      </trkpt>
      <trkpt lat="42.83959" lon="1.83974">
        <ele>1914.723</ele>
        <time>2021-02-28T11:28:34Z</time>
      </trkpt>
      <trkpt lat="42.83958" lon="1.83972">
        <ele>1914.633</ele>
        <time>2021-02-28T11:28:36Z</time>
      </trkpt>
      <trkpt lat="42.83958" lon="1.8397">
        <ele>1914.14</ele>
        <time>2021-02-28T11:28:38Z</time>
      </trkpt>
      <trkpt lat="42.83957" lon="1.83968">
        <ele>1914.37</ele>
        <time>2021-02-28T11:28:40Z</time>
      </trkpt>
      <trkpt lat="42.83956" lon="1.83965">
        <ele>1914.184</ele>
        <time>2021-02-28T11:28:42Z</time>
      </trkpt>
      <trkpt lat="42.83955" lon="1.83962">
        <ele>1914.541</ele>
        <time>2021-02-28T11:28:44Z</time>
      </trkpt>
      <trkpt lat="42.83954" lon="1.83959">
        <ele>1914.615</ele>
        <time>2021-02-28T11:28:46Z</time>
      </trkpt>
      <trkpt lat="42.83954" lon="1.83956">
        <ele>1914.698</ele>
        <time>2021-02-28T11:28:48Z</time>
      </trkpt>
      <trkpt lat="42.83952" lon="1.83954">
        <ele>1914.641</ele>
        <time>2021-02-28T11:28:50Z</time>
      </trkpt>
      <trkpt lat="42.83951" lon="1.83952">
        <ele>1914.86</ele>
        <time>2021-02-28T11:28:52Z</time>
      </trkpt>
      <trkpt lat="42.8395" lon="1.8395">
        <ele>1914.651</ele>
        <time>2021-02-28T11:28:54Z</time>
      </trkpt>
      <trkpt lat="42.83949" lon="1.83947">
        <ele>1914.718</ele>
        <time>2021-02-28T11:28:56Z</time>
      </trkpt>
      <trkpt lat="42.83948" lon="1.83945">
        <ele>1914.596</ele>
        <time>2021-02-28T11:28:58Z</time>
      </trkpt>
      <trkpt lat="42.83948" lon="1.83942">
        <ele>1914.712</ele>
        <time>2021-02-28T11:29:00Z</time>
      </trkpt>
      <trkpt lat="42.83946" lon="1.8394">
        <ele>1914.564</ele>
        <time>2021-02-28T11:29:02Z</time>
      </trkpt>
      <trkpt lat="42.83946" lon="1.83938">
        <ele>1914.539</ele>
        <time>2021-02-28T11:29:04Z</time>
      </trkpt>
      <trkpt lat="42.83945" lon="1.83936">
        <ele>1914.386</ele>
        <time>2021-02-28T11:29:06Z</time>
      </trkpt>
      <trkpt lat="42.83944" lon="1.83934">
        <ele>1914.74</ele>
        <time>2021-02-28T11:29:08Z</time>
      </trkpt>
      <trkpt lat="42.83943" lon="1.83932">
        <ele>1914.599</ele>
        <time>2021-02-28T11:29:10Z</time>
      </trkpt>
      <trkpt lat="42.83943" lon="1.83928">
        <ele>1915.115</ele>
        <time>2021-02-28T11:29:12Z</time>
      </trkpt>
      <trkpt lat="42.83943" lon="1.83924">
        <ele>1916.898</ele>
        <time>2021-02-28T11:29:14Z</time>
      </trkpt>
      <trkpt lat="42.83942" lon="1.83921">
        <ele>1916.853</ele>
        <time>2021-02-28T11:29:16Z</time>
      </trkpt>
      <trkpt lat="42.83942" lon="1.83919">
        <ele>1917.089</ele>
        <time>2021-02-28T11:29:18Z</time>
      </trkpt>
      <trkpt lat="42.83941" lon="1.83917">
        <ele>1917.277</ele>
        <time>2021-02-28T11:29:20Z</time>
      </trkpt>
      <trkpt lat="42.83941" lon="1.83914">
        <ele>1917.245</ele>
        <time>2021-02-28T11:29:22Z</time>
      </trkpt>
      <trkpt lat="42.8394" lon="1.83912">
        <ele>1917.35</ele>
        <time>2021-02-28T11:29:24Z</time>
      </trkpt>
      <trkpt lat="42.8394" lon="1.8391">
        <ele>1917.887</ele>
        <time>2021-02-28T11:29:26Z</time>
      </trkpt>
      <trkpt lat="42.83941" lon="1.83908">
        <ele>1918.468</ele>
        <time>2021-02-28T11:29:28Z</time>
      </trkpt>
      <trkpt lat="42.8394" lon="1.83906">
        <ele>1919.074</ele>
        <time>2021-02-28T11:29:30Z</time>
      </trkpt>
      <trkpt lat="42.8394" lon="1.83903">
        <ele>1919.097</ele>
        <time>2021-02-28T11:29:32Z</time>
      </trkpt>
      <trkpt lat="42.8394" lon="1.839">
        <ele>1918.791</ele>
        <time>2021-02-28T11:29:34Z</time>
      </trkpt>
      <trkpt lat="42.8394" lon="1.83898">
        <ele>1918.688</ele>
        <time>2021-02-28T11:29:36Z</time>
      </trkpt>
      <trkpt lat="42.8394" lon="1.83895">
        <ele>1918.739</ele>
        <time>2021-02-28T11:29:38Z</time>
      </trkpt>
      <trkpt lat="42.83939" lon="1.83893">
        <ele>1918.653</ele>
        <time>2021-02-28T11:29:40Z</time>
      </trkpt>
      <trkpt lat="42.83938" lon="1.8389">
        <ele>1918.376</ele>
        <time>2021-02-28T11:29:42Z</time>
      </trkpt>
      <trkpt lat="42.83937" lon="1.83888">
        <ele>1918.666</ele>
        <time>2021-02-28T11:29:44Z</time>
      </trkpt>
      <trkpt lat="42.83935" lon="1.83886">
        <ele>1918.789</ele>
        <time>2021-02-28T11:29:46Z</time>
      </trkpt>
      <trkpt lat="42.83934" lon="1.83883">
        <ele>1919.27</ele>
        <time>2021-02-28T11:29:49Z</time>
      </trkpt>
      <trkpt lat="42.83933" lon="1.8388">
        <ele>1919.836</ele>
        <time>2021-02-28T11:29:51Z</time>
      </trkpt>
      <trkpt lat="42.83932" lon="1.83878">
        <ele>1919.837</ele>
        <time>2021-02-28T11:29:53Z</time>
      </trkpt>
      <trkpt lat="42.83931" lon="1.83875">
        <ele>1920.046</ele>
        <time>2021-02-28T11:29:55Z</time>
      </trkpt>
      <trkpt lat="42.8393" lon="1.83872">
        <ele>1920.354</ele>
        <time>2021-02-28T11:29:58Z</time>
      </trkpt>
      <trkpt lat="42.83929" lon="1.8387">
        <ele>1920.083</ele>
        <time>2021-02-28T11:30:00Z</time>
      </trkpt>
      <trkpt lat="42.83929" lon="1.83868">
        <ele>1920.275</ele>
        <time>2021-02-28T11:30:02Z</time>
      </trkpt>
      <trkpt lat="42.83929" lon="1.83866">
        <ele>1920.49</ele>
        <time>2021-02-28T11:30:04Z</time>
      </trkpt>
      <trkpt lat="42.83929" lon="1.83864">
        <ele>1921.017</ele>
        <time>2021-02-28T11:30:06Z</time>
      </trkpt>
      <trkpt lat="42.83929" lon="1.83862">
        <ele>1920.658</ele>
        <time>2021-02-28T11:30:08Z</time>
      </trkpt>
      <trkpt lat="42.83928" lon="1.8386">
        <ele>1920.992</ele>
        <time>2021-02-28T11:30:10Z</time>
      </trkpt>
      <trkpt lat="42.83928" lon="1.83857">
        <ele>1920.915</ele>
        <time>2021-02-28T11:30:12Z</time>
      </trkpt>
      <trkpt lat="42.83928" lon="1.83855">
        <ele>1921.385</ele>
        <time>2021-02-28T11:30:14Z</time>
      </trkpt>
      <trkpt lat="42.83928" lon="1.83853">
        <ele>1920.779</ele>
        <time>2021-02-28T11:30:16Z</time>
      </trkpt>
      <trkpt lat="42.83927" lon="1.83852">
        <ele>1920.953</ele>
        <time>2021-02-28T11:30:18Z</time>
      </trkpt>
      <trkpt lat="42.83927" lon="1.83849">
        <ele>1920.98</ele>
        <time>2021-02-28T11:30:20Z</time>
      </trkpt>
      <trkpt lat="42.83927" lon="1.83847">
        <ele>1921.108</ele>
        <time>2021-02-28T11:30:22Z</time>
      </trkpt>
      <trkpt lat="42.83926" lon="1.83846">
        <ele>1921.234</ele>
        <time>2021-02-28T11:30:24Z</time>
      </trkpt>
      <trkpt lat="42.83926" lon="1.83845">
        <ele>1921.07</ele>
        <time>2021-02-28T11:30:26Z</time>
      </trkpt>
      <trkpt lat="42.83926" lon="1.83845">
        <ele>1921.061</ele>
        <time>2021-02-28T11:30:28Z</time>
      </trkpt>
      <trkpt lat="42.83926" lon="1.83845">
        <ele>1921.061</ele>
        <time>2021-02-28T11:30:30Z</time>
      </trkpt>
      <trkpt lat="42.83926" lon="1.83845">
        <ele>1921.058</ele>
        <time>2021-02-28T11:30:32Z</time>
      </trkpt>
      <trkpt lat="42.83925" lon="1.83843">
        <ele>1921.676</ele>
        <time>2021-02-28T11:30:34Z</time>
      </trkpt>
      <trkpt lat="42.83925" lon="1.83843">
        <ele>1921.494</ele>
        <time>2021-02-28T11:30:36Z</time>
      </trkpt>
      <trkpt lat="42.83925" lon="1.83843">
        <ele>1921.068</ele>
        <time>2021-02-28T11:30:38Z</time>
      </trkpt>
      <trkpt lat="42.83925" lon="1.83843">
        <ele>1921.053</ele>
        <time>2021-02-28T11:30:40Z</time>
      </trkpt>
      <trkpt lat="42.83924" lon="1.83842">
        <ele>1920.649</ele>
        <time>2021-02-28T11:30:42Z</time>
      </trkpt>
      <trkpt lat="42.83923" lon="1.83841">
        <ele>1920.123</ele>
        <time>2021-02-28T11:30:44Z</time>
      </trkpt>
      <trkpt lat="42.83923" lon="1.8384">
        <ele>1920.038</ele>
        <time>2021-02-28T11:30:46Z</time>
      </trkpt>
      <trkpt lat="42.83923" lon="1.8384">
        <ele>1920.136</ele>
        <time>2021-02-28T11:30:48Z</time>
      </trkpt>
      <trkpt lat="42.83923" lon="1.8384">
        <ele>1920.134</ele>
        <time>2021-02-28T11:30:50Z</time>
      </trkpt>
      <trkpt lat="42.83923" lon="1.8384">
        <ele>1920.139</ele>
        <time>2021-02-28T11:30:52Z</time>
      </trkpt>
      <trkpt lat="42.83923" lon="1.8384">
        <ele>1920.396</ele>
        <time>2021-02-28T11:30:54Z</time>
      </trkpt>
      <trkpt lat="42.83923" lon="1.8384">
        <ele>1920.699</ele>
        <time>2021-02-28T11:30:56Z</time>
      </trkpt>
      <trkpt lat="42.83923" lon="1.8384">
        <ele>1920.701</ele>
        <time>2021-02-28T11:30:58Z</time>
      </trkpt>
      <trkpt lat="42.83923" lon="1.8384">
        <ele>1920.778</ele>
        <time>2021-02-28T11:31:00Z</time>
      </trkpt>
      <trkpt lat="42.83924" lon="1.8384">
        <ele>1920.615</ele>
        <time>2021-02-28T11:31:02Z</time>
      </trkpt>
      <trkpt lat="42.83924" lon="1.83839">
        <ele>1920.606</ele>
        <time>2021-02-28T11:31:04Z</time>
      </trkpt>
      <trkpt lat="42.83924" lon="1.83839">
        <ele>1920.6</ele>
        <time>2021-02-28T11:31:06Z</time>
      </trkpt>
      <trkpt lat="42.83924" lon="1.83839">
        <ele>1920.599</ele>
        <time>2021-02-28T11:31:08Z</time>
      </trkpt>
      <trkpt lat="42.83924" lon="1.83839">
        <ele>1920.594</ele>
        <time>2021-02-28T11:31:10Z</time>
      </trkpt>
      <trkpt lat="42.83924" lon="1.83839">
        <ele>1920.596</ele>
        <time>2021-02-28T11:31:12Z</time>
      </trkpt>
      <trkpt lat="42.83924" lon="1.83839">
        <ele>1920.757</ele>
        <time>2021-02-28T11:31:14Z</time>
      </trkpt>
      <trkpt lat="42.83925" lon="1.83839">
        <ele>1921.22</ele>
        <time>2021-02-28T11:31:16Z</time>
      </trkpt>
      <trkpt lat="42.83925" lon="1.83838">
        <ele>1921.098</ele>
        <time>2021-02-28T11:31:18Z</time>
      </trkpt>
      <trkpt lat="42.83925" lon="1.83838">
        <ele>1921.278</ele>
        <time>2021-02-28T11:31:20Z</time>
      </trkpt>
      <trkpt lat="42.83924" lon="1.83837">
        <ele>1921.194</ele>
        <time>2021-02-28T11:31:22Z</time>
      </trkpt>
      <trkpt lat="42.83923" lon="1.83836">
        <ele>1920.899</ele>
        <time>2021-02-28T11:31:24Z</time>
      </trkpt>
      <trkpt lat="42.83922" lon="1.83835">
        <ele>1921.272</ele>
        <time>2021-02-28T11:31:26Z</time>
      </trkpt>
      <trkpt lat="42.83921" lon="1.83834">
        <ele>1921.239</ele>
        <time>2021-02-28T11:31:28Z</time>
      </trkpt>
      <trkpt lat="42.83921" lon="1.83834">
        <ele>1921.233</ele>
        <time>2021-02-28T11:31:30Z</time>
      </trkpt>
      <trkpt lat="42.83921" lon="1.83834">
        <ele>1921.228</ele>
        <time>2021-02-28T11:31:32Z</time>
      </trkpt>
      <trkpt lat="42.83921" lon="1.83834">
        <ele>1921.227</ele>
        <time>2021-02-28T11:31:34Z</time>
      </trkpt>
      <trkpt lat="42.83921" lon="1.83834">
        <ele>1921.227</ele>
        <time>2021-02-28T11:31:36Z</time>
      </trkpt>
      <trkpt lat="42.83921" lon="1.83832">
        <ele>1921.451</ele>
        <time>2021-02-28T11:31:38Z</time>
      </trkpt>
      <trkpt lat="42.83921" lon="1.8383">
        <ele>1921.371</ele>
        <time>2021-02-28T11:31:40Z</time>
      </trkpt>
      <trkpt lat="42.83922" lon="1.8383">
        <ele>1921.349</ele>
        <time>2021-02-28T11:31:42Z</time>
      </trkpt>
      <trkpt lat="42.83922" lon="1.8383">
        <ele>1921.348</ele>
        <time>2021-02-28T11:31:44Z</time>
      </trkpt>
      <trkpt lat="42.83922" lon="1.8383">
        <ele>1921.345</ele>
        <time>2021-02-28T11:31:47Z</time>
      </trkpt>
      <trkpt lat="42.83922" lon="1.8383">
        <ele>1921.348</ele>
        <time>2021-02-28T11:31:49Z</time>
      </trkpt>
      <trkpt lat="42.83922" lon="1.8383">
        <ele>1921.349</ele>
        <time>2021-02-28T11:31:51Z</time>
      </trkpt>
      <trkpt lat="42.83922" lon="1.8383">
        <ele>1921.347</ele>
        <time>2021-02-28T11:31:53Z</time>
      </trkpt>
      <trkpt lat="42.83922" lon="1.8383">
        <ele>1921.346</ele>
        <time>2021-02-28T11:31:55Z</time>
      </trkpt>
      <trkpt lat="42.83922" lon="1.8383">
        <ele>1921.346</ele>
        <time>2021-02-28T11:31:57Z</time>
      </trkpt>
      <trkpt lat="42.83922" lon="1.8383">
        <ele>1921.344</ele>
        <time>2021-02-28T11:31:59Z</time>
      </trkpt>
      <trkpt lat="42.83922" lon="1.8383">
        <ele>1921.346</ele>
        <time>2021-02-28T11:32:01Z</time>
      </trkpt>
      <trkpt lat="42.83922" lon="1.8383">
        <ele>1921.348</ele>
        <time>2021-02-28T11:32:03Z</time>
      </trkpt>
      <trkpt lat="42.83922" lon="1.8383">
        <ele>1921.345</ele>
        <time>2021-02-28T11:32:05Z</time>
      </trkpt>
      <trkpt lat="42.83922" lon="1.8383">
        <ele>1921.343</ele>
        <time>2021-02-28T11:32:07Z</time>
      </trkpt>
      <trkpt lat="42.83922" lon="1.8383">
        <ele>1921.343</ele>
        <time>2021-02-28T11:32:09Z</time>
      </trkpt>
      <trkpt lat="42.83922" lon="1.8383">
        <ele>1921.342</ele>
        <time>2021-02-28T11:32:11Z</time>
      </trkpt>
      <trkpt lat="42.83922" lon="1.8383">
        <ele>1921.238</ele>
        <time>2021-02-28T11:32:13Z</time>
      </trkpt>
      <trkpt lat="42.83923" lon="1.83828">
        <ele>1920.695</ele>
        <time>2021-02-28T11:32:15Z</time>
      </trkpt>
      <trkpt lat="42.83924" lon="1.83827">
        <ele>1920.579</ele>
        <time>2021-02-28T11:32:17Z</time>
      </trkpt>
      <trkpt lat="42.83926" lon="1.83827">
        <ele>1920.249</ele>
        <time>2021-02-28T11:32:19Z</time>
      </trkpt>
      <trkpt lat="42.83928" lon="1.83826">
        <ele>1920.223</ele>
        <time>2021-02-28T11:32:21Z</time>
      </trkpt>
      <trkpt lat="42.83929" lon="1.83825">
        <ele>1919.901</ele>
        <time>2021-02-28T11:32:23Z</time>
      </trkpt>
      <trkpt lat="42.83931" lon="1.83825">
        <ele>1919.399</ele>
        <time>2021-02-28T11:32:25Z</time>
      </trkpt>
      <trkpt lat="42.83933" lon="1.83824">
        <ele>1919.126</ele>
        <time>2021-02-28T11:32:27Z</time>
      </trkpt>
      <trkpt lat="42.83935" lon="1.83823">
        <ele>1918.473</ele>
        <time>2021-02-28T11:32:29Z</time>
      </trkpt>
      <trkpt lat="42.83937" lon="1.83822">
        <ele>1917.872</ele>
        <time>2021-02-28T11:32:31Z</time>
      </trkpt>
      <trkpt lat="42.83939" lon="1.83821">
        <ele>1917.5</ele>
        <time>2021-02-28T11:32:33Z</time>
      </trkpt>
      <trkpt lat="42.83941" lon="1.8382">
        <ele>1917.329</ele>
        <time>2021-02-28T11:32:35Z</time>
      </trkpt>
      <trkpt lat="42.83943" lon="1.83819">
        <ele>1916.69</ele>
        <time>2021-02-28T11:32:37Z</time>
      </trkpt>
      <trkpt lat="42.83945" lon="1.83819">
        <ele>1916.591</ele>
        <time>2021-02-28T11:32:39Z</time>
      </trkpt>
      <trkpt lat="42.83946" lon="1.83818">
        <ele>1916.563</ele>
        <time>2021-02-28T11:32:41Z</time>
      </trkpt>
      <trkpt lat="42.83948" lon="1.83818">
        <ele>1916.15</ele>
        <time>2021-02-28T11:32:43Z</time>
      </trkpt>
      <trkpt lat="42.83949" lon="1.83817">
        <ele>1915.546</ele>
        <time>2021-02-28T11:32:45Z</time>
      </trkpt>
      <trkpt lat="42.8395" lon="1.83816">
        <ele>1916.121</ele>
        <time>2021-02-28T11:32:47Z</time>
      </trkpt>
      <trkpt lat="42.83952" lon="1.83815">
        <ele>1916.018</ele>
        <time>2021-02-28T11:32:49Z</time>
      </trkpt>
      <trkpt lat="42.83954" lon="1.83815">
        <ele>1914.879</ele>
        <time>2021-02-28T11:32:51Z</time>
      </trkpt>
      <trkpt lat="42.83956" lon="1.83815">
        <ele>1913.685</ele>
        <time>2021-02-28T11:32:53Z</time>
      </trkpt>
      <trkpt lat="42.83958" lon="1.83814">
        <ele>1913.94</ele>
        <time>2021-02-28T11:32:55Z</time>
      </trkpt>
      <trkpt lat="42.83959" lon="1.83813">
        <ele>1913.877</ele>
        <time>2021-02-28T11:32:57Z</time>
      </trkpt>
      <trkpt lat="42.83961" lon="1.83813">
        <ele>1913.005</ele>
        <time>2021-02-28T11:32:59Z</time>
      </trkpt>
      <trkpt lat="42.83963" lon="1.83811">
        <ele>1912.546</ele>
        <time>2021-02-28T11:33:01Z</time>
      </trkpt>
      <trkpt lat="42.83964" lon="1.8381">
        <ele>1912.376</ele>
        <time>2021-02-28T11:33:03Z</time>
      </trkpt>
      <trkpt lat="42.83966" lon="1.83809">
        <ele>1912.058</ele>
        <time>2021-02-28T11:33:05Z</time>
      </trkpt>
      <trkpt lat="42.83966" lon="1.83808">
        <ele>1911.363</ele>
        <time>2021-02-28T11:33:07Z</time>
      </trkpt>
      <trkpt lat="42.83967" lon="1.83806">
        <ele>1910.955</ele>
        <time>2021-02-28T11:33:09Z</time>
      </trkpt>
      <trkpt lat="42.83969" lon="1.83805">
        <ele>1910.505</ele>
        <time>2021-02-28T11:33:11Z</time>
      </trkpt>
      <trkpt lat="42.83971" lon="1.83804">
        <ele>1910.299</ele>
        <time>2021-02-28T11:33:13Z</time>
      </trkpt>
      <trkpt lat="42.83972" lon="1.83804">
        <ele>1909.596</ele>
        <time>2021-02-28T11:33:15Z</time>
      </trkpt>
      <trkpt lat="42.83974" lon="1.83804">
        <ele>1909.112</ele>
        <time>2021-02-28T11:33:17Z</time>
      </trkpt>
      <trkpt lat="42.83975" lon="1.83803">
        <ele>1908.999</ele>
        <time>2021-02-28T11:33:18Z</time>
      </trkpt>
      <trkpt lat="42.83976" lon="1.83801">
        <ele>1908.426</ele>
        <time>2021-02-28T11:33:21Z</time>
      </trkpt>
      <trkpt lat="42.83978" lon="1.838">
        <ele>1908.299</ele>
        <time>2021-02-28T11:33:23Z</time>
      </trkpt>
      <trkpt lat="42.83979" lon="1.83798">
        <ele>1907.985</ele>
        <time>2021-02-28T11:33:25Z</time>
      </trkpt>
      <trkpt lat="42.8398" lon="1.83797">
        <ele>1906.942</ele>
        <time>2021-02-28T11:33:27Z</time>
      </trkpt>
      <trkpt lat="42.83981" lon="1.83796">
        <ele>1906.279</ele>
        <time>2021-02-28T11:33:29Z</time>
      </trkpt>
      <trkpt lat="42.83982" lon="1.83794">
        <ele>1905.599</ele>
        <time>2021-02-28T11:33:31Z</time>
      </trkpt>
      <trkpt lat="42.83984" lon="1.83793">
        <ele>1905.143</ele>
        <time>2021-02-28T11:33:33Z</time>
      </trkpt>
      <trkpt lat="42.83985" lon="1.83792">
        <ele>1904.774</ele>
        <time>2021-02-28T11:33:35Z</time>
      </trkpt>
      <trkpt lat="42.83987" lon="1.83793">
        <ele>1904.813</ele>
        <time>2021-02-28T11:33:37Z</time>
      </trkpt>
      <trkpt lat="42.83988" lon="1.83792">
        <ele>1904.625</ele>
        <time>2021-02-28T11:33:39Z</time>
      </trkpt>
      <trkpt lat="42.83989" lon="1.83792">
        <ele>1904.437</ele>
        <time>2021-02-28T11:33:41Z</time>
      </trkpt>
      <trkpt lat="42.83991" lon="1.83792">
        <ele>1903.667</ele>
        <time>2021-02-28T11:33:43Z</time>
      </trkpt>
      <trkpt lat="42.83991" lon="1.83792">
        <ele>1903.752</ele>
        <time>2021-02-28T11:33:45Z</time>
      </trkpt>
      <trkpt lat="42.83992" lon="1.83792">
        <ele>1903.863</ele>
        <time>2021-02-28T11:33:47Z</time>
      </trkpt>
      <trkpt lat="42.83992" lon="1.83792">
        <ele>1903.84</ele>
        <time>2021-02-28T11:33:49Z</time>
      </trkpt>
      <trkpt lat="42.83994" lon="1.83793">
        <ele>1903.515</ele>
        <time>2021-02-28T11:33:51Z</time>
      </trkpt>
      <trkpt lat="42.83995" lon="1.83792">
        <ele>1903.317</ele>
        <time>2021-02-28T11:33:53Z</time>
      </trkpt>
      <trkpt lat="42.83996" lon="1.83791">
        <ele>1903.748</ele>
        <time>2021-02-28T11:33:54Z</time>
      </trkpt>
      <trkpt lat="42.83997" lon="1.83791">
        <ele>1903.669</ele>
        <time>2021-02-28T11:33:57Z</time>
      </trkpt>
      <trkpt lat="42.83998" lon="1.83791">
        <ele>1903.543</ele>
        <time>2021-02-28T11:33:59Z</time>
      </trkpt>
      <trkpt lat="42.83998" lon="1.8379">
        <ele>1903.217</ele>
        <time>2021-02-28T11:34:01Z</time>
      </trkpt>
      <trkpt lat="42.83999" lon="1.83789">
        <ele>1902.343</ele>
        <time>2021-02-28T11:34:03Z</time>
      </trkpt>
      <trkpt lat="42.83999" lon="1.83789">
        <ele>1901.931</ele>
        <time>2021-02-28T11:34:05Z</time>
      </trkpt>
      <trkpt lat="42.83999" lon="1.83788">
        <ele>1902.027</ele>
        <time>2021-02-28T11:34:06Z</time>
      </trkpt>
      <trkpt lat="42.84" lon="1.83786">
        <ele>1900.838</ele>
        <time>2021-02-28T11:34:13Z</time>
      </trkpt>
      <trkpt lat="42.84" lon="1.83786">
        <ele>1900.679</ele>
        <time>2021-02-28T11:34:15Z</time>
      </trkpt>
      <trkpt lat="42.84" lon="1.83785">
        <ele>1900.542</ele>
        <time>2021-02-28T11:34:17Z</time>
      </trkpt>
      <trkpt lat="42.84" lon="1.83785">
        <ele>1900.572</ele>
        <time>2021-02-28T11:34:19Z</time>
      </trkpt>
      <trkpt lat="42.84" lon="1.83785">
        <ele>1900.572</ele>
        <time>2021-02-28T11:34:21Z</time>
      </trkpt>
      <trkpt lat="42.83999" lon="1.83785">
        <ele>1900.443</ele>
        <time>2021-02-28T11:34:23Z</time>
      </trkpt>
      <trkpt lat="42.83999" lon="1.83785">
        <ele>1900.444</ele>
        <time>2021-02-28T11:34:25Z</time>
      </trkpt>
      <trkpt lat="42.83999" lon="1.83785">
        <ele>1900.443</ele>
        <time>2021-02-28T11:34:27Z</time>
      </trkpt>
      <trkpt lat="42.83998" lon="1.83785">
        <ele>1899.966</ele>
        <time>2021-02-28T11:34:29Z</time>
      </trkpt>
      <trkpt lat="42.83998" lon="1.83785">
        <ele>1899.927</ele>
        <time>2021-02-28T11:34:31Z</time>
      </trkpt>
      <trkpt lat="42.83998" lon="1.83784">
        <ele>1899.723</ele>
        <time>2021-02-28T11:34:33Z</time>
      </trkpt>
      <trkpt lat="42.83997" lon="1.83784">
        <ele>1899.144</ele>
        <time>2021-02-28T11:34:35Z</time>
      </trkpt>
      <trkpt lat="42.83996" lon="1.83785">
        <ele>1899.204</ele>
        <time>2021-02-28T11:34:37Z</time>
      </trkpt>
      <trkpt lat="42.83996" lon="1.83785">
        <ele>1899.201</ele>
        <time>2021-02-28T11:34:39Z</time>
      </trkpt>
      <trkpt lat="42.83996" lon="1.83785">
        <ele>1899.199</ele>
        <time>2021-02-28T11:34:41Z</time>
      </trkpt>
      <trkpt lat="42.83996" lon="1.83785">
        <ele>1899.195</ele>
        <time>2021-02-28T11:34:43Z</time>
      </trkpt>
      <trkpt lat="42.83996" lon="1.83785">
        <ele>1899.104</ele>
        <time>2021-02-28T11:34:45Z</time>
      </trkpt>
      <trkpt lat="42.83996" lon="1.83785">
        <ele>1899.241</ele>
        <time>2021-02-28T11:34:47Z</time>
      </trkpt>
      <trkpt lat="42.83996" lon="1.83785">
        <ele>1899.239</ele>
        <time>2021-02-28T11:34:49Z</time>
      </trkpt>
      <trkpt lat="42.83996" lon="1.83785">
        <ele>1899.24</ele>
        <time>2021-02-28T11:34:51Z</time>
      </trkpt>
      <trkpt lat="42.83996" lon="1.83785">
        <ele>1899.238</ele>
        <time>2021-02-28T11:34:53Z</time>
      </trkpt>
      <trkpt lat="42.83996" lon="1.83785">
        <ele>1899.237</ele>
        <time>2021-02-28T11:34:55Z</time>
      </trkpt>
      <trkpt lat="42.83996" lon="1.83785">
        <ele>1899.235</ele>
        <time>2021-02-28T11:34:57Z</time>
      </trkpt>
      <trkpt lat="42.83996" lon="1.83785">
        <ele>1899.237</ele>
        <time>2021-02-28T11:34:59Z</time>
      </trkpt>
      <trkpt lat="42.83996" lon="1.83785">
        <ele>1899.234</ele>
        <time>2021-02-28T11:35:01Z</time>
      </trkpt>
      <trkpt lat="42.83996" lon="1.83785">
        <ele>1899.232</ele>
        <time>2021-02-28T11:35:03Z</time>
      </trkpt>
      <trkpt lat="42.83996" lon="1.83785">
        <ele>1899.232</ele>
        <time>2021-02-28T11:35:05Z</time>
      </trkpt>
      <trkpt lat="42.83996" lon="1.83785">
        <ele>1899.233</ele>
        <time>2021-02-28T11:35:07Z</time>
      </trkpt>
      <trkpt lat="42.83996" lon="1.83785">
        <ele>1899.233</ele>
        <time>2021-02-28T11:35:09Z</time>
      </trkpt>
      <trkpt lat="42.83996" lon="1.83785">
        <ele>1899.231</ele>
        <time>2021-02-28T11:35:11Z</time>
      </trkpt>
      <trkpt lat="42.83996" lon="1.83785">
        <ele>1899.228</ele>
        <time>2021-02-28T11:35:13Z</time>
      </trkpt>
      <trkpt lat="42.83996" lon="1.83785">
        <ele>1899.229</ele>
        <time>2021-02-28T11:35:15Z</time>
      </trkpt>
      <trkpt lat="42.83996" lon="1.83785">
        <ele>1899.229</ele>
        <time>2021-02-28T11:35:17Z</time>
      </trkpt>
      <trkpt lat="42.83996" lon="1.83785">
        <ele>1899.074</ele>
        <time>2021-02-28T11:35:19Z</time>
      </trkpt>
      <trkpt lat="42.83996" lon="1.83785">
        <ele>1899.07</ele>
        <time>2021-02-28T11:35:21Z</time>
      </trkpt>
      <trkpt lat="42.83996" lon="1.83785">
        <ele>1899.064</ele>
        <time>2021-02-28T11:35:23Z</time>
      </trkpt>
      <trkpt lat="42.83996" lon="1.83785">
        <ele>1899.145</ele>
        <time>2021-02-28T11:35:25Z</time>
      </trkpt>
      <trkpt lat="42.83996" lon="1.83785">
        <ele>1899.266</ele>
        <time>2021-02-28T11:35:27Z</time>
      </trkpt>
      <trkpt lat="42.83996" lon="1.83786">
        <ele>1899.042</ele>
        <time>2021-02-28T11:35:29Z</time>
      </trkpt>
      <trkpt lat="42.83996" lon="1.83786">
        <ele>1899.041</ele>
        <time>2021-02-28T11:35:31Z</time>
      </trkpt>
      <trkpt lat="42.83996" lon="1.83786">
        <ele>1899.039</ele>
        <time>2021-02-28T11:35:33Z</time>
      </trkpt>
      <trkpt lat="42.83996" lon="1.83786">
        <ele>1899.04</ele>
        <time>2021-02-28T11:35:35Z</time>
      </trkpt>
      <trkpt lat="42.83996" lon="1.83786">
        <ele>1899.04</ele>
        <time>2021-02-28T11:35:37Z</time>
      </trkpt>
      <trkpt lat="42.83996" lon="1.83786">
        <ele>1899.129</ele>
        <time>2021-02-28T11:35:39Z</time>
      </trkpt>
      <trkpt lat="42.83996" lon="1.83786">
        <ele>1898.969</ele>
        <time>2021-02-28T11:35:41Z</time>
      </trkpt>
      <trkpt lat="42.83996" lon="1.83786">
        <ele>1899.123</ele>
        <time>2021-02-28T11:35:43Z</time>
      </trkpt>
      <trkpt lat="42.83996" lon="1.83786">
        <ele>1899.124</ele>
        <time>2021-02-28T11:35:45Z</time>
      </trkpt>
      <trkpt lat="42.83996" lon="1.83786">
        <ele>1899.164</ele>
        <time>2021-02-28T11:35:47Z</time>
      </trkpt>
      <trkpt lat="42.83996" lon="1.83786">
        <ele>1899.163</ele>
        <time>2021-02-28T11:35:49Z</time>
      </trkpt>
      <trkpt lat="42.83996" lon="1.83786">
        <ele>1899.163</ele>
        <time>2021-02-28T11:35:51Z</time>
      </trkpt>
      <trkpt lat="42.83996" lon="1.83786">
        <ele>1899.165</ele>
        <time>2021-02-28T11:35:53Z</time>
      </trkpt>
      <trkpt lat="42.83996" lon="1.83786">
        <ele>1899.168</ele>
        <time>2021-02-28T11:35:55Z</time>
      </trkpt>
      <trkpt lat="42.83996" lon="1.83786">
        <ele>1899.172</ele>
        <time>2021-02-28T11:35:57Z</time>
      </trkpt>
      <trkpt lat="42.83996" lon="1.83786">
        <ele>1899.172</ele>
        <time>2021-02-28T11:35:59Z</time>
      </trkpt>
      <trkpt lat="42.83996" lon="1.83786">
        <ele>1899.169</ele>
        <time>2021-02-28T11:36:01Z</time>
      </trkpt>
      <trkpt lat="42.83996" lon="1.83786">
        <ele>1899.171</ele>
        <time>2021-02-28T11:36:03Z</time>
      </trkpt>
      <trkpt lat="42.83996" lon="1.83786">
        <ele>1899.172</ele>
        <time>2021-02-28T11:36:05Z</time>
      </trkpt>
      <trkpt lat="42.83996" lon="1.83786">
        <ele>1899.17</ele>
        <time>2021-02-28T11:36:07Z</time>
      </trkpt>
      <trkpt lat="42.83996" lon="1.83786">
        <ele>1899.171</ele>
        <time>2021-02-28T11:36:09Z</time>
      </trkpt>
      <trkpt lat="42.83996" lon="1.83786">
        <ele>1899.172</ele>
        <time>2021-02-28T11:36:11Z</time>
      </trkpt>
      <trkpt lat="42.83996" lon="1.83786">
        <ele>1899.172</ele>
        <time>2021-02-28T11:36:13Z</time>
      </trkpt>
      <trkpt lat="42.83996" lon="1.83786">
        <ele>1899.171</ele>
        <time>2021-02-28T11:36:15Z</time>
      </trkpt>
      <trkpt lat="42.83996" lon="1.83786">
        <ele>1899.172</ele>
        <time>2021-02-28T11:36:17Z</time>
      </trkpt>
      <trkpt lat="42.83996" lon="1.83786">
        <ele>1899.171</ele>
        <time>2021-02-28T11:36:19Z</time>
      </trkpt>
      <trkpt lat="42.83996" lon="1.83786">
        <ele>1899.171</ele>
        <time>2021-02-28T11:36:21Z</time>
      </trkpt>
      <trkpt lat="42.83996" lon="1.83786">
        <ele>1899.172</ele>
        <time>2021-02-28T11:36:23Z</time>
      </trkpt>
      <trkpt lat="42.83996" lon="1.83786">
        <ele>1899.177</ele>
        <time>2021-02-28T11:36:25Z</time>
      </trkpt>
      <trkpt lat="42.83996" lon="1.83786">
        <ele>1899.178</ele>
        <time>2021-02-28T11:36:27Z</time>
      </trkpt>
      <trkpt lat="42.83996" lon="1.83786">
        <ele>1899.179</ele>
        <time>2021-02-28T11:36:29Z</time>
      </trkpt>
      <trkpt lat="42.83996" lon="1.83786">
        <ele>1899.179</ele>
        <time>2021-02-28T11:36:31Z</time>
      </trkpt>
      <trkpt lat="42.83996" lon="1.83786">
        <ele>1899.181</ele>
        <time>2021-02-28T11:36:33Z</time>
      </trkpt>
      <trkpt lat="42.83996" lon="1.83786">
        <ele>1899.177</ele>
        <time>2021-02-28T11:36:35Z</time>
      </trkpt>
      <trkpt lat="42.83996" lon="1.83786">
        <ele>1899.177</ele>
        <time>2021-02-28T11:36:37Z</time>
      </trkpt>
      <trkpt lat="42.83996" lon="1.83786">
        <ele>1899.177</ele>
        <time>2021-02-28T11:36:39Z</time>
      </trkpt>
      <trkpt lat="42.83996" lon="1.83786">
        <ele>1899.178</ele>
        <time>2021-02-28T11:36:41Z</time>
      </trkpt>
      <trkpt lat="42.83996" lon="1.83786">
        <ele>1899.179</ele>
        <time>2021-02-28T11:36:43Z</time>
      </trkpt>
      <trkpt lat="42.83996" lon="1.83786">
        <ele>1899.177</ele>
        <time>2021-02-28T11:36:45Z</time>
      </trkpt>
      <trkpt lat="42.83996" lon="1.83786">
        <ele>1899.176</ele>
        <time>2021-02-28T11:36:47Z</time>
      </trkpt>
      <trkpt lat="42.83996" lon="1.83786">
        <ele>1899.177</ele>
        <time>2021-02-28T11:36:49Z</time>
      </trkpt>
      <trkpt lat="42.83996" lon="1.83786">
        <ele>1899.181</ele>
        <time>2021-02-28T11:36:51Z</time>
      </trkpt>
      <trkpt lat="42.83996" lon="1.83786">
        <ele>1899.18</ele>
        <time>2021-02-28T11:36:53Z</time>
      </trkpt>
      <trkpt lat="42.83996" lon="1.83786">
        <ele>1899.175</ele>
        <time>2021-02-28T11:36:55Z</time>
      </trkpt>
      <trkpt lat="42.83996" lon="1.83786">
        <ele>1899.174</ele>
        <time>2021-02-28T11:36:57Z</time>
      </trkpt>
      <trkpt lat="42.83996" lon="1.83786">
        <ele>1899.175</ele>
        <time>2021-02-28T11:36:59Z</time>
      </trkpt>
      <trkpt lat="42.83996" lon="1.83786">
        <ele>1899.173</ele>
        <time>2021-02-28T11:37:01Z</time>
      </trkpt>
      <trkpt lat="42.83996" lon="1.83786">
        <ele>1899.023</ele>
        <time>2021-02-28T11:37:03Z</time>
      </trkpt>
      <trkpt lat="42.83996" lon="1.83786">
        <ele>1899.006</ele>
        <time>2021-02-28T11:37:05Z</time>
      </trkpt>
      <trkpt lat="42.83996" lon="1.83786">
        <ele>1898.939</ele>
        <time>2021-02-28T11:37:07Z</time>
      </trkpt>
      <trkpt lat="42.83996" lon="1.83785">
        <ele>1898.931</ele>
        <time>2021-02-28T11:37:09Z</time>
      </trkpt>
      <trkpt lat="42.83996" lon="1.83785">
        <ele>1898.934</ele>
        <time>2021-02-28T11:37:11Z</time>
      </trkpt>
      <trkpt lat="42.83996" lon="1.83785">
        <ele>1898.938</ele>
        <time>2021-02-28T11:37:13Z</time>
      </trkpt>
      <trkpt lat="42.83996" lon="1.83785">
        <ele>1898.938</ele>
        <time>2021-02-28T11:37:15Z</time>
      </trkpt>
      <trkpt lat="42.83996" lon="1.83785">
        <ele>1898.936</ele>
        <time>2021-02-28T11:37:17Z</time>
      </trkpt>
      <trkpt lat="42.83996" lon="1.83785">
        <ele>1898.939</ele>
        <time>2021-02-28T11:37:19Z</time>
      </trkpt>
      <trkpt lat="42.83996" lon="1.83786">
        <ele>1898.947</ele>
        <time>2021-02-28T11:37:21Z</time>
      </trkpt>
      <trkpt lat="42.83996" lon="1.83786">
        <ele>1898.947</ele>
        <time>2021-02-28T11:37:23Z</time>
      </trkpt>
      <trkpt lat="42.83996" lon="1.83786">
        <ele>1898.868</ele>
        <time>2021-02-28T11:37:25Z</time>
      </trkpt>
      <trkpt lat="42.83996" lon="1.83786">
        <ele>1899.099</ele>
        <time>2021-02-28T11:37:27Z</time>
      </trkpt>
      <trkpt lat="42.83996" lon="1.83786">
        <ele>1899</ele>
        <time>2021-02-28T11:37:29Z</time>
      </trkpt>
      <trkpt lat="42.83996" lon="1.83786">
        <ele>1899.004</ele>
        <time>2021-02-28T11:37:31Z</time>
      </trkpt>
      <trkpt lat="42.83996" lon="1.83786">
        <ele>1899.004</ele>
        <time>2021-02-28T11:37:33Z</time>
      </trkpt>
      <trkpt lat="42.83996" lon="1.83786">
        <ele>1899</ele>
        <time>2021-02-28T11:37:35Z</time>
      </trkpt>
      <trkpt lat="42.83996" lon="1.83786">
        <ele>1899</ele>
        <time>2021-02-28T11:37:37Z</time>
      </trkpt>
      <trkpt lat="42.83996" lon="1.83786">
        <ele>1899</ele>
        <time>2021-02-28T11:37:39Z</time>
      </trkpt>
      <trkpt lat="42.83996" lon="1.83786">
        <ele>1898.998</ele>
        <time>2021-02-28T11:37:41Z</time>
      </trkpt>
      <trkpt lat="42.83996" lon="1.83786">
        <ele>1898.997</ele>
        <time>2021-02-28T11:37:43Z</time>
      </trkpt>
      <trkpt lat="42.83996" lon="1.83786">
        <ele>1898.994</ele>
        <time>2021-02-28T11:37:45Z</time>
      </trkpt>
      <trkpt lat="42.83996" lon="1.83786">
        <ele>1898.996</ele>
        <time>2021-02-28T11:37:47Z</time>
      </trkpt>
      <trkpt lat="42.83996" lon="1.83786">
        <ele>1899</ele>
        <time>2021-02-28T11:37:49Z</time>
      </trkpt>
      <trkpt lat="42.83996" lon="1.83786">
        <ele>1899.001</ele>
        <time>2021-02-28T11:37:51Z</time>
      </trkpt>
      <trkpt lat="42.83996" lon="1.83786">
        <ele>1899.003</ele>
        <time>2021-02-28T11:37:53Z</time>
      </trkpt>
      <trkpt lat="42.83996" lon="1.83786">
        <ele>1899.007</ele>
        <time>2021-02-28T11:37:55Z</time>
      </trkpt>
      <trkpt lat="42.83996" lon="1.83786">
        <ele>1899.008</ele>
        <time>2021-02-28T11:37:57Z</time>
      </trkpt>
      <trkpt lat="42.83996" lon="1.83786">
        <ele>1899.006</ele>
        <time>2021-02-28T11:37:59Z</time>
      </trkpt>
      <trkpt lat="42.83996" lon="1.83786">
        <ele>1899.007</ele>
        <time>2021-02-28T11:38:01Z</time>
      </trkpt>
      <trkpt lat="42.83996" lon="1.83786">
        <ele>1899.01</ele>
        <time>2021-02-28T11:38:03Z</time>
      </trkpt>
      <trkpt lat="42.83996" lon="1.83786">
        <ele>1899.011</ele>
        <time>2021-02-28T11:38:05Z</time>
      </trkpt>
      <trkpt lat="42.83996" lon="1.83786">
        <ele>1899.01</ele>
        <time>2021-02-28T11:38:07Z</time>
      </trkpt>
      <trkpt lat="42.83996" lon="1.83786">
        <ele>1899.011</ele>
        <time>2021-02-28T11:38:09Z</time>
      </trkpt>
      <trkpt lat="42.83996" lon="1.83786">
        <ele>1899.011</ele>
        <time>2021-02-28T11:38:11Z</time>
      </trkpt>
      <trkpt lat="42.83996" lon="1.83786">
        <ele>1899.013</ele>
        <time>2021-02-28T11:38:13Z</time>
      </trkpt>
      <trkpt lat="42.83996" lon="1.83786">
        <ele>1899.011</ele>
        <time>2021-02-28T11:38:15Z</time>
      </trkpt>
      <trkpt lat="42.83996" lon="1.83786">
        <ele>1899.009</ele>
        <time>2021-02-28T11:38:17Z</time>
      </trkpt>
      <trkpt lat="42.83996" lon="1.83786">
        <ele>1899.011</ele>
        <time>2021-02-28T11:38:19Z</time>
      </trkpt>
      <trkpt lat="42.83996" lon="1.83786">
        <ele>1899.012</ele>
        <time>2021-02-28T11:38:21Z</time>
      </trkpt>
      <trkpt lat="42.83996" lon="1.83786">
        <ele>1899.016</ele>
        <time>2021-02-28T11:38:23Z</time>
      </trkpt>
      <trkpt lat="42.83996" lon="1.83786">
        <ele>1899.015</ele>
        <time>2021-02-28T11:38:25Z</time>
      </trkpt>
      <trkpt lat="42.83996" lon="1.83786">
        <ele>1899.019</ele>
        <time>2021-02-28T11:38:27Z</time>
      </trkpt>
      <trkpt lat="42.83996" lon="1.83786">
        <ele>1899.018</ele>
        <time>2021-02-28T11:38:29Z</time>
      </trkpt>
      <trkpt lat="42.83996" lon="1.83786">
        <ele>1899.018</ele>
        <time>2021-02-28T11:38:31Z</time>
      </trkpt>
      <trkpt lat="42.83996" lon="1.83786">
        <ele>1899.02</ele>
        <time>2021-02-28T11:38:33Z</time>
      </trkpt>
      <trkpt lat="42.83996" lon="1.83786">
        <ele>1899.019</ele>
        <time>2021-02-28T11:38:35Z</time>
      </trkpt>
      <trkpt lat="42.83996" lon="1.83786">
        <ele>1899.021</ele>
        <time>2021-02-28T11:38:37Z</time>
      </trkpt>
      <trkpt lat="42.83996" lon="1.83786">
        <ele>1899.018</ele>
        <time>2021-02-28T11:38:39Z</time>
      </trkpt>
      <trkpt lat="42.83996" lon="1.83786">
        <ele>1899.014</ele>
        <time>2021-02-28T11:38:41Z</time>
      </trkpt>
      <trkpt lat="42.83996" lon="1.83786">
        <ele>1899.015</ele>
        <time>2021-02-28T11:38:43Z</time>
      </trkpt>
      <trkpt lat="42.83996" lon="1.83786">
        <ele>1899.015</ele>
        <time>2021-02-28T11:38:45Z</time>
      </trkpt>
      <trkpt lat="42.83996" lon="1.83786">
        <ele>1899.013</ele>
        <time>2021-02-28T11:38:47Z</time>
      </trkpt>
      <trkpt lat="42.83996" lon="1.83786">
        <ele>1899.012</ele>
        <time>2021-02-28T11:38:49Z</time>
      </trkpt>
      <trkpt lat="42.83996" lon="1.83786">
        <ele>1899.013</ele>
        <time>2021-02-28T11:38:51Z</time>
      </trkpt>
      <trkpt lat="42.83996" lon="1.83786">
        <ele>1899.015</ele>
        <time>2021-02-28T11:38:53Z</time>
      </trkpt>
      <trkpt lat="42.83995" lon="1.83786">
        <ele>1899.255</ele>
        <time>2021-02-28T11:38:55Z</time>
      </trkpt>
      <trkpt lat="42.83995" lon="1.83787">
        <ele>1899.264</ele>
        <time>2021-02-28T11:38:57Z</time>
      </trkpt>
      <trkpt lat="42.83995" lon="1.83787">
        <ele>1899.268</ele>
        <time>2021-02-28T11:38:59Z</time>
      </trkpt>
      <trkpt lat="42.83995" lon="1.83787">
        <ele>1899.267</ele>
        <time>2021-02-28T11:39:01Z</time>
      </trkpt>
      <trkpt lat="42.83995" lon="1.83787">
        <ele>1899.267</ele>
        <time>2021-02-28T11:39:03Z</time>
      </trkpt>
      <trkpt lat="42.83995" lon="1.83787">
        <ele>1899.27</ele>
        <time>2021-02-28T11:39:05Z</time>
      </trkpt>
      <trkpt lat="42.83995" lon="1.83787">
        <ele>1899.27</ele>
        <time>2021-02-28T11:39:07Z</time>
      </trkpt>
      <trkpt lat="42.83995" lon="1.83787">
        <ele>1899.268</ele>
        <time>2021-02-28T11:39:09Z</time>
      </trkpt>
      <trkpt lat="42.83995" lon="1.83787">
        <ele>1899.271</ele>
        <time>2021-02-28T11:39:11Z</time>
      </trkpt>
      <trkpt lat="42.83995" lon="1.83787">
        <ele>1899.27</ele>
        <time>2021-02-28T11:39:13Z</time>
      </trkpt>
      <trkpt lat="42.83995" lon="1.83787">
        <ele>1899.272</ele>
        <time>2021-02-28T11:39:15Z</time>
      </trkpt>
      <trkpt lat="42.83995" lon="1.83787">
        <ele>1899.271</ele>
        <time>2021-02-28T11:39:17Z</time>
      </trkpt>
      <trkpt lat="42.83995" lon="1.83787">
        <ele>1899.272</ele>
        <time>2021-02-28T11:39:19Z</time>
      </trkpt>
      <trkpt lat="42.83995" lon="1.83787">
        <ele>1899.273</ele>
        <time>2021-02-28T11:39:21Z</time>
      </trkpt>
      <trkpt lat="42.83995" lon="1.83787">
        <ele>1899.275</ele>
        <time>2021-02-28T11:39:23Z</time>
      </trkpt>
      <trkpt lat="42.83995" lon="1.83787">
        <ele>1899.278</ele>
        <time>2021-02-28T11:39:25Z</time>
      </trkpt>
      <trkpt lat="42.83995" lon="1.83787">
        <ele>1899.278</ele>
        <time>2021-02-28T11:39:27Z</time>
      </trkpt>
      <trkpt lat="42.83995" lon="1.83787">
        <ele>1899.279</ele>
        <time>2021-02-28T11:39:29Z</time>
      </trkpt>
      <trkpt lat="42.83995" lon="1.83787">
        <ele>1899.277</ele>
        <time>2021-02-28T11:39:31Z</time>
      </trkpt>
      <trkpt lat="42.83995" lon="1.83787">
        <ele>1899.278</ele>
        <time>2021-02-28T11:39:33Z</time>
      </trkpt>
      <trkpt lat="42.83995" lon="1.83787">
        <ele>1899.278</ele>
        <time>2021-02-28T11:39:35Z</time>
      </trkpt>
      <trkpt lat="42.83995" lon="1.83787">
        <ele>1899.278</ele>
        <time>2021-02-28T11:39:37Z</time>
      </trkpt>
      <trkpt lat="42.83995" lon="1.83787">
        <ele>1899.277</ele>
        <time>2021-02-28T11:39:39Z</time>
      </trkpt>
      <trkpt lat="42.83995" lon="1.83787">
        <ele>1899.279</ele>
        <time>2021-02-28T11:39:41Z</time>
      </trkpt>
      <trkpt lat="42.83995" lon="1.83787">
        <ele>1899.279</ele>
        <time>2021-02-28T11:39:43Z</time>
      </trkpt>
      <trkpt lat="42.83995" lon="1.83787">
        <ele>1899.278</ele>
        <time>2021-02-28T11:39:45Z</time>
      </trkpt>
      <trkpt lat="42.83995" lon="1.83787">
        <ele>1899.278</ele>
        <time>2021-02-28T11:39:47Z</time>
      </trkpt>
      <trkpt lat="42.83996" lon="1.83787">
        <ele>1899.276</ele>
        <time>2021-02-28T11:39:49Z</time>
      </trkpt>
      <trkpt lat="42.83995" lon="1.83787">
        <ele>1899.275</ele>
        <time>2021-02-28T11:39:51Z</time>
      </trkpt>
      <trkpt lat="42.83996" lon="1.83787">
        <ele>1899.277</ele>
        <time>2021-02-28T11:39:53Z</time>
      </trkpt>
      <trkpt lat="42.83996" lon="1.83787">
        <ele>1899.277</ele>
        <time>2021-02-28T11:39:55Z</time>
      </trkpt>
      <trkpt lat="42.83996" lon="1.83787">
        <ele>1899.276</ele>
        <time>2021-02-28T11:39:57Z</time>
      </trkpt>
      <trkpt lat="42.83996" lon="1.83787">
        <ele>1899.277</ele>
        <time>2021-02-28T11:39:59Z</time>
      </trkpt>
      <trkpt lat="42.83996" lon="1.83787">
        <ele>1899.275</ele>
        <time>2021-02-28T11:40:01Z</time>
      </trkpt>
      <trkpt lat="42.83996" lon="1.83787">
        <ele>1899.273</ele>
        <time>2021-02-28T11:40:03Z</time>
      </trkpt>
      <trkpt lat="42.83996" lon="1.83787">
        <ele>1899.273</ele>
        <time>2021-02-28T11:40:05Z</time>
      </trkpt>
      <trkpt lat="42.83996" lon="1.83787">
        <ele>1899.274</ele>
        <time>2021-02-28T11:40:06Z</time>
      </trkpt>
      <trkpt lat="42.83996" lon="1.83787">
        <ele>1899.276</ele>
        <time>2021-02-28T11:40:09Z</time>
      </trkpt>
      <trkpt lat="42.83996" lon="1.83787">
        <ele>1899.276</ele>
        <time>2021-02-28T11:40:11Z</time>
      </trkpt>
      <trkpt lat="42.83996" lon="1.83787">
        <ele>1899.278</ele>
        <time>2021-02-28T11:40:13Z</time>
      </trkpt>
      <trkpt lat="42.83996" lon="1.83787">
        <ele>1899.274</ele>
        <time>2021-02-28T11:40:15Z</time>
      </trkpt>
      <trkpt lat="42.83996" lon="1.83787">
        <ele>1899.273</ele>
        <time>2021-02-28T11:40:17Z</time>
      </trkpt>
      <trkpt lat="42.83996" lon="1.83787">
        <ele>1899.274</ele>
        <time>2021-02-28T11:40:19Z</time>
      </trkpt>
      <trkpt lat="42.83996" lon="1.83787">
        <ele>1899.277</ele>
        <time>2021-02-28T11:40:21Z</time>
      </trkpt>
      <trkpt lat="42.83996" lon="1.83787">
        <ele>1899.277</ele>
        <time>2021-02-28T11:40:23Z</time>
      </trkpt>
      <trkpt lat="42.83996" lon="1.83787">
        <ele>1899.273</ele>
        <time>2021-02-28T11:40:25Z</time>
      </trkpt>
      <trkpt lat="42.83996" lon="1.83787">
        <ele>1899.271</ele>
        <time>2021-02-28T11:40:27Z</time>
      </trkpt>
      <trkpt lat="42.83996" lon="1.83787">
        <ele>1899.269</ele>
        <time>2021-02-28T11:40:29Z</time>
      </trkpt>
      <trkpt lat="42.83996" lon="1.83787">
        <ele>1899.269</ele>
        <time>2021-02-28T11:40:31Z</time>
      </trkpt>
      <trkpt lat="42.83996" lon="1.83787">
        <ele>1899.268</ele>
        <time>2021-02-28T11:40:33Z</time>
      </trkpt>
      <trkpt lat="42.83996" lon="1.83787">
        <ele>1899.268</ele>
        <time>2021-02-28T11:40:35Z</time>
      </trkpt>
      <trkpt lat="42.83996" lon="1.83787">
        <ele>1899.267</ele>
        <time>2021-02-28T11:40:37Z</time>
      </trkpt>
      <trkpt lat="42.83996" lon="1.83787">
        <ele>1899.264</ele>
        <time>2021-02-28T11:40:39Z</time>
      </trkpt>
      <trkpt lat="42.83996" lon="1.83787">
        <ele>1899.264</ele>
        <time>2021-02-28T11:40:41Z</time>
      </trkpt>
      <trkpt lat="42.83996" lon="1.83787">
        <ele>1899.263</ele>
        <time>2021-02-28T11:40:43Z</time>
      </trkpt>
      <trkpt lat="42.83996" lon="1.83787">
        <ele>1899.261</ele>
        <time>2021-02-28T11:40:45Z</time>
      </trkpt>
      <trkpt lat="42.83996" lon="1.83787">
        <ele>1899.259</ele>
        <time>2021-02-28T11:40:47Z</time>
      </trkpt>
      <trkpt lat="42.83996" lon="1.83787">
        <ele>1899.257</ele>
        <time>2021-02-28T11:40:49Z</time>
      </trkpt>
      <trkpt lat="42.83996" lon="1.83787">
        <ele>1899.252</ele>
        <time>2021-02-28T11:40:51Z</time>
      </trkpt>
      <trkpt lat="42.83996" lon="1.83787">
        <ele>1899.252</ele>
        <time>2021-02-28T11:40:53Z</time>
      </trkpt>
      <trkpt lat="42.83996" lon="1.83787">
        <ele>1899.25</ele>
        <time>2021-02-28T11:40:55Z</time>
      </trkpt>
      <trkpt lat="42.83996" lon="1.83787">
        <ele>1899.249</ele>
        <time>2021-02-28T11:40:57Z</time>
      </trkpt>
      <trkpt lat="42.83996" lon="1.83787">
        <ele>1899.252</ele>
        <time>2021-02-28T11:40:59Z</time>
      </trkpt>
      <trkpt lat="42.83996" lon="1.83787">
        <ele>1899.253</ele>
        <time>2021-02-28T11:41:01Z</time>
      </trkpt>
      <trkpt lat="42.83996" lon="1.83787">
        <ele>1899.253</ele>
        <time>2021-02-28T11:41:03Z</time>
      </trkpt>
      <trkpt lat="42.83996" lon="1.83787">
        <ele>1899.253</ele>
        <time>2021-02-28T11:41:05Z</time>
      </trkpt>
      <trkpt lat="42.83996" lon="1.83787">
        <ele>1899.25</ele>
        <time>2021-02-28T11:41:07Z</time>
      </trkpt>
      <trkpt lat="42.83996" lon="1.83787">
        <ele>1899.247</ele>
        <time>2021-02-28T11:41:09Z</time>
      </trkpt>
      <trkpt lat="42.83996" lon="1.83787">
        <ele>1899.245</ele>
        <time>2021-02-28T11:41:11Z</time>
      </trkpt>
      <trkpt lat="42.83996" lon="1.83787">
        <ele>1899.245</ele>
        <time>2021-02-28T11:41:13Z</time>
      </trkpt>
      <trkpt lat="42.83996" lon="1.83787">
        <ele>1899.245</ele>
        <time>2021-02-28T11:41:15Z</time>
      </trkpt>
      <trkpt lat="42.83996" lon="1.83787">
        <ele>1899.245</ele>
        <time>2021-02-28T11:41:17Z</time>
      </trkpt>
      <trkpt lat="42.83996" lon="1.83787">
        <ele>1899.245</ele>
        <time>2021-02-28T11:41:19Z</time>
      </trkpt>
      <trkpt lat="42.83996" lon="1.83787">
        <ele>1899.245</ele>
        <time>2021-02-28T11:41:21Z</time>
      </trkpt>
      <trkpt lat="42.83996" lon="1.83787">
        <ele>1899.243</ele>
        <time>2021-02-28T11:41:23Z</time>
      </trkpt>
      <trkpt lat="42.83996" lon="1.83787">
        <ele>1899.242</ele>
        <time>2021-02-28T11:41:25Z</time>
      </trkpt>
      <trkpt lat="42.83996" lon="1.83787">
        <ele>1899.243</ele>
        <time>2021-02-28T11:41:27Z</time>
      </trkpt>
      <trkpt lat="42.83996" lon="1.83787">
        <ele>1899.243</ele>
        <time>2021-02-28T11:41:29Z</time>
      </trkpt>
      <trkpt lat="42.83996" lon="1.83787">
        <ele>1899.246</ele>
        <time>2021-02-28T11:41:31Z</time>
      </trkpt>
      <trkpt lat="42.83996" lon="1.83787">
        <ele>1899.247</ele>
        <time>2021-02-28T11:41:33Z</time>
      </trkpt>
      <trkpt lat="42.83996" lon="1.83787">
        <ele>1899.25</ele>
        <time>2021-02-28T11:41:35Z</time>
      </trkpt>
      <trkpt lat="42.83996" lon="1.83787">
        <ele>1899.251</ele>
        <time>2021-02-28T11:41:37Z</time>
      </trkpt>
      <trkpt lat="42.83996" lon="1.83787">
        <ele>1899.251</ele>
        <time>2021-02-28T11:41:39Z</time>
      </trkpt>
      <trkpt lat="42.83996" lon="1.83787">
        <ele>1899.252</ele>
        <time>2021-02-28T11:41:41Z</time>
      </trkpt>
      <trkpt lat="42.83996" lon="1.83787">
        <ele>1899.249</ele>
        <time>2021-02-28T11:41:43Z</time>
      </trkpt>
      <trkpt lat="42.83996" lon="1.83787">
        <ele>1899.251</ele>
        <time>2021-02-28T11:41:45Z</time>
      </trkpt>
      <trkpt lat="42.83996" lon="1.83787">
        <ele>1899.25</ele>
        <time>2021-02-28T11:41:47Z</time>
      </trkpt>
      <trkpt lat="42.83996" lon="1.83787">
        <ele>1899.249</ele>
        <time>2021-02-28T11:41:49Z</time>
      </trkpt>
      <trkpt lat="42.83996" lon="1.83786">
        <ele>1899.247</ele>
        <time>2021-02-28T11:41:51Z</time>
      </trkpt>
      <trkpt lat="42.83996" lon="1.83786">
        <ele>1899.246</ele>
        <time>2021-02-28T11:41:53Z</time>
      </trkpt>
      <trkpt lat="42.83996" lon="1.83786">
        <ele>1899.247</ele>
        <time>2021-02-28T11:41:55Z</time>
      </trkpt>
      <trkpt lat="42.83996" lon="1.83786">
        <ele>1899.244</ele>
        <time>2021-02-28T11:41:57Z</time>
      </trkpt>
      <trkpt lat="42.83996" lon="1.83786">
        <ele>1899.244</ele>
        <time>2021-02-28T11:41:59Z</time>
      </trkpt>
      <trkpt lat="42.83996" lon="1.83786">
        <ele>1899.241</ele>
        <time>2021-02-28T11:42:01Z</time>
      </trkpt>
      <trkpt lat="42.83996" lon="1.83786">
        <ele>1899.242</ele>
        <time>2021-02-28T11:42:03Z</time>
      </trkpt>
      <trkpt lat="42.83996" lon="1.83786">
        <ele>1899.242</ele>
        <time>2021-02-28T11:42:05Z</time>
      </trkpt>
      <trkpt lat="42.83996" lon="1.83786">
        <ele>1899.241</ele>
        <time>2021-02-28T11:42:07Z</time>
      </trkpt>
      <trkpt lat="42.83996" lon="1.83786">
        <ele>1899.24</ele>
        <time>2021-02-28T11:42:09Z</time>
      </trkpt>
      <trkpt lat="42.83996" lon="1.83786">
        <ele>1899.239</ele>
        <time>2021-02-28T11:42:11Z</time>
      </trkpt>
      <trkpt lat="42.83996" lon="1.83786">
        <ele>1899.238</ele>
        <time>2021-02-28T11:42:13Z</time>
      </trkpt>
      <trkpt lat="42.83996" lon="1.83786">
        <ele>1899.237</ele>
        <time>2021-02-28T11:42:15Z</time>
      </trkpt>
      <trkpt lat="42.83996" lon="1.83786">
        <ele>1899.238</ele>
        <time>2021-02-28T11:42:17Z</time>
      </trkpt>
      <trkpt lat="42.83996" lon="1.83786">
        <ele>1899.238</ele>
        <time>2021-02-28T11:42:19Z</time>
      </trkpt>
      <trkpt lat="42.83996" lon="1.83786">
        <ele>1899.238</ele>
        <time>2021-02-28T11:42:21Z</time>
      </trkpt>
      <trkpt lat="42.83996" lon="1.83786">
        <ele>1899.237</ele>
        <time>2021-02-28T11:42:23Z</time>
      </trkpt>
      <trkpt lat="42.83996" lon="1.83786">
        <ele>1899.237</ele>
        <time>2021-02-28T11:42:25Z</time>
      </trkpt>
      <trkpt lat="42.83996" lon="1.83786">
        <ele>1899.235</ele>
        <time>2021-02-28T11:42:27Z</time>
      </trkpt>
      <trkpt lat="42.83996" lon="1.83786">
        <ele>1899.235</ele>
        <time>2021-02-28T11:42:29Z</time>
      </trkpt>
      <trkpt lat="42.83996" lon="1.83786">
        <ele>1899.236</ele>
        <time>2021-02-28T11:42:31Z</time>
      </trkpt>
      <trkpt lat="42.83996" lon="1.83786">
        <ele>1899.238</ele>
        <time>2021-02-28T11:42:33Z</time>
      </trkpt>
      <trkpt lat="42.83996" lon="1.83786">
        <ele>1899.238</ele>
        <time>2021-02-28T11:42:35Z</time>
      </trkpt>
      <trkpt lat="42.83996" lon="1.83786">
        <ele>1899.237</ele>
        <time>2021-02-28T11:42:37Z</time>
      </trkpt>
      <trkpt lat="42.83996" lon="1.83786">
        <ele>1899.236</ele>
        <time>2021-02-28T11:42:39Z</time>
      </trkpt>
      <trkpt lat="42.83996" lon="1.83786">
        <ele>1899.235</ele>
        <time>2021-02-28T11:42:41Z</time>
      </trkpt>
      <trkpt lat="42.83996" lon="1.83786">
        <ele>1899.234</ele>
        <time>2021-02-28T11:42:43Z</time>
      </trkpt>
      <trkpt lat="42.83996" lon="1.83786">
        <ele>1899.234</ele>
        <time>2021-02-28T11:42:45Z</time>
      </trkpt>
      <trkpt lat="42.83996" lon="1.83786">
        <ele>1899.232</ele>
        <time>2021-02-28T11:42:47Z</time>
      </trkpt>
      <trkpt lat="42.83996" lon="1.83786">
        <ele>1899.231</ele>
        <time>2021-02-28T11:42:49Z</time>
      </trkpt>
      <trkpt lat="42.83996" lon="1.83786">
        <ele>1899.232</ele>
        <time>2021-02-28T11:42:51Z</time>
      </trkpt>
      <trkpt lat="42.83996" lon="1.83786">
        <ele>1899.232</ele>
        <time>2021-02-28T11:42:53Z</time>
      </trkpt>
      <trkpt lat="42.83996" lon="1.83786">
        <ele>1899.229</ele>
        <time>2021-02-28T11:42:55Z</time>
      </trkpt>
      <trkpt lat="42.83996" lon="1.83786">
        <ele>1899.229</ele>
        <time>2021-02-28T11:42:57Z</time>
      </trkpt>
      <trkpt lat="42.83996" lon="1.83786">
        <ele>1899.231</ele>
        <time>2021-02-28T11:42:59Z</time>
      </trkpt>
      <trkpt lat="42.83996" lon="1.83786">
        <ele>1899.231</ele>
        <time>2021-02-28T11:43:01Z</time>
      </trkpt>
      <trkpt lat="42.83996" lon="1.83786">
        <ele>1899.229</ele>
        <time>2021-02-28T11:43:03Z</time>
      </trkpt>
      <trkpt lat="42.83996" lon="1.83786">
        <ele>1899.232</ele>
        <time>2021-02-28T11:43:05Z</time>
      </trkpt>
      <trkpt lat="42.83996" lon="1.83786">
        <ele>1899.232</ele>
        <time>2021-02-28T11:43:07Z</time>
      </trkpt>
      <trkpt lat="42.83996" lon="1.83786">
        <ele>1899.232</ele>
        <time>2021-02-28T11:43:09Z</time>
      </trkpt>
      <trkpt lat="42.83996" lon="1.83786">
        <ele>1899.232</ele>
        <time>2021-02-28T11:43:11Z</time>
      </trkpt>
      <trkpt lat="42.83996" lon="1.83786">
        <ele>1899.234</ele>
        <time>2021-02-28T11:43:13Z</time>
      </trkpt>
      <trkpt lat="42.83996" lon="1.83786">
        <ele>1899.234</ele>
        <time>2021-02-28T11:43:15Z</time>
      </trkpt>
      <trkpt lat="42.83996" lon="1.83786">
        <ele>1899.237</ele>
        <time>2021-02-28T11:43:17Z</time>
      </trkpt>
      <trkpt lat="42.83996" lon="1.83786">
        <ele>1899.239</ele>
        <time>2021-02-28T11:43:19Z</time>
      </trkpt>
      <trkpt lat="42.83996" lon="1.83786">
        <ele>1899.241</ele>
        <time>2021-02-28T11:43:21Z</time>
      </trkpt>
      <trkpt lat="42.83996" lon="1.83786">
        <ele>1899.241</ele>
        <time>2021-02-28T11:43:23Z</time>
      </trkpt>
      <trkpt lat="42.83996" lon="1.83786">
        <ele>1899.241</ele>
        <time>2021-02-28T11:43:25Z</time>
      </trkpt>
      <trkpt lat="42.83996" lon="1.83786">
        <ele>1899.24</ele>
        <time>2021-02-28T11:43:27Z</time>
      </trkpt>
      <trkpt lat="42.83996" lon="1.83786">
        <ele>1899.241</ele>
        <time>2021-02-28T11:43:29Z</time>
      </trkpt>
      <trkpt lat="42.83996" lon="1.83786">
        <ele>1899.241</ele>
        <time>2021-02-28T11:43:31Z</time>
      </trkpt>
      <trkpt lat="42.83996" lon="1.83786">
        <ele>1899.24</ele>
        <time>2021-02-28T11:43:33Z</time>
      </trkpt>
      <trkpt lat="42.83996" lon="1.83786">
        <ele>1899.239</ele>
        <time>2021-02-28T11:43:35Z</time>
      </trkpt>
      <trkpt lat="42.83996" lon="1.83786">
        <ele>1899.237</ele>
        <time>2021-02-28T11:43:37Z</time>
      </trkpt>
      <trkpt lat="42.83996" lon="1.83786">
        <ele>1899.237</ele>
        <time>2021-02-28T11:43:39Z</time>
      </trkpt>
      <trkpt lat="42.83996" lon="1.83786">
        <ele>1899.237</ele>
        <time>2021-02-28T11:43:41Z</time>
      </trkpt>
      <trkpt lat="42.83996" lon="1.83786">
        <ele>1899.236</ele>
        <time>2021-02-28T11:43:43Z</time>
      </trkpt>
      <trkpt lat="42.83996" lon="1.83786">
        <ele>1899.237</ele>
        <time>2021-02-28T11:43:45Z</time>
      </trkpt>
      <trkpt lat="42.83996" lon="1.83786">
        <ele>1899.235</ele>
        <time>2021-02-28T11:43:47Z</time>
      </trkpt>
      <trkpt lat="42.83996" lon="1.83786">
        <ele>1899.234</ele>
        <time>2021-02-28T11:43:49Z</time>
      </trkpt>
      <trkpt lat="42.83996" lon="1.83786">
        <ele>1899.233</ele>
        <time>2021-02-28T11:43:51Z</time>
      </trkpt>
      <trkpt lat="42.83996" lon="1.83786">
        <ele>1899.234</ele>
        <time>2021-02-28T11:43:53Z</time>
      </trkpt>
      <trkpt lat="42.83996" lon="1.83786">
        <ele>1899.234</ele>
        <time>2021-02-28T11:43:55Z</time>
      </trkpt>
      <trkpt lat="42.83996" lon="1.83786">
        <ele>1899.233</ele>
        <time>2021-02-28T11:43:57Z</time>
      </trkpt>
      <trkpt lat="42.83996" lon="1.83786">
        <ele>1899.232</ele>
        <time>2021-02-28T11:43:59Z</time>
      </trkpt>
      <trkpt lat="42.83996" lon="1.83786">
        <ele>1899.231</ele>
        <time>2021-02-28T11:44:01Z</time>
      </trkpt>
      <trkpt lat="42.83996" lon="1.83786">
        <ele>1899.23</ele>
        <time>2021-02-28T11:44:03Z</time>
      </trkpt>
      <trkpt lat="42.83996" lon="1.83786">
        <ele>1899.228</ele>
        <time>2021-02-28T11:44:05Z</time>
      </trkpt>
      <trkpt lat="42.83996" lon="1.83786">
        <ele>1899.226</ele>
        <time>2021-02-28T11:44:07Z</time>
      </trkpt>
      <trkpt lat="42.83996" lon="1.83786">
        <ele>1899.227</ele>
        <time>2021-02-28T11:44:09Z</time>
      </trkpt>
      <trkpt lat="42.83996" lon="1.83786">
        <ele>1899.227</ele>
        <time>2021-02-28T11:44:11Z</time>
      </trkpt>
      <trkpt lat="42.83996" lon="1.83786">
        <ele>1899.226</ele>
        <time>2021-02-28T11:44:13Z</time>
      </trkpt>
      <trkpt lat="42.83996" lon="1.83786">
        <ele>1899.225</ele>
        <time>2021-02-28T11:44:15Z</time>
      </trkpt>
      <trkpt lat="42.83996" lon="1.83786">
        <ele>1899.225</ele>
        <time>2021-02-28T11:44:17Z</time>
      </trkpt>
      <trkpt lat="42.83996" lon="1.83786">
        <ele>1899.226</ele>
        <time>2021-02-28T11:44:19Z</time>
      </trkpt>
      <trkpt lat="42.83996" lon="1.83786">
        <ele>1899.227</ele>
        <time>2021-02-28T11:44:21Z</time>
      </trkpt>
      <trkpt lat="42.83996" lon="1.83786">
        <ele>1899.225</ele>
        <time>2021-02-28T11:44:23Z</time>
      </trkpt>
      <trkpt lat="42.83996" lon="1.83786">
        <ele>1899.226</ele>
        <time>2021-02-28T11:44:25Z</time>
      </trkpt>
      <trkpt lat="42.83996" lon="1.83786">
        <ele>1899.226</ele>
        <time>2021-02-28T11:44:27Z</time>
      </trkpt>
      <trkpt lat="42.83996" lon="1.83786">
        <ele>1899.224</ele>
        <time>2021-02-28T11:44:29Z</time>
      </trkpt>
      <trkpt lat="42.83996" lon="1.83786">
        <ele>1899.223</ele>
        <time>2021-02-28T11:44:31Z</time>
      </trkpt>
      <trkpt lat="42.83996" lon="1.83786">
        <ele>1899.223</ele>
        <time>2021-02-28T11:44:33Z</time>
      </trkpt>
      <trkpt lat="42.83996" lon="1.83786">
        <ele>1899.222</ele>
        <time>2021-02-28T11:44:35Z</time>
      </trkpt>
      <trkpt lat="42.83996" lon="1.83786">
        <ele>1899.223</ele>
        <time>2021-02-28T11:44:37Z</time>
      </trkpt>
      <trkpt lat="42.83996" lon="1.83786">
        <ele>1899.222</ele>
        <time>2021-02-28T11:44:39Z</time>
      </trkpt>
      <trkpt lat="42.83996" lon="1.83786">
        <ele>1899.222</ele>
        <time>2021-02-28T11:44:41Z</time>
      </trkpt>
      <trkpt lat="42.83996" lon="1.83786">
        <ele>1899.222</ele>
        <time>2021-02-28T11:44:42Z</time>
      </trkpt>
      <trkpt lat="42.83996" lon="1.83786">
        <ele>1899.223</ele>
        <time>2021-02-28T11:44:45Z</time>
      </trkpt>
      <trkpt lat="42.83996" lon="1.83786">
        <ele>1899.224</ele>
        <time>2021-02-28T11:44:47Z</time>
      </trkpt>
      <trkpt lat="42.83996" lon="1.83786">
        <ele>1899.224</ele>
        <time>2021-02-28T11:44:49Z</time>
      </trkpt>
      <trkpt lat="42.83996" lon="1.83786">
        <ele>1899.224</ele>
        <time>2021-02-28T11:44:51Z</time>
      </trkpt>
      <trkpt lat="42.83996" lon="1.83786">
        <ele>1899.224</ele>
        <time>2021-02-28T11:44:53Z</time>
      </trkpt>
      <trkpt lat="42.83996" lon="1.83786">
        <ele>1899.223</ele>
        <time>2021-02-28T11:44:55Z</time>
      </trkpt>
      <trkpt lat="42.83996" lon="1.83786">
        <ele>1899.223</ele>
        <time>2021-02-28T11:44:57Z</time>
      </trkpt>
      <trkpt lat="42.83996" lon="1.83786">
        <ele>1899.223</ele>
        <time>2021-02-28T11:44:59Z</time>
      </trkpt>
      <trkpt lat="42.83996" lon="1.83786">
        <ele>1899.222</ele>
        <time>2021-02-28T11:45:01Z</time>
      </trkpt>
      <trkpt lat="42.83996" lon="1.83786">
        <ele>1899.222</ele>
        <time>2021-02-28T11:45:03Z</time>
      </trkpt>
      <trkpt lat="42.83996" lon="1.83786">
        <ele>1899.223</ele>
        <time>2021-02-28T11:45:05Z</time>
      </trkpt>
      <trkpt lat="42.83996" lon="1.83786">
        <ele>1899.223</ele>
        <time>2021-02-28T11:45:07Z</time>
      </trkpt>
      <trkpt lat="42.83996" lon="1.83786">
        <ele>1899.223</ele>
        <time>2021-02-28T11:45:09Z</time>
      </trkpt>
      <trkpt lat="42.83996" lon="1.83786">
        <ele>1899.224</ele>
        <time>2021-02-28T11:45:11Z</time>
      </trkpt>
      <trkpt lat="42.83996" lon="1.83786">
        <ele>1899.226</ele>
        <time>2021-02-28T11:45:13Z</time>
      </trkpt>
      <trkpt lat="42.83996" lon="1.83786">
        <ele>1899.229</ele>
        <time>2021-02-28T11:45:15Z</time>
      </trkpt>
      <trkpt lat="42.83996" lon="1.83786">
        <ele>1899.23</ele>
        <time>2021-02-28T11:45:17Z</time>
      </trkpt>
      <trkpt lat="42.83996" lon="1.83786">
        <ele>1899.23</ele>
        <time>2021-02-28T11:45:19Z</time>
      </trkpt>
      <trkpt lat="42.83996" lon="1.83786">
        <ele>1899.23</ele>
        <time>2021-02-28T11:45:21Z</time>
      </trkpt>
      <trkpt lat="42.83996" lon="1.83786">
        <ele>1899.231</ele>
        <time>2021-02-28T11:45:23Z</time>
      </trkpt>
      <trkpt lat="42.83996" lon="1.83786">
        <ele>1899.232</ele>
        <time>2021-02-28T11:45:25Z</time>
      </trkpt>
      <trkpt lat="42.83996" lon="1.83786">
        <ele>1899.232</ele>
        <time>2021-02-28T11:45:27Z</time>
      </trkpt>
      <trkpt lat="42.83996" lon="1.83786">
        <ele>1899.232</ele>
        <time>2021-02-28T11:45:29Z</time>
      </trkpt>
      <trkpt lat="42.83996" lon="1.83786">
        <ele>1899.234</ele>
        <time>2021-02-28T11:45:31Z</time>
      </trkpt>
      <trkpt lat="42.83996" lon="1.83786">
        <ele>1899.234</ele>
        <time>2021-02-28T11:45:33Z</time>
      </trkpt>
      <trkpt lat="42.83996" lon="1.83786">
        <ele>1899.234</ele>
        <time>2021-02-28T11:45:35Z</time>
      </trkpt>
      <trkpt lat="42.83996" lon="1.83786">
        <ele>1899.236</ele>
        <time>2021-02-28T11:45:37Z</time>
      </trkpt>
      <trkpt lat="42.83996" lon="1.83786">
        <ele>1899.235</ele>
        <time>2021-02-28T11:45:39Z</time>
      </trkpt>
      <trkpt lat="42.83996" lon="1.83786">
        <ele>1899.234</ele>
        <time>2021-02-28T11:45:41Z</time>
      </trkpt>
      <trkpt lat="42.83996" lon="1.83786">
        <ele>1899.234</ele>
        <time>2021-02-28T11:45:43Z</time>
      </trkpt>
      <trkpt lat="42.83996" lon="1.83786">
        <ele>1899.234</ele>
        <time>2021-02-28T11:45:45Z</time>
      </trkpt>
      <trkpt lat="42.83996" lon="1.83786">
        <ele>1899.233</ele>
        <time>2021-02-28T11:45:47Z</time>
      </trkpt>
      <trkpt lat="42.83996" lon="1.83786">
        <ele>1899.234</ele>
        <time>2021-02-28T11:45:49Z</time>
      </trkpt>
      <trkpt lat="42.83996" lon="1.83786">
        <ele>1899.233</ele>
        <time>2021-02-28T11:45:51Z</time>
      </trkpt>
      <trkpt lat="42.83996" lon="1.83786">
        <ele>1899.231</ele>
        <time>2021-02-28T11:45:53Z</time>
      </trkpt>
      <trkpt lat="42.83996" lon="1.83786">
        <ele>1899.232</ele>
        <time>2021-02-28T11:45:55Z</time>
      </trkpt>
      <trkpt lat="42.83996" lon="1.83786">
        <ele>1899.232</ele>
        <time>2021-02-28T11:45:57Z</time>
      </trkpt>
      <trkpt lat="42.83996" lon="1.83786">
        <ele>1899.231</ele>
        <time>2021-02-28T11:45:59Z</time>
      </trkpt>
      <trkpt lat="42.83996" lon="1.83786">
        <ele>1899.231</ele>
        <time>2021-02-28T11:46:01Z</time>
      </trkpt>
      <trkpt lat="42.83996" lon="1.83786">
        <ele>1899.231</ele>
        <time>2021-02-28T11:46:03Z</time>
      </trkpt>
      <trkpt lat="42.83996" lon="1.83786">
        <ele>1899.232</ele>
        <time>2021-02-28T11:46:05Z</time>
      </trkpt>
      <trkpt lat="42.83996" lon="1.83786">
        <ele>1899.23</ele>
        <time>2021-02-28T11:46:07Z</time>
      </trkpt>
      <trkpt lat="42.83996" lon="1.83786">
        <ele>1899.23</ele>
        <time>2021-02-28T11:46:09Z</time>
      </trkpt>
      <trkpt lat="42.83996" lon="1.83786">
        <ele>1899.23</ele>
        <time>2021-02-28T11:46:11Z</time>
      </trkpt>
      <trkpt lat="42.83996" lon="1.83786">
        <ele>1899.229</ele>
        <time>2021-02-28T11:46:13Z</time>
      </trkpt>
      <trkpt lat="42.83996" lon="1.83786">
        <ele>1899.23</ele>
        <time>2021-02-28T11:46:15Z</time>
      </trkpt>
      <trkpt lat="42.83996" lon="1.83786">
        <ele>1899.23</ele>
        <time>2021-02-28T11:46:17Z</time>
      </trkpt>
      <trkpt lat="42.83996" lon="1.83786">
        <ele>1899.23</ele>
        <time>2021-02-28T11:46:19Z</time>
      </trkpt>
      <trkpt lat="42.83996" lon="1.83786">
        <ele>1899.231</ele>
        <time>2021-02-28T11:46:21Z</time>
      </trkpt>
      <trkpt lat="42.83996" lon="1.83786">
        <ele>1899.23</ele>
        <time>2021-02-28T11:46:23Z</time>
      </trkpt>
      <trkpt lat="42.83996" lon="1.83786">
        <ele>1899.23</ele>
        <time>2021-02-28T11:46:25Z</time>
      </trkpt>
      <trkpt lat="42.83996" lon="1.83786">
        <ele>1899.231</ele>
        <time>2021-02-28T11:46:27Z</time>
      </trkpt>
      <trkpt lat="42.83996" lon="1.83786">
        <ele>1899.231</ele>
        <time>2021-02-28T11:46:29Z</time>
      </trkpt>
      <trkpt lat="42.83996" lon="1.83786">
        <ele>1899.232</ele>
        <time>2021-02-28T11:46:31Z</time>
      </trkpt>
      <trkpt lat="42.83996" lon="1.83786">
        <ele>1899.232</ele>
        <time>2021-02-28T11:46:33Z</time>
      </trkpt>
      <trkpt lat="42.83996" lon="1.83786">
        <ele>1899.233</ele>
        <time>2021-02-28T11:46:35Z</time>
      </trkpt>
      <trkpt lat="42.83996" lon="1.83786">
        <ele>1899.232</ele>
        <time>2021-02-28T11:46:37Z</time>
      </trkpt>
      <trkpt lat="42.83996" lon="1.83786">
        <ele>1899.23</ele>
        <time>2021-02-28T11:46:39Z</time>
      </trkpt>
      <trkpt lat="42.83996" lon="1.83786">
        <ele>1899.23</ele>
        <time>2021-02-28T11:46:41Z</time>
      </trkpt>
      <trkpt lat="42.83996" lon="1.83786">
        <ele>1899.229</ele>
        <time>2021-02-28T11:46:43Z</time>
      </trkpt>
      <trkpt lat="42.83996" lon="1.83786">
        <ele>1899.227</ele>
        <time>2021-02-28T11:46:45Z</time>
      </trkpt>
      <trkpt lat="42.83996" lon="1.83786">
        <ele>1899.226</ele>
        <time>2021-02-28T11:46:47Z</time>
      </trkpt>
      <trkpt lat="42.83996" lon="1.83786">
        <ele>1899.225</ele>
        <time>2021-02-28T11:46:49Z</time>
      </trkpt>
      <trkpt lat="42.83996" lon="1.83786">
        <ele>1899.226</ele>
        <time>2021-02-28T11:46:51Z</time>
      </trkpt>
      <trkpt lat="42.83996" lon="1.83786">
        <ele>1899.223</ele>
        <time>2021-02-28T11:46:53Z</time>
      </trkpt>
      <trkpt lat="42.83996" lon="1.83786">
        <ele>1899.222</ele>
        <time>2021-02-28T11:46:55Z</time>
      </trkpt>
      <trkpt lat="42.83996" lon="1.83786">
        <ele>1899.221</ele>
        <time>2021-02-28T11:46:57Z</time>
      </trkpt>
      <trkpt lat="42.83996" lon="1.83786">
        <ele>1899.221</ele>
        <time>2021-02-28T11:46:59Z</time>
      </trkpt>
      <trkpt lat="42.83996" lon="1.83786">
        <ele>1899.222</ele>
        <time>2021-02-28T11:47:01Z</time>
      </trkpt>
      <trkpt lat="42.83996" lon="1.83786">
        <ele>1899.221</ele>
        <time>2021-02-28T11:47:03Z</time>
      </trkpt>
      <trkpt lat="42.83996" lon="1.83786">
        <ele>1899.219</ele>
        <time>2021-02-28T11:47:05Z</time>
      </trkpt>
      <trkpt lat="42.83996" lon="1.83786">
        <ele>1899.221</ele>
        <time>2021-02-28T11:47:07Z</time>
      </trkpt>
      <trkpt lat="42.83996" lon="1.83786">
        <ele>1899.22</ele>
        <time>2021-02-28T11:47:09Z</time>
      </trkpt>
      <trkpt lat="42.83996" lon="1.83786">
        <ele>1899.221</ele>
        <time>2021-02-28T11:47:11Z</time>
      </trkpt>
      <trkpt lat="42.83996" lon="1.83786">
        <ele>1899.222</ele>
        <time>2021-02-28T11:47:13Z</time>
      </trkpt>
      <trkpt lat="42.83996" lon="1.83786">
        <ele>1899.223</ele>
        <time>2021-02-28T11:47:15Z</time>
      </trkpt>
      <trkpt lat="42.83996" lon="1.83786">
        <ele>1899.223</ele>
        <time>2021-02-28T11:47:17Z</time>
      </trkpt>
      <trkpt lat="42.83996" lon="1.83786">
        <ele>1899.222</ele>
        <time>2021-02-28T11:47:19Z</time>
      </trkpt>
      <trkpt lat="42.83996" lon="1.83786">
        <ele>1899.222</ele>
        <time>2021-02-28T11:47:21Z</time>
      </trkpt>
      <trkpt lat="42.83996" lon="1.83786">
        <ele>1899.224</ele>
        <time>2021-02-28T11:47:23Z</time>
      </trkpt>
      <trkpt lat="42.83996" lon="1.83786">
        <ele>1899.223</ele>
        <time>2021-02-28T11:47:25Z</time>
      </trkpt>
      <trkpt lat="42.83996" lon="1.83786">
        <ele>1899.224</ele>
        <time>2021-02-28T11:47:27Z</time>
      </trkpt>
      <trkpt lat="42.83996" lon="1.83786">
        <ele>1899.224</ele>
        <time>2021-02-28T11:47:29Z</time>
      </trkpt>
      <trkpt lat="42.83996" lon="1.83786">
        <ele>1899.223</ele>
        <time>2021-02-28T11:47:31Z</time>
      </trkpt>
      <trkpt lat="42.83996" lon="1.83786">
        <ele>1899.222</ele>
        <time>2021-02-28T11:47:33Z</time>
      </trkpt>
      <trkpt lat="42.83996" lon="1.83786">
        <ele>1899.223</ele>
        <time>2021-02-28T11:47:35Z</time>
      </trkpt>
      <trkpt lat="42.83996" lon="1.83786">
        <ele>1899.222</ele>
        <time>2021-02-28T11:47:37Z</time>
      </trkpt>
      <trkpt lat="42.83996" lon="1.83786">
        <ele>1899.222</ele>
        <time>2021-02-28T11:47:39Z</time>
      </trkpt>
      <trkpt lat="42.83996" lon="1.83786">
        <ele>1899.221</ele>
        <time>2021-02-28T11:47:41Z</time>
      </trkpt>
      <trkpt lat="42.83996" lon="1.83786">
        <ele>1899.22</ele>
        <time>2021-02-28T11:47:43Z</time>
      </trkpt>
      <trkpt lat="42.83996" lon="1.83786">
        <ele>1899.221</ele>
        <time>2021-02-28T11:47:45Z</time>
      </trkpt>
      <trkpt lat="42.83996" lon="1.83786">
        <ele>1899.221</ele>
        <time>2021-02-28T11:47:47Z</time>
      </trkpt>
      <trkpt lat="42.83996" lon="1.83786">
        <ele>1899.222</ele>
        <time>2021-02-28T11:47:49Z</time>
      </trkpt>
      <trkpt lat="42.83996" lon="1.83786">
        <ele>1899.221</ele>
        <time>2021-02-28T11:47:51Z</time>
      </trkpt>
      <trkpt lat="42.83996" lon="1.83786">
        <ele>1899.219</ele>
        <time>2021-02-28T11:47:53Z</time>
      </trkpt>
      <trkpt lat="42.83996" lon="1.83786">
        <ele>1899.219</ele>
        <time>2021-02-28T11:47:55Z</time>
      </trkpt>
      <trkpt lat="42.83996" lon="1.83786">
        <ele>1899.22</ele>
        <time>2021-02-28T11:47:57Z</time>
      </trkpt>
      <trkpt lat="42.83996" lon="1.83786">
        <ele>1899.218</ele>
        <time>2021-02-28T11:47:59Z</time>
      </trkpt>
      <trkpt lat="42.83996" lon="1.83786">
        <ele>1899.214</ele>
        <time>2021-02-28T11:48:01Z</time>
      </trkpt>
      <trkpt lat="42.83996" lon="1.83786">
        <ele>1899.215</ele>
        <time>2021-02-28T11:48:03Z</time>
      </trkpt>
      <trkpt lat="42.83996" lon="1.83786">
        <ele>1899.214</ele>
        <time>2021-02-28T11:48:05Z</time>
      </trkpt>
      <trkpt lat="42.83996" lon="1.83786">
        <ele>1899.214</ele>
        <time>2021-02-28T11:48:07Z</time>
      </trkpt>
      <trkpt lat="42.83996" lon="1.83786">
        <ele>1899.213</ele>
        <time>2021-02-28T11:48:09Z</time>
      </trkpt>
      <trkpt lat="42.83996" lon="1.83786">
        <ele>1899.214</ele>
        <time>2021-02-28T11:48:11Z</time>
      </trkpt>
      <trkpt lat="42.83996" lon="1.83786">
        <ele>1899.214</ele>
        <time>2021-02-28T11:48:13Z</time>
      </trkpt>
      <trkpt lat="42.83996" lon="1.83786">
        <ele>1899.215</ele>
        <time>2021-02-28T11:48:15Z</time>
      </trkpt>
      <trkpt lat="42.83996" lon="1.83786">
        <ele>1899.217</ele>
        <time>2021-02-28T11:48:17Z</time>
      </trkpt>
      <trkpt lat="42.83996" lon="1.83786">
        <ele>1899.219</ele>
        <time>2021-02-28T11:48:19Z</time>
      </trkpt>
      <trkpt lat="42.83996" lon="1.83786">
        <ele>1899.22</ele>
        <time>2021-02-28T11:48:21Z</time>
      </trkpt>
      <trkpt lat="42.83996" lon="1.83786">
        <ele>1899.22</ele>
        <time>2021-02-28T11:48:23Z</time>
      </trkpt>
      <trkpt lat="42.83996" lon="1.83786">
        <ele>1899.219</ele>
        <time>2021-02-28T11:48:25Z</time>
      </trkpt>
      <trkpt lat="42.83996" lon="1.83786">
        <ele>1899.22</ele>
        <time>2021-02-28T11:48:27Z</time>
      </trkpt>
      <trkpt lat="42.83996" lon="1.83786">
        <ele>1899.22</ele>
        <time>2021-02-28T11:48:29Z</time>
      </trkpt>
      <trkpt lat="42.83996" lon="1.83786">
        <ele>1899.221</ele>
        <time>2021-02-28T11:48:31Z</time>
      </trkpt>
      <trkpt lat="42.83996" lon="1.83786">
        <ele>1899.222</ele>
        <time>2021-02-28T11:48:33Z</time>
      </trkpt>
      <trkpt lat="42.83996" lon="1.83786">
        <ele>1899.222</ele>
        <time>2021-02-28T11:48:35Z</time>
      </trkpt>
      <trkpt lat="42.83996" lon="1.83786">
        <ele>1899.222</ele>
        <time>2021-02-28T11:48:37Z</time>
      </trkpt>
      <trkpt lat="42.83996" lon="1.83786">
        <ele>1899.222</ele>
        <time>2021-02-28T11:48:39Z</time>
      </trkpt>
      <trkpt lat="42.83996" lon="1.83786">
        <ele>1899.221</ele>
        <time>2021-02-28T11:48:41Z</time>
      </trkpt>
      <trkpt lat="42.83996" lon="1.83786">
        <ele>1899.219</ele>
        <time>2021-02-28T11:48:43Z</time>
      </trkpt>
      <trkpt lat="42.83996" lon="1.83786">
        <ele>1899.219</ele>
        <time>2021-02-28T11:48:45Z</time>
      </trkpt>
      <trkpt lat="42.83996" lon="1.83786">
        <ele>1899.218</ele>
        <time>2021-02-28T11:48:47Z</time>
      </trkpt>
      <trkpt lat="42.83996" lon="1.83786">
        <ele>1899.217</ele>
        <time>2021-02-28T11:48:49Z</time>
      </trkpt>
      <trkpt lat="42.83996" lon="1.83786">
        <ele>1899.217</ele>
        <time>2021-02-28T11:48:51Z</time>
      </trkpt>
      <trkpt lat="42.83996" lon="1.83786">
        <ele>1899.218</ele>
        <time>2021-02-28T11:48:53Z</time>
      </trkpt>
      <trkpt lat="42.83996" lon="1.83786">
        <ele>1899.22</ele>
        <time>2021-02-28T11:48:55Z</time>
      </trkpt>
      <trkpt lat="42.83996" lon="1.83786">
        <ele>1899.217</ele>
        <time>2021-02-28T11:48:57Z</time>
      </trkpt>
      <trkpt lat="42.83996" lon="1.83786">
        <ele>1899.217</ele>
        <time>2021-02-28T11:48:59Z</time>
      </trkpt>
      <trkpt lat="42.83996" lon="1.83786">
        <ele>1899.217</ele>
        <time>2021-02-28T11:49:01Z</time>
      </trkpt>
      <trkpt lat="42.83996" lon="1.83786">
        <ele>1899.217</ele>
        <time>2021-02-28T11:49:03Z</time>
      </trkpt>
      <trkpt lat="42.83996" lon="1.83786">
        <ele>1899.218</ele>
        <time>2021-02-28T11:49:05Z</time>
      </trkpt>
      <trkpt lat="42.83996" lon="1.83786">
        <ele>1899.219</ele>
        <time>2021-02-28T11:49:07Z</time>
      </trkpt>
      <trkpt lat="42.83996" lon="1.83786">
        <ele>1899.22</ele>
        <time>2021-02-28T11:49:08Z</time>
      </trkpt>
      <trkpt lat="42.83996" lon="1.83786">
        <ele>1899.222</ele>
        <time>2021-02-28T11:49:11Z</time>
      </trkpt>
      <trkpt lat="42.83996" lon="1.83786">
        <ele>1899.223</ele>
        <time>2021-02-28T11:49:13Z</time>
      </trkpt>
      <trkpt lat="42.83996" lon="1.83786">
        <ele>1899.224</ele>
        <time>2021-02-28T11:49:15Z</time>
      </trkpt>
      <trkpt lat="42.83996" lon="1.83786">
        <ele>1899.226</ele>
        <time>2021-02-28T11:49:17Z</time>
      </trkpt>
      <trkpt lat="42.83996" lon="1.83786">
        <ele>1899.227</ele>
        <time>2021-02-28T11:49:19Z</time>
      </trkpt>
      <trkpt lat="42.83996" lon="1.83786">
        <ele>1899.227</ele>
        <time>2021-02-28T11:49:21Z</time>
      </trkpt>
      <trkpt lat="42.83996" lon="1.83786">
        <ele>1899.226</ele>
        <time>2021-02-28T11:49:23Z</time>
      </trkpt>
      <trkpt lat="42.83996" lon="1.83786">
        <ele>1899.226</ele>
        <time>2021-02-28T11:49:25Z</time>
      </trkpt>
      <trkpt lat="42.83996" lon="1.83786">
        <ele>1899.226</ele>
        <time>2021-02-28T11:49:27Z</time>
      </trkpt>
      <trkpt lat="42.83996" lon="1.83786">
        <ele>1899.226</ele>
        <time>2021-02-28T11:49:29Z</time>
      </trkpt>
      <trkpt lat="42.83996" lon="1.83786">
        <ele>1899.226</ele>
        <time>2021-02-28T11:49:31Z</time>
      </trkpt>
      <trkpt lat="42.83996" lon="1.83786">
        <ele>1899.225</ele>
        <time>2021-02-28T11:49:33Z</time>
      </trkpt>
      <trkpt lat="42.83996" lon="1.83786">
        <ele>1899.226</ele>
        <time>2021-02-28T11:49:35Z</time>
      </trkpt>
      <trkpt lat="42.83996" lon="1.83786">
        <ele>1899.227</ele>
        <time>2021-02-28T11:49:37Z</time>
      </trkpt>
      <trkpt lat="42.83996" lon="1.83786">
        <ele>1899.227</ele>
        <time>2021-02-28T11:49:39Z</time>
      </trkpt>
      <trkpt lat="42.83996" lon="1.83786">
        <ele>1899.228</ele>
        <time>2021-02-28T11:49:41Z</time>
      </trkpt>
      <trkpt lat="42.83996" lon="1.83786">
        <ele>1899.228</ele>
        <time>2021-02-28T11:49:43Z</time>
      </trkpt>
      <trkpt lat="42.83996" lon="1.83786">
        <ele>1899.227</ele>
        <time>2021-02-28T11:49:45Z</time>
      </trkpt>
      <trkpt lat="42.83996" lon="1.83786">
        <ele>1899.225</ele>
        <time>2021-02-28T11:49:47Z</time>
      </trkpt>
      <trkpt lat="42.83996" lon="1.83786">
        <ele>1899.223</ele>
        <time>2021-02-28T11:49:49Z</time>
      </trkpt>
      <trkpt lat="42.83996" lon="1.83786">
        <ele>1899.222</ele>
        <time>2021-02-28T11:49:51Z</time>
      </trkpt>
      <trkpt lat="42.83996" lon="1.83786">
        <ele>1899.223</ele>
        <time>2021-02-28T11:49:53Z</time>
      </trkpt>
      <trkpt lat="42.83996" lon="1.83786">
        <ele>1899.222</ele>
        <time>2021-02-28T11:49:55Z</time>
      </trkpt>
      <trkpt lat="42.83996" lon="1.83786">
        <ele>1899.222</ele>
        <time>2021-02-28T11:49:57Z</time>
      </trkpt>
      <trkpt lat="42.83996" lon="1.83786">
        <ele>1899.221</ele>
        <time>2021-02-28T11:49:59Z</time>
      </trkpt>
      <trkpt lat="42.83996" lon="1.83786">
        <ele>1899.222</ele>
        <time>2021-02-28T11:50:01Z</time>
      </trkpt>
      <trkpt lat="42.83996" lon="1.83786">
        <ele>1899.222</ele>
        <time>2021-02-28T11:50:03Z</time>
      </trkpt>
      <trkpt lat="42.83996" lon="1.83786">
        <ele>1899.222</ele>
        <time>2021-02-28T11:50:05Z</time>
      </trkpt>
      <trkpt lat="42.83996" lon="1.83786">
        <ele>1899.223</ele>
        <time>2021-02-28T11:50:07Z</time>
      </trkpt>
      <trkpt lat="42.83996" lon="1.83786">
        <ele>1899.225</ele>
        <time>2021-02-28T11:50:09Z</time>
      </trkpt>
      <trkpt lat="42.83996" lon="1.83786">
        <ele>1899.224</ele>
        <time>2021-02-28T11:50:11Z</time>
      </trkpt>
      <trkpt lat="42.83996" lon="1.83786">
        <ele>1899.225</ele>
        <time>2021-02-28T11:50:13Z</time>
      </trkpt>
      <trkpt lat="42.83996" lon="1.83786">
        <ele>1899.225</ele>
        <time>2021-02-28T11:50:15Z</time>
      </trkpt>
      <trkpt lat="42.83996" lon="1.83786">
        <ele>1899.224</ele>
        <time>2021-02-28T11:50:17Z</time>
      </trkpt>
      <trkpt lat="42.83996" lon="1.83786">
        <ele>1899.225</ele>
        <time>2021-02-28T11:50:19Z</time>
      </trkpt>
      <trkpt lat="42.83996" lon="1.83786">
        <ele>1899.224</ele>
        <time>2021-02-28T11:50:21Z</time>
      </trkpt>
      <trkpt lat="42.83996" lon="1.83786">
        <ele>1899.225</ele>
        <time>2021-02-28T11:50:23Z</time>
      </trkpt>
      <trkpt lat="42.83996" lon="1.83786">
        <ele>1899.223</ele>
        <time>2021-02-28T11:50:25Z</time>
      </trkpt>
      <trkpt lat="42.83996" lon="1.83786">
        <ele>1899.223</ele>
        <time>2021-02-28T11:50:27Z</time>
      </trkpt>
      <trkpt lat="42.83996" lon="1.83786">
        <ele>1899.222</ele>
        <time>2021-02-28T11:50:29Z</time>
      </trkpt>
      <trkpt lat="42.83996" lon="1.83786">
        <ele>1899.222</ele>
        <time>2021-02-28T11:50:31Z</time>
      </trkpt>
      <trkpt lat="42.83996" lon="1.83786">
        <ele>1899.222</ele>
        <time>2021-02-28T11:50:33Z</time>
      </trkpt>
      <trkpt lat="42.83996" lon="1.83786">
        <ele>1899.222</ele>
        <time>2021-02-28T11:50:35Z</time>
      </trkpt>
      <trkpt lat="42.83996" lon="1.83786">
        <ele>1899.223</ele>
        <time>2021-02-28T11:50:37Z</time>
      </trkpt>
      <trkpt lat="42.83996" lon="1.83786">
        <ele>1899.222</ele>
        <time>2021-02-28T11:50:39Z</time>
      </trkpt>
      <trkpt lat="42.83996" lon="1.83786">
        <ele>1899.222</ele>
        <time>2021-02-28T11:50:41Z</time>
      </trkpt>
      <trkpt lat="42.83996" lon="1.83786">
        <ele>1899.222</ele>
        <time>2021-02-28T11:50:43Z</time>
      </trkpt>
      <trkpt lat="42.83996" lon="1.83786">
        <ele>1899.223</ele>
        <time>2021-02-28T11:50:45Z</time>
      </trkpt>
      <trkpt lat="42.83996" lon="1.83786">
        <ele>1899.225</ele>
        <time>2021-02-28T11:50:47Z</time>
      </trkpt>
      <trkpt lat="42.83996" lon="1.83786">
        <ele>1899.226</ele>
        <time>2021-02-28T11:50:49Z</time>
      </trkpt>
      <trkpt lat="42.83996" lon="1.83786">
        <ele>1899.225</ele>
        <time>2021-02-28T11:50:51Z</time>
      </trkpt>
      <trkpt lat="42.83996" lon="1.83786">
        <ele>1899.226</ele>
        <time>2021-02-28T11:50:53Z</time>
      </trkpt>
      <trkpt lat="42.83996" lon="1.83786">
        <ele>1899.227</ele>
        <time>2021-02-28T11:50:55Z</time>
      </trkpt>
      <trkpt lat="42.83996" lon="1.83786">
        <ele>1899.227</ele>
        <time>2021-02-28T11:50:57Z</time>
      </trkpt>
      <trkpt lat="42.83996" lon="1.83786">
        <ele>1899.225</ele>
        <time>2021-02-28T11:50:59Z</time>
      </trkpt>
      <trkpt lat="42.83996" lon="1.83786">
        <ele>1899.224</ele>
        <time>2021-02-28T11:51:01Z</time>
      </trkpt>
      <trkpt lat="42.83996" lon="1.83786">
        <ele>1899.225</ele>
        <time>2021-02-28T11:51:03Z</time>
      </trkpt>
      <trkpt lat="42.83996" lon="1.83786">
        <ele>1899.224</ele>
        <time>2021-02-28T11:51:05Z</time>
      </trkpt>
      <trkpt lat="42.83996" lon="1.83786">
        <ele>1899.224</ele>
        <time>2021-02-28T11:51:07Z</time>
      </trkpt>
      <trkpt lat="42.83996" lon="1.83786">
        <ele>1899.223</ele>
        <time>2021-02-28T11:51:09Z</time>
      </trkpt>
      <trkpt lat="42.83996" lon="1.83786">
        <ele>1899.222</ele>
        <time>2021-02-28T11:51:11Z</time>
      </trkpt>
      <trkpt lat="42.83996" lon="1.83786">
        <ele>1899.221</ele>
        <time>2021-02-28T11:51:13Z</time>
      </trkpt>
      <trkpt lat="42.83996" lon="1.83786">
        <ele>1899.22</ele>
        <time>2021-02-28T11:51:15Z</time>
      </trkpt>
      <trkpt lat="42.83996" lon="1.83786">
        <ele>1899.22</ele>
        <time>2021-02-28T11:51:17Z</time>
      </trkpt>
      <trkpt lat="42.83996" lon="1.83786">
        <ele>1899.219</ele>
        <time>2021-02-28T11:51:19Z</time>
      </trkpt>
      <trkpt lat="42.83996" lon="1.83786">
        <ele>1899.218</ele>
        <time>2021-02-28T11:51:21Z</time>
      </trkpt>
      <trkpt lat="42.83996" lon="1.83786">
        <ele>1899.216</ele>
        <time>2021-02-28T11:51:23Z</time>
      </trkpt>
      <trkpt lat="42.83996" lon="1.83786">
        <ele>1899.216</ele>
        <time>2021-02-28T11:51:25Z</time>
      </trkpt>
      <trkpt lat="42.83996" lon="1.83786">
        <ele>1899.215</ele>
        <time>2021-02-28T11:51:27Z</time>
      </trkpt>
      <trkpt lat="42.83996" lon="1.83786">
        <ele>1899.216</ele>
        <time>2021-02-28T11:51:29Z</time>
      </trkpt>
      <trkpt lat="42.83996" lon="1.83786">
        <ele>1899.217</ele>
        <time>2021-02-28T11:51:31Z</time>
      </trkpt>
      <trkpt lat="42.83996" lon="1.83786">
        <ele>1899.218</ele>
        <time>2021-02-28T11:51:33Z</time>
      </trkpt>
      <trkpt lat="42.83996" lon="1.83786">
        <ele>1899.218</ele>
        <time>2021-02-28T11:51:35Z</time>
      </trkpt>
      <trkpt lat="42.83996" lon="1.83786">
        <ele>1899.216</ele>
        <time>2021-02-28T11:51:37Z</time>
      </trkpt>
      <trkpt lat="42.83996" lon="1.83786">
        <ele>1899.216</ele>
        <time>2021-02-28T11:51:39Z</time>
      </trkpt>
      <trkpt lat="42.83996" lon="1.83786">
        <ele>1899.217</ele>
        <time>2021-02-28T11:51:41Z</time>
      </trkpt>
      <trkpt lat="42.83996" lon="1.83786">
        <ele>1899.216</ele>
        <time>2021-02-28T11:51:43Z</time>
      </trkpt>
      <trkpt lat="42.83996" lon="1.83786">
        <ele>1899.216</ele>
        <time>2021-02-28T11:51:45Z</time>
      </trkpt>
      <trkpt lat="42.83996" lon="1.83786">
        <ele>1899.216</ele>
        <time>2021-02-28T11:51:47Z</time>
      </trkpt>
      <trkpt lat="42.83996" lon="1.83786">
        <ele>1899.215</ele>
        <time>2021-02-28T11:51:49Z</time>
      </trkpt>
      <trkpt lat="42.83996" lon="1.83786">
        <ele>1899.215</ele>
        <time>2021-02-28T11:51:51Z</time>
      </trkpt>
      <trkpt lat="42.83996" lon="1.83786">
        <ele>1899.215</ele>
        <time>2021-02-28T11:51:53Z</time>
      </trkpt>
      <trkpt lat="42.83996" lon="1.83786">
        <ele>1899.217</ele>
        <time>2021-02-28T11:51:55Z</time>
      </trkpt>
      <trkpt lat="42.83996" lon="1.83786">
        <ele>1899.216</ele>
        <time>2021-02-28T11:51:57Z</time>
      </trkpt>
      <trkpt lat="42.83996" lon="1.83786">
        <ele>1899.216</ele>
        <time>2021-02-28T11:51:59Z</time>
      </trkpt>
      <trkpt lat="42.83996" lon="1.83786">
        <ele>1899.216</ele>
        <time>2021-02-28T11:52:01Z</time>
      </trkpt>
      <trkpt lat="42.83996" lon="1.83786">
        <ele>1899.215</ele>
        <time>2021-02-28T11:52:03Z</time>
      </trkpt>
      <trkpt lat="42.83996" lon="1.83786">
        <ele>1899.213</ele>
        <time>2021-02-28T11:52:06Z</time>
      </trkpt>
      <trkpt lat="42.83996" lon="1.83786">
        <ele>1899.212</ele>
        <time>2021-02-28T11:52:08Z</time>
      </trkpt>
      <trkpt lat="42.83996" lon="1.83786">
        <ele>1899.211</ele>
        <time>2021-02-28T11:52:10Z</time>
      </trkpt>
      <trkpt lat="42.83996" lon="1.83786">
        <ele>1899.211</ele>
        <time>2021-02-28T11:52:12Z</time>
      </trkpt>
      <trkpt lat="42.83996" lon="1.83786">
        <ele>1899.21</ele>
        <time>2021-02-28T11:52:14Z</time>
      </trkpt>
      <trkpt lat="42.83996" lon="1.83786">
        <ele>1899.209</ele>
        <time>2021-02-28T11:52:16Z</time>
      </trkpt>
      <trkpt lat="42.83996" lon="1.83786">
        <ele>1899.208</ele>
        <time>2021-02-28T11:52:18Z</time>
      </trkpt>
      <trkpt lat="42.83996" lon="1.83786">
        <ele>1899.209</ele>
        <time>2021-02-28T11:52:20Z</time>
      </trkpt>
      <trkpt lat="42.83996" lon="1.83786">
        <ele>1899.208</ele>
        <time>2021-02-28T11:52:22Z</time>
      </trkpt>
      <trkpt lat="42.83996" lon="1.83786">
        <ele>1899.207</ele>
        <time>2021-02-28T11:52:23Z</time>
      </trkpt>
      <trkpt lat="42.83996" lon="1.83786">
        <ele>1899.207</ele>
        <time>2021-02-28T11:52:26Z</time>
      </trkpt>
      <trkpt lat="42.83996" lon="1.83786">
        <ele>1899.208</ele>
        <time>2021-02-28T11:52:28Z</time>
      </trkpt>
      <trkpt lat="42.83996" lon="1.83786">
        <ele>1899.208</ele>
        <time>2021-02-28T11:52:30Z</time>
      </trkpt>
      <trkpt lat="42.83996" lon="1.83786">
        <ele>1899.207</ele>
        <time>2021-02-28T11:52:32Z</time>
      </trkpt>
      <trkpt lat="42.83996" lon="1.83786">
        <ele>1899.205</ele>
        <time>2021-02-28T11:52:34Z</time>
      </trkpt>
      <trkpt lat="42.83996" lon="1.83786">
        <ele>1899.205</ele>
        <time>2021-02-28T11:52:36Z</time>
      </trkpt>
      <trkpt lat="42.83996" lon="1.83786">
        <ele>1899.205</ele>
        <time>2021-02-28T11:52:38Z</time>
      </trkpt>
      <trkpt lat="42.83996" lon="1.83786">
        <ele>1899.204</ele>
        <time>2021-02-28T11:52:40Z</time>
      </trkpt>
      <trkpt lat="42.83996" lon="1.83786">
        <ele>1899.204</ele>
        <time>2021-02-28T11:52:42Z</time>
      </trkpt>
      <trkpt lat="42.83996" lon="1.83786">
        <ele>1899.204</ele>
        <time>2021-02-28T11:52:44Z</time>
      </trkpt>
      <trkpt lat="42.83996" lon="1.83786">
        <ele>1899.204</ele>
        <time>2021-02-28T11:52:46Z</time>
      </trkpt>
      <trkpt lat="42.83996" lon="1.83786">
        <ele>1899.203</ele>
        <time>2021-02-28T11:52:48Z</time>
      </trkpt>
      <trkpt lat="42.83996" lon="1.83786">
        <ele>1899.202</ele>
        <time>2021-02-28T11:52:50Z</time>
      </trkpt>
      <trkpt lat="42.83996" lon="1.83786">
        <ele>1899.202</ele>
        <time>2021-02-28T11:52:52Z</time>
      </trkpt>
      <trkpt lat="42.83996" lon="1.83786">
        <ele>1899.202</ele>
        <time>2021-02-28T11:52:54Z</time>
      </trkpt>
      <trkpt lat="42.83996" lon="1.83786">
        <ele>1899.201</ele>
        <time>2021-02-28T11:52:56Z</time>
      </trkpt>
      <trkpt lat="42.83996" lon="1.83786">
        <ele>1899.201</ele>
        <time>2021-02-28T11:52:58Z</time>
      </trkpt>
      <trkpt lat="42.83996" lon="1.83786">
        <ele>1899.2</ele>
        <time>2021-02-28T11:53:00Z</time>
      </trkpt>
      <trkpt lat="42.83996" lon="1.83786">
        <ele>1899.2</ele>
        <time>2021-02-28T11:53:02Z</time>
      </trkpt>
      <trkpt lat="42.83996" lon="1.83786">
        <ele>1899.2</ele>
        <time>2021-02-28T11:53:04Z</time>
      </trkpt>
      <trkpt lat="42.83996" lon="1.83786">
        <ele>1899.2</ele>
        <time>2021-02-28T11:53:06Z</time>
      </trkpt>
      <trkpt lat="42.83996" lon="1.83786">
        <ele>1899.2</ele>
        <time>2021-02-28T11:53:08Z</time>
      </trkpt>
      <trkpt lat="42.83996" lon="1.83786">
        <ele>1899.2</ele>
        <time>2021-02-28T11:53:10Z</time>
      </trkpt>
      <trkpt lat="42.83996" lon="1.83786">
        <ele>1899.2</ele>
        <time>2021-02-28T11:53:12Z</time>
      </trkpt>
      <trkpt lat="42.83996" lon="1.83786">
        <ele>1899.2</ele>
        <time>2021-02-28T11:53:14Z</time>
      </trkpt>
      <trkpt lat="42.83996" lon="1.83786">
        <ele>1899.201</ele>
        <time>2021-02-28T11:53:16Z</time>
      </trkpt>
      <trkpt lat="42.83996" lon="1.83786">
        <ele>1899.201</ele>
        <time>2021-02-28T11:53:18Z</time>
      </trkpt>
      <trkpt lat="42.83996" lon="1.83786">
        <ele>1899.201</ele>
        <time>2021-02-28T11:53:20Z</time>
      </trkpt>
      <trkpt lat="42.83996" lon="1.83786">
        <ele>1899.2</ele>
        <time>2021-02-28T11:53:22Z</time>
      </trkpt>
      <trkpt lat="42.83996" lon="1.83786">
        <ele>1899.198</ele>
        <time>2021-02-28T11:53:24Z</time>
      </trkpt>
      <trkpt lat="42.83996" lon="1.83786">
        <ele>1899.199</ele>
        <time>2021-02-28T11:53:26Z</time>
      </trkpt>
      <trkpt lat="42.83996" lon="1.83786">
        <ele>1899.198</ele>
        <time>2021-02-28T11:53:28Z</time>
      </trkpt>
      <trkpt lat="42.83996" lon="1.83786">
        <ele>1899.198</ele>
        <time>2021-02-28T11:53:30Z</time>
      </trkpt>
      <trkpt lat="42.83996" lon="1.83786">
        <ele>1899.198</ele>
        <time>2021-02-28T11:53:32Z</time>
      </trkpt>
      <trkpt lat="42.83996" lon="1.83786">
        <ele>1899.198</ele>
        <time>2021-02-28T11:53:34Z</time>
      </trkpt>
      <trkpt lat="42.83996" lon="1.83786">
        <ele>1899.199</ele>
        <time>2021-02-28T11:53:36Z</time>
      </trkpt>
      <trkpt lat="42.83996" lon="1.83786">
        <ele>1899.2</ele>
        <time>2021-02-28T11:53:38Z</time>
      </trkpt>
      <trkpt lat="42.83996" lon="1.83786">
        <ele>1899.199</ele>
        <time>2021-02-28T11:53:40Z</time>
      </trkpt>
      <trkpt lat="42.83996" lon="1.83786">
        <ele>1899.199</ele>
        <time>2021-02-28T11:53:42Z</time>
      </trkpt>
      <trkpt lat="42.83996" lon="1.83786">
        <ele>1899.199</ele>
        <time>2021-02-28T11:53:44Z</time>
      </trkpt>
      <trkpt lat="42.83996" lon="1.83786">
        <ele>1899.198</ele>
        <time>2021-02-28T11:53:46Z</time>
      </trkpt>
      <trkpt lat="42.83996" lon="1.83786">
        <ele>1899.199</ele>
        <time>2021-02-28T11:53:48Z</time>
      </trkpt>
      <trkpt lat="42.83996" lon="1.83786">
        <ele>1899.199</ele>
        <time>2021-02-28T11:53:50Z</time>
      </trkpt>
      <trkpt lat="42.83996" lon="1.83786">
        <ele>1899.197</ele>
        <time>2021-02-28T11:53:52Z</time>
      </trkpt>
      <trkpt lat="42.83996" lon="1.83786">
        <ele>1899.197</ele>
        <time>2021-02-28T11:53:54Z</time>
      </trkpt>
      <trkpt lat="42.83996" lon="1.83786">
        <ele>1899.197</ele>
        <time>2021-02-28T11:53:56Z</time>
      </trkpt>
      <trkpt lat="42.83996" lon="1.83786">
        <ele>1899.197</ele>
        <time>2021-02-28T11:53:58Z</time>
      </trkpt>
      <trkpt lat="42.83996" lon="1.83786">
        <ele>1899.197</ele>
        <time>2021-02-28T11:54:00Z</time>
      </trkpt>
      <trkpt lat="42.83996" lon="1.83786">
        <ele>1899.197</ele>
        <time>2021-02-28T11:54:02Z</time>
      </trkpt>
      <trkpt lat="42.83996" lon="1.83786">
        <ele>1899.197</ele>
        <time>2021-02-28T11:54:04Z</time>
      </trkpt>
      <trkpt lat="42.83996" lon="1.83786">
        <ele>1899.198</ele>
        <time>2021-02-28T11:54:06Z</time>
      </trkpt>
      <trkpt lat="42.83996" lon="1.83786">
        <ele>1899.198</ele>
        <time>2021-02-28T11:54:08Z</time>
      </trkpt>
      <trkpt lat="42.83996" lon="1.83786">
        <ele>1899.199</ele>
        <time>2021-02-28T11:54:10Z</time>
      </trkpt>
      <trkpt lat="42.83996" lon="1.83786">
        <ele>1899.201</ele>
        <time>2021-02-28T11:54:12Z</time>
      </trkpt>
      <trkpt lat="42.83996" lon="1.83786">
        <ele>1899.203</ele>
        <time>2021-02-28T11:54:14Z</time>
      </trkpt>
      <trkpt lat="42.83996" lon="1.83786">
        <ele>1899.204</ele>
        <time>2021-02-28T11:54:16Z</time>
      </trkpt>
      <trkpt lat="42.83996" lon="1.83786">
        <ele>1899.207</ele>
        <time>2021-02-28T11:54:18Z</time>
      </trkpt>
      <trkpt lat="42.83996" lon="1.83786">
        <ele>1899.206</ele>
        <time>2021-02-28T11:54:20Z</time>
      </trkpt>
      <trkpt lat="42.83996" lon="1.83786">
        <ele>1899.209</ele>
        <time>2021-02-28T11:54:22Z</time>
      </trkpt>
      <trkpt lat="42.83996" lon="1.83786">
        <ele>1899.209</ele>
        <time>2021-02-28T11:54:24Z</time>
      </trkpt>
      <trkpt lat="42.83996" lon="1.83786">
        <ele>1899.21</ele>
        <time>2021-02-28T11:54:26Z</time>
      </trkpt>
      <trkpt lat="42.83996" lon="1.83786">
        <ele>1899.209</ele>
        <time>2021-02-28T11:54:28Z</time>
      </trkpt>
      <trkpt lat="42.83996" lon="1.83786">
        <ele>1899.21</ele>
        <time>2021-02-28T11:54:30Z</time>
      </trkpt>
      <trkpt lat="42.83996" lon="1.83786">
        <ele>1899.212</ele>
        <time>2021-02-28T11:54:32Z</time>
      </trkpt>
      <trkpt lat="42.83996" lon="1.83786">
        <ele>1899.216</ele>
        <time>2021-02-28T11:54:34Z</time>
      </trkpt>
      <trkpt lat="42.83996" lon="1.83786">
        <ele>1899.215</ele>
        <time>2021-02-28T11:54:36Z</time>
      </trkpt>
      <trkpt lat="42.83996" lon="1.83786">
        <ele>1899.216</ele>
        <time>2021-02-28T11:54:38Z</time>
      </trkpt>
      <trkpt lat="42.83996" lon="1.83786">
        <ele>1899.218</ele>
        <time>2021-02-28T11:54:40Z</time>
      </trkpt>
      <trkpt lat="42.83996" lon="1.83786">
        <ele>1899.218</ele>
        <time>2021-02-28T11:54:42Z</time>
      </trkpt>
      <trkpt lat="42.83996" lon="1.83786">
        <ele>1899.218</ele>
        <time>2021-02-28T11:54:44Z</time>
      </trkpt>
      <trkpt lat="42.83996" lon="1.83786">
        <ele>1899.219</ele>
        <time>2021-02-28T11:54:46Z</time>
      </trkpt>
      <trkpt lat="42.83996" lon="1.83786">
        <ele>1899.217</ele>
        <time>2021-02-28T11:54:48Z</time>
      </trkpt>
      <trkpt lat="42.83996" lon="1.83786">
        <ele>1899.22</ele>
        <time>2021-02-28T11:54:50Z</time>
      </trkpt>
      <trkpt lat="42.83996" lon="1.83786">
        <ele>1899.22</ele>
        <time>2021-02-28T11:54:52Z</time>
      </trkpt>
      <trkpt lat="42.83996" lon="1.83786">
        <ele>1899.22</ele>
        <time>2021-02-28T11:54:54Z</time>
      </trkpt>
      <trkpt lat="42.83996" lon="1.83786">
        <ele>1899.219</ele>
        <time>2021-02-28T11:54:56Z</time>
      </trkpt>
      <trkpt lat="42.83996" lon="1.83786">
        <ele>1899.217</ele>
        <time>2021-02-28T11:54:58Z</time>
      </trkpt>
      <trkpt lat="42.83996" lon="1.83786">
        <ele>1899.218</ele>
        <time>2021-02-28T11:55:00Z</time>
      </trkpt>
      <trkpt lat="42.83996" lon="1.83786">
        <ele>1899.217</ele>
        <time>2021-02-28T11:55:02Z</time>
      </trkpt>
      <trkpt lat="42.83996" lon="1.83786">
        <ele>1899.218</ele>
        <time>2021-02-28T11:55:04Z</time>
      </trkpt>
      <trkpt lat="42.83996" lon="1.83786">
        <ele>1899.218</ele>
        <time>2021-02-28T11:55:06Z</time>
      </trkpt>
      <trkpt lat="42.83996" lon="1.83786">
        <ele>1899.218</ele>
        <time>2021-02-28T11:55:08Z</time>
      </trkpt>
      <trkpt lat="42.83996" lon="1.83786">
        <ele>1899.219</ele>
        <time>2021-02-28T11:55:10Z</time>
      </trkpt>
      <trkpt lat="42.83996" lon="1.83786">
        <ele>1899.218</ele>
        <time>2021-02-28T11:55:12Z</time>
      </trkpt>
      <trkpt lat="42.83996" lon="1.83786">
        <ele>1899.221</ele>
        <time>2021-02-28T11:55:14Z</time>
      </trkpt>
      <trkpt lat="42.83996" lon="1.83786">
        <ele>1899.22</ele>
        <time>2021-02-28T11:55:16Z</time>
      </trkpt>
      <trkpt lat="42.83996" lon="1.83786">
        <ele>1899.219</ele>
        <time>2021-02-28T11:55:18Z</time>
      </trkpt>
      <trkpt lat="42.83996" lon="1.83786">
        <ele>1899.22</ele>
        <time>2021-02-28T11:55:20Z</time>
      </trkpt>
      <trkpt lat="42.83996" lon="1.83786">
        <ele>1899.22</ele>
        <time>2021-02-28T11:55:22Z</time>
      </trkpt>
      <trkpt lat="42.83996" lon="1.83786">
        <ele>1899.22</ele>
        <time>2021-02-28T11:55:24Z</time>
      </trkpt>
      <trkpt lat="42.83996" lon="1.83786">
        <ele>1899.222</ele>
        <time>2021-02-28T11:55:26Z</time>
      </trkpt>
      <trkpt lat="42.83996" lon="1.83786">
        <ele>1899.226</ele>
        <time>2021-02-28T11:55:28Z</time>
      </trkpt>
      <trkpt lat="42.83996" lon="1.83786">
        <ele>1899.225</ele>
        <time>2021-02-28T11:55:30Z</time>
      </trkpt>
      <trkpt lat="42.83996" lon="1.83786">
        <ele>1899.226</ele>
        <time>2021-02-28T11:55:33Z</time>
      </trkpt>
      <trkpt lat="42.83996" lon="1.83786">
        <ele>1899.228</ele>
        <time>2021-02-28T11:55:35Z</time>
      </trkpt>
      <trkpt lat="42.83996" lon="1.83786">
        <ele>1899.228</ele>
        <time>2021-02-28T11:55:37Z</time>
      </trkpt>
      <trkpt lat="42.83996" lon="1.83786">
        <ele>1899.229</ele>
        <time>2021-02-28T11:55:39Z</time>
      </trkpt>
      <trkpt lat="42.83996" lon="1.83786">
        <ele>1899.229</ele>
        <time>2021-02-28T11:55:41Z</time>
      </trkpt>
      <trkpt lat="42.83996" lon="1.83786">
        <ele>1899.231</ele>
        <time>2021-02-28T11:55:43Z</time>
      </trkpt>
      <trkpt lat="42.83996" lon="1.83786">
        <ele>1899.23</ele>
        <time>2021-02-28T11:55:45Z</time>
      </trkpt>
      <trkpt lat="42.83996" lon="1.83786">
        <ele>1899.231</ele>
        <time>2021-02-28T11:55:47Z</time>
      </trkpt>
      <trkpt lat="42.83996" lon="1.83786">
        <ele>1899.233</ele>
        <time>2021-02-28T11:55:49Z</time>
      </trkpt>
      <trkpt lat="42.83996" lon="1.83786">
        <ele>1899.235</ele>
        <time>2021-02-28T11:55:51Z</time>
      </trkpt>
      <trkpt lat="42.83996" lon="1.83786">
        <ele>1899.237</ele>
        <time>2021-02-28T11:55:53Z</time>
      </trkpt>
      <trkpt lat="42.83996" lon="1.83786">
        <ele>1899.236</ele>
        <time>2021-02-28T11:55:55Z</time>
      </trkpt>
      <trkpt lat="42.83996" lon="1.83786">
        <ele>1899.236</ele>
        <time>2021-02-28T11:55:57Z</time>
      </trkpt>
      <trkpt lat="42.83996" lon="1.83786">
        <ele>1899.237</ele>
        <time>2021-02-28T11:55:59Z</time>
      </trkpt>
      <trkpt lat="42.83996" lon="1.83786">
        <ele>1899.237</ele>
        <time>2021-02-28T11:56:01Z</time>
      </trkpt>
      <trkpt lat="42.83996" lon="1.83786">
        <ele>1899.236</ele>
        <time>2021-02-28T11:56:03Z</time>
      </trkpt>
      <trkpt lat="42.83996" lon="1.83786">
        <ele>1899.236</ele>
        <time>2021-02-28T11:56:05Z</time>
      </trkpt>
      <trkpt lat="42.83996" lon="1.83786">
        <ele>1899.237</ele>
        <time>2021-02-28T11:56:07Z</time>
      </trkpt>
      <trkpt lat="42.83996" lon="1.83786">
        <ele>1899.238</ele>
        <time>2021-02-28T11:56:09Z</time>
      </trkpt>
      <trkpt lat="42.83996" lon="1.83786">
        <ele>1899.237</ele>
        <time>2021-02-28T11:56:11Z</time>
      </trkpt>
      <trkpt lat="42.83996" lon="1.83786">
        <ele>1899.238</ele>
        <time>2021-02-28T11:56:13Z</time>
      </trkpt>
      <trkpt lat="42.83996" lon="1.83786">
        <ele>1899.237</ele>
        <time>2021-02-28T11:56:15Z</time>
      </trkpt>
      <trkpt lat="42.83996" lon="1.83786">
        <ele>1899.236</ele>
        <time>2021-02-28T11:56:17Z</time>
      </trkpt>
      <trkpt lat="42.83996" lon="1.83786">
        <ele>1899.236</ele>
        <time>2021-02-28T11:56:19Z</time>
      </trkpt>
      <trkpt lat="42.83996" lon="1.83786">
        <ele>1899.237</ele>
        <time>2021-02-28T11:56:21Z</time>
      </trkpt>
      <trkpt lat="42.83996" lon="1.83786">
        <ele>1899.236</ele>
        <time>2021-02-28T11:56:23Z</time>
      </trkpt>
      <trkpt lat="42.83996" lon="1.83786">
        <ele>1899.236</ele>
        <time>2021-02-28T11:56:25Z</time>
      </trkpt>
      <trkpt lat="42.83996" lon="1.83786">
        <ele>1899.236</ele>
        <time>2021-02-28T11:56:27Z</time>
      </trkpt>
      <trkpt lat="42.83996" lon="1.83786">
        <ele>1899.237</ele>
        <time>2021-02-28T11:56:29Z</time>
      </trkpt>
      <trkpt lat="42.83996" lon="1.83786">
        <ele>1899.238</ele>
        <time>2021-02-28T11:56:31Z</time>
      </trkpt>
      <trkpt lat="42.83996" lon="1.83786">
        <ele>1899.235</ele>
        <time>2021-02-28T11:56:33Z</time>
      </trkpt>
      <trkpt lat="42.83996" lon="1.83786">
        <ele>1899.238</ele>
        <time>2021-02-28T11:56:35Z</time>
      </trkpt>
      <trkpt lat="42.83996" lon="1.83786">
        <ele>1899.239</ele>
        <time>2021-02-28T11:56:37Z</time>
      </trkpt>
      <trkpt lat="42.83996" lon="1.83786">
        <ele>1899.237</ele>
        <time>2021-02-28T11:56:39Z</time>
      </trkpt>
      <trkpt lat="42.83996" lon="1.83786">
        <ele>1899.239</ele>
        <time>2021-02-28T11:56:41Z</time>
      </trkpt>
      <trkpt lat="42.83996" lon="1.83786">
        <ele>1899.238</ele>
        <time>2021-02-28T11:56:43Z</time>
      </trkpt>
      <trkpt lat="42.83996" lon="1.83786">
        <ele>1899.237</ele>
        <time>2021-02-28T11:56:45Z</time>
      </trkpt>
      <trkpt lat="42.83996" lon="1.83786">
        <ele>1899.234</ele>
        <time>2021-02-28T11:56:47Z</time>
      </trkpt>
      <trkpt lat="42.83996" lon="1.83786">
        <ele>1899.234</ele>
        <time>2021-02-28T11:56:49Z</time>
      </trkpt>
      <trkpt lat="42.83996" lon="1.83786">
        <ele>1899.233</ele>
        <time>2021-02-28T11:56:51Z</time>
      </trkpt>
      <trkpt lat="42.83996" lon="1.83786">
        <ele>1899.232</ele>
        <time>2021-02-28T11:56:53Z</time>
      </trkpt>
      <trkpt lat="42.83996" lon="1.83786">
        <ele>1899.231</ele>
        <time>2021-02-28T11:56:55Z</time>
      </trkpt>
      <trkpt lat="42.83996" lon="1.83786">
        <ele>1899.23</ele>
        <time>2021-02-28T11:56:57Z</time>
      </trkpt>
      <trkpt lat="42.83996" lon="1.83786">
        <ele>1899.228</ele>
        <time>2021-02-28T11:56:59Z</time>
      </trkpt>
      <trkpt lat="42.83996" lon="1.83786">
        <ele>1899.227</ele>
        <time>2021-02-28T11:57:01Z</time>
      </trkpt>
      <trkpt lat="42.83996" lon="1.83786">
        <ele>1899.225</ele>
        <time>2021-02-28T11:57:03Z</time>
      </trkpt>
      <trkpt lat="42.83996" lon="1.83786">
        <ele>1899.227</ele>
        <time>2021-02-28T11:57:05Z</time>
      </trkpt>
      <trkpt lat="42.83996" lon="1.83786">
        <ele>1899.228</ele>
        <time>2021-02-28T11:57:07Z</time>
      </trkpt>
      <trkpt lat="42.83996" lon="1.83786">
        <ele>1899.228</ele>
        <time>2021-02-28T11:57:09Z</time>
      </trkpt>
      <trkpt lat="42.83996" lon="1.83786">
        <ele>1899.228</ele>
        <time>2021-02-28T11:57:11Z</time>
      </trkpt>
      <trkpt lat="42.83996" lon="1.83786">
        <ele>1899.227</ele>
        <time>2021-02-28T11:57:13Z</time>
      </trkpt>
      <trkpt lat="42.83996" lon="1.83786">
        <ele>1899.226</ele>
        <time>2021-02-28T11:57:15Z</time>
      </trkpt>
      <trkpt lat="42.83996" lon="1.83786">
        <ele>1899.226</ele>
        <time>2021-02-28T11:57:17Z</time>
      </trkpt>
      <trkpt lat="42.83996" lon="1.83786">
        <ele>1899.226</ele>
        <time>2021-02-28T11:57:19Z</time>
      </trkpt>
      <trkpt lat="42.83996" lon="1.83786">
        <ele>1899.225</ele>
        <time>2021-02-28T11:57:21Z</time>
      </trkpt>
      <trkpt lat="42.83996" lon="1.83786">
        <ele>1899.225</ele>
        <time>2021-02-28T11:57:23Z</time>
      </trkpt>
      <trkpt lat="42.83996" lon="1.83786">
        <ele>1899.225</ele>
        <time>2021-02-28T11:57:25Z</time>
      </trkpt>
      <trkpt lat="42.83996" lon="1.83786">
        <ele>1899.226</ele>
        <time>2021-02-28T11:57:27Z</time>
      </trkpt>
      <trkpt lat="42.83996" lon="1.83786">
        <ele>1899.228</ele>
        <time>2021-02-28T11:57:29Z</time>
      </trkpt>
      <trkpt lat="42.83996" lon="1.83786">
        <ele>1899.229</ele>
        <time>2021-02-28T11:57:31Z</time>
      </trkpt>
      <trkpt lat="42.83996" lon="1.83786">
        <ele>1899.23</ele>
        <time>2021-02-28T11:57:33Z</time>
      </trkpt>
      <trkpt lat="42.83996" lon="1.83786">
        <ele>1899.23</ele>
        <time>2021-02-28T11:57:35Z</time>
      </trkpt>
      <trkpt lat="42.83996" lon="1.83786">
        <ele>1899.229</ele>
        <time>2021-02-28T11:57:37Z</time>
      </trkpt>
      <trkpt lat="42.83996" lon="1.83786">
        <ele>1899.23</ele>
        <time>2021-02-28T11:57:39Z</time>
      </trkpt>
      <trkpt lat="42.83996" lon="1.83786">
        <ele>1899.231</ele>
        <time>2021-02-28T11:57:41Z</time>
      </trkpt>
      <trkpt lat="42.83996" lon="1.83786">
        <ele>1899.231</ele>
        <time>2021-02-28T11:57:43Z</time>
      </trkpt>
      <trkpt lat="42.83996" lon="1.83786">
        <ele>1899.23</ele>
        <time>2021-02-28T11:57:45Z</time>
      </trkpt>
      <trkpt lat="42.83996" lon="1.83786">
        <ele>1899.23</ele>
        <time>2021-02-28T11:57:47Z</time>
      </trkpt>
      <trkpt lat="42.83996" lon="1.83786">
        <ele>1899.229</ele>
        <time>2021-02-28T11:57:49Z</time>
      </trkpt>
      <trkpt lat="42.83996" lon="1.83786">
        <ele>1899.228</ele>
        <time>2021-02-28T11:57:51Z</time>
      </trkpt>
      <trkpt lat="42.83996" lon="1.83786">
        <ele>1899.228</ele>
        <time>2021-02-28T11:57:53Z</time>
      </trkpt>
      <trkpt lat="42.83996" lon="1.83786">
        <ele>1899.227</ele>
        <time>2021-02-28T11:57:55Z</time>
      </trkpt>
      <trkpt lat="42.83996" lon="1.83786">
        <ele>1899.228</ele>
        <time>2021-02-28T11:57:57Z</time>
      </trkpt>
      <trkpt lat="42.83996" lon="1.83786">
        <ele>1899.229</ele>
        <time>2021-02-28T11:57:59Z</time>
      </trkpt>
      <trkpt lat="42.83996" lon="1.83786">
        <ele>1899.229</ele>
        <time>2021-02-28T11:58:01Z</time>
      </trkpt>
      <trkpt lat="42.83996" lon="1.83786">
        <ele>1899.228</ele>
        <time>2021-02-28T11:58:03Z</time>
      </trkpt>
      <trkpt lat="42.83996" lon="1.83786">
        <ele>1899.228</ele>
        <time>2021-02-28T11:58:05Z</time>
      </trkpt>
      <trkpt lat="42.83996" lon="1.83786">
        <ele>1899.229</ele>
        <time>2021-02-28T11:58:07Z</time>
      </trkpt>
      <trkpt lat="42.83996" lon="1.83786">
        <ele>1899.227</ele>
        <time>2021-02-28T11:58:09Z</time>
      </trkpt>
      <trkpt lat="42.83996" lon="1.83786">
        <ele>1899.228</ele>
        <time>2021-02-28T11:58:11Z</time>
      </trkpt>
      <trkpt lat="42.83996" lon="1.83786">
        <ele>1899.227</ele>
        <time>2021-02-28T11:58:13Z</time>
      </trkpt>
      <trkpt lat="42.83996" lon="1.83786">
        <ele>1899.229</ele>
        <time>2021-02-28T11:58:15Z</time>
      </trkpt>
      <trkpt lat="42.83996" lon="1.83786">
        <ele>1899.228</ele>
        <time>2021-02-28T11:58:17Z</time>
      </trkpt>
      <trkpt lat="42.83996" lon="1.83786">
        <ele>1899.227</ele>
        <time>2021-02-28T11:58:19Z</time>
      </trkpt>
      <trkpt lat="42.83996" lon="1.83786">
        <ele>1899.227</ele>
        <time>2021-02-28T11:58:21Z</time>
      </trkpt>
      <trkpt lat="42.83996" lon="1.83786">
        <ele>1899.229</ele>
        <time>2021-02-28T11:58:23Z</time>
      </trkpt>
      <trkpt lat="42.83996" lon="1.83786">
        <ele>1899.23</ele>
        <time>2021-02-28T11:58:25Z</time>
      </trkpt>
      <trkpt lat="42.83996" lon="1.83786">
        <ele>1899.227</ele>
        <time>2021-02-28T11:58:27Z</time>
      </trkpt>
      <trkpt lat="42.83996" lon="1.83786">
        <ele>1899.226</ele>
        <time>2021-02-28T11:58:29Z</time>
      </trkpt>
      <trkpt lat="42.83996" lon="1.83786">
        <ele>1899.226</ele>
        <time>2021-02-28T11:58:31Z</time>
      </trkpt>
      <trkpt lat="42.83996" lon="1.83786">
        <ele>1899.224</ele>
        <time>2021-02-28T11:58:33Z</time>
      </trkpt>
      <trkpt lat="42.83996" lon="1.83786">
        <ele>1899.224</ele>
        <time>2021-02-28T11:58:35Z</time>
      </trkpt>
      <trkpt lat="42.83996" lon="1.83786">
        <ele>1899.225</ele>
        <time>2021-02-28T11:58:37Z</time>
      </trkpt>
      <trkpt lat="42.83996" lon="1.83786">
        <ele>1899.226</ele>
        <time>2021-02-28T11:58:39Z</time>
      </trkpt>
      <trkpt lat="42.83996" lon="1.83786">
        <ele>1899.226</ele>
        <time>2021-02-28T11:58:41Z</time>
      </trkpt>
      <trkpt lat="42.83996" lon="1.83786">
        <ele>1899.227</ele>
        <time>2021-02-28T11:58:43Z</time>
      </trkpt>
      <trkpt lat="42.83996" lon="1.83786">
        <ele>1899.229</ele>
        <time>2021-02-28T11:58:45Z</time>
      </trkpt>
      <trkpt lat="42.83996" lon="1.83786">
        <ele>1899.23</ele>
        <time>2021-02-28T11:58:47Z</time>
      </trkpt>
      <trkpt lat="42.83996" lon="1.83786">
        <ele>1899.23</ele>
        <time>2021-02-28T11:58:49Z</time>
      </trkpt>
      <trkpt lat="42.83996" lon="1.83786">
        <ele>1899.23</ele>
        <time>2021-02-28T11:58:51Z</time>
      </trkpt>
      <trkpt lat="42.83996" lon="1.83786">
        <ele>1899.23</ele>
        <time>2021-02-28T11:58:53Z</time>
      </trkpt>
      <trkpt lat="42.83996" lon="1.83786">
        <ele>1899.231</ele>
        <time>2021-02-28T11:58:55Z</time>
      </trkpt>
      <trkpt lat="42.83996" lon="1.83786">
        <ele>1899.23</ele>
        <time>2021-02-28T11:58:57Z</time>
      </trkpt>
      <trkpt lat="42.83996" lon="1.83786">
        <ele>1899.232</ele>
        <time>2021-02-28T11:58:59Z</time>
      </trkpt>
      <trkpt lat="42.83996" lon="1.83786">
        <ele>1899.216</ele>
        <time>2021-02-28T11:59:01Z</time>
      </trkpt>
      <trkpt lat="42.83996" lon="1.83786">
        <ele>1899.213</ele>
        <time>2021-02-28T11:59:03Z</time>
      </trkpt>
      <trkpt lat="42.83996" lon="1.83786">
        <ele>1899.212</ele>
        <time>2021-02-28T11:59:05Z</time>
      </trkpt>
      <trkpt lat="42.83996" lon="1.83786">
        <ele>1899.212</ele>
        <time>2021-02-28T11:59:07Z</time>
      </trkpt>
      <trkpt lat="42.83996" lon="1.83786">
        <ele>1899.211</ele>
        <time>2021-02-28T11:59:09Z</time>
      </trkpt>
      <trkpt lat="42.83996" lon="1.83786">
        <ele>1899.21</ele>
        <time>2021-02-28T11:59:11Z</time>
      </trkpt>
      <trkpt lat="42.83996" lon="1.83786">
        <ele>1899.208</ele>
        <time>2021-02-28T11:59:13Z</time>
      </trkpt>
      <trkpt lat="42.83996" lon="1.83786">
        <ele>1899.206</ele>
        <time>2021-02-28T11:59:15Z</time>
      </trkpt>
      <trkpt lat="42.83996" lon="1.83786">
        <ele>1899.205</ele>
        <time>2021-02-28T11:59:17Z</time>
      </trkpt>
      <trkpt lat="42.83996" lon="1.83786">
        <ele>1899.203</ele>
        <time>2021-02-28T11:59:19Z</time>
      </trkpt>
      <trkpt lat="42.83996" lon="1.83786">
        <ele>1899.203</ele>
        <time>2021-02-28T11:59:21Z</time>
      </trkpt>
      <trkpt lat="42.83996" lon="1.83786">
        <ele>1899.203</ele>
        <time>2021-02-28T11:59:23Z</time>
      </trkpt>
      <trkpt lat="42.83996" lon="1.83786">
        <ele>1899.202</ele>
        <time>2021-02-28T11:59:25Z</time>
      </trkpt>
      <trkpt lat="42.83996" lon="1.83786">
        <ele>1899.202</ele>
        <time>2021-02-28T11:59:27Z</time>
      </trkpt>
      <trkpt lat="42.83996" lon="1.83786">
        <ele>1899.2</ele>
        <time>2021-02-28T11:59:29Z</time>
      </trkpt>
      <trkpt lat="42.83996" lon="1.83786">
        <ele>1899.2</ele>
        <time>2021-02-28T11:59:31Z</time>
      </trkpt>
      <trkpt lat="42.83996" lon="1.83786">
        <ele>1899.199</ele>
        <time>2021-02-28T11:59:33Z</time>
      </trkpt>
      <trkpt lat="42.83996" lon="1.83786">
        <ele>1899.198</ele>
        <time>2021-02-28T11:59:35Z</time>
      </trkpt>
      <trkpt lat="42.83996" lon="1.83786">
        <ele>1899.199</ele>
        <time>2021-02-28T11:59:37Z</time>
      </trkpt>
      <trkpt lat="42.83996" lon="1.83786">
        <ele>1899.199</ele>
        <time>2021-02-28T11:59:39Z</time>
      </trkpt>
      <trkpt lat="42.83996" lon="1.83786">
        <ele>1899.199</ele>
        <time>2021-02-28T11:59:41Z</time>
      </trkpt>
      <trkpt lat="42.83996" lon="1.83786">
        <ele>1899.2</ele>
        <time>2021-02-28T11:59:43Z</time>
      </trkpt>
      <trkpt lat="42.83996" lon="1.83786">
        <ele>1899.2</ele>
        <time>2021-02-28T11:59:45Z</time>
      </trkpt>
      <trkpt lat="42.83996" lon="1.83786">
        <ele>1899.199</ele>
        <time>2021-02-28T11:59:47Z</time>
      </trkpt>
      <trkpt lat="42.83996" lon="1.83786">
        <ele>1899.2</ele>
        <time>2021-02-28T11:59:49Z</time>
      </trkpt>
      <trkpt lat="42.83996" lon="1.83786">
        <ele>1899.199</ele>
        <time>2021-02-28T11:59:51Z</time>
      </trkpt>
      <trkpt lat="42.83996" lon="1.83786">
        <ele>1899.197</ele>
        <time>2021-02-28T11:59:53Z</time>
      </trkpt>
      <trkpt lat="42.83996" lon="1.83786">
        <ele>1899.198</ele>
        <time>2021-02-28T11:59:55Z</time>
      </trkpt>
      <trkpt lat="42.83996" lon="1.83786">
        <ele>1899.198</ele>
        <time>2021-02-28T11:59:57Z</time>
      </trkpt>
      <trkpt lat="42.83996" lon="1.83786">
        <ele>1899.199</ele>
        <time>2021-02-28T11:59:59Z</time>
      </trkpt>
      <trkpt lat="42.83996" lon="1.83786">
        <ele>1899.199</ele>
        <time>2021-02-28T12:00:01Z</time>
      </trkpt>
      <trkpt lat="42.83996" lon="1.83786">
        <ele>1899.197</ele>
        <time>2021-02-28T12:00:03Z</time>
      </trkpt>
      <trkpt lat="42.83996" lon="1.83786">
        <ele>1899.196</ele>
        <time>2021-02-28T12:00:05Z</time>
      </trkpt>
      <trkpt lat="42.83996" lon="1.83786">
        <ele>1899.194</ele>
        <time>2021-02-28T12:00:07Z</time>
      </trkpt>
      <trkpt lat="42.83996" lon="1.83786">
        <ele>1899.193</ele>
        <time>2021-02-28T12:00:09Z</time>
      </trkpt>
      <trkpt lat="42.83996" lon="1.83786">
        <ele>1899.195</ele>
        <time>2021-02-28T12:00:11Z</time>
      </trkpt>
      <trkpt lat="42.83996" lon="1.83786">
        <ele>1899.196</ele>
        <time>2021-02-28T12:00:13Z</time>
      </trkpt>
      <trkpt lat="42.83996" lon="1.83786">
        <ele>1899.196</ele>
        <time>2021-02-28T12:00:15Z</time>
      </trkpt>
      <trkpt lat="42.83996" lon="1.83786">
        <ele>1899.196</ele>
        <time>2021-02-28T12:00:17Z</time>
      </trkpt>
      <trkpt lat="42.83996" lon="1.83786">
        <ele>1899.196</ele>
        <time>2021-02-28T12:00:18Z</time>
      </trkpt>
      <trkpt lat="42.83996" lon="1.83786">
        <ele>1899.197</ele>
        <time>2021-02-28T12:00:21Z</time>
      </trkpt>
      <trkpt lat="42.83996" lon="1.83786">
        <ele>1899.197</ele>
        <time>2021-02-28T12:00:23Z</time>
      </trkpt>
      <trkpt lat="42.83996" lon="1.83786">
        <ele>1899.197</ele>
        <time>2021-02-28T12:00:25Z</time>
      </trkpt>
      <trkpt lat="42.83996" lon="1.83786">
        <ele>1899.197</ele>
        <time>2021-02-28T12:00:27Z</time>
      </trkpt>
      <trkpt lat="42.83996" lon="1.83786">
        <ele>1899.199</ele>
        <time>2021-02-28T12:00:29Z</time>
      </trkpt>
      <trkpt lat="42.83996" lon="1.83786">
        <ele>1899.199</ele>
        <time>2021-02-28T12:00:31Z</time>
      </trkpt>
      <trkpt lat="42.83996" lon="1.83786">
        <ele>1899.199</ele>
        <time>2021-02-28T12:00:33Z</time>
      </trkpt>
      <trkpt lat="42.83996" lon="1.83786">
        <ele>1899.201</ele>
        <time>2021-02-28T12:00:35Z</time>
      </trkpt>
      <trkpt lat="42.83996" lon="1.83786">
        <ele>1899.201</ele>
        <time>2021-02-28T12:00:37Z</time>
      </trkpt>
      <trkpt lat="42.83996" lon="1.83786">
        <ele>1899.201</ele>
        <time>2021-02-28T12:00:39Z</time>
      </trkpt>
      <trkpt lat="42.83996" lon="1.83786">
        <ele>1899.199</ele>
        <time>2021-02-28T12:00:41Z</time>
      </trkpt>
      <trkpt lat="42.83996" lon="1.83786">
        <ele>1899.199</ele>
        <time>2021-02-28T12:00:43Z</time>
      </trkpt>
      <trkpt lat="42.83996" lon="1.83786">
        <ele>1899.198</ele>
        <time>2021-02-28T12:00:45Z</time>
      </trkpt>
      <trkpt lat="42.83996" lon="1.83786">
        <ele>1899.2</ele>
        <time>2021-02-28T12:00:47Z</time>
      </trkpt>
      <trkpt lat="42.83996" lon="1.83786">
        <ele>1899.199</ele>
        <time>2021-02-28T12:00:49Z</time>
      </trkpt>
      <trkpt lat="42.83996" lon="1.83786">
        <ele>1899.2</ele>
        <time>2021-02-28T12:00:51Z</time>
      </trkpt>
      <trkpt lat="42.83996" lon="1.83786">
        <ele>1899.2</ele>
        <time>2021-02-28T12:00:53Z</time>
      </trkpt>
      <trkpt lat="42.83996" lon="1.83786">
        <ele>1899.201</ele>
        <time>2021-02-28T12:00:55Z</time>
      </trkpt>
      <trkpt lat="42.83996" lon="1.83786">
        <ele>1899.2</ele>
        <time>2021-02-28T12:00:57Z</time>
      </trkpt>
      <trkpt lat="42.83996" lon="1.83786">
        <ele>1899.201</ele>
        <time>2021-02-28T12:00:59Z</time>
      </trkpt>
      <trkpt lat="42.83996" lon="1.83786">
        <ele>1899.201</ele>
        <time>2021-02-28T12:01:01Z</time>
      </trkpt>
      <trkpt lat="42.83996" lon="1.83786">
        <ele>1899.2</ele>
        <time>2021-02-28T12:01:03Z</time>
      </trkpt>
      <trkpt lat="42.83996" lon="1.83786">
        <ele>1899.2</ele>
        <time>2021-02-28T12:01:05Z</time>
      </trkpt>
      <trkpt lat="42.83996" lon="1.83786">
        <ele>1899.2</ele>
        <time>2021-02-28T12:01:07Z</time>
      </trkpt>
      <trkpt lat="42.83996" lon="1.83786">
        <ele>1899.2</ele>
        <time>2021-02-28T12:01:09Z</time>
      </trkpt>
      <trkpt lat="42.83996" lon="1.83786">
        <ele>1899.201</ele>
        <time>2021-02-28T12:01:11Z</time>
      </trkpt>
      <trkpt lat="42.83996" lon="1.83786">
        <ele>1899.2</ele>
        <time>2021-02-28T12:01:13Z</time>
      </trkpt>
      <trkpt lat="42.83996" lon="1.83786">
        <ele>1899.201</ele>
        <time>2021-02-28T12:01:15Z</time>
      </trkpt>
      <trkpt lat="42.83996" lon="1.83786">
        <ele>1899.202</ele>
        <time>2021-02-28T12:01:17Z</time>
      </trkpt>
      <trkpt lat="42.83996" lon="1.83786">
        <ele>1899.201</ele>
        <time>2021-02-28T12:01:19Z</time>
      </trkpt>
      <trkpt lat="42.83996" lon="1.83786">
        <ele>1899.201</ele>
        <time>2021-02-28T12:01:21Z</time>
      </trkpt>
      <trkpt lat="42.83996" lon="1.83786">
        <ele>1899.203</ele>
        <time>2021-02-28T12:01:23Z</time>
      </trkpt>
      <trkpt lat="42.83996" lon="1.83786">
        <ele>1899.204</ele>
        <time>2021-02-28T12:01:25Z</time>
      </trkpt>
      <trkpt lat="42.83996" lon="1.83786">
        <ele>1899.204</ele>
        <time>2021-02-28T12:01:27Z</time>
      </trkpt>
      <trkpt lat="42.83996" lon="1.83786">
        <ele>1899.204</ele>
        <time>2021-02-28T12:01:29Z</time>
      </trkpt>
      <trkpt lat="42.83996" lon="1.83786">
        <ele>1899.205</ele>
        <time>2021-02-28T12:01:31Z</time>
      </trkpt>
      <trkpt lat="42.83996" lon="1.83786">
        <ele>1899.205</ele>
        <time>2021-02-28T12:01:33Z</time>
      </trkpt>
      <trkpt lat="42.83996" lon="1.83786">
        <ele>1899.206</ele>
        <time>2021-02-28T12:01:35Z</time>
      </trkpt>
      <trkpt lat="42.83996" lon="1.83786">
        <ele>1899.206</ele>
        <time>2021-02-28T12:01:37Z</time>
      </trkpt>
      <trkpt lat="42.83996" lon="1.83786">
        <ele>1899.206</ele>
        <time>2021-02-28T12:01:39Z</time>
      </trkpt>
      <trkpt lat="42.83996" lon="1.83786">
        <ele>1899.207</ele>
        <time>2021-02-28T12:01:41Z</time>
      </trkpt>
      <trkpt lat="42.83996" lon="1.83786">
        <ele>1899.205</ele>
        <time>2021-02-28T12:01:43Z</time>
      </trkpt>
      <trkpt lat="42.83996" lon="1.83786">
        <ele>1899.206</ele>
        <time>2021-02-28T12:01:44Z</time>
      </trkpt>
      <trkpt lat="42.83996" lon="1.83786">
        <ele>1899.204</ele>
        <time>2021-02-28T12:01:47Z</time>
      </trkpt>
      <trkpt lat="42.83996" lon="1.83786">
        <ele>1899.202</ele>
        <time>2021-02-28T12:01:49Z</time>
      </trkpt>
      <trkpt lat="42.83996" lon="1.83786">
        <ele>1899.203</ele>
        <time>2021-02-28T12:01:51Z</time>
      </trkpt>
      <trkpt lat="42.83996" lon="1.83786">
        <ele>1899.202</ele>
        <time>2021-02-28T12:01:53Z</time>
      </trkpt>
      <trkpt lat="42.83996" lon="1.83786">
        <ele>1899.202</ele>
        <time>2021-02-28T12:01:55Z</time>
      </trkpt>
      <trkpt lat="42.83996" lon="1.83786">
        <ele>1899.201</ele>
        <time>2021-02-28T12:01:57Z</time>
      </trkpt>
      <trkpt lat="42.83996" lon="1.83786">
        <ele>1899.203</ele>
        <time>2021-02-28T12:01:59Z</time>
      </trkpt>
      <trkpt lat="42.83996" lon="1.83786">
        <ele>1899.201</ele>
        <time>2021-02-28T12:02:01Z</time>
      </trkpt>
      <trkpt lat="42.83996" lon="1.83786">
        <ele>1899.201</ele>
        <time>2021-02-28T12:02:03Z</time>
      </trkpt>
      <trkpt lat="42.83996" lon="1.83786">
        <ele>1899.2</ele>
        <time>2021-02-28T12:02:05Z</time>
      </trkpt>
      <trkpt lat="42.83996" lon="1.83786">
        <ele>1899.201</ele>
        <time>2021-02-28T12:02:07Z</time>
      </trkpt>
      <trkpt lat="42.83996" lon="1.83786">
        <ele>1899.202</ele>
        <time>2021-02-28T12:02:09Z</time>
      </trkpt>
      <trkpt lat="42.83996" lon="1.83786">
        <ele>1899.203</ele>
        <time>2021-02-28T12:02:11Z</time>
      </trkpt>
      <trkpt lat="42.83996" lon="1.83786">
        <ele>1899.201</ele>
        <time>2021-02-28T12:02:13Z</time>
      </trkpt>
      <trkpt lat="42.83996" lon="1.83786">
        <ele>1899.201</ele>
        <time>2021-02-28T12:02:15Z</time>
      </trkpt>
      <trkpt lat="42.83996" lon="1.83786">
        <ele>1899.201</ele>
        <time>2021-02-28T12:02:17Z</time>
      </trkpt>
      <trkpt lat="42.83996" lon="1.83786">
        <ele>1899.199</ele>
        <time>2021-02-28T12:02:19Z</time>
      </trkpt>
      <trkpt lat="42.83996" lon="1.83786">
        <ele>1899.199</ele>
        <time>2021-02-28T12:02:21Z</time>
      </trkpt>
      <trkpt lat="42.83996" lon="1.83786">
        <ele>1899.199</ele>
        <time>2021-02-28T12:02:23Z</time>
      </trkpt>
      <trkpt lat="42.83996" lon="1.83786">
        <ele>1899.198</ele>
        <time>2021-02-28T12:02:25Z</time>
      </trkpt>
      <trkpt lat="42.83996" lon="1.83786">
        <ele>1899.197</ele>
        <time>2021-02-28T12:02:27Z</time>
      </trkpt>
      <trkpt lat="42.83996" lon="1.83786">
        <ele>1899.196</ele>
        <time>2021-02-28T12:02:29Z</time>
      </trkpt>
      <trkpt lat="42.83996" lon="1.83786">
        <ele>1899.197</ele>
        <time>2021-02-28T12:02:31Z</time>
      </trkpt>
      <trkpt lat="42.83996" lon="1.83786">
        <ele>1899.197</ele>
        <time>2021-02-28T12:02:33Z</time>
      </trkpt>
      <trkpt lat="42.83996" lon="1.83786">
        <ele>1899.197</ele>
        <time>2021-02-28T12:02:35Z</time>
      </trkpt>
      <trkpt lat="42.83996" lon="1.83786">
        <ele>1899.199</ele>
        <time>2021-02-28T12:02:37Z</time>
      </trkpt>
      <trkpt lat="42.83996" lon="1.83786">
        <ele>1899.199</ele>
        <time>2021-02-28T12:02:39Z</time>
      </trkpt>
      <trkpt lat="42.83996" lon="1.83786">
        <ele>1899.197</ele>
        <time>2021-02-28T12:02:41Z</time>
      </trkpt>
      <trkpt lat="42.83996" lon="1.83786">
        <ele>1899.198</ele>
        <time>2021-02-28T12:02:43Z</time>
      </trkpt>
      <trkpt lat="42.83996" lon="1.83786">
        <ele>1899.199</ele>
        <time>2021-02-28T12:02:45Z</time>
      </trkpt>
      <trkpt lat="42.83996" lon="1.83786">
        <ele>1899.198</ele>
        <time>2021-02-28T12:02:47Z</time>
      </trkpt>
      <trkpt lat="42.83996" lon="1.83786">
        <ele>1899.201</ele>
        <time>2021-02-28T12:02:49Z</time>
      </trkpt>
      <trkpt lat="42.83996" lon="1.83786">
        <ele>1899.201</ele>
        <time>2021-02-28T12:02:51Z</time>
      </trkpt>
      <trkpt lat="42.83996" lon="1.83786">
        <ele>1899.202</ele>
        <time>2021-02-28T12:02:53Z</time>
      </trkpt>
      <trkpt lat="42.83996" lon="1.83786">
        <ele>1899.202</ele>
        <time>2021-02-28T12:02:55Z</time>
      </trkpt>
      <trkpt lat="42.83996" lon="1.83786">
        <ele>1899.2</ele>
        <time>2021-02-28T12:02:57Z</time>
      </trkpt>
      <trkpt lat="42.83996" lon="1.83786">
        <ele>1899.201</ele>
        <time>2021-02-28T12:02:59Z</time>
      </trkpt>
      <trkpt lat="42.83996" lon="1.83786">
        <ele>1899.201</ele>
        <time>2021-02-28T12:03:01Z</time>
      </trkpt>
      <trkpt lat="42.83996" lon="1.83786">
        <ele>1899.2</ele>
        <time>2021-02-28T12:03:03Z</time>
      </trkpt>
      <trkpt lat="42.83996" lon="1.83786">
        <ele>1899.198</ele>
        <time>2021-02-28T12:03:05Z</time>
      </trkpt>
      <trkpt lat="42.83996" lon="1.83786">
        <ele>1899.197</ele>
        <time>2021-02-28T12:03:07Z</time>
      </trkpt>
      <trkpt lat="42.83996" lon="1.83786">
        <ele>1899.195</ele>
        <time>2021-02-28T12:03:09Z</time>
      </trkpt>
      <trkpt lat="42.83996" lon="1.83786">
        <ele>1899.195</ele>
        <time>2021-02-28T12:03:11Z</time>
      </trkpt>
      <trkpt lat="42.83996" lon="1.83786">
        <ele>1899.193</ele>
        <time>2021-02-28T12:03:13Z</time>
      </trkpt>
      <trkpt lat="42.83996" lon="1.83786">
        <ele>1899.193</ele>
        <time>2021-02-28T12:03:15Z</time>
      </trkpt>
      <trkpt lat="42.83996" lon="1.83786">
        <ele>1899.194</ele>
        <time>2021-02-28T12:03:17Z</time>
      </trkpt>
      <trkpt lat="42.83996" lon="1.83786">
        <ele>1899.195</ele>
        <time>2021-02-28T12:03:19Z</time>
      </trkpt>
      <trkpt lat="42.83996" lon="1.83786">
        <ele>1899.193</ele>
        <time>2021-02-28T12:03:21Z</time>
      </trkpt>
      <trkpt lat="42.83996" lon="1.83786">
        <ele>1899.193</ele>
        <time>2021-02-28T12:03:23Z</time>
      </trkpt>
      <trkpt lat="42.83996" lon="1.83786">
        <ele>1899.194</ele>
        <time>2021-02-28T12:03:25Z</time>
      </trkpt>
      <trkpt lat="42.83996" lon="1.83786">
        <ele>1899.193</ele>
        <time>2021-02-28T12:03:27Z</time>
      </trkpt>
      <trkpt lat="42.83996" lon="1.83786">
        <ele>1899.193</ele>
        <time>2021-02-28T12:03:29Z</time>
      </trkpt>
      <trkpt lat="42.83996" lon="1.83786">
        <ele>1899.192</ele>
        <time>2021-02-28T12:03:31Z</time>
      </trkpt>
      <trkpt lat="42.83996" lon="1.83786">
        <ele>1899.189</ele>
        <time>2021-02-28T12:03:33Z</time>
      </trkpt>
      <trkpt lat="42.83996" lon="1.83786">
        <ele>1899.19</ele>
        <time>2021-02-28T12:03:35Z</time>
      </trkpt>
      <trkpt lat="42.83996" lon="1.83786">
        <ele>1899.189</ele>
        <time>2021-02-28T12:03:37Z</time>
      </trkpt>
      <trkpt lat="42.83996" lon="1.83786">
        <ele>1899.187</ele>
        <time>2021-02-28T12:03:39Z</time>
      </trkpt>
      <trkpt lat="42.83996" lon="1.83786">
        <ele>1899.188</ele>
        <time>2021-02-28T12:03:41Z</time>
      </trkpt>
      <trkpt lat="42.83996" lon="1.83786">
        <ele>1899.187</ele>
        <time>2021-02-28T12:03:43Z</time>
      </trkpt>
      <trkpt lat="42.83996" lon="1.83786">
        <ele>1899.188</ele>
        <time>2021-02-28T12:03:45Z</time>
      </trkpt>
      <trkpt lat="42.83996" lon="1.83786">
        <ele>1899.189</ele>
        <time>2021-02-28T12:03:47Z</time>
      </trkpt>
      <trkpt lat="42.83996" lon="1.83786">
        <ele>1899.188</ele>
        <time>2021-02-28T12:03:49Z</time>
      </trkpt>
      <trkpt lat="42.83996" lon="1.83786">
        <ele>1899.188</ele>
        <time>2021-02-28T12:03:51Z</time>
      </trkpt>
      <trkpt lat="42.83996" lon="1.83786">
        <ele>1899.188</ele>
        <time>2021-02-28T12:03:53Z</time>
      </trkpt>
      <trkpt lat="42.83996" lon="1.83786">
        <ele>1899.187</ele>
        <time>2021-02-28T12:03:55Z</time>
      </trkpt>
      <trkpt lat="42.83996" lon="1.83786">
        <ele>1899.187</ele>
        <time>2021-02-28T12:03:57Z</time>
      </trkpt>
      <trkpt lat="42.83996" lon="1.83786">
        <ele>1899.186</ele>
        <time>2021-02-28T12:03:59Z</time>
      </trkpt>
      <trkpt lat="42.83996" lon="1.83786">
        <ele>1899.187</ele>
        <time>2021-02-28T12:04:01Z</time>
      </trkpt>
      <trkpt lat="42.83996" lon="1.83786">
        <ele>1899.187</ele>
        <time>2021-02-28T12:04:03Z</time>
      </trkpt>
      <trkpt lat="42.83996" lon="1.83786">
        <ele>1899.186</ele>
        <time>2021-02-28T12:04:05Z</time>
      </trkpt>
      <trkpt lat="42.83996" lon="1.83786">
        <ele>1899.185</ele>
        <time>2021-02-28T12:04:07Z</time>
      </trkpt>
      <trkpt lat="42.83996" lon="1.83786">
        <ele>1899.184</ele>
        <time>2021-02-28T12:04:09Z</time>
      </trkpt>
      <trkpt lat="42.83996" lon="1.83786">
        <ele>1899.185</ele>
        <time>2021-02-28T12:04:11Z</time>
      </trkpt>
      <trkpt lat="42.83996" lon="1.83786">
        <ele>1899.183</ele>
        <time>2021-02-28T12:04:13Z</time>
      </trkpt>
      <trkpt lat="42.83996" lon="1.83786">
        <ele>1899.184</ele>
        <time>2021-02-28T12:04:15Z</time>
      </trkpt>
      <trkpt lat="42.83996" lon="1.83786">
        <ele>1899.184</ele>
        <time>2021-02-28T12:04:17Z</time>
      </trkpt>
      <trkpt lat="42.83996" lon="1.83786">
        <ele>1899.185</ele>
        <time>2021-02-28T12:04:19Z</time>
      </trkpt>
      <trkpt lat="42.83996" lon="1.83786">
        <ele>1899.187</ele>
        <time>2021-02-28T12:04:21Z</time>
      </trkpt>
      <trkpt lat="42.83996" lon="1.83786">
        <ele>1899.188</ele>
        <time>2021-02-28T12:04:23Z</time>
      </trkpt>
      <trkpt lat="42.83996" lon="1.83786">
        <ele>1899.187</ele>
        <time>2021-02-28T12:04:25Z</time>
      </trkpt>
      <trkpt lat="42.83996" lon="1.83786">
        <ele>1899.186</ele>
        <time>2021-02-28T12:04:27Z</time>
      </trkpt>
      <trkpt lat="42.83996" lon="1.83786">
        <ele>1899.186</ele>
        <time>2021-02-28T12:04:29Z</time>
      </trkpt>
      <trkpt lat="42.83996" lon="1.83786">
        <ele>1899.186</ele>
        <time>2021-02-28T12:04:31Z</time>
      </trkpt>
      <trkpt lat="42.83996" lon="1.83786">
        <ele>1899.185</ele>
        <time>2021-02-28T12:04:33Z</time>
      </trkpt>
      <trkpt lat="42.83996" lon="1.83786">
        <ele>1899.186</ele>
        <time>2021-02-28T12:04:35Z</time>
      </trkpt>
      <trkpt lat="42.83996" lon="1.83786">
        <ele>1899.186</ele>
        <time>2021-02-28T12:04:37Z</time>
      </trkpt>
      <trkpt lat="42.83996" lon="1.83786">
        <ele>1899.183</ele>
        <time>2021-02-28T12:04:39Z</time>
      </trkpt>
      <trkpt lat="42.83996" lon="1.83786">
        <ele>1899.183</ele>
        <time>2021-02-28T12:04:41Z</time>
      </trkpt>
      <trkpt lat="42.83996" lon="1.83786">
        <ele>1899.182</ele>
        <time>2021-02-28T12:04:43Z</time>
      </trkpt>
      <trkpt lat="42.83996" lon="1.83786">
        <ele>1899.182</ele>
        <time>2021-02-28T12:04:45Z</time>
      </trkpt>
      <trkpt lat="42.83996" lon="1.83786">
        <ele>1899.181</ele>
        <time>2021-02-28T12:04:47Z</time>
      </trkpt>
      <trkpt lat="42.83996" lon="1.83786">
        <ele>1899.182</ele>
        <time>2021-02-28T12:04:49Z</time>
      </trkpt>
      <trkpt lat="42.83996" lon="1.83786">
        <ele>1899.181</ele>
        <time>2021-02-28T12:04:51Z</time>
      </trkpt>
      <trkpt lat="42.83996" lon="1.83786">
        <ele>1899.18</ele>
        <time>2021-02-28T12:04:53Z</time>
      </trkpt>
      <trkpt lat="42.83996" lon="1.83786">
        <ele>1899.179</ele>
        <time>2021-02-28T12:04:55Z</time>
      </trkpt>
      <trkpt lat="42.83996" lon="1.83786">
        <ele>1899.179</ele>
        <time>2021-02-28T12:04:57Z</time>
      </trkpt>
      <trkpt lat="42.83996" lon="1.83786">
        <ele>1899.179</ele>
        <time>2021-02-28T12:04:59Z</time>
      </trkpt>
      <trkpt lat="42.83996" lon="1.83786">
        <ele>1899.18</ele>
        <time>2021-02-28T12:05:01Z</time>
      </trkpt>
      <trkpt lat="42.83996" lon="1.83786">
        <ele>1899.18</ele>
        <time>2021-02-28T12:05:03Z</time>
      </trkpt>
      <trkpt lat="42.83996" lon="1.83786">
        <ele>1899.179</ele>
        <time>2021-02-28T12:05:05Z</time>
      </trkpt>
      <trkpt lat="42.83996" lon="1.83786">
        <ele>1899.179</ele>
        <time>2021-02-28T12:05:07Z</time>
      </trkpt>
      <trkpt lat="42.83996" lon="1.83786">
        <ele>1899.18</ele>
        <time>2021-02-28T12:05:09Z</time>
      </trkpt>
      <trkpt lat="42.83996" lon="1.83786">
        <ele>1899.178</ele>
        <time>2021-02-28T12:05:11Z</time>
      </trkpt>
      <trkpt lat="42.83996" lon="1.83786">
        <ele>1899.18</ele>
        <time>2021-02-28T12:05:13Z</time>
      </trkpt>
      <trkpt lat="42.83996" lon="1.83786">
        <ele>1899.18</ele>
        <time>2021-02-28T12:05:15Z</time>
      </trkpt>
      <trkpt lat="42.83996" lon="1.83786">
        <ele>1899.179</ele>
        <time>2021-02-28T12:05:17Z</time>
      </trkpt>
      <trkpt lat="42.83996" lon="1.83786">
        <ele>1899.179</ele>
        <time>2021-02-28T12:05:19Z</time>
      </trkpt>
      <trkpt lat="42.83996" lon="1.83786">
        <ele>1899.178</ele>
        <time>2021-02-28T12:05:21Z</time>
      </trkpt>
      <trkpt lat="42.83996" lon="1.83786">
        <ele>1899.178</ele>
        <time>2021-02-28T12:05:23Z</time>
      </trkpt>
      <trkpt lat="42.83996" lon="1.83786">
        <ele>1899.178</ele>
        <time>2021-02-28T12:05:25Z</time>
      </trkpt>
      <trkpt lat="42.83996" lon="1.83786">
        <ele>1899.179</ele>
        <time>2021-02-28T12:05:27Z</time>
      </trkpt>
      <trkpt lat="42.83996" lon="1.83786">
        <ele>1899.177</ele>
        <time>2021-02-28T12:05:29Z</time>
      </trkpt>
      <trkpt lat="42.83996" lon="1.83786">
        <ele>1899.176</ele>
        <time>2021-02-28T12:05:31Z</time>
      </trkpt>
      <trkpt lat="42.83996" lon="1.83786">
        <ele>1899.175</ele>
        <time>2021-02-28T12:05:33Z</time>
      </trkpt>
      <trkpt lat="42.83996" lon="1.83786">
        <ele>1899.176</ele>
        <time>2021-02-28T12:05:35Z</time>
      </trkpt>
      <trkpt lat="42.83996" lon="1.83786">
        <ele>1899.175</ele>
        <time>2021-02-28T12:05:37Z</time>
      </trkpt>
      <trkpt lat="42.83996" lon="1.83786">
        <ele>1899.174</ele>
        <time>2021-02-28T12:05:39Z</time>
      </trkpt>
      <trkpt lat="42.83996" lon="1.83786">
        <ele>1899.174</ele>
        <time>2021-02-28T12:05:41Z</time>
      </trkpt>
      <trkpt lat="42.83996" lon="1.83786">
        <ele>1899.171</ele>
        <time>2021-02-28T12:05:43Z</time>
      </trkpt>
      <trkpt lat="42.83996" lon="1.83786">
        <ele>1899.17</ele>
        <time>2021-02-28T12:05:45Z</time>
      </trkpt>
      <trkpt lat="42.83996" lon="1.83786">
        <ele>1899.17</ele>
        <time>2021-02-28T12:05:47Z</time>
      </trkpt>
      <trkpt lat="42.83996" lon="1.83786">
        <ele>1899.17</ele>
        <time>2021-02-28T12:05:49Z</time>
      </trkpt>
      <trkpt lat="42.83996" lon="1.83786">
        <ele>1899.17</ele>
        <time>2021-02-28T12:05:51Z</time>
      </trkpt>
      <trkpt lat="42.83996" lon="1.83786">
        <ele>1899.169</ele>
        <time>2021-02-28T12:05:53Z</time>
      </trkpt>
      <trkpt lat="42.83996" lon="1.83786">
        <ele>1899.169</ele>
        <time>2021-02-28T12:05:55Z</time>
      </trkpt>
      <trkpt lat="42.83996" lon="1.83786">
        <ele>1899.17</ele>
        <time>2021-02-28T12:05:57Z</time>
      </trkpt>
      <trkpt lat="42.83996" lon="1.83786">
        <ele>1899.171</ele>
        <time>2021-02-28T12:05:59Z</time>
      </trkpt>
      <trkpt lat="42.83996" lon="1.83786">
        <ele>1899.171</ele>
        <time>2021-02-28T12:06:01Z</time>
      </trkpt>
      <trkpt lat="42.83996" lon="1.83786">
        <ele>1899.169</ele>
        <time>2021-02-28T12:06:03Z</time>
      </trkpt>
      <trkpt lat="42.83996" lon="1.83786">
        <ele>1899.168</ele>
        <time>2021-02-28T12:06:05Z</time>
      </trkpt>
      <trkpt lat="42.83996" lon="1.83786">
        <ele>1899.168</ele>
        <time>2021-02-28T12:06:07Z</time>
      </trkpt>
      <trkpt lat="42.83996" lon="1.83786">
        <ele>1899.168</ele>
        <time>2021-02-28T12:06:09Z</time>
      </trkpt>
      <trkpt lat="42.83996" lon="1.83786">
        <ele>1899.168</ele>
        <time>2021-02-28T12:06:11Z</time>
      </trkpt>
      <trkpt lat="42.83996" lon="1.83786">
        <ele>1899.167</ele>
        <time>2021-02-28T12:06:13Z</time>
      </trkpt>
      <trkpt lat="42.83996" lon="1.83786">
        <ele>1899.166</ele>
        <time>2021-02-28T12:06:15Z</time>
      </trkpt>
      <trkpt lat="42.83996" lon="1.83786">
        <ele>1899.166</ele>
        <time>2021-02-28T12:06:17Z</time>
      </trkpt>
      <trkpt lat="42.83996" lon="1.83786">
        <ele>1899.165</ele>
        <time>2021-02-28T12:06:19Z</time>
      </trkpt>
      <trkpt lat="42.83996" lon="1.83786">
        <ele>1899.164</ele>
        <time>2021-02-28T12:06:21Z</time>
      </trkpt>
      <trkpt lat="42.83996" lon="1.83786">
        <ele>1899.163</ele>
        <time>2021-02-28T12:06:23Z</time>
      </trkpt>
      <trkpt lat="42.83996" lon="1.83786">
        <ele>1899.164</ele>
        <time>2021-02-28T12:06:25Z</time>
      </trkpt>
      <trkpt lat="42.83996" lon="1.83786">
        <ele>1899.162</ele>
        <time>2021-02-28T12:06:27Z</time>
      </trkpt>
      <trkpt lat="42.83996" lon="1.83786">
        <ele>1899.163</ele>
        <time>2021-02-28T12:06:29Z</time>
      </trkpt>
      <trkpt lat="42.83996" lon="1.83786">
        <ele>1899.165</ele>
        <time>2021-02-28T12:06:31Z</time>
      </trkpt>
      <trkpt lat="42.83996" lon="1.83786">
        <ele>1899.163</ele>
        <time>2021-02-28T12:06:33Z</time>
      </trkpt>
      <trkpt lat="42.83996" lon="1.83786">
        <ele>1899.163</ele>
        <time>2021-02-28T12:06:35Z</time>
      </trkpt>
      <trkpt lat="42.83996" lon="1.83786">
        <ele>1899.163</ele>
        <time>2021-02-28T12:06:37Z</time>
      </trkpt>
      <trkpt lat="42.83996" lon="1.83786">
        <ele>1899.163</ele>
        <time>2021-02-28T12:06:39Z</time>
      </trkpt>
      <trkpt lat="42.83996" lon="1.83786">
        <ele>1899.164</ele>
        <time>2021-02-28T12:06:41Z</time>
      </trkpt>
      <trkpt lat="42.83996" lon="1.83786">
        <ele>1899.165</ele>
        <time>2021-02-28T12:06:43Z</time>
      </trkpt>
      <trkpt lat="42.83996" lon="1.83786">
        <ele>1899.166</ele>
        <time>2021-02-28T12:06:45Z</time>
      </trkpt>
      <trkpt lat="42.83996" lon="1.83786">
        <ele>1899.164</ele>
        <time>2021-02-28T12:06:47Z</time>
      </trkpt>
      <trkpt lat="42.83996" lon="1.83786">
        <ele>1899.162</ele>
        <time>2021-02-28T12:06:49Z</time>
      </trkpt>
      <trkpt lat="42.83996" lon="1.83786">
        <ele>1899.164</ele>
        <time>2021-02-28T12:06:51Z</time>
      </trkpt>
      <trkpt lat="42.83996" lon="1.83786">
        <ele>1899.166</ele>
        <time>2021-02-28T12:06:53Z</time>
      </trkpt>
      <trkpt lat="42.83996" lon="1.83786">
        <ele>1899.165</ele>
        <time>2021-02-28T12:06:55Z</time>
      </trkpt>
      <trkpt lat="42.83996" lon="1.83786">
        <ele>1899.166</ele>
        <time>2021-02-28T12:06:57Z</time>
      </trkpt>
      <trkpt lat="42.83996" lon="1.83786">
        <ele>1899.398</ele>
        <time>2021-02-28T12:06:59Z</time>
      </trkpt>
      <trkpt lat="42.83996" lon="1.83786">
        <ele>1899.501</ele>
        <time>2021-02-28T12:07:01Z</time>
      </trkpt>
      <trkpt lat="42.83996" lon="1.83786">
        <ele>1899.5</ele>
        <time>2021-02-28T12:07:03Z</time>
      </trkpt>
      <trkpt lat="42.83996" lon="1.83786">
        <ele>1899.499</ele>
        <time>2021-02-28T12:07:05Z</time>
      </trkpt>
      <trkpt lat="42.83996" lon="1.83786">
        <ele>1899.499</ele>
        <time>2021-02-28T12:07:07Z</time>
      </trkpt>
      <trkpt lat="42.83996" lon="1.83786">
        <ele>1899.497</ele>
        <time>2021-02-28T12:07:09Z</time>
      </trkpt>
      <trkpt lat="42.83996" lon="1.83786">
        <ele>1899.495</ele>
        <time>2021-02-28T12:07:11Z</time>
      </trkpt>
      <trkpt lat="42.83996" lon="1.83786">
        <ele>1899.493</ele>
        <time>2021-02-28T12:07:13Z</time>
      </trkpt>
      <trkpt lat="42.83996" lon="1.83786">
        <ele>1899.494</ele>
        <time>2021-02-28T12:07:15Z</time>
      </trkpt>
      <trkpt lat="42.83996" lon="1.83786">
        <ele>1899.494</ele>
        <time>2021-02-28T12:07:17Z</time>
      </trkpt>
      <trkpt lat="42.83996" lon="1.83786">
        <ele>1899.494</ele>
        <time>2021-02-28T12:07:19Z</time>
      </trkpt>
      <trkpt lat="42.83996" lon="1.83786">
        <ele>1899.492</ele>
        <time>2021-02-28T12:07:21Z</time>
      </trkpt>
      <trkpt lat="42.83996" lon="1.83786">
        <ele>1899.491</ele>
        <time>2021-02-28T12:07:23Z</time>
      </trkpt>
      <trkpt lat="42.83996" lon="1.83786">
        <ele>1899.49</ele>
        <time>2021-02-28T12:07:25Z</time>
      </trkpt>
      <trkpt lat="42.83996" lon="1.83786">
        <ele>1899.489</ele>
        <time>2021-02-28T12:07:27Z</time>
      </trkpt>
      <trkpt lat="42.83996" lon="1.83786">
        <ele>1899.487</ele>
        <time>2021-02-28T12:07:29Z</time>
      </trkpt>
      <trkpt lat="42.83996" lon="1.83786">
        <ele>1899.485</ele>
        <time>2021-02-28T12:07:31Z</time>
      </trkpt>
      <trkpt lat="42.83996" lon="1.83786">
        <ele>1899.483</ele>
        <time>2021-02-28T12:07:33Z</time>
      </trkpt>
      <trkpt lat="42.83996" lon="1.83786">
        <ele>1899.484</ele>
        <time>2021-02-28T12:07:35Z</time>
      </trkpt>
      <trkpt lat="42.83996" lon="1.83786">
        <ele>1899.482</ele>
        <time>2021-02-28T12:07:37Z</time>
      </trkpt>
      <trkpt lat="42.83996" lon="1.83786">
        <ele>1899.482</ele>
        <time>2021-02-28T12:07:39Z</time>
      </trkpt>
      <trkpt lat="42.83996" lon="1.83786">
        <ele>1899.483</ele>
        <time>2021-02-28T12:07:41Z</time>
      </trkpt>
      <trkpt lat="42.83996" lon="1.83786">
        <ele>1899.485</ele>
        <time>2021-02-28T12:07:43Z</time>
      </trkpt>
      <trkpt lat="42.83996" lon="1.83786">
        <ele>1899.485</ele>
        <time>2021-02-28T12:07:45Z</time>
      </trkpt>
      <trkpt lat="42.83996" lon="1.83786">
        <ele>1899.485</ele>
        <time>2021-02-28T12:07:47Z</time>
      </trkpt>
      <trkpt lat="42.83996" lon="1.83786">
        <ele>1899.484</ele>
        <time>2021-02-28T12:07:49Z</time>
      </trkpt>
      <trkpt lat="42.83996" lon="1.83786">
        <ele>1899.483</ele>
        <time>2021-02-28T12:07:51Z</time>
      </trkpt>
      <trkpt lat="42.83996" lon="1.83786">
        <ele>1899.483</ele>
        <time>2021-02-28T12:07:53Z</time>
      </trkpt>
      <trkpt lat="42.83996" lon="1.83786">
        <ele>1899.482</ele>
        <time>2021-02-28T12:07:55Z</time>
      </trkpt>
      <trkpt lat="42.83996" lon="1.83786">
        <ele>1899.481</ele>
        <time>2021-02-28T12:07:57Z</time>
      </trkpt>
      <trkpt lat="42.83996" lon="1.83786">
        <ele>1899.48</ele>
        <time>2021-02-28T12:07:59Z</time>
      </trkpt>
      <trkpt lat="42.83996" lon="1.83786">
        <ele>1899.48</ele>
        <time>2021-02-28T12:08:01Z</time>
      </trkpt>
      <trkpt lat="42.83996" lon="1.83786">
        <ele>1899.479</ele>
        <time>2021-02-28T12:08:03Z</time>
      </trkpt>
      <trkpt lat="42.83996" lon="1.83786">
        <ele>1899.478</ele>
        <time>2021-02-28T12:08:05Z</time>
      </trkpt>
      <trkpt lat="42.83996" lon="1.83786">
        <ele>1899.479</ele>
        <time>2021-02-28T12:08:07Z</time>
      </trkpt>
      <trkpt lat="42.83996" lon="1.83786">
        <ele>1899.478</ele>
        <time>2021-02-28T12:08:09Z</time>
      </trkpt>
      <trkpt lat="42.83996" lon="1.83786">
        <ele>1899.478</ele>
        <time>2021-02-28T12:08:11Z</time>
      </trkpt>
      <trkpt lat="42.83996" lon="1.83786">
        <ele>1899.478</ele>
        <time>2021-02-28T12:08:13Z</time>
      </trkpt>
      <trkpt lat="42.83996" lon="1.83786">
        <ele>1899.478</ele>
        <time>2021-02-28T12:08:15Z</time>
      </trkpt>
      <trkpt lat="42.83996" lon="1.83786">
        <ele>1899.477</ele>
        <time>2021-02-28T12:08:17Z</time>
      </trkpt>
      <trkpt lat="42.83996" lon="1.83786">
        <ele>1899.476</ele>
        <time>2021-02-28T12:08:19Z</time>
      </trkpt>
      <trkpt lat="42.83996" lon="1.83786">
        <ele>1899.476</ele>
        <time>2021-02-28T12:08:21Z</time>
      </trkpt>
      <trkpt lat="42.83996" lon="1.83786">
        <ele>1899.475</ele>
        <time>2021-02-28T12:08:23Z</time>
      </trkpt>
      <trkpt lat="42.83996" lon="1.83786">
        <ele>1899.475</ele>
        <time>2021-02-28T12:08:25Z</time>
      </trkpt>
      <trkpt lat="42.83996" lon="1.83786">
        <ele>1899.475</ele>
        <time>2021-02-28T12:08:27Z</time>
      </trkpt>
      <trkpt lat="42.83996" lon="1.83786">
        <ele>1899.474</ele>
        <time>2021-02-28T12:08:29Z</time>
      </trkpt>
      <trkpt lat="42.83996" lon="1.83786">
        <ele>1899.473</ele>
        <time>2021-02-28T12:08:31Z</time>
      </trkpt>
      <trkpt lat="42.83996" lon="1.83786">
        <ele>1899.472</ele>
        <time>2021-02-28T12:08:33Z</time>
      </trkpt>
      <trkpt lat="42.83996" lon="1.83786">
        <ele>1899.471</ele>
        <time>2021-02-28T12:08:35Z</time>
      </trkpt>
      <trkpt lat="42.83996" lon="1.83786">
        <ele>1899.471</ele>
        <time>2021-02-28T12:08:37Z</time>
      </trkpt>
      <trkpt lat="42.83996" lon="1.83786">
        <ele>1899.471</ele>
        <time>2021-02-28T12:08:39Z</time>
      </trkpt>
      <trkpt lat="42.83996" lon="1.83786">
        <ele>1899.472</ele>
        <time>2021-02-28T12:08:41Z</time>
      </trkpt>
      <trkpt lat="42.83996" lon="1.83786">
        <ele>1899.471</ele>
        <time>2021-02-28T12:08:43Z</time>
      </trkpt>
      <trkpt lat="42.83996" lon="1.83786">
        <ele>1899.471</ele>
        <time>2021-02-28T12:08:45Z</time>
      </trkpt>
      <trkpt lat="42.83996" lon="1.83786">
        <ele>1899.471</ele>
        <time>2021-02-28T12:08:47Z</time>
      </trkpt>
      <trkpt lat="42.83996" lon="1.83786">
        <ele>1899.472</ele>
        <time>2021-02-28T12:08:49Z</time>
      </trkpt>
      <trkpt lat="42.83996" lon="1.83786">
        <ele>1899.472</ele>
        <time>2021-02-28T12:08:51Z</time>
      </trkpt>
      <trkpt lat="42.83996" lon="1.83786">
        <ele>1899.472</ele>
        <time>2021-02-28T12:08:53Z</time>
      </trkpt>
      <trkpt lat="42.83996" lon="1.83786">
        <ele>1899.472</ele>
        <time>2021-02-28T12:08:55Z</time>
      </trkpt>
      <trkpt lat="42.83996" lon="1.83786">
        <ele>1899.473</ele>
        <time>2021-02-28T12:08:57Z</time>
      </trkpt>
      <trkpt lat="42.83996" lon="1.83786">
        <ele>1899.473</ele>
        <time>2021-02-28T12:08:59Z</time>
      </trkpt>
      <trkpt lat="42.83996" lon="1.83786">
        <ele>1899.472</ele>
        <time>2021-02-28T12:09:01Z</time>
      </trkpt>
      <trkpt lat="42.83996" lon="1.83786">
        <ele>1899.472</ele>
        <time>2021-02-28T12:09:03Z</time>
      </trkpt>
      <trkpt lat="42.83996" lon="1.83786">
        <ele>1899.472</ele>
        <time>2021-02-28T12:09:05Z</time>
      </trkpt>
      <trkpt lat="42.83996" lon="1.83786">
        <ele>1899.471</ele>
        <time>2021-02-28T12:09:07Z</time>
      </trkpt>
      <trkpt lat="42.83996" lon="1.83786">
        <ele>1899.471</ele>
        <time>2021-02-28T12:09:09Z</time>
      </trkpt>
      <trkpt lat="42.83996" lon="1.83786">
        <ele>1899.471</ele>
        <time>2021-02-28T12:09:11Z</time>
      </trkpt>
      <trkpt lat="42.83996" lon="1.83786">
        <ele>1899.47</ele>
        <time>2021-02-28T12:09:13Z</time>
      </trkpt>
      <trkpt lat="42.83996" lon="1.83786">
        <ele>1899.468</ele>
        <time>2021-02-28T12:09:15Z</time>
      </trkpt>
      <trkpt lat="42.83996" lon="1.83786">
        <ele>1899.468</ele>
        <time>2021-02-28T12:09:17Z</time>
      </trkpt>
      <trkpt lat="42.83996" lon="1.83786">
        <ele>1899.468</ele>
        <time>2021-02-28T12:09:19Z</time>
      </trkpt>
      <trkpt lat="42.83996" lon="1.83786">
        <ele>1899.467</ele>
        <time>2021-02-28T12:09:21Z</time>
      </trkpt>
      <trkpt lat="42.83996" lon="1.83786">
        <ele>1899.469</ele>
        <time>2021-02-28T12:09:23Z</time>
      </trkpt>
      <trkpt lat="42.83996" lon="1.83786">
        <ele>1899.467</ele>
        <time>2021-02-28T12:09:25Z</time>
      </trkpt>
      <trkpt lat="42.83996" lon="1.83786">
        <ele>1899.467</ele>
        <time>2021-02-28T12:09:27Z</time>
      </trkpt>
      <trkpt lat="42.83996" lon="1.83786">
        <ele>1899.465</ele>
        <time>2021-02-28T12:09:29Z</time>
      </trkpt>
      <trkpt lat="42.83996" lon="1.83786">
        <ele>1899.466</ele>
        <time>2021-02-28T12:09:31Z</time>
      </trkpt>
      <trkpt lat="42.83996" lon="1.83786">
        <ele>1899.467</ele>
        <time>2021-02-28T12:09:33Z</time>
      </trkpt>
      <trkpt lat="42.83996" lon="1.83786">
        <ele>1899.467</ele>
        <time>2021-02-28T12:09:35Z</time>
      </trkpt>
      <trkpt lat="42.83996" lon="1.83786">
        <ele>1899.466</ele>
        <time>2021-02-28T12:09:37Z</time>
      </trkpt>
      <trkpt lat="42.83996" lon="1.83786">
        <ele>1899.465</ele>
        <time>2021-02-28T12:09:39Z</time>
      </trkpt>
      <trkpt lat="42.83996" lon="1.83786">
        <ele>1899.464</ele>
        <time>2021-02-28T12:09:41Z</time>
      </trkpt>
      <trkpt lat="42.83996" lon="1.83786">
        <ele>1899.464</ele>
        <time>2021-02-28T12:09:43Z</time>
      </trkpt>
      <trkpt lat="42.83996" lon="1.83786">
        <ele>1899.464</ele>
        <time>2021-02-28T12:09:45Z</time>
      </trkpt>
      <trkpt lat="42.83996" lon="1.83786">
        <ele>1899.464</ele>
        <time>2021-02-28T12:09:47Z</time>
      </trkpt>
      <trkpt lat="42.83996" lon="1.83786">
        <ele>1899.464</ele>
        <time>2021-02-28T12:09:49Z</time>
      </trkpt>
      <trkpt lat="42.83996" lon="1.83786">
        <ele>1899.465</ele>
        <time>2021-02-28T12:09:51Z</time>
      </trkpt>
      <trkpt lat="42.83996" lon="1.83786">
        <ele>1899.464</ele>
        <time>2021-02-28T12:09:53Z</time>
      </trkpt>
      <trkpt lat="42.83996" lon="1.83786">
        <ele>1899.463</ele>
        <time>2021-02-28T12:09:55Z</time>
      </trkpt>
      <trkpt lat="42.83996" lon="1.83786">
        <ele>1899.463</ele>
        <time>2021-02-28T12:09:57Z</time>
      </trkpt>
      <trkpt lat="42.83996" lon="1.83786">
        <ele>1899.462</ele>
        <time>2021-02-28T12:09:59Z</time>
      </trkpt>
      <trkpt lat="42.83996" lon="1.83786">
        <ele>1899.462</ele>
        <time>2021-02-28T12:10:01Z</time>
      </trkpt>
      <trkpt lat="42.83996" lon="1.83786">
        <ele>1899.462</ele>
        <time>2021-02-28T12:10:03Z</time>
      </trkpt>
      <trkpt lat="42.83996" lon="1.83786">
        <ele>1899.462</ele>
        <time>2021-02-28T12:10:05Z</time>
      </trkpt>
      <trkpt lat="42.83996" lon="1.83786">
        <ele>1899.462</ele>
        <time>2021-02-28T12:10:07Z</time>
      </trkpt>
      <trkpt lat="42.83996" lon="1.83786">
        <ele>1899.462</ele>
        <time>2021-02-28T12:10:09Z</time>
      </trkpt>
      <trkpt lat="42.83996" lon="1.83786">
        <ele>1899.462</ele>
        <time>2021-02-28T12:10:11Z</time>
      </trkpt>
      <trkpt lat="42.83996" lon="1.83786">
        <ele>1899.462</ele>
        <time>2021-02-28T12:10:13Z</time>
      </trkpt>
      <trkpt lat="42.83996" lon="1.83786">
        <ele>1899.463</ele>
        <time>2021-02-28T12:10:15Z</time>
      </trkpt>
      <trkpt lat="42.83996" lon="1.83786">
        <ele>1899.463</ele>
        <time>2021-02-28T12:10:17Z</time>
      </trkpt>
      <trkpt lat="42.83996" lon="1.83786">
        <ele>1899.463</ele>
        <time>2021-02-28T12:10:19Z</time>
      </trkpt>
      <trkpt lat="42.83996" lon="1.83786">
        <ele>1899.463</ele>
        <time>2021-02-28T12:10:21Z</time>
      </trkpt>
      <trkpt lat="42.83996" lon="1.83786">
        <ele>1899.465</ele>
        <time>2021-02-28T12:10:23Z</time>
      </trkpt>
      <trkpt lat="42.83996" lon="1.83786">
        <ele>1899.466</ele>
        <time>2021-02-28T12:10:25Z</time>
      </trkpt>
      <trkpt lat="42.83996" lon="1.83786">
        <ele>1899.466</ele>
        <time>2021-02-28T12:10:27Z</time>
      </trkpt>
      <trkpt lat="42.83996" lon="1.83786">
        <ele>1899.466</ele>
        <time>2021-02-28T12:10:29Z</time>
      </trkpt>
      <trkpt lat="42.83996" lon="1.83786">
        <ele>1899.465</ele>
        <time>2021-02-28T12:10:31Z</time>
      </trkpt>
      <trkpt lat="42.83996" lon="1.83786">
        <ele>1899.467</ele>
        <time>2021-02-28T12:10:33Z</time>
      </trkpt>
      <trkpt lat="42.83996" lon="1.83786">
        <ele>1899.467</ele>
        <time>2021-02-28T12:10:35Z</time>
      </trkpt>
      <trkpt lat="42.83996" lon="1.83786">
        <ele>1899.468</ele>
        <time>2021-02-28T12:10:37Z</time>
      </trkpt>
      <trkpt lat="42.83996" lon="1.83786">
        <ele>1899.469</ele>
        <time>2021-02-28T12:10:39Z</time>
      </trkpt>
      <trkpt lat="42.83996" lon="1.83786">
        <ele>1899.469</ele>
        <time>2021-02-28T12:10:41Z</time>
      </trkpt>
      <trkpt lat="42.83996" lon="1.83786">
        <ele>1899.469</ele>
        <time>2021-02-28T12:10:43Z</time>
      </trkpt>
      <trkpt lat="42.83996" lon="1.83786">
        <ele>1899.468</ele>
        <time>2021-02-28T12:10:45Z</time>
      </trkpt>
      <trkpt lat="42.83996" lon="1.83786">
        <ele>1899.468</ele>
        <time>2021-02-28T12:10:47Z</time>
      </trkpt>
      <trkpt lat="42.83996" lon="1.83786">
        <ele>1899.468</ele>
        <time>2021-02-28T12:10:49Z</time>
      </trkpt>
      <trkpt lat="42.83996" lon="1.83786">
        <ele>1899.467</ele>
        <time>2021-02-28T12:10:51Z</time>
      </trkpt>
      <trkpt lat="42.83996" lon="1.83786">
        <ele>1899.467</ele>
        <time>2021-02-28T12:10:53Z</time>
      </trkpt>
      <trkpt lat="42.83996" lon="1.83786">
        <ele>1899.467</ele>
        <time>2021-02-28T12:10:55Z</time>
      </trkpt>
      <trkpt lat="42.83996" lon="1.83786">
        <ele>1899.467</ele>
        <time>2021-02-28T12:10:57Z</time>
      </trkpt>
      <trkpt lat="42.83996" lon="1.83786">
        <ele>1899.467</ele>
        <time>2021-02-28T12:10:59Z</time>
      </trkpt>
      <trkpt lat="42.83996" lon="1.83786">
        <ele>1899.466</ele>
        <time>2021-02-28T12:11:01Z</time>
      </trkpt>
      <trkpt lat="42.83996" lon="1.83786">
        <ele>1899.465</ele>
        <time>2021-02-28T12:11:03Z</time>
      </trkpt>
      <trkpt lat="42.83996" lon="1.83786">
        <ele>1899.466</ele>
        <time>2021-02-28T12:11:05Z</time>
      </trkpt>
      <trkpt lat="42.83996" lon="1.83786">
        <ele>1899.464</ele>
        <time>2021-02-28T12:11:07Z</time>
      </trkpt>
      <trkpt lat="42.83996" lon="1.83786">
        <ele>1899.464</ele>
        <time>2021-02-28T12:11:09Z</time>
      </trkpt>
      <trkpt lat="42.83996" lon="1.83786">
        <ele>1899.463</ele>
        <time>2021-02-28T12:11:11Z</time>
      </trkpt>
      <trkpt lat="42.83996" lon="1.83786">
        <ele>1899.462</ele>
        <time>2021-02-28T12:11:13Z</time>
      </trkpt>
      <trkpt lat="42.83996" lon="1.83786">
        <ele>1899.463</ele>
        <time>2021-02-28T12:11:15Z</time>
      </trkpt>
      <trkpt lat="42.83996" lon="1.83786">
        <ele>1899.463</ele>
        <time>2021-02-28T12:11:17Z</time>
      </trkpt>
      <trkpt lat="42.83996" lon="1.83786">
        <ele>1899.463</ele>
        <time>2021-02-28T12:11:19Z</time>
      </trkpt>
      <trkpt lat="42.83996" lon="1.83786">
        <ele>1899.463</ele>
        <time>2021-02-28T12:11:21Z</time>
      </trkpt>
      <trkpt lat="42.83996" lon="1.83786">
        <ele>1899.464</ele>
        <time>2021-02-28T12:11:23Z</time>
      </trkpt>
      <trkpt lat="42.83996" lon="1.83786">
        <ele>1899.466</ele>
        <time>2021-02-28T12:11:25Z</time>
      </trkpt>
      <trkpt lat="42.83996" lon="1.83786">
        <ele>1899.466</ele>
        <time>2021-02-28T12:11:27Z</time>
      </trkpt>
      <trkpt lat="42.83996" lon="1.83786">
        <ele>1899.466</ele>
        <time>2021-02-28T12:11:29Z</time>
      </trkpt>
      <trkpt lat="42.83996" lon="1.83786">
        <ele>1899.466</ele>
        <time>2021-02-28T12:11:31Z</time>
      </trkpt>
      <trkpt lat="42.83996" lon="1.83786">
        <ele>1899.466</ele>
        <time>2021-02-28T12:11:33Z</time>
      </trkpt>
      <trkpt lat="42.83996" lon="1.83786">
        <ele>1899.465</ele>
        <time>2021-02-28T12:11:35Z</time>
      </trkpt>
      <trkpt lat="42.83996" lon="1.83786">
        <ele>1899.464</ele>
        <time>2021-02-28T12:11:37Z</time>
      </trkpt>
      <trkpt lat="42.83996" lon="1.83786">
        <ele>1899.463</ele>
        <time>2021-02-28T12:11:39Z</time>
      </trkpt>
      <trkpt lat="42.83996" lon="1.83786">
        <ele>1899.462</ele>
        <time>2021-02-28T12:11:41Z</time>
      </trkpt>
      <trkpt lat="42.83996" lon="1.83786">
        <ele>1899.462</ele>
        <time>2021-02-28T12:11:43Z</time>
      </trkpt>
      <trkpt lat="42.83996" lon="1.83786">
        <ele>1899.462</ele>
        <time>2021-02-28T12:11:45Z</time>
      </trkpt>
      <trkpt lat="42.83996" lon="1.83786">
        <ele>1899.461</ele>
        <time>2021-02-28T12:11:47Z</time>
      </trkpt>
      <trkpt lat="42.83996" lon="1.83786">
        <ele>1899.461</ele>
        <time>2021-02-28T12:11:49Z</time>
      </trkpt>
      <trkpt lat="42.83996" lon="1.83786">
        <ele>1899.463</ele>
        <time>2021-02-28T12:11:51Z</time>
      </trkpt>
      <trkpt lat="42.83996" lon="1.83786">
        <ele>1899.464</ele>
        <time>2021-02-28T12:11:53Z</time>
      </trkpt>
      <trkpt lat="42.83996" lon="1.83786">
        <ele>1899.464</ele>
        <time>2021-02-28T12:11:55Z</time>
      </trkpt>
      <trkpt lat="42.83996" lon="1.83786">
        <ele>1899.464</ele>
        <time>2021-02-28T12:11:57Z</time>
      </trkpt>
      <trkpt lat="42.83996" lon="1.83786">
        <ele>1899.465</ele>
        <time>2021-02-28T12:11:59Z</time>
      </trkpt>
      <trkpt lat="42.83996" lon="1.83786">
        <ele>1899.464</ele>
        <time>2021-02-28T12:12:01Z</time>
      </trkpt>
      <trkpt lat="42.83996" lon="1.83786">
        <ele>1899.464</ele>
        <time>2021-02-28T12:12:03Z</time>
      </trkpt>
      <trkpt lat="42.83996" lon="1.83786">
        <ele>1899.463</ele>
        <time>2021-02-28T12:12:05Z</time>
      </trkpt>
      <trkpt lat="42.83996" lon="1.83786">
        <ele>1899.463</ele>
        <time>2021-02-28T12:12:07Z</time>
      </trkpt>
      <trkpt lat="42.83996" lon="1.83786">
        <ele>1899.464</ele>
        <time>2021-02-28T12:12:09Z</time>
      </trkpt>
      <trkpt lat="42.83996" lon="1.83786">
        <ele>1899.463</ele>
        <time>2021-02-28T12:12:11Z</time>
      </trkpt>
      <trkpt lat="42.83996" lon="1.83786">
        <ele>1899.463</ele>
        <time>2021-02-28T12:12:13Z</time>
      </trkpt>
      <trkpt lat="42.83996" lon="1.83786">
        <ele>1899.464</ele>
        <time>2021-02-28T12:12:15Z</time>
      </trkpt>
      <trkpt lat="42.83996" lon="1.83786">
        <ele>1899.464</ele>
        <time>2021-02-28T12:12:17Z</time>
      </trkpt>
      <trkpt lat="42.83996" lon="1.83786">
        <ele>1899.464</ele>
        <time>2021-02-28T12:12:19Z</time>
      </trkpt>
      <trkpt lat="42.83996" lon="1.83786">
        <ele>1899.464</ele>
        <time>2021-02-28T12:12:21Z</time>
      </trkpt>
      <trkpt lat="42.83996" lon="1.83786">
        <ele>1899.464</ele>
        <time>2021-02-28T12:12:23Z</time>
      </trkpt>
      <trkpt lat="42.83996" lon="1.83786">
        <ele>1899.465</ele>
        <time>2021-02-28T12:12:25Z</time>
      </trkpt>
      <trkpt lat="42.83996" lon="1.83786">
        <ele>1899.465</ele>
        <time>2021-02-28T12:12:27Z</time>
      </trkpt>
      <trkpt lat="42.83996" lon="1.83786">
        <ele>1899.465</ele>
        <time>2021-02-28T12:12:29Z</time>
      </trkpt>
      <trkpt lat="42.83996" lon="1.83786">
        <ele>1899.464</ele>
        <time>2021-02-28T12:12:31Z</time>
      </trkpt>
      <trkpt lat="42.83996" lon="1.83786">
        <ele>1899.464</ele>
        <time>2021-02-28T12:12:33Z</time>
      </trkpt>
      <trkpt lat="42.83996" lon="1.83786">
        <ele>1899.464</ele>
        <time>2021-02-28T12:12:35Z</time>
      </trkpt>
      <trkpt lat="42.83996" lon="1.83786">
        <ele>1899.464</ele>
        <time>2021-02-28T12:12:37Z</time>
      </trkpt>
      <trkpt lat="42.83996" lon="1.83786">
        <ele>1899.464</ele>
        <time>2021-02-28T12:12:39Z</time>
      </trkpt>
      <trkpt lat="42.83996" lon="1.83786">
        <ele>1899.465</ele>
        <time>2021-02-28T12:12:41Z</time>
      </trkpt>
      <trkpt lat="42.83996" lon="1.83786">
        <ele>1899.464</ele>
        <time>2021-02-28T12:12:43Z</time>
      </trkpt>
      <trkpt lat="42.83996" lon="1.83786">
        <ele>1899.464</ele>
        <time>2021-02-28T12:12:45Z</time>
      </trkpt>
      <trkpt lat="42.83996" lon="1.83786">
        <ele>1899.464</ele>
        <time>2021-02-28T12:12:47Z</time>
      </trkpt>
      <trkpt lat="42.83996" lon="1.83786">
        <ele>1899.464</ele>
        <time>2021-02-28T12:12:49Z</time>
      </trkpt>
      <trkpt lat="42.83996" lon="1.83786">
        <ele>1899.464</ele>
        <time>2021-02-28T12:12:51Z</time>
      </trkpt>
      <trkpt lat="42.83996" lon="1.83786">
        <ele>1899.462</ele>
        <time>2021-02-28T12:12:53Z</time>
      </trkpt>
      <trkpt lat="42.83996" lon="1.83786">
        <ele>1899.461</ele>
        <time>2021-02-28T12:12:55Z</time>
      </trkpt>
      <trkpt lat="42.83996" lon="1.83786">
        <ele>1899.461</ele>
        <time>2021-02-28T12:12:57Z</time>
      </trkpt>
      <trkpt lat="42.83996" lon="1.83786">
        <ele>1899.462</ele>
        <time>2021-02-28T12:12:59Z</time>
      </trkpt>
      <trkpt lat="42.83996" lon="1.83786">
        <ele>1899.462</ele>
        <time>2021-02-28T12:13:01Z</time>
      </trkpt>
      <trkpt lat="42.83996" lon="1.83786">
        <ele>1899.462</ele>
        <time>2021-02-28T12:13:03Z</time>
      </trkpt>
      <trkpt lat="42.83996" lon="1.83786">
        <ele>1899.462</ele>
        <time>2021-02-28T12:13:05Z</time>
      </trkpt>
      <trkpt lat="42.83996" lon="1.83786">
        <ele>1899.462</ele>
        <time>2021-02-28T12:13:07Z</time>
      </trkpt>
      <trkpt lat="42.83996" lon="1.83786">
        <ele>1899.461</ele>
        <time>2021-02-28T12:13:09Z</time>
      </trkpt>
      <trkpt lat="42.83996" lon="1.83786">
        <ele>1899.461</ele>
        <time>2021-02-28T12:13:11Z</time>
      </trkpt>
      <trkpt lat="42.83996" lon="1.83786">
        <ele>1899.461</ele>
        <time>2021-02-28T12:13:13Z</time>
      </trkpt>
      <trkpt lat="42.83996" lon="1.83786">
        <ele>1899.46</ele>
        <time>2021-02-28T12:13:15Z</time>
      </trkpt>
      <trkpt lat="42.83996" lon="1.83786">
        <ele>1899.461</ele>
        <time>2021-02-28T12:13:17Z</time>
      </trkpt>
      <trkpt lat="42.83996" lon="1.83786">
        <ele>1899.461</ele>
        <time>2021-02-28T12:13:19Z</time>
      </trkpt>
      <trkpt lat="42.83996" lon="1.83786">
        <ele>1899.461</ele>
        <time>2021-02-28T12:13:21Z</time>
      </trkpt>
      <trkpt lat="42.83996" lon="1.83786">
        <ele>1899.461</ele>
        <time>2021-02-28T12:13:23Z</time>
      </trkpt>
      <trkpt lat="42.83996" lon="1.83786">
        <ele>1899.462</ele>
        <time>2021-02-28T12:13:25Z</time>
      </trkpt>
      <trkpt lat="42.83996" lon="1.83786">
        <ele>1899.462</ele>
        <time>2021-02-28T12:13:27Z</time>
      </trkpt>
      <trkpt lat="42.83996" lon="1.83786">
        <ele>1899.463</ele>
        <time>2021-02-28T12:13:29Z</time>
      </trkpt>
      <trkpt lat="42.83996" lon="1.83786">
        <ele>1899.463</ele>
        <time>2021-02-28T12:13:31Z</time>
      </trkpt>
      <trkpt lat="42.83996" lon="1.83786">
        <ele>1899.463</ele>
        <time>2021-02-28T12:13:33Z</time>
      </trkpt>
      <trkpt lat="42.83996" lon="1.83786">
        <ele>1899.463</ele>
        <time>2021-02-28T12:13:35Z</time>
      </trkpt>
      <trkpt lat="42.83996" lon="1.83786">
        <ele>1899.462</ele>
        <time>2021-02-28T12:13:37Z</time>
      </trkpt>
      <trkpt lat="42.83996" lon="1.83786">
        <ele>1899.462</ele>
        <time>2021-02-28T12:13:39Z</time>
      </trkpt>
      <trkpt lat="42.83996" lon="1.83786">
        <ele>1899.461</ele>
        <time>2021-02-28T12:13:41Z</time>
      </trkpt>
      <trkpt lat="42.83996" lon="1.83786">
        <ele>1899.462</ele>
        <time>2021-02-28T12:13:43Z</time>
      </trkpt>
      <trkpt lat="42.83996" lon="1.83786">
        <ele>1899.463</ele>
        <time>2021-02-28T12:13:45Z</time>
      </trkpt>
      <trkpt lat="42.83996" lon="1.83786">
        <ele>1899.462</ele>
        <time>2021-02-28T12:13:47Z</time>
      </trkpt>
      <trkpt lat="42.83996" lon="1.83786">
        <ele>1899.462</ele>
        <time>2021-02-28T12:13:49Z</time>
      </trkpt>
      <trkpt lat="42.83996" lon="1.83786">
        <ele>1899.462</ele>
        <time>2021-02-28T12:13:51Z</time>
      </trkpt>
      <trkpt lat="42.83996" lon="1.83786">
        <ele>1899.463</ele>
        <time>2021-02-28T12:13:53Z</time>
      </trkpt>
      <trkpt lat="42.83996" lon="1.83786">
        <ele>1899.462</ele>
        <time>2021-02-28T12:13:55Z</time>
      </trkpt>
      <trkpt lat="42.83996" lon="1.83786">
        <ele>1899.463</ele>
        <time>2021-02-28T12:13:57Z</time>
      </trkpt>
      <trkpt lat="42.83996" lon="1.83786">
        <ele>1899.463</ele>
        <time>2021-02-28T12:13:59Z</time>
      </trkpt>
      <trkpt lat="42.83996" lon="1.83786">
        <ele>1899.464</ele>
        <time>2021-02-28T12:14:01Z</time>
      </trkpt>
      <trkpt lat="42.83996" lon="1.83786">
        <ele>1899.463</ele>
        <time>2021-02-28T12:14:03Z</time>
      </trkpt>
      <trkpt lat="42.83996" lon="1.83786">
        <ele>1899.464</ele>
        <time>2021-02-28T12:14:05Z</time>
      </trkpt>
      <trkpt lat="42.83996" lon="1.83786">
        <ele>1899.463</ele>
        <time>2021-02-28T12:14:07Z</time>
      </trkpt>
      <trkpt lat="42.83996" lon="1.83786">
        <ele>1899.463</ele>
        <time>2021-02-28T12:14:09Z</time>
      </trkpt>
      <trkpt lat="42.83996" lon="1.83786">
        <ele>1899.463</ele>
        <time>2021-02-28T12:14:11Z</time>
      </trkpt>
      <trkpt lat="42.83996" lon="1.83786">
        <ele>1899.464</ele>
        <time>2021-02-28T12:14:13Z</time>
      </trkpt>
      <trkpt lat="42.83996" lon="1.83786">
        <ele>1899.463</ele>
        <time>2021-02-28T12:14:15Z</time>
      </trkpt>
      <trkpt lat="42.83996" lon="1.83786">
        <ele>1899.463</ele>
        <time>2021-02-28T12:14:17Z</time>
      </trkpt>
      <trkpt lat="42.83996" lon="1.83786">
        <ele>1899.463</ele>
        <time>2021-02-28T12:14:19Z</time>
      </trkpt>
      <trkpt lat="42.83996" lon="1.83786">
        <ele>1899.464</ele>
        <time>2021-02-28T12:14:21Z</time>
      </trkpt>
      <trkpt lat="42.83996" lon="1.83786">
        <ele>1899.464</ele>
        <time>2021-02-28T12:14:22Z</time>
      </trkpt>
      <trkpt lat="42.83996" lon="1.83786">
        <ele>1899.464</ele>
        <time>2021-02-28T12:14:25Z</time>
      </trkpt>
      <trkpt lat="42.83996" lon="1.83786">
        <ele>1899.464</ele>
        <time>2021-02-28T12:14:27Z</time>
      </trkpt>
      <trkpt lat="42.83996" lon="1.83786">
        <ele>1899.463</ele>
        <time>2021-02-28T12:14:29Z</time>
      </trkpt>
      <trkpt lat="42.83996" lon="1.83786">
        <ele>1899.463</ele>
        <time>2021-02-28T12:14:31Z</time>
      </trkpt>
      <trkpt lat="42.83996" lon="1.83786">
        <ele>1899.463</ele>
        <time>2021-02-28T12:14:33Z</time>
      </trkpt>
      <trkpt lat="42.83996" lon="1.83786">
        <ele>1899.463</ele>
        <time>2021-02-28T12:14:35Z</time>
      </trkpt>
      <trkpt lat="42.83996" lon="1.83786">
        <ele>1899.462</ele>
        <time>2021-02-28T12:14:37Z</time>
      </trkpt>
      <trkpt lat="42.83996" lon="1.83786">
        <ele>1899.463</ele>
        <time>2021-02-28T12:14:39Z</time>
      </trkpt>
      <trkpt lat="42.83996" lon="1.83786">
        <ele>1899.461</ele>
        <time>2021-02-28T12:14:41Z</time>
      </trkpt>
      <trkpt lat="42.83996" lon="1.83786">
        <ele>1899.462</ele>
        <time>2021-02-28T12:14:43Z</time>
      </trkpt>
      <trkpt lat="42.83996" lon="1.83786">
        <ele>1899.463</ele>
        <time>2021-02-28T12:14:45Z</time>
      </trkpt>
      <trkpt lat="42.83996" lon="1.83786">
        <ele>1899.463</ele>
        <time>2021-02-28T12:14:47Z</time>
      </trkpt>
      <trkpt lat="42.83996" lon="1.83786">
        <ele>1899.461</ele>
        <time>2021-02-28T12:14:49Z</time>
      </trkpt>
      <trkpt lat="42.83996" lon="1.83786">
        <ele>1899.46</ele>
        <time>2021-02-28T12:14:51Z</time>
      </trkpt>
      <trkpt lat="42.83996" lon="1.83786">
        <ele>1899.458</ele>
        <time>2021-02-28T12:14:53Z</time>
      </trkpt>
      <trkpt lat="42.83996" lon="1.83786">
        <ele>1899.458</ele>
        <time>2021-02-28T12:14:55Z</time>
      </trkpt>
      <trkpt lat="42.83996" lon="1.83786">
        <ele>1899.456</ele>
        <time>2021-02-28T12:14:57Z</time>
      </trkpt>
      <trkpt lat="42.83996" lon="1.83786">
        <ele>1899.456</ele>
        <time>2021-02-28T12:14:59Z</time>
      </trkpt>
      <trkpt lat="42.83996" lon="1.83786">
        <ele>1899.455</ele>
        <time>2021-02-28T12:15:01Z</time>
      </trkpt>
      <trkpt lat="42.83996" lon="1.83786">
        <ele>1899.454</ele>
        <time>2021-02-28T12:15:03Z</time>
      </trkpt>
      <trkpt lat="42.83996" lon="1.83786">
        <ele>1899.453</ele>
        <time>2021-02-28T12:15:05Z</time>
      </trkpt>
      <trkpt lat="42.83996" lon="1.83786">
        <ele>1899.454</ele>
        <time>2021-02-28T12:15:07Z</time>
      </trkpt>
      <trkpt lat="42.83996" lon="1.83786">
        <ele>1899.455</ele>
        <time>2021-02-28T12:15:09Z</time>
      </trkpt>
      <trkpt lat="42.83996" lon="1.83786">
        <ele>1899.457</ele>
        <time>2021-02-28T12:15:11Z</time>
      </trkpt>
      <trkpt lat="42.83996" lon="1.83786">
        <ele>1899.456</ele>
        <time>2021-02-28T12:15:13Z</time>
      </trkpt>
      <trkpt lat="42.83996" lon="1.83786">
        <ele>1899.456</ele>
        <time>2021-02-28T12:15:15Z</time>
      </trkpt>
      <trkpt lat="42.83996" lon="1.83786">
        <ele>1899.454</ele>
        <time>2021-02-28T12:15:17Z</time>
      </trkpt>
      <trkpt lat="42.83996" lon="1.83786">
        <ele>1899.498</ele>
        <time>2021-02-28T12:15:19Z</time>
      </trkpt>
      <trkpt lat="42.83996" lon="1.83786">
        <ele>1899.503</ele>
        <time>2021-02-28T12:15:21Z</time>
      </trkpt>
      <trkpt lat="42.83996" lon="1.83786">
        <ele>1899.505</ele>
        <time>2021-02-28T12:15:23Z</time>
      </trkpt>
      <trkpt lat="42.83996" lon="1.83786">
        <ele>1899.51</ele>
        <time>2021-02-28T12:15:25Z</time>
      </trkpt>
      <trkpt lat="42.83996" lon="1.83786">
        <ele>1899.569</ele>
        <time>2021-02-28T12:15:27Z</time>
      </trkpt>
      <trkpt lat="42.83995" lon="1.83786">
        <ele>1900.041</ele>
        <time>2021-02-28T12:15:29Z</time>
      </trkpt>
      <trkpt lat="42.83995" lon="1.83786">
        <ele>1900.123</ele>
        <time>2021-02-28T12:15:31Z</time>
      </trkpt>
      <trkpt lat="42.83995" lon="1.83786">
        <ele>1900.431</ele>
        <time>2021-02-28T12:15:33Z</time>
      </trkpt>
      <trkpt lat="42.83996" lon="1.83786">
        <ele>1900.387</ele>
        <time>2021-02-28T12:15:35Z</time>
      </trkpt>
      <trkpt lat="42.83996" lon="1.83786">
        <ele>1900.389</ele>
        <time>2021-02-28T12:15:37Z</time>
      </trkpt>
      <trkpt lat="42.83996" lon="1.83785">
        <ele>1900.687</ele>
        <time>2021-02-28T12:15:39Z</time>
      </trkpt>
      <trkpt lat="42.83996" lon="1.83785">
        <ele>1900.692</ele>
        <time>2021-02-28T12:15:41Z</time>
      </trkpt>
      <trkpt lat="42.83996" lon="1.83785">
        <ele>1900.69</ele>
        <time>2021-02-28T12:15:43Z</time>
      </trkpt>
      <trkpt lat="42.83996" lon="1.83785">
        <ele>1900.692</ele>
        <time>2021-02-28T12:15:45Z</time>
      </trkpt>
      <trkpt lat="42.83996" lon="1.83785">
        <ele>1900.572</ele>
        <time>2021-02-28T12:15:47Z</time>
      </trkpt>
      <trkpt lat="42.83996" lon="1.83785">
        <ele>1900.121</ele>
        <time>2021-02-28T12:15:49Z</time>
      </trkpt>
      <trkpt lat="42.83996" lon="1.83785">
        <ele>1900.154</ele>
        <time>2021-02-28T12:15:51Z</time>
      </trkpt>
      <trkpt lat="42.83996" lon="1.83785">
        <ele>1900.157</ele>
        <time>2021-02-28T12:15:53Z</time>
      </trkpt>
      <trkpt lat="42.83996" lon="1.83785">
        <ele>1900.157</ele>
        <time>2021-02-28T12:15:55Z</time>
      </trkpt>
      <trkpt lat="42.83996" lon="1.83785">
        <ele>1900.088</ele>
        <time>2021-02-28T12:15:57Z</time>
      </trkpt>
      <trkpt lat="42.83996" lon="1.83786">
        <ele>1899.975</ele>
        <time>2021-02-28T12:15:59Z</time>
      </trkpt>
      <trkpt lat="42.83996" lon="1.83786">
        <ele>1899.963</ele>
        <time>2021-02-28T12:16:01Z</time>
      </trkpt>
      <trkpt lat="42.83996" lon="1.83786">
        <ele>1899.963</ele>
        <time>2021-02-28T12:16:03Z</time>
      </trkpt>
      <trkpt lat="42.83996" lon="1.83786">
        <ele>1899.962</ele>
        <time>2021-02-28T12:16:05Z</time>
      </trkpt>
      <trkpt lat="42.83996" lon="1.83786">
        <ele>1899.96</ele>
        <time>2021-02-28T12:16:07Z</time>
      </trkpt>
      <trkpt lat="42.83996" lon="1.83786">
        <ele>1899.959</ele>
        <time>2021-02-28T12:16:09Z</time>
      </trkpt>
      <trkpt lat="42.83996" lon="1.83786">
        <ele>1899.96</ele>
        <time>2021-02-28T12:16:11Z</time>
      </trkpt>
      <trkpt lat="42.83996" lon="1.83786">
        <ele>1899.96</ele>
        <time>2021-02-28T12:16:13Z</time>
      </trkpt>
      <trkpt lat="42.83996" lon="1.83786">
        <ele>1899.96</ele>
        <time>2021-02-28T12:16:15Z</time>
      </trkpt>
      <trkpt lat="42.83996" lon="1.83786">
        <ele>1899.963</ele>
        <time>2021-02-28T12:16:17Z</time>
      </trkpt>
      <trkpt lat="42.83996" lon="1.83786">
        <ele>1899.966</ele>
        <time>2021-02-28T12:16:19Z</time>
      </trkpt>
      <trkpt lat="42.83996" lon="1.83786">
        <ele>1899.968</ele>
        <time>2021-02-28T12:16:21Z</time>
      </trkpt>
      <trkpt lat="42.83996" lon="1.83786">
        <ele>1899.972</ele>
        <time>2021-02-28T12:16:23Z</time>
      </trkpt>
      <trkpt lat="42.83996" lon="1.83786">
        <ele>1899.971</ele>
        <time>2021-02-28T12:16:25Z</time>
      </trkpt>
      <trkpt lat="42.83996" lon="1.83786">
        <ele>1899.972</ele>
        <time>2021-02-28T12:16:27Z</time>
      </trkpt>
      <trkpt lat="42.83996" lon="1.83786">
        <ele>1899.969</ele>
        <time>2021-02-28T12:16:29Z</time>
      </trkpt>
      <trkpt lat="42.83996" lon="1.83786">
        <ele>1899.97</ele>
        <time>2021-02-28T12:16:31Z</time>
      </trkpt>
      <trkpt lat="42.83996" lon="1.83786">
        <ele>1899.971</ele>
        <time>2021-02-28T12:16:33Z</time>
      </trkpt>
      <trkpt lat="42.83996" lon="1.83786">
        <ele>1899.972</ele>
        <time>2021-02-28T12:16:35Z</time>
      </trkpt>
      <trkpt lat="42.83996" lon="1.83785">
        <ele>1900.106</ele>
        <time>2021-02-28T12:16:37Z</time>
      </trkpt>
      <trkpt lat="42.83996" lon="1.83785">
        <ele>1899.947</ele>
        <time>2021-02-28T12:16:39Z</time>
      </trkpt>
      <trkpt lat="42.83996" lon="1.83785">
        <ele>1899.786</ele>
        <time>2021-02-28T12:16:41Z</time>
      </trkpt>
      <trkpt lat="42.83996" lon="1.83785">
        <ele>1899.783</ele>
        <time>2021-02-28T12:16:43Z</time>
      </trkpt>
      <trkpt lat="42.83993" lon="1.83787">
        <ele>1899.844</ele>
        <time>2021-02-28T12:16:45Z</time>
      </trkpt>
      <trkpt lat="42.83993" lon="1.83787">
        <ele>1899.844</ele>
        <time>2021-02-28T12:16:47Z</time>
      </trkpt>
      <trkpt lat="42.83993" lon="1.83787">
        <ele>1899.983</ele>
        <time>2021-02-28T12:16:49Z</time>
      </trkpt>
      <trkpt lat="42.83994" lon="1.83787">
        <ele>1899.988</ele>
        <time>2021-02-28T12:16:51Z</time>
      </trkpt>
      <trkpt lat="42.83994" lon="1.83787">
        <ele>1899.984</ele>
        <time>2021-02-28T12:16:53Z</time>
      </trkpt>
      <trkpt lat="42.83994" lon="1.83787">
        <ele>1899.982</ele>
        <time>2021-02-28T12:16:55Z</time>
      </trkpt>
      <trkpt lat="42.83994" lon="1.83787">
        <ele>1900.149</ele>
        <time>2021-02-28T12:16:57Z</time>
      </trkpt>
      <trkpt lat="42.83994" lon="1.83787">
        <ele>1900.223</ele>
        <time>2021-02-28T12:16:59Z</time>
      </trkpt>
      <trkpt lat="42.83994" lon="1.83787">
        <ele>1900.248</ele>
        <time>2021-02-28T12:17:01Z</time>
      </trkpt>
      <trkpt lat="42.83994" lon="1.83787">
        <ele>1900.248</ele>
        <time>2021-02-28T12:17:03Z</time>
      </trkpt>
      <trkpt lat="42.83994" lon="1.83787">
        <ele>1900.251</ele>
        <time>2021-02-28T12:17:05Z</time>
      </trkpt>
      <trkpt lat="42.83994" lon="1.83787">
        <ele>1900.255</ele>
        <time>2021-02-28T12:17:07Z</time>
      </trkpt>
      <trkpt lat="42.83994" lon="1.83787">
        <ele>1900.253</ele>
        <time>2021-02-28T12:17:09Z</time>
      </trkpt>
      <trkpt lat="42.83994" lon="1.83787">
        <ele>1900.256</ele>
        <time>2021-02-28T12:17:11Z</time>
      </trkpt>
      <trkpt lat="42.83994" lon="1.83787">
        <ele>1899.76</ele>
        <time>2021-02-28T12:17:13Z</time>
      </trkpt>
      <trkpt lat="42.83994" lon="1.83787">
        <ele>1899.738</ele>
        <time>2021-02-28T12:17:15Z</time>
      </trkpt>
      <trkpt lat="42.83994" lon="1.83787">
        <ele>1899.753</ele>
        <time>2021-02-28T12:17:17Z</time>
      </trkpt>
      <trkpt lat="42.83994" lon="1.83787">
        <ele>1899.751</ele>
        <time>2021-02-28T12:17:20Z</time>
      </trkpt>
      <trkpt lat="42.83994" lon="1.83787">
        <ele>1899.75</ele>
        <time>2021-02-28T12:17:22Z</time>
      </trkpt>
      <trkpt lat="42.83994" lon="1.83787">
        <ele>1899.747</ele>
        <time>2021-02-28T12:17:24Z</time>
      </trkpt>
      <trkpt lat="42.83994" lon="1.83787">
        <ele>1899.737</ele>
        <time>2021-02-28T12:17:26Z</time>
      </trkpt>
      <trkpt lat="42.83994" lon="1.83787">
        <ele>1899.733</ele>
        <time>2021-02-28T12:17:28Z</time>
      </trkpt>
      <trkpt lat="42.83994" lon="1.83786">
        <ele>1899.88</ele>
        <time>2021-02-28T12:17:30Z</time>
      </trkpt>
      <trkpt lat="42.83994" lon="1.83786">
        <ele>1899.867</ele>
        <time>2021-02-28T12:17:32Z</time>
      </trkpt>
      <trkpt lat="42.83994" lon="1.83786">
        <ele>1899.869</ele>
        <time>2021-02-28T12:17:34Z</time>
      </trkpt>
      <trkpt lat="42.83994" lon="1.83786">
        <ele>1899.868</ele>
        <time>2021-02-28T12:17:36Z</time>
      </trkpt>
      <trkpt lat="42.83994" lon="1.83786">
        <ele>1899.869</ele>
        <time>2021-02-28T12:17:38Z</time>
      </trkpt>
      <trkpt lat="42.83994" lon="1.83786">
        <ele>1899.866</ele>
        <time>2021-02-28T12:17:40Z</time>
      </trkpt>
      <trkpt lat="42.83994" lon="1.83786">
        <ele>1899.865</ele>
        <time>2021-02-28T12:17:42Z</time>
      </trkpt>
      <trkpt lat="42.83994" lon="1.83786">
        <ele>1899.859</ele>
        <time>2021-02-28T12:17:44Z</time>
      </trkpt>
      <trkpt lat="42.83994" lon="1.83786">
        <ele>1899.862</ele>
        <time>2021-02-28T12:17:46Z</time>
      </trkpt>
      <trkpt lat="42.83994" lon="1.83786">
        <ele>1899.863</ele>
        <time>2021-02-28T12:17:48Z</time>
      </trkpt>
      <trkpt lat="42.83994" lon="1.83786">
        <ele>1899.857</ele>
        <time>2021-02-28T12:17:50Z</time>
      </trkpt>
      <trkpt lat="42.83994" lon="1.83786">
        <ele>1900.083</ele>
        <time>2021-02-28T12:17:52Z</time>
      </trkpt>
      <trkpt lat="42.83994" lon="1.83786">
        <ele>1900.227</ele>
        <time>2021-02-28T12:17:54Z</time>
      </trkpt>
      <trkpt lat="42.83994" lon="1.83786">
        <ele>1900.226</ele>
        <time>2021-02-28T12:17:56Z</time>
      </trkpt>
      <trkpt lat="42.83994" lon="1.83786">
        <ele>1900.01</ele>
        <time>2021-02-28T12:17:58Z</time>
      </trkpt>
      <trkpt lat="42.83994" lon="1.83786">
        <ele>1900.004</ele>
        <time>2021-02-28T12:18:00Z</time>
      </trkpt>
      <trkpt lat="42.83994" lon="1.83786">
        <ele>1900.002</ele>
        <time>2021-02-28T12:18:02Z</time>
      </trkpt>
      <trkpt lat="42.83994" lon="1.83786">
        <ele>1899.994</ele>
        <time>2021-02-28T12:18:04Z</time>
      </trkpt>
      <trkpt lat="42.83994" lon="1.83786">
        <ele>1899.988</ele>
        <time>2021-02-28T12:18:06Z</time>
      </trkpt>
      <trkpt lat="42.83994" lon="1.83786">
        <ele>1899.98</ele>
        <time>2021-02-28T12:18:08Z</time>
      </trkpt>
      <trkpt lat="42.83994" lon="1.83786">
        <ele>1899.975</ele>
        <time>2021-02-28T12:18:10Z</time>
      </trkpt>
      <trkpt lat="42.83994" lon="1.83786">
        <ele>1899.973</ele>
        <time>2021-02-28T12:18:12Z</time>
      </trkpt>
      <trkpt lat="42.83994" lon="1.83786">
        <ele>1899.971</ele>
        <time>2021-02-28T12:18:14Z</time>
      </trkpt>
      <trkpt lat="42.83994" lon="1.83786">
        <ele>1899.967</ele>
        <time>2021-02-28T12:18:16Z</time>
      </trkpt>
      <trkpt lat="42.83994" lon="1.83786">
        <ele>1899.809</ele>
        <time>2021-02-28T12:18:18Z</time>
      </trkpt>
      <trkpt lat="42.83994" lon="1.83786">
        <ele>1899.805</ele>
        <time>2021-02-28T12:18:20Z</time>
      </trkpt>
      <trkpt lat="42.83994" lon="1.83786">
        <ele>1899.804</ele>
        <time>2021-02-28T12:18:22Z</time>
      </trkpt>
      <trkpt lat="42.83994" lon="1.83786">
        <ele>1899.807</ele>
        <time>2021-02-28T12:18:24Z</time>
      </trkpt>
      <trkpt lat="42.83994" lon="1.83786">
        <ele>1899.805</ele>
        <time>2021-02-28T12:18:26Z</time>
      </trkpt>
      <trkpt lat="42.83994" lon="1.83786">
        <ele>1899.807</ele>
        <time>2021-02-28T12:18:28Z</time>
      </trkpt>
      <trkpt lat="42.83994" lon="1.83786">
        <ele>1899.808</ele>
        <time>2021-02-28T12:18:30Z</time>
      </trkpt>
      <trkpt lat="42.83994" lon="1.83786">
        <ele>1899.81</ele>
        <time>2021-02-28T12:18:32Z</time>
      </trkpt>
      <trkpt lat="42.83994" lon="1.83786">
        <ele>1899.812</ele>
        <time>2021-02-28T12:18:34Z</time>
      </trkpt>
      <trkpt lat="42.83994" lon="1.83786">
        <ele>1899.813</ele>
        <time>2021-02-28T12:18:36Z</time>
      </trkpt>
      <trkpt lat="42.83994" lon="1.83786">
        <ele>1899.813</ele>
        <time>2021-02-28T12:18:38Z</time>
      </trkpt>
      <trkpt lat="42.83994" lon="1.83786">
        <ele>1899.815</ele>
        <time>2021-02-28T12:18:40Z</time>
      </trkpt>
      <trkpt lat="42.83994" lon="1.83786">
        <ele>1899.816</ele>
        <time>2021-02-28T12:18:42Z</time>
      </trkpt>
      <trkpt lat="42.83994" lon="1.83786">
        <ele>1899.818</ele>
        <time>2021-02-28T12:18:44Z</time>
      </trkpt>
      <trkpt lat="42.83994" lon="1.83786">
        <ele>1899.817</ele>
        <time>2021-02-28T12:18:46Z</time>
      </trkpt>
      <trkpt lat="42.83994" lon="1.83786">
        <ele>1899.815</ele>
        <time>2021-02-28T12:18:48Z</time>
      </trkpt>
      <trkpt lat="42.83994" lon="1.83786">
        <ele>1899.813</ele>
        <time>2021-02-28T12:18:50Z</time>
      </trkpt>
      <trkpt lat="42.83994" lon="1.83786">
        <ele>1899.81</ele>
        <time>2021-02-28T12:18:52Z</time>
      </trkpt>
      <trkpt lat="42.83994" lon="1.83786">
        <ele>1899.805</ele>
        <time>2021-02-28T12:18:54Z</time>
      </trkpt>
      <trkpt lat="42.83994" lon="1.83786">
        <ele>1899.803</ele>
        <time>2021-02-28T12:18:56Z</time>
      </trkpt>
      <trkpt lat="42.83995" lon="1.83785">
        <ele>1899.778</ele>
        <time>2021-02-28T12:18:58Z</time>
      </trkpt>
      <trkpt lat="42.83995" lon="1.83785">
        <ele>1899.3</ele>
        <time>2021-02-28T12:19:00Z</time>
      </trkpt>
      <trkpt lat="42.83996" lon="1.83784">
        <ele>1899.222</ele>
        <time>2021-02-28T12:19:02Z</time>
      </trkpt>
      <trkpt lat="42.83996" lon="1.83784">
        <ele>1899.493</ele>
        <time>2021-02-28T12:19:03Z</time>
      </trkpt>
      <trkpt lat="42.83996" lon="1.83784">
        <ele>1899.179</ele>
        <time>2021-02-28T12:19:06Z</time>
      </trkpt>
      <trkpt lat="42.83997" lon="1.83784">
        <ele>1899.063</ele>
        <time>2021-02-28T12:19:08Z</time>
      </trkpt>
      <trkpt lat="42.83999" lon="1.83784">
        <ele>1898.974</ele>
        <time>2021-02-28T12:19:10Z</time>
      </trkpt>
      <trkpt lat="42.83999" lon="1.83783">
        <ele>1899.139</ele>
        <time>2021-02-28T12:19:12Z</time>
      </trkpt>
      <trkpt lat="42.83999" lon="1.83783">
        <ele>1899.136</ele>
        <time>2021-02-28T12:19:14Z</time>
      </trkpt>
      <trkpt lat="42.83999" lon="1.83783">
        <ele>1899.077</ele>
        <time>2021-02-28T12:19:16Z</time>
      </trkpt>
      <trkpt lat="42.83999" lon="1.83783">
        <ele>1899.078</ele>
        <time>2021-02-28T12:19:18Z</time>
      </trkpt>
      <trkpt lat="42.83999" lon="1.83783">
        <ele>1899.075</ele>
        <time>2021-02-28T12:19:20Z</time>
      </trkpt>
      <trkpt lat="42.83999" lon="1.83783">
        <ele>1899.076</ele>
        <time>2021-02-28T12:19:22Z</time>
      </trkpt>
      <trkpt lat="42.84" lon="1.83783">
        <ele>1899.244</ele>
        <time>2021-02-28T12:19:24Z</time>
      </trkpt>
      <trkpt lat="42.84" lon="1.83783">
        <ele>1899.238</ele>
        <time>2021-02-28T12:19:26Z</time>
      </trkpt>
      <trkpt lat="42.83999" lon="1.83783">
        <ele>1899.141</ele>
        <time>2021-02-28T12:19:28Z</time>
      </trkpt>
      <trkpt lat="42.83999" lon="1.83783">
        <ele>1899.138</ele>
        <time>2021-02-28T12:19:30Z</time>
      </trkpt>
      <trkpt lat="42.83999" lon="1.83783">
        <ele>1899.135</ele>
        <time>2021-02-28T12:19:32Z</time>
      </trkpt>
      <trkpt lat="42.83999" lon="1.83783">
        <ele>1899.126</ele>
        <time>2021-02-28T12:19:34Z</time>
      </trkpt>
      <trkpt lat="42.83999" lon="1.83783">
        <ele>1898.939</ele>
        <time>2021-02-28T12:19:36Z</time>
      </trkpt>
      <trkpt lat="42.83999" lon="1.83783">
        <ele>1898.804</ele>
        <time>2021-02-28T12:19:38Z</time>
      </trkpt>
      <trkpt lat="42.83999" lon="1.83783">
        <ele>1898.718</ele>
        <time>2021-02-28T12:19:40Z</time>
      </trkpt>
      <trkpt lat="42.83999" lon="1.83783">
        <ele>1898.467</ele>
        <time>2021-02-28T12:19:42Z</time>
      </trkpt>
      <trkpt lat="42.84" lon="1.83783">
        <ele>1898.006</ele>
        <time>2021-02-28T12:19:44Z</time>
      </trkpt>
      <trkpt lat="42.84001" lon="1.83782">
        <ele>1897.682</ele>
        <time>2021-02-28T12:19:46Z</time>
      </trkpt>
      <trkpt lat="42.84002" lon="1.83782">
        <ele>1897.723</ele>
        <time>2021-02-28T12:19:48Z</time>
      </trkpt>
      <trkpt lat="42.84003" lon="1.83781">
        <ele>1897.293</ele>
        <time>2021-02-28T12:19:50Z</time>
      </trkpt>
      <trkpt lat="42.84004" lon="1.8378">
        <ele>1897.306</ele>
        <time>2021-02-28T12:19:52Z</time>
      </trkpt>
      <trkpt lat="42.84005" lon="1.8378">
        <ele>1897.057</ele>
        <time>2021-02-28T12:19:54Z</time>
      </trkpt>
      <trkpt lat="42.84006" lon="1.83779">
        <ele>1896.431</ele>
        <time>2021-02-28T12:19:56Z</time>
      </trkpt>
      <trkpt lat="42.84007" lon="1.83779">
        <ele>1896.259</ele>
        <time>2021-02-28T12:19:58Z</time>
      </trkpt>
      <trkpt lat="42.84008" lon="1.83778">
        <ele>1896.173</ele>
        <time>2021-02-28T12:20:00Z</time>
      </trkpt>
      <trkpt lat="42.84009" lon="1.83777">
        <ele>1895.583</ele>
        <time>2021-02-28T12:20:02Z</time>
      </trkpt>
      <trkpt lat="42.8401" lon="1.83775">
        <ele>1895.115</ele>
        <time>2021-02-28T12:20:04Z</time>
      </trkpt>
      <trkpt lat="42.84012" lon="1.83775">
        <ele>1894.622</ele>
        <time>2021-02-28T12:20:06Z</time>
      </trkpt>
      <trkpt lat="42.84013" lon="1.83775">
        <ele>1894.01</ele>
        <time>2021-02-28T12:20:08Z</time>
      </trkpt>
      <trkpt lat="42.84014" lon="1.83774">
        <ele>1893.947</ele>
        <time>2021-02-28T12:20:10Z</time>
      </trkpt>
      <trkpt lat="42.84016" lon="1.83773">
        <ele>1894.229</ele>
        <time>2021-02-28T12:20:12Z</time>
      </trkpt>
      <trkpt lat="42.84017" lon="1.83773">
        <ele>1893.335</ele>
        <time>2021-02-28T12:20:14Z</time>
      </trkpt>
      <trkpt lat="42.84018" lon="1.83772">
        <ele>1893.176</ele>
        <time>2021-02-28T12:20:16Z</time>
      </trkpt>
      <trkpt lat="42.84019" lon="1.83771">
        <ele>1893.335</ele>
        <time>2021-02-28T12:20:18Z</time>
      </trkpt>
      <trkpt lat="42.8402" lon="1.8377">
        <ele>1893.289</ele>
        <time>2021-02-28T12:20:20Z</time>
      </trkpt>
      <trkpt lat="42.84021" lon="1.83769">
        <ele>1892.999</ele>
        <time>2021-02-28T12:20:22Z</time>
      </trkpt>
      <trkpt lat="42.84022" lon="1.83769">
        <ele>1892.223</ele>
        <time>2021-02-28T12:20:24Z</time>
      </trkpt>
      <trkpt lat="42.84024" lon="1.83769">
        <ele>1891.404</ele>
        <time>2021-02-28T12:20:26Z</time>
      </trkpt>
      <trkpt lat="42.84024" lon="1.83768">
        <ele>1890.889</ele>
        <time>2021-02-28T12:20:28Z</time>
      </trkpt>
      <trkpt lat="42.84025" lon="1.83769">
        <ele>1890.835</ele>
        <time>2021-02-28T12:20:30Z</time>
      </trkpt>
      <trkpt lat="42.84027" lon="1.83768">
        <ele>1890.694</ele>
        <time>2021-02-28T12:20:32Z</time>
      </trkpt>
      <trkpt lat="42.84028" lon="1.83768">
        <ele>1889.363</ele>
        <time>2021-02-28T12:20:34Z</time>
      </trkpt>
      <trkpt lat="42.8403" lon="1.83767">
        <ele>1889.054</ele>
        <time>2021-02-28T12:20:36Z</time>
      </trkpt>
      <trkpt lat="42.84031" lon="1.83767">
        <ele>1889.406</ele>
        <time>2021-02-28T12:20:38Z</time>
      </trkpt>
      <trkpt lat="42.84034" lon="1.83767">
        <ele>1889.264</ele>
        <time>2021-02-28T12:20:40Z</time>
      </trkpt>
      <trkpt lat="42.84035" lon="1.83767">
        <ele>1888.938</ele>
        <time>2021-02-28T12:20:42Z</time>
      </trkpt>
      <trkpt lat="42.84036" lon="1.83766">
        <ele>1887.937</ele>
        <time>2021-02-28T12:20:44Z</time>
      </trkpt>
      <trkpt lat="42.84037" lon="1.83766">
        <ele>1886.985</ele>
        <time>2021-02-28T12:20:46Z</time>
      </trkpt>
      <trkpt lat="42.84039" lon="1.83765">
        <ele>1886.541</ele>
        <time>2021-02-28T12:20:48Z</time>
      </trkpt>
      <trkpt lat="42.8404" lon="1.83765">
        <ele>1886.013</ele>
        <time>2021-02-28T12:20:50Z</time>
      </trkpt>
      <trkpt lat="42.84041" lon="1.83765">
        <ele>1885.914</ele>
        <time>2021-02-28T12:20:52Z</time>
      </trkpt>
      <trkpt lat="42.84043" lon="1.83764">
        <ele>1885.556</ele>
        <time>2021-02-28T12:20:54Z</time>
      </trkpt>
      <trkpt lat="42.84044" lon="1.83763">
        <ele>1885.194</ele>
        <time>2021-02-28T12:20:56Z</time>
      </trkpt>
      <trkpt lat="42.84046" lon="1.83763">
        <ele>1884.702</ele>
        <time>2021-02-28T12:20:58Z</time>
      </trkpt>
      <trkpt lat="42.84047" lon="1.83764">
        <ele>1884.453</ele>
        <time>2021-02-28T12:21:00Z</time>
      </trkpt>
      <trkpt lat="42.84048" lon="1.83764">
        <ele>1884.094</ele>
        <time>2021-02-28T12:21:02Z</time>
      </trkpt>
      <trkpt lat="42.8405" lon="1.83764">
        <ele>1883.799</ele>
        <time>2021-02-28T12:21:04Z</time>
      </trkpt>
      <trkpt lat="42.84052" lon="1.83765">
        <ele>1883.814</ele>
        <time>2021-02-28T12:21:06Z</time>
      </trkpt>
      <trkpt lat="42.84053" lon="1.83765">
        <ele>1883.498</ele>
        <time>2021-02-28T12:21:08Z</time>
      </trkpt>
      <trkpt lat="42.84055" lon="1.83765">
        <ele>1882.542</ele>
        <time>2021-02-28T12:21:10Z</time>
      </trkpt>
      <trkpt lat="42.84056" lon="1.83765">
        <ele>1881.602</ele>
        <time>2021-02-28T12:21:12Z</time>
      </trkpt>
      <trkpt lat="42.84057" lon="1.83765">
        <ele>1881.544</ele>
        <time>2021-02-28T12:21:14Z</time>
      </trkpt>
      <trkpt lat="42.84059" lon="1.83765">
        <ele>1881.532</ele>
        <time>2021-02-28T12:21:16Z</time>
      </trkpt>
      <trkpt lat="42.84061" lon="1.83766">
        <ele>1881.146</ele>
        <time>2021-02-28T12:21:18Z</time>
      </trkpt>
      <trkpt lat="42.84062" lon="1.83765">
        <ele>1880.454</ele>
        <time>2021-02-28T12:21:20Z</time>
      </trkpt>
      <trkpt lat="42.84064" lon="1.83764">
        <ele>1879.899</ele>
        <time>2021-02-28T12:21:22Z</time>
      </trkpt>
      <trkpt lat="42.84065" lon="1.83763">
        <ele>1878.981</ele>
        <time>2021-02-28T12:21:24Z</time>
      </trkpt>
      <trkpt lat="42.84066" lon="1.83761">
        <ele>1877.918</ele>
        <time>2021-02-28T12:21:26Z</time>
      </trkpt>
      <trkpt lat="42.84067" lon="1.8376">
        <ele>1877.69</ele>
        <time>2021-02-28T12:21:28Z</time>
      </trkpt>
      <trkpt lat="42.84067" lon="1.83759">
        <ele>1877.126</ele>
        <time>2021-02-28T12:21:30Z</time>
      </trkpt>
      <trkpt lat="42.84068" lon="1.83758">
        <ele>1876.97</ele>
        <time>2021-02-28T12:21:32Z</time>
      </trkpt>
      <trkpt lat="42.84069" lon="1.83756">
        <ele>1876.303</ele>
        <time>2021-02-28T12:21:34Z</time>
      </trkpt>
      <trkpt lat="42.84069" lon="1.83755">
        <ele>1876.011</ele>
        <time>2021-02-28T12:21:36Z</time>
      </trkpt>
      <trkpt lat="42.8407" lon="1.83754">
        <ele>1875.807</ele>
        <time>2021-02-28T12:21:38Z</time>
      </trkpt>
      <trkpt lat="42.8407" lon="1.83753">
        <ele>1875.107</ele>
        <time>2021-02-28T12:21:40Z</time>
      </trkpt>
      <trkpt lat="42.84071" lon="1.83753">
        <ele>1874.668</ele>
        <time>2021-02-28T12:21:42Z</time>
      </trkpt>
      <trkpt lat="42.84072" lon="1.83752">
        <ele>1874.514</ele>
        <time>2021-02-28T12:21:44Z</time>
      </trkpt>
      <trkpt lat="42.84073" lon="1.83752">
        <ele>1874.041</ele>
        <time>2021-02-28T12:21:46Z</time>
      </trkpt>
      <trkpt lat="42.84073" lon="1.83751">
        <ele>1874.217</ele>
        <time>2021-02-28T12:21:48Z</time>
      </trkpt>
      <trkpt lat="42.84074" lon="1.8375">
        <ele>1873.736</ele>
        <time>2021-02-28T12:21:50Z</time>
      </trkpt>
      <trkpt lat="42.84075" lon="1.83749">
        <ele>1873.049</ele>
        <time>2021-02-28T12:21:52Z</time>
      </trkpt>
      <trkpt lat="42.84075" lon="1.83748">
        <ele>1873.208</ele>
        <time>2021-02-28T12:21:54Z</time>
      </trkpt>
      <trkpt lat="42.84076" lon="1.83748">
        <ele>1873.233</ele>
        <time>2021-02-28T12:21:56Z</time>
      </trkpt>
      <trkpt lat="42.84076" lon="1.83748">
        <ele>1873.004</ele>
        <time>2021-02-28T12:21:58Z</time>
      </trkpt>
      <trkpt lat="42.84077" lon="1.83747">
        <ele>1872.668</ele>
        <time>2021-02-28T12:22:00Z</time>
      </trkpt>
      <trkpt lat="42.84077" lon="1.83746">
        <ele>1871.812</ele>
        <time>2021-02-28T12:22:02Z</time>
      </trkpt>
      <trkpt lat="42.84078" lon="1.83743">
        <ele>1871.132</ele>
        <time>2021-02-28T12:22:05Z</time>
      </trkpt>
      <trkpt lat="42.84079" lon="1.83742">
        <ele>1870.439</ele>
        <time>2021-02-28T12:22:07Z</time>
      </trkpt>
      <trkpt lat="42.8408" lon="1.83741">
        <ele>1869.884</ele>
        <time>2021-02-28T12:22:09Z</time>
      </trkpt>
      <trkpt lat="42.84082" lon="1.83741">
        <ele>1869.391</ele>
        <time>2021-02-28T12:22:11Z</time>
      </trkpt>
      <trkpt lat="42.84083" lon="1.83739">
        <ele>1868.711</ele>
        <time>2021-02-28T12:22:13Z</time>
      </trkpt>
      <trkpt lat="42.84083" lon="1.83739">
        <ele>1868.233</ele>
        <time>2021-02-28T12:22:15Z</time>
      </trkpt>
      <trkpt lat="42.84084" lon="1.83737">
        <ele>1867.322</ele>
        <time>2021-02-28T12:22:17Z</time>
      </trkpt>
      <trkpt lat="42.84085" lon="1.83736">
        <ele>1866.843</ele>
        <time>2021-02-28T12:22:19Z</time>
      </trkpt>
      <trkpt lat="42.84086" lon="1.83736">
        <ele>1866.438</ele>
        <time>2021-02-28T12:22:21Z</time>
      </trkpt>
      <trkpt lat="42.84088" lon="1.83735">
        <ele>1866.302</ele>
        <time>2021-02-28T12:22:23Z</time>
      </trkpt>
      <trkpt lat="42.84089" lon="1.83734">
        <ele>1865.935</ele>
        <time>2021-02-28T12:22:25Z</time>
      </trkpt>
      <trkpt lat="42.84091" lon="1.83734">
        <ele>1865.526</ele>
        <time>2021-02-28T12:22:27Z</time>
      </trkpt>
      <trkpt lat="42.84092" lon="1.83733">
        <ele>1865.438</ele>
        <time>2021-02-28T12:22:29Z</time>
      </trkpt>
      <trkpt lat="42.84092" lon="1.83732">
        <ele>1864.826</ele>
        <time>2021-02-28T12:22:31Z</time>
      </trkpt>
      <trkpt lat="42.84092" lon="1.8373">
        <ele>1864.201</ele>
        <time>2021-02-28T12:22:33Z</time>
      </trkpt>
      <trkpt lat="42.84092" lon="1.83728">
        <ele>1863.493</ele>
        <time>2021-02-28T12:22:35Z</time>
      </trkpt>
      <trkpt lat="42.84092" lon="1.83727">
        <ele>1863.311</ele>
        <time>2021-02-28T12:22:37Z</time>
      </trkpt>
      <trkpt lat="42.84092" lon="1.83727">
        <ele>1863.151</ele>
        <time>2021-02-28T12:22:39Z</time>
      </trkpt>
      <trkpt lat="42.84092" lon="1.83726">
        <ele>1863.217</ele>
        <time>2021-02-28T12:22:41Z</time>
      </trkpt>
      <trkpt lat="42.84093" lon="1.83724">
        <ele>1862.476</ele>
        <time>2021-02-28T12:22:43Z</time>
      </trkpt>
      <trkpt lat="42.84094" lon="1.83723">
        <ele>1861.684</ele>
        <time>2021-02-28T12:22:45Z</time>
      </trkpt>
      <trkpt lat="42.84095" lon="1.83723">
        <ele>1861.466</ele>
        <time>2021-02-28T12:22:47Z</time>
      </trkpt>
      <trkpt lat="42.84096" lon="1.83723">
        <ele>1862.007</ele>
        <time>2021-02-28T12:22:49Z</time>
      </trkpt>
      <trkpt lat="42.84097" lon="1.83724">
        <ele>1861.788</ele>
        <time>2021-02-28T12:22:51Z</time>
      </trkpt>
      <trkpt lat="42.84098" lon="1.83723">
        <ele>1861.449</ele>
        <time>2021-02-28T12:22:53Z</time>
      </trkpt>
      <trkpt lat="42.84099" lon="1.83722">
        <ele>1861.236</ele>
        <time>2021-02-28T12:22:55Z</time>
      </trkpt>
      <trkpt lat="42.841" lon="1.83721">
        <ele>1860.552</ele>
        <time>2021-02-28T12:22:57Z</time>
      </trkpt>
      <trkpt lat="42.84101" lon="1.83721">
        <ele>1859.744</ele>
        <time>2021-02-28T12:22:59Z</time>
      </trkpt>
      <trkpt lat="42.84103" lon="1.83721">
        <ele>1859.287</ele>
        <time>2021-02-28T12:23:01Z</time>
      </trkpt>
      <trkpt lat="42.84104" lon="1.83722">
        <ele>1858.566</ele>
        <time>2021-02-28T12:23:03Z</time>
      </trkpt>
      <trkpt lat="42.84105" lon="1.83721">
        <ele>1857.764</ele>
        <time>2021-02-28T12:23:05Z</time>
      </trkpt>
      <trkpt lat="42.84106" lon="1.83719">
        <ele>1856.589</ele>
        <time>2021-02-28T12:23:07Z</time>
      </trkpt>
      <trkpt lat="42.84107" lon="1.83719">
        <ele>1855.855</ele>
        <time>2021-02-28T12:23:09Z</time>
      </trkpt>
      <trkpt lat="42.84108" lon="1.83718">
        <ele>1855.508</ele>
        <time>2021-02-28T12:23:11Z</time>
      </trkpt>
      <trkpt lat="42.8411" lon="1.83718">
        <ele>1855.219</ele>
        <time>2021-02-28T12:23:13Z</time>
      </trkpt>
      <trkpt lat="42.84111" lon="1.83716">
        <ele>1854.507</ele>
        <time>2021-02-28T12:23:15Z</time>
      </trkpt>
      <trkpt lat="42.84112" lon="1.83715">
        <ele>1853.922</ele>
        <time>2021-02-28T12:23:17Z</time>
      </trkpt>
      <trkpt lat="42.84113" lon="1.83714">
        <ele>1853.841</ele>
        <time>2021-02-28T12:23:19Z</time>
      </trkpt>
      <trkpt lat="42.84113" lon="1.83713">
        <ele>1853.631</ele>
        <time>2021-02-28T12:23:21Z</time>
      </trkpt>
      <trkpt lat="42.84114" lon="1.83711">
        <ele>1853.568</ele>
        <time>2021-02-28T12:23:23Z</time>
      </trkpt>
      <trkpt lat="42.84114" lon="1.8371">
        <ele>1853.183</ele>
        <time>2021-02-28T12:23:25Z</time>
      </trkpt>
      <trkpt lat="42.84115" lon="1.8371">
        <ele>1852.876</ele>
        <time>2021-02-28T12:23:27Z</time>
      </trkpt>
      <trkpt lat="42.84116" lon="1.83709">
        <ele>1851.912</ele>
        <time>2021-02-28T12:23:29Z</time>
      </trkpt>
      <trkpt lat="42.84117" lon="1.83709">
        <ele>1851.17</ele>
        <time>2021-02-28T12:23:31Z</time>
      </trkpt>
      <trkpt lat="42.84118" lon="1.83708">
        <ele>1850.423</ele>
        <time>2021-02-28T12:23:33Z</time>
      </trkpt>
      <trkpt lat="42.84119" lon="1.83707">
        <ele>1849.605</ele>
        <time>2021-02-28T12:23:35Z</time>
      </trkpt>
      <trkpt lat="42.84119" lon="1.83707">
        <ele>1849.136</ele>
        <time>2021-02-28T12:23:37Z</time>
      </trkpt>
      <trkpt lat="42.84119" lon="1.83707">
        <ele>1849.197</ele>
        <time>2021-02-28T12:23:39Z</time>
      </trkpt>
      <trkpt lat="42.84121" lon="1.83705">
        <ele>1848.5</ele>
        <time>2021-02-28T12:23:41Z</time>
      </trkpt>
      <trkpt lat="42.84122" lon="1.83704">
        <ele>1848.027</ele>
        <time>2021-02-28T12:23:43Z</time>
      </trkpt>
      <trkpt lat="42.84122" lon="1.83703">
        <ele>1847.506</ele>
        <time>2021-02-28T12:23:45Z</time>
      </trkpt>
      <trkpt lat="42.84123" lon="1.83702">
        <ele>1848.227</ele>
        <time>2021-02-28T12:23:47Z</time>
      </trkpt>
      <trkpt lat="42.84124" lon="1.83701">
        <ele>1847.979</ele>
        <time>2021-02-28T12:23:49Z</time>
      </trkpt>
      <trkpt lat="42.84125" lon="1.837">
        <ele>1847.709</ele>
        <time>2021-02-28T12:23:51Z</time>
      </trkpt>
      <trkpt lat="42.84126" lon="1.837">
        <ele>1847.099</ele>
        <time>2021-02-28T12:23:53Z</time>
      </trkpt>
      <trkpt lat="42.84128" lon="1.83699">
        <ele>1846.312</ele>
        <time>2021-02-28T12:23:55Z</time>
      </trkpt>
      <trkpt lat="42.84129" lon="1.837">
        <ele>1845.585</ele>
        <time>2021-02-28T12:23:57Z</time>
      </trkpt>
      <trkpt lat="42.8413" lon="1.83699">
        <ele>1844.912</ele>
        <time>2021-02-28T12:23:59Z</time>
      </trkpt>
      <trkpt lat="42.84131" lon="1.837">
        <ele>1843.918</ele>
        <time>2021-02-28T12:24:01Z</time>
      </trkpt>
      <trkpt lat="42.84133" lon="1.83701">
        <ele>1843.478</ele>
        <time>2021-02-28T12:24:03Z</time>
      </trkpt>
      <trkpt lat="42.84134" lon="1.837">
        <ele>1842.95</ele>
        <time>2021-02-28T12:24:05Z</time>
      </trkpt>
      <trkpt lat="42.84136" lon="1.837">
        <ele>1842.196</ele>
        <time>2021-02-28T12:24:07Z</time>
      </trkpt>
      <trkpt lat="42.84137" lon="1.83699">
        <ele>1841.668</ele>
        <time>2021-02-28T12:24:09Z</time>
      </trkpt>
      <trkpt lat="42.84138" lon="1.83698">
        <ele>1841.174</ele>
        <time>2021-02-28T12:24:11Z</time>
      </trkpt>
      <trkpt lat="42.8414" lon="1.83698">
        <ele>1840.617</ele>
        <time>2021-02-28T12:24:13Z</time>
      </trkpt>
      <trkpt lat="42.84142" lon="1.83699">
        <ele>1840.461</ele>
        <time>2021-02-28T12:24:15Z</time>
      </trkpt>
      <trkpt lat="42.84143" lon="1.83698">
        <ele>1840.186</ele>
        <time>2021-02-28T12:24:17Z</time>
      </trkpt>
      <trkpt lat="42.84144" lon="1.83697">
        <ele>1839.853</ele>
        <time>2021-02-28T12:24:19Z</time>
      </trkpt>
      <trkpt lat="42.84146" lon="1.83695">
        <ele>1839.405</ele>
        <time>2021-02-28T12:24:21Z</time>
      </trkpt>
      <trkpt lat="42.84147" lon="1.83694">
        <ele>1839.279</ele>
        <time>2021-02-28T12:24:23Z</time>
      </trkpt>
      <trkpt lat="42.84149" lon="1.83693">
        <ele>1838.689</ele>
        <time>2021-02-28T12:24:25Z</time>
      </trkpt>
      <trkpt lat="42.8415" lon="1.83693">
        <ele>1838.21</ele>
        <time>2021-02-28T12:24:27Z</time>
      </trkpt>
      <trkpt lat="42.84152" lon="1.83694">
        <ele>1838.024</ele>
        <time>2021-02-28T12:24:29Z</time>
      </trkpt>
      <trkpt lat="42.84153" lon="1.83694">
        <ele>1837.727</ele>
        <time>2021-02-28T12:24:31Z</time>
      </trkpt>
      <trkpt lat="42.84154" lon="1.83695">
        <ele>1837.939</ele>
        <time>2021-02-28T12:24:33Z</time>
      </trkpt>
      <trkpt lat="42.84156" lon="1.83695">
        <ele>1837.507</ele>
        <time>2021-02-28T12:24:35Z</time>
      </trkpt>
      <trkpt lat="42.84157" lon="1.83696">
        <ele>1837.232</ele>
        <time>2021-02-28T12:24:37Z</time>
      </trkpt>
      <trkpt lat="42.84157" lon="1.83696">
        <ele>1837.077</ele>
        <time>2021-02-28T12:24:39Z</time>
      </trkpt>
      <trkpt lat="42.84159" lon="1.83698">
        <ele>1837.465</ele>
        <time>2021-02-28T12:24:41Z</time>
      </trkpt>
      <trkpt lat="42.8416" lon="1.837">
        <ele>1837.434</ele>
        <time>2021-02-28T12:24:43Z</time>
      </trkpt>
      <trkpt lat="42.84161" lon="1.83701">
        <ele>1837.374</ele>
        <time>2021-02-28T12:24:45Z</time>
      </trkpt>
      <trkpt lat="42.84163" lon="1.83701">
        <ele>1836.892</ele>
        <time>2021-02-28T12:24:47Z</time>
      </trkpt>
      <trkpt lat="42.84164" lon="1.83702">
        <ele>1835.945</ele>
        <time>2021-02-28T12:24:49Z</time>
      </trkpt>
      <trkpt lat="42.84166" lon="1.83701">
        <ele>1835.083</ele>
        <time>2021-02-28T12:24:51Z</time>
      </trkpt>
      <trkpt lat="42.84167" lon="1.83701">
        <ele>1834.76</ele>
        <time>2021-02-28T12:24:53Z</time>
      </trkpt>
      <trkpt lat="42.84168" lon="1.837">
        <ele>1834.372</ele>
        <time>2021-02-28T12:24:55Z</time>
      </trkpt>
      <trkpt lat="42.8417" lon="1.83699">
        <ele>1833.891</ele>
        <time>2021-02-28T12:24:57Z</time>
      </trkpt>
      <trkpt lat="42.84171" lon="1.83699">
        <ele>1833.501</ele>
        <time>2021-02-28T12:24:59Z</time>
      </trkpt>
      <trkpt lat="42.84172" lon="1.83699">
        <ele>1833.092</ele>
        <time>2021-02-28T12:25:01Z</time>
      </trkpt>
      <trkpt lat="42.84173" lon="1.83698">
        <ele>1832.693</ele>
        <time>2021-02-28T12:25:03Z</time>
      </trkpt>
      <trkpt lat="42.84174" lon="1.83696">
        <ele>1832.534</ele>
        <time>2021-02-28T12:25:05Z</time>
      </trkpt>
      <trkpt lat="42.84175" lon="1.83696">
        <ele>1831.949</ele>
        <time>2021-02-28T12:25:07Z</time>
      </trkpt>
      <trkpt lat="42.84177" lon="1.83696">
        <ele>1831.418</ele>
        <time>2021-02-28T12:25:09Z</time>
      </trkpt>
      <trkpt lat="42.84178" lon="1.83696">
        <ele>1830.838</ele>
        <time>2021-02-28T12:25:11Z</time>
      </trkpt>
      <trkpt lat="42.8418" lon="1.83697">
        <ele>1830.558</ele>
        <time>2021-02-28T12:25:13Z</time>
      </trkpt>
      <trkpt lat="42.8418" lon="1.83697">
        <ele>1830.825</ele>
        <time>2021-02-28T12:25:15Z</time>
      </trkpt>
      <trkpt lat="42.84181" lon="1.83698">
        <ele>1830.582</ele>
        <time>2021-02-28T12:25:17Z</time>
      </trkpt>
      <trkpt lat="42.84182" lon="1.837">
        <ele>1830.299</ele>
        <time>2021-02-28T12:25:19Z</time>
      </trkpt>
      <trkpt lat="42.84183" lon="1.83702">
        <ele>1829.93</ele>
        <time>2021-02-28T12:25:21Z</time>
      </trkpt>
      <trkpt lat="42.84184" lon="1.83702">
        <ele>1830.167</ele>
        <time>2021-02-28T12:25:23Z</time>
      </trkpt>
      <trkpt lat="42.84184" lon="1.83702">
        <ele>1830.08</ele>
        <time>2021-02-28T12:25:25Z</time>
      </trkpt>
      <trkpt lat="42.84186" lon="1.83702">
        <ele>1830.107</ele>
        <time>2021-02-28T12:25:27Z</time>
      </trkpt>
      <trkpt lat="42.84187" lon="1.83703">
        <ele>1829.964</ele>
        <time>2021-02-28T12:25:29Z</time>
      </trkpt>
      <trkpt lat="42.84189" lon="1.83704">
        <ele>1829.572</ele>
        <time>2021-02-28T12:25:31Z</time>
      </trkpt>
      <trkpt lat="42.8419" lon="1.83703">
        <ele>1829.597</ele>
        <time>2021-02-28T12:25:33Z</time>
      </trkpt>
      <trkpt lat="42.84191" lon="1.83704">
        <ele>1829.17</ele>
        <time>2021-02-28T12:25:35Z</time>
      </trkpt>
      <trkpt lat="42.84192" lon="1.83704">
        <ele>1829.173</ele>
        <time>2021-02-28T12:25:37Z</time>
      </trkpt>
      <trkpt lat="42.84192" lon="1.83704">
        <ele>1829.353</ele>
        <time>2021-02-28T12:25:39Z</time>
      </trkpt>
      <trkpt lat="42.84194" lon="1.83704">
        <ele>1829.815</ele>
        <time>2021-02-28T12:25:41Z</time>
      </trkpt>
      <trkpt lat="42.84196" lon="1.83703">
        <ele>1828.575</ele>
        <time>2021-02-28T12:25:43Z</time>
      </trkpt>
      <trkpt lat="42.84197" lon="1.83703">
        <ele>1828.659</ele>
        <time>2021-02-28T12:25:45Z</time>
      </trkpt>
      <trkpt lat="42.84199" lon="1.83703">
        <ele>1829.107</ele>
        <time>2021-02-28T12:25:47Z</time>
      </trkpt>
      <trkpt lat="42.842" lon="1.83703">
        <ele>1829.147</ele>
        <time>2021-02-28T12:25:49Z</time>
      </trkpt>
      <trkpt lat="42.84201" lon="1.83701">
        <ele>1828.174</ele>
        <time>2021-02-28T12:25:51Z</time>
      </trkpt>
      <trkpt lat="42.84202" lon="1.837">
        <ele>1828.248</ele>
        <time>2021-02-28T12:25:53Z</time>
      </trkpt>
      <trkpt lat="42.84203" lon="1.83698">
        <ele>1827.677</ele>
        <time>2021-02-28T12:25:55Z</time>
      </trkpt>
      <trkpt lat="42.84204" lon="1.83697">
        <ele>1827.953</ele>
        <time>2021-02-28T12:25:57Z</time>
      </trkpt>
      <trkpt lat="42.84205" lon="1.83696">
        <ele>1827.224</ele>
        <time>2021-02-28T12:25:59Z</time>
      </trkpt>
      <trkpt lat="42.84205" lon="1.83694">
        <ele>1826.585</ele>
        <time>2021-02-28T12:26:01Z</time>
      </trkpt>
      <trkpt lat="42.84205" lon="1.83692">
        <ele>1826.523</ele>
        <time>2021-02-28T12:26:03Z</time>
      </trkpt>
      <trkpt lat="42.84206" lon="1.83689">
        <ele>1826.324</ele>
        <time>2021-02-28T12:26:05Z</time>
      </trkpt>
      <trkpt lat="42.84206" lon="1.83688">
        <ele>1825.559</ele>
        <time>2021-02-28T12:26:07Z</time>
      </trkpt>
      <trkpt lat="42.84207" lon="1.83687">
        <ele>1825.299</ele>
        <time>2021-02-28T12:26:09Z</time>
      </trkpt>
      <trkpt lat="42.84208" lon="1.83688">
        <ele>1824.838</ele>
        <time>2021-02-28T12:26:11Z</time>
      </trkpt>
      <trkpt lat="42.84209" lon="1.83687">
        <ele>1824.71</ele>
        <time>2021-02-28T12:26:13Z</time>
      </trkpt>
      <trkpt lat="42.8421" lon="1.83685">
        <ele>1824.538</ele>
        <time>2021-02-28T12:26:15Z</time>
      </trkpt>
      <trkpt lat="42.8421" lon="1.83684">
        <ele>1824.029</ele>
        <time>2021-02-28T12:26:17Z</time>
      </trkpt>
      <trkpt lat="42.84211" lon="1.83683">
        <ele>1823.234</ele>
        <time>2021-02-28T12:26:19Z</time>
      </trkpt>
      <trkpt lat="42.84212" lon="1.8368">
        <ele>1822.765</ele>
        <time>2021-02-28T12:26:21Z</time>
      </trkpt>
      <trkpt lat="42.84212" lon="1.83678">
        <ele>1822.297</ele>
        <time>2021-02-28T12:26:23Z</time>
      </trkpt>
      <trkpt lat="42.84214" lon="1.83677">
        <ele>1821.966</ele>
        <time>2021-02-28T12:26:25Z</time>
      </trkpt>
      <trkpt lat="42.84214" lon="1.83677">
        <ele>1820.705</ele>
        <time>2021-02-28T12:26:27Z</time>
      </trkpt>
      <trkpt lat="42.84215" lon="1.83677">
        <ele>1820.201</ele>
        <time>2021-02-28T12:26:29Z</time>
      </trkpt>
      <trkpt lat="42.84216" lon="1.83676">
        <ele>1819.453</ele>
        <time>2021-02-28T12:26:31Z</time>
      </trkpt>
      <trkpt lat="42.84217" lon="1.83674">
        <ele>1818.089</ele>
        <time>2021-02-28T12:26:33Z</time>
      </trkpt>
      <trkpt lat="42.84218" lon="1.83672">
        <ele>1817.661</ele>
        <time>2021-02-28T12:26:35Z</time>
      </trkpt>
      <trkpt lat="42.84219" lon="1.83671">
        <ele>1817.426</ele>
        <time>2021-02-28T12:26:37Z</time>
      </trkpt>
      <trkpt lat="42.84221" lon="1.83671">
        <ele>1817.153</ele>
        <time>2021-02-28T12:26:39Z</time>
      </trkpt>
      <trkpt lat="42.84223" lon="1.8367">
        <ele>1817.135</ele>
        <time>2021-02-28T12:26:41Z</time>
      </trkpt>
      <trkpt lat="42.84224" lon="1.83671">
        <ele>1816.907</ele>
        <time>2021-02-28T12:26:43Z</time>
      </trkpt>
      <trkpt lat="42.84225" lon="1.83671">
        <ele>1816.82</ele>
        <time>2021-02-28T12:26:45Z</time>
      </trkpt>
      <trkpt lat="42.84227" lon="1.83671">
        <ele>1816.066</ele>
        <time>2021-02-28T12:26:47Z</time>
      </trkpt>
      <trkpt lat="42.84228" lon="1.83671">
        <ele>1815.858</ele>
        <time>2021-02-28T12:26:49Z</time>
      </trkpt>
      <trkpt lat="42.8423" lon="1.83671">
        <ele>1815.366</ele>
        <time>2021-02-28T12:26:51Z</time>
      </trkpt>
      <trkpt lat="42.84232" lon="1.83672">
        <ele>1815.526</ele>
        <time>2021-02-28T12:26:53Z</time>
      </trkpt>
      <trkpt lat="42.84233" lon="1.83672">
        <ele>1815.283</ele>
        <time>2021-02-28T12:26:55Z</time>
      </trkpt>
      <trkpt lat="42.84235" lon="1.83672">
        <ele>1815.171</ele>
        <time>2021-02-28T12:26:57Z</time>
      </trkpt>
      <trkpt lat="42.84239" lon="1.83672">
        <ele>1815.401</ele>
        <time>2021-02-28T12:26:59Z</time>
      </trkpt>
      <trkpt lat="42.84242" lon="1.83672">
        <ele>1815.49</ele>
        <time>2021-02-28T12:27:01Z</time>
      </trkpt>
      <trkpt lat="42.84244" lon="1.83672">
        <ele>1814.635</ele>
        <time>2021-02-28T12:27:03Z</time>
      </trkpt>
      <trkpt lat="42.84246" lon="1.83673">
        <ele>1814.403</ele>
        <time>2021-02-28T12:27:05Z</time>
      </trkpt>
      <trkpt lat="42.84247" lon="1.83674">
        <ele>1813.964</ele>
        <time>2021-02-28T12:27:07Z</time>
      </trkpt>
      <trkpt lat="42.84249" lon="1.83675">
        <ele>1813.416</ele>
        <time>2021-02-28T12:27:09Z</time>
      </trkpt>
      <trkpt lat="42.8425" lon="1.83676">
        <ele>1813.476</ele>
        <time>2021-02-28T12:27:11Z</time>
      </trkpt>
      <trkpt lat="42.84251" lon="1.83675">
        <ele>1812.905</ele>
        <time>2021-02-28T12:27:13Z</time>
      </trkpt>
      <trkpt lat="42.84252" lon="1.83672">
        <ele>1813.093</ele>
        <time>2021-02-28T12:27:15Z</time>
      </trkpt>
      <trkpt lat="42.84253" lon="1.83671">
        <ele>1813.014</ele>
        <time>2021-02-28T12:27:17Z</time>
      </trkpt>
      <trkpt lat="42.84255" lon="1.83671">
        <ele>1813.204</ele>
        <time>2021-02-28T12:27:19Z</time>
      </trkpt>
      <trkpt lat="42.84256" lon="1.8367">
        <ele>1813.289</ele>
        <time>2021-02-28T12:27:21Z</time>
      </trkpt>
      <trkpt lat="42.84258" lon="1.83669">
        <ele>1813.134</ele>
        <time>2021-02-28T12:27:23Z</time>
      </trkpt>
      <trkpt lat="42.8426" lon="1.83667">
        <ele>1812.366</ele>
        <time>2021-02-28T12:27:25Z</time>
      </trkpt>
      <trkpt lat="42.8426" lon="1.83667">
        <ele>1812.102</ele>
        <time>2021-02-28T12:27:27Z</time>
      </trkpt>
      <trkpt lat="42.8426" lon="1.83667">
        <ele>1812.099</ele>
        <time>2021-02-28T12:27:29Z</time>
      </trkpt>
      <trkpt lat="42.8426" lon="1.83667">
        <ele>1812.247</ele>
        <time>2021-02-28T12:27:31Z</time>
      </trkpt>
      <trkpt lat="42.8426" lon="1.83667">
        <ele>1812.23</ele>
        <time>2021-02-28T12:27:33Z</time>
      </trkpt>
      <trkpt lat="42.8426" lon="1.83667">
        <ele>1811.679</ele>
        <time>2021-02-28T12:27:35Z</time>
      </trkpt>
      <trkpt lat="42.8426" lon="1.83667">
        <ele>1811.752</ele>
        <time>2021-02-28T12:27:37Z</time>
      </trkpt>
      <trkpt lat="42.84259" lon="1.83668">
        <ele>1811.255</ele>
        <time>2021-02-28T12:27:39Z</time>
      </trkpt>
      <trkpt lat="42.84259" lon="1.8367">
        <ele>1811.109</ele>
        <time>2021-02-28T12:27:41Z</time>
      </trkpt>
      <trkpt lat="42.84259" lon="1.83672">
        <ele>1810.889</ele>
        <time>2021-02-28T12:27:43Z</time>
      </trkpt>
      <trkpt lat="42.8426" lon="1.83674">
        <ele>1810.499</ele>
        <time>2021-02-28T12:27:45Z</time>
      </trkpt>
      <trkpt lat="42.84261" lon="1.83676">
        <ele>1810.128</ele>
        <time>2021-02-28T12:27:47Z</time>
      </trkpt>
      <trkpt lat="42.84262" lon="1.83678">
        <ele>1809.426</ele>
        <time>2021-02-28T12:27:49Z</time>
      </trkpt>
      <trkpt lat="42.84263" lon="1.83678">
        <ele>1809.091</ele>
        <time>2021-02-28T12:27:51Z</time>
      </trkpt>
      <trkpt lat="42.84262" lon="1.83679">
        <ele>1808.774</ele>
        <time>2021-02-28T12:27:53Z</time>
      </trkpt>
      <trkpt lat="42.84262" lon="1.83682">
        <ele>1809.34</ele>
        <time>2021-02-28T12:27:55Z</time>
      </trkpt>
      <trkpt lat="42.84263" lon="1.83685">
        <ele>1808.788</ele>
        <time>2021-02-28T12:27:57Z</time>
      </trkpt>
      <trkpt lat="42.84263" lon="1.83688">
        <ele>1808.658</ele>
        <time>2021-02-28T12:27:59Z</time>
      </trkpt>
      <trkpt lat="42.84264" lon="1.83689">
        <ele>1808.451</ele>
        <time>2021-02-28T12:28:01Z</time>
      </trkpt>
      <trkpt lat="42.84264" lon="1.83689">
        <ele>1808.47</ele>
        <time>2021-02-28T12:28:03Z</time>
      </trkpt>
      <trkpt lat="42.84264" lon="1.8369">
        <ele>1808.475</ele>
        <time>2021-02-28T12:28:05Z</time>
      </trkpt>
      <trkpt lat="42.84265" lon="1.8369">
        <ele>1808.681</ele>
        <time>2021-02-28T12:28:07Z</time>
      </trkpt>
      <trkpt lat="42.84265" lon="1.83692">
        <ele>1808.979</ele>
        <time>2021-02-28T12:28:09Z</time>
      </trkpt>
      <trkpt lat="42.84266" lon="1.83693">
        <ele>1808.618</ele>
        <time>2021-02-28T12:28:11Z</time>
      </trkpt>
      <trkpt lat="42.84268" lon="1.83693">
        <ele>1808.269</ele>
        <time>2021-02-28T12:28:13Z</time>
      </trkpt>
      <trkpt lat="42.84269" lon="1.83694">
        <ele>1808.082</ele>
        <time>2021-02-28T12:28:15Z</time>
      </trkpt>
      <trkpt lat="42.84271" lon="1.83695">
        <ele>1807.969</ele>
        <time>2021-02-28T12:28:17Z</time>
      </trkpt>
      <trkpt lat="42.84272" lon="1.83697">
        <ele>1807.864</ele>
        <time>2021-02-28T12:28:19Z</time>
      </trkpt>
      <trkpt lat="42.84273" lon="1.83699">
        <ele>1807.373</ele>
        <time>2021-02-28T12:28:21Z</time>
      </trkpt>
      <trkpt lat="42.84275" lon="1.837">
        <ele>1807.031</ele>
        <time>2021-02-28T12:28:23Z</time>
      </trkpt>
      <trkpt lat="42.84276" lon="1.83701">
        <ele>1806.586</ele>
        <time>2021-02-28T12:28:25Z</time>
      </trkpt>
      <trkpt lat="42.84277" lon="1.83701">
        <ele>1806.551</ele>
        <time>2021-02-28T12:28:27Z</time>
      </trkpt>
      <trkpt lat="42.84278" lon="1.83702">
        <ele>1806.253</ele>
        <time>2021-02-28T12:28:29Z</time>
      </trkpt>
      <trkpt lat="42.8428" lon="1.83704">
        <ele>1806.075</ele>
        <time>2021-02-28T12:28:31Z</time>
      </trkpt>
      <trkpt lat="42.84281" lon="1.83705">
        <ele>1805.503</ele>
        <time>2021-02-28T12:28:33Z</time>
      </trkpt>
      <trkpt lat="42.84283" lon="1.83707">
        <ele>1805.317</ele>
        <time>2021-02-28T12:28:35Z</time>
      </trkpt>
      <trkpt lat="42.84284" lon="1.83709">
        <ele>1804.513</ele>
        <time>2021-02-28T12:28:37Z</time>
      </trkpt>
      <trkpt lat="42.84286" lon="1.83711">
        <ele>1804.096</ele>
        <time>2021-02-28T12:28:39Z</time>
      </trkpt>
      <trkpt lat="42.84287" lon="1.83713">
        <ele>1803.962</ele>
        <time>2021-02-28T12:28:41Z</time>
      </trkpt>
      <trkpt lat="42.84289" lon="1.83715">
        <ele>1804.462</ele>
        <time>2021-02-28T12:28:43Z</time>
      </trkpt>
      <trkpt lat="42.84292" lon="1.83716">
        <ele>1804.4</ele>
        <time>2021-02-28T12:28:45Z</time>
      </trkpt>
      <trkpt lat="42.84294" lon="1.83716">
        <ele>1804.395</ele>
        <time>2021-02-28T12:28:47Z</time>
      </trkpt>
      <trkpt lat="42.84297" lon="1.83717">
        <ele>1804.82</ele>
        <time>2021-02-28T12:28:49Z</time>
      </trkpt>
      <trkpt lat="42.84299" lon="1.83717">
        <ele>1805.026</ele>
        <time>2021-02-28T12:28:51Z</time>
      </trkpt>
      <trkpt lat="42.843" lon="1.83717">
        <ele>1805.165</ele>
        <time>2021-02-28T12:28:53Z</time>
      </trkpt>
      <trkpt lat="42.84302" lon="1.83716">
        <ele>1804.406</ele>
        <time>2021-02-28T12:28:55Z</time>
      </trkpt>
      <trkpt lat="42.84304" lon="1.83719">
        <ele>1804.91</ele>
        <time>2021-02-28T12:28:57Z</time>
      </trkpt>
      <trkpt lat="42.84305" lon="1.83722">
        <ele>1804.996</ele>
        <time>2021-02-28T12:28:59Z</time>
      </trkpt>
      <trkpt lat="42.84306" lon="1.83724">
        <ele>1805.503</ele>
        <time>2021-02-28T12:29:01Z</time>
      </trkpt>
      <trkpt lat="42.84308" lon="1.83726">
        <ele>1805.209</ele>
        <time>2021-02-28T12:29:03Z</time>
      </trkpt>
      <trkpt lat="42.84309" lon="1.83728">
        <ele>1805.506</ele>
        <time>2021-02-28T12:29:05Z</time>
      </trkpt>
      <trkpt lat="42.8431" lon="1.8373">
        <ele>1804.788</ele>
        <time>2021-02-28T12:29:07Z</time>
      </trkpt>
      <trkpt lat="42.84312" lon="1.83731">
        <ele>1805.328</ele>
        <time>2021-02-28T12:29:09Z</time>
      </trkpt>
      <trkpt lat="42.84314" lon="1.83732">
        <ele>1805.619</ele>
        <time>2021-02-28T12:29:11Z</time>
      </trkpt>
      <trkpt lat="42.84317" lon="1.83734">
        <ele>1805.484</ele>
        <time>2021-02-28T12:29:13Z</time>
      </trkpt>
      <trkpt lat="42.84319" lon="1.83735">
        <ele>1805.273</ele>
        <time>2021-02-28T12:29:15Z</time>
      </trkpt>
      <trkpt lat="42.8432" lon="1.83736">
        <ele>1804.715</ele>
        <time>2021-02-28T12:29:17Z</time>
      </trkpt>
      <trkpt lat="42.84322" lon="1.83737">
        <ele>1806.11</ele>
        <time>2021-02-28T12:29:19Z</time>
      </trkpt>
      <trkpt lat="42.84324" lon="1.83738">
        <ele>1806.425</ele>
        <time>2021-02-28T12:29:21Z</time>
      </trkpt>
      <trkpt lat="42.84326" lon="1.83739">
        <ele>1806.124</ele>
        <time>2021-02-28T12:29:23Z</time>
      </trkpt>
      <trkpt lat="42.84328" lon="1.8374">
        <ele>1805.873</ele>
        <time>2021-02-28T12:29:25Z</time>
      </trkpt>
      <trkpt lat="42.84331" lon="1.8374">
        <ele>1806.54</ele>
        <time>2021-02-28T12:29:27Z</time>
      </trkpt>
      <trkpt lat="42.84334" lon="1.8374">
        <ele>1806.669</ele>
        <time>2021-02-28T12:29:29Z</time>
      </trkpt>
      <trkpt lat="42.84336" lon="1.83741">
        <ele>1807.01</ele>
        <time>2021-02-28T12:29:31Z</time>
      </trkpt>
      <trkpt lat="42.84338" lon="1.83742">
        <ele>1807.621</ele>
        <time>2021-02-28T12:29:33Z</time>
      </trkpt>
      <trkpt lat="42.8434" lon="1.83742">
        <ele>1807.521</ele>
        <time>2021-02-28T12:29:35Z</time>
      </trkpt>
      <trkpt lat="42.84342" lon="1.83743">
        <ele>1807.31</ele>
        <time>2021-02-28T12:29:37Z</time>
      </trkpt>
      <trkpt lat="42.84344" lon="1.83743">
        <ele>1807.463</ele>
        <time>2021-02-28T12:29:39Z</time>
      </trkpt>
      <trkpt lat="42.84346" lon="1.83743">
        <ele>1806.875</ele>
        <time>2021-02-28T12:29:41Z</time>
      </trkpt>
      <trkpt lat="42.84349" lon="1.83743">
        <ele>1806.114</ele>
        <time>2021-02-28T12:29:43Z</time>
      </trkpt>
      <trkpt lat="42.84351" lon="1.83743">
        <ele>1805.75</ele>
        <time>2021-02-28T12:29:45Z</time>
      </trkpt>
      <trkpt lat="42.84353" lon="1.83743">
        <ele>1805.522</ele>
        <time>2021-02-28T12:29:47Z</time>
      </trkpt>
      <trkpt lat="42.84355" lon="1.83744">
        <ele>1805.47</ele>
        <time>2021-02-28T12:29:49Z</time>
      </trkpt>
      <trkpt lat="42.84357" lon="1.83744">
        <ele>1804.816</ele>
        <time>2021-02-28T12:29:51Z</time>
      </trkpt>
      <trkpt lat="42.84359" lon="1.83744">
        <ele>1803.898</ele>
        <time>2021-02-28T12:29:53Z</time>
      </trkpt>
      <trkpt lat="42.84359" lon="1.83744">
        <ele>1804.33</ele>
        <time>2021-02-28T12:29:54Z</time>
      </trkpt>
      <trkpt lat="42.8436" lon="1.83743">
        <ele>1804.355</ele>
        <time>2021-02-28T12:29:57Z</time>
      </trkpt>
      <trkpt lat="42.8436" lon="1.83743">
        <ele>1804.353</ele>
        <time>2021-02-28T12:29:59Z</time>
      </trkpt>
      <trkpt lat="42.84361" lon="1.83743">
        <ele>1804.029</ele>
        <time>2021-02-28T12:30:01Z</time>
      </trkpt>
      <trkpt lat="42.84362" lon="1.83741">
        <ele>1803.692</ele>
        <time>2021-02-28T12:30:03Z</time>
      </trkpt>
      <trkpt lat="42.84365" lon="1.83743">
        <ele>1804.316</ele>
        <time>2021-02-28T12:30:05Z</time>
      </trkpt>
      <trkpt lat="42.84367" lon="1.83743">
        <ele>1803.94</ele>
        <time>2021-02-28T12:30:07Z</time>
      </trkpt>
      <trkpt lat="42.84368" lon="1.83743">
        <ele>1803.833</ele>
        <time>2021-02-28T12:30:09Z</time>
      </trkpt>
      <trkpt lat="42.8437" lon="1.83743">
        <ele>1802.751</ele>
        <time>2021-02-28T12:30:11Z</time>
      </trkpt>
      <trkpt lat="42.84371" lon="1.83743">
        <ele>1802.46</ele>
        <time>2021-02-28T12:30:13Z</time>
      </trkpt>
      <trkpt lat="42.84373" lon="1.83744">
        <ele>1802.552</ele>
        <time>2021-02-28T12:30:15Z</time>
      </trkpt>
      <trkpt lat="42.84374" lon="1.83745">
        <ele>1802.182</ele>
        <time>2021-02-28T12:30:17Z</time>
      </trkpt>
      <trkpt lat="42.84375" lon="1.83747">
        <ele>1801.912</ele>
        <time>2021-02-28T12:30:19Z</time>
      </trkpt>
      <trkpt lat="42.84377" lon="1.83748">
        <ele>1801.579</ele>
        <time>2021-02-28T12:30:21Z</time>
      </trkpt>
      <trkpt lat="42.8438" lon="1.83748">
        <ele>1800.742</ele>
        <time>2021-02-28T12:30:23Z</time>
      </trkpt>
      <trkpt lat="42.84382" lon="1.83747">
        <ele>1800.013</ele>
        <time>2021-02-28T12:30:25Z</time>
      </trkpt>
      <trkpt lat="42.84383" lon="1.83745">
        <ele>1800.048</ele>
        <time>2021-02-28T12:30:27Z</time>
      </trkpt>
      <trkpt lat="42.84384" lon="1.83743">
        <ele>1799.117</ele>
        <time>2021-02-28T12:30:29Z</time>
      </trkpt>
      <trkpt lat="42.84385" lon="1.83741">
        <ele>1798.47</ele>
        <time>2021-02-28T12:30:31Z</time>
      </trkpt>
      <trkpt lat="42.84387" lon="1.83739">
        <ele>1798.703</ele>
        <time>2021-02-28T12:30:33Z</time>
      </trkpt>
      <trkpt lat="42.84388" lon="1.83738">
        <ele>1797.637</ele>
        <time>2021-02-28T12:30:35Z</time>
      </trkpt>
      <trkpt lat="42.8439" lon="1.83737">
        <ele>1796.901</ele>
        <time>2021-02-28T12:30:37Z</time>
      </trkpt>
      <trkpt lat="42.84391" lon="1.83737">
        <ele>1796.386</ele>
        <time>2021-02-28T12:30:39Z</time>
      </trkpt>
      <trkpt lat="42.84393" lon="1.83736">
        <ele>1795.623</ele>
        <time>2021-02-28T12:30:41Z</time>
      </trkpt>
      <trkpt lat="42.84394" lon="1.83734">
        <ele>1795.101</ele>
        <time>2021-02-28T12:30:43Z</time>
      </trkpt>
      <trkpt lat="42.84396" lon="1.83734">
        <ele>1794.759</ele>
        <time>2021-02-28T12:30:45Z</time>
      </trkpt>
      <trkpt lat="42.84398" lon="1.83734">
        <ele>1794.057</ele>
        <time>2021-02-28T12:30:47Z</time>
      </trkpt>
      <trkpt lat="42.844" lon="1.83734">
        <ele>1793.427</ele>
        <time>2021-02-28T12:30:49Z</time>
      </trkpt>
      <trkpt lat="42.84402" lon="1.83733">
        <ele>1793.037</ele>
        <time>2021-02-28T12:30:51Z</time>
      </trkpt>
      <trkpt lat="42.84403" lon="1.83732">
        <ele>1792.67</ele>
        <time>2021-02-28T12:30:53Z</time>
      </trkpt>
      <trkpt lat="42.84404" lon="1.8373">
        <ele>1792.295</ele>
        <time>2021-02-28T12:30:55Z</time>
      </trkpt>
      <trkpt lat="42.84406" lon="1.83728">
        <ele>1792.002</ele>
        <time>2021-02-28T12:30:57Z</time>
      </trkpt>
      <trkpt lat="42.84407" lon="1.83726">
        <ele>1791.456</ele>
        <time>2021-02-28T12:30:59Z</time>
      </trkpt>
      <trkpt lat="42.84409" lon="1.83724">
        <ele>1791.293</ele>
        <time>2021-02-28T12:31:01Z</time>
      </trkpt>
      <trkpt lat="42.8441" lon="1.83723">
        <ele>1790.645</ele>
        <time>2021-02-28T12:31:03Z</time>
      </trkpt>
      <trkpt lat="42.84412" lon="1.83722">
        <ele>1789.77</ele>
        <time>2021-02-28T12:31:05Z</time>
      </trkpt>
      <trkpt lat="42.84413" lon="1.83722">
        <ele>1789.172</ele>
        <time>2021-02-28T12:31:07Z</time>
      </trkpt>
      <trkpt lat="42.84415" lon="1.83722">
        <ele>1788.889</ele>
        <time>2021-02-28T12:31:09Z</time>
      </trkpt>
      <trkpt lat="42.84417" lon="1.83722">
        <ele>1788.989</ele>
        <time>2021-02-28T12:31:11Z</time>
      </trkpt>
      <trkpt lat="42.84419" lon="1.83721">
        <ele>1788.273</ele>
        <time>2021-02-28T12:31:13Z</time>
      </trkpt>
      <trkpt lat="42.8442" lon="1.8372">
        <ele>1787.815</ele>
        <time>2021-02-28T12:31:15Z</time>
      </trkpt>
      <trkpt lat="42.84421" lon="1.83719">
        <ele>1787.532</ele>
        <time>2021-02-28T12:31:17Z</time>
      </trkpt>
      <trkpt lat="42.84423" lon="1.83719">
        <ele>1787.504</ele>
        <time>2021-02-28T12:31:19Z</time>
      </trkpt>
      <trkpt lat="42.84424" lon="1.83718">
        <ele>1787.367</ele>
        <time>2021-02-28T12:31:21Z</time>
      </trkpt>
      <trkpt lat="42.84426" lon="1.83717">
        <ele>1787.098</ele>
        <time>2021-02-28T12:31:23Z</time>
      </trkpt>
      <trkpt lat="42.84426" lon="1.83715">
        <ele>1786.665</ele>
        <time>2021-02-28T12:31:25Z</time>
      </trkpt>
      <trkpt lat="42.84427" lon="1.83714">
        <ele>1786.039</ele>
        <time>2021-02-28T12:31:27Z</time>
      </trkpt>
      <trkpt lat="42.84428" lon="1.83712">
        <ele>1786.017</ele>
        <time>2021-02-28T12:31:29Z</time>
      </trkpt>
      <trkpt lat="42.84429" lon="1.83711">
        <ele>1785.326</ele>
        <time>2021-02-28T12:31:31Z</time>
      </trkpt>
      <trkpt lat="42.84431" lon="1.8371">
        <ele>1784.76</ele>
        <time>2021-02-28T12:31:33Z</time>
      </trkpt>
      <trkpt lat="42.84432" lon="1.8371">
        <ele>1784.587</ele>
        <time>2021-02-28T12:31:35Z</time>
      </trkpt>
      <trkpt lat="42.84434" lon="1.8371">
        <ele>1784.174</ele>
        <time>2021-02-28T12:31:37Z</time>
      </trkpt>
      <trkpt lat="42.84435" lon="1.8371">
        <ele>1784.223</ele>
        <time>2021-02-28T12:31:39Z</time>
      </trkpt>
      <trkpt lat="42.84436" lon="1.8371">
        <ele>1784.069</ele>
        <time>2021-02-28T12:31:41Z</time>
      </trkpt>
      <trkpt lat="42.84437" lon="1.83709">
        <ele>1783.886</ele>
        <time>2021-02-28T12:31:43Z</time>
      </trkpt>
      <trkpt lat="42.84438" lon="1.83708">
        <ele>1784.405</ele>
        <time>2021-02-28T12:31:45Z</time>
      </trkpt>
      <trkpt lat="42.84439" lon="1.83706">
        <ele>1784.545</ele>
        <time>2021-02-28T12:31:47Z</time>
      </trkpt>
      <trkpt lat="42.84441" lon="1.83706">
        <ele>1784.61</ele>
        <time>2021-02-28T12:31:49Z</time>
      </trkpt>
      <trkpt lat="42.84441" lon="1.83706">
        <ele>1785.39</ele>
        <time>2021-02-28T12:31:51Z</time>
      </trkpt>
      <trkpt lat="42.84443" lon="1.83706">
        <ele>1784.591</ele>
        <time>2021-02-28T12:31:53Z</time>
      </trkpt>
      <trkpt lat="42.84446" lon="1.83706">
        <ele>1783.781</ele>
        <time>2021-02-28T12:31:55Z</time>
      </trkpt>
      <trkpt lat="42.84448" lon="1.83707">
        <ele>1783.572</ele>
        <time>2021-02-28T12:31:57Z</time>
      </trkpt>
      <trkpt lat="42.8445" lon="1.83706">
        <ele>1782.708</ele>
        <time>2021-02-28T12:31:59Z</time>
      </trkpt>
      <trkpt lat="42.84451" lon="1.83705">
        <ele>1781.964</ele>
        <time>2021-02-28T12:32:01Z</time>
      </trkpt>
      <trkpt lat="42.84453" lon="1.83704">
        <ele>1780.959</ele>
        <time>2021-02-28T12:32:03Z</time>
      </trkpt>
      <trkpt lat="42.84455" lon="1.83703">
        <ele>1780.694</ele>
        <time>2021-02-28T12:32:05Z</time>
      </trkpt>
      <trkpt lat="42.84457" lon="1.83702">
        <ele>1780.576</ele>
        <time>2021-02-28T12:32:07Z</time>
      </trkpt>
      <trkpt lat="42.84457" lon="1.83699">
        <ele>1781.502</ele>
        <time>2021-02-28T12:32:09Z</time>
      </trkpt>
      <trkpt lat="42.8446" lon="1.83698">
        <ele>1781.054</ele>
        <time>2021-02-28T12:32:11Z</time>
      </trkpt>
      <trkpt lat="42.84462" lon="1.83698">
        <ele>1779.883</ele>
        <time>2021-02-28T12:32:13Z</time>
      </trkpt>
      <trkpt lat="42.84464" lon="1.837">
        <ele>1779.142</ele>
        <time>2021-02-28T12:32:15Z</time>
      </trkpt>
      <trkpt lat="42.84465" lon="1.83701">
        <ele>1779.034</ele>
        <time>2021-02-28T12:32:16Z</time>
      </trkpt>
      <trkpt lat="42.84471" lon="1.83703">
        <ele>1777.919</ele>
        <time>2021-02-28T12:32:23Z</time>
      </trkpt>
      <trkpt lat="42.84472" lon="1.83705">
        <ele>1777.728</ele>
        <time>2021-02-28T12:32:25Z</time>
      </trkpt>
      <trkpt lat="42.84473" lon="1.83708">
        <ele>1777.293</ele>
        <time>2021-02-28T12:32:27Z</time>
      </trkpt>
      <trkpt lat="42.84473" lon="1.8371">
        <ele>1776.545</ele>
        <time>2021-02-28T12:32:29Z</time>
      </trkpt>
      <trkpt lat="42.84474" lon="1.83713">
        <ele>1775.533</ele>
        <time>2021-02-28T12:32:31Z</time>
      </trkpt>
      <trkpt lat="42.84474" lon="1.83715">
        <ele>1775.351</ele>
        <time>2021-02-28T12:32:33Z</time>
      </trkpt>
      <trkpt lat="42.84475" lon="1.83717">
        <ele>1775.855</ele>
        <time>2021-02-28T12:32:35Z</time>
      </trkpt>
      <trkpt lat="42.84477" lon="1.83719">
        <ele>1775.671</ele>
        <time>2021-02-28T12:32:37Z</time>
      </trkpt>
      <trkpt lat="42.84478" lon="1.83721">
        <ele>1775.931</ele>
        <time>2021-02-28T12:32:39Z</time>
      </trkpt>
      <trkpt lat="42.84479" lon="1.83723">
        <ele>1775.413</ele>
        <time>2021-02-28T12:32:41Z</time>
      </trkpt>
      <trkpt lat="42.84481" lon="1.83725">
        <ele>1775.096</ele>
        <time>2021-02-28T12:32:43Z</time>
      </trkpt>
      <trkpt lat="42.84482" lon="1.83726">
        <ele>1774.954</ele>
        <time>2021-02-28T12:32:45Z</time>
      </trkpt>
      <trkpt lat="42.84484" lon="1.83728">
        <ele>1774.484</ele>
        <time>2021-02-28T12:32:47Z</time>
      </trkpt>
      <trkpt lat="42.84485" lon="1.83731">
        <ele>1775.086</ele>
        <time>2021-02-28T12:32:49Z</time>
      </trkpt>
      <trkpt lat="42.84485" lon="1.83733">
        <ele>1774.241</ele>
        <time>2021-02-28T12:32:51Z</time>
      </trkpt>
      <trkpt lat="42.84486" lon="1.83736">
        <ele>1773.168</ele>
        <time>2021-02-28T12:32:53Z</time>
      </trkpt>
      <trkpt lat="42.84487" lon="1.83738">
        <ele>1772.888</ele>
        <time>2021-02-28T12:32:55Z</time>
      </trkpt>
      <trkpt lat="42.84487" lon="1.8374">
        <ele>1772.743</ele>
        <time>2021-02-28T12:32:57Z</time>
      </trkpt>
      <trkpt lat="42.84488" lon="1.83743">
        <ele>1772.073</ele>
        <time>2021-02-28T12:32:59Z</time>
      </trkpt>
      <trkpt lat="42.84488" lon="1.83746">
        <ele>1771.239</ele>
        <time>2021-02-28T12:33:01Z</time>
      </trkpt>
      <trkpt lat="42.84489" lon="1.83748">
        <ele>1770.904</ele>
        <time>2021-02-28T12:33:03Z</time>
      </trkpt>
      <trkpt lat="42.8449" lon="1.8375">
        <ele>1770.322</ele>
        <time>2021-02-28T12:33:05Z</time>
      </trkpt>
      <trkpt lat="42.84491" lon="1.83754">
        <ele>1770.078</ele>
        <time>2021-02-28T12:33:07Z</time>
      </trkpt>
      <trkpt lat="42.84493" lon="1.83756">
        <ele>1769.619</ele>
        <time>2021-02-28T12:33:09Z</time>
      </trkpt>
      <trkpt lat="42.84494" lon="1.83759">
        <ele>1768.856</ele>
        <time>2021-02-28T12:33:11Z</time>
      </trkpt>
      <trkpt lat="42.84495" lon="1.83762">
        <ele>1768.03</ele>
        <time>2021-02-28T12:33:13Z</time>
      </trkpt>
      <trkpt lat="42.84496" lon="1.83764">
        <ele>1767.062</ele>
        <time>2021-02-28T12:33:15Z</time>
      </trkpt>
      <trkpt lat="42.84497" lon="1.83767">
        <ele>1766.747</ele>
        <time>2021-02-28T12:33:17Z</time>
      </trkpt>
      <trkpt lat="42.84499" lon="1.83769">
        <ele>1766.331</ele>
        <time>2021-02-28T12:33:19Z</time>
      </trkpt>
      <trkpt lat="42.84501" lon="1.8377">
        <ele>1765.595</ele>
        <time>2021-02-28T12:33:21Z</time>
      </trkpt>
      <trkpt lat="42.84503" lon="1.83773">
        <ele>1764.985</ele>
        <time>2021-02-28T12:33:23Z</time>
      </trkpt>
      <trkpt lat="42.84505" lon="1.83775">
        <ele>1764.582</ele>
        <time>2021-02-28T12:33:25Z</time>
      </trkpt>
      <trkpt lat="42.84506" lon="1.83778">
        <ele>1763.592</ele>
        <time>2021-02-28T12:33:27Z</time>
      </trkpt>
      <trkpt lat="42.84506" lon="1.8378">
        <ele>1763.114</ele>
        <time>2021-02-28T12:33:29Z</time>
      </trkpt>
      <trkpt lat="42.84507" lon="1.83783">
        <ele>1762.374</ele>
        <time>2021-02-28T12:33:31Z</time>
      </trkpt>
      <trkpt lat="42.84508" lon="1.83786">
        <ele>1762.259</ele>
        <time>2021-02-28T12:33:33Z</time>
      </trkpt>
      <trkpt lat="42.84509" lon="1.83788">
        <ele>1761.768</ele>
        <time>2021-02-28T12:33:35Z</time>
      </trkpt>
      <trkpt lat="42.8451" lon="1.8379">
        <ele>1762.116</ele>
        <time>2021-02-28T12:33:37Z</time>
      </trkpt>
      <trkpt lat="42.84511" lon="1.83792">
        <ele>1762.168</ele>
        <time>2021-02-28T12:33:39Z</time>
      </trkpt>
      <trkpt lat="42.84513" lon="1.83794">
        <ele>1761.804</ele>
        <time>2021-02-28T12:33:41Z</time>
      </trkpt>
      <trkpt lat="42.84514" lon="1.83796">
        <ele>1761.295</ele>
        <time>2021-02-28T12:33:43Z</time>
      </trkpt>
      <trkpt lat="42.84515" lon="1.83799">
        <ele>1760.518</ele>
        <time>2021-02-28T12:33:45Z</time>
      </trkpt>
      <trkpt lat="42.84517" lon="1.83801">
        <ele>1759.704</ele>
        <time>2021-02-28T12:33:47Z</time>
      </trkpt>
      <trkpt lat="42.84518" lon="1.83803">
        <ele>1759.815</ele>
        <time>2021-02-28T12:33:49Z</time>
      </trkpt>
      <trkpt lat="42.8452" lon="1.83805">
        <ele>1759.551</ele>
        <time>2021-02-28T12:33:51Z</time>
      </trkpt>
      <trkpt lat="42.84522" lon="1.83806">
        <ele>1759.028</ele>
        <time>2021-02-28T12:33:53Z</time>
      </trkpt>
      <trkpt lat="42.84524" lon="1.83808">
        <ele>1759.065</ele>
        <time>2021-02-28T12:33:55Z</time>
      </trkpt>
      <trkpt lat="42.84526" lon="1.8381">
        <ele>1758.845</ele>
        <time>2021-02-28T12:33:57Z</time>
      </trkpt>
      <trkpt lat="42.84527" lon="1.83812">
        <ele>1758.473</ele>
        <time>2021-02-28T12:33:59Z</time>
      </trkpt>
      <trkpt lat="42.84529" lon="1.83815">
        <ele>1758.564</ele>
        <time>2021-02-28T12:34:01Z</time>
      </trkpt>
      <trkpt lat="42.8453" lon="1.83817">
        <ele>1758.303</ele>
        <time>2021-02-28T12:34:03Z</time>
      </trkpt>
      <trkpt lat="42.84532" lon="1.83819">
        <ele>1758.545</ele>
        <time>2021-02-28T12:34:05Z</time>
      </trkpt>
      <trkpt lat="42.84533" lon="1.83821">
        <ele>1758.686</ele>
        <time>2021-02-28T12:34:07Z</time>
      </trkpt>
      <trkpt lat="42.84534" lon="1.83821">
        <ele>1758.834</ele>
        <time>2021-02-28T12:34:09Z</time>
      </trkpt>
      <trkpt lat="42.84534" lon="1.83823">
        <ele>1758.936</ele>
        <time>2021-02-28T12:34:11Z</time>
      </trkpt>
      <trkpt lat="42.84536" lon="1.83825">
        <ele>1758.469</ele>
        <time>2021-02-28T12:34:13Z</time>
      </trkpt>
      <trkpt lat="42.84538" lon="1.83827">
        <ele>1758.147</ele>
        <time>2021-02-28T12:34:15Z</time>
      </trkpt>
      <trkpt lat="42.84539" lon="1.83828">
        <ele>1757.756</ele>
        <time>2021-02-28T12:34:17Z</time>
      </trkpt>
      <trkpt lat="42.84541" lon="1.8383">
        <ele>1757.265</ele>
        <time>2021-02-28T12:34:19Z</time>
      </trkpt>
      <trkpt lat="42.84543" lon="1.83832">
        <ele>1757.384</ele>
        <time>2021-02-28T12:34:21Z</time>
      </trkpt>
      <trkpt lat="42.84545" lon="1.83834">
        <ele>1757.758</ele>
        <time>2021-02-28T12:34:23Z</time>
      </trkpt>
      <trkpt lat="42.84546" lon="1.83838">
        <ele>1758.072</ele>
        <time>2021-02-28T12:34:25Z</time>
      </trkpt>
      <trkpt lat="42.84549" lon="1.83841">
        <ele>1758.876</ele>
        <time>2021-02-28T12:34:28Z</time>
      </trkpt>
      <trkpt lat="42.8455" lon="1.83844">
        <ele>1759.056</ele>
        <time>2021-02-28T12:34:30Z</time>
      </trkpt>
      <trkpt lat="42.84552" lon="1.83845">
        <ele>1758.434</ele>
        <time>2021-02-28T12:34:32Z</time>
      </trkpt>
      <trkpt lat="42.84554" lon="1.83847">
        <ele>1757.768</ele>
        <time>2021-02-28T12:34:34Z</time>
      </trkpt>
      <trkpt lat="42.84555" lon="1.83848">
        <ele>1757.664</ele>
        <time>2021-02-28T12:34:35Z</time>
      </trkpt>
      <trkpt lat="42.84558" lon="1.83851">
        <ele>1757.15</ele>
        <time>2021-02-28T12:34:38Z</time>
      </trkpt>
      <trkpt lat="42.8456" lon="1.83852">
        <ele>1756.666</ele>
        <time>2021-02-28T12:34:40Z</time>
      </trkpt>
      <trkpt lat="42.84561" lon="1.83855">
        <ele>1756.697</ele>
        <time>2021-02-28T12:34:42Z</time>
      </trkpt>
      <trkpt lat="42.84563" lon="1.83857">
        <ele>1756.697</ele>
        <time>2021-02-28T12:34:44Z</time>
      </trkpt>
      <trkpt lat="42.84565" lon="1.83859">
        <ele>1756.666</ele>
        <time>2021-02-28T12:34:46Z</time>
      </trkpt>
      <trkpt lat="42.84567" lon="1.8386">
        <ele>1756.217</ele>
        <time>2021-02-28T12:34:48Z</time>
      </trkpt>
      <trkpt lat="42.84569" lon="1.83861">
        <ele>1756.288</ele>
        <time>2021-02-28T12:34:50Z</time>
      </trkpt>
      <trkpt lat="42.84571" lon="1.83863">
        <ele>1756.531</ele>
        <time>2021-02-28T12:34:52Z</time>
      </trkpt>
      <trkpt lat="42.84573" lon="1.83864">
        <ele>1756.422</ele>
        <time>2021-02-28T12:34:54Z</time>
      </trkpt>
      <trkpt lat="42.84574" lon="1.83866">
        <ele>1755.845</ele>
        <time>2021-02-28T12:34:56Z</time>
      </trkpt>
      <trkpt lat="42.84576" lon="1.83868">
        <ele>1756.093</ele>
        <time>2021-02-28T12:34:58Z</time>
      </trkpt>
      <trkpt lat="42.84578" lon="1.8387">
        <ele>1756.208</ele>
        <time>2021-02-28T12:35:00Z</time>
      </trkpt>
      <trkpt lat="42.8458" lon="1.83871">
        <ele>1756.591</ele>
        <time>2021-02-28T12:35:02Z</time>
      </trkpt>
      <trkpt lat="42.84582" lon="1.8387">
        <ele>1756.847</ele>
        <time>2021-02-28T12:35:04Z</time>
      </trkpt>
      <trkpt lat="42.84584" lon="1.83871">
        <ele>1757.277</ele>
        <time>2021-02-28T12:35:06Z</time>
      </trkpt>
      <trkpt lat="42.84586" lon="1.83871">
        <ele>1757.371</ele>
        <time>2021-02-28T12:35:08Z</time>
      </trkpt>
      <trkpt lat="42.84587" lon="1.8387">
        <ele>1757.371</ele>
        <time>2021-02-28T12:35:10Z</time>
      </trkpt>
      <trkpt lat="42.84589" lon="1.83872">
        <ele>1757.331</ele>
        <time>2021-02-28T12:35:12Z</time>
      </trkpt>
      <trkpt lat="42.84592" lon="1.83872">
        <ele>1757.369</ele>
        <time>2021-02-28T12:35:14Z</time>
      </trkpt>
      <trkpt lat="42.84594" lon="1.83872">
        <ele>1757.944</ele>
        <time>2021-02-28T12:35:16Z</time>
      </trkpt>
      <trkpt lat="42.84596" lon="1.83872">
        <ele>1758.46</ele>
        <time>2021-02-28T12:35:18Z</time>
      </trkpt>
      <trkpt lat="42.84598" lon="1.83872">
        <ele>1759.2</ele>
        <time>2021-02-28T12:35:20Z</time>
      </trkpt>
      <trkpt lat="42.84601" lon="1.83873">
        <ele>1759.77</ele>
        <time>2021-02-28T12:35:22Z</time>
      </trkpt>
      <trkpt lat="42.84603" lon="1.83872">
        <ele>1760.344</ele>
        <time>2021-02-28T12:35:24Z</time>
      </trkpt>
      <trkpt lat="42.84605" lon="1.83871">
        <ele>1760.692</ele>
        <time>2021-02-28T12:35:26Z</time>
      </trkpt>
      <trkpt lat="42.84608" lon="1.8387">
        <ele>1760.298</ele>
        <time>2021-02-28T12:35:28Z</time>
      </trkpt>
      <trkpt lat="42.8461" lon="1.8387">
        <ele>1760.626</ele>
        <time>2021-02-28T12:35:30Z</time>
      </trkpt>
      <trkpt lat="42.84612" lon="1.83869">
        <ele>1760.298</ele>
        <time>2021-02-28T12:35:32Z</time>
      </trkpt>
      <trkpt lat="42.84614" lon="1.83869">
        <ele>1760.229</ele>
        <time>2021-02-28T12:35:34Z</time>
      </trkpt>
      <trkpt lat="42.84617" lon="1.83869">
        <ele>1759.709</ele>
        <time>2021-02-28T12:35:36Z</time>
      </trkpt>
      <trkpt lat="42.84619" lon="1.83869">
        <ele>1759.829</ele>
        <time>2021-02-28T12:35:38Z</time>
      </trkpt>
      <trkpt lat="42.84621" lon="1.83868">
        <ele>1759.197</ele>
        <time>2021-02-28T12:35:40Z</time>
      </trkpt>
      <trkpt lat="42.84623" lon="1.83868">
        <ele>1759.254</ele>
        <time>2021-02-28T12:35:42Z</time>
      </trkpt>
      <trkpt lat="42.84625" lon="1.83869">
        <ele>1759.889</ele>
        <time>2021-02-28T12:35:44Z</time>
      </trkpt>
      <trkpt lat="42.84627" lon="1.8387">
        <ele>1760.01</ele>
        <time>2021-02-28T12:35:46Z</time>
      </trkpt>
      <trkpt lat="42.84629" lon="1.8387">
        <ele>1759.959</ele>
        <time>2021-02-28T12:35:48Z</time>
      </trkpt>
      <trkpt lat="42.84631" lon="1.83871">
        <ele>1760.28</ele>
        <time>2021-02-28T12:35:50Z</time>
      </trkpt>
      <trkpt lat="42.84633" lon="1.83871">
        <ele>1760.584</ele>
        <time>2021-02-28T12:35:52Z</time>
      </trkpt>
      <trkpt lat="42.84635" lon="1.83872">
        <ele>1761.488</ele>
        <time>2021-02-28T12:35:54Z</time>
      </trkpt>
      <trkpt lat="42.84636" lon="1.83873">
        <ele>1761.673</ele>
        <time>2021-02-28T12:35:56Z</time>
      </trkpt>
      <trkpt lat="42.84638" lon="1.83874">
        <ele>1761.498</ele>
        <time>2021-02-28T12:35:58Z</time>
      </trkpt>
      <trkpt lat="42.84639" lon="1.83875">
        <ele>1761.642</ele>
        <time>2021-02-28T12:36:00Z</time>
      </trkpt>
      <trkpt lat="42.84639" lon="1.83877">
        <ele>1760.963</ele>
        <time>2021-02-28T12:36:02Z</time>
      </trkpt>
      <trkpt lat="42.84639" lon="1.8388">
        <ele>1760.649</ele>
        <time>2021-02-28T12:36:04Z</time>
      </trkpt>
      <trkpt lat="42.8464" lon="1.83882">
        <ele>1760.433</ele>
        <time>2021-02-28T12:36:06Z</time>
      </trkpt>
      <trkpt lat="42.84641" lon="1.83882">
        <ele>1760.257</ele>
        <time>2021-02-28T12:36:07Z</time>
      </trkpt>
      <trkpt lat="42.84641" lon="1.83884">
        <ele>1759.461</ele>
        <time>2021-02-28T12:36:10Z</time>
      </trkpt>
      <trkpt lat="42.84643" lon="1.83884">
        <ele>1759.627</ele>
        <time>2021-02-28T12:36:12Z</time>
      </trkpt>
      <trkpt lat="42.84643" lon="1.83884">
        <ele>1759.628</ele>
        <time>2021-02-28T12:36:14Z</time>
      </trkpt>
      <trkpt lat="42.84644" lon="1.83883">
        <ele>1759.485</ele>
        <time>2021-02-28T12:36:16Z</time>
      </trkpt>
      <trkpt lat="42.84646" lon="1.83884">
        <ele>1759.955</ele>
        <time>2021-02-28T12:36:18Z</time>
      </trkpt>
      <trkpt lat="42.84645" lon="1.83887">
        <ele>1758.558</ele>
        <time>2021-02-28T12:36:20Z</time>
      </trkpt>
      <trkpt lat="42.84646" lon="1.83888">
        <ele>1758.099</ele>
        <time>2021-02-28T12:36:22Z</time>
      </trkpt>
      <trkpt lat="42.84648" lon="1.83889">
        <ele>1757.443</ele>
        <time>2021-02-28T12:36:24Z</time>
      </trkpt>
      <trkpt lat="42.84649" lon="1.83891">
        <ele>1756.554</ele>
        <time>2021-02-28T12:36:26Z</time>
      </trkpt>
      <trkpt lat="42.84649" lon="1.83894">
        <ele>1756.627</ele>
        <time>2021-02-28T12:36:28Z</time>
      </trkpt>
      <trkpt lat="42.8465" lon="1.83896">
        <ele>1756.519</ele>
        <time>2021-02-28T12:36:30Z</time>
      </trkpt>
      <trkpt lat="42.8465" lon="1.83896">
        <ele>1756.895</ele>
        <time>2021-02-28T12:36:32Z</time>
      </trkpt>
      <trkpt lat="42.84651" lon="1.83897">
        <ele>1755.986</ele>
        <time>2021-02-28T12:36:34Z</time>
      </trkpt>
      <trkpt lat="42.84652" lon="1.83899">
        <ele>1755.522</ele>
        <time>2021-02-28T12:36:36Z</time>
      </trkpt>
      <trkpt lat="42.84653" lon="1.839">
        <ele>1754.434</ele>
        <time>2021-02-28T12:36:38Z</time>
      </trkpt>
      <trkpt lat="42.84654" lon="1.83902">
        <ele>1753.691</ele>
        <time>2021-02-28T12:36:40Z</time>
      </trkpt>
      <trkpt lat="42.84655" lon="1.83903">
        <ele>1752.896</ele>
        <time>2021-02-28T12:36:42Z</time>
      </trkpt>
      <trkpt lat="42.84655" lon="1.83904">
        <ele>1751.972</ele>
        <time>2021-02-28T12:36:44Z</time>
      </trkpt>
      <trkpt lat="42.84657" lon="1.83905">
        <ele>1751.679</ele>
        <time>2021-02-28T12:36:46Z</time>
      </trkpt>
      <trkpt lat="42.84658" lon="1.83903">
        <ele>1752.13</ele>
        <time>2021-02-28T12:36:48Z</time>
      </trkpt>
      <trkpt lat="42.84658" lon="1.83903">
        <ele>1752.353</ele>
        <time>2021-02-28T12:36:50Z</time>
      </trkpt>
      <trkpt lat="42.8466" lon="1.83905">
        <ele>1753.301</ele>
        <time>2021-02-28T12:36:52Z</time>
      </trkpt>
      <trkpt lat="42.8466" lon="1.83905">
        <ele>1752.195</ele>
        <time>2021-02-28T12:36:54Z</time>
      </trkpt>
      <trkpt lat="42.84661" lon="1.83907">
        <ele>1751.231</ele>
        <time>2021-02-28T12:36:56Z</time>
      </trkpt>
      <trkpt lat="42.84661" lon="1.83909">
        <ele>1750.642</ele>
        <time>2021-02-28T12:36:58Z</time>
      </trkpt>
      <trkpt lat="42.84661" lon="1.83911">
        <ele>1750.356</ele>
        <time>2021-02-28T12:37:00Z</time>
      </trkpt>
      <trkpt lat="42.84662" lon="1.83913">
        <ele>1749.42</ele>
        <time>2021-02-28T12:37:02Z</time>
      </trkpt>
      <trkpt lat="42.84663" lon="1.83914">
        <ele>1749.101</ele>
        <time>2021-02-28T12:37:04Z</time>
      </trkpt>
      <trkpt lat="42.84664" lon="1.83916">
        <ele>1748.524</ele>
        <time>2021-02-28T12:37:06Z</time>
      </trkpt>
      <trkpt lat="42.84665" lon="1.83918">
        <ele>1747.965</ele>
        <time>2021-02-28T12:37:08Z</time>
      </trkpt>
      <trkpt lat="42.84666" lon="1.83919">
        <ele>1748.057</ele>
        <time>2021-02-28T12:37:10Z</time>
      </trkpt>
      <trkpt lat="42.84668" lon="1.83921">
        <ele>1748.475</ele>
        <time>2021-02-28T12:37:12Z</time>
      </trkpt>
      <trkpt lat="42.84669" lon="1.83921">
        <ele>1748.984</ele>
        <time>2021-02-28T12:37:13Z</time>
      </trkpt>
      <trkpt lat="42.8467" lon="1.83922">
        <ele>1748.629</ele>
        <time>2021-02-28T12:37:16Z</time>
      </trkpt>
      <trkpt lat="42.84672" lon="1.83923">
        <ele>1749.477</ele>
        <time>2021-02-28T12:37:18Z</time>
      </trkpt>
      <trkpt lat="42.84673" lon="1.83923">
        <ele>1749.486</ele>
        <time>2021-02-28T12:37:20Z</time>
      </trkpt>
      <trkpt lat="42.84673" lon="1.83924">
        <ele>1749.225</ele>
        <time>2021-02-28T12:37:22Z</time>
      </trkpt>
      <trkpt lat="42.84674" lon="1.83926">
        <ele>1748.975</ele>
        <time>2021-02-28T12:37:24Z</time>
      </trkpt>
      <trkpt lat="42.84674" lon="1.83927">
        <ele>1748.824</ele>
        <time>2021-02-28T12:37:26Z</time>
      </trkpt>
      <trkpt lat="42.84675" lon="1.83928">
        <ele>1748.547</ele>
        <time>2021-02-28T12:37:28Z</time>
      </trkpt>
      <trkpt lat="42.84676" lon="1.83929">
        <ele>1747.012</ele>
        <time>2021-02-28T12:37:30Z</time>
      </trkpt>
      <trkpt lat="42.84677" lon="1.83929">
        <ele>1746.436</ele>
        <time>2021-02-28T12:37:32Z</time>
      </trkpt>
      <trkpt lat="42.84678" lon="1.83929">
        <ele>1745.417</ele>
        <time>2021-02-28T12:37:34Z</time>
      </trkpt>
      <trkpt lat="42.84679" lon="1.8393">
        <ele>1745.083</ele>
        <time>2021-02-28T12:37:36Z</time>
      </trkpt>
      <trkpt lat="42.84681" lon="1.8393">
        <ele>1744.772</ele>
        <time>2021-02-28T12:37:38Z</time>
      </trkpt>
      <trkpt lat="42.84683" lon="1.8393">
        <ele>1744.883</ele>
        <time>2021-02-28T12:37:40Z</time>
      </trkpt>
      <trkpt lat="42.84685" lon="1.8393">
        <ele>1743.928</ele>
        <time>2021-02-28T12:37:42Z</time>
      </trkpt>
      <trkpt lat="42.84686" lon="1.8393">
        <ele>1743.222</ele>
        <time>2021-02-28T12:37:44Z</time>
      </trkpt>
      <trkpt lat="42.84688" lon="1.8393">
        <ele>1743.059</ele>
        <time>2021-02-28T12:37:46Z</time>
      </trkpt>
      <trkpt lat="42.84689" lon="1.8393">
        <ele>1742.934</ele>
        <time>2021-02-28T12:37:48Z</time>
      </trkpt>
      <trkpt lat="42.84691" lon="1.83931">
        <ele>1742.448</ele>
        <time>2021-02-28T12:37:50Z</time>
      </trkpt>
      <trkpt lat="42.84693" lon="1.83931">
        <ele>1741.569</ele>
        <time>2021-02-28T12:37:52Z</time>
      </trkpt>
      <trkpt lat="42.84695" lon="1.83931">
        <ele>1741.21</ele>
        <time>2021-02-28T12:37:54Z</time>
      </trkpt>
      <trkpt lat="42.84696" lon="1.83932">
        <ele>1740.164</ele>
        <time>2021-02-28T12:37:56Z</time>
      </trkpt>
      <trkpt lat="42.84697" lon="1.83932">
        <ele>1739.391</ele>
        <time>2021-02-28T12:37:58Z</time>
      </trkpt>
      <trkpt lat="42.84699" lon="1.83933">
        <ele>1738.498</ele>
        <time>2021-02-28T12:38:00Z</time>
      </trkpt>
      <trkpt lat="42.84701" lon="1.83933">
        <ele>1738.737</ele>
        <time>2021-02-28T12:38:02Z</time>
      </trkpt>
      <trkpt lat="42.847" lon="1.83933">
        <ele>1738.055</ele>
        <time>2021-02-28T12:38:04Z</time>
      </trkpt>
      <trkpt lat="42.847" lon="1.83933">
        <ele>1738.041</ele>
        <time>2021-02-28T12:38:06Z</time>
      </trkpt>
      <trkpt lat="42.847" lon="1.83933">
        <ele>1738.031</ele>
        <time>2021-02-28T12:38:08Z</time>
      </trkpt>
      <trkpt lat="42.847" lon="1.83934">
        <ele>1737.145</ele>
        <time>2021-02-28T12:38:10Z</time>
      </trkpt>
      <trkpt lat="42.84701" lon="1.83934">
        <ele>1735.366</ele>
        <time>2021-02-28T12:38:12Z</time>
      </trkpt>
      <trkpt lat="42.84703" lon="1.83936">
        <ele>1734.893</ele>
        <time>2021-02-28T12:38:14Z</time>
      </trkpt>
      <trkpt lat="42.84705" lon="1.83938">
        <ele>1734.014</ele>
        <time>2021-02-28T12:38:16Z</time>
      </trkpt>
      <trkpt lat="42.84706" lon="1.83938">
        <ele>1733.21</ele>
        <time>2021-02-28T12:38:18Z</time>
      </trkpt>
      <trkpt lat="42.84709" lon="1.83939">
        <ele>1733.138</ele>
        <time>2021-02-28T12:38:20Z</time>
      </trkpt>
      <trkpt lat="42.84712" lon="1.83939">
        <ele>1731.702</ele>
        <time>2021-02-28T12:38:22Z</time>
      </trkpt>
      <trkpt lat="42.84714" lon="1.8394">
        <ele>1731.191</ele>
        <time>2021-02-28T12:38:24Z</time>
      </trkpt>
      <trkpt lat="42.84717" lon="1.83941">
        <ele>1730.766</ele>
        <time>2021-02-28T12:38:26Z</time>
      </trkpt>
      <trkpt lat="42.84719" lon="1.8394">
        <ele>1730.71</ele>
        <time>2021-02-28T12:38:28Z</time>
      </trkpt>
      <trkpt lat="42.84721" lon="1.83941">
        <ele>1730.081</ele>
        <time>2021-02-28T12:38:30Z</time>
      </trkpt>
      <trkpt lat="42.84722" lon="1.83942">
        <ele>1728.412</ele>
        <time>2021-02-28T12:38:32Z</time>
      </trkpt>
      <trkpt lat="42.84723" lon="1.83944">
        <ele>1727.72</ele>
        <time>2021-02-28T12:38:34Z</time>
      </trkpt>
      <trkpt lat="42.84725" lon="1.83946">
        <ele>1727.856</ele>
        <time>2021-02-28T12:38:36Z</time>
      </trkpt>
      <trkpt lat="42.84727" lon="1.83947">
        <ele>1727.653</ele>
        <time>2021-02-28T12:38:38Z</time>
      </trkpt>
      <trkpt lat="42.84728" lon="1.83949">
        <ele>1726.891</ele>
        <time>2021-02-28T12:38:40Z</time>
      </trkpt>
      <trkpt lat="42.84729" lon="1.83951">
        <ele>1726.421</ele>
        <time>2021-02-28T12:38:42Z</time>
      </trkpt>
      <trkpt lat="42.8473" lon="1.83953">
        <ele>1726.666</ele>
        <time>2021-02-28T12:38:44Z</time>
      </trkpt>
      <trkpt lat="42.8473" lon="1.83956">
        <ele>1726.103</ele>
        <time>2021-02-28T12:38:46Z</time>
      </trkpt>
      <trkpt lat="42.8473" lon="1.83958">
        <ele>1725.503</ele>
        <time>2021-02-28T12:38:48Z</time>
      </trkpt>
      <trkpt lat="42.84732" lon="1.83962">
        <ele>1725.776</ele>
        <time>2021-02-28T12:38:51Z</time>
      </trkpt>
      <trkpt lat="42.84734" lon="1.83964">
        <ele>1725.442</ele>
        <time>2021-02-28T12:38:53Z</time>
      </trkpt>
      <trkpt lat="42.84736" lon="1.83965">
        <ele>1725.649</ele>
        <time>2021-02-28T12:38:55Z</time>
      </trkpt>
      <trkpt lat="42.84737" lon="1.83965">
        <ele>1725.405</ele>
        <time>2021-02-28T12:38:57Z</time>
      </trkpt>
      <trkpt lat="42.84739" lon="1.83966">
        <ele>1724.061</ele>
        <time>2021-02-28T12:38:59Z</time>
      </trkpt>
      <trkpt lat="42.8474" lon="1.83967">
        <ele>1723.526</ele>
        <time>2021-02-28T12:39:01Z</time>
      </trkpt>
      <trkpt lat="42.84742" lon="1.83967">
        <ele>1722.912</ele>
        <time>2021-02-28T12:39:03Z</time>
      </trkpt>
      <trkpt lat="42.84745" lon="1.83966">
        <ele>1722.996</ele>
        <time>2021-02-28T12:39:05Z</time>
      </trkpt>
      <trkpt lat="42.84747" lon="1.83968">
        <ele>1722.679</ele>
        <time>2021-02-28T12:39:07Z</time>
      </trkpt>
      <trkpt lat="42.84749" lon="1.83969">
        <ele>1722.562</ele>
        <time>2021-02-28T12:39:09Z</time>
      </trkpt>
      <trkpt lat="42.84751" lon="1.83969">
        <ele>1722.282</ele>
        <time>2021-02-28T12:39:11Z</time>
      </trkpt>
      <trkpt lat="42.84753" lon="1.8397">
        <ele>1722.255</ele>
        <time>2021-02-28T12:39:13Z</time>
      </trkpt>
      <trkpt lat="42.84755" lon="1.83971">
        <ele>1722.108</ele>
        <time>2021-02-28T12:39:15Z</time>
      </trkpt>
      <trkpt lat="42.84757" lon="1.83973">
        <ele>1722.071</ele>
        <time>2021-02-28T12:39:17Z</time>
      </trkpt>
      <trkpt lat="42.84758" lon="1.83974">
        <ele>1721.323</ele>
        <time>2021-02-28T12:39:19Z</time>
      </trkpt>
      <trkpt lat="42.84757" lon="1.83975">
        <ele>1720.995</ele>
        <time>2021-02-28T12:39:21Z</time>
      </trkpt>
      <trkpt lat="42.84758" lon="1.83976">
        <ele>1719.993</ele>
        <time>2021-02-28T12:39:23Z</time>
      </trkpt>
      <trkpt lat="42.8476" lon="1.83977">
        <ele>1719.11</ele>
        <time>2021-02-28T12:39:25Z</time>
      </trkpt>
      <trkpt lat="42.84761" lon="1.83978">
        <ele>1717.674</ele>
        <time>2021-02-28T12:39:27Z</time>
      </trkpt>
      <trkpt lat="42.84763" lon="1.83979">
        <ele>1716.601</ele>
        <time>2021-02-28T12:39:29Z</time>
      </trkpt>
      <trkpt lat="42.84764" lon="1.8398">
        <ele>1716.485</ele>
        <time>2021-02-28T12:39:31Z</time>
      </trkpt>
      <trkpt lat="42.84766" lon="1.83982">
        <ele>1716.627</ele>
        <time>2021-02-28T12:39:33Z</time>
      </trkpt>
      <trkpt lat="42.84768" lon="1.83983">
        <ele>1716.227</ele>
        <time>2021-02-28T12:39:35Z</time>
      </trkpt>
      <trkpt lat="42.8477" lon="1.83984">
        <ele>1716.031</ele>
        <time>2021-02-28T12:39:37Z</time>
      </trkpt>
      <trkpt lat="42.84773" lon="1.83985">
        <ele>1716.078</ele>
        <time>2021-02-28T12:39:39Z</time>
      </trkpt>
      <trkpt lat="42.84775" lon="1.83987">
        <ele>1716.22</ele>
        <time>2021-02-28T12:39:41Z</time>
      </trkpt>
      <trkpt lat="42.84777" lon="1.83988">
        <ele>1716.148</ele>
        <time>2021-02-28T12:39:43Z</time>
      </trkpt>
      <trkpt lat="42.84779" lon="1.8399">
        <ele>1716.279</ele>
        <time>2021-02-28T12:39:45Z</time>
      </trkpt>
      <trkpt lat="42.8478" lon="1.83992">
        <ele>1715.984</ele>
        <time>2021-02-28T12:39:47Z</time>
      </trkpt>
      <trkpt lat="42.84781" lon="1.83994">
        <ele>1715.522</ele>
        <time>2021-02-28T12:39:49Z</time>
      </trkpt>
      <trkpt lat="42.84782" lon="1.83996">
        <ele>1715.721</ele>
        <time>2021-02-28T12:39:51Z</time>
      </trkpt>
      <trkpt lat="42.84783" lon="1.83998">
        <ele>1715.912</ele>
        <time>2021-02-28T12:39:53Z</time>
      </trkpt>
      <trkpt lat="42.84785" lon="1.83999">
        <ele>1715.388</ele>
        <time>2021-02-28T12:39:55Z</time>
      </trkpt>
      <trkpt lat="42.84787" lon="1.84">
        <ele>1715.075</ele>
        <time>2021-02-28T12:39:57Z</time>
      </trkpt>
      <trkpt lat="42.84787" lon="1.84002">
        <ele>1714.243</ele>
        <time>2021-02-28T12:39:59Z</time>
      </trkpt>
      <trkpt lat="42.84788" lon="1.84004">
        <ele>1713.525</ele>
        <time>2021-02-28T12:40:01Z</time>
      </trkpt>
      <trkpt lat="42.84788" lon="1.84005">
        <ele>1713.471</ele>
        <time>2021-02-28T12:40:03Z</time>
      </trkpt>
      <trkpt lat="42.84789" lon="1.84006">
        <ele>1713.288</ele>
        <time>2021-02-28T12:40:05Z</time>
      </trkpt>
      <trkpt lat="42.84791" lon="1.84007">
        <ele>1713.239</ele>
        <time>2021-02-28T12:40:07Z</time>
      </trkpt>
      <trkpt lat="42.84792" lon="1.84009">
        <ele>1712.238</ele>
        <time>2021-02-28T12:40:09Z</time>
      </trkpt>
      <trkpt lat="42.84793" lon="1.84011">
        <ele>1711.583</ele>
        <time>2021-02-28T12:40:11Z</time>
      </trkpt>
      <trkpt lat="42.84794" lon="1.84013">
        <ele>1711.342</ele>
        <time>2021-02-28T12:40:13Z</time>
      </trkpt>
      <trkpt lat="42.84796" lon="1.84014">
        <ele>1711.727</ele>
        <time>2021-02-28T12:40:15Z</time>
      </trkpt>
      <trkpt lat="42.84797" lon="1.84015">
        <ele>1712.38</ele>
        <time>2021-02-28T12:40:17Z</time>
      </trkpt>
      <trkpt lat="42.84798" lon="1.84016">
        <ele>1711.417</ele>
        <time>2021-02-28T12:40:19Z</time>
      </trkpt>
      <trkpt lat="42.84799" lon="1.84016">
        <ele>1710.792</ele>
        <time>2021-02-28T12:40:21Z</time>
      </trkpt>
      <trkpt lat="42.84801" lon="1.84016">
        <ele>1710.414</ele>
        <time>2021-02-28T12:40:23Z</time>
      </trkpt>
      <trkpt lat="42.84803" lon="1.84018">
        <ele>1710.178</ele>
        <time>2021-02-28T12:40:25Z</time>
      </trkpt>
      <trkpt lat="42.84804" lon="1.84019">
        <ele>1710.005</ele>
        <time>2021-02-28T12:40:27Z</time>
      </trkpt>
      <trkpt lat="42.84804" lon="1.84019">
        <ele>1708.748</ele>
        <time>2021-02-28T12:40:29Z</time>
      </trkpt>
      <trkpt lat="42.84805" lon="1.84019">
        <ele>1709.382</ele>
        <time>2021-02-28T12:40:31Z</time>
      </trkpt>
      <trkpt lat="42.84806" lon="1.84018">
        <ele>1709.551</ele>
        <time>2021-02-28T12:40:33Z</time>
      </trkpt>
      <trkpt lat="42.84808" lon="1.84019">
        <ele>1709.63</ele>
        <time>2021-02-28T12:40:35Z</time>
      </trkpt>
      <trkpt lat="42.84809" lon="1.84021">
        <ele>1709.932</ele>
        <time>2021-02-28T12:40:37Z</time>
      </trkpt>
      <trkpt lat="42.8481" lon="1.84022">
        <ele>1709.519</ele>
        <time>2021-02-28T12:40:39Z</time>
      </trkpt>
      <trkpt lat="42.84812" lon="1.84024">
        <ele>1710.117</ele>
        <time>2021-02-28T12:40:41Z</time>
      </trkpt>
      <trkpt lat="42.84814" lon="1.84024">
        <ele>1710.308</ele>
        <time>2021-02-28T12:40:43Z</time>
      </trkpt>
      <trkpt lat="42.84816" lon="1.84025">
        <ele>1710.243</ele>
        <time>2021-02-28T12:40:45Z</time>
      </trkpt>
      <trkpt lat="42.84818" lon="1.84025">
        <ele>1710.402</ele>
        <time>2021-02-28T12:40:47Z</time>
      </trkpt>
      <trkpt lat="42.8482" lon="1.84026">
        <ele>1710.768</ele>
        <time>2021-02-28T12:40:49Z</time>
      </trkpt>
      <trkpt lat="42.84822" lon="1.84028">
        <ele>1710.443</ele>
        <time>2021-02-28T12:40:52Z</time>
      </trkpt>
      <trkpt lat="42.84823" lon="1.8403">
        <ele>1709.868</ele>
        <time>2021-02-28T12:40:54Z</time>
      </trkpt>
      <trkpt lat="42.84825" lon="1.84032">
        <ele>1710.366</ele>
        <time>2021-02-28T12:40:56Z</time>
      </trkpt>
      <trkpt lat="42.84826" lon="1.84033">
        <ele>1710.057</ele>
        <time>2021-02-28T12:40:58Z</time>
      </trkpt>
      <trkpt lat="42.84828" lon="1.84035">
        <ele>1709.942</ele>
        <time>2021-02-28T12:41:00Z</time>
      </trkpt>
      <trkpt lat="42.8483" lon="1.84036">
        <ele>1709.731</ele>
        <time>2021-02-28T12:41:02Z</time>
      </trkpt>
      <trkpt lat="42.84832" lon="1.84036">
        <ele>1709.964</ele>
        <time>2021-02-28T12:41:04Z</time>
      </trkpt>
      <trkpt lat="42.84834" lon="1.84036">
        <ele>1710.63</ele>
        <time>2021-02-28T12:41:06Z</time>
      </trkpt>
      <trkpt lat="42.84835" lon="1.84038">
        <ele>1710.772</ele>
        <time>2021-02-28T12:41:08Z</time>
      </trkpt>
      <trkpt lat="42.84837" lon="1.8404">
        <ele>1710.359</ele>
        <time>2021-02-28T12:41:10Z</time>
      </trkpt>
      <trkpt lat="42.84838" lon="1.84041">
        <ele>1709.509</ele>
        <time>2021-02-28T12:41:12Z</time>
      </trkpt>
      <trkpt lat="42.8484" lon="1.84042">
        <ele>1708.804</ele>
        <time>2021-02-28T12:41:14Z</time>
      </trkpt>
      <trkpt lat="42.84841" lon="1.84043">
        <ele>1708.866</ele>
        <time>2021-02-28T12:41:16Z</time>
      </trkpt>
      <trkpt lat="42.84843" lon="1.84044">
        <ele>1709.336</ele>
        <time>2021-02-28T12:41:18Z</time>
      </trkpt>
      <trkpt lat="42.84844" lon="1.84043">
        <ele>1709.417</ele>
        <time>2021-02-28T12:41:20Z</time>
      </trkpt>
      <trkpt lat="42.84845" lon="1.84044">
        <ele>1709.315</ele>
        <time>2021-02-28T12:41:22Z</time>
      </trkpt>
      <trkpt lat="42.84845" lon="1.84044">
        <ele>1709.922</ele>
        <time>2021-02-28T12:41:24Z</time>
      </trkpt>
      <trkpt lat="42.84845" lon="1.84044">
        <ele>1709.545</ele>
        <time>2021-02-28T12:41:27Z</time>
      </trkpt>
      <trkpt lat="42.84845" lon="1.84044">
        <ele>1709.308</ele>
        <time>2021-02-28T12:41:29Z</time>
      </trkpt>
      <trkpt lat="42.84845" lon="1.84044">
        <ele>1709.311</ele>
        <time>2021-02-28T12:41:31Z</time>
      </trkpt>
      <trkpt lat="42.84846" lon="1.84044">
        <ele>1709.197</ele>
        <time>2021-02-28T12:41:33Z</time>
      </trkpt>
      <trkpt lat="42.84847" lon="1.84044">
        <ele>1709.177</ele>
        <time>2021-02-28T12:41:35Z</time>
      </trkpt>
      <trkpt lat="42.84847" lon="1.84044">
        <ele>1709.052</ele>
        <time>2021-02-28T12:41:37Z</time>
      </trkpt>
      <trkpt lat="42.84848" lon="1.84044">
        <ele>1708.776</ele>
        <time>2021-02-28T12:41:39Z</time>
      </trkpt>
      <trkpt lat="42.84849" lon="1.84045">
        <ele>1708.924</ele>
        <time>2021-02-28T12:41:41Z</time>
      </trkpt>
      <trkpt lat="42.84849" lon="1.84045">
        <ele>1708.773</ele>
        <time>2021-02-28T12:41:43Z</time>
      </trkpt>
      <trkpt lat="42.8485" lon="1.84045">
        <ele>1708.746</ele>
        <time>2021-02-28T12:41:45Z</time>
      </trkpt>
      <trkpt lat="42.84851" lon="1.84046">
        <ele>1709.713</ele>
        <time>2021-02-28T12:41:47Z</time>
      </trkpt>
      <trkpt lat="42.84852" lon="1.84047">
        <ele>1709.13</ele>
        <time>2021-02-28T12:41:49Z</time>
      </trkpt>
      <trkpt lat="42.84854" lon="1.84046">
        <ele>1708.901</ele>
        <time>2021-02-28T12:41:51Z</time>
      </trkpt>
      <trkpt lat="42.84855" lon="1.84046">
        <ele>1709.137</ele>
        <time>2021-02-28T12:41:53Z</time>
      </trkpt>
      <trkpt lat="42.84855" lon="1.84046">
        <ele>1709.118</ele>
        <time>2021-02-28T12:41:55Z</time>
      </trkpt>
      <trkpt lat="42.84857" lon="1.84045">
        <ele>1709.631</ele>
        <time>2021-02-28T12:41:57Z</time>
      </trkpt>
      <trkpt lat="42.84858" lon="1.84045">
        <ele>1708.985</ele>
        <time>2021-02-28T12:41:59Z</time>
      </trkpt>
      <trkpt lat="42.84859" lon="1.84045">
        <ele>1708.416</ele>
        <time>2021-02-28T12:42:01Z</time>
      </trkpt>
      <trkpt lat="42.8486" lon="1.84047">
        <ele>1708.262</ele>
        <time>2021-02-28T12:42:03Z</time>
      </trkpt>
      <trkpt lat="42.8486" lon="1.84047">
        <ele>1707.885</ele>
        <time>2021-02-28T12:42:05Z</time>
      </trkpt>
      <trkpt lat="42.84861" lon="1.84048">
        <ele>1706.957</ele>
        <time>2021-02-28T12:42:07Z</time>
      </trkpt>
      <trkpt lat="42.8486" lon="1.8405">
        <ele>1706.054</ele>
        <time>2021-02-28T12:42:09Z</time>
      </trkpt>
      <trkpt lat="42.8486" lon="1.84052">
        <ele>1705.261</ele>
        <time>2021-02-28T12:42:11Z</time>
      </trkpt>
      <trkpt lat="42.8486" lon="1.84054">
        <ele>1705.133</ele>
        <time>2021-02-28T12:42:13Z</time>
      </trkpt>
      <trkpt lat="42.8486" lon="1.84055">
        <ele>1704.298</ele>
        <time>2021-02-28T12:42:15Z</time>
      </trkpt>
      <trkpt lat="42.84861" lon="1.84057">
        <ele>1704.175</ele>
        <time>2021-02-28T12:42:17Z</time>
      </trkpt>
      <trkpt lat="42.8486" lon="1.84059">
        <ele>1703.94</ele>
        <time>2021-02-28T12:42:19Z</time>
      </trkpt>
      <trkpt lat="42.8486" lon="1.8406">
        <ele>1703.934</ele>
        <time>2021-02-28T12:42:21Z</time>
      </trkpt>
      <trkpt lat="42.84861" lon="1.84061">
        <ele>1703.863</ele>
        <time>2021-02-28T12:42:24Z</time>
      </trkpt>
      <trkpt lat="42.84862" lon="1.84062">
        <ele>1703.742</ele>
        <time>2021-02-28T12:42:26Z</time>
      </trkpt>
      <trkpt lat="42.84861" lon="1.84064">
        <ele>1702.58</ele>
        <time>2021-02-28T12:42:28Z</time>
      </trkpt>
      <trkpt lat="42.8486" lon="1.84066">
        <ele>1702.019</ele>
        <time>2021-02-28T12:42:30Z</time>
      </trkpt>
      <trkpt lat="42.8486" lon="1.84067">
        <ele>1702.338</ele>
        <time>2021-02-28T12:42:32Z</time>
      </trkpt>
      <trkpt lat="42.8486" lon="1.84066">
        <ele>1702.337</ele>
        <time>2021-02-28T12:42:34Z</time>
      </trkpt>
      <trkpt lat="42.84862" lon="1.84068">
        <ele>1702.004</ele>
        <time>2021-02-28T12:42:36Z</time>
      </trkpt>
      <trkpt lat="42.84861" lon="1.84066">
        <ele>1701.653</ele>
        <time>2021-02-28T12:42:38Z</time>
      </trkpt>
      <trkpt lat="42.8486" lon="1.84066">
        <ele>1701.598</ele>
        <time>2021-02-28T12:42:40Z</time>
      </trkpt>
      <trkpt lat="42.84861" lon="1.84066">
        <ele>1701.243</ele>
        <time>2021-02-28T12:42:42Z</time>
      </trkpt>
      <trkpt lat="42.84861" lon="1.84067">
        <ele>1700.765</ele>
        <time>2021-02-28T12:42:44Z</time>
      </trkpt>
      <trkpt lat="42.84862" lon="1.84069">
        <ele>1700.029</ele>
        <time>2021-02-28T12:42:46Z</time>
      </trkpt>
      <trkpt lat="42.84862" lon="1.84069">
        <ele>1700.002</ele>
        <time>2021-02-28T12:42:48Z</time>
      </trkpt>
      <trkpt lat="42.84863" lon="1.84071">
        <ele>1700.036</ele>
        <time>2021-02-28T12:42:50Z</time>
      </trkpt>
      <trkpt lat="42.84864" lon="1.84071">
        <ele>1700.007</ele>
        <time>2021-02-28T12:42:52Z</time>
      </trkpt>
      <trkpt lat="42.84866" lon="1.84072">
        <ele>1699.712</ele>
        <time>2021-02-28T12:42:54Z</time>
      </trkpt>
      <trkpt lat="42.84868" lon="1.84071">
        <ele>1699.585</ele>
        <time>2021-02-28T12:42:56Z</time>
      </trkpt>
      <trkpt lat="42.84869" lon="1.84071">
        <ele>1699.644</ele>
        <time>2021-02-28T12:42:58Z</time>
      </trkpt>
      <trkpt lat="42.84871" lon="1.8407">
        <ele>1698.434</ele>
        <time>2021-02-28T12:43:00Z</time>
      </trkpt>
      <trkpt lat="42.84872" lon="1.84071">
        <ele>1697.472</ele>
        <time>2021-02-28T12:43:02Z</time>
      </trkpt>
      <trkpt lat="42.84872" lon="1.84071">
        <ele>1697.503</ele>
        <time>2021-02-28T12:43:04Z</time>
      </trkpt>
      <trkpt lat="42.84873" lon="1.84071">
        <ele>1697.345</ele>
        <time>2021-02-28T12:43:05Z</time>
      </trkpt>
      <trkpt lat="42.84874" lon="1.84069">
        <ele>1696.976</ele>
        <time>2021-02-28T12:43:08Z</time>
      </trkpt>
      <trkpt lat="42.84875" lon="1.84069">
        <ele>1696.73</ele>
        <time>2021-02-28T12:43:10Z</time>
      </trkpt>
      <trkpt lat="42.84876" lon="1.8407">
        <ele>1696.834</ele>
        <time>2021-02-28T12:43:12Z</time>
      </trkpt>
      <trkpt lat="42.84878" lon="1.8407">
        <ele>1696.857</ele>
        <time>2021-02-28T12:43:14Z</time>
      </trkpt>
      <trkpt lat="42.84879" lon="1.84071">
        <ele>1695.934</ele>
        <time>2021-02-28T12:43:16Z</time>
      </trkpt>
      <trkpt lat="42.8488" lon="1.84073">
        <ele>1695.812</ele>
        <time>2021-02-28T12:43:18Z</time>
      </trkpt>
      <trkpt lat="42.84882" lon="1.84074">
        <ele>1695.998</ele>
        <time>2021-02-28T12:43:20Z</time>
      </trkpt>
      <trkpt lat="42.84883" lon="1.84075">
        <ele>1695.446</ele>
        <time>2021-02-28T12:43:22Z</time>
      </trkpt>
      <trkpt lat="42.84884" lon="1.84076">
        <ele>1695.389</ele>
        <time>2021-02-28T12:43:24Z</time>
      </trkpt>
      <trkpt lat="42.84886" lon="1.84076">
        <ele>1694.894</ele>
        <time>2021-02-28T12:43:26Z</time>
      </trkpt>
      <trkpt lat="42.84888" lon="1.84076">
        <ele>1694.534</ele>
        <time>2021-02-28T12:43:28Z</time>
      </trkpt>
      <trkpt lat="42.84889" lon="1.84076">
        <ele>1694.098</ele>
        <time>2021-02-28T12:43:30Z</time>
      </trkpt>
      <trkpt lat="42.8489" lon="1.84077">
        <ele>1693.558</ele>
        <time>2021-02-28T12:43:32Z</time>
      </trkpt>
      <trkpt lat="42.8489" lon="1.84078">
        <ele>1693.356</ele>
        <time>2021-02-28T12:43:34Z</time>
      </trkpt>
      <trkpt lat="42.84889" lon="1.84078">
        <ele>1693.435</ele>
        <time>2021-02-28T12:43:36Z</time>
      </trkpt>
      <trkpt lat="42.84889" lon="1.84078">
        <ele>1693.485</ele>
        <time>2021-02-28T12:43:38Z</time>
      </trkpt>
      <trkpt lat="42.84889" lon="1.84078">
        <ele>1693.482</ele>
        <time>2021-02-28T12:43:40Z</time>
      </trkpt>
      <trkpt lat="42.84889" lon="1.84079">
        <ele>1693.521</ele>
        <time>2021-02-28T12:43:42Z</time>
      </trkpt>
      <trkpt lat="42.84889" lon="1.84081">
        <ele>1694.077</ele>
        <time>2021-02-28T12:43:44Z</time>
      </trkpt>
      <trkpt lat="42.84889" lon="1.84082">
        <ele>1692.688</ele>
        <time>2021-02-28T12:43:46Z</time>
      </trkpt>
      <trkpt lat="42.84888" lon="1.84084">
        <ele>1691.644</ele>
        <time>2021-02-28T12:43:48Z</time>
      </trkpt>
      <trkpt lat="42.84887" lon="1.84084">
        <ele>1690.964</ele>
        <time>2021-02-28T12:43:50Z</time>
      </trkpt>
      <trkpt lat="42.84887" lon="1.84086">
        <ele>1690.425</ele>
        <time>2021-02-28T12:43:52Z</time>
      </trkpt>
      <trkpt lat="42.84886" lon="1.84087">
        <ele>1690.071</ele>
        <time>2021-02-28T12:43:54Z</time>
      </trkpt>
      <trkpt lat="42.84886" lon="1.84087">
        <ele>1690.07</ele>
        <time>2021-02-28T12:43:56Z</time>
      </trkpt>
      <trkpt lat="42.84885" lon="1.84089">
        <ele>1689.688</ele>
        <time>2021-02-28T12:43:58Z</time>
      </trkpt>
      <trkpt lat="42.84884" lon="1.8409">
        <ele>1690.316</ele>
        <time>2021-02-28T12:44:00Z</time>
      </trkpt>
      <trkpt lat="42.84883" lon="1.84091">
        <ele>1690.378</ele>
        <time>2021-02-28T12:44:02Z</time>
      </trkpt>
      <trkpt lat="42.84883" lon="1.84093">
        <ele>1690.209</ele>
        <time>2021-02-28T12:44:04Z</time>
      </trkpt>
      <trkpt lat="42.84884" lon="1.84093">
        <ele>1689.878</ele>
        <time>2021-02-28T12:44:06Z</time>
      </trkpt>
      <trkpt lat="42.84884" lon="1.84096">
        <ele>1689.261</ele>
        <time>2021-02-28T12:44:08Z</time>
      </trkpt>
      <trkpt lat="42.84885" lon="1.84097">
        <ele>1688.605</ele>
        <time>2021-02-28T12:44:10Z</time>
      </trkpt>
      <trkpt lat="42.84886" lon="1.84098">
        <ele>1687.591</ele>
        <time>2021-02-28T12:44:12Z</time>
      </trkpt>
      <trkpt lat="42.84887" lon="1.84098">
        <ele>1687.38</ele>
        <time>2021-02-28T12:44:14Z</time>
      </trkpt>
      <trkpt lat="42.84888" lon="1.84098">
        <ele>1687.62</ele>
        <time>2021-02-28T12:44:16Z</time>
      </trkpt>
      <trkpt lat="42.84889" lon="1.84097">
        <ele>1687.265</ele>
        <time>2021-02-28T12:44:18Z</time>
      </trkpt>
      <trkpt lat="42.8489" lon="1.84097">
        <ele>1687.627</ele>
        <time>2021-02-28T12:44:20Z</time>
      </trkpt>
      <trkpt lat="42.8489" lon="1.84097">
        <ele>1687.441</ele>
        <time>2021-02-28T12:44:22Z</time>
      </trkpt>
      <trkpt lat="42.84892" lon="1.84097">
        <ele>1687.679</ele>
        <time>2021-02-28T12:44:24Z</time>
      </trkpt>
      <trkpt lat="42.84892" lon="1.84098">
        <ele>1688.015</ele>
        <time>2021-02-28T12:44:26Z</time>
      </trkpt>
      <trkpt lat="42.84892" lon="1.84098">
        <ele>1688.013</ele>
        <time>2021-02-28T12:44:28Z</time>
      </trkpt>
      <trkpt lat="42.84892" lon="1.84098">
        <ele>1688.017</ele>
        <time>2021-02-28T12:44:30Z</time>
      </trkpt>
      <trkpt lat="42.84892" lon="1.84098">
        <ele>1687.626</ele>
        <time>2021-02-28T12:44:32Z</time>
      </trkpt>
      <trkpt lat="42.84894" lon="1.841">
        <ele>1688.252</ele>
        <time>2021-02-28T12:44:34Z</time>
      </trkpt>
      <trkpt lat="42.84894" lon="1.841">
        <ele>1688.252</ele>
        <time>2021-02-28T12:44:36Z</time>
      </trkpt>
      <trkpt lat="42.84894" lon="1.841">
        <ele>1688.242</ele>
        <time>2021-02-28T12:44:38Z</time>
      </trkpt>
      <trkpt lat="42.84895" lon="1.841">
        <ele>1688.234</ele>
        <time>2021-02-28T12:44:40Z</time>
      </trkpt>
      <trkpt lat="42.84895" lon="1.841">
        <ele>1688.226</ele>
        <time>2021-02-28T12:44:42Z</time>
      </trkpt>
      <trkpt lat="42.84895" lon="1.841">
        <ele>1687.268</ele>
        <time>2021-02-28T12:44:44Z</time>
      </trkpt>
      <trkpt lat="42.84895" lon="1.84099">
        <ele>1686.63</ele>
        <time>2021-02-28T12:44:46Z</time>
      </trkpt>
      <trkpt lat="42.84896" lon="1.84099">
        <ele>1686.024</ele>
        <time>2021-02-28T12:44:48Z</time>
      </trkpt>
      <trkpt lat="42.84895" lon="1.84099">
        <ele>1685.314</ele>
        <time>2021-02-28T12:44:50Z</time>
      </trkpt>
      <trkpt lat="42.84895" lon="1.84098">
        <ele>1685.64</ele>
        <time>2021-02-28T12:44:52Z</time>
      </trkpt>
      <trkpt lat="42.84897" lon="1.841">
        <ele>1685.848</ele>
        <time>2021-02-28T12:44:54Z</time>
      </trkpt>
      <trkpt lat="42.84898" lon="1.84101">
        <ele>1686.161</ele>
        <time>2021-02-28T12:44:56Z</time>
      </trkpt>
      <trkpt lat="42.84898" lon="1.84101">
        <ele>1686.261</ele>
        <time>2021-02-28T12:44:58Z</time>
      </trkpt>
      <trkpt lat="42.84898" lon="1.84101">
        <ele>1686.259</ele>
        <time>2021-02-28T12:45:00Z</time>
      </trkpt>
      <trkpt lat="42.84898" lon="1.841">
        <ele>1685.985</ele>
        <time>2021-02-28T12:45:02Z</time>
      </trkpt>
      <trkpt lat="42.84898" lon="1.841">
        <ele>1685.61</ele>
        <time>2021-02-28T12:45:04Z</time>
      </trkpt>
      <trkpt lat="42.84898" lon="1.84099">
        <ele>1685.258</ele>
        <time>2021-02-28T12:45:06Z</time>
      </trkpt>
      <trkpt lat="42.84899" lon="1.84099">
        <ele>1684.643</ele>
        <time>2021-02-28T12:45:08Z</time>
      </trkpt>
      <trkpt lat="42.849" lon="1.84098">
        <ele>1684.864</ele>
        <time>2021-02-28T12:45:10Z</time>
      </trkpt>
      <trkpt lat="42.84901" lon="1.84098">
        <ele>1684.229</ele>
        <time>2021-02-28T12:45:12Z</time>
      </trkpt>
      <trkpt lat="42.84902" lon="1.84098">
        <ele>1683.919</ele>
        <time>2021-02-28T12:45:14Z</time>
      </trkpt>
      <trkpt lat="42.84904" lon="1.84097">
        <ele>1684.866</ele>
        <time>2021-02-28T12:45:16Z</time>
      </trkpt>
      <trkpt lat="42.84906" lon="1.84097">
        <ele>1685.068</ele>
        <time>2021-02-28T12:45:18Z</time>
      </trkpt>
      <trkpt lat="42.84908" lon="1.84096">
        <ele>1685.472</ele>
        <time>2021-02-28T12:45:20Z</time>
      </trkpt>
      <trkpt lat="42.84909" lon="1.84095">
        <ele>1684.506</ele>
        <time>2021-02-28T12:45:22Z</time>
      </trkpt>
      <trkpt lat="42.8491" lon="1.84093">
        <ele>1685.072</ele>
        <time>2021-02-28T12:45:24Z</time>
      </trkpt>
      <trkpt lat="42.84911" lon="1.84093">
        <ele>1684.614</ele>
        <time>2021-02-28T12:45:26Z</time>
      </trkpt>
      <trkpt lat="42.84912" lon="1.84093">
        <ele>1683.432</ele>
        <time>2021-02-28T12:45:28Z</time>
      </trkpt>
      <trkpt lat="42.84913" lon="1.84092">
        <ele>1682.363</ele>
        <time>2021-02-28T12:45:30Z</time>
      </trkpt>
      <trkpt lat="42.84913" lon="1.8409">
        <ele>1681.57</ele>
        <time>2021-02-28T12:45:32Z</time>
      </trkpt>
      <trkpt lat="42.84914" lon="1.84089">
        <ele>1681.086</ele>
        <time>2021-02-28T12:45:34Z</time>
      </trkpt>
      <trkpt lat="42.84915" lon="1.84089">
        <ele>1681.34</ele>
        <time>2021-02-28T12:45:36Z</time>
      </trkpt>
      <trkpt lat="42.84916" lon="1.8409">
        <ele>1681.279</ele>
        <time>2021-02-28T12:45:38Z</time>
      </trkpt>
      <trkpt lat="42.84916" lon="1.84089">
        <ele>1680.608</ele>
        <time>2021-02-28T12:45:40Z</time>
      </trkpt>
      <trkpt lat="42.84916" lon="1.84089">
        <ele>1680.601</ele>
        <time>2021-02-28T12:45:42Z</time>
      </trkpt>
      <trkpt lat="42.84916" lon="1.84089">
        <ele>1679.343</ele>
        <time>2021-02-28T12:45:44Z</time>
      </trkpt>
      <trkpt lat="42.84917" lon="1.84089">
        <ele>1679.052</ele>
        <time>2021-02-28T12:45:46Z</time>
      </trkpt>
      <trkpt lat="42.84918" lon="1.84089">
        <ele>1678.747</ele>
        <time>2021-02-28T12:45:48Z</time>
      </trkpt>
      <trkpt lat="42.84918" lon="1.8409">
        <ele>1678.395</ele>
        <time>2021-02-28T12:45:50Z</time>
      </trkpt>
      <trkpt lat="42.84918" lon="1.8409">
        <ele>1678.4</ele>
        <time>2021-02-28T12:45:52Z</time>
      </trkpt>
      <trkpt lat="42.84917" lon="1.8409">
        <ele>1677.8</ele>
        <time>2021-02-28T12:45:54Z</time>
      </trkpt>
      <trkpt lat="42.84917" lon="1.8409">
        <ele>1677.785</ele>
        <time>2021-02-28T12:45:56Z</time>
      </trkpt>
      <trkpt lat="42.84918" lon="1.8409">
        <ele>1677.403</ele>
        <time>2021-02-28T12:45:58Z</time>
      </trkpt>
      <trkpt lat="42.84918" lon="1.8409">
        <ele>1677.386</ele>
        <time>2021-02-28T12:46:00Z</time>
      </trkpt>
      <trkpt lat="42.84918" lon="1.8409">
        <ele>1677.374</ele>
        <time>2021-02-28T12:46:02Z</time>
      </trkpt>
      <trkpt lat="42.84918" lon="1.8409">
        <ele>1677.365</ele>
        <time>2021-02-28T12:46:04Z</time>
      </trkpt>
      <trkpt lat="42.84918" lon="1.8409">
        <ele>1677.357</ele>
        <time>2021-02-28T12:46:06Z</time>
      </trkpt>
      <trkpt lat="42.84919" lon="1.8409">
        <ele>1676.157</ele>
        <time>2021-02-28T12:46:08Z</time>
      </trkpt>
      <trkpt lat="42.8492" lon="1.8409">
        <ele>1675.702</ele>
        <time>2021-02-28T12:46:10Z</time>
      </trkpt>
      <trkpt lat="42.84921" lon="1.84091">
        <ele>1676.227</ele>
        <time>2021-02-28T12:46:12Z</time>
      </trkpt>
      <trkpt lat="42.84922" lon="1.8409">
        <ele>1675.964</ele>
        <time>2021-02-28T12:46:14Z</time>
      </trkpt>
      <trkpt lat="42.84923" lon="1.84089">
        <ele>1675.586</ele>
        <time>2021-02-28T12:46:16Z</time>
      </trkpt>
      <trkpt lat="42.84923" lon="1.84087">
        <ele>1674.778</ele>
        <time>2021-02-28T12:46:18Z</time>
      </trkpt>
      <trkpt lat="42.84924" lon="1.84086">
        <ele>1674.437</ele>
        <time>2021-02-28T12:46:20Z</time>
      </trkpt>
      <trkpt lat="42.84925" lon="1.84084">
        <ele>1673.548</ele>
        <time>2021-02-28T12:46:22Z</time>
      </trkpt>
      <trkpt lat="42.84926" lon="1.84083">
        <ele>1672.202</ele>
        <time>2021-02-28T12:46:24Z</time>
      </trkpt>
      <trkpt lat="42.84927" lon="1.84081">
        <ele>1671.606</ele>
        <time>2021-02-28T12:46:26Z</time>
      </trkpt>
      <trkpt lat="42.84928" lon="1.84079">
        <ele>1670.919</ele>
        <time>2021-02-28T12:46:28Z</time>
      </trkpt>
      <trkpt lat="42.84929" lon="1.84077">
        <ele>1670.518</ele>
        <time>2021-02-28T12:46:30Z</time>
      </trkpt>
      <trkpt lat="42.84929" lon="1.84074">
        <ele>1669.556</ele>
        <time>2021-02-28T12:46:32Z</time>
      </trkpt>
      <trkpt lat="42.84929" lon="1.84074">
        <ele>1668.716</ele>
        <time>2021-02-28T12:46:34Z</time>
      </trkpt>
      <trkpt lat="42.8493" lon="1.84073">
        <ele>1668.536</ele>
        <time>2021-02-28T12:46:36Z</time>
      </trkpt>
      <trkpt lat="42.84931" lon="1.84072">
        <ele>1668.57</ele>
        <time>2021-02-28T12:46:38Z</time>
      </trkpt>
      <trkpt lat="42.84933" lon="1.84072">
        <ele>1669.698</ele>
        <time>2021-02-28T12:46:40Z</time>
      </trkpt>
      <trkpt lat="42.84935" lon="1.84072">
        <ele>1669.15</ele>
        <time>2021-02-28T12:46:42Z</time>
      </trkpt>
      <trkpt lat="42.84937" lon="1.84073">
        <ele>1668.907</ele>
        <time>2021-02-28T12:46:44Z</time>
      </trkpt>
      <trkpt lat="42.84938" lon="1.84074">
        <ele>1667.772</ele>
        <time>2021-02-28T12:46:46Z</time>
      </trkpt>
      <trkpt lat="42.8494" lon="1.84074">
        <ele>1667.89</ele>
        <time>2021-02-28T12:46:48Z</time>
      </trkpt>
      <trkpt lat="42.84941" lon="1.84075">
        <ele>1666.74</ele>
        <time>2021-02-28T12:46:50Z</time>
      </trkpt>
      <trkpt lat="42.84941" lon="1.84077">
        <ele>1665.842</ele>
        <time>2021-02-28T12:46:52Z</time>
      </trkpt>
      <trkpt lat="42.8494" lon="1.8408">
        <ele>1665.527</ele>
        <time>2021-02-28T12:46:54Z</time>
      </trkpt>
      <trkpt lat="42.8494" lon="1.84082">
        <ele>1664.96</ele>
        <time>2021-02-28T12:46:56Z</time>
      </trkpt>
      <trkpt lat="42.84939" lon="1.84084">
        <ele>1664.247</ele>
        <time>2021-02-28T12:46:58Z</time>
      </trkpt>
      <trkpt lat="42.8494" lon="1.84085">
        <ele>1663.75</ele>
        <time>2021-02-28T12:47:00Z</time>
      </trkpt>
      <trkpt lat="42.84941" lon="1.84086">
        <ele>1662.88</ele>
        <time>2021-02-28T12:47:02Z</time>
      </trkpt>
      <trkpt lat="42.84943" lon="1.84086">
        <ele>1661.761</ele>
        <time>2021-02-28T12:47:04Z</time>
      </trkpt>
      <trkpt lat="42.84945" lon="1.84087">
        <ele>1661.457</ele>
        <time>2021-02-28T12:47:06Z</time>
      </trkpt>
      <trkpt lat="42.84946" lon="1.84087">
        <ele>1660.843</ele>
        <time>2021-02-28T12:47:08Z</time>
      </trkpt>
      <trkpt lat="42.84947" lon="1.84089">
        <ele>1660.305</ele>
        <time>2021-02-28T12:47:10Z</time>
      </trkpt>
      <trkpt lat="42.84948" lon="1.8409">
        <ele>1659.903</ele>
        <time>2021-02-28T12:47:12Z</time>
      </trkpt>
      <trkpt lat="42.84948" lon="1.8409">
        <ele>1660.084</ele>
        <time>2021-02-28T12:47:14Z</time>
      </trkpt>
      <trkpt lat="42.84948" lon="1.84092">
        <ele>1659.889</ele>
        <time>2021-02-28T12:47:16Z</time>
      </trkpt>
      <trkpt lat="42.84949" lon="1.84094">
        <ele>1660.415</ele>
        <time>2021-02-28T12:47:18Z</time>
      </trkpt>
      <trkpt lat="42.8495" lon="1.84093">
        <ele>1659.576</ele>
        <time>2021-02-28T12:47:20Z</time>
      </trkpt>
      <trkpt lat="42.84952" lon="1.84092">
        <ele>1658.394</ele>
        <time>2021-02-28T12:47:22Z</time>
      </trkpt>
      <trkpt lat="42.84953" lon="1.84089">
        <ele>1658.375</ele>
        <time>2021-02-28T12:47:24Z</time>
      </trkpt>
      <trkpt lat="42.84954" lon="1.84092">
        <ele>1658.175</ele>
        <time>2021-02-28T12:47:26Z</time>
      </trkpt>
      <trkpt lat="42.84957" lon="1.84092">
        <ele>1657.666</ele>
        <time>2021-02-28T12:47:28Z</time>
      </trkpt>
      <trkpt lat="42.84959" lon="1.84092">
        <ele>1657.929</ele>
        <time>2021-02-28T12:47:30Z</time>
      </trkpt>
      <trkpt lat="42.84961" lon="1.84091">
        <ele>1657.203</ele>
        <time>2021-02-28T12:47:32Z</time>
      </trkpt>
      <trkpt lat="42.84963" lon="1.84091">
        <ele>1658.288</ele>
        <time>2021-02-28T12:47:34Z</time>
      </trkpt>
      <trkpt lat="42.84965" lon="1.84092">
        <ele>1658.814</ele>
        <time>2021-02-28T12:47:36Z</time>
      </trkpt>
      <trkpt lat="42.84967" lon="1.84091">
        <ele>1658.877</ele>
        <time>2021-02-28T12:47:38Z</time>
      </trkpt>
      <trkpt lat="42.84968" lon="1.8409">
        <ele>1658.851</ele>
        <time>2021-02-28T12:47:40Z</time>
      </trkpt>
      <trkpt lat="42.84969" lon="1.84092">
        <ele>1658.126</ele>
        <time>2021-02-28T12:47:42Z</time>
      </trkpt>
      <trkpt lat="42.84971" lon="1.84091">
        <ele>1657.655</ele>
        <time>2021-02-28T12:47:44Z</time>
      </trkpt>
      <trkpt lat="42.84972" lon="1.84089">
        <ele>1657.851</ele>
        <time>2021-02-28T12:47:46Z</time>
      </trkpt>
      <trkpt lat="42.84974" lon="1.84089">
        <ele>1658.517</ele>
        <time>2021-02-28T12:47:48Z</time>
      </trkpt>
      <trkpt lat="42.84977" lon="1.84089">
        <ele>1658.834</ele>
        <time>2021-02-28T12:47:50Z</time>
      </trkpt>
      <trkpt lat="42.84978" lon="1.8409">
        <ele>1657.675</ele>
        <time>2021-02-28T12:47:52Z</time>
      </trkpt>
      <trkpt lat="42.84979" lon="1.84092">
        <ele>1657.985</ele>
        <time>2021-02-28T12:47:54Z</time>
      </trkpt>
      <trkpt lat="42.84979" lon="1.84093">
        <ele>1657.83</ele>
        <time>2021-02-28T12:47:56Z</time>
      </trkpt>
      <trkpt lat="42.8498" lon="1.84095">
        <ele>1658.064</ele>
        <time>2021-02-28T12:47:58Z</time>
      </trkpt>
      <trkpt lat="42.84981" lon="1.84096">
        <ele>1658.179</ele>
        <time>2021-02-28T12:48:00Z</time>
      </trkpt>
      <trkpt lat="42.84982" lon="1.84097">
        <ele>1657.213</ele>
        <time>2021-02-28T12:48:02Z</time>
      </trkpt>
      <trkpt lat="42.84983" lon="1.84098">
        <ele>1657.244</ele>
        <time>2021-02-28T12:48:04Z</time>
      </trkpt>
      <trkpt lat="42.84985" lon="1.84098">
        <ele>1656.644</ele>
        <time>2021-02-28T12:48:06Z</time>
      </trkpt>
      <trkpt lat="42.84986" lon="1.84098">
        <ele>1655.726</ele>
        <time>2021-02-28T12:48:08Z</time>
      </trkpt>
      <trkpt lat="42.84986" lon="1.84098">
        <ele>1654.499</ele>
        <time>2021-02-28T12:48:10Z</time>
      </trkpt>
      <trkpt lat="42.84987" lon="1.84098">
        <ele>1655.054</ele>
        <time>2021-02-28T12:48:12Z</time>
      </trkpt>
      <trkpt lat="42.84989" lon="1.841">
        <ele>1654.658</ele>
        <time>2021-02-28T12:48:14Z</time>
      </trkpt>
      <trkpt lat="42.84989" lon="1.84101">
        <ele>1654.281</ele>
        <time>2021-02-28T12:48:16Z</time>
      </trkpt>
      <trkpt lat="42.8499" lon="1.84102">
        <ele>1653.651</ele>
        <time>2021-02-28T12:48:18Z</time>
      </trkpt>
      <trkpt lat="42.84991" lon="1.84102">
        <ele>1653.699</ele>
        <time>2021-02-28T12:48:20Z</time>
      </trkpt>
      <trkpt lat="42.84991" lon="1.84103">
        <ele>1653.599</ele>
        <time>2021-02-28T12:48:22Z</time>
      </trkpt>
      <trkpt lat="42.84991" lon="1.84103">
        <ele>1653.631</ele>
        <time>2021-02-28T12:48:24Z</time>
      </trkpt>
      <trkpt lat="42.84991" lon="1.84103">
        <ele>1653.616</ele>
        <time>2021-02-28T12:48:26Z</time>
      </trkpt>
      <trkpt lat="42.84991" lon="1.84103">
        <ele>1653.428</ele>
        <time>2021-02-28T12:48:28Z</time>
      </trkpt>
      <trkpt lat="42.84992" lon="1.84102">
        <ele>1653.235</ele>
        <time>2021-02-28T12:48:30Z</time>
      </trkpt>
      <trkpt lat="42.84993" lon="1.84102">
        <ele>1653.418</ele>
        <time>2021-02-28T12:48:32Z</time>
      </trkpt>
      <trkpt lat="42.84994" lon="1.84103">
        <ele>1652.737</ele>
        <time>2021-02-28T12:48:34Z</time>
      </trkpt>
      <trkpt lat="42.84995" lon="1.84103">
        <ele>1652.482</ele>
        <time>2021-02-28T12:48:36Z</time>
      </trkpt>
      <trkpt lat="42.84996" lon="1.84103">
        <ele>1651.762</ele>
        <time>2021-02-28T12:48:38Z</time>
      </trkpt>
      <trkpt lat="42.84997" lon="1.84102">
        <ele>1650.908</ele>
        <time>2021-02-28T12:48:40Z</time>
      </trkpt>
      <trkpt lat="42.84998" lon="1.84102">
        <ele>1649.826</ele>
        <time>2021-02-28T12:48:42Z</time>
      </trkpt>
      <trkpt lat="42.84999" lon="1.84102">
        <ele>1649.745</ele>
        <time>2021-02-28T12:48:44Z</time>
      </trkpt>
      <trkpt lat="42.84999" lon="1.84103">
        <ele>1647.94</ele>
        <time>2021-02-28T12:48:46Z</time>
      </trkpt>
      <trkpt lat="42.84999" lon="1.84104">
        <ele>1647.291</ele>
        <time>2021-02-28T12:48:48Z</time>
      </trkpt>
      <trkpt lat="42.84999" lon="1.84105">
        <ele>1646.443</ele>
        <time>2021-02-28T12:48:50Z</time>
      </trkpt>
      <trkpt lat="42.84999" lon="1.84107">
        <ele>1646.12</ele>
        <time>2021-02-28T12:48:52Z</time>
      </trkpt>
      <trkpt lat="42.84999" lon="1.84108">
        <ele>1645.13</ele>
        <time>2021-02-28T12:48:54Z</time>
      </trkpt>
      <trkpt lat="42.84998" lon="1.84107">
        <ele>1644.803</ele>
        <time>2021-02-28T12:48:56Z</time>
      </trkpt>
      <trkpt lat="42.84998" lon="1.84107">
        <ele>1644.825</ele>
        <time>2021-02-28T12:48:58Z</time>
      </trkpt>
      <trkpt lat="42.84998" lon="1.84107">
        <ele>1644.502</ele>
        <time>2021-02-28T12:49:00Z</time>
      </trkpt>
      <trkpt lat="42.84998" lon="1.84106">
        <ele>1643.561</ele>
        <time>2021-02-28T12:49:02Z</time>
      </trkpt>
      <trkpt lat="42.84998" lon="1.84107">
        <ele>1642.495</ele>
        <time>2021-02-28T12:49:04Z</time>
      </trkpt>
      <trkpt lat="42.84997" lon="1.84107">
        <ele>1641.852</ele>
        <time>2021-02-28T12:49:06Z</time>
      </trkpt>
      <trkpt lat="42.84998" lon="1.84108">
        <ele>1641.303</ele>
        <time>2021-02-28T12:49:08Z</time>
      </trkpt>
      <trkpt lat="42.85001" lon="1.8411">
        <ele>1640.057</ele>
        <time>2021-02-28T12:49:10Z</time>
      </trkpt>
      <trkpt lat="42.85002" lon="1.84112">
        <ele>1639.122</ele>
        <time>2021-02-28T12:49:12Z</time>
      </trkpt>
      <trkpt lat="42.85004" lon="1.84112">
        <ele>1638.147</ele>
        <time>2021-02-28T12:49:14Z</time>
      </trkpt>
      <trkpt lat="42.85005" lon="1.84111">
        <ele>1637.805</ele>
        <time>2021-02-28T12:49:16Z</time>
      </trkpt>
      <trkpt lat="42.85006" lon="1.84111">
        <ele>1636.779</ele>
        <time>2021-02-28T12:49:18Z</time>
      </trkpt>
      <trkpt lat="42.85007" lon="1.84112">
        <ele>1636.655</ele>
        <time>2021-02-28T12:49:20Z</time>
      </trkpt>
      <trkpt lat="42.85008" lon="1.84112">
        <ele>1635.453</ele>
        <time>2021-02-28T12:49:22Z</time>
      </trkpt>
      <trkpt lat="42.8501" lon="1.84112">
        <ele>1635.024</ele>
        <time>2021-02-28T12:49:24Z</time>
      </trkpt>
      <trkpt lat="42.85011" lon="1.84113">
        <ele>1633.755</ele>
        <time>2021-02-28T12:49:26Z</time>
      </trkpt>
      <trkpt lat="42.85012" lon="1.84115">
        <ele>1633.388</ele>
        <time>2021-02-28T12:49:28Z</time>
      </trkpt>
      <trkpt lat="42.85013" lon="1.84115">
        <ele>1632.71</ele>
        <time>2021-02-28T12:49:30Z</time>
      </trkpt>
      <trkpt lat="42.85015" lon="1.84115">
        <ele>1631.623</ele>
        <time>2021-02-28T12:49:32Z</time>
      </trkpt>
      <trkpt lat="42.85017" lon="1.84115">
        <ele>1631.153</ele>
        <time>2021-02-28T12:49:34Z</time>
      </trkpt>
      <trkpt lat="42.85019" lon="1.84114">
        <ele>1630.346</ele>
        <time>2021-02-28T12:49:36Z</time>
      </trkpt>
      <trkpt lat="42.85021" lon="1.84114">
        <ele>1629.47</ele>
        <time>2021-02-28T12:49:38Z</time>
      </trkpt>
      <trkpt lat="42.85023" lon="1.84114">
        <ele>1629.04</ele>
        <time>2021-02-28T12:49:40Z</time>
      </trkpt>
      <trkpt lat="42.85025" lon="1.84115">
        <ele>1628.184</ele>
        <time>2021-02-28T12:49:42Z</time>
      </trkpt>
      <trkpt lat="42.85027" lon="1.84115">
        <ele>1627.295</ele>
        <time>2021-02-28T12:49:44Z</time>
      </trkpt>
      <trkpt lat="42.85029" lon="1.84115">
        <ele>1626.619</ele>
        <time>2021-02-28T12:49:46Z</time>
      </trkpt>
      <trkpt lat="42.8503" lon="1.84115">
        <ele>1626.533</ele>
        <time>2021-02-28T12:49:48Z</time>
      </trkpt>
      <trkpt lat="42.85032" lon="1.84115">
        <ele>1625.582</ele>
        <time>2021-02-28T12:49:50Z</time>
      </trkpt>
      <trkpt lat="42.85034" lon="1.84115">
        <ele>1624.916</ele>
        <time>2021-02-28T12:49:52Z</time>
      </trkpt>
      <trkpt lat="42.85036" lon="1.84115">
        <ele>1624.286</ele>
        <time>2021-02-28T12:49:54Z</time>
      </trkpt>
      <trkpt lat="42.85037" lon="1.84114">
        <ele>1624.221</ele>
        <time>2021-02-28T12:49:56Z</time>
      </trkpt>
      <trkpt lat="42.85037" lon="1.84112">
        <ele>1623.874</ele>
        <time>2021-02-28T12:49:58Z</time>
      </trkpt>
      <trkpt lat="42.85039" lon="1.84111">
        <ele>1623.933</ele>
        <time>2021-02-28T12:50:01Z</time>
      </trkpt>
      <trkpt lat="42.8504" lon="1.8411">
        <ele>1623.158</ele>
        <time>2021-02-28T12:50:03Z</time>
      </trkpt>
      <trkpt lat="42.8504" lon="1.84109">
        <ele>1622.031</ele>
        <time>2021-02-28T12:50:05Z</time>
      </trkpt>
      <trkpt lat="42.85042" lon="1.84109">
        <ele>1621.664</ele>
        <time>2021-02-28T12:50:07Z</time>
      </trkpt>
      <trkpt lat="42.85044" lon="1.84109">
        <ele>1621.193</ele>
        <time>2021-02-28T12:50:09Z</time>
      </trkpt>
      <trkpt lat="42.85046" lon="1.84108">
        <ele>1620.322</ele>
        <time>2021-02-28T12:50:11Z</time>
      </trkpt>
      <trkpt lat="42.85048" lon="1.84105">
        <ele>1621.369</ele>
        <time>2021-02-28T12:50:13Z</time>
      </trkpt>
      <trkpt lat="42.85047" lon="1.84104">
        <ele>1621.292</ele>
        <time>2021-02-28T12:50:15Z</time>
      </trkpt>
      <trkpt lat="42.85047" lon="1.84105">
        <ele>1621.29</ele>
        <time>2021-02-28T12:50:17Z</time>
      </trkpt>
      <trkpt lat="42.85047" lon="1.84105">
        <ele>1621.29</ele>
        <time>2021-02-28T12:50:19Z</time>
      </trkpt>
      <trkpt lat="42.85048" lon="1.84105">
        <ele>1621.245</ele>
        <time>2021-02-28T12:50:21Z</time>
      </trkpt>
      <trkpt lat="42.85048" lon="1.84105">
        <ele>1621.235</ele>
        <time>2021-02-28T12:50:23Z</time>
      </trkpt>
      <trkpt lat="42.85048" lon="1.84105">
        <ele>1621.232</ele>
        <time>2021-02-28T12:50:25Z</time>
      </trkpt>
      <trkpt lat="42.85048" lon="1.84105">
        <ele>1621.229</ele>
        <time>2021-02-28T12:50:27Z</time>
      </trkpt>
      <trkpt lat="42.85049" lon="1.84105">
        <ele>1620.366</ele>
        <time>2021-02-28T12:50:29Z</time>
      </trkpt>
      <trkpt lat="42.8505" lon="1.84107">
        <ele>1619.534</ele>
        <time>2021-02-28T12:50:31Z</time>
      </trkpt>
      <trkpt lat="42.85051" lon="1.84107">
        <ele>1619.633</ele>
        <time>2021-02-28T12:50:32Z</time>
      </trkpt>
      <trkpt lat="42.85053" lon="1.84108">
        <ele>1619.142</ele>
        <time>2021-02-28T12:50:35Z</time>
      </trkpt>
      <trkpt lat="42.85054" lon="1.8411">
        <ele>1618.111</ele>
        <time>2021-02-28T12:50:37Z</time>
      </trkpt>
      <trkpt lat="42.85055" lon="1.8411">
        <ele>1618.216</ele>
        <time>2021-02-28T12:50:39Z</time>
      </trkpt>
      <trkpt lat="42.85057" lon="1.84109">
        <ele>1617.153</ele>
        <time>2021-02-28T12:50:41Z</time>
      </trkpt>
      <trkpt lat="42.85059" lon="1.84109">
        <ele>1616.47</ele>
        <time>2021-02-28T12:50:43Z</time>
      </trkpt>
      <trkpt lat="42.8506" lon="1.8411">
        <ele>1616.067</ele>
        <time>2021-02-28T12:50:45Z</time>
      </trkpt>
      <trkpt lat="42.85062" lon="1.8411">
        <ele>1615.028</ele>
        <time>2021-02-28T12:50:47Z</time>
      </trkpt>
      <trkpt lat="42.85063" lon="1.84109">
        <ele>1614.832</ele>
        <time>2021-02-28T12:50:49Z</time>
      </trkpt>
      <trkpt lat="42.85065" lon="1.84109">
        <ele>1613.935</ele>
        <time>2021-02-28T12:50:51Z</time>
      </trkpt>
      <trkpt lat="42.85066" lon="1.84111">
        <ele>1612.686</ele>
        <time>2021-02-28T12:50:53Z</time>
      </trkpt>
      <trkpt lat="42.85067" lon="1.8411">
        <ele>1612.339</ele>
        <time>2021-02-28T12:50:55Z</time>
      </trkpt>
      <trkpt lat="42.85069" lon="1.84109">
        <ele>1611.963</ele>
        <time>2021-02-28T12:50:57Z</time>
      </trkpt>
      <trkpt lat="42.8507" lon="1.8411">
        <ele>1610.521</ele>
        <time>2021-02-28T12:50:59Z</time>
      </trkpt>
      <trkpt lat="42.85072" lon="1.84111">
        <ele>1608.971</ele>
        <time>2021-02-28T12:51:01Z</time>
      </trkpt>
      <trkpt lat="42.85074" lon="1.84112">
        <ele>1608.365</ele>
        <time>2021-02-28T12:51:03Z</time>
      </trkpt>
      <trkpt lat="42.85076" lon="1.84113">
        <ele>1607.796</ele>
        <time>2021-02-28T12:51:05Z</time>
      </trkpt>
      <trkpt lat="42.85077" lon="1.84114">
        <ele>1607.402</ele>
        <time>2021-02-28T12:51:07Z</time>
      </trkpt>
      <trkpt lat="42.85079" lon="1.84115">
        <ele>1607.1</ele>
        <time>2021-02-28T12:51:09Z</time>
      </trkpt>
      <trkpt lat="42.85081" lon="1.84116">
        <ele>1606.761</ele>
        <time>2021-02-28T12:51:11Z</time>
      </trkpt>
      <trkpt lat="42.85083" lon="1.84115">
        <ele>1606.132</ele>
        <time>2021-02-28T12:51:13Z</time>
      </trkpt>
      <trkpt lat="42.85085" lon="1.84114">
        <ele>1606.193</ele>
        <time>2021-02-28T12:51:15Z</time>
      </trkpt>
      <trkpt lat="42.85086" lon="1.84113">
        <ele>1605.839</ele>
        <time>2021-02-28T12:51:17Z</time>
      </trkpt>
      <trkpt lat="42.85088" lon="1.84113">
        <ele>1605.188</ele>
        <time>2021-02-28T12:51:19Z</time>
      </trkpt>
      <trkpt lat="42.8509" lon="1.84113">
        <ele>1605.003</ele>
        <time>2021-02-28T12:51:21Z</time>
      </trkpt>
      <trkpt lat="42.85091" lon="1.84113">
        <ele>1604.68</ele>
        <time>2021-02-28T12:51:23Z</time>
      </trkpt>
      <trkpt lat="42.85092" lon="1.84112">
        <ele>1604.754</ele>
        <time>2021-02-28T12:51:25Z</time>
      </trkpt>
      <trkpt lat="42.85092" lon="1.84112">
        <ele>1604.611</ele>
        <time>2021-02-28T12:51:27Z</time>
      </trkpt>
      <trkpt lat="42.85093" lon="1.8411">
        <ele>1603.881</ele>
        <time>2021-02-28T12:51:29Z</time>
      </trkpt>
      <trkpt lat="42.85094" lon="1.8411">
        <ele>1602.443</ele>
        <time>2021-02-28T12:51:31Z</time>
      </trkpt>
      <trkpt lat="42.85096" lon="1.84111">
        <ele>1601.867</ele>
        <time>2021-02-28T12:51:33Z</time>
      </trkpt>
      <trkpt lat="42.85097" lon="1.84109">
        <ele>1601.637</ele>
        <time>2021-02-28T12:51:35Z</time>
      </trkpt>
      <trkpt lat="42.85098" lon="1.84107">
        <ele>1600.755</ele>
        <time>2021-02-28T12:51:37Z</time>
      </trkpt>
      <trkpt lat="42.85099" lon="1.84106">
        <ele>1600.407</ele>
        <time>2021-02-28T12:51:39Z</time>
      </trkpt>
      <trkpt lat="42.851" lon="1.84105">
        <ele>1599.809</ele>
        <time>2021-02-28T12:51:41Z</time>
      </trkpt>
      <trkpt lat="42.85102" lon="1.84104">
        <ele>1599.279</ele>
        <time>2021-02-28T12:51:43Z</time>
      </trkpt>
      <trkpt lat="42.85104" lon="1.84104">
        <ele>1598.713</ele>
        <time>2021-02-28T12:51:45Z</time>
      </trkpt>
      <trkpt lat="42.85105" lon="1.84103">
        <ele>1598.82</ele>
        <time>2021-02-28T12:51:47Z</time>
      </trkpt>
      <trkpt lat="42.85107" lon="1.84102">
        <ele>1597.913</ele>
        <time>2021-02-28T12:51:49Z</time>
      </trkpt>
      <trkpt lat="42.85108" lon="1.841">
        <ele>1596.761</ele>
        <time>2021-02-28T12:51:51Z</time>
      </trkpt>
      <trkpt lat="42.8511" lon="1.84099">
        <ele>1596.387</ele>
        <time>2021-02-28T12:51:53Z</time>
      </trkpt>
      <trkpt lat="42.85112" lon="1.84096">
        <ele>1595.961</ele>
        <time>2021-02-28T12:51:55Z</time>
      </trkpt>
      <trkpt lat="42.85114" lon="1.84095">
        <ele>1595.192</ele>
        <time>2021-02-28T12:51:57Z</time>
      </trkpt>
      <trkpt lat="42.85116" lon="1.84093">
        <ele>1594.364</ele>
        <time>2021-02-28T12:51:59Z</time>
      </trkpt>
      <trkpt lat="42.85117" lon="1.84092">
        <ele>1593.416</ele>
        <time>2021-02-28T12:52:01Z</time>
      </trkpt>
      <trkpt lat="42.85118" lon="1.8409">
        <ele>1592.577</ele>
        <time>2021-02-28T12:52:03Z</time>
      </trkpt>
      <trkpt lat="42.8512" lon="1.8409">
        <ele>1592.665</ele>
        <time>2021-02-28T12:52:05Z</time>
      </trkpt>
      <trkpt lat="42.85121" lon="1.84091">
        <ele>1591.429</ele>
        <time>2021-02-28T12:52:07Z</time>
      </trkpt>
      <trkpt lat="42.85122" lon="1.84091">
        <ele>1591.179</ele>
        <time>2021-02-28T12:52:09Z</time>
      </trkpt>
      <trkpt lat="42.85123" lon="1.8409">
        <ele>1590.442</ele>
        <time>2021-02-28T12:52:11Z</time>
      </trkpt>
      <trkpt lat="42.85124" lon="1.84089">
        <ele>1589.981</ele>
        <time>2021-02-28T12:52:13Z</time>
      </trkpt>
      <trkpt lat="42.85126" lon="1.84089">
        <ele>1589.509</ele>
        <time>2021-02-28T12:52:15Z</time>
      </trkpt>
      <trkpt lat="42.85127" lon="1.84088">
        <ele>1588.493</ele>
        <time>2021-02-28T12:52:17Z</time>
      </trkpt>
      <trkpt lat="42.85129" lon="1.84088">
        <ele>1588.072</ele>
        <time>2021-02-28T12:52:19Z</time>
      </trkpt>
      <trkpt lat="42.85131" lon="1.8409">
        <ele>1587.292</ele>
        <time>2021-02-28T12:52:21Z</time>
      </trkpt>
      <trkpt lat="42.85132" lon="1.84088">
        <ele>1586.369</ele>
        <time>2021-02-28T12:52:23Z</time>
      </trkpt>
      <trkpt lat="42.85134" lon="1.84088">
        <ele>1585.231</ele>
        <time>2021-02-28T12:52:25Z</time>
      </trkpt>
      <trkpt lat="42.85135" lon="1.84088">
        <ele>1584.217</ele>
        <time>2021-02-28T12:52:27Z</time>
      </trkpt>
      <trkpt lat="42.85136" lon="1.84087">
        <ele>1583.348</ele>
        <time>2021-02-28T12:52:29Z</time>
      </trkpt>
      <trkpt lat="42.85136" lon="1.84085">
        <ele>1582.045</ele>
        <time>2021-02-28T12:52:31Z</time>
      </trkpt>
      <trkpt lat="42.85137" lon="1.84083">
        <ele>1581.123</ele>
        <time>2021-02-28T12:52:33Z</time>
      </trkpt>
      <trkpt lat="42.85137" lon="1.84082">
        <ele>1581.536</ele>
        <time>2021-02-28T12:52:35Z</time>
      </trkpt>
      <trkpt lat="42.85138" lon="1.8408">
        <ele>1580.37</ele>
        <time>2021-02-28T12:52:37Z</time>
      </trkpt>
      <trkpt lat="42.85139" lon="1.84078">
        <ele>1579.474</ele>
        <time>2021-02-28T12:52:39Z</time>
      </trkpt>
      <trkpt lat="42.8514" lon="1.84076">
        <ele>1579.969</ele>
        <time>2021-02-28T12:52:41Z</time>
      </trkpt>
      <trkpt lat="42.85139" lon="1.84075">
        <ele>1579.356</ele>
        <time>2021-02-28T12:52:43Z</time>
      </trkpt>
      <trkpt lat="42.85138" lon="1.84075">
        <ele>1579.464</ele>
        <time>2021-02-28T12:52:45Z</time>
      </trkpt>
      <trkpt lat="42.85136" lon="1.84075">
        <ele>1579.254</ele>
        <time>2021-02-28T12:52:47Z</time>
      </trkpt>
      <trkpt lat="42.85134" lon="1.84073">
        <ele>1578.783</ele>
        <time>2021-02-28T12:52:49Z</time>
      </trkpt>
      <trkpt lat="42.85133" lon="1.84072">
        <ele>1578.463</ele>
        <time>2021-02-28T12:52:51Z</time>
      </trkpt>
      <trkpt lat="42.85133" lon="1.84069">
        <ele>1577.765</ele>
        <time>2021-02-28T12:52:53Z</time>
      </trkpt>
      <trkpt lat="42.85133" lon="1.84067">
        <ele>1576.825</ele>
        <time>2021-02-28T12:52:55Z</time>
      </trkpt>
      <trkpt lat="42.85133" lon="1.84065">
        <ele>1576.191</ele>
        <time>2021-02-28T12:52:57Z</time>
      </trkpt>
      <trkpt lat="42.85134" lon="1.84063">
        <ele>1575.382</ele>
        <time>2021-02-28T12:52:59Z</time>
      </trkpt>
      <trkpt lat="42.85136" lon="1.84062">
        <ele>1574.331</ele>
        <time>2021-02-28T12:53:01Z</time>
      </trkpt>
      <trkpt lat="42.85136" lon="1.8406">
        <ele>1573.977</ele>
        <time>2021-02-28T12:53:03Z</time>
      </trkpt>
      <trkpt lat="42.85137" lon="1.84058">
        <ele>1573.763</ele>
        <time>2021-02-28T12:53:05Z</time>
      </trkpt>
      <trkpt lat="42.85137" lon="1.84056">
        <ele>1573.338</ele>
        <time>2021-02-28T12:53:07Z</time>
      </trkpt>
      <trkpt lat="42.85138" lon="1.84055">
        <ele>1572.739</ele>
        <time>2021-02-28T12:53:09Z</time>
      </trkpt>
      <trkpt lat="42.85138" lon="1.84052">
        <ele>1573.467</ele>
        <time>2021-02-28T12:53:11Z</time>
      </trkpt>
      <trkpt lat="42.85139" lon="1.84051">
        <ele>1573.563</ele>
        <time>2021-02-28T12:53:13Z</time>
      </trkpt>
      <trkpt lat="42.85139" lon="1.84048">
        <ele>1574.185</ele>
        <time>2021-02-28T12:53:15Z</time>
      </trkpt>
      <trkpt lat="42.85138" lon="1.84048">
        <ele>1573.84</ele>
        <time>2021-02-28T12:53:17Z</time>
      </trkpt>
      <trkpt lat="42.85138" lon="1.84046">
        <ele>1574.459</ele>
        <time>2021-02-28T12:53:19Z</time>
      </trkpt>
      <trkpt lat="42.85138" lon="1.84046">
        <ele>1574.3</ele>
        <time>2021-02-28T12:53:21Z</time>
      </trkpt>
      <trkpt lat="42.85136" lon="1.84044">
        <ele>1572.742</ele>
        <time>2021-02-28T12:53:23Z</time>
      </trkpt>
      <trkpt lat="42.85136" lon="1.84043">
        <ele>1572.501</ele>
        <time>2021-02-28T12:53:25Z</time>
      </trkpt>
      <trkpt lat="42.85138" lon="1.84044">
        <ele>1571.848</ele>
        <time>2021-02-28T12:53:27Z</time>
      </trkpt>
      <trkpt lat="42.85138" lon="1.84044">
        <ele>1571.865</ele>
        <time>2021-02-28T12:53:29Z</time>
      </trkpt>
      <trkpt lat="42.8514" lon="1.84044">
        <ele>1572.679</ele>
        <time>2021-02-28T12:53:31Z</time>
      </trkpt>
      <trkpt lat="42.8514" lon="1.84045">
        <ele>1572.291</ele>
        <time>2021-02-28T12:53:32Z</time>
      </trkpt>
      <trkpt lat="42.85144" lon="1.84041">
        <ele>1572.445</ele>
        <time>2021-02-28T12:53:39Z</time>
      </trkpt>
      <trkpt lat="42.85146" lon="1.8404">
        <ele>1571.709</ele>
        <time>2021-02-28T12:53:41Z</time>
      </trkpt>
      <trkpt lat="42.85147" lon="1.84041">
        <ele>1569.334</ele>
        <time>2021-02-28T12:53:43Z</time>
      </trkpt>
      <trkpt lat="42.85149" lon="1.84041">
        <ele>1569.157</ele>
        <time>2021-02-28T12:53:45Z</time>
      </trkpt>
      <trkpt lat="42.85151" lon="1.84042">
        <ele>1567.905</ele>
        <time>2021-02-28T12:53:47Z</time>
      </trkpt>
      <trkpt lat="42.85153" lon="1.84042">
        <ele>1566.518</ele>
        <time>2021-02-28T12:53:49Z</time>
      </trkpt>
      <trkpt lat="42.85156" lon="1.84042">
        <ele>1565.36</ele>
        <time>2021-02-28T12:53:51Z</time>
      </trkpt>
      <trkpt lat="42.85158" lon="1.84043">
        <ele>1565.798</ele>
        <time>2021-02-28T12:53:53Z</time>
      </trkpt>
      <trkpt lat="42.8516" lon="1.84043">
        <ele>1565.075</ele>
        <time>2021-02-28T12:53:55Z</time>
      </trkpt>
      <trkpt lat="42.85161" lon="1.84044">
        <ele>1565.083</ele>
        <time>2021-02-28T12:53:57Z</time>
      </trkpt>
      <trkpt lat="42.85162" lon="1.84043">
        <ele>1565.078</ele>
        <time>2021-02-28T12:53:59Z</time>
      </trkpt>
      <trkpt lat="42.85163" lon="1.84042">
        <ele>1564.311</ele>
        <time>2021-02-28T12:54:01Z</time>
      </trkpt>
      <trkpt lat="42.85164" lon="1.84042">
        <ele>1563.43</ele>
        <time>2021-02-28T12:54:03Z</time>
      </trkpt>
      <trkpt lat="42.85166" lon="1.84041">
        <ele>1563.982</ele>
        <time>2021-02-28T12:54:05Z</time>
      </trkpt>
      <trkpt lat="42.85168" lon="1.8404">
        <ele>1563.621</ele>
        <time>2021-02-28T12:54:07Z</time>
      </trkpt>
      <trkpt lat="42.85168" lon="1.8404">
        <ele>1563.022</ele>
        <time>2021-02-28T12:54:09Z</time>
      </trkpt>
      <trkpt lat="42.85169" lon="1.84039">
        <ele>1562.549</ele>
        <time>2021-02-28T12:54:11Z</time>
      </trkpt>
      <trkpt lat="42.85171" lon="1.84039">
        <ele>1561.476</ele>
        <time>2021-02-28T12:54:13Z</time>
      </trkpt>
      <trkpt lat="42.85173" lon="1.84038">
        <ele>1560.04</ele>
        <time>2021-02-28T12:54:15Z</time>
      </trkpt>
      <trkpt lat="42.85175" lon="1.84038">
        <ele>1560.181</ele>
        <time>2021-02-28T12:54:17Z</time>
      </trkpt>
      <trkpt lat="42.85177" lon="1.84039">
        <ele>1559.269</ele>
        <time>2021-02-28T12:54:19Z</time>
      </trkpt>
      <trkpt lat="42.85179" lon="1.84038">
        <ele>1558.311</ele>
        <time>2021-02-28T12:54:21Z</time>
      </trkpt>
      <trkpt lat="42.85181" lon="1.84037">
        <ele>1557.471</ele>
        <time>2021-02-28T12:54:23Z</time>
      </trkpt>
      <trkpt lat="42.85183" lon="1.84035">
        <ele>1556.382</ele>
        <time>2021-02-28T12:54:25Z</time>
      </trkpt>
      <trkpt lat="42.85185" lon="1.84033">
        <ele>1555.685</ele>
        <time>2021-02-28T12:54:27Z</time>
      </trkpt>
      <trkpt lat="42.85187" lon="1.84031">
        <ele>1553</ele>
        <time>2021-02-28T12:54:29Z</time>
      </trkpt>
      <trkpt lat="42.85188" lon="1.84029">
        <ele>1551.474</ele>
        <time>2021-02-28T12:54:31Z</time>
      </trkpt>
      <trkpt lat="42.85189" lon="1.84027">
        <ele>1549.359</ele>
        <time>2021-02-28T12:54:33Z</time>
      </trkpt>
      <trkpt lat="42.8519" lon="1.84024">
        <ele>1547.654</ele>
        <time>2021-02-28T12:54:35Z</time>
      </trkpt>
      <trkpt lat="42.85191" lon="1.84023">
        <ele>1547.318</ele>
        <time>2021-02-28T12:54:37Z</time>
      </trkpt>
      <trkpt lat="42.85193" lon="1.84022">
        <ele>1545.809</ele>
        <time>2021-02-28T12:54:39Z</time>
      </trkpt>
      <trkpt lat="42.85196" lon="1.84021">
        <ele>1544.663</ele>
        <time>2021-02-28T12:54:41Z</time>
      </trkpt>
      <trkpt lat="42.85198" lon="1.84021">
        <ele>1544.341</ele>
        <time>2021-02-28T12:54:43Z</time>
      </trkpt>
      <trkpt lat="42.85199" lon="1.84021">
        <ele>1543.658</ele>
        <time>2021-02-28T12:54:45Z</time>
      </trkpt>
      <trkpt lat="42.85201" lon="1.8402">
        <ele>1543.078</ele>
        <time>2021-02-28T12:54:47Z</time>
      </trkpt>
      <trkpt lat="42.85203" lon="1.84019">
        <ele>1542.743</ele>
        <time>2021-02-28T12:54:49Z</time>
      </trkpt>
      <trkpt lat="42.85204" lon="1.84016">
        <ele>1542.458</ele>
        <time>2021-02-28T12:54:51Z</time>
      </trkpt>
      <trkpt lat="42.85205" lon="1.84014">
        <ele>1542.865</ele>
        <time>2021-02-28T12:54:53Z</time>
      </trkpt>
      <trkpt lat="42.85207" lon="1.84012">
        <ele>1542.49</ele>
        <time>2021-02-28T12:54:55Z</time>
      </trkpt>
      <trkpt lat="42.85209" lon="1.84011">
        <ele>1542.924</ele>
        <time>2021-02-28T12:54:57Z</time>
      </trkpt>
      <trkpt lat="42.85211" lon="1.8401">
        <ele>1542.146</ele>
        <time>2021-02-28T12:54:59Z</time>
      </trkpt>
      <trkpt lat="42.85213" lon="1.84009">
        <ele>1541.399</ele>
        <time>2021-02-28T12:55:01Z</time>
      </trkpt>
      <trkpt lat="42.85215" lon="1.84007">
        <ele>1540.417</ele>
        <time>2021-02-28T12:55:03Z</time>
      </trkpt>
      <trkpt lat="42.85216" lon="1.84004">
        <ele>1539.953</ele>
        <time>2021-02-28T12:55:05Z</time>
      </trkpt>
      <trkpt lat="42.85218" lon="1.84003">
        <ele>1537.817</ele>
        <time>2021-02-28T12:55:07Z</time>
      </trkpt>
      <trkpt lat="42.85219" lon="1.84002">
        <ele>1536.556</ele>
        <time>2021-02-28T12:55:09Z</time>
      </trkpt>
      <trkpt lat="42.85221" lon="1.84">
        <ele>1537.361</ele>
        <time>2021-02-28T12:55:11Z</time>
      </trkpt>
      <trkpt lat="42.85223" lon="1.83998">
        <ele>1537.216</ele>
        <time>2021-02-28T12:55:13Z</time>
      </trkpt>
      <trkpt lat="42.85224" lon="1.83996">
        <ele>1534.142</ele>
        <time>2021-02-28T12:55:15Z</time>
      </trkpt>
      <trkpt lat="42.85225" lon="1.83994">
        <ele>1532.958</ele>
        <time>2021-02-28T12:55:17Z</time>
      </trkpt>
      <trkpt lat="42.85227" lon="1.83994">
        <ele>1533.715</ele>
        <time>2021-02-28T12:55:19Z</time>
      </trkpt>
      <trkpt lat="42.85229" lon="1.83992">
        <ele>1534.081</ele>
        <time>2021-02-28T12:55:21Z</time>
      </trkpt>
      <trkpt lat="42.8523" lon="1.83989">
        <ele>1533.009</ele>
        <time>2021-02-28T12:55:23Z</time>
      </trkpt>
      <trkpt lat="42.85232" lon="1.83987">
        <ele>1532.701</ele>
        <time>2021-02-28T12:55:25Z</time>
      </trkpt>
      <trkpt lat="42.85232" lon="1.83984">
        <ele>1531.74</ele>
        <time>2021-02-28T12:55:27Z</time>
      </trkpt>
      <trkpt lat="42.85234" lon="1.83984">
        <ele>1530.295</ele>
        <time>2021-02-28T12:55:29Z</time>
      </trkpt>
      <trkpt lat="42.85235" lon="1.83982">
        <ele>1529.42</ele>
        <time>2021-02-28T12:55:31Z</time>
      </trkpt>
      <trkpt lat="42.85237" lon="1.83981">
        <ele>1528.494</ele>
        <time>2021-02-28T12:55:33Z</time>
      </trkpt>
      <trkpt lat="42.85237" lon="1.83981">
        <ele>1527.002</ele>
        <time>2021-02-28T12:55:35Z</time>
      </trkpt>
      <trkpt lat="42.85239" lon="1.83979">
        <ele>1527.164</ele>
        <time>2021-02-28T12:55:37Z</time>
      </trkpt>
      <trkpt lat="42.8524" lon="1.83977">
        <ele>1526.851</ele>
        <time>2021-02-28T12:55:39Z</time>
      </trkpt>
      <trkpt lat="42.85242" lon="1.83975">
        <ele>1526.124</ele>
        <time>2021-02-28T12:55:41Z</time>
      </trkpt>
      <trkpt lat="42.85243" lon="1.83974">
        <ele>1525.829</ele>
        <time>2021-02-28T12:55:43Z</time>
      </trkpt>
      <trkpt lat="42.85245" lon="1.83973">
        <ele>1526.269</ele>
        <time>2021-02-28T12:55:45Z</time>
      </trkpt>
      <trkpt lat="42.85248" lon="1.83972">
        <ele>1525.625</ele>
        <time>2021-02-28T12:55:47Z</time>
      </trkpt>
      <trkpt lat="42.85249" lon="1.83969">
        <ele>1525.24</ele>
        <time>2021-02-28T12:55:49Z</time>
      </trkpt>
      <trkpt lat="42.8525" lon="1.83966">
        <ele>1524.679</ele>
        <time>2021-02-28T12:55:51Z</time>
      </trkpt>
      <trkpt lat="42.85251" lon="1.83965">
        <ele>1524.578</ele>
        <time>2021-02-28T12:55:52Z</time>
      </trkpt>
      <trkpt lat="42.85258" lon="1.83956">
        <ele>1525.681</ele>
        <time>2021-02-28T12:55:59Z</time>
      </trkpt>
      <trkpt lat="42.85259" lon="1.83955">
        <ele>1524.886</ele>
        <time>2021-02-28T12:56:00Z</time>
      </trkpt>
      <trkpt lat="42.85261" lon="1.83951">
        <ele>1523.958</ele>
        <time>2021-02-28T12:56:03Z</time>
      </trkpt>
      <trkpt lat="42.85263" lon="1.83949">
        <ele>1523.987</ele>
        <time>2021-02-28T12:56:05Z</time>
      </trkpt>
      <trkpt lat="42.85265" lon="1.83948">
        <ele>1524.442</ele>
        <time>2021-02-28T12:56:07Z</time>
      </trkpt>
      <trkpt lat="42.85267" lon="1.83947">
        <ele>1525.042</ele>
        <time>2021-02-28T12:56:09Z</time>
      </trkpt>
      <trkpt lat="42.85268" lon="1.83945">
        <ele>1523.804</ele>
        <time>2021-02-28T12:56:11Z</time>
      </trkpt>
      <trkpt lat="42.85269" lon="1.83944">
        <ele>1522.124</ele>
        <time>2021-02-28T12:56:13Z</time>
      </trkpt>
      <trkpt lat="42.85271" lon="1.83942">
        <ele>1522.354</ele>
        <time>2021-02-28T12:56:15Z</time>
      </trkpt>
      <trkpt lat="42.85273" lon="1.8394">
        <ele>1521.195</ele>
        <time>2021-02-28T12:56:17Z</time>
      </trkpt>
      <trkpt lat="42.85275" lon="1.83939">
        <ele>1520.304</ele>
        <time>2021-02-28T12:56:19Z</time>
      </trkpt>
      <trkpt lat="42.85276" lon="1.83939">
        <ele>1520.417</ele>
        <time>2021-02-28T12:56:21Z</time>
      </trkpt>
      <trkpt lat="42.85278" lon="1.83938">
        <ele>1518.975</ele>
        <time>2021-02-28T12:56:23Z</time>
      </trkpt>
      <trkpt lat="42.85279" lon="1.83936">
        <ele>1519.096</ele>
        <time>2021-02-28T12:56:25Z</time>
      </trkpt>
      <trkpt lat="42.8528" lon="1.83935">
        <ele>1518.931</ele>
        <time>2021-02-28T12:56:27Z</time>
      </trkpt>
      <trkpt lat="42.85281" lon="1.83934">
        <ele>1518.441</ele>
        <time>2021-02-28T12:56:29Z</time>
      </trkpt>
      <trkpt lat="42.85283" lon="1.83933">
        <ele>1518.08</ele>
        <time>2021-02-28T12:56:31Z</time>
      </trkpt>
      <trkpt lat="42.85284" lon="1.83932">
        <ele>1516.192</ele>
        <time>2021-02-28T12:56:33Z</time>
      </trkpt>
      <trkpt lat="42.85286" lon="1.8393">
        <ele>1516.098</ele>
        <time>2021-02-28T12:56:35Z</time>
      </trkpt>
      <trkpt lat="42.85287" lon="1.83929">
        <ele>1515.314</ele>
        <time>2021-02-28T12:56:37Z</time>
      </trkpt>
      <trkpt lat="42.85288" lon="1.83927">
        <ele>1515.264</ele>
        <time>2021-02-28T12:56:39Z</time>
      </trkpt>
      <trkpt lat="42.85286" lon="1.83926">
        <ele>1513.155</ele>
        <time>2021-02-28T12:56:41Z</time>
      </trkpt>
      <trkpt lat="42.85287" lon="1.83924">
        <ele>1513.443</ele>
        <time>2021-02-28T12:56:43Z</time>
      </trkpt>
      <trkpt lat="42.85288" lon="1.83922">
        <ele>1513.337</ele>
        <time>2021-02-28T12:56:45Z</time>
      </trkpt>
      <trkpt lat="42.8529" lon="1.83921">
        <ele>1511.205</ele>
        <time>2021-02-28T12:56:47Z</time>
      </trkpt>
      <trkpt lat="42.85292" lon="1.83919">
        <ele>1511.135</ele>
        <time>2021-02-28T12:56:49Z</time>
      </trkpt>
      <trkpt lat="42.85295" lon="1.83917">
        <ele>1510.54</ele>
        <time>2021-02-28T12:56:51Z</time>
      </trkpt>
      <trkpt lat="42.85297" lon="1.83915">
        <ele>1509.89</ele>
        <time>2021-02-28T12:56:53Z</time>
      </trkpt>
      <trkpt lat="42.85298" lon="1.83914">
        <ele>1509.409</ele>
        <time>2021-02-28T12:56:55Z</time>
      </trkpt>
      <trkpt lat="42.85298" lon="1.83913">
        <ele>1509.92</ele>
        <time>2021-02-28T12:56:57Z</time>
      </trkpt>
      <trkpt lat="42.85299" lon="1.83912">
        <ele>1509.028</ele>
        <time>2021-02-28T12:56:59Z</time>
      </trkpt>
      <trkpt lat="42.853" lon="1.83909">
        <ele>1508.314</ele>
        <time>2021-02-28T12:57:01Z</time>
      </trkpt>
      <trkpt lat="42.85301" lon="1.83908">
        <ele>1506.934</ele>
        <time>2021-02-28T12:57:03Z</time>
      </trkpt>
      <trkpt lat="42.85302" lon="1.83906">
        <ele>1507.541</ele>
        <time>2021-02-28T12:57:05Z</time>
      </trkpt>
      <trkpt lat="42.85304" lon="1.83903">
        <ele>1507.976</ele>
        <time>2021-02-28T12:57:07Z</time>
      </trkpt>
      <trkpt lat="42.85303" lon="1.83901">
        <ele>1507.376</ele>
        <time>2021-02-28T12:57:09Z</time>
      </trkpt>
      <trkpt lat="42.85305" lon="1.839">
        <ele>1506.795</ele>
        <time>2021-02-28T12:57:11Z</time>
      </trkpt>
      <trkpt lat="42.85308" lon="1.83902">
        <ele>1503.905</ele>
        <time>2021-02-28T12:57:13Z</time>
      </trkpt>
      <trkpt lat="42.8531" lon="1.83899">
        <ele>1503.194</ele>
        <time>2021-02-28T12:57:15Z</time>
      </trkpt>
      <trkpt lat="42.85313" lon="1.83897">
        <ele>1502.731</ele>
        <time>2021-02-28T12:57:17Z</time>
      </trkpt>
      <trkpt lat="42.85315" lon="1.83897">
        <ele>1500.695</ele>
        <time>2021-02-28T12:57:19Z</time>
      </trkpt>
      <trkpt lat="42.85316" lon="1.83896">
        <ele>1500.534</ele>
        <time>2021-02-28T12:57:21Z</time>
      </trkpt>
      <trkpt lat="42.85317" lon="1.83896">
        <ele>1500.213</ele>
        <time>2021-02-28T12:57:23Z</time>
      </trkpt>
      <trkpt lat="42.85319" lon="1.83894">
        <ele>1499.122</ele>
        <time>2021-02-28T12:57:25Z</time>
      </trkpt>
      <trkpt lat="42.8532" lon="1.83893">
        <ele>1498.357</ele>
        <time>2021-02-28T12:57:27Z</time>
      </trkpt>
      <trkpt lat="42.85323" lon="1.83892">
        <ele>1497.697</ele>
        <time>2021-02-28T12:57:29Z</time>
      </trkpt>
      <trkpt lat="42.85326" lon="1.83892">
        <ele>1497.059</ele>
        <time>2021-02-28T12:57:31Z</time>
      </trkpt>
      <trkpt lat="42.85326" lon="1.8389">
        <ele>1498.54</ele>
        <time>2021-02-28T12:57:33Z</time>
      </trkpt>
      <trkpt lat="42.85326" lon="1.83889">
        <ele>1498.568</ele>
        <time>2021-02-28T12:57:35Z</time>
      </trkpt>
      <trkpt lat="42.85327" lon="1.83887">
        <ele>1497.923</ele>
        <time>2021-02-28T12:57:37Z</time>
      </trkpt>
      <trkpt lat="42.85328" lon="1.83886">
        <ele>1497.897</ele>
        <time>2021-02-28T12:57:39Z</time>
      </trkpt>
      <trkpt lat="42.8533" lon="1.83885">
        <ele>1498.039</ele>
        <time>2021-02-28T12:57:41Z</time>
      </trkpt>
      <trkpt lat="42.85331" lon="1.83884">
        <ele>1497.421</ele>
        <time>2021-02-28T12:57:43Z</time>
      </trkpt>
      <trkpt lat="42.85332" lon="1.83883">
        <ele>1497.598</ele>
        <time>2021-02-28T12:57:45Z</time>
      </trkpt>
      <trkpt lat="42.85336" lon="1.8388">
        <ele>1497.18</ele>
        <time>2021-02-28T12:57:52Z</time>
      </trkpt>
      <trkpt lat="42.85338" lon="1.83878">
        <ele>1497.478</ele>
        <time>2021-02-28T12:57:54Z</time>
      </trkpt>
      <trkpt lat="42.85338" lon="1.83877">
        <ele>1495.905</ele>
        <time>2021-02-28T12:57:56Z</time>
      </trkpt>
      <trkpt lat="42.85341" lon="1.83876">
        <ele>1496.833</ele>
        <time>2021-02-28T12:57:58Z</time>
      </trkpt>
      <trkpt lat="42.85343" lon="1.83874">
        <ele>1495.45</ele>
        <time>2021-02-28T12:58:00Z</time>
      </trkpt>
      <trkpt lat="42.85345" lon="1.83871">
        <ele>1494.959</ele>
        <time>2021-02-28T12:58:02Z</time>
      </trkpt>
      <trkpt lat="42.85347" lon="1.8387">
        <ele>1492.447</ele>
        <time>2021-02-28T12:58:04Z</time>
      </trkpt>
      <trkpt lat="42.85348" lon="1.83868">
        <ele>1491.423</ele>
        <time>2021-02-28T12:58:06Z</time>
      </trkpt>
      <trkpt lat="42.8535" lon="1.83867">
        <ele>1491.059</ele>
        <time>2021-02-28T12:58:08Z</time>
      </trkpt>
      <trkpt lat="42.85354" lon="1.83866">
        <ele>1490.032</ele>
        <time>2021-02-28T12:58:10Z</time>
      </trkpt>
      <trkpt lat="42.85356" lon="1.83865">
        <ele>1488.12</ele>
        <time>2021-02-28T12:58:12Z</time>
      </trkpt>
      <trkpt lat="42.85358" lon="1.83864">
        <ele>1487.096</ele>
        <time>2021-02-28T12:58:14Z</time>
      </trkpt>
      <trkpt lat="42.8536" lon="1.83861">
        <ele>1488.318</ele>
        <time>2021-02-28T12:58:16Z</time>
      </trkpt>
      <trkpt lat="42.85361" lon="1.83859">
        <ele>1488.78</ele>
        <time>2021-02-28T12:58:18Z</time>
      </trkpt>
      <trkpt lat="42.85363" lon="1.83859">
        <ele>1488.384</ele>
        <time>2021-02-28T12:58:20Z</time>
      </trkpt>
      <trkpt lat="42.85365" lon="1.83859">
        <ele>1488.175</ele>
        <time>2021-02-28T12:58:22Z</time>
      </trkpt>
      <trkpt lat="42.85367" lon="1.8386">
        <ele>1488.08</ele>
        <time>2021-02-28T12:58:24Z</time>
      </trkpt>
      <trkpt lat="42.85369" lon="1.8386">
        <ele>1487.314</ele>
        <time>2021-02-28T12:58:26Z</time>
      </trkpt>
      <trkpt lat="42.8537" lon="1.8386">
        <ele>1487.475</ele>
        <time>2021-02-28T12:58:28Z</time>
      </trkpt>
      <trkpt lat="42.85372" lon="1.8386">
        <ele>1487.087</ele>
        <time>2021-02-28T12:58:30Z</time>
      </trkpt>
      <trkpt lat="42.85373" lon="1.83859">
        <ele>1486.46</ele>
        <time>2021-02-28T12:58:32Z</time>
      </trkpt>
      <trkpt lat="42.85374" lon="1.83857">
        <ele>1485.234</ele>
        <time>2021-02-28T12:58:34Z</time>
      </trkpt>
      <trkpt lat="42.85375" lon="1.83856">
        <ele>1485.646</ele>
        <time>2021-02-28T12:58:36Z</time>
      </trkpt>
      <trkpt lat="42.85376" lon="1.83855">
        <ele>1485.908</ele>
        <time>2021-02-28T12:58:38Z</time>
      </trkpt>
      <trkpt lat="42.85377" lon="1.83854">
        <ele>1486.052</ele>
        <time>2021-02-28T12:58:40Z</time>
      </trkpt>
      <trkpt lat="42.85378" lon="1.83854">
        <ele>1486.314</ele>
        <time>2021-02-28T12:58:42Z</time>
      </trkpt>
      <trkpt lat="42.85379" lon="1.83854">
        <ele>1486.341</ele>
        <time>2021-02-28T12:58:44Z</time>
      </trkpt>
      <trkpt lat="42.85379" lon="1.83855">
        <ele>1486.327</ele>
        <time>2021-02-28T12:58:46Z</time>
      </trkpt>
      <trkpt lat="42.85379" lon="1.83855">
        <ele>1486.323</ele>
        <time>2021-02-28T12:58:48Z</time>
      </trkpt>
      <trkpt lat="42.85379" lon="1.83854">
        <ele>1486.575</ele>
        <time>2021-02-28T12:58:50Z</time>
      </trkpt>
      <trkpt lat="42.8538" lon="1.83853">
        <ele>1486.745</ele>
        <time>2021-02-28T12:58:52Z</time>
      </trkpt>
      <trkpt lat="42.85381" lon="1.83851">
        <ele>1486.225</ele>
        <time>2021-02-28T12:58:54Z</time>
      </trkpt>
      <trkpt lat="42.85383" lon="1.8385">
        <ele>1486.509</ele>
        <time>2021-02-28T12:58:56Z</time>
      </trkpt>
      <trkpt lat="42.85384" lon="1.83849">
        <ele>1485.987</ele>
        <time>2021-02-28T12:58:58Z</time>
      </trkpt>
      <trkpt lat="42.85386" lon="1.83848">
        <ele>1484.744</ele>
        <time>2021-02-28T12:59:00Z</time>
      </trkpt>
      <trkpt lat="42.85388" lon="1.83845">
        <ele>1485.048</ele>
        <time>2021-02-28T12:59:02Z</time>
      </trkpt>
      <trkpt lat="42.85388" lon="1.83843">
        <ele>1484.935</ele>
        <time>2021-02-28T12:59:04Z</time>
      </trkpt>
      <trkpt lat="42.85389" lon="1.83841">
        <ele>1483.189</ele>
        <time>2021-02-28T12:59:06Z</time>
      </trkpt>
      <trkpt lat="42.85389" lon="1.83838">
        <ele>1482.502</ele>
        <time>2021-02-28T12:59:08Z</time>
      </trkpt>
      <trkpt lat="42.85389" lon="1.83836">
        <ele>1483.222</ele>
        <time>2021-02-28T12:59:10Z</time>
      </trkpt>
      <trkpt lat="42.8539" lon="1.83834">
        <ele>1482.705</ele>
        <time>2021-02-28T12:59:12Z</time>
      </trkpt>
      <trkpt lat="42.85392" lon="1.83832">
        <ele>1482.315</ele>
        <time>2021-02-28T12:59:14Z</time>
      </trkpt>
      <trkpt lat="42.85393" lon="1.83831">
        <ele>1482.58</ele>
        <time>2021-02-28T12:59:16Z</time>
      </trkpt>
      <trkpt lat="42.85395" lon="1.83829">
        <ele>1482.241</ele>
        <time>2021-02-28T12:59:18Z</time>
      </trkpt>
      <trkpt lat="42.85397" lon="1.83828">
        <ele>1482.257</ele>
        <time>2021-02-28T12:59:20Z</time>
      </trkpt>
      <trkpt lat="42.85399" lon="1.83827">
        <ele>1481.619</ele>
        <time>2021-02-28T12:59:22Z</time>
      </trkpt>
      <trkpt lat="42.854" lon="1.83825">
        <ele>1481.191</ele>
        <time>2021-02-28T12:59:24Z</time>
      </trkpt>
      <trkpt lat="42.85401" lon="1.83824">
        <ele>1481.031</ele>
        <time>2021-02-28T12:59:26Z</time>
      </trkpt>
      <trkpt lat="42.85402" lon="1.83823">
        <ele>1480.37</ele>
        <time>2021-02-28T12:59:28Z</time>
      </trkpt>
      <trkpt lat="42.85403" lon="1.83823">
        <ele>1479.695</ele>
        <time>2021-02-28T12:59:30Z</time>
      </trkpt>
      <trkpt lat="42.85403" lon="1.83822">
        <ele>1480.031</ele>
        <time>2021-02-28T12:59:32Z</time>
      </trkpt>
      <trkpt lat="42.85403" lon="1.83822">
        <ele>1480.183</ele>
        <time>2021-02-28T12:59:34Z</time>
      </trkpt>
      <trkpt lat="42.85403" lon="1.83822">
        <ele>1480.32</ele>
        <time>2021-02-28T12:59:36Z</time>
      </trkpt>
      <trkpt lat="42.85403" lon="1.83822">
        <ele>1480.321</ele>
        <time>2021-02-28T12:59:38Z</time>
      </trkpt>
      <trkpt lat="42.85403" lon="1.83821">
        <ele>1479.589</ele>
        <time>2021-02-28T12:59:40Z</time>
      </trkpt>
      <trkpt lat="42.85404" lon="1.83821">
        <ele>1479.275</ele>
        <time>2021-02-28T12:59:42Z</time>
      </trkpt>
      <trkpt lat="42.85405" lon="1.8382">
        <ele>1479.212</ele>
        <time>2021-02-28T12:59:44Z</time>
      </trkpt>
      <trkpt lat="42.85406" lon="1.83819">
        <ele>1478.902</ele>
        <time>2021-02-28T12:59:46Z</time>
      </trkpt>
      <trkpt lat="42.85407" lon="1.83818">
        <ele>1478.517</ele>
        <time>2021-02-28T12:59:48Z</time>
      </trkpt>
      <trkpt lat="42.85407" lon="1.83815">
        <ele>1478.218</ele>
        <time>2021-02-28T12:59:50Z</time>
      </trkpt>
      <trkpt lat="42.85406" lon="1.83812">
        <ele>1478.59</ele>
        <time>2021-02-28T12:59:52Z</time>
      </trkpt>
      <trkpt lat="42.85406" lon="1.83809">
        <ele>1477.436</ele>
        <time>2021-02-28T12:59:54Z</time>
      </trkpt>
      <trkpt lat="42.85408" lon="1.83808">
        <ele>1475.178</ele>
        <time>2021-02-28T12:59:56Z</time>
      </trkpt>
      <trkpt lat="42.8541" lon="1.83809">
        <ele>1475.183</ele>
        <time>2021-02-28T12:59:58Z</time>
      </trkpt>
      <trkpt lat="42.85412" lon="1.83811">
        <ele>1473.589</ele>
        <time>2021-02-28T13:00:00Z</time>
      </trkpt>
      <trkpt lat="42.85413" lon="1.83813">
        <ele>1472.777</ele>
        <time>2021-02-28T13:00:02Z</time>
      </trkpt>
      <trkpt lat="42.85414" lon="1.83815">
        <ele>1472.919</ele>
        <time>2021-02-28T13:00:04Z</time>
      </trkpt>
      <trkpt lat="42.85415" lon="1.83817">
        <ele>1473.282</ele>
        <time>2021-02-28T13:00:06Z</time>
      </trkpt>
      <trkpt lat="42.85415" lon="1.83817">
        <ele>1472.237</ele>
        <time>2021-02-28T13:00:08Z</time>
      </trkpt>
      <trkpt lat="42.85415" lon="1.83817">
        <ele>1471.86</ele>
        <time>2021-02-28T13:00:10Z</time>
      </trkpt>
      <trkpt lat="42.85416" lon="1.83818">
        <ele>1472.851</ele>
        <time>2021-02-28T13:00:12Z</time>
      </trkpt>
      <trkpt lat="42.85417" lon="1.83819">
        <ele>1473.184</ele>
        <time>2021-02-28T13:00:14Z</time>
      </trkpt>
      <trkpt lat="42.85418" lon="1.83821">
        <ele>1473.355</ele>
        <time>2021-02-28T13:00:16Z</time>
      </trkpt>
      <trkpt lat="42.85419" lon="1.83821">
        <ele>1473.966</ele>
        <time>2021-02-28T13:00:18Z</time>
      </trkpt>
      <trkpt lat="42.85422" lon="1.83823">
        <ele>1474.454</ele>
        <time>2021-02-28T13:00:20Z</time>
      </trkpt>
      <trkpt lat="42.85421" lon="1.83823">
        <ele>1473.02</ele>
        <time>2021-02-28T13:00:22Z</time>
      </trkpt>
      <trkpt lat="42.85422" lon="1.83823">
        <ele>1472.998</ele>
        <time>2021-02-28T13:00:24Z</time>
      </trkpt>
      <trkpt lat="42.85424" lon="1.83825">
        <ele>1474.027</ele>
        <time>2021-02-28T13:00:26Z</time>
      </trkpt>
      <trkpt lat="42.85423" lon="1.83825">
        <ele>1473.942</ele>
        <time>2021-02-28T13:00:28Z</time>
      </trkpt>
      <trkpt lat="42.85423" lon="1.83825">
        <ele>1473.582</ele>
        <time>2021-02-28T13:00:30Z</time>
      </trkpt>
      <trkpt lat="42.85423" lon="1.83825">
        <ele>1473.121</ele>
        <time>2021-02-28T13:00:32Z</time>
      </trkpt>
      <trkpt lat="42.85423" lon="1.83825">
        <ele>1471.742</ele>
        <time>2021-02-28T13:00:34Z</time>
      </trkpt>
      <trkpt lat="42.85427" lon="1.83826">
        <ele>1473.723</ele>
        <time>2021-02-28T13:00:36Z</time>
      </trkpt>
      <trkpt lat="42.85427" lon="1.83826">
        <ele>1473.192</ele>
        <time>2021-02-28T13:00:38Z</time>
      </trkpt>
      <trkpt lat="42.85427" lon="1.83826">
        <ele>1473.728</ele>
        <time>2021-02-28T13:00:40Z</time>
      </trkpt>
      <trkpt lat="42.85428" lon="1.83826">
        <ele>1472.82</ele>
        <time>2021-02-28T13:00:42Z</time>
      </trkpt>
      <trkpt lat="42.85429" lon="1.83826">
        <ele>1471.979</ele>
        <time>2021-02-28T13:00:44Z</time>
      </trkpt>
      <trkpt lat="42.8543" lon="1.83827">
        <ele>1471.165</ele>
        <time>2021-02-28T13:00:46Z</time>
      </trkpt>
      <trkpt lat="42.85431" lon="1.83827">
        <ele>1470.928</ele>
        <time>2021-02-28T13:00:48Z</time>
      </trkpt>
      <trkpt lat="42.85433" lon="1.83828">
        <ele>1471.216</ele>
        <time>2021-02-28T13:00:50Z</time>
      </trkpt>
      <trkpt lat="42.85434" lon="1.83828">
        <ele>1471.077</ele>
        <time>2021-02-28T13:00:52Z</time>
      </trkpt>
      <trkpt lat="42.85436" lon="1.83827">
        <ele>1469.419</ele>
        <time>2021-02-28T13:00:54Z</time>
      </trkpt>
      <trkpt lat="42.85437" lon="1.83826">
        <ele>1467.425</ele>
        <time>2021-02-28T13:00:56Z</time>
      </trkpt>
      <trkpt lat="42.85438" lon="1.83825">
        <ele>1466.915</ele>
        <time>2021-02-28T13:00:58Z</time>
      </trkpt>
      <trkpt lat="42.8544" lon="1.83825">
        <ele>1467.07</ele>
        <time>2021-02-28T13:01:00Z</time>
      </trkpt>
      <trkpt lat="42.85442" lon="1.83826">
        <ele>1465.2</ele>
        <time>2021-02-28T13:01:02Z</time>
      </trkpt>
      <trkpt lat="42.85444" lon="1.83824">
        <ele>1463.932</ele>
        <time>2021-02-28T13:01:04Z</time>
      </trkpt>
      <trkpt lat="42.85446" lon="1.83823">
        <ele>1463.631</ele>
        <time>2021-02-28T13:01:06Z</time>
      </trkpt>
      <trkpt lat="42.85448" lon="1.83822">
        <ele>1463.394</ele>
        <time>2021-02-28T13:01:08Z</time>
      </trkpt>
      <trkpt lat="42.8545" lon="1.83821">
        <ele>1463.14</ele>
        <time>2021-02-28T13:01:10Z</time>
      </trkpt>
      <trkpt lat="42.85451" lon="1.83821">
        <ele>1462.176</ele>
        <time>2021-02-28T13:01:12Z</time>
      </trkpt>
      <trkpt lat="42.85453" lon="1.83819">
        <ele>1460.96</ele>
        <time>2021-02-28T13:01:14Z</time>
      </trkpt>
      <trkpt lat="42.85454" lon="1.83818">
        <ele>1460.714</ele>
        <time>2021-02-28T13:01:16Z</time>
      </trkpt>
      <trkpt lat="42.85456" lon="1.83817">
        <ele>1460.08</ele>
        <time>2021-02-28T13:01:18Z</time>
      </trkpt>
      <trkpt lat="42.85457" lon="1.83815">
        <ele>1459.173</ele>
        <time>2021-02-28T13:01:20Z</time>
      </trkpt>
      <trkpt lat="42.85459" lon="1.83813">
        <ele>1459.002</ele>
        <time>2021-02-28T13:01:22Z</time>
      </trkpt>
      <trkpt lat="42.8546" lon="1.8381">
        <ele>1458.466</ele>
        <time>2021-02-28T13:01:24Z</time>
      </trkpt>
      <trkpt lat="42.85462" lon="1.83809">
        <ele>1457.953</ele>
        <time>2021-02-28T13:01:26Z</time>
      </trkpt>
      <trkpt lat="42.85463" lon="1.83807">
        <ele>1457.47</ele>
        <time>2021-02-28T13:01:28Z</time>
      </trkpt>
      <trkpt lat="42.85464" lon="1.83806">
        <ele>1456.27</ele>
        <time>2021-02-28T13:01:30Z</time>
      </trkpt>
      <trkpt lat="42.85465" lon="1.83805">
        <ele>1452.607</ele>
        <time>2021-02-28T13:01:32Z</time>
      </trkpt>
      <trkpt lat="42.85466" lon="1.83805">
        <ele>1452.617</ele>
        <time>2021-02-28T13:01:34Z</time>
      </trkpt>
      <trkpt lat="42.85468" lon="1.83804">
        <ele>1452.549</ele>
        <time>2021-02-28T13:01:36Z</time>
      </trkpt>
      <trkpt lat="42.85469" lon="1.83803">
        <ele>1450.928</ele>
        <time>2021-02-28T13:01:38Z</time>
      </trkpt>
      <trkpt lat="42.85471" lon="1.83803">
        <ele>1450.979</ele>
        <time>2021-02-28T13:01:40Z</time>
      </trkpt>
      <trkpt lat="42.85473" lon="1.83804">
        <ele>1451.734</ele>
        <time>2021-02-28T13:01:42Z</time>
      </trkpt>
      <trkpt lat="42.85474" lon="1.83805">
        <ele>1450.908</ele>
        <time>2021-02-28T13:01:44Z</time>
      </trkpt>
      <trkpt lat="42.85476" lon="1.83805">
        <ele>1450.522</ele>
        <time>2021-02-28T13:01:46Z</time>
      </trkpt>
      <trkpt lat="42.85477" lon="1.83807">
        <ele>1449.501</ele>
        <time>2021-02-28T13:01:48Z</time>
      </trkpt>
      <trkpt lat="42.85479" lon="1.83808">
        <ele>1450.012</ele>
        <time>2021-02-28T13:01:50Z</time>
      </trkpt>
      <trkpt lat="42.8548" lon="1.83809">
        <ele>1448.317</ele>
        <time>2021-02-28T13:01:52Z</time>
      </trkpt>
      <trkpt lat="42.85481" lon="1.83811">
        <ele>1447.491</ele>
        <time>2021-02-28T13:01:54Z</time>
      </trkpt>
      <trkpt lat="42.85483" lon="1.83812">
        <ele>1447.503</ele>
        <time>2021-02-28T13:01:56Z</time>
      </trkpt>
      <trkpt lat="42.85484" lon="1.83812">
        <ele>1446.172</ele>
        <time>2021-02-28T13:01:58Z</time>
      </trkpt>
      <trkpt lat="42.85486" lon="1.83812">
        <ele>1446.531</ele>
        <time>2021-02-28T13:02:00Z</time>
      </trkpt>
      <trkpt lat="42.85488" lon="1.83812">
        <ele>1446.185</ele>
        <time>2021-02-28T13:02:02Z</time>
      </trkpt>
      <trkpt lat="42.8549" lon="1.83814">
        <ele>1446.853</ele>
        <time>2021-02-28T13:02:04Z</time>
      </trkpt>
      <trkpt lat="42.85492" lon="1.83813">
        <ele>1445.731</ele>
        <time>2021-02-28T13:02:06Z</time>
      </trkpt>
      <trkpt lat="42.85493" lon="1.83811">
        <ele>1444.945</ele>
        <time>2021-02-28T13:02:08Z</time>
      </trkpt>
      <trkpt lat="42.85495" lon="1.83812">
        <ele>1446.422</ele>
        <time>2021-02-28T13:02:10Z</time>
      </trkpt>
      <trkpt lat="42.85497" lon="1.83811">
        <ele>1445.284</ele>
        <time>2021-02-28T13:02:12Z</time>
      </trkpt>
      <trkpt lat="42.85499" lon="1.8381">
        <ele>1444.749</ele>
        <time>2021-02-28T13:02:14Z</time>
      </trkpt>
      <trkpt lat="42.855" lon="1.83809">
        <ele>1444.245</ele>
        <time>2021-02-28T13:02:16Z</time>
      </trkpt>
      <trkpt lat="42.85502" lon="1.83806">
        <ele>1442.723</ele>
        <time>2021-02-28T13:02:18Z</time>
      </trkpt>
      <trkpt lat="42.85503" lon="1.83805">
        <ele>1442.742</ele>
        <time>2021-02-28T13:02:20Z</time>
      </trkpt>
      <trkpt lat="42.85502" lon="1.83805">
        <ele>1442.15</ele>
        <time>2021-02-28T13:02:22Z</time>
      </trkpt>
      <trkpt lat="42.85502" lon="1.83805">
        <ele>1442.014</ele>
        <time>2021-02-28T13:02:24Z</time>
      </trkpt>
      <trkpt lat="42.85502" lon="1.83805">
        <ele>1441.996</ele>
        <time>2021-02-28T13:02:26Z</time>
      </trkpt>
      <trkpt lat="42.85505" lon="1.83806">
        <ele>1442.73</ele>
        <time>2021-02-28T13:02:28Z</time>
      </trkpt>
      <trkpt lat="42.85507" lon="1.83805">
        <ele>1442.817</ele>
        <time>2021-02-28T13:02:30Z</time>
      </trkpt>
      <trkpt lat="42.85508" lon="1.83804">
        <ele>1442.622</ele>
        <time>2021-02-28T13:02:31Z</time>
      </trkpt>
      <trkpt lat="42.85511" lon="1.83804">
        <ele>1441.496</ele>
        <time>2021-02-28T13:02:38Z</time>
      </trkpt>
      <trkpt lat="42.85513" lon="1.83804">
        <ele>1442.429</ele>
        <time>2021-02-28T13:02:40Z</time>
      </trkpt>
      <trkpt lat="42.85515" lon="1.83803">
        <ele>1442.471</ele>
        <time>2021-02-28T13:02:42Z</time>
      </trkpt>
      <trkpt lat="42.85516" lon="1.83802">
        <ele>1442.21</ele>
        <time>2021-02-28T13:02:44Z</time>
      </trkpt>
      <trkpt lat="42.85518" lon="1.83801">
        <ele>1442.676</ele>
        <time>2021-02-28T13:02:46Z</time>
      </trkpt>
      <trkpt lat="42.85519" lon="1.83797">
        <ele>1442.266</ele>
        <time>2021-02-28T13:02:48Z</time>
      </trkpt>
      <trkpt lat="42.85521" lon="1.83797">
        <ele>1441.916</ele>
        <time>2021-02-28T13:02:50Z</time>
      </trkpt>
      <trkpt lat="42.85522" lon="1.83797">
        <ele>1441.485</ele>
        <time>2021-02-28T13:02:52Z</time>
      </trkpt>
      <trkpt lat="42.85523" lon="1.83798">
        <ele>1441.008</ele>
        <time>2021-02-28T13:02:54Z</time>
      </trkpt>
      <trkpt lat="42.85525" lon="1.83798">
        <ele>1440.98</ele>
        <time>2021-02-28T13:02:56Z</time>
      </trkpt>
      <trkpt lat="42.85525" lon="1.83798">
        <ele>1440.831</ele>
        <time>2021-02-28T13:02:58Z</time>
      </trkpt>
      <trkpt lat="42.85526" lon="1.83797">
        <ele>1440.217</ele>
        <time>2021-02-28T13:03:00Z</time>
      </trkpt>
      <trkpt lat="42.85527" lon="1.83798">
        <ele>1439.689</ele>
        <time>2021-02-28T13:03:02Z</time>
      </trkpt>
      <trkpt lat="42.85528" lon="1.83799">
        <ele>1438.78</ele>
        <time>2021-02-28T13:03:04Z</time>
      </trkpt>
      <trkpt lat="42.8553" lon="1.83798">
        <ele>1438.164</ele>
        <time>2021-02-28T13:03:06Z</time>
      </trkpt>
      <trkpt lat="42.85532" lon="1.83798">
        <ele>1438.613</ele>
        <time>2021-02-28T13:03:08Z</time>
      </trkpt>
      <trkpt lat="42.85534" lon="1.83797">
        <ele>1438.229</ele>
        <time>2021-02-28T13:03:10Z</time>
      </trkpt>
      <trkpt lat="42.85535" lon="1.83797">
        <ele>1437.911</ele>
        <time>2021-02-28T13:03:12Z</time>
      </trkpt>
      <trkpt lat="42.85537" lon="1.83796">
        <ele>1438.26</ele>
        <time>2021-02-28T13:03:14Z</time>
      </trkpt>
      <trkpt lat="42.85538" lon="1.83794">
        <ele>1435.925</ele>
        <time>2021-02-28T13:03:16Z</time>
      </trkpt>
      <trkpt lat="42.8554" lon="1.83793">
        <ele>1435.046</ele>
        <time>2021-02-28T13:03:18Z</time>
      </trkpt>
      <trkpt lat="42.85542" lon="1.83792">
        <ele>1434.343</ele>
        <time>2021-02-28T13:03:20Z</time>
      </trkpt>
      <trkpt lat="42.85543" lon="1.83792">
        <ele>1433.731</ele>
        <time>2021-02-28T13:03:22Z</time>
      </trkpt>
      <trkpt lat="42.85545" lon="1.83791">
        <ele>1433.394</ele>
        <time>2021-02-28T13:03:24Z</time>
      </trkpt>
      <trkpt lat="42.85546" lon="1.8379">
        <ele>1433.272</ele>
        <time>2021-02-28T13:03:26Z</time>
      </trkpt>
      <trkpt lat="42.85547" lon="1.83789">
        <ele>1431.503</ele>
        <time>2021-02-28T13:03:28Z</time>
      </trkpt>
      <trkpt lat="42.85547" lon="1.83789">
        <ele>1430.803</ele>
        <time>2021-02-28T13:03:30Z</time>
      </trkpt>
      <trkpt lat="42.85549" lon="1.83788">
        <ele>1429.308</ele>
        <time>2021-02-28T13:03:32Z</time>
      </trkpt>
      <trkpt lat="42.85549" lon="1.83788">
        <ele>1429.268</ele>
        <time>2021-02-28T13:03:34Z</time>
      </trkpt>
      <trkpt lat="42.85548" lon="1.83787">
        <ele>1427.05</ele>
        <time>2021-02-28T13:03:36Z</time>
      </trkpt>
      <trkpt lat="42.85547" lon="1.83786">
        <ele>1424.985</ele>
        <time>2021-02-28T13:03:38Z</time>
      </trkpt>
      <trkpt lat="42.85546" lon="1.83784">
        <ele>1424.052</ele>
        <time>2021-02-28T13:03:40Z</time>
      </trkpt>
      <trkpt lat="42.85545" lon="1.83784">
        <ele>1422.239</ele>
        <time>2021-02-28T13:03:42Z</time>
      </trkpt>
      <trkpt lat="42.85544" lon="1.83783">
        <ele>1421.947</ele>
        <time>2021-02-28T13:03:44Z</time>
      </trkpt>
      <trkpt lat="42.85544" lon="1.83784">
        <ele>1421.684</ele>
        <time>2021-02-28T13:03:46Z</time>
      </trkpt>
      <trkpt lat="42.85546" lon="1.83784">
        <ele>1419.605</ele>
        <time>2021-02-28T13:03:48Z</time>
      </trkpt>
      <trkpt lat="42.85548" lon="1.83784">
        <ele>1419.313</ele>
        <time>2021-02-28T13:03:50Z</time>
      </trkpt>
      <trkpt lat="42.85548" lon="1.83784">
        <ele>1419.472</ele>
        <time>2021-02-28T13:03:52Z</time>
      </trkpt>
      <trkpt lat="42.85548" lon="1.83785">
        <ele>1419.465</ele>
        <time>2021-02-28T13:03:54Z</time>
      </trkpt>
      <trkpt lat="42.85548" lon="1.83785">
        <ele>1419.461</ele>
        <time>2021-02-28T13:03:56Z</time>
      </trkpt>
      <trkpt lat="42.85548" lon="1.83785">
        <ele>1419.124</ele>
        <time>2021-02-28T13:03:58Z</time>
      </trkpt>
      <trkpt lat="42.85548" lon="1.83786">
        <ele>1419.645</ele>
        <time>2021-02-28T13:04:00Z</time>
      </trkpt>
      <trkpt lat="42.85548" lon="1.83786">
        <ele>1419.642</ele>
        <time>2021-02-28T13:04:02Z</time>
      </trkpt>
      <trkpt lat="42.85548" lon="1.83786">
        <ele>1419.649</ele>
        <time>2021-02-28T13:04:04Z</time>
      </trkpt>
      <trkpt lat="42.85548" lon="1.83786">
        <ele>1419.652</ele>
        <time>2021-02-28T13:04:06Z</time>
      </trkpt>
      <trkpt lat="42.85548" lon="1.83786">
        <ele>1419.655</ele>
        <time>2021-02-28T13:04:08Z</time>
      </trkpt>
      <trkpt lat="42.85548" lon="1.83786">
        <ele>1419.656</ele>
        <time>2021-02-28T13:04:10Z</time>
      </trkpt>
      <trkpt lat="42.85548" lon="1.83786">
        <ele>1419.626</ele>
        <time>2021-02-28T13:04:12Z</time>
      </trkpt>
      <trkpt lat="42.85548" lon="1.83785">
        <ele>1419.299</ele>
        <time>2021-02-28T13:04:14Z</time>
      </trkpt>
      <trkpt lat="42.85548" lon="1.83785">
        <ele>1419.324</ele>
        <time>2021-02-28T13:04:16Z</time>
      </trkpt>
      <trkpt lat="42.85549" lon="1.83786">
        <ele>1419.761</ele>
        <time>2021-02-28T13:04:18Z</time>
      </trkpt>
      <trkpt lat="42.8555" lon="1.83787">
        <ele>1419.642</ele>
        <time>2021-02-28T13:04:20Z</time>
      </trkpt>
      <trkpt lat="42.8555" lon="1.83787">
        <ele>1419.157</ele>
        <time>2021-02-28T13:04:22Z</time>
      </trkpt>
      <trkpt lat="42.85551" lon="1.83788">
        <ele>1419.107</ele>
        <time>2021-02-28T13:04:24Z</time>
      </trkpt>
      <trkpt lat="42.85552" lon="1.83788">
        <ele>1418.528</ele>
        <time>2021-02-28T13:04:26Z</time>
      </trkpt>
      <trkpt lat="42.85552" lon="1.83788">
        <ele>1418.526</ele>
        <time>2021-02-28T13:04:28Z</time>
      </trkpt>
      <trkpt lat="42.85552" lon="1.83788">
        <ele>1418.531</ele>
        <time>2021-02-28T13:04:30Z</time>
      </trkpt>
      <trkpt lat="42.85553" lon="1.83788">
        <ele>1418.044</ele>
        <time>2021-02-28T13:04:32Z</time>
      </trkpt>
      <trkpt lat="42.85555" lon="1.83787">
        <ele>1416.638</ele>
        <time>2021-02-28T13:04:34Z</time>
      </trkpt>
      <trkpt lat="42.85557" lon="1.83788">
        <ele>1416.518</ele>
        <time>2021-02-28T13:04:36Z</time>
      </trkpt>
      <trkpt lat="42.85558" lon="1.8379">
        <ele>1416.271</ele>
        <time>2021-02-28T13:04:38Z</time>
      </trkpt>
      <trkpt lat="42.85558" lon="1.83792">
        <ele>1416.838</ele>
        <time>2021-02-28T13:04:40Z</time>
      </trkpt>
      <trkpt lat="42.8556" lon="1.83792">
        <ele>1417.258</ele>
        <time>2021-02-28T13:04:42Z</time>
      </trkpt>
      <trkpt lat="42.85561" lon="1.83793">
        <ele>1415.205</ele>
        <time>2021-02-28T13:04:44Z</time>
      </trkpt>
      <trkpt lat="42.85562" lon="1.83793">
        <ele>1415.198</ele>
        <time>2021-02-28T13:04:46Z</time>
      </trkpt>
      <trkpt lat="42.85563" lon="1.83795">
        <ele>1415.739</ele>
        <time>2021-02-28T13:04:48Z</time>
      </trkpt>
      <trkpt lat="42.85566" lon="1.83795">
        <ele>1417.197</ele>
        <time>2021-02-28T13:04:50Z</time>
      </trkpt>
      <trkpt lat="42.85568" lon="1.83795">
        <ele>1416.998</ele>
        <time>2021-02-28T13:04:52Z</time>
      </trkpt>
      <trkpt lat="42.85569" lon="1.83797">
        <ele>1416.026</ele>
        <time>2021-02-28T13:04:54Z</time>
      </trkpt>
      <trkpt lat="42.8557" lon="1.83798">
        <ele>1416.55</ele>
        <time>2021-02-28T13:04:56Z</time>
      </trkpt>
      <trkpt lat="42.85571" lon="1.838">
        <ele>1416.676</ele>
        <time>2021-02-28T13:04:58Z</time>
      </trkpt>
      <trkpt lat="42.85572" lon="1.83799">
        <ele>1415.591</ele>
        <time>2021-02-28T13:05:00Z</time>
      </trkpt>
      <trkpt lat="42.85572" lon="1.83798">
        <ele>1415.027</ele>
        <time>2021-02-28T13:05:02Z</time>
      </trkpt>
      <trkpt lat="42.85573" lon="1.838">
        <ele>1414.593</ele>
        <time>2021-02-28T13:05:04Z</time>
      </trkpt>
      <trkpt lat="42.85574" lon="1.838">
        <ele>1412.49</ele>
        <time>2021-02-28T13:05:06Z</time>
      </trkpt>
      <trkpt lat="42.85575" lon="1.838">
        <ele>1411.304</ele>
        <time>2021-02-28T13:05:08Z</time>
      </trkpt>
      <trkpt lat="42.85577" lon="1.83801">
        <ele>1411.395</ele>
        <time>2021-02-28T13:05:09Z</time>
      </trkpt>
      <trkpt lat="42.85583" lon="1.838">
        <ele>1410.327</ele>
        <time>2021-02-28T13:05:16Z</time>
      </trkpt>
      <trkpt lat="42.85584" lon="1.83799">
        <ele>1409.817</ele>
        <time>2021-02-28T13:05:18Z</time>
      </trkpt>
      <trkpt lat="42.85585" lon="1.838">
        <ele>1410.367</ele>
        <time>2021-02-28T13:05:20Z</time>
      </trkpt>
      <trkpt lat="42.85585" lon="1.838">
        <ele>1410.573</ele>
        <time>2021-02-28T13:05:22Z</time>
      </trkpt>
      <trkpt lat="42.85585" lon="1.838">
        <ele>1409.725</ele>
        <time>2021-02-28T13:05:24Z</time>
      </trkpt>
      <trkpt lat="42.85586" lon="1.83799">
        <ele>1408.191</ele>
        <time>2021-02-28T13:05:26Z</time>
      </trkpt>
      <trkpt lat="42.85584" lon="1.83799">
        <ele>1407.918</ele>
        <time>2021-02-28T13:05:28Z</time>
      </trkpt>
      <trkpt lat="42.85583" lon="1.83798">
        <ele>1405.543</ele>
        <time>2021-02-28T13:05:30Z</time>
      </trkpt>
      <trkpt lat="42.85584" lon="1.83798">
        <ele>1405.361</ele>
        <time>2021-02-28T13:05:31Z</time>
      </trkpt>
      <trkpt lat="42.85583" lon="1.83798">
        <ele>1404.49</ele>
        <time>2021-02-28T13:05:37Z</time>
      </trkpt>
      <trkpt lat="42.85583" lon="1.83798">
        <ele>1404.487</ele>
        <time>2021-02-28T13:05:39Z</time>
      </trkpt>
      <trkpt lat="42.85583" lon="1.83798">
        <ele>1404.488</ele>
        <time>2021-02-28T13:05:41Z</time>
      </trkpt>
      <trkpt lat="42.85584" lon="1.83798">
        <ele>1403.927</ele>
        <time>2021-02-28T13:05:43Z</time>
      </trkpt>
      <trkpt lat="42.85586" lon="1.83796">
        <ele>1403.618</ele>
        <time>2021-02-28T13:05:45Z</time>
      </trkpt>
      <trkpt lat="42.85586" lon="1.83795">
        <ele>1403.528</ele>
        <time>2021-02-28T13:05:47Z</time>
      </trkpt>
      <trkpt lat="42.85587" lon="1.83794">
        <ele>1403.53</ele>
        <time>2021-02-28T13:05:49Z</time>
      </trkpt>
      <trkpt lat="42.85588" lon="1.83794">
        <ele>1403.706</ele>
        <time>2021-02-28T13:05:51Z</time>
      </trkpt>
      <trkpt lat="42.85589" lon="1.83793">
        <ele>1403.707</ele>
        <time>2021-02-28T13:05:53Z</time>
      </trkpt>
      <trkpt lat="42.85589" lon="1.83793">
        <ele>1403.704</ele>
        <time>2021-02-28T13:05:55Z</time>
      </trkpt>
      <trkpt lat="42.85588" lon="1.83793">
        <ele>1402.707</ele>
        <time>2021-02-28T13:05:57Z</time>
      </trkpt>
      <trkpt lat="42.85588" lon="1.83791">
        <ele>1401.511</ele>
        <time>2021-02-28T13:05:59Z</time>
      </trkpt>
      <trkpt lat="42.8559" lon="1.8379">
        <ele>1402.544</ele>
        <time>2021-02-28T13:06:01Z</time>
      </trkpt>
      <trkpt lat="42.85591" lon="1.83789">
        <ele>1401.487</ele>
        <time>2021-02-28T13:06:03Z</time>
      </trkpt>
      <trkpt lat="42.8559" lon="1.83789">
        <ele>1401.924</ele>
        <time>2021-02-28T13:06:05Z</time>
      </trkpt>
      <trkpt lat="42.8559" lon="1.83789">
        <ele>1402.295</ele>
        <time>2021-02-28T13:06:07Z</time>
      </trkpt>
      <trkpt lat="42.8559" lon="1.83789">
        <ele>1402.293</ele>
        <time>2021-02-28T13:06:09Z</time>
      </trkpt>
      <trkpt lat="42.8559" lon="1.83789">
        <ele>1402.461</ele>
        <time>2021-02-28T13:06:11Z</time>
      </trkpt>
      <trkpt lat="42.85589" lon="1.83789">
        <ele>1402.781</ele>
        <time>2021-02-28T13:06:13Z</time>
      </trkpt>
      <trkpt lat="42.8559" lon="1.83788">
        <ele>1403.596</ele>
        <time>2021-02-28T13:06:15Z</time>
      </trkpt>
      <trkpt lat="42.85591" lon="1.83788">
        <ele>1403.191</ele>
        <time>2021-02-28T13:06:17Z</time>
      </trkpt>
      <trkpt lat="42.85592" lon="1.83787">
        <ele>1403.221</ele>
        <time>2021-02-28T13:06:19Z</time>
      </trkpt>
      <trkpt lat="42.85592" lon="1.83787">
        <ele>1403.226</ele>
        <time>2021-02-28T13:06:21Z</time>
      </trkpt>
      <trkpt lat="42.85592" lon="1.83787">
        <ele>1403.234</ele>
        <time>2021-02-28T13:06:23Z</time>
      </trkpt>
      <trkpt lat="42.85592" lon="1.83787">
        <ele>1403.25</ele>
        <time>2021-02-28T13:06:25Z</time>
      </trkpt>
      <trkpt lat="42.85592" lon="1.83787">
        <ele>1403.259</ele>
        <time>2021-02-28T13:06:27Z</time>
      </trkpt>
      <trkpt lat="42.85592" lon="1.83787">
        <ele>1403.268</ele>
        <time>2021-02-28T13:06:29Z</time>
      </trkpt>
      <trkpt lat="42.85592" lon="1.83787">
        <ele>1403.284</ele>
        <time>2021-02-28T13:06:31Z</time>
      </trkpt>
      <trkpt lat="42.85593" lon="1.83787">
        <ele>1403.295</ele>
        <time>2021-02-28T13:06:33Z</time>
      </trkpt>
      <trkpt lat="42.85593" lon="1.83787">
        <ele>1403.295</ele>
        <time>2021-02-28T13:06:35Z</time>
      </trkpt>
      <trkpt lat="42.85593" lon="1.83787">
        <ele>1403.298</ele>
        <time>2021-02-28T13:06:37Z</time>
      </trkpt>
      <trkpt lat="42.85593" lon="1.83787">
        <ele>1403.304</ele>
        <time>2021-02-28T13:06:39Z</time>
      </trkpt>
      <trkpt lat="42.85593" lon="1.83787">
        <ele>1403.309</ele>
        <time>2021-02-28T13:06:41Z</time>
      </trkpt>
      <trkpt lat="42.85593" lon="1.83787">
        <ele>1403.309</ele>
        <time>2021-02-28T13:06:43Z</time>
      </trkpt>
      <trkpt lat="42.85593" lon="1.83787">
        <ele>1403.313</ele>
        <time>2021-02-28T13:06:45Z</time>
      </trkpt>
      <trkpt lat="42.85593" lon="1.83787">
        <ele>1403.322</ele>
        <time>2021-02-28T13:06:47Z</time>
      </trkpt>
      <trkpt lat="42.85593" lon="1.83787">
        <ele>1403.318</ele>
        <time>2021-02-28T13:06:49Z</time>
      </trkpt>
      <trkpt lat="42.85593" lon="1.83787">
        <ele>1403.316</ele>
        <time>2021-02-28T13:06:51Z</time>
      </trkpt>
      <trkpt lat="42.85593" lon="1.83787">
        <ele>1403.323</ele>
        <time>2021-02-28T13:06:53Z</time>
      </trkpt>
      <trkpt lat="42.85593" lon="1.83787">
        <ele>1403.322</ele>
        <time>2021-02-28T13:06:55Z</time>
      </trkpt>
      <trkpt lat="42.85593" lon="1.83787">
        <ele>1403.328</ele>
        <time>2021-02-28T13:06:57Z</time>
      </trkpt>
      <trkpt lat="42.85593" lon="1.83787">
        <ele>1403.342</ele>
        <time>2021-02-28T13:06:59Z</time>
      </trkpt>
      <trkpt lat="42.85593" lon="1.83787">
        <ele>1403.341</ele>
        <time>2021-02-28T13:07:01Z</time>
      </trkpt>
      <trkpt lat="42.85593" lon="1.83787">
        <ele>1403.045</ele>
        <time>2021-02-28T13:07:03Z</time>
      </trkpt>
      <trkpt lat="42.85592" lon="1.83787">
        <ele>1403.034</ele>
        <time>2021-02-28T13:07:05Z</time>
      </trkpt>
      <trkpt lat="42.85592" lon="1.83787">
        <ele>1403.054</ele>
        <time>2021-02-28T13:07:07Z</time>
      </trkpt>
      <trkpt lat="42.85592" lon="1.83787">
        <ele>1402.914</ele>
        <time>2021-02-28T13:07:09Z</time>
      </trkpt>
      <trkpt lat="42.85592" lon="1.83787">
        <ele>1402.925</ele>
        <time>2021-02-28T13:07:11Z</time>
      </trkpt>
      <trkpt lat="42.85592" lon="1.83787">
        <ele>1402.928</ele>
        <time>2021-02-28T13:07:13Z</time>
      </trkpt>
      <trkpt lat="42.85592" lon="1.83787">
        <ele>1402.925</ele>
        <time>2021-02-28T13:07:15Z</time>
      </trkpt>
      <trkpt lat="42.85592" lon="1.83787">
        <ele>1402.307</ele>
        <time>2021-02-28T13:07:17Z</time>
      </trkpt>
      <trkpt lat="42.85591" lon="1.83788">
        <ele>1401.054</ele>
        <time>2021-02-28T13:07:19Z</time>
      </trkpt>
      <trkpt lat="42.85588" lon="1.83791">
        <ele>1398.467</ele>
        <time>2021-02-28T13:07:21Z</time>
      </trkpt>
      <trkpt lat="42.85586" lon="1.8379">
        <ele>1396.136</ele>
        <time>2021-02-28T13:07:23Z</time>
      </trkpt>
      <trkpt lat="42.85585" lon="1.8379">
        <ele>1394.399</ele>
        <time>2021-02-28T13:07:25Z</time>
      </trkpt>
      <trkpt lat="42.85585" lon="1.8379">
        <ele>1393.523</ele>
        <time>2021-02-28T13:07:27Z</time>
      </trkpt>
      <trkpt lat="42.85585" lon="1.8379">
        <ele>1393.528</ele>
        <time>2021-02-28T13:07:29Z</time>
      </trkpt>
      <trkpt lat="42.85585" lon="1.8379">
        <ele>1393.523</ele>
        <time>2021-02-28T13:07:31Z</time>
      </trkpt>
      <trkpt lat="42.85585" lon="1.8379">
        <ele>1393.529</ele>
        <time>2021-02-28T13:07:33Z</time>
      </trkpt>
      <trkpt lat="42.85585" lon="1.8379">
        <ele>1393.54</ele>
        <time>2021-02-28T13:07:35Z</time>
      </trkpt>
      <trkpt lat="42.85585" lon="1.8379">
        <ele>1393.544</ele>
        <time>2021-02-28T13:07:37Z</time>
      </trkpt>
      <trkpt lat="42.85585" lon="1.8379">
        <ele>1393.543</ele>
        <time>2021-02-28T13:07:39Z</time>
      </trkpt>
      <trkpt lat="42.85585" lon="1.8379">
        <ele>1393.54</ele>
        <time>2021-02-28T13:07:41Z</time>
      </trkpt>
      <trkpt lat="42.85585" lon="1.8379">
        <ele>1393.535</ele>
        <time>2021-02-28T13:07:43Z</time>
      </trkpt>
      <trkpt lat="42.85585" lon="1.8379">
        <ele>1393.537</ele>
        <time>2021-02-28T13:07:45Z</time>
      </trkpt>
      <trkpt lat="42.85585" lon="1.83791">
        <ele>1393.441</ele>
        <time>2021-02-28T13:07:47Z</time>
      </trkpt>
      <trkpt lat="42.85588" lon="1.8379">
        <ele>1393.833</ele>
        <time>2021-02-28T13:07:49Z</time>
      </trkpt>
      <trkpt lat="42.85591" lon="1.8379">
        <ele>1393.332</ele>
        <time>2021-02-28T13:07:51Z</time>
      </trkpt>
      <trkpt lat="42.85593" lon="1.83791">
        <ele>1394.193</ele>
        <time>2021-02-28T13:07:53Z</time>
      </trkpt>
      <trkpt lat="42.85593" lon="1.83793">
        <ele>1393.848</ele>
        <time>2021-02-28T13:07:55Z</time>
      </trkpt>
      <trkpt lat="42.85594" lon="1.83794">
        <ele>1394.076</ele>
        <time>2021-02-28T13:07:57Z</time>
      </trkpt>
      <trkpt lat="42.85596" lon="1.83795">
        <ele>1394.123</ele>
        <time>2021-02-28T13:07:59Z</time>
      </trkpt>
      <trkpt lat="42.85598" lon="1.83795">
        <ele>1394.301</ele>
        <time>2021-02-28T13:08:01Z</time>
      </trkpt>
      <trkpt lat="42.856" lon="1.83795">
        <ele>1394.885</ele>
        <time>2021-02-28T13:08:03Z</time>
      </trkpt>
      <trkpt lat="42.85601" lon="1.83796">
        <ele>1393.549</ele>
        <time>2021-02-28T13:08:05Z</time>
      </trkpt>
      <trkpt lat="42.85602" lon="1.83797">
        <ele>1392.477</ele>
        <time>2021-02-28T13:08:07Z</time>
      </trkpt>
      <trkpt lat="42.85603" lon="1.83798">
        <ele>1392.119</ele>
        <time>2021-02-28T13:08:09Z</time>
      </trkpt>
      <trkpt lat="42.85604" lon="1.83799">
        <ele>1392.658</ele>
        <time>2021-02-28T13:08:11Z</time>
      </trkpt>
      <trkpt lat="42.85606" lon="1.83799">
        <ele>1392.71</ele>
        <time>2021-02-28T13:08:13Z</time>
      </trkpt>
      <trkpt lat="42.85606" lon="1.83799">
        <ele>1391.345</ele>
        <time>2021-02-28T13:08:15Z</time>
      </trkpt>
      <trkpt lat="42.85608" lon="1.838">
        <ele>1391.233</ele>
        <time>2021-02-28T13:08:17Z</time>
      </trkpt>
      <trkpt lat="42.85608" lon="1.83801">
        <ele>1391.085</ele>
        <time>2021-02-28T13:08:19Z</time>
      </trkpt>
      <trkpt lat="42.85608" lon="1.83801">
        <ele>1391.077</ele>
        <time>2021-02-28T13:08:21Z</time>
      </trkpt>
      <trkpt lat="42.85609" lon="1.83801">
        <ele>1391.193</ele>
        <time>2021-02-28T13:08:23Z</time>
      </trkpt>
      <trkpt lat="42.85609" lon="1.83801">
        <ele>1391.226</ele>
        <time>2021-02-28T13:08:25Z</time>
      </trkpt>
      <trkpt lat="42.85608" lon="1.838">
        <ele>1389.842</ele>
        <time>2021-02-28T13:08:27Z</time>
      </trkpt>
      <trkpt lat="42.85609" lon="1.83802">
        <ele>1390.939</ele>
        <time>2021-02-28T13:08:29Z</time>
      </trkpt>
      <trkpt lat="42.85611" lon="1.83803">
        <ele>1390.687</ele>
        <time>2021-02-28T13:08:31Z</time>
      </trkpt>
      <trkpt lat="42.85612" lon="1.83803">
        <ele>1391.042</ele>
        <time>2021-02-28T13:08:33Z</time>
      </trkpt>
      <trkpt lat="42.85612" lon="1.83803">
        <ele>1390.498</ele>
        <time>2021-02-28T13:08:35Z</time>
      </trkpt>
      <trkpt lat="42.85613" lon="1.83803">
        <ele>1390.487</ele>
        <time>2021-02-28T13:08:37Z</time>
      </trkpt>
      <trkpt lat="42.85613" lon="1.83805">
        <ele>1390.289</ele>
        <time>2021-02-28T13:08:39Z</time>
      </trkpt>
      <trkpt lat="42.85614" lon="1.83806">
        <ele>1390.991</ele>
        <time>2021-02-28T13:08:41Z</time>
      </trkpt>
      <trkpt lat="42.85614" lon="1.83806">
        <ele>1390.917</ele>
        <time>2021-02-28T13:08:43Z</time>
      </trkpt>
      <trkpt lat="42.85614" lon="1.83806">
        <ele>1390.555</ele>
        <time>2021-02-28T13:08:45Z</time>
      </trkpt>
      <trkpt lat="42.85614" lon="1.83806">
        <ele>1390.319</ele>
        <time>2021-02-28T13:08:47Z</time>
      </trkpt>
      <trkpt lat="42.85614" lon="1.83806">
        <ele>1390.287</ele>
        <time>2021-02-28T13:08:49Z</time>
      </trkpt>
      <trkpt lat="42.85615" lon="1.83807">
        <ele>1389.446</ele>
        <time>2021-02-28T13:08:51Z</time>
      </trkpt>
      <trkpt lat="42.85615" lon="1.83807">
        <ele>1388.347</ele>
        <time>2021-02-28T13:08:53Z</time>
      </trkpt>
      <trkpt lat="42.85614" lon="1.83808">
        <ele>1388.16</ele>
        <time>2021-02-28T13:08:55Z</time>
      </trkpt>
      <trkpt lat="42.85615" lon="1.83808">
        <ele>1387.631</ele>
        <time>2021-02-28T13:08:57Z</time>
      </trkpt>
      <trkpt lat="42.85615" lon="1.83808">
        <ele>1387.304</ele>
        <time>2021-02-28T13:08:59Z</time>
      </trkpt>
      <trkpt lat="42.85616" lon="1.83808">
        <ele>1387.414</ele>
        <time>2021-02-28T13:09:01Z</time>
      </trkpt>
      <trkpt lat="42.85618" lon="1.83809">
        <ele>1388.094</ele>
        <time>2021-02-28T13:09:03Z</time>
      </trkpt>
      <trkpt lat="42.85618" lon="1.83809">
        <ele>1387.629</ele>
        <time>2021-02-28T13:09:05Z</time>
      </trkpt>
      <trkpt lat="42.85619" lon="1.8381">
        <ele>1387.38</ele>
        <time>2021-02-28T13:09:07Z</time>
      </trkpt>
      <trkpt lat="42.85619" lon="1.8381">
        <ele>1386.529</ele>
        <time>2021-02-28T13:09:09Z</time>
      </trkpt>
      <trkpt lat="42.8562" lon="1.8381">
        <ele>1385.927</ele>
        <time>2021-02-28T13:09:11Z</time>
      </trkpt>
      <trkpt lat="42.85621" lon="1.8381">
        <ele>1384.872</ele>
        <time>2021-02-28T13:09:13Z</time>
      </trkpt>
      <trkpt lat="42.85621" lon="1.83809">
        <ele>1383.556</ele>
        <time>2021-02-28T13:09:15Z</time>
      </trkpt>
      <trkpt lat="42.85622" lon="1.83808">
        <ele>1382.044</ele>
        <time>2021-02-28T13:09:17Z</time>
      </trkpt>
      <trkpt lat="42.85622" lon="1.83807">
        <ele>1381.927</ele>
        <time>2021-02-28T13:09:19Z</time>
      </trkpt>
      <trkpt lat="42.85622" lon="1.83807">
        <ele>1381.928</ele>
        <time>2021-02-28T13:09:21Z</time>
      </trkpt>
      <trkpt lat="42.85622" lon="1.83807">
        <ele>1381.683</ele>
        <time>2021-02-28T13:09:23Z</time>
      </trkpt>
      <trkpt lat="42.85623" lon="1.83807">
        <ele>1381.337</ele>
        <time>2021-02-28T13:09:25Z</time>
      </trkpt>
      <trkpt lat="42.85623" lon="1.83807">
        <ele>1381.37</ele>
        <time>2021-02-28T13:09:27Z</time>
      </trkpt>
      <trkpt lat="42.85624" lon="1.83807">
        <ele>1380.911</ele>
        <time>2021-02-28T13:09:29Z</time>
      </trkpt>
      <trkpt lat="42.85625" lon="1.83807">
        <ele>1380.502</ele>
        <time>2021-02-28T13:09:31Z</time>
      </trkpt>
      <trkpt lat="42.85627" lon="1.83806">
        <ele>1379.741</ele>
        <time>2021-02-28T13:09:33Z</time>
      </trkpt>
      <trkpt lat="42.85629" lon="1.83805">
        <ele>1379.513</ele>
        <time>2021-02-28T13:09:35Z</time>
      </trkpt>
      <trkpt lat="42.85629" lon="1.83805">
        <ele>1378.303</ele>
        <time>2021-02-28T13:09:37Z</time>
      </trkpt>
      <trkpt lat="42.85629" lon="1.83804">
        <ele>1375.958</ele>
        <time>2021-02-28T13:09:39Z</time>
      </trkpt>
      <trkpt lat="42.85627" lon="1.83802">
        <ele>1373.531</ele>
        <time>2021-02-28T13:09:41Z</time>
      </trkpt>
      <trkpt lat="42.85625" lon="1.83801">
        <ele>1372.552</ele>
        <time>2021-02-28T13:09:43Z</time>
      </trkpt>
      <trkpt lat="42.85624" lon="1.83801">
        <ele>1371.382</ele>
        <time>2021-02-28T13:09:45Z</time>
      </trkpt>
      <trkpt lat="42.85624" lon="1.83804">
        <ele>1371.956</ele>
        <time>2021-02-28T13:09:47Z</time>
      </trkpt>
      <trkpt lat="42.85624" lon="1.83804">
        <ele>1371.051</ele>
        <time>2021-02-28T13:09:49Z</time>
      </trkpt>
      <trkpt lat="42.85624" lon="1.83805">
        <ele>1370.333</ele>
        <time>2021-02-28T13:09:51Z</time>
      </trkpt>
      <trkpt lat="42.85625" lon="1.83806">
        <ele>1370.086</ele>
        <time>2021-02-28T13:09:53Z</time>
      </trkpt>
      <trkpt lat="42.85626" lon="1.83808">
        <ele>1370.232</ele>
        <time>2021-02-28T13:09:55Z</time>
      </trkpt>
      <trkpt lat="42.85626" lon="1.83809">
        <ele>1370.239</ele>
        <time>2021-02-28T13:09:57Z</time>
      </trkpt>
      <trkpt lat="42.85626" lon="1.83809">
        <ele>1370.231</ele>
        <time>2021-02-28T13:09:59Z</time>
      </trkpt>
      <trkpt lat="42.85626" lon="1.83809">
        <ele>1370.233</ele>
        <time>2021-02-28T13:10:01Z</time>
      </trkpt>
      <trkpt lat="42.85626" lon="1.8381">
        <ele>1369.504</ele>
        <time>2021-02-28T13:10:03Z</time>
      </trkpt>
      <trkpt lat="42.85627" lon="1.83812">
        <ele>1369.448</ele>
        <time>2021-02-28T13:10:05Z</time>
      </trkpt>
      <trkpt lat="42.85626" lon="1.83814">
        <ele>1369.425</ele>
        <time>2021-02-28T13:10:07Z</time>
      </trkpt>
      <trkpt lat="42.85627" lon="1.83815">
        <ele>1370.569</ele>
        <time>2021-02-28T13:10:09Z</time>
      </trkpt>
      <trkpt lat="42.85627" lon="1.83815">
        <ele>1370.795</ele>
        <time>2021-02-28T13:10:11Z</time>
      </trkpt>
      <trkpt lat="42.85627" lon="1.83816">
        <ele>1370.909</ele>
        <time>2021-02-28T13:10:13Z</time>
      </trkpt>
      <trkpt lat="42.85627" lon="1.83816">
        <ele>1370.935</ele>
        <time>2021-02-28T13:10:15Z</time>
      </trkpt>
      <trkpt lat="42.85627" lon="1.83816">
        <ele>1370.938</ele>
        <time>2021-02-28T13:10:17Z</time>
      </trkpt>
      <trkpt lat="42.85627" lon="1.83816">
        <ele>1370.946</ele>
        <time>2021-02-28T13:10:19Z</time>
      </trkpt>
      <trkpt lat="42.85627" lon="1.83816">
        <ele>1370.944</ele>
        <time>2021-02-28T13:10:21Z</time>
      </trkpt>
      <trkpt lat="42.85627" lon="1.83817">
        <ele>1370.52</ele>
        <time>2021-02-28T13:10:23Z</time>
      </trkpt>
      <trkpt lat="42.85627" lon="1.83818">
        <ele>1370.488</ele>
        <time>2021-02-28T13:10:25Z</time>
      </trkpt>
      <trkpt lat="42.85627" lon="1.83818">
        <ele>1370.481</ele>
        <time>2021-02-28T13:10:27Z</time>
      </trkpt>
      <trkpt lat="42.85628" lon="1.83818">
        <ele>1371.302</ele>
        <time>2021-02-28T13:10:29Z</time>
      </trkpt>
      <trkpt lat="42.85628" lon="1.83819">
        <ele>1371.297</ele>
        <time>2021-02-28T13:10:31Z</time>
      </trkpt>
      <trkpt lat="42.85628" lon="1.83819">
        <ele>1370.882</ele>
        <time>2021-02-28T13:10:33Z</time>
      </trkpt>
      <trkpt lat="42.85628" lon="1.83819">
        <ele>1370.839</ele>
        <time>2021-02-28T13:10:35Z</time>
      </trkpt>
      <trkpt lat="42.85629" lon="1.8382">
        <ele>1371.556</ele>
        <time>2021-02-28T13:10:37Z</time>
      </trkpt>
      <trkpt lat="42.85629" lon="1.83822">
        <ele>1371.62</ele>
        <time>2021-02-28T13:10:39Z</time>
      </trkpt>
      <trkpt lat="42.85629" lon="1.83822">
        <ele>1371.613</ele>
        <time>2021-02-28T13:10:41Z</time>
      </trkpt>
      <trkpt lat="42.85629" lon="1.83822">
        <ele>1372.072</ele>
        <time>2021-02-28T13:10:43Z</time>
      </trkpt>
      <trkpt lat="42.8563" lon="1.83823">
        <ele>1372.713</ele>
        <time>2021-02-28T13:10:45Z</time>
      </trkpt>
      <trkpt lat="42.8563" lon="1.83824">
        <ele>1372.693</ele>
        <time>2021-02-28T13:10:47Z</time>
      </trkpt>
      <trkpt lat="42.85631" lon="1.83824">
        <ele>1372.13</ele>
        <time>2021-02-28T13:10:50Z</time>
      </trkpt>
      <trkpt lat="42.85631" lon="1.83824">
        <ele>1371.839</ele>
        <time>2021-02-28T13:10:52Z</time>
      </trkpt>
      <trkpt lat="42.85631" lon="1.83824">
        <ele>1369.403</ele>
        <time>2021-02-28T13:10:54Z</time>
      </trkpt>
      <trkpt lat="42.85633" lon="1.83829">
        <ele>1368.584</ele>
        <time>2021-02-28T13:10:56Z</time>
      </trkpt>
      <trkpt lat="42.85634" lon="1.83835">
        <ele>1369.455</ele>
        <time>2021-02-28T13:10:58Z</time>
      </trkpt>
      <trkpt lat="42.85634" lon="1.83839">
        <ele>1370.25</ele>
        <time>2021-02-28T13:11:00Z</time>
      </trkpt>
      <trkpt lat="42.85636" lon="1.8384">
        <ele>1370.795</ele>
        <time>2021-02-28T13:11:01Z</time>
      </trkpt>
      <trkpt lat="42.85641" lon="1.83837">
        <ele>1370.133</ele>
        <time>2021-02-28T13:11:04Z</time>
      </trkpt>
      <trkpt lat="42.85642" lon="1.83834">
        <ele>1370.761</ele>
        <time>2021-02-28T13:11:06Z</time>
      </trkpt>
      <trkpt lat="42.85644" lon="1.83832">
        <ele>1370.667</ele>
        <time>2021-02-28T13:11:08Z</time>
      </trkpt>
      <trkpt lat="42.85645" lon="1.83832">
        <ele>1371.054</ele>
        <time>2021-02-28T13:11:10Z</time>
      </trkpt>
      <trkpt lat="42.85647" lon="1.83832">
        <ele>1370.956</ele>
        <time>2021-02-28T13:11:12Z</time>
      </trkpt>
      <trkpt lat="42.85648" lon="1.83829">
        <ele>1368.023</ele>
        <time>2021-02-28T13:11:14Z</time>
      </trkpt>
      <trkpt lat="42.85646" lon="1.83827">
        <ele>1364.534</ele>
        <time>2021-02-28T13:11:16Z</time>
      </trkpt>
      <trkpt lat="42.85647" lon="1.83826">
        <ele>1367.221</ele>
        <time>2021-02-28T13:11:18Z</time>
      </trkpt>
      <trkpt lat="42.85646" lon="1.83827">
        <ele>1364.232</ele>
        <time>2021-02-28T13:11:20Z</time>
      </trkpt>
      <trkpt lat="42.85645" lon="1.83826">
        <ele>1364.201</ele>
        <time>2021-02-28T13:11:22Z</time>
      </trkpt>
      <trkpt lat="42.85646" lon="1.83827">
        <ele>1365.095</ele>
        <time>2021-02-28T13:11:24Z</time>
      </trkpt>
      <trkpt lat="42.85648" lon="1.83825">
        <ele>1365.892</ele>
        <time>2021-02-28T13:11:26Z</time>
      </trkpt>
      <trkpt lat="42.85649" lon="1.83825">
        <ele>1365.374</ele>
        <time>2021-02-28T13:11:28Z</time>
      </trkpt>
      <trkpt lat="42.8565" lon="1.83826">
        <ele>1365.529</ele>
        <time>2021-02-28T13:11:30Z</time>
      </trkpt>
      <trkpt lat="42.85652" lon="1.83826">
        <ele>1364.324</ele>
        <time>2021-02-28T13:11:32Z</time>
      </trkpt>
      <trkpt lat="42.85651" lon="1.83826">
        <ele>1363.153</ele>
        <time>2021-02-28T13:11:34Z</time>
      </trkpt>
      <trkpt lat="42.85651" lon="1.83826">
        <ele>1363.161</ele>
        <time>2021-02-28T13:11:36Z</time>
      </trkpt>
      <trkpt lat="42.85651" lon="1.83826">
        <ele>1363.152</ele>
        <time>2021-02-28T13:11:38Z</time>
      </trkpt>
      <trkpt lat="42.85651" lon="1.83826">
        <ele>1363.136</ele>
        <time>2021-02-28T13:11:40Z</time>
      </trkpt>
      <trkpt lat="42.85651" lon="1.83825">
        <ele>1363.431</ele>
        <time>2021-02-28T13:11:42Z</time>
      </trkpt>
      <trkpt lat="42.85651" lon="1.83825">
        <ele>1363.47</ele>
        <time>2021-02-28T13:11:44Z</time>
      </trkpt>
      <trkpt lat="42.85652" lon="1.83823">
        <ele>1362.494</ele>
        <time>2021-02-28T13:11:46Z</time>
      </trkpt>
      <trkpt lat="42.85654" lon="1.83822">
        <ele>1363.639</ele>
        <time>2021-02-28T13:11:48Z</time>
      </trkpt>
      <trkpt lat="42.85656" lon="1.83821">
        <ele>1363.305</ele>
        <time>2021-02-28T13:11:50Z</time>
      </trkpt>
      <trkpt lat="42.85656" lon="1.8382">
        <ele>1363.356</ele>
        <time>2021-02-28T13:11:52Z</time>
      </trkpt>
      <trkpt lat="42.85657" lon="1.83818">
        <ele>1363.322</ele>
        <time>2021-02-28T13:11:54Z</time>
      </trkpt>
      <trkpt lat="42.85657" lon="1.83817">
        <ele>1363.617</ele>
        <time>2021-02-28T13:11:56Z</time>
      </trkpt>
      <trkpt lat="42.85657" lon="1.83817">
        <ele>1363.622</ele>
        <time>2021-02-28T13:11:58Z</time>
      </trkpt>
      <trkpt lat="42.85657" lon="1.83817">
        <ele>1363.638</ele>
        <time>2021-02-28T13:12:00Z</time>
      </trkpt>
      <trkpt lat="42.85657" lon="1.83817">
        <ele>1363.88</ele>
        <time>2021-02-28T13:12:02Z</time>
      </trkpt>
      <trkpt lat="42.85658" lon="1.83817">
        <ele>1363.06</ele>
        <time>2021-02-28T13:12:04Z</time>
      </trkpt>
      <trkpt lat="42.85659" lon="1.83816">
        <ele>1363.673</ele>
        <time>2021-02-28T13:12:06Z</time>
      </trkpt>
      <trkpt lat="42.85661" lon="1.83815">
        <ele>1361.69</ele>
        <time>2021-02-28T13:12:08Z</time>
      </trkpt>
      <trkpt lat="42.85662" lon="1.83813">
        <ele>1359.942</ele>
        <time>2021-02-28T13:12:10Z</time>
      </trkpt>
      <trkpt lat="42.85663" lon="1.83811">
        <ele>1359.669</ele>
        <time>2021-02-28T13:12:12Z</time>
      </trkpt>
      <trkpt lat="42.85665" lon="1.83809">
        <ele>1359.263</ele>
        <time>2021-02-28T13:12:14Z</time>
      </trkpt>
      <trkpt lat="42.85667" lon="1.83809">
        <ele>1359.685</ele>
        <time>2021-02-28T13:12:16Z</time>
      </trkpt>
      <trkpt lat="42.85669" lon="1.83808">
        <ele>1359.029</ele>
        <time>2021-02-28T13:12:18Z</time>
      </trkpt>
      <trkpt lat="42.85672" lon="1.83807">
        <ele>1359.14</ele>
        <time>2021-02-28T13:12:20Z</time>
      </trkpt>
      <trkpt lat="42.85674" lon="1.83806">
        <ele>1357.825</ele>
        <time>2021-02-28T13:12:22Z</time>
      </trkpt>
      <trkpt lat="42.85677" lon="1.83805">
        <ele>1358.765</ele>
        <time>2021-02-28T13:12:24Z</time>
      </trkpt>
      <trkpt lat="42.85679" lon="1.83804">
        <ele>1358.624</ele>
        <time>2021-02-28T13:12:26Z</time>
      </trkpt>
      <trkpt lat="42.8568" lon="1.83803">
        <ele>1358.104</ele>
        <time>2021-02-28T13:12:28Z</time>
      </trkpt>
      <trkpt lat="42.85682" lon="1.83803">
        <ele>1357.342</ele>
        <time>2021-02-28T13:12:30Z</time>
      </trkpt>
      <trkpt lat="42.85684" lon="1.83801">
        <ele>1355.58</ele>
        <time>2021-02-28T13:12:32Z</time>
      </trkpt>
      <trkpt lat="42.85686" lon="1.83799">
        <ele>1355.09</ele>
        <time>2021-02-28T13:12:34Z</time>
      </trkpt>
      <trkpt lat="42.85688" lon="1.83798">
        <ele>1354.354</ele>
        <time>2021-02-28T13:12:36Z</time>
      </trkpt>
      <trkpt lat="42.8569" lon="1.83797">
        <ele>1353.192</ele>
        <time>2021-02-28T13:12:38Z</time>
      </trkpt>
      <trkpt lat="42.85693" lon="1.83795">
        <ele>1352.539</ele>
        <time>2021-02-28T13:12:40Z</time>
      </trkpt>
      <trkpt lat="42.85695" lon="1.83795">
        <ele>1352.163</ele>
        <time>2021-02-28T13:12:42Z</time>
      </trkpt>
      <trkpt lat="42.85697" lon="1.83794">
        <ele>1351.737</ele>
        <time>2021-02-28T13:12:44Z</time>
      </trkpt>
      <trkpt lat="42.85698" lon="1.83791">
        <ele>1350.995</ele>
        <time>2021-02-28T13:12:46Z</time>
      </trkpt>
      <trkpt lat="42.857" lon="1.83791">
        <ele>1350.625</ele>
        <time>2021-02-28T13:12:48Z</time>
      </trkpt>
      <trkpt lat="42.85702" lon="1.83791">
        <ele>1349.496</ele>
        <time>2021-02-28T13:12:50Z</time>
      </trkpt>
      <trkpt lat="42.85705" lon="1.83791">
        <ele>1348.77</ele>
        <time>2021-02-28T13:12:52Z</time>
      </trkpt>
      <trkpt lat="42.85706" lon="1.83791">
        <ele>1347.6</ele>
        <time>2021-02-28T13:12:54Z</time>
      </trkpt>
      <trkpt lat="42.85708" lon="1.83791">
        <ele>1347.471</ele>
        <time>2021-02-28T13:12:56Z</time>
      </trkpt>
      <trkpt lat="42.85711" lon="1.8379">
        <ele>1346.829</ele>
        <time>2021-02-28T13:12:58Z</time>
      </trkpt>
      <trkpt lat="42.85712" lon="1.8379">
        <ele>1345.635</ele>
        <time>2021-02-28T13:13:00Z</time>
      </trkpt>
      <trkpt lat="42.85714" lon="1.8379">
        <ele>1345.036</ele>
        <time>2021-02-28T13:13:02Z</time>
      </trkpt>
      <trkpt lat="42.85716" lon="1.83789">
        <ele>1344.595</ele>
        <time>2021-02-28T13:13:04Z</time>
      </trkpt>
      <trkpt lat="42.85719" lon="1.83788">
        <ele>1344.552</ele>
        <time>2021-02-28T13:13:06Z</time>
      </trkpt>
      <trkpt lat="42.85722" lon="1.83788">
        <ele>1344.344</ele>
        <time>2021-02-28T13:13:08Z</time>
      </trkpt>
      <trkpt lat="42.85726" lon="1.83788">
        <ele>1345.182</ele>
        <time>2021-02-28T13:13:10Z</time>
      </trkpt>
      <trkpt lat="42.85729" lon="1.83789">
        <ele>1344.854</ele>
        <time>2021-02-28T13:13:12Z</time>
      </trkpt>
      <trkpt lat="42.85733" lon="1.83789">
        <ele>1343.944</ele>
        <time>2021-02-28T13:13:14Z</time>
      </trkpt>
      <trkpt lat="42.85736" lon="1.8379">
        <ele>1343.243</ele>
        <time>2021-02-28T13:13:16Z</time>
      </trkpt>
      <trkpt lat="42.85739" lon="1.83789">
        <ele>1342.114</ele>
        <time>2021-02-28T13:13:18Z</time>
      </trkpt>
      <trkpt lat="42.85741" lon="1.83789">
        <ele>1342.285</ele>
        <time>2021-02-28T13:13:20Z</time>
      </trkpt>
      <trkpt lat="42.85743" lon="1.8379">
        <ele>1342.945</ele>
        <time>2021-02-28T13:13:22Z</time>
      </trkpt>
      <trkpt lat="42.85745" lon="1.83789">
        <ele>1343.175</ele>
        <time>2021-02-28T13:13:24Z</time>
      </trkpt>
      <trkpt lat="42.85748" lon="1.83788">
        <ele>1342.891</ele>
        <time>2021-02-28T13:13:26Z</time>
      </trkpt>
      <trkpt lat="42.8575" lon="1.83788">
        <ele>1342.867</ele>
        <time>2021-02-28T13:13:27Z</time>
      </trkpt>
      <trkpt lat="42.85754" lon="1.83786">
        <ele>1342.697</ele>
        <time>2021-02-28T13:13:30Z</time>
      </trkpt>
      <trkpt lat="42.85758" lon="1.83786">
        <ele>1341.32</ele>
        <time>2021-02-28T13:13:32Z</time>
      </trkpt>
      <trkpt lat="42.8576" lon="1.83784">
        <ele>1339.123</ele>
        <time>2021-02-28T13:13:34Z</time>
      </trkpt>
      <trkpt lat="42.85764" lon="1.83783">
        <ele>1340.455</ele>
        <time>2021-02-28T13:13:36Z</time>
      </trkpt>
      <trkpt lat="42.85766" lon="1.83783">
        <ele>1339.9</ele>
        <time>2021-02-28T13:13:38Z</time>
      </trkpt>
      <trkpt lat="42.85768" lon="1.8378">
        <ele>1339.605</ele>
        <time>2021-02-28T13:13:40Z</time>
      </trkpt>
      <trkpt lat="42.85771" lon="1.83779">
        <ele>1340.191</ele>
        <time>2021-02-28T13:13:42Z</time>
      </trkpt>
      <trkpt lat="42.85775" lon="1.83777">
        <ele>1341.816</ele>
        <time>2021-02-28T13:13:44Z</time>
      </trkpt>
      <trkpt lat="42.85778" lon="1.83775">
        <ele>1341.847</ele>
        <time>2021-02-28T13:13:46Z</time>
      </trkpt>
      <trkpt lat="42.85781" lon="1.83772">
        <ele>1339.783</ele>
        <time>2021-02-28T13:13:48Z</time>
      </trkpt>
      <trkpt lat="42.85784" lon="1.83769">
        <ele>1338.838</ele>
        <time>2021-02-28T13:13:50Z</time>
      </trkpt>
      <trkpt lat="42.85787" lon="1.83766">
        <ele>1338.032</ele>
        <time>2021-02-28T13:13:52Z</time>
      </trkpt>
      <trkpt lat="42.8579" lon="1.83764">
        <ele>1338.203</ele>
        <time>2021-02-28T13:13:54Z</time>
      </trkpt>
      <trkpt lat="42.85793" lon="1.83762">
        <ele>1337.507</ele>
        <time>2021-02-28T13:13:56Z</time>
      </trkpt>
      <trkpt lat="42.85796" lon="1.83759">
        <ele>1337.376</ele>
        <time>2021-02-28T13:13:58Z</time>
      </trkpt>
      <trkpt lat="42.85799" lon="1.83757">
        <ele>1337.906</ele>
        <time>2021-02-28T13:14:00Z</time>
      </trkpt>
      <trkpt lat="42.85801" lon="1.83756">
        <ele>1336.799</ele>
        <time>2021-02-28T13:14:02Z</time>
      </trkpt>
      <trkpt lat="42.85804" lon="1.83755">
        <ele>1336.645</ele>
        <time>2021-02-28T13:14:04Z</time>
      </trkpt>
      <trkpt lat="42.85807" lon="1.83753">
        <ele>1337.326</ele>
        <time>2021-02-28T13:14:06Z</time>
      </trkpt>
      <trkpt lat="42.8581" lon="1.83751">
        <ele>1338.614</ele>
        <time>2021-02-28T13:14:08Z</time>
      </trkpt>
      <trkpt lat="42.85813" lon="1.83749">
        <ele>1338.927</ele>
        <time>2021-02-28T13:14:10Z</time>
      </trkpt>
      <trkpt lat="42.85815" lon="1.83747">
        <ele>1339.125</ele>
        <time>2021-02-28T13:14:12Z</time>
      </trkpt>
      <trkpt lat="42.85817" lon="1.83746">
        <ele>1338.264</ele>
        <time>2021-02-28T13:14:14Z</time>
      </trkpt>
      <trkpt lat="42.85819" lon="1.83745">
        <ele>1338.067</ele>
        <time>2021-02-28T13:14:16Z</time>
      </trkpt>
      <trkpt lat="42.85821" lon="1.83744">
        <ele>1337.744</ele>
        <time>2021-02-28T13:14:18Z</time>
      </trkpt>
      <trkpt lat="42.85823" lon="1.83743">
        <ele>1337.416</ele>
        <time>2021-02-28T13:14:20Z</time>
      </trkpt>
      <trkpt lat="42.85825" lon="1.83743">
        <ele>1337.383</ele>
        <time>2021-02-28T13:14:22Z</time>
      </trkpt>
      <trkpt lat="42.85826" lon="1.83744">
        <ele>1336.801</ele>
        <time>2021-02-28T13:14:24Z</time>
      </trkpt>
      <trkpt lat="42.85827" lon="1.83746">
        <ele>1335.188</ele>
        <time>2021-02-28T13:14:26Z</time>
      </trkpt>
      <trkpt lat="42.85828" lon="1.83749">
        <ele>1334.678</ele>
        <time>2021-02-28T13:14:28Z</time>
      </trkpt>
      <trkpt lat="42.85828" lon="1.83752">
        <ele>1333.965</ele>
        <time>2021-02-28T13:14:30Z</time>
      </trkpt>
      <trkpt lat="42.85827" lon="1.83755">
        <ele>1332.598</ele>
        <time>2021-02-28T13:14:32Z</time>
      </trkpt>
      <trkpt lat="42.85825" lon="1.83757">
        <ele>1332.205</ele>
        <time>2021-02-28T13:14:34Z</time>
      </trkpt>
      <trkpt lat="42.85824" lon="1.8376">
        <ele>1331.373</ele>
        <time>2021-02-28T13:14:36Z</time>
      </trkpt>
      <trkpt lat="42.85821" lon="1.83762">
        <ele>1330.604</ele>
        <time>2021-02-28T13:14:38Z</time>
      </trkpt>
      <trkpt lat="42.8582" lon="1.83764">
        <ele>1330.876</ele>
        <time>2021-02-28T13:14:40Z</time>
      </trkpt>
      <trkpt lat="42.85817" lon="1.83765">
        <ele>1331.694</ele>
        <time>2021-02-28T13:14:42Z</time>
      </trkpt>
      <trkpt lat="42.85815" lon="1.83767">
        <ele>1331.379</ele>
        <time>2021-02-28T13:14:44Z</time>
      </trkpt>
      <trkpt lat="42.85813" lon="1.83769">
        <ele>1331.186</ele>
        <time>2021-02-28T13:14:46Z</time>
      </trkpt>
      <trkpt lat="42.85809" lon="1.83771">
        <ele>1330.702</ele>
        <time>2021-02-28T13:14:49Z</time>
      </trkpt>
      <trkpt lat="42.85807" lon="1.83772">
        <ele>1328.929</ele>
        <time>2021-02-28T13:14:51Z</time>
      </trkpt>
      <trkpt lat="42.85804" lon="1.83774">
        <ele>1328.707</ele>
        <time>2021-02-28T13:14:53Z</time>
      </trkpt>
      <trkpt lat="42.85802" lon="1.83776">
        <ele>1329.011</ele>
        <time>2021-02-28T13:14:55Z</time>
      </trkpt>
      <trkpt lat="42.858" lon="1.83779">
        <ele>1329.603</ele>
        <time>2021-02-28T13:14:57Z</time>
      </trkpt>
      <trkpt lat="42.85798" lon="1.8378">
        <ele>1327.733</ele>
        <time>2021-02-28T13:14:59Z</time>
      </trkpt>
      <trkpt lat="42.85796" lon="1.83782">
        <ele>1327.709</ele>
        <time>2021-02-28T13:15:01Z</time>
      </trkpt>
      <trkpt lat="42.85795" lon="1.83784">
        <ele>1328.842</ele>
        <time>2021-02-28T13:15:03Z</time>
      </trkpt>
      <trkpt lat="42.85792" lon="1.83786">
        <ele>1328.366</ele>
        <time>2021-02-28T13:15:05Z</time>
      </trkpt>
      <trkpt lat="42.8579" lon="1.83787">
        <ele>1326.928</ele>
        <time>2021-02-28T13:15:07Z</time>
      </trkpt>
      <trkpt lat="42.85788" lon="1.83789">
        <ele>1326.865</ele>
        <time>2021-02-28T13:15:09Z</time>
      </trkpt>
      <trkpt lat="42.85786" lon="1.8379">
        <ele>1327.637</ele>
        <time>2021-02-28T13:15:11Z</time>
      </trkpt>
      <trkpt lat="42.85784" lon="1.83792">
        <ele>1328.565</ele>
        <time>2021-02-28T13:15:13Z</time>
      </trkpt>
      <trkpt lat="42.85782" lon="1.83794">
        <ele>1327.968</ele>
        <time>2021-02-28T13:15:15Z</time>
      </trkpt>
      <trkpt lat="42.8578" lon="1.83797">
        <ele>1328.557</ele>
        <time>2021-02-28T13:15:17Z</time>
      </trkpt>
      <trkpt lat="42.85777" lon="1.83797">
        <ele>1328.193</ele>
        <time>2021-02-28T13:15:19Z</time>
      </trkpt>
      <trkpt lat="42.85775" lon="1.83798">
        <ele>1327.475</ele>
        <time>2021-02-28T13:15:21Z</time>
      </trkpt>
      <trkpt lat="42.85773" lon="1.83799">
        <ele>1325.71</ele>
        <time>2021-02-28T13:15:23Z</time>
      </trkpt>
      <trkpt lat="42.85771" lon="1.83801">
        <ele>1324.806</ele>
        <time>2021-02-28T13:15:25Z</time>
      </trkpt>
      <trkpt lat="42.85768" lon="1.83801">
        <ele>1322.975</ele>
        <time>2021-02-28T13:15:27Z</time>
      </trkpt>
      <trkpt lat="42.85766" lon="1.83803">
        <ele>1322.189</ele>
        <time>2021-02-28T13:15:29Z</time>
      </trkpt>
      <trkpt lat="42.85764" lon="1.83804">
        <ele>1321.339</ele>
        <time>2021-02-28T13:15:31Z</time>
      </trkpt>
      <trkpt lat="42.85762" lon="1.83806">
        <ele>1320.638</ele>
        <time>2021-02-28T13:15:33Z</time>
      </trkpt>
      <trkpt lat="42.8576" lon="1.83807">
        <ele>1319.077</ele>
        <time>2021-02-28T13:15:35Z</time>
      </trkpt>
      <trkpt lat="42.85758" lon="1.83809">
        <ele>1318.205</ele>
        <time>2021-02-28T13:15:37Z</time>
      </trkpt>
      <trkpt lat="42.85755" lon="1.8381">
        <ele>1316.456</ele>
        <time>2021-02-28T13:15:39Z</time>
      </trkpt>
      <trkpt lat="42.85753" lon="1.83811">
        <ele>1315.813</ele>
        <time>2021-02-28T13:15:41Z</time>
      </trkpt>
      <trkpt lat="42.85751" lon="1.83812">
        <ele>1316.083</ele>
        <time>2021-02-28T13:15:43Z</time>
      </trkpt>
      <trkpt lat="42.85748" lon="1.83814">
        <ele>1315.494</ele>
        <time>2021-02-28T13:15:45Z</time>
      </trkpt>
      <trkpt lat="42.85746" lon="1.83815">
        <ele>1314.7</ele>
        <time>2021-02-28T13:15:47Z</time>
      </trkpt>
      <trkpt lat="42.85744" lon="1.83817">
        <ele>1312.49</ele>
        <time>2021-02-28T13:15:49Z</time>
      </trkpt>
      <trkpt lat="42.85741" lon="1.83818">
        <ele>1311.543</ele>
        <time>2021-02-28T13:15:51Z</time>
      </trkpt>
      <trkpt lat="42.85739" lon="1.83818">
        <ele>1310.944</ele>
        <time>2021-02-28T13:15:53Z</time>
      </trkpt>
      <trkpt lat="42.85737" lon="1.83819">
        <ele>1310.523</ele>
        <time>2021-02-28T13:15:55Z</time>
      </trkpt>
      <trkpt lat="42.85735" lon="1.8382">
        <ele>1309.898</ele>
        <time>2021-02-28T13:15:57Z</time>
      </trkpt>
      <trkpt lat="42.85732" lon="1.83822">
        <ele>1309.952</ele>
        <time>2021-02-28T13:15:59Z</time>
      </trkpt>
      <trkpt lat="42.8573" lon="1.83824">
        <ele>1309.786</ele>
        <time>2021-02-28T13:16:01Z</time>
      </trkpt>
      <trkpt lat="42.85728" lon="1.83825">
        <ele>1308.78</ele>
        <time>2021-02-28T13:16:03Z</time>
      </trkpt>
      <trkpt lat="42.85725" lon="1.83827">
        <ele>1307.855</ele>
        <time>2021-02-28T13:16:05Z</time>
      </trkpt>
      <trkpt lat="42.85723" lon="1.83829">
        <ele>1306.652</ele>
        <time>2021-02-28T13:16:07Z</time>
      </trkpt>
      <trkpt lat="42.85721" lon="1.83831">
        <ele>1304.246</ele>
        <time>2021-02-28T13:16:09Z</time>
      </trkpt>
      <trkpt lat="42.85718" lon="1.83832">
        <ele>1302.882</ele>
        <time>2021-02-28T13:16:11Z</time>
      </trkpt>
      <trkpt lat="42.85716" lon="1.83835">
        <ele>1302.493</ele>
        <time>2021-02-28T13:16:13Z</time>
      </trkpt>
      <trkpt lat="42.85714" lon="1.83837">
        <ele>1302.663</ele>
        <time>2021-02-28T13:16:15Z</time>
      </trkpt>
      <trkpt lat="42.85713" lon="1.83841">
        <ele>1301.701</ele>
        <time>2021-02-28T13:16:17Z</time>
      </trkpt>
      <trkpt lat="42.85711" lon="1.83844">
        <ele>1302.284</ele>
        <time>2021-02-28T13:16:19Z</time>
      </trkpt>
      <trkpt lat="42.8571" lon="1.83847">
        <ele>1302.895</ele>
        <time>2021-02-28T13:16:21Z</time>
      </trkpt>
      <trkpt lat="42.85707" lon="1.83851">
        <ele>1301.972</ele>
        <time>2021-02-28T13:16:24Z</time>
      </trkpt>
      <trkpt lat="42.85706" lon="1.83854">
        <ele>1300.775</ele>
        <time>2021-02-28T13:16:26Z</time>
      </trkpt>
      <trkpt lat="42.85705" lon="1.83857">
        <ele>1301.712</ele>
        <time>2021-02-28T13:16:28Z</time>
      </trkpt>
      <trkpt lat="42.85704" lon="1.8386">
        <ele>1301.376</ele>
        <time>2021-02-28T13:16:30Z</time>
      </trkpt>
      <trkpt lat="42.85703" lon="1.83862">
        <ele>1301.203</ele>
        <time>2021-02-28T13:16:32Z</time>
      </trkpt>
      <trkpt lat="42.85701" lon="1.83865">
        <ele>1301.289</ele>
        <time>2021-02-28T13:16:34Z</time>
      </trkpt>
      <trkpt lat="42.857" lon="1.83868">
        <ele>1302.614</ele>
        <time>2021-02-28T13:16:36Z</time>
      </trkpt>
      <trkpt lat="42.85698" lon="1.83871">
        <ele>1301.797</ele>
        <time>2021-02-28T13:16:38Z</time>
      </trkpt>
      <trkpt lat="42.85696" lon="1.83874">
        <ele>1302.375</ele>
        <time>2021-02-28T13:16:40Z</time>
      </trkpt>
      <trkpt lat="42.85694" lon="1.83876">
        <ele>1299.751</ele>
        <time>2021-02-28T13:16:42Z</time>
      </trkpt>
      <trkpt lat="42.85692" lon="1.83879">
        <ele>1299.81</ele>
        <time>2021-02-28T13:16:44Z</time>
      </trkpt>
      <trkpt lat="42.8569" lon="1.83882">
        <ele>1299.926</ele>
        <time>2021-02-28T13:16:46Z</time>
      </trkpt>
      <trkpt lat="42.85687" lon="1.83885">
        <ele>1299.983</ele>
        <time>2021-02-28T13:16:48Z</time>
      </trkpt>
      <trkpt lat="42.85686" lon="1.83888">
        <ele>1301.104</ele>
        <time>2021-02-28T13:16:50Z</time>
      </trkpt>
      <trkpt lat="42.85685" lon="1.83891">
        <ele>1299.795</ele>
        <time>2021-02-28T13:16:52Z</time>
      </trkpt>
      <trkpt lat="42.85683" lon="1.83894">
        <ele>1299.429</ele>
        <time>2021-02-28T13:16:54Z</time>
      </trkpt>
      <trkpt lat="42.85682" lon="1.83898">
        <ele>1299.337</ele>
        <time>2021-02-28T13:16:56Z</time>
      </trkpt>
      <trkpt lat="42.85681" lon="1.83901">
        <ele>1297.773</ele>
        <time>2021-02-28T13:16:58Z</time>
      </trkpt>
      <trkpt lat="42.85679" lon="1.83904">
        <ele>1297.455</ele>
        <time>2021-02-28T13:17:00Z</time>
      </trkpt>
      <trkpt lat="42.85678" lon="1.83907">
        <ele>1297.849</ele>
        <time>2021-02-28T13:17:02Z</time>
      </trkpt>
      <trkpt lat="42.85676" lon="1.83911">
        <ele>1296.291</ele>
        <time>2021-02-28T13:17:04Z</time>
      </trkpt>
      <trkpt lat="42.85676" lon="1.83914">
        <ele>1298.46</ele>
        <time>2021-02-28T13:17:06Z</time>
      </trkpt>
      <trkpt lat="42.85674" lon="1.83917">
        <ele>1297.978</ele>
        <time>2021-02-28T13:17:08Z</time>
      </trkpt>
      <trkpt lat="42.85673" lon="1.83921">
        <ele>1297.583</ele>
        <time>2021-02-28T13:17:10Z</time>
      </trkpt>
      <trkpt lat="42.85672" lon="1.83924">
        <ele>1298.857</ele>
        <time>2021-02-28T13:17:12Z</time>
      </trkpt>
      <trkpt lat="42.85671" lon="1.83928">
        <ele>1299.106</ele>
        <time>2021-02-28T13:17:14Z</time>
      </trkpt>
      <trkpt lat="42.85669" lon="1.83931">
        <ele>1298.082</ele>
        <time>2021-02-28T13:17:16Z</time>
      </trkpt>
      <trkpt lat="42.85668" lon="1.83934">
        <ele>1297.316</ele>
        <time>2021-02-28T13:17:18Z</time>
      </trkpt>
      <trkpt lat="42.85666" lon="1.83937">
        <ele>1297.134</ele>
        <time>2021-02-28T13:17:20Z</time>
      </trkpt>
      <trkpt lat="42.85665" lon="1.8394">
        <ele>1297.87</ele>
        <time>2021-02-28T13:17:22Z</time>
      </trkpt>
      <trkpt lat="42.85663" lon="1.83944">
        <ele>1296.878</ele>
        <time>2021-02-28T13:17:24Z</time>
      </trkpt>
      <trkpt lat="42.85662" lon="1.83948">
        <ele>1296.094</ele>
        <time>2021-02-28T13:17:26Z</time>
      </trkpt>
      <trkpt lat="42.8566" lon="1.83952">
        <ele>1296.304</ele>
        <time>2021-02-28T13:17:28Z</time>
      </trkpt>
      <trkpt lat="42.85658" lon="1.83954">
        <ele>1296.946</ele>
        <time>2021-02-28T13:17:30Z</time>
      </trkpt>
      <trkpt lat="42.85656" lon="1.83958">
        <ele>1297.455</ele>
        <time>2021-02-28T13:17:32Z</time>
      </trkpt>
      <trkpt lat="42.85655" lon="1.83962">
        <ele>1298.16</ele>
        <time>2021-02-28T13:17:34Z</time>
      </trkpt>
      <trkpt lat="42.85654" lon="1.83965">
        <ele>1297.071</ele>
        <time>2021-02-28T13:17:36Z</time>
      </trkpt>
      <trkpt lat="42.85653" lon="1.83968">
        <ele>1295.715</ele>
        <time>2021-02-28T13:17:38Z</time>
      </trkpt>
      <trkpt lat="42.85651" lon="1.83971">
        <ele>1295.795</ele>
        <time>2021-02-28T13:17:40Z</time>
      </trkpt>
      <trkpt lat="42.85649" lon="1.83974">
        <ele>1294.187</ele>
        <time>2021-02-28T13:17:42Z</time>
      </trkpt>
      <trkpt lat="42.85647" lon="1.83977">
        <ele>1293.451</ele>
        <time>2021-02-28T13:17:44Z</time>
      </trkpt>
      <trkpt lat="42.85646" lon="1.8398">
        <ele>1292.913</ele>
        <time>2021-02-28T13:17:46Z</time>
      </trkpt>
      <trkpt lat="42.85644" lon="1.83983">
        <ele>1293.062</ele>
        <time>2021-02-28T13:17:48Z</time>
      </trkpt>
      <trkpt lat="42.85642" lon="1.83986">
        <ele>1293.272</ele>
        <time>2021-02-28T13:17:50Z</time>
      </trkpt>
      <trkpt lat="42.85641" lon="1.8399">
        <ele>1292.905</ele>
        <time>2021-02-28T13:17:52Z</time>
      </trkpt>
      <trkpt lat="42.85639" lon="1.83993">
        <ele>1293.205</ele>
        <time>2021-02-28T13:17:54Z</time>
      </trkpt>
      <trkpt lat="42.85638" lon="1.83996">
        <ele>1294.188</ele>
        <time>2021-02-28T13:17:56Z</time>
      </trkpt>
      <trkpt lat="42.85635" lon="1.83999">
        <ele>1293.65</ele>
        <time>2021-02-28T13:17:58Z</time>
      </trkpt>
      <trkpt lat="42.85634" lon="1.84001">
        <ele>1291.872</ele>
        <time>2021-02-28T13:18:00Z</time>
      </trkpt>
      <trkpt lat="42.85633" lon="1.84004">
        <ele>1293.282</ele>
        <time>2021-02-28T13:18:02Z</time>
      </trkpt>
      <trkpt lat="42.85631" lon="1.84007">
        <ele>1292.325</ele>
        <time>2021-02-28T13:18:04Z</time>
      </trkpt>
      <trkpt lat="42.8563" lon="1.84011">
        <ele>1292.043</ele>
        <time>2021-02-28T13:18:06Z</time>
      </trkpt>
      <trkpt lat="42.85629" lon="1.84015">
        <ele>1290.619</ele>
        <time>2021-02-28T13:18:08Z</time>
      </trkpt>
      <trkpt lat="42.85627" lon="1.84018">
        <ele>1289.264</ele>
        <time>2021-02-28T13:18:10Z</time>
      </trkpt>
      <trkpt lat="42.85626" lon="1.84021">
        <ele>1289.517</ele>
        <time>2021-02-28T13:18:12Z</time>
      </trkpt>
      <trkpt lat="42.85624" lon="1.84024">
        <ele>1288.441</ele>
        <time>2021-02-28T13:18:14Z</time>
      </trkpt>
      <trkpt lat="42.85624" lon="1.84027">
        <ele>1286.914</ele>
        <time>2021-02-28T13:18:16Z</time>
      </trkpt>
      <trkpt lat="42.85622" lon="1.8403">
        <ele>1284.372</ele>
        <time>2021-02-28T13:18:18Z</time>
      </trkpt>
      <trkpt lat="42.85621" lon="1.84034">
        <ele>1282.645</ele>
        <time>2021-02-28T13:18:20Z</time>
      </trkpt>
      <trkpt lat="42.85619" lon="1.84037">
        <ele>1282.61</ele>
        <time>2021-02-28T13:18:22Z</time>
      </trkpt>
      <trkpt lat="42.85618" lon="1.8404">
        <ele>1281.211</ele>
        <time>2021-02-28T13:18:24Z</time>
      </trkpt>
      <trkpt lat="42.85617" lon="1.84044">
        <ele>1282.473</ele>
        <time>2021-02-28T13:18:26Z</time>
      </trkpt>
      <trkpt lat="42.85616" lon="1.84047">
        <ele>1281.665</ele>
        <time>2021-02-28T13:18:28Z</time>
      </trkpt>
      <trkpt lat="42.85614" lon="1.8405">
        <ele>1283.009</ele>
        <time>2021-02-28T13:18:30Z</time>
      </trkpt>
      <trkpt lat="42.85613" lon="1.84053">
        <ele>1284.472</ele>
        <time>2021-02-28T13:18:32Z</time>
      </trkpt>
      <trkpt lat="42.8561" lon="1.84056">
        <ele>1284.798</ele>
        <time>2021-02-28T13:18:34Z</time>
      </trkpt>
      <trkpt lat="42.85608" lon="1.84059">
        <ele>1283.333</ele>
        <time>2021-02-28T13:18:36Z</time>
      </trkpt>
      <trkpt lat="42.85607" lon="1.84063">
        <ele>1281.991</ele>
        <time>2021-02-28T13:18:38Z</time>
      </trkpt>
      <trkpt lat="42.85606" lon="1.84067">
        <ele>1282.394</ele>
        <time>2021-02-28T13:18:40Z</time>
      </trkpt>
      <trkpt lat="42.85605" lon="1.8407">
        <ele>1282.344</ele>
        <time>2021-02-28T13:18:42Z</time>
      </trkpt>
      <trkpt lat="42.85604" lon="1.84073">
        <ele>1281.626</ele>
        <time>2021-02-28T13:18:44Z</time>
      </trkpt>
      <trkpt lat="42.85602" lon="1.84076">
        <ele>1282.126</ele>
        <time>2021-02-28T13:18:46Z</time>
      </trkpt>
      <trkpt lat="42.856" lon="1.84079">
        <ele>1281.956</ele>
        <time>2021-02-28T13:18:48Z</time>
      </trkpt>
      <trkpt lat="42.85599" lon="1.84082">
        <ele>1281.162</ele>
        <time>2021-02-28T13:18:50Z</time>
      </trkpt>
      <trkpt lat="42.85598" lon="1.84085">
        <ele>1280.878</ele>
        <time>2021-02-28T13:18:52Z</time>
      </trkpt>
      <trkpt lat="42.85596" lon="1.84088">
        <ele>1281.509</ele>
        <time>2021-02-28T13:18:54Z</time>
      </trkpt>
      <trkpt lat="42.85595" lon="1.84091">
        <ele>1281.648</ele>
        <time>2021-02-28T13:18:56Z</time>
      </trkpt>
      <trkpt lat="42.85594" lon="1.84095">
        <ele>1282.661</ele>
        <time>2021-02-28T13:18:58Z</time>
      </trkpt>
      <trkpt lat="42.85593" lon="1.84094">
        <ele>1280.605</ele>
        <time>2021-02-28T13:19:00Z</time>
      </trkpt>
      <trkpt lat="42.85592" lon="1.84095">
        <ele>1280.497</ele>
        <time>2021-02-28T13:19:02Z</time>
      </trkpt>
      <trkpt lat="42.8559" lon="1.84099">
        <ele>1281.398</ele>
        <time>2021-02-28T13:19:04Z</time>
      </trkpt>
      <trkpt lat="42.85589" lon="1.84103">
        <ele>1281.335</ele>
        <time>2021-02-28T13:19:06Z</time>
      </trkpt>
      <trkpt lat="42.85588" lon="1.84106">
        <ele>1280.681</ele>
        <time>2021-02-28T13:19:08Z</time>
      </trkpt>
      <trkpt lat="42.85586" lon="1.84109">
        <ele>1281.58</ele>
        <time>2021-02-28T13:19:10Z</time>
      </trkpt>
      <trkpt lat="42.85587" lon="1.84114">
        <ele>1283.586</ele>
        <time>2021-02-28T13:19:12Z</time>
      </trkpt>
      <trkpt lat="42.85585" lon="1.84116">
        <ele>1283.006</ele>
        <time>2021-02-28T13:19:14Z</time>
      </trkpt>
      <trkpt lat="42.85584" lon="1.8412">
        <ele>1283.744</ele>
        <time>2021-02-28T13:19:16Z</time>
      </trkpt>
      <trkpt lat="42.85582" lon="1.84123">
        <ele>1283.054</ele>
        <time>2021-02-28T13:19:18Z</time>
      </trkpt>
      <trkpt lat="42.85581" lon="1.84127">
        <ele>1284.369</ele>
        <time>2021-02-28T13:19:20Z</time>
      </trkpt>
      <trkpt lat="42.85579" lon="1.8413">
        <ele>1283.792</ele>
        <time>2021-02-28T13:19:22Z</time>
      </trkpt>
      <trkpt lat="42.85578" lon="1.84133">
        <ele>1284.951</ele>
        <time>2021-02-28T13:19:24Z</time>
      </trkpt>
      <trkpt lat="42.85576" lon="1.84137">
        <ele>1285.334</ele>
        <time>2021-02-28T13:19:26Z</time>
      </trkpt>
      <trkpt lat="42.85575" lon="1.84141">
        <ele>1285.571</ele>
        <time>2021-02-28T13:19:28Z</time>
      </trkpt>
      <trkpt lat="42.85573" lon="1.84143">
        <ele>1285.26</ele>
        <time>2021-02-28T13:19:30Z</time>
      </trkpt>
      <trkpt lat="42.85572" lon="1.84147">
        <ele>1284.405</ele>
        <time>2021-02-28T13:19:32Z</time>
      </trkpt>
      <trkpt lat="42.8557" lon="1.8415">
        <ele>1284.289</ele>
        <time>2021-02-28T13:19:34Z</time>
      </trkpt>
      <trkpt lat="42.85569" lon="1.84153">
        <ele>1282.895</ele>
        <time>2021-02-28T13:19:36Z</time>
      </trkpt>
      <trkpt lat="42.85567" lon="1.84157">
        <ele>1282.274</ele>
        <time>2021-02-28T13:19:38Z</time>
      </trkpt>
      <trkpt lat="42.85566" lon="1.8416">
        <ele>1281.257</ele>
        <time>2021-02-28T13:19:40Z</time>
      </trkpt>
      <trkpt lat="42.85564" lon="1.84163">
        <ele>1279.888</ele>
        <time>2021-02-28T13:19:42Z</time>
      </trkpt>
      <trkpt lat="42.85562" lon="1.84166">
        <ele>1278.414</ele>
        <time>2021-02-28T13:19:44Z</time>
      </trkpt>
      <trkpt lat="42.8556" lon="1.84169">
        <ele>1279.053</ele>
        <time>2021-02-28T13:19:46Z</time>
      </trkpt>
      <trkpt lat="42.85558" lon="1.84173">
        <ele>1280.393</ele>
        <time>2021-02-28T13:19:48Z</time>
      </trkpt>
      <trkpt lat="42.85556" lon="1.84177">
        <ele>1281.459</ele>
        <time>2021-02-28T13:19:50Z</time>
      </trkpt>
      <trkpt lat="42.85554" lon="1.84179">
        <ele>1279.912</ele>
        <time>2021-02-28T13:19:52Z</time>
      </trkpt>
      <trkpt lat="42.85552" lon="1.84181">
        <ele>1278.808</ele>
        <time>2021-02-28T13:19:54Z</time>
      </trkpt>
      <trkpt lat="42.85551" lon="1.84183">
        <ele>1279.099</ele>
        <time>2021-02-28T13:19:56Z</time>
      </trkpt>
      <trkpt lat="42.8555" lon="1.84185">
        <ele>1279.648</ele>
        <time>2021-02-28T13:19:58Z</time>
      </trkpt>
      <trkpt lat="42.85548" lon="1.84187">
        <ele>1278.832</ele>
        <time>2021-02-28T13:20:00Z</time>
      </trkpt>
      <trkpt lat="42.85547" lon="1.8419">
        <ele>1278.812</ele>
        <time>2021-02-28T13:20:02Z</time>
      </trkpt>
      <trkpt lat="42.85545" lon="1.84193">
        <ele>1276.739</ele>
        <time>2021-02-28T13:20:04Z</time>
      </trkpt>
      <trkpt lat="42.85544" lon="1.84195">
        <ele>1275.817</ele>
        <time>2021-02-28T13:20:06Z</time>
      </trkpt>
      <trkpt lat="42.85542" lon="1.84198">
        <ele>1275.869</ele>
        <time>2021-02-28T13:20:08Z</time>
      </trkpt>
      <trkpt lat="42.85541" lon="1.84201">
        <ele>1275.595</ele>
        <time>2021-02-28T13:20:10Z</time>
      </trkpt>
      <trkpt lat="42.85539" lon="1.84203">
        <ele>1274.237</ele>
        <time>2021-02-28T13:20:12Z</time>
      </trkpt>
      <trkpt lat="42.85537" lon="1.84206">
        <ele>1275.194</ele>
        <time>2021-02-28T13:20:14Z</time>
      </trkpt>
      <trkpt lat="42.85536" lon="1.84209">
        <ele>1273.416</ele>
        <time>2021-02-28T13:20:16Z</time>
      </trkpt>
      <trkpt lat="42.85534" lon="1.84211">
        <ele>1274.056</ele>
        <time>2021-02-28T13:20:18Z</time>
      </trkpt>
      <trkpt lat="42.85532" lon="1.84213">
        <ele>1273.507</ele>
        <time>2021-02-28T13:20:20Z</time>
      </trkpt>
      <trkpt lat="42.85531" lon="1.84216">
        <ele>1273.634</ele>
        <time>2021-02-28T13:20:22Z</time>
      </trkpt>
      <trkpt lat="42.85529" lon="1.84219">
        <ele>1273.578</ele>
        <time>2021-02-28T13:20:24Z</time>
      </trkpt>
      <trkpt lat="42.85527" lon="1.84222">
        <ele>1273.479</ele>
        <time>2021-02-28T13:20:26Z</time>
      </trkpt>
      <trkpt lat="42.85526" lon="1.84225">
        <ele>1273.121</ele>
        <time>2021-02-28T13:20:28Z</time>
      </trkpt>
      <trkpt lat="42.85524" lon="1.84228">
        <ele>1273.258</ele>
        <time>2021-02-28T13:20:30Z</time>
      </trkpt>
      <trkpt lat="42.85523" lon="1.84231">
        <ele>1272.257</ele>
        <time>2021-02-28T13:20:32Z</time>
      </trkpt>
      <trkpt lat="42.85521" lon="1.84235">
        <ele>1270.958</ele>
        <time>2021-02-28T13:20:34Z</time>
      </trkpt>
      <trkpt lat="42.85519" lon="1.8424">
        <ele>1271.401</ele>
        <time>2021-02-28T13:20:36Z</time>
      </trkpt>
      <trkpt lat="42.85517" lon="1.84244">
        <ele>1270.286</ele>
        <time>2021-02-28T13:20:38Z</time>
      </trkpt>
      <trkpt lat="42.85516" lon="1.84248">
        <ele>1269.824</ele>
        <time>2021-02-28T13:20:40Z</time>
      </trkpt>
      <trkpt lat="42.85515" lon="1.84251">
        <ele>1267.965</ele>
        <time>2021-02-28T13:20:42Z</time>
      </trkpt>
      <trkpt lat="42.85513" lon="1.84254">
        <ele>1267.128</ele>
        <time>2021-02-28T13:20:44Z</time>
      </trkpt>
      <trkpt lat="42.85511" lon="1.84257">
        <ele>1267.457</ele>
        <time>2021-02-28T13:20:46Z</time>
      </trkpt>
      <trkpt lat="42.8551" lon="1.8426">
        <ele>1266.071</ele>
        <time>2021-02-28T13:20:48Z</time>
      </trkpt>
      <trkpt lat="42.85508" lon="1.84263">
        <ele>1265.379</ele>
        <time>2021-02-28T13:20:50Z</time>
      </trkpt>
      <trkpt lat="42.85506" lon="1.84265">
        <ele>1264.157</ele>
        <time>2021-02-28T13:20:52Z</time>
      </trkpt>
      <trkpt lat="42.85504" lon="1.84268">
        <ele>1263.72</ele>
        <time>2021-02-28T13:20:54Z</time>
      </trkpt>
      <trkpt lat="42.85502" lon="1.84271">
        <ele>1262.605</ele>
        <time>2021-02-28T13:20:56Z</time>
      </trkpt>
      <trkpt lat="42.85501" lon="1.84273">
        <ele>1261.877</ele>
        <time>2021-02-28T13:20:58Z</time>
      </trkpt>
      <trkpt lat="42.85499" lon="1.84276">
        <ele>1261.011</ele>
        <time>2021-02-28T13:21:00Z</time>
      </trkpt>
      <trkpt lat="42.85498" lon="1.84279">
        <ele>1260.562</ele>
        <time>2021-02-28T13:21:02Z</time>
      </trkpt>
      <trkpt lat="42.85496" lon="1.84282">
        <ele>1260.514</ele>
        <time>2021-02-28T13:21:04Z</time>
      </trkpt>
      <trkpt lat="42.85494" lon="1.84285">
        <ele>1261.066</ele>
        <time>2021-02-28T13:21:06Z</time>
      </trkpt>
      <trkpt lat="42.85493" lon="1.84288">
        <ele>1260.644</ele>
        <time>2021-02-28T13:21:08Z</time>
      </trkpt>
      <trkpt lat="42.85491" lon="1.84291">
        <ele>1259.459</ele>
        <time>2021-02-28T13:21:10Z</time>
      </trkpt>
      <trkpt lat="42.8549" lon="1.84294">
        <ele>1260.264</ele>
        <time>2021-02-28T13:21:12Z</time>
      </trkpt>
      <trkpt lat="42.85488" lon="1.84298">
        <ele>1259.844</ele>
        <time>2021-02-28T13:21:14Z</time>
      </trkpt>
      <trkpt lat="42.85486" lon="1.84302">
        <ele>1259.489</ele>
        <time>2021-02-28T13:21:16Z</time>
      </trkpt>
      <trkpt lat="42.85485" lon="1.84306">
        <ele>1258.813</ele>
        <time>2021-02-28T13:21:18Z</time>
      </trkpt>
      <trkpt lat="42.85484" lon="1.8431">
        <ele>1258.725</ele>
        <time>2021-02-28T13:21:20Z</time>
      </trkpt>
      <trkpt lat="42.85482" lon="1.84314">
        <ele>1260.03</ele>
        <time>2021-02-28T13:21:22Z</time>
      </trkpt>
      <trkpt lat="42.85481" lon="1.84318">
        <ele>1259.906</ele>
        <time>2021-02-28T13:21:24Z</time>
      </trkpt>
      <trkpt lat="42.85479" lon="1.84321">
        <ele>1259.333</ele>
        <time>2021-02-28T13:21:26Z</time>
      </trkpt>
      <trkpt lat="42.85478" lon="1.84325">
        <ele>1258.957</ele>
        <time>2021-02-28T13:21:28Z</time>
      </trkpt>
      <trkpt lat="42.85476" lon="1.84328">
        <ele>1259.748</ele>
        <time>2021-02-28T13:21:30Z</time>
      </trkpt>
      <trkpt lat="42.85474" lon="1.84331">
        <ele>1259.879</ele>
        <time>2021-02-28T13:21:32Z</time>
      </trkpt>
      <trkpt lat="42.85473" lon="1.84334">
        <ele>1259.569</ele>
        <time>2021-02-28T13:21:34Z</time>
      </trkpt>
      <trkpt lat="42.85472" lon="1.84337">
        <ele>1258.988</ele>
        <time>2021-02-28T13:21:36Z</time>
      </trkpt>
      <trkpt lat="42.8547" lon="1.8434">
        <ele>1258.648</ele>
        <time>2021-02-28T13:21:38Z</time>
      </trkpt>
      <trkpt lat="42.85469" lon="1.84344">
        <ele>1258.002</ele>
        <time>2021-02-28T13:21:40Z</time>
      </trkpt>
      <trkpt lat="42.85467" lon="1.84347">
        <ele>1257.763</ele>
        <time>2021-02-28T13:21:42Z</time>
      </trkpt>
      <trkpt lat="42.85466" lon="1.8435">
        <ele>1257.185</ele>
        <time>2021-02-28T13:21:44Z</time>
      </trkpt>
      <trkpt lat="42.85464" lon="1.84353">
        <ele>1256.632</ele>
        <time>2021-02-28T13:21:46Z</time>
      </trkpt>
      <trkpt lat="42.85463" lon="1.84356">
        <ele>1257.372</ele>
        <time>2021-02-28T13:21:48Z</time>
      </trkpt>
      <trkpt lat="42.85461" lon="1.84359">
        <ele>1255.972</ele>
        <time>2021-02-28T13:21:50Z</time>
      </trkpt>
      <trkpt lat="42.85458" lon="1.84362">
        <ele>1255.63</ele>
        <time>2021-02-28T13:21:52Z</time>
      </trkpt>
      <trkpt lat="42.85456" lon="1.84364">
        <ele>1254.828</ele>
        <time>2021-02-28T13:21:54Z</time>
      </trkpt>
      <trkpt lat="42.85455" lon="1.84368">
        <ele>1254.613</ele>
        <time>2021-02-28T13:21:56Z</time>
      </trkpt>
      <trkpt lat="42.85454" lon="1.8437">
        <ele>1254.515</ele>
        <time>2021-02-28T13:21:58Z</time>
      </trkpt>
      <trkpt lat="42.85452" lon="1.84373">
        <ele>1255.621</ele>
        <time>2021-02-28T13:22:00Z</time>
      </trkpt>
      <trkpt lat="42.85451" lon="1.84377">
        <ele>1254.882</ele>
        <time>2021-02-28T13:22:02Z</time>
      </trkpt>
      <trkpt lat="42.85449" lon="1.8438">
        <ele>1253.791</ele>
        <time>2021-02-28T13:22:04Z</time>
      </trkpt>
      <trkpt lat="42.85447" lon="1.84383">
        <ele>1253.244</ele>
        <time>2021-02-28T13:22:06Z</time>
      </trkpt>
      <trkpt lat="42.85446" lon="1.84388">
        <ele>1253.913</ele>
        <time>2021-02-28T13:22:08Z</time>
      </trkpt>
      <trkpt lat="42.85446" lon="1.84392">
        <ele>1253.648</ele>
        <time>2021-02-28T13:22:10Z</time>
      </trkpt>
      <trkpt lat="42.85448" lon="1.84397">
        <ele>1254.193</ele>
        <time>2021-02-28T13:22:12Z</time>
      </trkpt>
      <trkpt lat="42.8545" lon="1.844">
        <ele>1255.108</ele>
        <time>2021-02-28T13:22:14Z</time>
      </trkpt>
      <trkpt lat="42.85452" lon="1.844">
        <ele>1254.565</ele>
        <time>2021-02-28T13:22:16Z</time>
      </trkpt>
      <trkpt lat="42.85455" lon="1.84399">
        <ele>1254.175</ele>
        <time>2021-02-28T13:22:18Z</time>
      </trkpt>
      <trkpt lat="42.85457" lon="1.84397">
        <ele>1253.073</ele>
        <time>2021-02-28T13:22:20Z</time>
      </trkpt>
      <trkpt lat="42.85458" lon="1.84395">
        <ele>1251.85</ele>
        <time>2021-02-28T13:22:22Z</time>
      </trkpt>
      <trkpt lat="42.8546" lon="1.84392">
        <ele>1252.778</ele>
        <time>2021-02-28T13:22:24Z</time>
      </trkpt>
      <trkpt lat="42.85462" lon="1.8439">
        <ele>1251.765</ele>
        <time>2021-02-28T13:22:26Z</time>
      </trkpt>
      <trkpt lat="42.85463" lon="1.84387">
        <ele>1252.123</ele>
        <time>2021-02-28T13:22:28Z</time>
      </trkpt>
      <trkpt lat="42.85464" lon="1.84386">
        <ele>1250.445</ele>
        <time>2021-02-28T13:22:30Z</time>
      </trkpt>
      <trkpt lat="42.85466" lon="1.84385">
        <ele>1248.661</ele>
        <time>2021-02-28T13:22:32Z</time>
      </trkpt>
      <trkpt lat="42.85467" lon="1.84383">
        <ele>1248.29</ele>
        <time>2021-02-28T13:22:34Z</time>
      </trkpt>
      <trkpt lat="42.85468" lon="1.84381">
        <ele>1246.929</ele>
        <time>2021-02-28T13:22:36Z</time>
      </trkpt>
      <trkpt lat="42.85469" lon="1.84379">
        <ele>1247.259</ele>
        <time>2021-02-28T13:22:38Z</time>
      </trkpt>
      <trkpt lat="42.85471" lon="1.84376">
        <ele>1248.682</ele>
        <time>2021-02-28T13:22:40Z</time>
      </trkpt>
      <trkpt lat="42.85473" lon="1.84373">
        <ele>1248.692</ele>
        <time>2021-02-28T13:22:42Z</time>
      </trkpt>
      <trkpt lat="42.85476" lon="1.84371">
        <ele>1249.844</ele>
        <time>2021-02-28T13:22:44Z</time>
      </trkpt>
      <trkpt lat="42.85479" lon="1.84368">
        <ele>1249.698</ele>
        <time>2021-02-28T13:22:46Z</time>
      </trkpt>
      <trkpt lat="42.85481" lon="1.84366">
        <ele>1250.549</ele>
        <time>2021-02-28T13:22:48Z</time>
      </trkpt>
      <trkpt lat="42.85484" lon="1.84364">
        <ele>1251.557</ele>
        <time>2021-02-28T13:22:50Z</time>
      </trkpt>
      <trkpt lat="42.85486" lon="1.84362">
        <ele>1253.302</ele>
        <time>2021-02-28T13:22:52Z</time>
      </trkpt>
      <trkpt lat="42.85488" lon="1.84361">
        <ele>1254.256</ele>
        <time>2021-02-28T13:22:54Z</time>
      </trkpt>
      <trkpt lat="42.8549" lon="1.84359">
        <ele>1254.215</ele>
        <time>2021-02-28T13:22:56Z</time>
      </trkpt>
      <trkpt lat="42.85493" lon="1.84356">
        <ele>1252.834</ele>
        <time>2021-02-28T13:22:58Z</time>
      </trkpt>
      <trkpt lat="42.85496" lon="1.84353">
        <ele>1252.873</ele>
        <time>2021-02-28T13:23:00Z</time>
      </trkpt>
      <trkpt lat="42.85499" lon="1.8435">
        <ele>1253.461</ele>
        <time>2021-02-28T13:23:02Z</time>
      </trkpt>
      <trkpt lat="42.855" lon="1.84346">
        <ele>1253.312</ele>
        <time>2021-02-28T13:23:04Z</time>
      </trkpt>
      <trkpt lat="42.85502" lon="1.84344">
        <ele>1252.282</ele>
        <time>2021-02-28T13:23:06Z</time>
      </trkpt>
      <trkpt lat="42.85504" lon="1.84342">
        <ele>1251.872</ele>
        <time>2021-02-28T13:23:08Z</time>
      </trkpt>
      <trkpt lat="42.85506" lon="1.8434">
        <ele>1250.027</ele>
        <time>2021-02-28T13:23:10Z</time>
      </trkpt>
      <trkpt lat="42.85509" lon="1.84338">
        <ele>1250.149</ele>
        <time>2021-02-28T13:23:12Z</time>
      </trkpt>
      <trkpt lat="42.85512" lon="1.84337">
        <ele>1250.81</ele>
        <time>2021-02-28T13:23:14Z</time>
      </trkpt>
      <trkpt lat="42.85514" lon="1.84335">
        <ele>1250.133</ele>
        <time>2021-02-28T13:23:16Z</time>
      </trkpt>
      <trkpt lat="42.85516" lon="1.84332">
        <ele>1248.982</ele>
        <time>2021-02-28T13:23:18Z</time>
      </trkpt>
      <trkpt lat="42.85518" lon="1.8433">
        <ele>1248.829</ele>
        <time>2021-02-28T13:23:20Z</time>
      </trkpt>
      <trkpt lat="42.8552" lon="1.84328">
        <ele>1248.354</ele>
        <time>2021-02-28T13:23:22Z</time>
      </trkpt>
      <trkpt lat="42.85522" lon="1.84326">
        <ele>1246.455</ele>
        <time>2021-02-28T13:23:24Z</time>
      </trkpt>
      <trkpt lat="42.85524" lon="1.84324">
        <ele>1246.172</ele>
        <time>2021-02-28T13:23:26Z</time>
      </trkpt>
      <trkpt lat="42.85526" lon="1.84322">
        <ele>1244.007</ele>
        <time>2021-02-28T13:23:28Z</time>
      </trkpt>
      <trkpt lat="42.85529" lon="1.84319">
        <ele>1242.999</ele>
        <time>2021-02-28T13:23:30Z</time>
      </trkpt>
      <trkpt lat="42.85531" lon="1.84317">
        <ele>1242.722</ele>
        <time>2021-02-28T13:23:32Z</time>
      </trkpt>
      <trkpt lat="42.85534" lon="1.84314">
        <ele>1241.601</ele>
        <time>2021-02-28T13:23:34Z</time>
      </trkpt>
      <trkpt lat="42.85536" lon="1.84312">
        <ele>1241.62</ele>
        <time>2021-02-28T13:23:36Z</time>
      </trkpt>
      <trkpt lat="42.85539" lon="1.84309">
        <ele>1241.051</ele>
        <time>2021-02-28T13:23:38Z</time>
      </trkpt>
      <trkpt lat="42.85542" lon="1.84307">
        <ele>1242.943</ele>
        <time>2021-02-28T13:23:40Z</time>
      </trkpt>
      <trkpt lat="42.85544" lon="1.84306">
        <ele>1244.53</ele>
        <time>2021-02-28T13:23:42Z</time>
      </trkpt>
      <trkpt lat="42.85547" lon="1.84304">
        <ele>1245.696</ele>
        <time>2021-02-28T13:23:44Z</time>
      </trkpt>
      <trkpt lat="42.8555" lon="1.84301">
        <ele>1245.676</ele>
        <time>2021-02-28T13:23:46Z</time>
      </trkpt>
      <trkpt lat="42.85551" lon="1.84301">
        <ele>1246.16</ele>
        <time>2021-02-28T13:23:48Z</time>
      </trkpt>
      <trkpt lat="42.85551" lon="1.84301">
        <ele>1245.858</ele>
        <time>2021-02-28T13:23:50Z</time>
      </trkpt>
      <trkpt lat="42.85551" lon="1.843">
        <ele>1246.001</ele>
        <time>2021-02-28T13:23:52Z</time>
      </trkpt>
      <trkpt lat="42.85553" lon="1.84299">
        <ele>1245.995</ele>
        <time>2021-02-28T13:23:54Z</time>
      </trkpt>
      <trkpt lat="42.85555" lon="1.84296">
        <ele>1244.126</ele>
        <time>2021-02-28T13:23:56Z</time>
      </trkpt>
      <trkpt lat="42.85557" lon="1.84294">
        <ele>1244.75</ele>
        <time>2021-02-28T13:23:58Z</time>
      </trkpt>
      <trkpt lat="42.85559" lon="1.84291">
        <ele>1244.181</ele>
        <time>2021-02-28T13:24:00Z</time>
      </trkpt>
      <trkpt lat="42.85561" lon="1.84289">
        <ele>1242.604</ele>
        <time>2021-02-28T13:24:02Z</time>
      </trkpt>
      <trkpt lat="42.85563" lon="1.84286">
        <ele>1242.094</ele>
        <time>2021-02-28T13:24:04Z</time>
      </trkpt>
      <trkpt lat="42.85566" lon="1.84284">
        <ele>1242.866</ele>
        <time>2021-02-28T13:24:06Z</time>
      </trkpt>
      <trkpt lat="42.85568" lon="1.84281">
        <ele>1242.27</ele>
        <time>2021-02-28T13:24:08Z</time>
      </trkpt>
      <trkpt lat="42.8557" lon="1.8428">
        <ele>1243.963</ele>
        <time>2021-02-28T13:24:10Z</time>
      </trkpt>
      <trkpt lat="42.85572" lon="1.84279">
        <ele>1245.186</ele>
        <time>2021-02-28T13:24:12Z</time>
      </trkpt>
      <trkpt lat="42.85575" lon="1.84277">
        <ele>1245.608</ele>
        <time>2021-02-28T13:24:14Z</time>
      </trkpt>
      <trkpt lat="42.85577" lon="1.84275">
        <ele>1243.949</ele>
        <time>2021-02-28T13:24:16Z</time>
      </trkpt>
      <trkpt lat="42.85579" lon="1.84272">
        <ele>1242.34</ele>
        <time>2021-02-28T13:24:18Z</time>
      </trkpt>
      <trkpt lat="42.85581" lon="1.84269">
        <ele>1240.238</ele>
        <time>2021-02-28T13:24:20Z</time>
      </trkpt>
      <trkpt lat="42.85582" lon="1.84266">
        <ele>1239.317</ele>
        <time>2021-02-28T13:24:22Z</time>
      </trkpt>
      <trkpt lat="42.85585" lon="1.84264">
        <ele>1237.49</ele>
        <time>2021-02-28T13:24:24Z</time>
      </trkpt>
      <trkpt lat="42.85587" lon="1.84261">
        <ele>1235.956</ele>
        <time>2021-02-28T13:24:26Z</time>
      </trkpt>
      <trkpt lat="42.85588" lon="1.8426">
        <ele>1235.622</ele>
        <time>2021-02-28T13:24:28Z</time>
      </trkpt>
      <trkpt lat="42.8559" lon="1.84257">
        <ele>1235.011</ele>
        <time>2021-02-28T13:24:30Z</time>
      </trkpt>
      <trkpt lat="42.85592" lon="1.84255">
        <ele>1236.431</ele>
        <time>2021-02-28T13:24:32Z</time>
      </trkpt>
      <trkpt lat="42.85594" lon="1.84252">
        <ele>1236.73</ele>
        <time>2021-02-28T13:24:34Z</time>
      </trkpt>
      <trkpt lat="42.85597" lon="1.8425">
        <ele>1236.141</ele>
        <time>2021-02-28T13:24:36Z</time>
      </trkpt>
      <trkpt lat="42.85598" lon="1.84248">
        <ele>1233.829</ele>
        <time>2021-02-28T13:24:38Z</time>
      </trkpt>
      <trkpt lat="42.85601" lon="1.84246">
        <ele>1232.714</ele>
        <time>2021-02-28T13:24:40Z</time>
      </trkpt>
      <trkpt lat="42.85604" lon="1.84245">
        <ele>1232.964</ele>
        <time>2021-02-28T13:24:42Z</time>
      </trkpt>
      <trkpt lat="42.85606" lon="1.84243">
        <ele>1234.356</ele>
        <time>2021-02-28T13:24:44Z</time>
      </trkpt>
      <trkpt lat="42.85609" lon="1.8424">
        <ele>1234.944</ele>
        <time>2021-02-28T13:24:46Z</time>
      </trkpt>
      <trkpt lat="42.85611" lon="1.84238">
        <ele>1234.12</ele>
        <time>2021-02-28T13:24:48Z</time>
      </trkpt>
      <trkpt lat="42.85612" lon="1.84236">
        <ele>1233.871</ele>
        <time>2021-02-28T13:24:50Z</time>
      </trkpt>
      <trkpt lat="42.85615" lon="1.84235">
        <ele>1233.989</ele>
        <time>2021-02-28T13:24:52Z</time>
      </trkpt>
      <trkpt lat="42.85617" lon="1.84233">
        <ele>1233.908</ele>
        <time>2021-02-28T13:24:54Z</time>
      </trkpt>
      <trkpt lat="42.85619" lon="1.84231">
        <ele>1229.764</ele>
        <time>2021-02-28T13:24:56Z</time>
      </trkpt>
      <trkpt lat="42.85622" lon="1.84229">
        <ele>1230.095</ele>
        <time>2021-02-28T13:24:58Z</time>
      </trkpt>
      <trkpt lat="42.85625" lon="1.84227">
        <ele>1229.834</ele>
        <time>2021-02-28T13:25:00Z</time>
      </trkpt>
      <trkpt lat="42.85628" lon="1.84225">
        <ele>1230.088</ele>
        <time>2021-02-28T13:25:02Z</time>
      </trkpt>
      <trkpt lat="42.85631" lon="1.84222">
        <ele>1228.644</ele>
        <time>2021-02-28T13:25:04Z</time>
      </trkpt>
      <trkpt lat="42.85633" lon="1.8422">
        <ele>1227.555</ele>
        <time>2021-02-28T13:25:06Z</time>
      </trkpt>
      <trkpt lat="42.85635" lon="1.84218">
        <ele>1227.636</ele>
        <time>2021-02-28T13:25:08Z</time>
      </trkpt>
      <trkpt lat="42.85639" lon="1.84216">
        <ele>1228.538</ele>
        <time>2021-02-28T13:25:10Z</time>
      </trkpt>
      <trkpt lat="42.85641" lon="1.84214">
        <ele>1226.558</ele>
        <time>2021-02-28T13:25:12Z</time>
      </trkpt>
      <trkpt lat="42.85644" lon="1.84211">
        <ele>1226.491</ele>
        <time>2021-02-28T13:25:14Z</time>
      </trkpt>
      <trkpt lat="42.85648" lon="1.8421">
        <ele>1224.599</ele>
        <time>2021-02-28T13:25:16Z</time>
      </trkpt>
      <trkpt lat="42.8565" lon="1.84208">
        <ele>1222.843</ele>
        <time>2021-02-28T13:25:18Z</time>
      </trkpt>
      <trkpt lat="42.85653" lon="1.84206">
        <ele>1222.104</ele>
        <time>2021-02-28T13:25:20Z</time>
      </trkpt>
      <trkpt lat="42.85655" lon="1.84204">
        <ele>1222.629</ele>
        <time>2021-02-28T13:25:22Z</time>
      </trkpt>
      <trkpt lat="42.85657" lon="1.84201">
        <ele>1217.253</ele>
        <time>2021-02-28T13:25:24Z</time>
      </trkpt>
      <trkpt lat="42.85659" lon="1.84199">
        <ele>1215.73</ele>
        <time>2021-02-28T13:25:26Z</time>
      </trkpt>
      <trkpt lat="42.85662" lon="1.84197">
        <ele>1215.425</ele>
        <time>2021-02-28T13:25:28Z</time>
      </trkpt>
      <trkpt lat="42.85665" lon="1.84194">
        <ele>1216.374</ele>
        <time>2021-02-28T13:25:30Z</time>
      </trkpt>
      <trkpt lat="42.85668" lon="1.84192">
        <ele>1217.399</ele>
        <time>2021-02-28T13:25:32Z</time>
      </trkpt>
      <trkpt lat="42.85671" lon="1.84189">
        <ele>1218.984</ele>
        <time>2021-02-28T13:25:34Z</time>
      </trkpt>
      <trkpt lat="42.85674" lon="1.84188">
        <ele>1219.338</ele>
        <time>2021-02-28T13:25:36Z</time>
      </trkpt>
      <trkpt lat="42.85677" lon="1.84185">
        <ele>1219.302</ele>
        <time>2021-02-28T13:25:38Z</time>
      </trkpt>
      <trkpt lat="42.85679" lon="1.84183">
        <ele>1220.007</ele>
        <time>2021-02-28T13:25:40Z</time>
      </trkpt>
      <trkpt lat="42.85682" lon="1.84181">
        <ele>1219.866</ele>
        <time>2021-02-28T13:25:42Z</time>
      </trkpt>
      <trkpt lat="42.85684" lon="1.84179">
        <ele>1218.264</ele>
        <time>2021-02-28T13:25:44Z</time>
      </trkpt>
      <trkpt lat="42.85686" lon="1.84177">
        <ele>1217.481</ele>
        <time>2021-02-28T13:25:46Z</time>
      </trkpt>
      <trkpt lat="42.85689" lon="1.84174">
        <ele>1217.11</ele>
        <time>2021-02-28T13:25:49Z</time>
      </trkpt>
      <trkpt lat="42.85691" lon="1.84172">
        <ele>1219.014</ele>
        <time>2021-02-28T13:25:51Z</time>
      </trkpt>
      <trkpt lat="42.85694" lon="1.84171">
        <ele>1219.349</ele>
        <time>2021-02-28T13:25:53Z</time>
      </trkpt>
      <trkpt lat="42.85697" lon="1.84169">
        <ele>1219.708</ele>
        <time>2021-02-28T13:25:55Z</time>
      </trkpt>
      <trkpt lat="42.857" lon="1.84167">
        <ele>1219.103</ele>
        <time>2021-02-28T13:25:57Z</time>
      </trkpt>
      <trkpt lat="42.85702" lon="1.84164">
        <ele>1217.795</ele>
        <time>2021-02-28T13:25:59Z</time>
      </trkpt>
      <trkpt lat="42.85705" lon="1.84162">
        <ele>1217.069</ele>
        <time>2021-02-28T13:26:01Z</time>
      </trkpt>
      <trkpt lat="42.85707" lon="1.8416">
        <ele>1216.63</ele>
        <time>2021-02-28T13:26:03Z</time>
      </trkpt>
      <trkpt lat="42.8571" lon="1.84158">
        <ele>1218.259</ele>
        <time>2021-02-28T13:26:05Z</time>
      </trkpt>
      <trkpt lat="42.85712" lon="1.84156">
        <ele>1217.922</ele>
        <time>2021-02-28T13:26:07Z</time>
      </trkpt>
      <trkpt lat="42.85715" lon="1.84155">
        <ele>1218.313</ele>
        <time>2021-02-28T13:26:09Z</time>
      </trkpt>
      <trkpt lat="42.85718" lon="1.84153">
        <ele>1218.564</ele>
        <time>2021-02-28T13:26:11Z</time>
      </trkpt>
      <trkpt lat="42.8572" lon="1.84151">
        <ele>1218.323</ele>
        <time>2021-02-28T13:26:13Z</time>
      </trkpt>
      <trkpt lat="42.85723" lon="1.84148">
        <ele>1218.765</ele>
        <time>2021-02-28T13:26:15Z</time>
      </trkpt>
      <trkpt lat="42.85726" lon="1.84146">
        <ele>1219.939</ele>
        <time>2021-02-28T13:26:17Z</time>
      </trkpt>
      <trkpt lat="42.85729" lon="1.84144">
        <ele>1220.28</ele>
        <time>2021-02-28T13:26:19Z</time>
      </trkpt>
      <trkpt lat="42.85732" lon="1.84141">
        <ele>1219.983</ele>
        <time>2021-02-28T13:26:21Z</time>
      </trkpt>
      <trkpt lat="42.85735" lon="1.84138">
        <ele>1219.667</ele>
        <time>2021-02-28T13:26:23Z</time>
      </trkpt>
      <trkpt lat="42.85737" lon="1.84135">
        <ele>1218.909</ele>
        <time>2021-02-28T13:26:25Z</time>
      </trkpt>
      <trkpt lat="42.8574" lon="1.84133">
        <ele>1219.19</ele>
        <time>2021-02-28T13:26:27Z</time>
      </trkpt>
      <trkpt lat="42.85742" lon="1.8413">
        <ele>1217.7</ele>
        <time>2021-02-28T13:26:29Z</time>
      </trkpt>
      <trkpt lat="42.85745" lon="1.84128">
        <ele>1216.278</ele>
        <time>2021-02-28T13:26:31Z</time>
      </trkpt>
      <trkpt lat="42.85747" lon="1.84126">
        <ele>1215.681</ele>
        <time>2021-02-28T13:26:33Z</time>
      </trkpt>
      <trkpt lat="42.85749" lon="1.84124">
        <ele>1215.946</ele>
        <time>2021-02-28T13:26:35Z</time>
      </trkpt>
      <trkpt lat="42.85752" lon="1.84123">
        <ele>1215.958</ele>
        <time>2021-02-28T13:26:37Z</time>
      </trkpt>
      <trkpt lat="42.85754" lon="1.84121">
        <ele>1214.722</ele>
        <time>2021-02-28T13:26:39Z</time>
      </trkpt>
      <trkpt lat="42.85757" lon="1.84119">
        <ele>1215.145</ele>
        <time>2021-02-28T13:26:41Z</time>
      </trkpt>
      <trkpt lat="42.8576" lon="1.84117">
        <ele>1215.076</ele>
        <time>2021-02-28T13:26:43Z</time>
      </trkpt>
      <trkpt lat="42.85763" lon="1.84116">
        <ele>1214.518</ele>
        <time>2021-02-28T13:26:45Z</time>
      </trkpt>
      <trkpt lat="42.85765" lon="1.84114">
        <ele>1214.183</ele>
        <time>2021-02-28T13:26:47Z</time>
      </trkpt>
      <trkpt lat="42.85767" lon="1.84112">
        <ele>1213.219</ele>
        <time>2021-02-28T13:26:49Z</time>
      </trkpt>
      <trkpt lat="42.8577" lon="1.8411">
        <ele>1212.222</ele>
        <time>2021-02-28T13:26:51Z</time>
      </trkpt>
      <trkpt lat="42.85773" lon="1.84108">
        <ele>1212.375</ele>
        <time>2021-02-28T13:26:53Z</time>
      </trkpt>
      <trkpt lat="42.85775" lon="1.84106">
        <ele>1211.75</ele>
        <time>2021-02-28T13:26:55Z</time>
      </trkpt>
      <trkpt lat="42.85778" lon="1.84104">
        <ele>1212.079</ele>
        <time>2021-02-28T13:26:57Z</time>
      </trkpt>
      <trkpt lat="42.85781" lon="1.84102">
        <ele>1212.702</ele>
        <time>2021-02-28T13:26:59Z</time>
      </trkpt>
      <trkpt lat="42.85783" lon="1.84102">
        <ele>1211.235</ele>
        <time>2021-02-28T13:27:01Z</time>
      </trkpt>
      <trkpt lat="42.85786" lon="1.84101">
        <ele>1213.058</ele>
        <time>2021-02-28T13:27:03Z</time>
      </trkpt>
      <trkpt lat="42.85789" lon="1.84099">
        <ele>1213.686</ele>
        <time>2021-02-28T13:27:05Z</time>
      </trkpt>
      <trkpt lat="42.85791" lon="1.84097">
        <ele>1214.119</ele>
        <time>2021-02-28T13:27:07Z</time>
      </trkpt>
      <trkpt lat="42.85794" lon="1.84096">
        <ele>1215.598</ele>
        <time>2021-02-28T13:27:09Z</time>
      </trkpt>
      <trkpt lat="42.85797" lon="1.84095">
        <ele>1215.039</ele>
        <time>2021-02-28T13:27:11Z</time>
      </trkpt>
      <trkpt lat="42.85799" lon="1.84095">
        <ele>1215.789</ele>
        <time>2021-02-28T13:27:13Z</time>
      </trkpt>
      <trkpt lat="42.85802" lon="1.84093">
        <ele>1215.501</ele>
        <time>2021-02-28T13:27:15Z</time>
      </trkpt>
      <trkpt lat="42.85805" lon="1.84093">
        <ele>1216.464</ele>
        <time>2021-02-28T13:27:17Z</time>
      </trkpt>
      <trkpt lat="42.85808" lon="1.84091">
        <ele>1216.256</ele>
        <time>2021-02-28T13:27:19Z</time>
      </trkpt>
      <trkpt lat="42.85811" lon="1.84091">
        <ele>1215.766</ele>
        <time>2021-02-28T13:27:21Z</time>
      </trkpt>
      <trkpt lat="42.85814" lon="1.8409">
        <ele>1214.261</ele>
        <time>2021-02-28T13:27:23Z</time>
      </trkpt>
      <trkpt lat="42.85817" lon="1.84088">
        <ele>1214.4</ele>
        <time>2021-02-28T13:27:25Z</time>
      </trkpt>
      <trkpt lat="42.8582" lon="1.84088">
        <ele>1214.862</ele>
        <time>2021-02-28T13:27:27Z</time>
      </trkpt>
      <trkpt lat="42.85823" lon="1.84086">
        <ele>1214.28</ele>
        <time>2021-02-28T13:27:29Z</time>
      </trkpt>
      <trkpt lat="42.85825" lon="1.84085">
        <ele>1216.511</ele>
        <time>2021-02-28T13:27:31Z</time>
      </trkpt>
      <trkpt lat="42.85828" lon="1.84085">
        <ele>1218.05</ele>
        <time>2021-02-28T13:27:33Z</time>
      </trkpt>
      <trkpt lat="42.85831" lon="1.84083">
        <ele>1218.188</ele>
        <time>2021-02-28T13:27:35Z</time>
      </trkpt>
      <trkpt lat="42.85834" lon="1.84082">
        <ele>1217.804</ele>
        <time>2021-02-28T13:27:37Z</time>
      </trkpt>
      <trkpt lat="42.85836" lon="1.84081">
        <ele>1215.797</ele>
        <time>2021-02-28T13:27:39Z</time>
      </trkpt>
      <trkpt lat="42.85839" lon="1.8408">
        <ele>1214.201</ele>
        <time>2021-02-28T13:27:41Z</time>
      </trkpt>
      <trkpt lat="42.85842" lon="1.84079">
        <ele>1211.772</ele>
        <time>2021-02-28T13:27:43Z</time>
      </trkpt>
      <trkpt lat="42.85844" lon="1.84076">
        <ele>1210.569</ele>
        <time>2021-02-28T13:27:45Z</time>
      </trkpt>
      <trkpt lat="42.85846" lon="1.84075">
        <ele>1210.676</ele>
        <time>2021-02-28T13:27:47Z</time>
      </trkpt>
      <trkpt lat="42.85849" lon="1.84074">
        <ele>1210.953</ele>
        <time>2021-02-28T13:27:49Z</time>
      </trkpt>
      <trkpt lat="42.85852" lon="1.84073">
        <ele>1210.404</ele>
        <time>2021-02-28T13:27:51Z</time>
      </trkpt>
      <trkpt lat="42.85854" lon="1.84073">
        <ele>1210.526</ele>
        <time>2021-02-28T13:27:53Z</time>
      </trkpt>
      <trkpt lat="42.85857" lon="1.84072">
        <ele>1209.81</ele>
        <time>2021-02-28T13:27:55Z</time>
      </trkpt>
      <trkpt lat="42.8586" lon="1.84071">
        <ele>1209.725</ele>
        <time>2021-02-28T13:27:57Z</time>
      </trkpt>
      <trkpt lat="42.85863" lon="1.8407">
        <ele>1209.067</ele>
        <time>2021-02-28T13:27:59Z</time>
      </trkpt>
      <trkpt lat="42.85866" lon="1.84069">
        <ele>1208.521</ele>
        <time>2021-02-28T13:28:01Z</time>
      </trkpt>
      <trkpt lat="42.85869" lon="1.84068">
        <ele>1207.162</ele>
        <time>2021-02-28T13:28:03Z</time>
      </trkpt>
      <trkpt lat="42.85872" lon="1.84069">
        <ele>1207.42</ele>
        <time>2021-02-28T13:28:05Z</time>
      </trkpt>
      <trkpt lat="42.85875" lon="1.84069">
        <ele>1207.301</ele>
        <time>2021-02-28T13:28:07Z</time>
      </trkpt>
      <trkpt lat="42.85878" lon="1.84068">
        <ele>1208.533</ele>
        <time>2021-02-28T13:28:09Z</time>
      </trkpt>
      <trkpt lat="42.8588" lon="1.84068">
        <ele>1206.647</ele>
        <time>2021-02-28T13:28:11Z</time>
      </trkpt>
      <trkpt lat="42.85883" lon="1.84068">
        <ele>1205.083</ele>
        <time>2021-02-28T13:28:13Z</time>
      </trkpt>
      <trkpt lat="42.85886" lon="1.84068">
        <ele>1204.176</ele>
        <time>2021-02-28T13:28:15Z</time>
      </trkpt>
      <trkpt lat="42.85888" lon="1.84068">
        <ele>1203.823</ele>
        <time>2021-02-28T13:28:17Z</time>
      </trkpt>
      <trkpt lat="42.85891" lon="1.84068">
        <ele>1203.584</ele>
        <time>2021-02-28T13:28:19Z</time>
      </trkpt>
      <trkpt lat="42.85894" lon="1.84069">
        <ele>1203.927</ele>
        <time>2021-02-28T13:28:21Z</time>
      </trkpt>
      <trkpt lat="42.85896" lon="1.8407">
        <ele>1203.582</ele>
        <time>2021-02-28T13:28:23Z</time>
      </trkpt>
      <trkpt lat="42.85899" lon="1.8407">
        <ele>1202.734</ele>
        <time>2021-02-28T13:28:25Z</time>
      </trkpt>
      <trkpt lat="42.85901" lon="1.84071">
        <ele>1201.032</ele>
        <time>2021-02-28T13:28:27Z</time>
      </trkpt>
      <trkpt lat="42.85904" lon="1.84072">
        <ele>1200.036</ele>
        <time>2021-02-28T13:28:29Z</time>
      </trkpt>
      <trkpt lat="42.85907" lon="1.84073">
        <ele>1199.107</ele>
        <time>2021-02-28T13:28:31Z</time>
      </trkpt>
      <trkpt lat="42.85909" lon="1.84075">
        <ele>1198.647</ele>
        <time>2021-02-28T13:28:33Z</time>
      </trkpt>
      <trkpt lat="42.85912" lon="1.84076">
        <ele>1197.888</ele>
        <time>2021-02-28T13:28:35Z</time>
      </trkpt>
      <trkpt lat="42.85914" lon="1.84079">
        <ele>1197.187</ele>
        <time>2021-02-28T13:28:37Z</time>
      </trkpt>
      <trkpt lat="42.85916" lon="1.84082">
        <ele>1196.44</ele>
        <time>2021-02-28T13:28:39Z</time>
      </trkpt>
      <trkpt lat="42.85917" lon="1.84085">
        <ele>1195.772</ele>
        <time>2021-02-28T13:28:41Z</time>
      </trkpt>
      <trkpt lat="42.85919" lon="1.84087">
        <ele>1195.273</ele>
        <time>2021-02-28T13:28:43Z</time>
      </trkpt>
      <trkpt lat="42.85921" lon="1.84091">
        <ele>1194.715</ele>
        <time>2021-02-28T13:28:45Z</time>
      </trkpt>
      <trkpt lat="42.85922" lon="1.84093">
        <ele>1193.98</ele>
        <time>2021-02-28T13:28:47Z</time>
      </trkpt>
      <trkpt lat="42.85923" lon="1.84096">
        <ele>1193.298</ele>
        <time>2021-02-28T13:28:49Z</time>
      </trkpt>
      <trkpt lat="42.85924" lon="1.841">
        <ele>1192.784</ele>
        <time>2021-02-28T13:28:51Z</time>
      </trkpt>
      <trkpt lat="42.85925" lon="1.84104">
        <ele>1191.724</ele>
        <time>2021-02-28T13:28:53Z</time>
      </trkpt>
      <trkpt lat="42.85925" lon="1.84107">
        <ele>1191.44</ele>
        <time>2021-02-28T13:28:55Z</time>
      </trkpt>
      <trkpt lat="42.85926" lon="1.84111">
        <ele>1190.521</ele>
        <time>2021-02-28T13:28:57Z</time>
      </trkpt>
      <trkpt lat="42.85927" lon="1.84115">
        <ele>1190.281</ele>
        <time>2021-02-28T13:28:59Z</time>
      </trkpt>
      <trkpt lat="42.85928" lon="1.84118">
        <ele>1189.931</ele>
        <time>2021-02-28T13:29:01Z</time>
      </trkpt>
      <trkpt lat="42.85929" lon="1.84121">
        <ele>1189.687</ele>
        <time>2021-02-28T13:29:03Z</time>
      </trkpt>
      <trkpt lat="42.85931" lon="1.84125">
        <ele>1189.866</ele>
        <time>2021-02-28T13:29:05Z</time>
      </trkpt>
      <trkpt lat="42.85932" lon="1.84129">
        <ele>1189.415</ele>
        <time>2021-02-28T13:29:07Z</time>
      </trkpt>
      <trkpt lat="42.85933" lon="1.84132">
        <ele>1189.155</ele>
        <time>2021-02-28T13:29:09Z</time>
      </trkpt>
      <trkpt lat="42.85934" lon="1.84136">
        <ele>1188.42</ele>
        <time>2021-02-28T13:29:11Z</time>
      </trkpt>
      <trkpt lat="42.85936" lon="1.84139">
        <ele>1188.251</ele>
        <time>2021-02-28T13:29:13Z</time>
      </trkpt>
      <trkpt lat="42.85938" lon="1.84142">
        <ele>1187.254</ele>
        <time>2021-02-28T13:29:15Z</time>
      </trkpt>
      <trkpt lat="42.8594" lon="1.84145">
        <ele>1186.598</ele>
        <time>2021-02-28T13:29:17Z</time>
      </trkpt>
      <trkpt lat="42.85942" lon="1.84147">
        <ele>1185.452</ele>
        <time>2021-02-28T13:29:19Z</time>
      </trkpt>
      <trkpt lat="42.85944" lon="1.84149">
        <ele>1184.651</ele>
        <time>2021-02-28T13:29:21Z</time>
      </trkpt>
      <trkpt lat="42.85947" lon="1.84149">
        <ele>1183.959</ele>
        <time>2021-02-28T13:29:23Z</time>
      </trkpt>
      <trkpt lat="42.8595" lon="1.84151">
        <ele>1183.042</ele>
        <time>2021-02-28T13:29:25Z</time>
      </trkpt>
      <trkpt lat="42.85952" lon="1.84151">
        <ele>1183.084</ele>
        <time>2021-02-28T13:29:27Z</time>
      </trkpt>
      <trkpt lat="42.85955" lon="1.84151">
        <ele>1183.168</ele>
        <time>2021-02-28T13:29:29Z</time>
      </trkpt>
      <trkpt lat="42.85958" lon="1.84151">
        <ele>1182.466</ele>
        <time>2021-02-28T13:29:31Z</time>
      </trkpt>
      <trkpt lat="42.85961" lon="1.84152">
        <ele>1183.488</ele>
        <time>2021-02-28T13:29:33Z</time>
      </trkpt>
      <trkpt lat="42.85964" lon="1.84153">
        <ele>1183.766</ele>
        <time>2021-02-28T13:29:35Z</time>
      </trkpt>
      <trkpt lat="42.85967" lon="1.84153">
        <ele>1183.664</ele>
        <time>2021-02-28T13:29:37Z</time>
      </trkpt>
      <trkpt lat="42.8597" lon="1.84153">
        <ele>1183.584</ele>
        <time>2021-02-28T13:29:39Z</time>
      </trkpt>
      <trkpt lat="42.85973" lon="1.84153">
        <ele>1184.5</ele>
        <time>2021-02-28T13:29:41Z</time>
      </trkpt>
      <trkpt lat="42.85975" lon="1.84153">
        <ele>1184.514</ele>
        <time>2021-02-28T13:29:43Z</time>
      </trkpt>
      <trkpt lat="42.85978" lon="1.84153">
        <ele>1184.475</ele>
        <time>2021-02-28T13:29:45Z</time>
      </trkpt>
      <trkpt lat="42.85981" lon="1.84152">
        <ele>1183.522</ele>
        <time>2021-02-28T13:29:47Z</time>
      </trkpt>
      <trkpt lat="42.85984" lon="1.84153">
        <ele>1183.03</ele>
        <time>2021-02-28T13:29:49Z</time>
      </trkpt>
      <trkpt lat="42.85987" lon="1.84153">
        <ele>1183.555</ele>
        <time>2021-02-28T13:29:51Z</time>
      </trkpt>
      <trkpt lat="42.85989" lon="1.84153">
        <ele>1182.708</ele>
        <time>2021-02-28T13:29:53Z</time>
      </trkpt>
      <trkpt lat="42.85992" lon="1.84153">
        <ele>1182.377</ele>
        <time>2021-02-28T13:29:55Z</time>
      </trkpt>
      <trkpt lat="42.85995" lon="1.84153">
        <ele>1181.675</ele>
        <time>2021-02-28T13:29:57Z</time>
      </trkpt>
      <trkpt lat="42.85997" lon="1.84151">
        <ele>1181.9</ele>
        <time>2021-02-28T13:29:59Z</time>
      </trkpt>
      <trkpt lat="42.86" lon="1.84151">
        <ele>1180.969</ele>
        <time>2021-02-28T13:30:01Z</time>
      </trkpt>
      <trkpt lat="42.86003" lon="1.8415">
        <ele>1180.632</ele>
        <time>2021-02-28T13:30:03Z</time>
      </trkpt>
      <trkpt lat="42.86005" lon="1.84149">
        <ele>1180.291</ele>
        <time>2021-02-28T13:30:05Z</time>
      </trkpt>
      <trkpt lat="42.86008" lon="1.84148">
        <ele>1180.117</ele>
        <time>2021-02-28T13:30:07Z</time>
      </trkpt>
      <trkpt lat="42.8601" lon="1.84147">
        <ele>1181.258</ele>
        <time>2021-02-28T13:30:09Z</time>
      </trkpt>
      <trkpt lat="42.86013" lon="1.84146">
        <ele>1182.066</ele>
        <time>2021-02-28T13:30:11Z</time>
      </trkpt>
      <trkpt lat="42.86015" lon="1.84145">
        <ele>1182.758</ele>
        <time>2021-02-28T13:30:13Z</time>
      </trkpt>
      <trkpt lat="42.86017" lon="1.84143">
        <ele>1183.564</ele>
        <time>2021-02-28T13:30:15Z</time>
      </trkpt>
      <trkpt lat="42.8602" lon="1.84141">
        <ele>1183.899</ele>
        <time>2021-02-28T13:30:17Z</time>
      </trkpt>
      <trkpt lat="42.86022" lon="1.84139">
        <ele>1181.508</ele>
        <time>2021-02-28T13:30:19Z</time>
      </trkpt>
      <trkpt lat="42.86024" lon="1.84136">
        <ele>1181.187</ele>
        <time>2021-02-28T13:30:21Z</time>
      </trkpt>
      <trkpt lat="42.86026" lon="1.84134">
        <ele>1180.077</ele>
        <time>2021-02-28T13:30:23Z</time>
      </trkpt>
      <trkpt lat="42.86028" lon="1.84131">
        <ele>1178.653</ele>
        <time>2021-02-28T13:30:25Z</time>
      </trkpt>
      <trkpt lat="42.8603" lon="1.84128">
        <ele>1177.592</ele>
        <time>2021-02-28T13:30:27Z</time>
      </trkpt>
      <trkpt lat="42.86031" lon="1.84125">
        <ele>1177.142</ele>
        <time>2021-02-28T13:30:29Z</time>
      </trkpt>
      <trkpt lat="42.86034" lon="1.84122">
        <ele>1176.584</ele>
        <time>2021-02-28T13:30:31Z</time>
      </trkpt>
      <trkpt lat="42.86036" lon="1.84119">
        <ele>1176.015</ele>
        <time>2021-02-28T13:30:33Z</time>
      </trkpt>
      <trkpt lat="42.86037" lon="1.84116">
        <ele>1176.405</ele>
        <time>2021-02-28T13:30:35Z</time>
      </trkpt>
      <trkpt lat="42.86038" lon="1.84113">
        <ele>1176.056</ele>
        <time>2021-02-28T13:30:37Z</time>
      </trkpt>
      <trkpt lat="42.86041" lon="1.8411">
        <ele>1177.322</ele>
        <time>2021-02-28T13:30:39Z</time>
      </trkpt>
      <trkpt lat="42.86043" lon="1.84108">
        <ele>1177.215</ele>
        <time>2021-02-28T13:30:41Z</time>
      </trkpt>
      <trkpt lat="42.86045" lon="1.84107">
        <ele>1176.456</ele>
        <time>2021-02-28T13:30:43Z</time>
      </trkpt>
      <trkpt lat="42.86048" lon="1.84106">
        <ele>1176.261</ele>
        <time>2021-02-28T13:30:45Z</time>
      </trkpt>
      <trkpt lat="42.8605" lon="1.84107">
        <ele>1174.906</ele>
        <time>2021-02-28T13:30:47Z</time>
      </trkpt>
      <trkpt lat="42.86052" lon="1.84109">
        <ele>1174.803</ele>
        <time>2021-02-28T13:30:49Z</time>
      </trkpt>
      <trkpt lat="42.86053" lon="1.84112">
        <ele>1174.257</ele>
        <time>2021-02-28T13:30:51Z</time>
      </trkpt>
      <trkpt lat="42.86054" lon="1.84116">
        <ele>1174.133</ele>
        <time>2021-02-28T13:30:53Z</time>
      </trkpt>
      <trkpt lat="42.86055" lon="1.84119">
        <ele>1174.636</ele>
        <time>2021-02-28T13:30:55Z</time>
      </trkpt>
      <trkpt lat="42.86055" lon="1.84122">
        <ele>1174.471</ele>
        <time>2021-02-28T13:30:57Z</time>
      </trkpt>
      <trkpt lat="42.86054" lon="1.84126">
        <ele>1173.94</ele>
        <time>2021-02-28T13:30:59Z</time>
      </trkpt>
      <trkpt lat="42.86052" lon="1.84129">
        <ele>1172.071</ele>
        <time>2021-02-28T13:31:01Z</time>
      </trkpt>
      <trkpt lat="42.86051" lon="1.84132">
        <ele>1171.161</ele>
        <time>2021-02-28T13:31:03Z</time>
      </trkpt>
      <trkpt lat="42.86049" lon="1.84135">
        <ele>1170.92</ele>
        <time>2021-02-28T13:31:05Z</time>
      </trkpt>
      <trkpt lat="42.86048" lon="1.84138">
        <ele>1170.826</ele>
        <time>2021-02-28T13:31:07Z</time>
      </trkpt>
      <trkpt lat="42.86046" lon="1.84141">
        <ele>1169.945</ele>
        <time>2021-02-28T13:31:09Z</time>
      </trkpt>
      <trkpt lat="42.86045" lon="1.84144">
        <ele>1169.355</ele>
        <time>2021-02-28T13:31:11Z</time>
      </trkpt>
      <trkpt lat="42.86043" lon="1.84147">
        <ele>1169.355</ele>
        <time>2021-02-28T13:31:13Z</time>
      </trkpt>
      <trkpt lat="42.86042" lon="1.8415">
        <ele>1168.988</ele>
        <time>2021-02-28T13:31:15Z</time>
      </trkpt>
      <trkpt lat="42.86041" lon="1.84154">
        <ele>1168.235</ele>
        <time>2021-02-28T13:31:17Z</time>
      </trkpt>
      <trkpt lat="42.8604" lon="1.84157">
        <ele>1167.04</ele>
        <time>2021-02-28T13:31:19Z</time>
      </trkpt>
      <trkpt lat="42.86039" lon="1.8416">
        <ele>1166.432</ele>
        <time>2021-02-28T13:31:21Z</time>
      </trkpt>
      <trkpt lat="42.86038" lon="1.84164">
        <ele>1165.12</ele>
        <time>2021-02-28T13:31:23Z</time>
      </trkpt>
      <trkpt lat="42.86037" lon="1.84169">
        <ele>1164.312</ele>
        <time>2021-02-28T13:31:26Z</time>
      </trkpt>
      <trkpt lat="42.86035" lon="1.84172">
        <ele>1162.612</ele>
        <time>2021-02-28T13:31:28Z</time>
      </trkpt>
      <trkpt lat="42.86034" lon="1.84176">
        <ele>1162.155</ele>
        <time>2021-02-28T13:31:30Z</time>
      </trkpt>
      <trkpt lat="42.86034" lon="1.84179">
        <ele>1161.553</ele>
        <time>2021-02-28T13:31:32Z</time>
      </trkpt>
      <trkpt lat="42.86033" lon="1.84183">
        <ele>1160.987</ele>
        <time>2021-02-28T13:31:34Z</time>
      </trkpt>
      <trkpt lat="42.86032" lon="1.84186">
        <ele>1160.958</ele>
        <time>2021-02-28T13:31:36Z</time>
      </trkpt>
      <trkpt lat="42.8603" lon="1.84191">
        <ele>1159.757</ele>
        <time>2021-02-28T13:31:39Z</time>
      </trkpt>
      <trkpt lat="42.86029" lon="1.84194">
        <ele>1160.166</ele>
        <time>2021-02-28T13:31:41Z</time>
      </trkpt>
      <trkpt lat="42.86028" lon="1.84197">
        <ele>1160.623</ele>
        <time>2021-02-28T13:31:43Z</time>
      </trkpt>
      <trkpt lat="42.86027" lon="1.84201">
        <ele>1160.374</ele>
        <time>2021-02-28T13:31:45Z</time>
      </trkpt>
      <trkpt lat="42.86026" lon="1.84205">
        <ele>1159.217</ele>
        <time>2021-02-28T13:31:47Z</time>
      </trkpt>
      <trkpt lat="42.86023" lon="1.84211">
        <ele>1161.297</ele>
        <time>2021-02-28T13:31:50Z</time>
      </trkpt>
      <trkpt lat="42.86023" lon="1.84214">
        <ele>1161.897</ele>
        <time>2021-02-28T13:31:52Z</time>
      </trkpt>
      <trkpt lat="42.86022" lon="1.84218">
        <ele>1161.797</ele>
        <time>2021-02-28T13:31:54Z</time>
      </trkpt>
      <trkpt lat="42.8602" lon="1.84222">
        <ele>1161.899</ele>
        <time>2021-02-28T13:31:56Z</time>
      </trkpt>
      <trkpt lat="42.86019" lon="1.84226">
        <ele>1162.622</ele>
        <time>2021-02-28T13:31:58Z</time>
      </trkpt>
      <trkpt lat="42.86018" lon="1.84229">
        <ele>1161.076</ele>
        <time>2021-02-28T13:32:00Z</time>
      </trkpt>
      <trkpt lat="42.86017" lon="1.84233">
        <ele>1161.332</ele>
        <time>2021-02-28T13:32:02Z</time>
      </trkpt>
      <trkpt lat="42.86015" lon="1.84236">
        <ele>1161.384</ele>
        <time>2021-02-28T13:32:04Z</time>
      </trkpt>
      <trkpt lat="42.86013" lon="1.8424">
        <ele>1163.123</ele>
        <time>2021-02-28T13:32:06Z</time>
      </trkpt>
      <trkpt lat="42.86011" lon="1.84243">
        <ele>1163.744</ele>
        <time>2021-02-28T13:32:08Z</time>
      </trkpt>
      <trkpt lat="42.8601" lon="1.84246">
        <ele>1162.454</ele>
        <time>2021-02-28T13:32:10Z</time>
      </trkpt>
      <trkpt lat="42.86009" lon="1.84247">
        <ele>1161.334</ele>
        <time>2021-02-28T13:32:11Z</time>
      </trkpt>
      <trkpt lat="42.86006" lon="1.8425">
        <ele>1161.857</ele>
        <time>2021-02-28T13:32:14Z</time>
      </trkpt>
      <trkpt lat="42.86004" lon="1.84252">
        <ele>1161.67</ele>
        <time>2021-02-28T13:32:16Z</time>
      </trkpt>
      <trkpt lat="42.86002" lon="1.84254">
        <ele>1160.54</ele>
        <time>2021-02-28T13:32:18Z</time>
      </trkpt>
      <trkpt lat="42.85999" lon="1.84255">
        <ele>1159.526</ele>
        <time>2021-02-28T13:32:20Z</time>
      </trkpt>
      <trkpt lat="42.85997" lon="1.84257">
        <ele>1159.345</ele>
        <time>2021-02-28T13:32:22Z</time>
      </trkpt>
      <trkpt lat="42.85994" lon="1.84257">
        <ele>1159.223</ele>
        <time>2021-02-28T13:32:24Z</time>
      </trkpt>
      <trkpt lat="42.85991" lon="1.84258">
        <ele>1158.968</ele>
        <time>2021-02-28T13:32:26Z</time>
      </trkpt>
      <trkpt lat="42.85989" lon="1.8426">
        <ele>1158.554</ele>
        <time>2021-02-28T13:32:28Z</time>
      </trkpt>
      <trkpt lat="42.85986" lon="1.84261">
        <ele>1158.407</ele>
        <time>2021-02-28T13:32:30Z</time>
      </trkpt>
      <trkpt lat="42.85984" lon="1.84263">
        <ele>1156.909</ele>
        <time>2021-02-28T13:32:32Z</time>
      </trkpt>
      <trkpt lat="42.85981" lon="1.84266">
        <ele>1157.38</ele>
        <time>2021-02-28T13:32:34Z</time>
      </trkpt>
      <trkpt lat="42.85981" lon="1.84269">
        <ele>1157.13</ele>
        <time>2021-02-28T13:32:36Z</time>
      </trkpt>
      <trkpt lat="42.8598" lon="1.84273">
        <ele>1156.914</ele>
        <time>2021-02-28T13:32:38Z</time>
      </trkpt>
      <trkpt lat="42.8598" lon="1.84277">
        <ele>1155.614</ele>
        <time>2021-02-28T13:32:40Z</time>
      </trkpt>
      <trkpt lat="42.8598" lon="1.84281">
        <ele>1155.214</ele>
        <time>2021-02-28T13:32:42Z</time>
      </trkpt>
      <trkpt lat="42.85982" lon="1.84285">
        <ele>1155.422</ele>
        <time>2021-02-28T13:32:44Z</time>
      </trkpt>
      <trkpt lat="42.85984" lon="1.84288">
        <ele>1155.387</ele>
        <time>2021-02-28T13:32:46Z</time>
      </trkpt>
      <trkpt lat="42.85986" lon="1.84291">
        <ele>1155.88</ele>
        <time>2021-02-28T13:32:48Z</time>
      </trkpt>
      <trkpt lat="42.85988" lon="1.84293">
        <ele>1156.303</ele>
        <time>2021-02-28T13:32:50Z</time>
      </trkpt>
      <trkpt lat="42.85991" lon="1.84295">
        <ele>1156.103</ele>
        <time>2021-02-28T13:32:52Z</time>
      </trkpt>
      <trkpt lat="42.85993" lon="1.84296">
        <ele>1156.444</ele>
        <time>2021-02-28T13:32:54Z</time>
      </trkpt>
      <trkpt lat="42.85996" lon="1.84297">
        <ele>1156.567</ele>
        <time>2021-02-28T13:32:56Z</time>
      </trkpt>
      <trkpt lat="42.85998" lon="1.84298">
        <ele>1156.33</ele>
        <time>2021-02-28T13:32:58Z</time>
      </trkpt>
      <trkpt lat="42.86001" lon="1.843">
        <ele>1155.941</ele>
        <time>2021-02-28T13:33:00Z</time>
      </trkpt>
      <trkpt lat="42.86004" lon="1.84301">
        <ele>1156.006</ele>
        <time>2021-02-28T13:33:02Z</time>
      </trkpt>
      <trkpt lat="42.86006" lon="1.84302">
        <ele>1156.114</ele>
        <time>2021-02-28T13:33:04Z</time>
      </trkpt>
      <trkpt lat="42.86009" lon="1.84303">
        <ele>1156.773</ele>
        <time>2021-02-28T13:33:06Z</time>
      </trkpt>
      <trkpt lat="42.86011" lon="1.84304">
        <ele>1156.471</ele>
        <time>2021-02-28T13:33:08Z</time>
      </trkpt>
      <trkpt lat="42.86014" lon="1.84306">
        <ele>1155.898</ele>
        <time>2021-02-28T13:33:10Z</time>
      </trkpt>
      <trkpt lat="42.86016" lon="1.84307">
        <ele>1156.415</ele>
        <time>2021-02-28T13:33:12Z</time>
      </trkpt>
      <trkpt lat="42.86018" lon="1.84308">
        <ele>1156.254</ele>
        <time>2021-02-28T13:33:14Z</time>
      </trkpt>
      <trkpt lat="42.8602" lon="1.84309">
        <ele>1156.4</ele>
        <time>2021-02-28T13:33:16Z</time>
      </trkpt>
      <trkpt lat="42.86022" lon="1.8431">
        <ele>1156.349</ele>
        <time>2021-02-28T13:33:18Z</time>
      </trkpt>
      <trkpt lat="42.86024" lon="1.84311">
        <ele>1156.188</ele>
        <time>2021-02-28T13:33:20Z</time>
      </trkpt>
      <trkpt lat="42.86027" lon="1.84313">
        <ele>1155.84</ele>
        <time>2021-02-28T13:33:22Z</time>
      </trkpt>
      <trkpt lat="42.86029" lon="1.84315">
        <ele>1156.212</ele>
        <time>2021-02-28T13:33:24Z</time>
      </trkpt>
      <trkpt lat="42.86031" lon="1.84316">
        <ele>1155.676</ele>
        <time>2021-02-28T13:33:26Z</time>
      </trkpt>
      <trkpt lat="42.86033" lon="1.84319">
        <ele>1155.152</ele>
        <time>2021-02-28T13:33:28Z</time>
      </trkpt>
      <trkpt lat="42.86035" lon="1.84321">
        <ele>1154.586</ele>
        <time>2021-02-28T13:33:30Z</time>
      </trkpt>
      <trkpt lat="42.86037" lon="1.84324">
        <ele>1152.698</ele>
        <time>2021-02-28T13:33:32Z</time>
      </trkpt>
      <trkpt lat="42.86039" lon="1.84327">
        <ele>1151.602</ele>
        <time>2021-02-28T13:33:34Z</time>
      </trkpt>
      <trkpt lat="42.86042" lon="1.84329">
        <ele>1150.021</ele>
        <time>2021-02-28T13:33:36Z</time>
      </trkpt>
      <trkpt lat="42.86045" lon="1.84331">
        <ele>1147.901</ele>
        <time>2021-02-28T13:33:38Z</time>
      </trkpt>
      <trkpt lat="42.86046" lon="1.84334">
        <ele>1148.431</ele>
        <time>2021-02-28T13:33:40Z</time>
      </trkpt>
      <trkpt lat="42.86045" lon="1.84335">
        <ele>1148.008</ele>
        <time>2021-02-28T13:33:42Z</time>
      </trkpt>
      <trkpt lat="42.86043" lon="1.84336">
        <ele>1147.611</ele>
        <time>2021-02-28T13:33:44Z</time>
      </trkpt>
      <trkpt lat="42.86043" lon="1.84336">
        <ele>1147.545</ele>
        <time>2021-02-28T13:33:46Z</time>
      </trkpt>
      <trkpt lat="42.86043" lon="1.84336">
        <ele>1147.521</ele>
        <time>2021-02-28T13:33:48Z</time>
      </trkpt>
      <trkpt lat="42.86043" lon="1.84336">
        <ele>1147.521</ele>
        <time>2021-02-28T13:33:50Z</time>
      </trkpt>
      <trkpt lat="42.86043" lon="1.84336">
        <ele>1147.525</ele>
        <time>2021-02-28T13:33:52Z</time>
      </trkpt>
      <trkpt lat="42.86043" lon="1.84336">
        <ele>1148.282</ele>
        <time>2021-02-28T13:33:54Z</time>
      </trkpt>
      <trkpt lat="42.86044" lon="1.84337">
        <ele>1148.664</ele>
        <time>2021-02-28T13:33:56Z</time>
      </trkpt>
      <trkpt lat="42.86044" lon="1.84337">
        <ele>1148.663</ele>
        <time>2021-02-28T13:33:58Z</time>
      </trkpt>
      <trkpt lat="42.86044" lon="1.84337">
        <ele>1148.664</ele>
        <time>2021-02-28T13:34:00Z</time>
      </trkpt>
      <trkpt lat="42.86044" lon="1.84337">
        <ele>1148.665</ele>
        <time>2021-02-28T13:34:02Z</time>
      </trkpt>
      <trkpt lat="42.86044" lon="1.84337">
        <ele>1148.67</ele>
        <time>2021-02-28T13:34:04Z</time>
      </trkpt>
      <trkpt lat="42.86044" lon="1.84337">
        <ele>1148.669</ele>
        <time>2021-02-28T13:34:06Z</time>
      </trkpt>
      <trkpt lat="42.86044" lon="1.84337">
        <ele>1148.923</ele>
        <time>2021-02-28T13:34:08Z</time>
      </trkpt>
      <trkpt lat="42.86044" lon="1.84337">
        <ele>1148.915</ele>
        <time>2021-02-28T13:34:10Z</time>
      </trkpt>
      <trkpt lat="42.86044" lon="1.84337">
        <ele>1148.91</ele>
        <time>2021-02-28T13:34:12Z</time>
      </trkpt>
      <trkpt lat="42.86044" lon="1.84337">
        <ele>1148.907</ele>
        <time>2021-02-28T13:34:14Z</time>
      </trkpt>
      <trkpt lat="42.86044" lon="1.84337">
        <ele>1148.904</ele>
        <time>2021-02-28T13:34:16Z</time>
      </trkpt>
      <trkpt lat="42.86044" lon="1.84337">
        <ele>1148.909</ele>
        <time>2021-02-28T13:34:18Z</time>
      </trkpt>
      <trkpt lat="42.86044" lon="1.84337">
        <ele>1148.915</ele>
        <time>2021-02-28T13:34:20Z</time>
      </trkpt>
      <trkpt lat="42.86044" lon="1.84337">
        <ele>1148.916</ele>
        <time>2021-02-28T13:34:22Z</time>
      </trkpt>
      <trkpt lat="42.86044" lon="1.84337">
        <ele>1148.921</ele>
        <time>2021-02-28T13:34:24Z</time>
      </trkpt>
      <trkpt lat="42.86044" lon="1.84337">
        <ele>1148.921</ele>
        <time>2021-02-28T13:34:26Z</time>
      </trkpt>
      <trkpt lat="42.86044" lon="1.84337">
        <ele>1148.923</ele>
        <time>2021-02-28T13:34:28Z</time>
      </trkpt>
      <trkpt lat="42.86044" lon="1.84337">
        <ele>1149.293</ele>
        <time>2021-02-28T13:34:30Z</time>
      </trkpt>
      <trkpt lat="42.86045" lon="1.84337">
        <ele>1149.757</ele>
        <time>2021-02-28T13:34:32Z</time>
      </trkpt>
      <trkpt lat="42.86045" lon="1.84337">
        <ele>1149.767</ele>
        <time>2021-02-28T13:34:34Z</time>
      </trkpt>
      <trkpt lat="42.86045" lon="1.84337">
        <ele>1149.779</ele>
        <time>2021-02-28T13:34:36Z</time>
      </trkpt>
      <trkpt lat="42.86045" lon="1.84337">
        <ele>1149.631</ele>
        <time>2021-02-28T13:34:38Z</time>
      </trkpt>
      <trkpt lat="42.86045" lon="1.84338">
        <ele>1149.643</ele>
        <time>2021-02-28T13:34:40Z</time>
      </trkpt>
      <trkpt lat="42.86047" lon="1.8434">
        <ele>1149.406</ele>
        <time>2021-02-28T13:34:42Z</time>
      </trkpt>
      <trkpt lat="42.86048" lon="1.84342">
        <ele>1148.635</ele>
        <time>2021-02-28T13:34:44Z</time>
      </trkpt>
      <trkpt lat="42.86049" lon="1.84345">
        <ele>1147.967</ele>
        <time>2021-02-28T13:34:46Z</time>
      </trkpt>
      <trkpt lat="42.8605" lon="1.84348">
        <ele>1147.861</ele>
        <time>2021-02-28T13:34:48Z</time>
      </trkpt>
      <trkpt lat="42.86052" lon="1.84351">
        <ele>1146.811</ele>
        <time>2021-02-28T13:34:50Z</time>
      </trkpt>
      <trkpt lat="42.86053" lon="1.84354">
        <ele>1146.445</ele>
        <time>2021-02-28T13:34:52Z</time>
      </trkpt>
      <trkpt lat="42.86055" lon="1.84358">
        <ele>1146.658</ele>
        <time>2021-02-28T13:34:54Z</time>
      </trkpt>
      <trkpt lat="42.86057" lon="1.84361">
        <ele>1146.543</ele>
        <time>2021-02-28T13:34:56Z</time>
      </trkpt>
      <trkpt lat="42.86058" lon="1.84365">
        <ele>1146.386</ele>
        <time>2021-02-28T13:34:58Z</time>
      </trkpt>
      <trkpt lat="42.8606" lon="1.84368">
        <ele>1146.506</ele>
        <time>2021-02-28T13:35:00Z</time>
      </trkpt>
      <trkpt lat="42.86061" lon="1.84371">
        <ele>1146.224</ele>
        <time>2021-02-28T13:35:02Z</time>
      </trkpt>
      <trkpt lat="42.86063" lon="1.84375">
        <ele>1146.56</ele>
        <time>2021-02-28T13:35:04Z</time>
      </trkpt>
      <trkpt lat="42.86064" lon="1.84378">
        <ele>1146.512</ele>
        <time>2021-02-28T13:35:06Z</time>
      </trkpt>
      <trkpt lat="42.86066" lon="1.84381">
        <ele>1146.847</ele>
        <time>2021-02-28T13:35:08Z</time>
      </trkpt>
      <trkpt lat="42.86068" lon="1.84384">
        <ele>1145.879</ele>
        <time>2021-02-28T13:35:10Z</time>
      </trkpt>
      <trkpt lat="42.86069" lon="1.84388">
        <ele>1146.183</ele>
        <time>2021-02-28T13:35:12Z</time>
      </trkpt>
      <trkpt lat="42.86071" lon="1.84391">
        <ele>1145.925</ele>
        <time>2021-02-28T13:35:14Z</time>
      </trkpt>
      <trkpt lat="42.86073" lon="1.84394">
        <ele>1145.23</ele>
        <time>2021-02-28T13:35:16Z</time>
      </trkpt>
      <trkpt lat="42.86074" lon="1.84397">
        <ele>1144.945</ele>
        <time>2021-02-28T13:35:18Z</time>
      </trkpt>
      <trkpt lat="42.86075" lon="1.844">
        <ele>1144.979</ele>
        <time>2021-02-28T13:35:20Z</time>
      </trkpt>
      <trkpt lat="42.86077" lon="1.84403">
        <ele>1144.557</ele>
        <time>2021-02-28T13:35:22Z</time>
      </trkpt>
      <trkpt lat="42.86078" lon="1.84406">
        <ele>1144.296</ele>
        <time>2021-02-28T13:35:24Z</time>
      </trkpt>
      <trkpt lat="42.8608" lon="1.84409">
        <ele>1144.065</ele>
        <time>2021-02-28T13:35:26Z</time>
      </trkpt>
      <trkpt lat="42.86082" lon="1.84412">
        <ele>1143.46</ele>
        <time>2021-02-28T13:35:28Z</time>
      </trkpt>
      <trkpt lat="42.86083" lon="1.84415">
        <ele>1142.779</ele>
        <time>2021-02-28T13:35:30Z</time>
      </trkpt>
      <trkpt lat="42.86085" lon="1.84418">
        <ele>1142.836</ele>
        <time>2021-02-28T13:35:32Z</time>
      </trkpt>
      <trkpt lat="42.86087" lon="1.84421">
        <ele>1142.622</ele>
        <time>2021-02-28T13:35:34Z</time>
      </trkpt>
      <trkpt lat="42.86088" lon="1.84424">
        <ele>1142.379</ele>
        <time>2021-02-28T13:35:36Z</time>
      </trkpt>
      <trkpt lat="42.8609" lon="1.84427">
        <ele>1142.068</ele>
        <time>2021-02-28T13:35:38Z</time>
      </trkpt>
      <trkpt lat="42.86091" lon="1.8443">
        <ele>1141.393</ele>
        <time>2021-02-28T13:35:40Z</time>
      </trkpt>
      <trkpt lat="42.86093" lon="1.84433">
        <ele>1140.652</ele>
        <time>2021-02-28T13:35:42Z</time>
      </trkpt>
      <trkpt lat="42.86094" lon="1.84436">
        <ele>1140.007</ele>
        <time>2021-02-28T13:35:44Z</time>
      </trkpt>
      <trkpt lat="42.86095" lon="1.84439">
        <ele>1139.544</ele>
        <time>2021-02-28T13:35:46Z</time>
      </trkpt>
      <trkpt lat="42.86096" lon="1.84443">
        <ele>1138.673</ele>
        <time>2021-02-28T13:35:48Z</time>
      </trkpt>
      <trkpt lat="42.86097" lon="1.84446">
        <ele>1137.944</ele>
        <time>2021-02-28T13:35:50Z</time>
      </trkpt>
      <trkpt lat="42.86099" lon="1.84449">
        <ele>1137.583</ele>
        <time>2021-02-28T13:35:52Z</time>
      </trkpt>
      <trkpt lat="42.861" lon="1.84453">
        <ele>1136.79</ele>
        <time>2021-02-28T13:35:54Z</time>
      </trkpt>
      <trkpt lat="42.86101" lon="1.84456">
        <ele>1136.92</ele>
        <time>2021-02-28T13:35:56Z</time>
      </trkpt>
      <trkpt lat="42.86102" lon="1.8446">
        <ele>1137.08</ele>
        <time>2021-02-28T13:35:58Z</time>
      </trkpt>
      <trkpt lat="42.86103" lon="1.84464">
        <ele>1137.471</ele>
        <time>2021-02-28T13:36:00Z</time>
      </trkpt>
      <trkpt lat="42.86103" lon="1.84467">
        <ele>1137.366</ele>
        <time>2021-02-28T13:36:02Z</time>
      </trkpt>
      <trkpt lat="42.86104" lon="1.84471">
        <ele>1136.683</ele>
        <time>2021-02-28T13:36:04Z</time>
      </trkpt>
      <trkpt lat="42.86105" lon="1.84475">
        <ele>1136.124</ele>
        <time>2021-02-28T13:36:06Z</time>
      </trkpt>
      <trkpt lat="42.86105" lon="1.84478">
        <ele>1135.773</ele>
        <time>2021-02-28T13:36:08Z</time>
      </trkpt>
      <trkpt lat="42.86106" lon="1.84482">
        <ele>1135.881</ele>
        <time>2021-02-28T13:36:10Z</time>
      </trkpt>
      <trkpt lat="42.86106" lon="1.84486">
        <ele>1135.314</ele>
        <time>2021-02-28T13:36:12Z</time>
      </trkpt>
      <trkpt lat="42.86107" lon="1.8449">
        <ele>1134.471</ele>
        <time>2021-02-28T13:36:14Z</time>
      </trkpt>
      <trkpt lat="42.86107" lon="1.84494">
        <ele>1134.646</ele>
        <time>2021-02-28T13:36:16Z</time>
      </trkpt>
      <trkpt lat="42.86107" lon="1.84498">
        <ele>1135.494</ele>
        <time>2021-02-28T13:36:18Z</time>
      </trkpt>
      <trkpt lat="42.86107" lon="1.84502">
        <ele>1135.83</ele>
        <time>2021-02-28T13:36:20Z</time>
      </trkpt>
      <trkpt lat="42.86107" lon="1.84506">
        <ele>1135.535</ele>
        <time>2021-02-28T13:36:22Z</time>
      </trkpt>
      <trkpt lat="42.86107" lon="1.8451">
        <ele>1135.236</ele>
        <time>2021-02-28T13:36:24Z</time>
      </trkpt>
      <trkpt lat="42.86107" lon="1.84514">
        <ele>1134.81</ele>
        <time>2021-02-28T13:36:26Z</time>
      </trkpt>
      <trkpt lat="42.86108" lon="1.84518">
        <ele>1134.524</ele>
        <time>2021-02-28T13:36:28Z</time>
      </trkpt>
      <trkpt lat="42.86108" lon="1.84522">
        <ele>1134.353</ele>
        <time>2021-02-28T13:36:30Z</time>
      </trkpt>
      <trkpt lat="42.86108" lon="1.84525">
        <ele>1134.34</ele>
        <time>2021-02-28T13:36:32Z</time>
      </trkpt>
      <trkpt lat="42.86108" lon="1.84527">
        <ele>1134.161</ele>
        <time>2021-02-28T13:36:33Z</time>
      </trkpt>
      <trkpt lat="42.86108" lon="1.84533">
        <ele>1133.769</ele>
        <time>2021-02-28T13:36:36Z</time>
      </trkpt>
      <trkpt lat="42.86108" lon="1.84537">
        <ele>1132.702</ele>
        <time>2021-02-28T13:36:38Z</time>
      </trkpt>
      <trkpt lat="42.86109" lon="1.84541">
        <ele>1131.735</ele>
        <time>2021-02-28T13:36:40Z</time>
      </trkpt>
      <trkpt lat="42.8611" lon="1.84544">
        <ele>1131.855</ele>
        <time>2021-02-28T13:36:42Z</time>
      </trkpt>
      <trkpt lat="42.8611" lon="1.84548">
        <ele>1132.133</ele>
        <time>2021-02-28T13:36:44Z</time>
      </trkpt>
      <trkpt lat="42.86111" lon="1.84553">
        <ele>1131.272</ele>
        <time>2021-02-28T13:36:46Z</time>
      </trkpt>
      <trkpt lat="42.86112" lon="1.84556">
        <ele>1131.019</ele>
        <time>2021-02-28T13:36:48Z</time>
      </trkpt>
      <trkpt lat="42.86113" lon="1.8456">
        <ele>1130.325</ele>
        <time>2021-02-28T13:36:50Z</time>
      </trkpt>
      <trkpt lat="42.86115" lon="1.84564">
        <ele>1129.939</ele>
        <time>2021-02-28T13:36:52Z</time>
      </trkpt>
      <trkpt lat="42.86116" lon="1.84568">
        <ele>1128.784</ele>
        <time>2021-02-28T13:36:54Z</time>
      </trkpt>
      <trkpt lat="42.86117" lon="1.84571">
        <ele>1127.926</ele>
        <time>2021-02-28T13:36:56Z</time>
      </trkpt>
      <trkpt lat="42.86119" lon="1.84574">
        <ele>1127.645</ele>
        <time>2021-02-28T13:36:58Z</time>
      </trkpt>
      <trkpt lat="42.86121" lon="1.84577">
        <ele>1127.867</ele>
        <time>2021-02-28T13:37:00Z</time>
      </trkpt>
      <trkpt lat="42.86123" lon="1.84579">
        <ele>1126.941</ele>
        <time>2021-02-28T13:37:02Z</time>
      </trkpt>
      <trkpt lat="42.86125" lon="1.84581">
        <ele>1127.377</ele>
        <time>2021-02-28T13:37:04Z</time>
      </trkpt>
      <trkpt lat="42.86127" lon="1.84583">
        <ele>1127.058</ele>
        <time>2021-02-28T13:37:06Z</time>
      </trkpt>
      <trkpt lat="42.86131" lon="1.84582">
        <ele>1127.28</ele>
        <time>2021-02-28T13:37:09Z</time>
      </trkpt>
      <trkpt lat="42.86134" lon="1.84581">
        <ele>1126.693</ele>
        <time>2021-02-28T13:37:11Z</time>
      </trkpt>
      <trkpt lat="42.86136" lon="1.84578">
        <ele>1125.806</ele>
        <time>2021-02-28T13:37:13Z</time>
      </trkpt>
      <trkpt lat="42.86138" lon="1.84576">
        <ele>1125.677</ele>
        <time>2021-02-28T13:37:15Z</time>
      </trkpt>
      <trkpt lat="42.8614" lon="1.84573">
        <ele>1125.871</ele>
        <time>2021-02-28T13:37:17Z</time>
      </trkpt>
      <trkpt lat="42.86141" lon="1.8457">
        <ele>1125.459</ele>
        <time>2021-02-28T13:37:19Z</time>
      </trkpt>
      <trkpt lat="42.86142" lon="1.84566">
        <ele>1125.135</ele>
        <time>2021-02-28T13:37:21Z</time>
      </trkpt>
      <trkpt lat="42.86144" lon="1.84562">
        <ele>1124.84</ele>
        <time>2021-02-28T13:37:23Z</time>
      </trkpt>
      <trkpt lat="42.86145" lon="1.84559">
        <ele>1124.945</ele>
        <time>2021-02-28T13:37:25Z</time>
      </trkpt>
      <trkpt lat="42.86147" lon="1.84556">
        <ele>1125.182</ele>
        <time>2021-02-28T13:37:27Z</time>
      </trkpt>
      <trkpt lat="42.86148" lon="1.84552">
        <ele>1125.19</ele>
        <time>2021-02-28T13:37:29Z</time>
      </trkpt>
      <trkpt lat="42.86149" lon="1.84549">
        <ele>1124.836</ele>
        <time>2021-02-28T13:37:31Z</time>
      </trkpt>
      <trkpt lat="42.8615" lon="1.84546">
        <ele>1124.436</ele>
        <time>2021-02-28T13:37:33Z</time>
      </trkpt>
      <trkpt lat="42.86151" lon="1.84542">
        <ele>1123.752</ele>
        <time>2021-02-28T13:37:35Z</time>
      </trkpt>
      <trkpt lat="42.86153" lon="1.84539">
        <ele>1124.247</ele>
        <time>2021-02-28T13:37:37Z</time>
      </trkpt>
      <trkpt lat="42.86155" lon="1.84535">
        <ele>1123.436</ele>
        <time>2021-02-28T13:37:39Z</time>
      </trkpt>
      <trkpt lat="42.86156" lon="1.84532">
        <ele>1123.287</ele>
        <time>2021-02-28T13:37:41Z</time>
      </trkpt>
      <trkpt lat="42.86158" lon="1.84529">
        <ele>1123.74</ele>
        <time>2021-02-28T13:37:43Z</time>
      </trkpt>
      <trkpt lat="42.86159" lon="1.84525">
        <ele>1122.848</ele>
        <time>2021-02-28T13:37:45Z</time>
      </trkpt>
      <trkpt lat="42.86161" lon="1.84522">
        <ele>1123.481</ele>
        <time>2021-02-28T13:37:47Z</time>
      </trkpt>
      <trkpt lat="42.86163" lon="1.84519">
        <ele>1123.73</ele>
        <time>2021-02-28T13:37:49Z</time>
      </trkpt>
      <trkpt lat="42.86165" lon="1.84517">
        <ele>1123.815</ele>
        <time>2021-02-28T13:37:51Z</time>
      </trkpt>
      <trkpt lat="42.86166" lon="1.84513">
        <ele>1123.836</ele>
        <time>2021-02-28T13:37:53Z</time>
      </trkpt>
      <trkpt lat="42.86168" lon="1.84511">
        <ele>1123.398</ele>
        <time>2021-02-28T13:37:55Z</time>
      </trkpt>
      <trkpt lat="42.86171" lon="1.84508">
        <ele>1124.01</ele>
        <time>2021-02-28T13:37:57Z</time>
      </trkpt>
      <trkpt lat="42.86173" lon="1.84505">
        <ele>1124.29</ele>
        <time>2021-02-28T13:37:59Z</time>
      </trkpt>
      <trkpt lat="42.86175" lon="1.84502">
        <ele>1124.175</ele>
        <time>2021-02-28T13:38:01Z</time>
      </trkpt>
      <trkpt lat="42.86177" lon="1.84498">
        <ele>1124.013</ele>
        <time>2021-02-28T13:38:03Z</time>
      </trkpt>
      <trkpt lat="42.86178" lon="1.84495">
        <ele>1122.483</ele>
        <time>2021-02-28T13:38:05Z</time>
      </trkpt>
      <trkpt lat="42.8618" lon="1.84492">
        <ele>1121.893</ele>
        <time>2021-02-28T13:38:07Z</time>
      </trkpt>
      <trkpt lat="42.86182" lon="1.84489">
        <ele>1120.943</ele>
        <time>2021-02-28T13:38:09Z</time>
      </trkpt>
      <trkpt lat="42.86184" lon="1.84485">
        <ele>1121.41</ele>
        <time>2021-02-28T13:38:11Z</time>
      </trkpt>
      <trkpt lat="42.86185" lon="1.84481">
        <ele>1121.085</ele>
        <time>2021-02-28T13:38:13Z</time>
      </trkpt>
      <trkpt lat="42.86186" lon="1.84477">
        <ele>1120.826</ele>
        <time>2021-02-28T13:38:15Z</time>
      </trkpt>
      <trkpt lat="42.86187" lon="1.84474">
        <ele>1120.485</ele>
        <time>2021-02-28T13:38:17Z</time>
      </trkpt>
      <trkpt lat="42.86188" lon="1.84471">
        <ele>1119.882</ele>
        <time>2021-02-28T13:38:19Z</time>
      </trkpt>
      <trkpt lat="42.86189" lon="1.84467">
        <ele>1119.449</ele>
        <time>2021-02-28T13:38:21Z</time>
      </trkpt>
      <trkpt lat="42.8619" lon="1.84464">
        <ele>1119.191</ele>
        <time>2021-02-28T13:38:23Z</time>
      </trkpt>
      <trkpt lat="42.86191" lon="1.8446">
        <ele>1119.01</ele>
        <time>2021-02-28T13:38:25Z</time>
      </trkpt>
      <trkpt lat="42.86192" lon="1.84457">
        <ele>1119.179</ele>
        <time>2021-02-28T13:38:27Z</time>
      </trkpt>
      <trkpt lat="42.86193" lon="1.84453">
        <ele>1118.195</ele>
        <time>2021-02-28T13:38:29Z</time>
      </trkpt>
      <trkpt lat="42.86194" lon="1.84449">
        <ele>1117.341</ele>
        <time>2021-02-28T13:38:31Z</time>
      </trkpt>
      <trkpt lat="42.86195" lon="1.84446">
        <ele>1117.028</ele>
        <time>2021-02-28T13:38:33Z</time>
      </trkpt>
      <trkpt lat="42.86196" lon="1.84442">
        <ele>1116.8</ele>
        <time>2021-02-28T13:38:35Z</time>
      </trkpt>
      <trkpt lat="42.86198" lon="1.84439">
        <ele>1116.431</ele>
        <time>2021-02-28T13:38:37Z</time>
      </trkpt>
      <trkpt lat="42.86199" lon="1.84435">
        <ele>1116.165</ele>
        <time>2021-02-28T13:38:39Z</time>
      </trkpt>
      <trkpt lat="42.86201" lon="1.84431">
        <ele>1115.882</ele>
        <time>2021-02-28T13:38:41Z</time>
      </trkpt>
      <trkpt lat="42.86202" lon="1.84427">
        <ele>1115.452</ele>
        <time>2021-02-28T13:38:43Z</time>
      </trkpt>
      <trkpt lat="42.86204" lon="1.84424">
        <ele>1115.761</ele>
        <time>2021-02-28T13:38:45Z</time>
      </trkpt>
      <trkpt lat="42.86204" lon="1.8442">
        <ele>1116.347</ele>
        <time>2021-02-28T13:38:47Z</time>
      </trkpt>
      <trkpt lat="42.86205" lon="1.84416">
        <ele>1115.478</ele>
        <time>2021-02-28T13:38:49Z</time>
      </trkpt>
      <trkpt lat="42.86206" lon="1.84413">
        <ele>1115.098</ele>
        <time>2021-02-28T13:38:51Z</time>
      </trkpt>
      <trkpt lat="42.86207" lon="1.84409">
        <ele>1114.477</ele>
        <time>2021-02-28T13:38:53Z</time>
      </trkpt>
      <trkpt lat="42.86208" lon="1.84405">
        <ele>1114.421</ele>
        <time>2021-02-28T13:38:55Z</time>
      </trkpt>
      <trkpt lat="42.86209" lon="1.84402">
        <ele>1113.716</ele>
        <time>2021-02-28T13:38:57Z</time>
      </trkpt>
      <trkpt lat="42.86209" lon="1.84398">
        <ele>1113.419</ele>
        <time>2021-02-28T13:38:59Z</time>
      </trkpt>
      <trkpt lat="42.86209" lon="1.84394">
        <ele>1113.957</ele>
        <time>2021-02-28T13:39:01Z</time>
      </trkpt>
      <trkpt lat="42.86209" lon="1.84389">
        <ele>1113.533</ele>
        <time>2021-02-28T13:39:03Z</time>
      </trkpt>
      <trkpt lat="42.8621" lon="1.84385">
        <ele>1112.602</ele>
        <time>2021-02-28T13:39:05Z</time>
      </trkpt>
      <trkpt lat="42.86209" lon="1.84382">
        <ele>1111.804</ele>
        <time>2021-02-28T13:39:07Z</time>
      </trkpt>
      <trkpt lat="42.86209" lon="1.84378">
        <ele>1111.349</ele>
        <time>2021-02-28T13:39:09Z</time>
      </trkpt>
      <trkpt lat="42.86208" lon="1.84374">
        <ele>1110.021</ele>
        <time>2021-02-28T13:39:11Z</time>
      </trkpt>
      <trkpt lat="42.86207" lon="1.8437">
        <ele>1109.546</ele>
        <time>2021-02-28T13:39:13Z</time>
      </trkpt>
      <trkpt lat="42.86207" lon="1.84366">
        <ele>1109.727</ele>
        <time>2021-02-28T13:39:15Z</time>
      </trkpt>
      <trkpt lat="42.86207" lon="1.84363">
        <ele>1110.007</ele>
        <time>2021-02-28T13:39:17Z</time>
      </trkpt>
      <trkpt lat="42.86207" lon="1.84359">
        <ele>1110.486</ele>
        <time>2021-02-28T13:39:19Z</time>
      </trkpt>
      <trkpt lat="42.86207" lon="1.84356">
        <ele>1110.238</ele>
        <time>2021-02-28T13:39:21Z</time>
      </trkpt>
      <trkpt lat="42.86206" lon="1.84352">
        <ele>1110.554</ele>
        <time>2021-02-28T13:39:23Z</time>
      </trkpt>
      <trkpt lat="42.86206" lon="1.84349">
        <ele>1110.723</ele>
        <time>2021-02-28T13:39:25Z</time>
      </trkpt>
      <trkpt lat="42.86205" lon="1.84346">
        <ele>1110.758</ele>
        <time>2021-02-28T13:39:27Z</time>
      </trkpt>
      <trkpt lat="42.86203" lon="1.84342">
        <ele>1109.799</ele>
        <time>2021-02-28T13:39:29Z</time>
      </trkpt>
      <trkpt lat="42.86202" lon="1.84339">
        <ele>1109.354</ele>
        <time>2021-02-28T13:39:31Z</time>
      </trkpt>
      <trkpt lat="42.86201" lon="1.84335">
        <ele>1109.251</ele>
        <time>2021-02-28T13:39:33Z</time>
      </trkpt>
      <trkpt lat="42.862" lon="1.84332">
        <ele>1108.585</ele>
        <time>2021-02-28T13:39:35Z</time>
      </trkpt>
      <trkpt lat="42.86199" lon="1.84329">
        <ele>1108.02</ele>
        <time>2021-02-28T13:39:37Z</time>
      </trkpt>
      <trkpt lat="42.86198" lon="1.84326">
        <ele>1108.486</ele>
        <time>2021-02-28T13:39:39Z</time>
      </trkpt>
      <trkpt lat="42.86197" lon="1.84323">
        <ele>1108.147</ele>
        <time>2021-02-28T13:39:41Z</time>
      </trkpt>
      <trkpt lat="42.86196" lon="1.84319">
        <ele>1107.613</ele>
        <time>2021-02-28T13:39:43Z</time>
      </trkpt>
      <trkpt lat="42.86195" lon="1.84316">
        <ele>1107.014</ele>
        <time>2021-02-28T13:39:45Z</time>
      </trkpt>
      <trkpt lat="42.86194" lon="1.84313">
        <ele>1105.821</ele>
        <time>2021-02-28T13:39:47Z</time>
      </trkpt>
      <trkpt lat="42.86193" lon="1.84309">
        <ele>1105.554</ele>
        <time>2021-02-28T13:39:49Z</time>
      </trkpt>
      <trkpt lat="42.86193" lon="1.84305">
        <ele>1105.876</ele>
        <time>2021-02-28T13:39:51Z</time>
      </trkpt>
      <trkpt lat="42.86192" lon="1.84302">
        <ele>1104.886</ele>
        <time>2021-02-28T13:39:53Z</time>
      </trkpt>
      <trkpt lat="42.86191" lon="1.84298">
        <ele>1104.743</ele>
        <time>2021-02-28T13:39:55Z</time>
      </trkpt>
      <trkpt lat="42.8619" lon="1.84294">
        <ele>1104.409</ele>
        <time>2021-02-28T13:39:57Z</time>
      </trkpt>
      <trkpt lat="42.86188" lon="1.8429">
        <ele>1104.036</ele>
        <time>2021-02-28T13:39:59Z</time>
      </trkpt>
      <trkpt lat="42.86188" lon="1.84287">
        <ele>1103.656</ele>
        <time>2021-02-28T13:40:01Z</time>
      </trkpt>
      <trkpt lat="42.86187" lon="1.84283">
        <ele>1103.099</ele>
        <time>2021-02-28T13:40:03Z</time>
      </trkpt>
      <trkpt lat="42.86186" lon="1.84277">
        <ele>1103.302</ele>
        <time>2021-02-28T13:40:06Z</time>
      </trkpt>
      <trkpt lat="42.86185" lon="1.84274">
        <ele>1103.729</ele>
        <time>2021-02-28T13:40:08Z</time>
      </trkpt>
      <trkpt lat="42.86185" lon="1.8427">
        <ele>1103.657</ele>
        <time>2021-02-28T13:40:10Z</time>
      </trkpt>
      <trkpt lat="42.86184" lon="1.84267">
        <ele>1103.121</ele>
        <time>2021-02-28T13:40:12Z</time>
      </trkpt>
      <trkpt lat="42.86184" lon="1.84263">
        <ele>1103.608</ele>
        <time>2021-02-28T13:40:14Z</time>
      </trkpt>
      <trkpt lat="42.86183" lon="1.84259">
        <ele>1103.451</ele>
        <time>2021-02-28T13:40:16Z</time>
      </trkpt>
      <trkpt lat="42.86181" lon="1.84255">
        <ele>1103.981</ele>
        <time>2021-02-28T13:40:18Z</time>
      </trkpt>
      <trkpt lat="42.8618" lon="1.84251">
        <ele>1103.23</ele>
        <time>2021-02-28T13:40:20Z</time>
      </trkpt>
      <trkpt lat="42.86179" lon="1.84247">
        <ele>1102.869</ele>
        <time>2021-02-28T13:40:22Z</time>
      </trkpt>
      <trkpt lat="42.86178" lon="1.84244">
        <ele>1102.814</ele>
        <time>2021-02-28T13:40:24Z</time>
      </trkpt>
      <trkpt lat="42.86178" lon="1.8424">
        <ele>1102.131</ele>
        <time>2021-02-28T13:40:26Z</time>
      </trkpt>
      <trkpt lat="42.86177" lon="1.84236">
        <ele>1101.794</ele>
        <time>2021-02-28T13:40:28Z</time>
      </trkpt>
      <trkpt lat="42.86176" lon="1.84233">
        <ele>1101.339</ele>
        <time>2021-02-28T13:40:30Z</time>
      </trkpt>
      <trkpt lat="42.86176" lon="1.84229">
        <ele>1101.095</ele>
        <time>2021-02-28T13:40:32Z</time>
      </trkpt>
      <trkpt lat="42.86175" lon="1.84226">
        <ele>1101.873</ele>
        <time>2021-02-28T13:40:34Z</time>
      </trkpt>
      <trkpt lat="42.86173" lon="1.84222">
        <ele>1100.707</ele>
        <time>2021-02-28T13:40:36Z</time>
      </trkpt>
      <trkpt lat="42.86172" lon="1.84217">
        <ele>1100.409</ele>
        <time>2021-02-28T13:40:38Z</time>
      </trkpt>
      <trkpt lat="42.86171" lon="1.84213">
        <ele>1099.853</ele>
        <time>2021-02-28T13:40:40Z</time>
      </trkpt>
      <trkpt lat="42.86169" lon="1.8421">
        <ele>1099.111</ele>
        <time>2021-02-28T13:40:42Z</time>
      </trkpt>
      <trkpt lat="42.86168" lon="1.84206">
        <ele>1099.18</ele>
        <time>2021-02-28T13:40:44Z</time>
      </trkpt>
      <trkpt lat="42.86167" lon="1.84202">
        <ele>1098.913</ele>
        <time>2021-02-28T13:40:46Z</time>
      </trkpt>
      <trkpt lat="42.86167" lon="1.84197">
        <ele>1098.443</ele>
        <time>2021-02-28T13:40:49Z</time>
      </trkpt>
      <trkpt lat="42.86166" lon="1.84192">
        <ele>1099.827</ele>
        <time>2021-02-28T13:40:51Z</time>
      </trkpt>
      <trkpt lat="42.86166" lon="1.84188">
        <ele>1099.85</ele>
        <time>2021-02-28T13:40:53Z</time>
      </trkpt>
      <trkpt lat="42.86166" lon="1.84184">
        <ele>1100.472</ele>
        <time>2021-02-28T13:40:55Z</time>
      </trkpt>
      <trkpt lat="42.86166" lon="1.8418">
        <ele>1100.011</ele>
        <time>2021-02-28T13:40:57Z</time>
      </trkpt>
      <trkpt lat="42.86166" lon="1.84176">
        <ele>1100.073</ele>
        <time>2021-02-28T13:40:59Z</time>
      </trkpt>
      <trkpt lat="42.86167" lon="1.84172">
        <ele>1099.66</ele>
        <time>2021-02-28T13:41:01Z</time>
      </trkpt>
      <trkpt lat="42.86166" lon="1.84168">
        <ele>1097.543</ele>
        <time>2021-02-28T13:41:03Z</time>
      </trkpt>
      <trkpt lat="42.86166" lon="1.84165">
        <ele>1098.043</ele>
        <time>2021-02-28T13:41:05Z</time>
      </trkpt>
      <trkpt lat="42.86166" lon="1.84161">
        <ele>1098.04</ele>
        <time>2021-02-28T13:41:07Z</time>
      </trkpt>
      <trkpt lat="42.86166" lon="1.84159">
        <ele>1098.319</ele>
        <time>2021-02-28T13:41:08Z</time>
      </trkpt>
      <trkpt lat="42.86166" lon="1.84153">
        <ele>1095.835</ele>
        <time>2021-02-28T13:41:11Z</time>
      </trkpt>
      <trkpt lat="42.86167" lon="1.84149">
        <ele>1095.041</ele>
        <time>2021-02-28T13:41:13Z</time>
      </trkpt>
      <trkpt lat="42.86167" lon="1.84145">
        <ele>1093.271</ele>
        <time>2021-02-28T13:41:15Z</time>
      </trkpt>
      <trkpt lat="42.86167" lon="1.84141">
        <ele>1091.801</ele>
        <time>2021-02-28T13:41:17Z</time>
      </trkpt>
      <trkpt lat="42.86168" lon="1.84136">
        <ele>1091.266</ele>
        <time>2021-02-28T13:41:19Z</time>
      </trkpt>
      <trkpt lat="42.86168" lon="1.84132">
        <ele>1091.177</ele>
        <time>2021-02-28T13:41:21Z</time>
      </trkpt>
      <trkpt lat="42.86169" lon="1.84128">
        <ele>1091.368</ele>
        <time>2021-02-28T13:41:23Z</time>
      </trkpt>
      <trkpt lat="42.8617" lon="1.84123">
        <ele>1091.386</ele>
        <time>2021-02-28T13:41:25Z</time>
      </trkpt>
      <trkpt lat="42.8617" lon="1.84119">
        <ele>1091.415</ele>
        <time>2021-02-28T13:41:27Z</time>
      </trkpt>
      <trkpt lat="42.8617" lon="1.84115">
        <ele>1090.938</ele>
        <time>2021-02-28T13:41:29Z</time>
      </trkpt>
      <trkpt lat="42.8617" lon="1.84111">
        <ele>1089.778</ele>
        <time>2021-02-28T13:41:31Z</time>
      </trkpt>
      <trkpt lat="42.8617" lon="1.84107">
        <ele>1089.487</ele>
        <time>2021-02-28T13:41:33Z</time>
      </trkpt>
      <trkpt lat="42.8617" lon="1.84103">
        <ele>1089.272</ele>
        <time>2021-02-28T13:41:35Z</time>
      </trkpt>
      <trkpt lat="42.8617" lon="1.84099">
        <ele>1089.246</ele>
        <time>2021-02-28T13:41:37Z</time>
      </trkpt>
      <trkpt lat="42.86169" lon="1.84095">
        <ele>1087.816</ele>
        <time>2021-02-28T13:41:39Z</time>
      </trkpt>
      <trkpt lat="42.86169" lon="1.84092">
        <ele>1085.966</ele>
        <time>2021-02-28T13:41:41Z</time>
      </trkpt>
      <trkpt lat="42.86169" lon="1.84088">
        <ele>1085.998</ele>
        <time>2021-02-28T13:41:43Z</time>
      </trkpt>
      <trkpt lat="42.86169" lon="1.84084">
        <ele>1085.821</ele>
        <time>2021-02-28T13:41:45Z</time>
      </trkpt>
      <trkpt lat="42.8617" lon="1.8408">
        <ele>1086.501</ele>
        <time>2021-02-28T13:41:47Z</time>
      </trkpt>
      <trkpt lat="42.86171" lon="1.84076">
        <ele>1086.76</ele>
        <time>2021-02-28T13:41:49Z</time>
      </trkpt>
      <trkpt lat="42.8617" lon="1.84072">
        <ele>1085.534</ele>
        <time>2021-02-28T13:41:51Z</time>
      </trkpt>
      <trkpt lat="42.86169" lon="1.84068">
        <ele>1083.807</ele>
        <time>2021-02-28T13:41:53Z</time>
      </trkpt>
      <trkpt lat="42.86168" lon="1.84065">
        <ele>1083.31</ele>
        <time>2021-02-28T13:41:55Z</time>
      </trkpt>
      <trkpt lat="42.86168" lon="1.84061">
        <ele>1082.617</ele>
        <time>2021-02-28T13:41:57Z</time>
      </trkpt>
      <trkpt lat="42.86168" lon="1.84057">
        <ele>1081.579</ele>
        <time>2021-02-28T13:41:59Z</time>
      </trkpt>
      <trkpt lat="42.86167" lon="1.84053">
        <ele>1081.103</ele>
        <time>2021-02-28T13:42:01Z</time>
      </trkpt>
      <trkpt lat="42.86168" lon="1.84049">
        <ele>1080.721</ele>
        <time>2021-02-28T13:42:03Z</time>
      </trkpt>
      <trkpt lat="42.86168" lon="1.84045">
        <ele>1080.197</ele>
        <time>2021-02-28T13:42:05Z</time>
      </trkpt>
      <trkpt lat="42.86168" lon="1.84041">
        <ele>1080.736</ele>
        <time>2021-02-28T13:42:07Z</time>
      </trkpt>
      <trkpt lat="42.86168" lon="1.84036">
        <ele>1080.699</ele>
        <time>2021-02-28T13:42:09Z</time>
      </trkpt>
      <trkpt lat="42.86168" lon="1.84032">
        <ele>1080.255</ele>
        <time>2021-02-28T13:42:11Z</time>
      </trkpt>
      <trkpt lat="42.86168" lon="1.84029">
        <ele>1079.197</ele>
        <time>2021-02-28T13:42:13Z</time>
      </trkpt>
      <trkpt lat="42.86168" lon="1.84024">
        <ele>1079.453</ele>
        <time>2021-02-28T13:42:15Z</time>
      </trkpt>
      <trkpt lat="42.86168" lon="1.84021">
        <ele>1078.65</ele>
        <time>2021-02-28T13:42:17Z</time>
      </trkpt>
      <trkpt lat="42.86169" lon="1.84017">
        <ele>1078.083</ele>
        <time>2021-02-28T13:42:19Z</time>
      </trkpt>
      <trkpt lat="42.86169" lon="1.84013">
        <ele>1078.415</ele>
        <time>2021-02-28T13:42:21Z</time>
      </trkpt>
      <trkpt lat="42.86169" lon="1.84009">
        <ele>1076.387</ele>
        <time>2021-02-28T13:42:23Z</time>
      </trkpt>
      <trkpt lat="42.8617" lon="1.84005">
        <ele>1077.625</ele>
        <time>2021-02-28T13:42:25Z</time>
      </trkpt>
      <trkpt lat="42.8617" lon="1.84">
        <ele>1077.056</ele>
        <time>2021-02-28T13:42:27Z</time>
      </trkpt>
      <trkpt lat="42.8617" lon="1.83996">
        <ele>1077.599</ele>
        <time>2021-02-28T13:42:29Z</time>
      </trkpt>
      <trkpt lat="42.8617" lon="1.83992">
        <ele>1076.5</ele>
        <time>2021-02-28T13:42:31Z</time>
      </trkpt>
      <trkpt lat="42.8617" lon="1.83987">
        <ele>1076.947</ele>
        <time>2021-02-28T13:42:33Z</time>
      </trkpt>
      <trkpt lat="42.86171" lon="1.83984">
        <ele>1076.427</ele>
        <time>2021-02-28T13:42:35Z</time>
      </trkpt>
      <trkpt lat="42.86171" lon="1.8398">
        <ele>1075.681</ele>
        <time>2021-02-28T13:42:37Z</time>
      </trkpt>
      <trkpt lat="42.86172" lon="1.83976">
        <ele>1075.156</ele>
        <time>2021-02-28T13:42:39Z</time>
      </trkpt>
      <trkpt lat="42.86171" lon="1.83972">
        <ele>1074.23</ele>
        <time>2021-02-28T13:42:41Z</time>
      </trkpt>
      <trkpt lat="42.86172" lon="1.83968">
        <ele>1074.096</ele>
        <time>2021-02-28T13:42:43Z</time>
      </trkpt>
      <trkpt lat="42.86172" lon="1.83964">
        <ele>1074.058</ele>
        <time>2021-02-28T13:42:45Z</time>
      </trkpt>
      <trkpt lat="42.86173" lon="1.83959">
        <ele>1073.937</ele>
        <time>2021-02-28T13:42:47Z</time>
      </trkpt>
      <trkpt lat="42.86173" lon="1.83955">
        <ele>1073.083</ele>
        <time>2021-02-28T13:42:49Z</time>
      </trkpt>
      <trkpt lat="42.86173" lon="1.83951">
        <ele>1073.027</ele>
        <time>2021-02-28T13:42:51Z</time>
      </trkpt>
      <trkpt lat="42.86174" lon="1.83948">
        <ele>1073.01</ele>
        <time>2021-02-28T13:42:53Z</time>
      </trkpt>
      <trkpt lat="42.86174" lon="1.83943">
        <ele>1072.809</ele>
        <time>2021-02-28T13:42:55Z</time>
      </trkpt>
      <trkpt lat="42.86174" lon="1.83939">
        <ele>1072.592</ele>
        <time>2021-02-28T13:42:57Z</time>
      </trkpt>
      <trkpt lat="42.86174" lon="1.83935">
        <ele>1072.908</ele>
        <time>2021-02-28T13:42:59Z</time>
      </trkpt>
      <trkpt lat="42.86175" lon="1.83931">
        <ele>1072.285</ele>
        <time>2021-02-28T13:43:01Z</time>
      </trkpt>
      <trkpt lat="42.86175" lon="1.83927">
        <ele>1071.622</ele>
        <time>2021-02-28T13:43:03Z</time>
      </trkpt>
      <trkpt lat="42.86175" lon="1.83922">
        <ele>1070.994</ele>
        <time>2021-02-28T13:43:05Z</time>
      </trkpt>
      <trkpt lat="42.86175" lon="1.83918">
        <ele>1070.173</ele>
        <time>2021-02-28T13:43:07Z</time>
      </trkpt>
      <trkpt lat="42.86176" lon="1.83914">
        <ele>1070.176</ele>
        <time>2021-02-28T13:43:09Z</time>
      </trkpt>
      <trkpt lat="42.86177" lon="1.83909">
        <ele>1070.294</ele>
        <time>2021-02-28T13:43:11Z</time>
      </trkpt>
      <trkpt lat="42.86178" lon="1.83905">
        <ele>1069.249</ele>
        <time>2021-02-28T13:43:13Z</time>
      </trkpt>
      <trkpt lat="42.86178" lon="1.83902">
        <ele>1068.903</ele>
        <time>2021-02-28T13:43:15Z</time>
      </trkpt>
      <trkpt lat="42.86177" lon="1.83898">
        <ele>1067.71</ele>
        <time>2021-02-28T13:43:17Z</time>
      </trkpt>
      <trkpt lat="42.86177" lon="1.83895">
        <ele>1067.573</ele>
        <time>2021-02-28T13:43:19Z</time>
      </trkpt>
      <trkpt lat="42.86178" lon="1.8389">
        <ele>1067.117</ele>
        <time>2021-02-28T13:43:21Z</time>
      </trkpt>
      <trkpt lat="42.86179" lon="1.83886">
        <ele>1067.312</ele>
        <time>2021-02-28T13:43:23Z</time>
      </trkpt>
      <trkpt lat="42.86179" lon="1.83882">
        <ele>1066.647</ele>
        <time>2021-02-28T13:43:25Z</time>
      </trkpt>
      <trkpt lat="42.8618" lon="1.83878">
        <ele>1065.798</ele>
        <time>2021-02-28T13:43:27Z</time>
      </trkpt>
      <trkpt lat="42.8618" lon="1.83873">
        <ele>1065.696</ele>
        <time>2021-02-28T13:43:29Z</time>
      </trkpt>
      <trkpt lat="42.86181" lon="1.83869">
        <ele>1065.934</ele>
        <time>2021-02-28T13:43:31Z</time>
      </trkpt>
      <trkpt lat="42.86182" lon="1.83865">
        <ele>1065.464</ele>
        <time>2021-02-28T13:43:33Z</time>
      </trkpt>
      <trkpt lat="42.86182" lon="1.83862">
        <ele>1064.436</ele>
        <time>2021-02-28T13:43:35Z</time>
      </trkpt>
      <trkpt lat="42.86183" lon="1.83858">
        <ele>1064.597</ele>
        <time>2021-02-28T13:43:37Z</time>
      </trkpt>
      <trkpt lat="42.86182" lon="1.83854">
        <ele>1064.226</ele>
        <time>2021-02-28T13:43:39Z</time>
      </trkpt>
      <trkpt lat="42.86183" lon="1.8385">
        <ele>1064.011</ele>
        <time>2021-02-28T13:43:41Z</time>
      </trkpt>
      <trkpt lat="42.86183" lon="1.83846">
        <ele>1063.666</ele>
        <time>2021-02-28T13:43:43Z</time>
      </trkpt>
      <trkpt lat="42.86183" lon="1.83842">
        <ele>1063.882</ele>
        <time>2021-02-28T13:43:45Z</time>
      </trkpt>
      <trkpt lat="42.86183" lon="1.83838">
        <ele>1063.111</ele>
        <time>2021-02-28T13:43:47Z</time>
      </trkpt>
      <trkpt lat="42.86184" lon="1.83833">
        <ele>1063.683</ele>
        <time>2021-02-28T13:43:49Z</time>
      </trkpt>
      <trkpt lat="42.86184" lon="1.8383">
        <ele>1063.939</ele>
        <time>2021-02-28T13:43:51Z</time>
      </trkpt>
      <trkpt lat="42.86184" lon="1.83826">
        <ele>1062.861</ele>
        <time>2021-02-28T13:43:53Z</time>
      </trkpt>
      <trkpt lat="42.86185" lon="1.83823">
        <ele>1061.874</ele>
        <time>2021-02-28T13:43:55Z</time>
      </trkpt>
      <trkpt lat="42.86186" lon="1.83819">
        <ele>1061.718</ele>
        <time>2021-02-28T13:43:57Z</time>
      </trkpt>
      <trkpt lat="42.86187" lon="1.83815">
        <ele>1061.522</ele>
        <time>2021-02-28T13:43:59Z</time>
      </trkpt>
      <trkpt lat="42.86187" lon="1.83811">
        <ele>1061.285</ele>
        <time>2021-02-28T13:44:01Z</time>
      </trkpt>
      <trkpt lat="42.86188" lon="1.83808">
        <ele>1060.972</ele>
        <time>2021-02-28T13:44:03Z</time>
      </trkpt>
      <trkpt lat="42.86188" lon="1.83804">
        <ele>1061.036</ele>
        <time>2021-02-28T13:44:05Z</time>
      </trkpt>
      <trkpt lat="42.86189" lon="1.838">
        <ele>1060.69</ele>
        <time>2021-02-28T13:44:07Z</time>
      </trkpt>
      <trkpt lat="42.8619" lon="1.83796">
        <ele>1059.771</ele>
        <time>2021-02-28T13:44:09Z</time>
      </trkpt>
      <trkpt lat="42.86191" lon="1.83792">
        <ele>1059.353</ele>
        <time>2021-02-28T13:44:11Z</time>
      </trkpt>
      <trkpt lat="42.86192" lon="1.83788">
        <ele>1059.115</ele>
        <time>2021-02-28T13:44:13Z</time>
      </trkpt>
      <trkpt lat="42.86193" lon="1.83785">
        <ele>1058.453</ele>
        <time>2021-02-28T13:44:15Z</time>
      </trkpt>
      <trkpt lat="42.86193" lon="1.83781">
        <ele>1058.102</ele>
        <time>2021-02-28T13:44:17Z</time>
      </trkpt>
      <trkpt lat="42.86193" lon="1.83777">
        <ele>1057.24</ele>
        <time>2021-02-28T13:44:19Z</time>
      </trkpt>
      <trkpt lat="42.86194" lon="1.83773">
        <ele>1056.704</ele>
        <time>2021-02-28T13:44:21Z</time>
      </trkpt>
      <trkpt lat="42.86194" lon="1.83769">
        <ele>1056.158</ele>
        <time>2021-02-28T13:44:23Z</time>
      </trkpt>
      <trkpt lat="42.86195" lon="1.83765">
        <ele>1056.375</ele>
        <time>2021-02-28T13:44:25Z</time>
      </trkpt>
      <trkpt lat="42.86195" lon="1.83762">
        <ele>1055.293</ele>
        <time>2021-02-28T13:44:27Z</time>
      </trkpt>
      <trkpt lat="42.86197" lon="1.83759">
        <ele>1054.906</ele>
        <time>2021-02-28T13:44:29Z</time>
      </trkpt>
      <trkpt lat="42.86197" lon="1.83755">
        <ele>1053.979</ele>
        <time>2021-02-28T13:44:31Z</time>
      </trkpt>
      <trkpt lat="42.86197" lon="1.83753">
        <ele>1051.742</ele>
        <time>2021-02-28T13:44:33Z</time>
      </trkpt>
      <trkpt lat="42.86198" lon="1.8375">
        <ele>1051.227</ele>
        <time>2021-02-28T13:44:35Z</time>
      </trkpt>
      <trkpt lat="42.86197" lon="1.83746">
        <ele>1049.881</ele>
        <time>2021-02-28T13:44:37Z</time>
      </trkpt>
      <trkpt lat="42.86198" lon="1.83742">
        <ele>1050.76</ele>
        <time>2021-02-28T13:44:39Z</time>
      </trkpt>
      <trkpt lat="42.86198" lon="1.83738">
        <ele>1049.659</ele>
        <time>2021-02-28T13:44:41Z</time>
      </trkpt>
      <trkpt lat="42.86198" lon="1.83734">
        <ele>1049.293</ele>
        <time>2021-02-28T13:44:43Z</time>
      </trkpt>
      <trkpt lat="42.86198" lon="1.83731">
        <ele>1048.576</ele>
        <time>2021-02-28T13:44:45Z</time>
      </trkpt>
      <trkpt lat="42.86198" lon="1.83727">
        <ele>1047.609</ele>
        <time>2021-02-28T13:44:47Z</time>
      </trkpt>
      <trkpt lat="42.86198" lon="1.83723">
        <ele>1046.914</ele>
        <time>2021-02-28T13:44:49Z</time>
      </trkpt>
      <trkpt lat="42.86199" lon="1.8372">
        <ele>1046.681</ele>
        <time>2021-02-28T13:44:51Z</time>
      </trkpt>
      <trkpt lat="42.86199" lon="1.83717">
        <ele>1046.671</ele>
        <time>2021-02-28T13:44:53Z</time>
      </trkpt>
      <trkpt lat="42.862" lon="1.83713">
        <ele>1047.079</ele>
        <time>2021-02-28T13:44:55Z</time>
      </trkpt>
      <trkpt lat="42.862" lon="1.83709">
        <ele>1047.127</ele>
        <time>2021-02-28T13:44:57Z</time>
      </trkpt>
      <trkpt lat="42.862" lon="1.83704">
        <ele>1047.534</ele>
        <time>2021-02-28T13:44:59Z</time>
      </trkpt>
      <trkpt lat="42.86201" lon="1.837">
        <ele>1048.129</ele>
        <time>2021-02-28T13:45:01Z</time>
      </trkpt>
      <trkpt lat="42.86201" lon="1.83696">
        <ele>1047.907</ele>
        <time>2021-02-28T13:45:03Z</time>
      </trkpt>
      <trkpt lat="42.86201" lon="1.83692">
        <ele>1047.893</ele>
        <time>2021-02-28T13:45:05Z</time>
      </trkpt>
      <trkpt lat="42.86201" lon="1.83688">
        <ele>1048.128</ele>
        <time>2021-02-28T13:45:07Z</time>
      </trkpt>
      <trkpt lat="42.86199" lon="1.83685">
        <ele>1047.425</ele>
        <time>2021-02-28T13:45:09Z</time>
      </trkpt>
      <trkpt lat="42.86198" lon="1.8368">
        <ele>1047.901</ele>
        <time>2021-02-28T13:45:11Z</time>
      </trkpt>
      <trkpt lat="42.86197" lon="1.83676">
        <ele>1046.942</ele>
        <time>2021-02-28T13:45:13Z</time>
      </trkpt>
      <trkpt lat="42.86195" lon="1.83673">
        <ele>1046.366</ele>
        <time>2021-02-28T13:45:15Z</time>
      </trkpt>
      <trkpt lat="42.86194" lon="1.8367">
        <ele>1045.026</ele>
        <time>2021-02-28T13:45:17Z</time>
      </trkpt>
      <trkpt lat="42.86193" lon="1.83666">
        <ele>1044.968</ele>
        <time>2021-02-28T13:45:19Z</time>
      </trkpt>
      <trkpt lat="42.86191" lon="1.83662">
        <ele>1045.209</ele>
        <time>2021-02-28T13:45:21Z</time>
      </trkpt>
      <trkpt lat="42.8619" lon="1.83659">
        <ele>1043.284</ele>
        <time>2021-02-28T13:45:23Z</time>
      </trkpt>
      <trkpt lat="42.86189" lon="1.83655">
        <ele>1043.137</ele>
        <time>2021-02-28T13:45:25Z</time>
      </trkpt>
      <trkpt lat="42.86187" lon="1.83651">
        <ele>1044.066</ele>
        <time>2021-02-28T13:45:27Z</time>
      </trkpt>
      <trkpt lat="42.86186" lon="1.83647">
        <ele>1043.658</ele>
        <time>2021-02-28T13:45:29Z</time>
      </trkpt>
      <trkpt lat="42.86185" lon="1.83643">
        <ele>1046.026</ele>
        <time>2021-02-28T13:45:31Z</time>
      </trkpt>
      <trkpt lat="42.86183" lon="1.8364">
        <ele>1043.637</ele>
        <time>2021-02-28T13:45:33Z</time>
      </trkpt>
      <trkpt lat="42.86182" lon="1.83636">
        <ele>1043.093</ele>
        <time>2021-02-28T13:45:35Z</time>
      </trkpt>
      <trkpt lat="42.8618" lon="1.83633">
        <ele>1040.957</ele>
        <time>2021-02-28T13:45:37Z</time>
      </trkpt>
      <trkpt lat="42.86179" lon="1.8363">
        <ele>1042.896</ele>
        <time>2021-02-28T13:45:39Z</time>
      </trkpt>
      <trkpt lat="42.86179" lon="1.83627">
        <ele>1041.37</ele>
        <time>2021-02-28T13:45:41Z</time>
      </trkpt>
      <trkpt lat="42.86178" lon="1.83623">
        <ele>1041.398</ele>
        <time>2021-02-28T13:45:43Z</time>
      </trkpt>
      <trkpt lat="42.86177" lon="1.83619">
        <ele>1040.063</ele>
        <time>2021-02-28T13:45:45Z</time>
      </trkpt>
      <trkpt lat="42.86176" lon="1.83615">
        <ele>1040.295</ele>
        <time>2021-02-28T13:45:47Z</time>
      </trkpt>
      <trkpt lat="42.86176" lon="1.83612">
        <ele>1040.475</ele>
        <time>2021-02-28T13:45:49Z</time>
      </trkpt>
      <trkpt lat="42.86175" lon="1.83608">
        <ele>1041.306</ele>
        <time>2021-02-28T13:45:51Z</time>
      </trkpt>
      <trkpt lat="42.86175" lon="1.83604">
        <ele>1042.101</ele>
        <time>2021-02-28T13:45:53Z</time>
      </trkpt>
      <trkpt lat="42.86175" lon="1.83601">
        <ele>1041.831</ele>
        <time>2021-02-28T13:45:55Z</time>
      </trkpt>
      <trkpt lat="42.86174" lon="1.83598">
        <ele>1042.624</ele>
        <time>2021-02-28T13:45:57Z</time>
      </trkpt>
      <trkpt lat="42.86174" lon="1.83594">
        <ele>1042.417</ele>
        <time>2021-02-28T13:45:59Z</time>
      </trkpt>
      <trkpt lat="42.86173" lon="1.8359">
        <ele>1042.012</ele>
        <time>2021-02-28T13:46:01Z</time>
      </trkpt>
      <trkpt lat="42.86172" lon="1.83587">
        <ele>1040.244</ele>
        <time>2021-02-28T13:46:03Z</time>
      </trkpt>
      <trkpt lat="42.86172" lon="1.83584">
        <ele>1039.107</ele>
        <time>2021-02-28T13:46:05Z</time>
      </trkpt>
      <trkpt lat="42.86171" lon="1.8358">
        <ele>1037.959</ele>
        <time>2021-02-28T13:46:07Z</time>
      </trkpt>
      <trkpt lat="42.8617" lon="1.83577">
        <ele>1037.888</ele>
        <time>2021-02-28T13:46:09Z</time>
      </trkpt>
      <trkpt lat="42.86169" lon="1.83574">
        <ele>1036.747</ele>
        <time>2021-02-28T13:46:11Z</time>
      </trkpt>
      <trkpt lat="42.86168" lon="1.8357">
        <ele>1036.772</ele>
        <time>2021-02-28T13:46:13Z</time>
      </trkpt>
      <trkpt lat="42.86167" lon="1.83567">
        <ele>1037.223</ele>
        <time>2021-02-28T13:46:15Z</time>
      </trkpt>
      <trkpt lat="42.86165" lon="1.83564">
        <ele>1037.766</ele>
        <time>2021-02-28T13:46:17Z</time>
      </trkpt>
      <trkpt lat="42.86164" lon="1.83561">
        <ele>1037.746</ele>
        <time>2021-02-28T13:46:19Z</time>
      </trkpt>
      <trkpt lat="42.86162" lon="1.83558">
        <ele>1037.076</ele>
        <time>2021-02-28T13:46:21Z</time>
      </trkpt>
      <trkpt lat="42.8616" lon="1.83555">
        <ele>1036.745</ele>
        <time>2021-02-28T13:46:23Z</time>
      </trkpt>
      <trkpt lat="42.86158" lon="1.83553">
        <ele>1036.104</ele>
        <time>2021-02-28T13:46:25Z</time>
      </trkpt>
      <trkpt lat="42.86157" lon="1.83549">
        <ele>1036.347</ele>
        <time>2021-02-28T13:46:27Z</time>
      </trkpt>
      <trkpt lat="42.86155" lon="1.83545">
        <ele>1036.482</ele>
        <time>2021-02-28T13:46:29Z</time>
      </trkpt>
      <trkpt lat="42.86154" lon="1.83542">
        <ele>1035.233</ele>
        <time>2021-02-28T13:46:31Z</time>
      </trkpt>
      <trkpt lat="42.86152" lon="1.8354">
        <ele>1035.221</ele>
        <time>2021-02-28T13:46:33Z</time>
      </trkpt>
      <trkpt lat="42.86151" lon="1.83537">
        <ele>1035.244</ele>
        <time>2021-02-28T13:46:35Z</time>
      </trkpt>
      <trkpt lat="42.86149" lon="1.83534">
        <ele>1034.389</ele>
        <time>2021-02-28T13:46:37Z</time>
      </trkpt>
      <trkpt lat="42.86147" lon="1.83531">
        <ele>1034.719</ele>
        <time>2021-02-28T13:46:39Z</time>
      </trkpt>
      <trkpt lat="42.86146" lon="1.83528">
        <ele>1033.797</ele>
        <time>2021-02-28T13:46:41Z</time>
      </trkpt>
      <trkpt lat="42.86143" lon="1.83526">
        <ele>1033.532</ele>
        <time>2021-02-28T13:46:43Z</time>
      </trkpt>
      <trkpt lat="42.86142" lon="1.83522">
        <ele>1033.126</ele>
        <time>2021-02-28T13:46:45Z</time>
      </trkpt>
      <trkpt lat="42.8614" lon="1.8352">
        <ele>1032.781</ele>
        <time>2021-02-28T13:46:47Z</time>
      </trkpt>
      <trkpt lat="42.86138" lon="1.83518">
        <ele>1031.232</ele>
        <time>2021-02-28T13:46:49Z</time>
      </trkpt>
      <trkpt lat="42.86136" lon="1.83515">
        <ele>1028.981</ele>
        <time>2021-02-28T13:46:51Z</time>
      </trkpt>
      <trkpt lat="42.86134" lon="1.83513">
        <ele>1028.21</ele>
        <time>2021-02-28T13:46:53Z</time>
      </trkpt>
      <trkpt lat="42.86132" lon="1.83511">
        <ele>1027.347</ele>
        <time>2021-02-28T13:46:55Z</time>
      </trkpt>
      <trkpt lat="42.8613" lon="1.83509">
        <ele>1027.326</ele>
        <time>2021-02-28T13:46:57Z</time>
      </trkpt>
      <trkpt lat="42.86128" lon="1.83506">
        <ele>1027.117</ele>
        <time>2021-02-28T13:46:59Z</time>
      </trkpt>
      <trkpt lat="42.86127" lon="1.83503">
        <ele>1027.139</ele>
        <time>2021-02-28T13:47:01Z</time>
      </trkpt>
      <trkpt lat="42.86124" lon="1.835">
        <ele>1025.901</ele>
        <time>2021-02-28T13:47:03Z</time>
      </trkpt>
      <trkpt lat="42.86122" lon="1.83497">
        <ele>1026.228</ele>
        <time>2021-02-28T13:47:05Z</time>
      </trkpt>
      <trkpt lat="42.8612" lon="1.83493">
        <ele>1025.316</ele>
        <time>2021-02-28T13:47:07Z</time>
      </trkpt>
      <trkpt lat="42.86118" lon="1.83491">
        <ele>1025.163</ele>
        <time>2021-02-28T13:47:09Z</time>
      </trkpt>
      <trkpt lat="42.86116" lon="1.83488">
        <ele>1025.316</ele>
        <time>2021-02-28T13:47:11Z</time>
      </trkpt>
      <trkpt lat="42.86114" lon="1.83485">
        <ele>1024.321</ele>
        <time>2021-02-28T13:47:13Z</time>
      </trkpt>
      <trkpt lat="42.86112" lon="1.83481">
        <ele>1024.092</ele>
        <time>2021-02-28T13:47:15Z</time>
      </trkpt>
      <trkpt lat="42.86111" lon="1.83478">
        <ele>1023.779</ele>
        <time>2021-02-28T13:47:17Z</time>
      </trkpt>
      <trkpt lat="42.86109" lon="1.83475">
        <ele>1023.924</ele>
        <time>2021-02-28T13:47:19Z</time>
      </trkpt>
      <trkpt lat="42.86107" lon="1.83472">
        <ele>1024.863</ele>
        <time>2021-02-28T13:47:21Z</time>
      </trkpt>
      <trkpt lat="42.86104" lon="1.83469">
        <ele>1024.762</ele>
        <time>2021-02-28T13:47:23Z</time>
      </trkpt>
      <trkpt lat="42.86102" lon="1.83466">
        <ele>1024.092</ele>
        <time>2021-02-28T13:47:25Z</time>
      </trkpt>
      <trkpt lat="42.86099" lon="1.83463">
        <ele>1023.104</ele>
        <time>2021-02-28T13:47:27Z</time>
      </trkpt>
      <trkpt lat="42.86097" lon="1.8346">
        <ele>1022.852</ele>
        <time>2021-02-28T13:47:29Z</time>
      </trkpt>
      <trkpt lat="42.86095" lon="1.83458">
        <ele>1022.28</ele>
        <time>2021-02-28T13:47:31Z</time>
      </trkpt>
      <trkpt lat="42.86093" lon="1.83456">
        <ele>1021.264</ele>
        <time>2021-02-28T13:47:33Z</time>
      </trkpt>
      <trkpt lat="42.86091" lon="1.83452">
        <ele>1021.496</ele>
        <time>2021-02-28T13:47:35Z</time>
      </trkpt>
      <trkpt lat="42.8609" lon="1.83449">
        <ele>1021.779</ele>
        <time>2021-02-28T13:47:37Z</time>
      </trkpt>
      <trkpt lat="42.86088" lon="1.83446">
        <ele>1021.888</ele>
        <time>2021-02-28T13:47:39Z</time>
      </trkpt>
      <trkpt lat="42.86086" lon="1.83443">
        <ele>1022.41</ele>
        <time>2021-02-28T13:47:41Z</time>
      </trkpt>
      <trkpt lat="42.86085" lon="1.8344">
        <ele>1022.331</ele>
        <time>2021-02-28T13:47:43Z</time>
      </trkpt>
      <trkpt lat="42.86083" lon="1.83436">
        <ele>1022.264</ele>
        <time>2021-02-28T13:47:45Z</time>
      </trkpt>
      <trkpt lat="42.86081" lon="1.83433">
        <ele>1022.455</ele>
        <time>2021-02-28T13:47:47Z</time>
      </trkpt>
      <trkpt lat="42.86079" lon="1.8343">
        <ele>1021.898</ele>
        <time>2021-02-28T13:47:49Z</time>
      </trkpt>
      <trkpt lat="42.86077" lon="1.83427">
        <ele>1021.091</ele>
        <time>2021-02-28T13:47:51Z</time>
      </trkpt>
      <trkpt lat="42.86074" lon="1.83425">
        <ele>1020.424</ele>
        <time>2021-02-28T13:47:53Z</time>
      </trkpt>
      <trkpt lat="42.86072" lon="1.83422">
        <ele>1020.384</ele>
        <time>2021-02-28T13:47:55Z</time>
      </trkpt>
      <trkpt lat="42.8607" lon="1.83419">
        <ele>1020.29</ele>
        <time>2021-02-28T13:47:57Z</time>
      </trkpt>
      <trkpt lat="42.86068" lon="1.83416">
        <ele>1019.795</ele>
        <time>2021-02-28T13:47:59Z</time>
      </trkpt>
      <trkpt lat="42.86066" lon="1.83413">
        <ele>1020.052</ele>
        <time>2021-02-28T13:48:01Z</time>
      </trkpt>
      <trkpt lat="42.86063" lon="1.83411">
        <ele>1018.98</ele>
        <time>2021-02-28T13:48:03Z</time>
      </trkpt>
      <trkpt lat="42.86061" lon="1.83408">
        <ele>1018.067</ele>
        <time>2021-02-28T13:48:05Z</time>
      </trkpt>
      <trkpt lat="42.86059" lon="1.83405">
        <ele>1016.564</ele>
        <time>2021-02-28T13:48:07Z</time>
      </trkpt>
      <trkpt lat="42.86056" lon="1.83401">
        <ele>1018.64</ele>
        <time>2021-02-28T13:48:09Z</time>
      </trkpt>
      <trkpt lat="42.86053" lon="1.83397">
        <ele>1020.863</ele>
        <time>2021-02-28T13:48:11Z</time>
      </trkpt>
      <trkpt lat="42.86051" lon="1.83395">
        <ele>1020.447</ele>
        <time>2021-02-28T13:48:13Z</time>
      </trkpt>
      <trkpt lat="42.86048" lon="1.83391">
        <ele>1020.608</ele>
        <time>2021-02-28T13:48:15Z</time>
      </trkpt>
      <trkpt lat="42.86046" lon="1.83389">
        <ele>1019.808</ele>
        <time>2021-02-28T13:48:17Z</time>
      </trkpt>
      <trkpt lat="42.86044" lon="1.83386">
        <ele>1018.689</ele>
        <time>2021-02-28T13:48:19Z</time>
      </trkpt>
      <trkpt lat="42.86042" lon="1.83383">
        <ele>1017.734</ele>
        <time>2021-02-28T13:48:21Z</time>
      </trkpt>
      <trkpt lat="42.86039" lon="1.8338">
        <ele>1017.197</ele>
        <time>2021-02-28T13:48:23Z</time>
      </trkpt>
      <trkpt lat="42.86037" lon="1.83377">
        <ele>1016.972</ele>
        <time>2021-02-28T13:48:25Z</time>
      </trkpt>
      <trkpt lat="42.86035" lon="1.83374">
        <ele>1016.125</ele>
        <time>2021-02-28T13:48:27Z</time>
      </trkpt>
      <trkpt lat="42.86032" lon="1.83371">
        <ele>1015.517</ele>
        <time>2021-02-28T13:48:29Z</time>
      </trkpt>
      <trkpt lat="42.8603" lon="1.83369">
        <ele>1015.005</ele>
        <time>2021-02-28T13:48:31Z</time>
      </trkpt>
      <trkpt lat="42.86028" lon="1.83366">
        <ele>1014.717</ele>
        <time>2021-02-28T13:48:33Z</time>
      </trkpt>
      <trkpt lat="42.86026" lon="1.83364">
        <ele>1013.884</ele>
        <time>2021-02-28T13:48:35Z</time>
      </trkpt>
      <trkpt lat="42.86023" lon="1.83361">
        <ele>1012.098</ele>
        <time>2021-02-28T13:48:37Z</time>
      </trkpt>
      <trkpt lat="42.86021" lon="1.83359">
        <ele>1011.103</ele>
        <time>2021-02-28T13:48:39Z</time>
      </trkpt>
      <trkpt lat="42.86019" lon="1.83356">
        <ele>1010.638</ele>
        <time>2021-02-28T13:48:41Z</time>
      </trkpt>
      <trkpt lat="42.86017" lon="1.83354">
        <ele>1010.388</ele>
        <time>2021-02-28T13:48:43Z</time>
      </trkpt>
      <trkpt lat="42.86014" lon="1.8335">
        <ele>1009.728</ele>
        <time>2021-02-28T13:48:46Z</time>
      </trkpt>
      <trkpt lat="42.86012" lon="1.83347">
        <ele>1009.732</ele>
        <time>2021-02-28T13:48:48Z</time>
      </trkpt>
      <trkpt lat="42.86009" lon="1.83344">
        <ele>1010.15</ele>
        <time>2021-02-28T13:48:50Z</time>
      </trkpt>
      <trkpt lat="42.86007" lon="1.83341">
        <ele>1010.344</ele>
        <time>2021-02-28T13:48:52Z</time>
      </trkpt>
      <trkpt lat="42.86004" lon="1.83339">
        <ele>1011.524</ele>
        <time>2021-02-28T13:48:54Z</time>
      </trkpt>
      <trkpt lat="42.86002" lon="1.83336">
        <ele>1010.763</ele>
        <time>2021-02-28T13:48:56Z</time>
      </trkpt>
      <trkpt lat="42.85999" lon="1.83334">
        <ele>1011</ele>
        <time>2021-02-28T13:48:58Z</time>
      </trkpt>
      <trkpt lat="42.85997" lon="1.83331">
        <ele>1010.787</ele>
        <time>2021-02-28T13:49:00Z</time>
      </trkpt>
      <trkpt lat="42.85995" lon="1.83328">
        <ele>1012.05</ele>
        <time>2021-02-28T13:49:02Z</time>
      </trkpt>
      <trkpt lat="42.85992" lon="1.83326">
        <ele>1011.757</ele>
        <time>2021-02-28T13:49:04Z</time>
      </trkpt>
      <trkpt lat="42.8599" lon="1.83323">
        <ele>1012.21</ele>
        <time>2021-02-28T13:49:06Z</time>
      </trkpt>
      <trkpt lat="42.85988" lon="1.8332">
        <ele>1011.84</ele>
        <time>2021-02-28T13:49:08Z</time>
      </trkpt>
      <trkpt lat="42.85986" lon="1.83317">
        <ele>1011.109</ele>
        <time>2021-02-28T13:49:10Z</time>
      </trkpt>
      <trkpt lat="42.85984" lon="1.83314">
        <ele>1010.188</ele>
        <time>2021-02-28T13:49:12Z</time>
      </trkpt>
      <trkpt lat="42.85982" lon="1.83311">
        <ele>1010.032</ele>
        <time>2021-02-28T13:49:14Z</time>
      </trkpt>
      <trkpt lat="42.8598" lon="1.83308">
        <ele>1009.735</ele>
        <time>2021-02-28T13:49:16Z</time>
      </trkpt>
      <trkpt lat="42.85977" lon="1.83306">
        <ele>1010.145</ele>
        <time>2021-02-28T13:49:18Z</time>
      </trkpt>
      <trkpt lat="42.85975" lon="1.83302">
        <ele>1008.469</ele>
        <time>2021-02-28T13:49:20Z</time>
      </trkpt>
      <trkpt lat="42.85973" lon="1.83299">
        <ele>1008.469</ele>
        <time>2021-02-28T13:49:22Z</time>
      </trkpt>
      <trkpt lat="42.85972" lon="1.83296">
        <ele>1008.427</ele>
        <time>2021-02-28T13:49:24Z</time>
      </trkpt>
      <trkpt lat="42.8597" lon="1.83293">
        <ele>1008.664</ele>
        <time>2021-02-28T13:49:26Z</time>
      </trkpt>
      <trkpt lat="42.85968" lon="1.8329">
        <ele>1008.878</ele>
        <time>2021-02-28T13:49:28Z</time>
      </trkpt>
      <trkpt lat="42.85966" lon="1.83287">
        <ele>1008.828</ele>
        <time>2021-02-28T13:49:30Z</time>
      </trkpt>
      <trkpt lat="42.85964" lon="1.83284">
        <ele>1007.88</ele>
        <time>2021-02-28T13:49:32Z</time>
      </trkpt>
      <trkpt lat="42.85962" lon="1.8328">
        <ele>1007.846</ele>
        <time>2021-02-28T13:49:34Z</time>
      </trkpt>
      <trkpt lat="42.85959" lon="1.83277">
        <ele>1007.18</ele>
        <time>2021-02-28T13:49:36Z</time>
      </trkpt>
      <trkpt lat="42.85957" lon="1.83273">
        <ele>1006.161</ele>
        <time>2021-02-28T13:49:38Z</time>
      </trkpt>
      <trkpt lat="42.85956" lon="1.8327">
        <ele>1005.087</ele>
        <time>2021-02-28T13:49:40Z</time>
      </trkpt>
      <trkpt lat="42.85954" lon="1.83267">
        <ele>1005.357</ele>
        <time>2021-02-28T13:49:42Z</time>
      </trkpt>
      <trkpt lat="42.85952" lon="1.83263">
        <ele>1004.85</ele>
        <time>2021-02-28T13:49:44Z</time>
      </trkpt>
      <trkpt lat="42.8595" lon="1.8326">
        <ele>1005.324</ele>
        <time>2021-02-28T13:49:46Z</time>
      </trkpt>
      <trkpt lat="42.85948" lon="1.83256">
        <ele>1004.745</ele>
        <time>2021-02-28T13:49:48Z</time>
      </trkpt>
      <trkpt lat="42.85946" lon="1.83253">
        <ele>1004.656</ele>
        <time>2021-02-28T13:49:50Z</time>
      </trkpt>
      <trkpt lat="42.85944" lon="1.8325">
        <ele>1004.446</ele>
        <time>2021-02-28T13:49:52Z</time>
      </trkpt>
      <trkpt lat="42.85942" lon="1.83247">
        <ele>1004.324</ele>
        <time>2021-02-28T13:49:54Z</time>
      </trkpt>
      <trkpt lat="42.85939" lon="1.83245">
        <ele>1004.64</ele>
        <time>2021-02-28T13:49:56Z</time>
      </trkpt>
      <trkpt lat="42.85937" lon="1.83242">
        <ele>1005.393</ele>
        <time>2021-02-28T13:49:58Z</time>
      </trkpt>
      <trkpt lat="42.85934" lon="1.83239">
        <ele>1004.64</ele>
        <time>2021-02-28T13:50:00Z</time>
      </trkpt>
      <trkpt lat="42.85932" lon="1.83237">
        <ele>1004.321</ele>
        <time>2021-02-28T13:50:02Z</time>
      </trkpt>
      <trkpt lat="42.85929" lon="1.83234">
        <ele>1004.774</ele>
        <time>2021-02-28T13:50:04Z</time>
      </trkpt>
      <trkpt lat="42.85927" lon="1.83231">
        <ele>1003.71</ele>
        <time>2021-02-28T13:50:06Z</time>
      </trkpt>
      <trkpt lat="42.85925" lon="1.83229">
        <ele>1003.736</ele>
        <time>2021-02-28T13:50:08Z</time>
      </trkpt>
      <trkpt lat="42.85922" lon="1.83226">
        <ele>1002.386</ele>
        <time>2021-02-28T13:50:10Z</time>
      </trkpt>
      <trkpt lat="42.8592" lon="1.83222">
        <ele>1004.073</ele>
        <time>2021-02-28T13:50:12Z</time>
      </trkpt>
      <trkpt lat="42.85918" lon="1.8322">
        <ele>1004.084</ele>
        <time>2021-02-28T13:50:14Z</time>
      </trkpt>
      <trkpt lat="42.85916" lon="1.83217">
        <ele>1005.312</ele>
        <time>2021-02-28T13:50:16Z</time>
      </trkpt>
      <trkpt lat="42.85914" lon="1.83215">
        <ele>1004.383</ele>
        <time>2021-02-28T13:50:18Z</time>
      </trkpt>
      <trkpt lat="42.85911" lon="1.83213">
        <ele>1003.87</ele>
        <time>2021-02-28T13:50:20Z</time>
      </trkpt>
      <trkpt lat="42.85909" lon="1.8321">
        <ele>1003.063</ele>
        <time>2021-02-28T13:50:22Z</time>
      </trkpt>
      <trkpt lat="42.85907" lon="1.83208">
        <ele>1002.285</ele>
        <time>2021-02-28T13:50:24Z</time>
      </trkpt>
      <trkpt lat="42.85904" lon="1.83205">
        <ele>1002.536</ele>
        <time>2021-02-28T13:50:26Z</time>
      </trkpt>
      <trkpt lat="42.85902" lon="1.83203">
        <ele>1001.35</ele>
        <time>2021-02-28T13:50:28Z</time>
      </trkpt>
      <trkpt lat="42.859" lon="1.832">
        <ele>1002.006</ele>
        <time>2021-02-28T13:50:30Z</time>
      </trkpt>
      <trkpt lat="42.85898" lon="1.83198">
        <ele>1000.737</ele>
        <time>2021-02-28T13:50:32Z</time>
      </trkpt>
      <trkpt lat="42.85896" lon="1.83196">
        <ele>1000.897</ele>
        <time>2021-02-28T13:50:34Z</time>
      </trkpt>
      <trkpt lat="42.85894" lon="1.83193">
        <ele>1002.092</ele>
        <time>2021-02-28T13:50:36Z</time>
      </trkpt>
      <trkpt lat="42.85892" lon="1.83191">
        <ele>1002.554</ele>
        <time>2021-02-28T13:50:38Z</time>
      </trkpt>
      <trkpt lat="42.85889" lon="1.83188">
        <ele>1002.298</ele>
        <time>2021-02-28T13:50:40Z</time>
      </trkpt>
      <trkpt lat="42.85887" lon="1.83185">
        <ele>1001.275</ele>
        <time>2021-02-28T13:50:42Z</time>
      </trkpt>
      <trkpt lat="42.85885" lon="1.83183">
        <ele>999.703</ele>
        <time>2021-02-28T13:50:44Z</time>
      </trkpt>
      <trkpt lat="42.85883" lon="1.8318">
        <ele>999.402</ele>
        <time>2021-02-28T13:50:46Z</time>
      </trkpt>
      <trkpt lat="42.8588" lon="1.83177">
        <ele>998.329</ele>
        <time>2021-02-28T13:50:48Z</time>
      </trkpt>
      <trkpt lat="42.85878" lon="1.83175">
        <ele>999.355</ele>
        <time>2021-02-28T13:50:50Z</time>
      </trkpt>
      <trkpt lat="42.85876" lon="1.83172">
        <ele>998.951</ele>
        <time>2021-02-28T13:50:52Z</time>
      </trkpt>
      <trkpt lat="42.85874" lon="1.83169">
        <ele>998.34</ele>
        <time>2021-02-28T13:50:54Z</time>
      </trkpt>
      <trkpt lat="42.85872" lon="1.83165">
        <ele>998.475</ele>
        <time>2021-02-28T13:50:56Z</time>
      </trkpt>
      <trkpt lat="42.8587" lon="1.83162">
        <ele>999.371</ele>
        <time>2021-02-28T13:50:58Z</time>
      </trkpt>
      <trkpt lat="42.85868" lon="1.83159">
        <ele>998.809</ele>
        <time>2021-02-28T13:51:00Z</time>
      </trkpt>
      <trkpt lat="42.85866" lon="1.83156">
        <ele>998.297</ele>
        <time>2021-02-28T13:51:02Z</time>
      </trkpt>
      <trkpt lat="42.85864" lon="1.83153">
        <ele>998.187</ele>
        <time>2021-02-28T13:51:04Z</time>
      </trkpt>
      <trkpt lat="42.85862" lon="1.8315">
        <ele>998.697</ele>
        <time>2021-02-28T13:51:06Z</time>
      </trkpt>
      <trkpt lat="42.8586" lon="1.83146">
        <ele>998.541</ele>
        <time>2021-02-28T13:51:08Z</time>
      </trkpt>
      <trkpt lat="42.85858" lon="1.83144">
        <ele>998.369</ele>
        <time>2021-02-28T13:51:10Z</time>
      </trkpt>
      <trkpt lat="42.85856" lon="1.83141">
        <ele>997.912</ele>
        <time>2021-02-28T13:51:12Z</time>
      </trkpt>
      <trkpt lat="42.85854" lon="1.83138">
        <ele>998.062</ele>
        <time>2021-02-28T13:51:14Z</time>
      </trkpt>
      <trkpt lat="42.85852" lon="1.83135">
        <ele>996.635</ele>
        <time>2021-02-28T13:51:16Z</time>
      </trkpt>
      <trkpt lat="42.8585" lon="1.83132">
        <ele>996.243</ele>
        <time>2021-02-28T13:51:18Z</time>
      </trkpt>
      <trkpt lat="42.85848" lon="1.8313">
        <ele>995.786</ele>
        <time>2021-02-28T13:51:20Z</time>
      </trkpt>
      <trkpt lat="42.85846" lon="1.83127">
        <ele>995.728</ele>
        <time>2021-02-28T13:51:22Z</time>
      </trkpt>
      <trkpt lat="42.85843" lon="1.83124">
        <ele>996.066</ele>
        <time>2021-02-28T13:51:24Z</time>
      </trkpt>
      <trkpt lat="42.85841" lon="1.83122">
        <ele>995.297</ele>
        <time>2021-02-28T13:51:26Z</time>
      </trkpt>
      <trkpt lat="42.85839" lon="1.83119">
        <ele>996.004</ele>
        <time>2021-02-28T13:51:28Z</time>
      </trkpt>
      <trkpt lat="42.85837" lon="1.83116">
        <ele>995.325</ele>
        <time>2021-02-28T13:51:30Z</time>
      </trkpt>
      <trkpt lat="42.85835" lon="1.83113">
        <ele>995.044</ele>
        <time>2021-02-28T13:51:32Z</time>
      </trkpt>
      <trkpt lat="42.85832" lon="1.83109">
        <ele>994.548</ele>
        <time>2021-02-28T13:51:35Z</time>
      </trkpt>
      <trkpt lat="42.8583" lon="1.83106">
        <ele>992.409</ele>
        <time>2021-02-28T13:51:37Z</time>
      </trkpt>
      <trkpt lat="42.85828" lon="1.83103">
        <ele>991.207</ele>
        <time>2021-02-28T13:51:39Z</time>
      </trkpt>
      <trkpt lat="42.85825" lon="1.831">
        <ele>991.161</ele>
        <time>2021-02-28T13:51:41Z</time>
      </trkpt>
      <trkpt lat="42.85823" lon="1.83097">
        <ele>991.558</ele>
        <time>2021-02-28T13:51:43Z</time>
      </trkpt>
      <trkpt lat="42.85821" lon="1.83095">
        <ele>990.54</ele>
        <time>2021-02-28T13:51:45Z</time>
      </trkpt>
      <trkpt lat="42.85819" lon="1.83092">
        <ele>990.451</ele>
        <time>2021-02-28T13:51:47Z</time>
      </trkpt>
      <trkpt lat="42.85817" lon="1.83089">
        <ele>990.159</ele>
        <time>2021-02-28T13:51:49Z</time>
      </trkpt>
      <trkpt lat="42.85815" lon="1.83086">
        <ele>990.179</ele>
        <time>2021-02-28T13:51:51Z</time>
      </trkpt>
      <trkpt lat="42.85812" lon="1.83083">
        <ele>989.642</ele>
        <time>2021-02-28T13:51:53Z</time>
      </trkpt>
      <trkpt lat="42.8581" lon="1.8308">
        <ele>989.826</ele>
        <time>2021-02-28T13:51:55Z</time>
      </trkpt>
      <trkpt lat="42.85808" lon="1.83077">
        <ele>989.854</ele>
        <time>2021-02-28T13:51:57Z</time>
      </trkpt>
      <trkpt lat="42.85807" lon="1.83074">
        <ele>988.827</ele>
        <time>2021-02-28T13:51:59Z</time>
      </trkpt>
      <trkpt lat="42.85805" lon="1.83071">
        <ele>989.411</ele>
        <time>2021-02-28T13:52:01Z</time>
      </trkpt>
      <trkpt lat="42.85803" lon="1.83067">
        <ele>989.643</ele>
        <time>2021-02-28T13:52:03Z</time>
      </trkpt>
      <trkpt lat="42.85802" lon="1.83063">
        <ele>988.927</ele>
        <time>2021-02-28T13:52:05Z</time>
      </trkpt>
      <trkpt lat="42.858" lon="1.8306">
        <ele>989.325</ele>
        <time>2021-02-28T13:52:07Z</time>
      </trkpt>
      <trkpt lat="42.85798" lon="1.83057">
        <ele>989.818</ele>
        <time>2021-02-28T13:52:09Z</time>
      </trkpt>
      <trkpt lat="42.85796" lon="1.83054">
        <ele>987.954</ele>
        <time>2021-02-28T13:52:11Z</time>
      </trkpt>
      <trkpt lat="42.85794" lon="1.8305">
        <ele>987.95</ele>
        <time>2021-02-28T13:52:13Z</time>
      </trkpt>
      <trkpt lat="42.85793" lon="1.83047">
        <ele>987.388</ele>
        <time>2021-02-28T13:52:15Z</time>
      </trkpt>
      <trkpt lat="42.8579" lon="1.83042">
        <ele>987.27</ele>
        <time>2021-02-28T13:52:18Z</time>
      </trkpt>
      <trkpt lat="42.85788" lon="1.83039">
        <ele>986.283</ele>
        <time>2021-02-28T13:52:20Z</time>
      </trkpt>
      <trkpt lat="42.85786" lon="1.83037">
        <ele>985.523</ele>
        <time>2021-02-28T13:52:22Z</time>
      </trkpt>
      <trkpt lat="42.85784" lon="1.83034">
        <ele>984.641</ele>
        <time>2021-02-28T13:52:24Z</time>
      </trkpt>
      <trkpt lat="42.85782" lon="1.83031">
        <ele>985.308</ele>
        <time>2021-02-28T13:52:26Z</time>
      </trkpt>
      <trkpt lat="42.85779" lon="1.83029">
        <ele>984.075</ele>
        <time>2021-02-28T13:52:28Z</time>
      </trkpt>
      <trkpt lat="42.85777" lon="1.83026">
        <ele>983.88</ele>
        <time>2021-02-28T13:52:30Z</time>
      </trkpt>
      <trkpt lat="42.85774" lon="1.83024">
        <ele>982.611</ele>
        <time>2021-02-28T13:52:32Z</time>
      </trkpt>
      <trkpt lat="42.85772" lon="1.83022">
        <ele>981.708</ele>
        <time>2021-02-28T13:52:34Z</time>
      </trkpt>
      <trkpt lat="42.85769" lon="1.83019">
        <ele>981.72</ele>
        <time>2021-02-28T13:52:36Z</time>
      </trkpt>
      <trkpt lat="42.85767" lon="1.83017">
        <ele>982.605</ele>
        <time>2021-02-28T13:52:38Z</time>
      </trkpt>
      <trkpt lat="42.85765" lon="1.83015">
        <ele>981.476</ele>
        <time>2021-02-28T13:52:40Z</time>
      </trkpt>
      <trkpt lat="42.85762" lon="1.83013">
        <ele>980.96</ele>
        <time>2021-02-28T13:52:42Z</time>
      </trkpt>
      <trkpt lat="42.8576" lon="1.83011">
        <ele>981.745</ele>
        <time>2021-02-28T13:52:44Z</time>
      </trkpt>
      <trkpt lat="42.85757" lon="1.83009">
        <ele>980.688</ele>
        <time>2021-02-28T13:52:46Z</time>
      </trkpt>
      <trkpt lat="42.85755" lon="1.83007">
        <ele>980.843</ele>
        <time>2021-02-28T13:52:48Z</time>
      </trkpt>
      <trkpt lat="42.85752" lon="1.83005">
        <ele>980.442</ele>
        <time>2021-02-28T13:52:50Z</time>
      </trkpt>
      <trkpt lat="42.85749" lon="1.83004">
        <ele>980.045</ele>
        <time>2021-02-28T13:52:52Z</time>
      </trkpt>
      <trkpt lat="42.85747" lon="1.83002">
        <ele>979.991</ele>
        <time>2021-02-28T13:52:54Z</time>
      </trkpt>
      <trkpt lat="42.85744" lon="1.83">
        <ele>980.088</ele>
        <time>2021-02-28T13:52:56Z</time>
      </trkpt>
      <trkpt lat="42.85741" lon="1.82998">
        <ele>979.948</ele>
        <time>2021-02-28T13:52:58Z</time>
      </trkpt>
      <trkpt lat="42.85739" lon="1.82996">
        <ele>980.16</ele>
        <time>2021-02-28T13:53:00Z</time>
      </trkpt>
      <trkpt lat="42.85736" lon="1.82994">
        <ele>978.815</ele>
        <time>2021-02-28T13:53:02Z</time>
      </trkpt>
      <trkpt lat="42.85734" lon="1.82992">
        <ele>979.259</ele>
        <time>2021-02-28T13:53:04Z</time>
      </trkpt>
      <trkpt lat="42.85731" lon="1.8299">
        <ele>977.986</ele>
        <time>2021-02-28T13:53:06Z</time>
      </trkpt>
      <trkpt lat="42.85728" lon="1.82988">
        <ele>978.038</ele>
        <time>2021-02-28T13:53:08Z</time>
      </trkpt>
      <trkpt lat="42.85726" lon="1.82987">
        <ele>976.947</ele>
        <time>2021-02-28T13:53:10Z</time>
      </trkpt>
      <trkpt lat="42.85723" lon="1.82985">
        <ele>977.736</ele>
        <time>2021-02-28T13:53:12Z</time>
      </trkpt>
      <trkpt lat="42.85721" lon="1.82983">
        <ele>976.513</ele>
        <time>2021-02-28T13:53:14Z</time>
      </trkpt>
      <trkpt lat="42.85718" lon="1.82981">
        <ele>975.759</ele>
        <time>2021-02-28T13:53:16Z</time>
      </trkpt>
      <trkpt lat="42.85715" lon="1.8298">
        <ele>975.008</ele>
        <time>2021-02-28T13:53:18Z</time>
      </trkpt>
      <trkpt lat="42.85713" lon="1.82978">
        <ele>977.118</ele>
        <time>2021-02-28T13:53:20Z</time>
      </trkpt>
      <trkpt lat="42.8571" lon="1.82976">
        <ele>976.252</ele>
        <time>2021-02-28T13:53:22Z</time>
      </trkpt>
      <trkpt lat="42.85707" lon="1.82974">
        <ele>975.936</ele>
        <time>2021-02-28T13:53:24Z</time>
      </trkpt>
      <trkpt lat="42.85705" lon="1.82971">
        <ele>975.499</ele>
        <time>2021-02-28T13:53:26Z</time>
      </trkpt>
      <trkpt lat="42.85702" lon="1.82969">
        <ele>976.212</ele>
        <time>2021-02-28T13:53:28Z</time>
      </trkpt>
      <trkpt lat="42.85699" lon="1.82967">
        <ele>976.514</ele>
        <time>2021-02-28T13:53:30Z</time>
      </trkpt>
      <trkpt lat="42.85696" lon="1.82965">
        <ele>979.348</ele>
        <time>2021-02-28T13:53:32Z</time>
      </trkpt>
      <trkpt lat="42.85694" lon="1.82966">
        <ele>980.845</ele>
        <time>2021-02-28T13:53:34Z</time>
      </trkpt>
      <trkpt lat="42.85691" lon="1.82965">
        <ele>979.454</ele>
        <time>2021-02-28T13:53:36Z</time>
      </trkpt>
      <trkpt lat="42.85691" lon="1.82961">
        <ele>979.679</ele>
        <time>2021-02-28T13:53:38Z</time>
      </trkpt>
      <trkpt lat="42.85692" lon="1.82957">
        <ele>979.122</ele>
        <time>2021-02-28T13:53:40Z</time>
      </trkpt>
      <trkpt lat="42.85693" lon="1.82954">
        <ele>980.459</ele>
        <time>2021-02-28T13:53:42Z</time>
      </trkpt>
      <trkpt lat="42.85693" lon="1.82951">
        <ele>982.264</ele>
        <time>2021-02-28T13:53:44Z</time>
      </trkpt>
      <trkpt lat="42.85693" lon="1.82948">
        <ele>982.333</ele>
        <time>2021-02-28T13:53:46Z</time>
      </trkpt>
      <trkpt lat="42.85691" lon="1.82947">
        <ele>982.103</ele>
        <time>2021-02-28T13:53:48Z</time>
      </trkpt>
      <trkpt lat="42.8569" lon="1.82945">
        <ele>981.528</ele>
        <time>2021-02-28T13:53:50Z</time>
      </trkpt>
      <trkpt lat="42.85688" lon="1.82943">
        <ele>980.645</ele>
        <time>2021-02-28T13:53:52Z</time>
      </trkpt>
      <trkpt lat="42.85686" lon="1.82941">
        <ele>979.152</ele>
        <time>2021-02-28T13:53:54Z</time>
      </trkpt>
      <trkpt lat="42.85685" lon="1.82939">
        <ele>979.767</ele>
        <time>2021-02-28T13:53:56Z</time>
      </trkpt>
      <trkpt lat="42.85683" lon="1.82938">
        <ele>980.351</ele>
        <time>2021-02-28T13:53:58Z</time>
      </trkpt>
      <trkpt lat="42.85681" lon="1.82937">
        <ele>978.598</ele>
        <time>2021-02-28T13:54:00Z</time>
      </trkpt>
      <trkpt lat="42.85679" lon="1.82934">
        <ele>978.052</ele>
        <time>2021-02-28T13:54:02Z</time>
      </trkpt>
      <trkpt lat="42.85677" lon="1.82932">
        <ele>978.104</ele>
        <time>2021-02-28T13:54:04Z</time>
      </trkpt>
      <trkpt lat="42.85675" lon="1.8293">
        <ele>977.506</ele>
        <time>2021-02-28T13:54:06Z</time>
      </trkpt>
      <trkpt lat="42.85673" lon="1.82928">
        <ele>976.739</ele>
        <time>2021-02-28T13:54:08Z</time>
      </trkpt>
      <trkpt lat="42.85671" lon="1.82927">
        <ele>975.92</ele>
        <time>2021-02-28T13:54:10Z</time>
      </trkpt>
      <trkpt lat="42.85669" lon="1.82925">
        <ele>974.01</ele>
        <time>2021-02-28T13:54:12Z</time>
      </trkpt>
      <trkpt lat="42.85667" lon="1.82923">
        <ele>973.683</ele>
        <time>2021-02-28T13:54:14Z</time>
      </trkpt>
      <trkpt lat="42.85665" lon="1.8292">
        <ele>972.751</ele>
        <time>2021-02-28T13:54:16Z</time>
      </trkpt>
      <trkpt lat="42.85663" lon="1.82918">
        <ele>974.053</ele>
        <time>2021-02-28T13:54:18Z</time>
      </trkpt>
      <trkpt lat="42.85661" lon="1.82915">
        <ele>973.054</ele>
        <time>2021-02-28T13:54:20Z</time>
      </trkpt>
      <trkpt lat="42.85659" lon="1.82913">
        <ele>973.39</ele>
        <time>2021-02-28T13:54:22Z</time>
      </trkpt>
      <trkpt lat="42.85658" lon="1.8291">
        <ele>972.251</ele>
        <time>2021-02-28T13:54:24Z</time>
      </trkpt>
      <trkpt lat="42.85656" lon="1.82908">
        <ele>971.734</ele>
        <time>2021-02-28T13:54:26Z</time>
      </trkpt>
      <trkpt lat="42.85655" lon="1.82905">
        <ele>970.521</ele>
        <time>2021-02-28T13:54:28Z</time>
      </trkpt>
      <trkpt lat="42.85654" lon="1.82902">
        <ele>970.335</ele>
        <time>2021-02-28T13:54:30Z</time>
      </trkpt>
      <trkpt lat="42.85652" lon="1.82898">
        <ele>972.654</ele>
        <time>2021-02-28T13:54:32Z</time>
      </trkpt>
      <trkpt lat="42.85651" lon="1.82894">
        <ele>973.243</ele>
        <time>2021-02-28T13:54:34Z</time>
      </trkpt>
      <trkpt lat="42.8565" lon="1.82891">
        <ele>972.591</ele>
        <time>2021-02-28T13:54:36Z</time>
      </trkpt>
      <trkpt lat="42.85648" lon="1.82888">
        <ele>971.662</ele>
        <time>2021-02-28T13:54:38Z</time>
      </trkpt>
      <trkpt lat="42.85647" lon="1.82885">
        <ele>971.054</ele>
        <time>2021-02-28T13:54:40Z</time>
      </trkpt>
      <trkpt lat="42.85645" lon="1.82882">
        <ele>969.471</ele>
        <time>2021-02-28T13:54:42Z</time>
      </trkpt>
      <trkpt lat="42.85644" lon="1.82878">
        <ele>969.168</ele>
        <time>2021-02-28T13:54:44Z</time>
      </trkpt>
      <trkpt lat="42.85642" lon="1.82875">
        <ele>968.098</ele>
        <time>2021-02-28T13:54:46Z</time>
      </trkpt>
      <trkpt lat="42.85641" lon="1.82872">
        <ele>968.22</ele>
        <time>2021-02-28T13:54:48Z</time>
      </trkpt>
      <trkpt lat="42.8564" lon="1.82869">
        <ele>967.989</ele>
        <time>2021-02-28T13:54:50Z</time>
      </trkpt>
      <trkpt lat="42.85638" lon="1.82866">
        <ele>967.829</ele>
        <time>2021-02-28T13:54:52Z</time>
      </trkpt>
      <trkpt lat="42.85637" lon="1.82864">
        <ele>966.958</ele>
        <time>2021-02-28T13:54:54Z</time>
      </trkpt>
      <trkpt lat="42.85635" lon="1.82861">
        <ele>966.744</ele>
        <time>2021-02-28T13:54:56Z</time>
      </trkpt>
      <trkpt lat="42.85633" lon="1.82858">
        <ele>965.517</ele>
        <time>2021-02-28T13:54:58Z</time>
      </trkpt>
      <trkpt lat="42.85631" lon="1.82856">
        <ele>964.943</ele>
        <time>2021-02-28T13:55:00Z</time>
      </trkpt>
      <trkpt lat="42.85629" lon="1.82853">
        <ele>964.667</ele>
        <time>2021-02-28T13:55:02Z</time>
      </trkpt>
      <trkpt lat="42.85628" lon="1.8285">
        <ele>963.61</ele>
        <time>2021-02-28T13:55:04Z</time>
      </trkpt>
      <trkpt lat="42.85627" lon="1.82847">
        <ele>963.582</ele>
        <time>2021-02-28T13:55:06Z</time>
      </trkpt>
      <trkpt lat="42.85626" lon="1.82843">
        <ele>963.05</ele>
        <time>2021-02-28T13:55:08Z</time>
      </trkpt>
      <trkpt lat="42.85627" lon="1.82839">
        <ele>963.411</ele>
        <time>2021-02-28T13:55:10Z</time>
      </trkpt>
      <trkpt lat="42.85628" lon="1.82835">
        <ele>966.298</ele>
        <time>2021-02-28T13:55:12Z</time>
      </trkpt>
      <trkpt lat="42.85631" lon="1.82831">
        <ele>967.544</ele>
        <time>2021-02-28T13:55:14Z</time>
      </trkpt>
      <trkpt lat="42.85633" lon="1.82827">
        <ele>969.642</ele>
        <time>2021-02-28T13:55:16Z</time>
      </trkpt>
      <trkpt lat="42.85635" lon="1.82826">
        <ele>971.194</ele>
        <time>2021-02-28T13:55:18Z</time>
      </trkpt>
      <trkpt lat="42.85637" lon="1.82826">
        <ele>971.813</ele>
        <time>2021-02-28T13:55:20Z</time>
      </trkpt>
      <trkpt lat="42.8564" lon="1.82826">
        <ele>971.614</ele>
        <time>2021-02-28T13:55:22Z</time>
      </trkpt>
      <trkpt lat="42.85642" lon="1.82829">
        <ele>971.795</ele>
        <time>2021-02-28T13:55:24Z</time>
      </trkpt>
      <trkpt lat="42.85643" lon="1.8283">
        <ele>971.92</ele>
        <time>2021-02-28T13:55:25Z</time>
      </trkpt>
      <trkpt lat="42.85645" lon="1.82834">
        <ele>972.076</ele>
        <time>2021-02-28T13:55:28Z</time>
      </trkpt>
      <trkpt lat="42.85646" lon="1.82837">
        <ele>971.847</ele>
        <time>2021-02-28T13:55:30Z</time>
      </trkpt>
      <trkpt lat="42.85647" lon="1.8284">
        <ele>971.459</ele>
        <time>2021-02-28T13:55:32Z</time>
      </trkpt>
      <trkpt lat="42.85649" lon="1.82842">
        <ele>971.376</ele>
        <time>2021-02-28T13:55:34Z</time>
      </trkpt>
      <trkpt lat="42.8565" lon="1.82845">
        <ele>970.659</ele>
        <time>2021-02-28T13:55:36Z</time>
      </trkpt>
      <trkpt lat="42.85651" lon="1.82848">
        <ele>970.579</ele>
        <time>2021-02-28T13:55:38Z</time>
      </trkpt>
      <trkpt lat="42.85653" lon="1.82851">
        <ele>969.879</ele>
        <time>2021-02-28T13:55:40Z</time>
      </trkpt>
      <trkpt lat="42.85655" lon="1.82853">
        <ele>968.772</ele>
        <time>2021-02-28T13:55:42Z</time>
      </trkpt>
      <trkpt lat="42.85657" lon="1.82855">
        <ele>967.584</ele>
        <time>2021-02-28T13:55:44Z</time>
      </trkpt>
      <trkpt lat="42.85659" lon="1.82858">
        <ele>966.858</ele>
        <time>2021-02-28T13:55:46Z</time>
      </trkpt>
      <trkpt lat="42.85661" lon="1.8286">
        <ele>966.296</ele>
        <time>2021-02-28T13:55:48Z</time>
      </trkpt>
      <trkpt lat="42.85662" lon="1.82863">
        <ele>965.773</ele>
        <time>2021-02-28T13:55:50Z</time>
      </trkpt>
      <trkpt lat="42.85665" lon="1.82865">
        <ele>966.036</ele>
        <time>2021-02-28T13:55:52Z</time>
      </trkpt>
      <trkpt lat="42.85667" lon="1.82867">
        <ele>966.477</ele>
        <time>2021-02-28T13:55:54Z</time>
      </trkpt>
      <trkpt lat="42.8567" lon="1.82868">
        <ele>967.838</ele>
        <time>2021-02-28T13:55:56Z</time>
      </trkpt>
      <trkpt lat="42.85672" lon="1.8287">
        <ele>967.845</ele>
        <time>2021-02-28T13:55:58Z</time>
      </trkpt>
      <trkpt lat="42.85675" lon="1.82871">
        <ele>967.901</ele>
        <time>2021-02-28T13:56:00Z</time>
      </trkpt>
      <trkpt lat="42.85678" lon="1.82872">
        <ele>968.285</ele>
        <time>2021-02-28T13:56:02Z</time>
      </trkpt>
      <trkpt lat="42.8568" lon="1.82872">
        <ele>968.527</ele>
        <time>2021-02-28T13:56:04Z</time>
      </trkpt>
      <trkpt lat="42.85683" lon="1.82874">
        <ele>967.476</ele>
        <time>2021-02-28T13:56:06Z</time>
      </trkpt>
      <trkpt lat="42.85685" lon="1.82875">
        <ele>966.707</ele>
        <time>2021-02-28T13:56:08Z</time>
      </trkpt>
      <trkpt lat="42.85688" lon="1.82876">
        <ele>965.273</ele>
        <time>2021-02-28T13:56:10Z</time>
      </trkpt>
      <trkpt lat="42.85691" lon="1.82877">
        <ele>963.738</ele>
        <time>2021-02-28T13:56:12Z</time>
      </trkpt>
      <trkpt lat="42.85693" lon="1.82878">
        <ele>963.347</ele>
        <time>2021-02-28T13:56:14Z</time>
      </trkpt>
      <trkpt lat="42.85695" lon="1.8288">
        <ele>961.949</ele>
        <time>2021-02-28T13:56:16Z</time>
      </trkpt>
      <trkpt lat="42.85697" lon="1.82881">
        <ele>960.368</ele>
        <time>2021-02-28T13:56:18Z</time>
      </trkpt>
      <trkpt lat="42.857" lon="1.82883">
        <ele>959.409</ele>
        <time>2021-02-28T13:56:20Z</time>
      </trkpt>
      <trkpt lat="42.85702" lon="1.82884">
        <ele>959.064</ele>
        <time>2021-02-28T13:56:22Z</time>
      </trkpt>
      <trkpt lat="42.85704" lon="1.82886">
        <ele>957.145</ele>
        <time>2021-02-28T13:56:24Z</time>
      </trkpt>
      <trkpt lat="42.85707" lon="1.82888">
        <ele>955.778</ele>
        <time>2021-02-28T13:56:26Z</time>
      </trkpt>
      <trkpt lat="42.85709" lon="1.82889">
        <ele>954.432</ele>
        <time>2021-02-28T13:56:28Z</time>
      </trkpt>
      <trkpt lat="42.85711" lon="1.82891">
        <ele>954.342</ele>
        <time>2021-02-28T13:56:30Z</time>
      </trkpt>
      <trkpt lat="42.85713" lon="1.82893">
        <ele>954.028</ele>
        <time>2021-02-28T13:56:32Z</time>
      </trkpt>
      <trkpt lat="42.85716" lon="1.82894">
        <ele>953.641</ele>
        <time>2021-02-28T13:56:34Z</time>
      </trkpt>
      <trkpt lat="42.85718" lon="1.82895">
        <ele>953.147</ele>
        <time>2021-02-28T13:56:36Z</time>
      </trkpt>
      <trkpt lat="42.85721" lon="1.82897">
        <ele>953.65</ele>
        <time>2021-02-28T13:56:38Z</time>
      </trkpt>
      <trkpt lat="42.85725" lon="1.82898">
        <ele>955.466</ele>
        <time>2021-02-28T13:56:40Z</time>
      </trkpt>
      <trkpt lat="42.85728" lon="1.829">
        <ele>955.488</ele>
        <time>2021-02-28T13:56:42Z</time>
      </trkpt>
      <trkpt lat="42.85732" lon="1.82901">
        <ele>955.105</ele>
        <time>2021-02-28T13:56:44Z</time>
      </trkpt>
      <trkpt lat="42.85735" lon="1.82901">
        <ele>954.249</ele>
        <time>2021-02-28T13:56:46Z</time>
      </trkpt>
      <trkpt lat="42.85738" lon="1.82903">
        <ele>954.437</ele>
        <time>2021-02-28T13:56:48Z</time>
      </trkpt>
      <trkpt lat="42.8574" lon="1.82903">
        <ele>953.546</ele>
        <time>2021-02-28T13:56:50Z</time>
      </trkpt>
      <trkpt lat="42.85743" lon="1.82902">
        <ele>953.448</ele>
        <time>2021-02-28T13:56:52Z</time>
      </trkpt>
      <trkpt lat="42.85746" lon="1.829">
        <ele>954.733</ele>
        <time>2021-02-28T13:56:54Z</time>
      </trkpt>
      <trkpt lat="42.85748" lon="1.82897">
        <ele>954.973</ele>
        <time>2021-02-28T13:56:56Z</time>
      </trkpt>
      <trkpt lat="42.85749" lon="1.82894">
        <ele>954.827</ele>
        <time>2021-02-28T13:56:58Z</time>
      </trkpt>
      <trkpt lat="42.85749" lon="1.82891">
        <ele>955.559</ele>
        <time>2021-02-28T13:57:00Z</time>
      </trkpt>
      <trkpt lat="42.8575" lon="1.82888">
        <ele>956.218</ele>
        <time>2021-02-28T13:57:02Z</time>
      </trkpt>
      <trkpt lat="42.85749" lon="1.82886">
        <ele>956.435</ele>
        <time>2021-02-28T13:57:04Z</time>
      </trkpt>
      <trkpt lat="42.85748" lon="1.82883">
        <ele>954.225</ele>
        <time>2021-02-28T13:57:06Z</time>
      </trkpt>
      <trkpt lat="42.85746" lon="1.82881">
        <ele>952.811</ele>
        <time>2021-02-28T13:57:08Z</time>
      </trkpt>
      <trkpt lat="42.85744" lon="1.82879">
        <ele>952.361</ele>
        <time>2021-02-28T13:57:10Z</time>
      </trkpt>
      <trkpt lat="42.85741" lon="1.82877">
        <ele>952.092</ele>
        <time>2021-02-28T13:57:12Z</time>
      </trkpt>
      <trkpt lat="42.8574" lon="1.82875">
        <ele>953.305</ele>
        <time>2021-02-28T13:57:14Z</time>
      </trkpt>
      <trkpt lat="42.85738" lon="1.82874">
        <ele>951.669</ele>
        <time>2021-02-28T13:57:16Z</time>
      </trkpt>
      <trkpt lat="42.85736" lon="1.82873">
        <ele>950.371</ele>
        <time>2021-02-28T13:57:18Z</time>
      </trkpt>
      <trkpt lat="42.85734" lon="1.82871">
        <ele>947.909</ele>
        <time>2021-02-28T13:57:20Z</time>
      </trkpt>
      <trkpt lat="42.85732" lon="1.82869">
        <ele>948.144</ele>
        <time>2021-02-28T13:57:22Z</time>
      </trkpt>
      <trkpt lat="42.8573" lon="1.82866">
        <ele>948.308</ele>
        <time>2021-02-28T13:57:24Z</time>
      </trkpt>
      <trkpt lat="42.85728" lon="1.82864">
        <ele>946.844</ele>
        <time>2021-02-28T13:57:26Z</time>
      </trkpt>
      <trkpt lat="42.85726" lon="1.82862">
        <ele>946.443</ele>
        <time>2021-02-28T13:57:28Z</time>
      </trkpt>
      <trkpt lat="42.85725" lon="1.82859">
        <ele>945.723</ele>
        <time>2021-02-28T13:57:30Z</time>
      </trkpt>
      <trkpt lat="42.85724" lon="1.82856">
        <ele>945.488</ele>
        <time>2021-02-28T13:57:32Z</time>
      </trkpt>
      <trkpt lat="42.85723" lon="1.82852">
        <ele>945.08</ele>
        <time>2021-02-28T13:57:34Z</time>
      </trkpt>
      <trkpt lat="42.85722" lon="1.82849">
        <ele>946.171</ele>
        <time>2021-02-28T13:57:36Z</time>
      </trkpt>
      <trkpt lat="42.85722" lon="1.82846">
        <ele>946.302</ele>
        <time>2021-02-28T13:57:38Z</time>
      </trkpt>
      <trkpt lat="42.85723" lon="1.82842">
        <ele>947.298</ele>
        <time>2021-02-28T13:57:40Z</time>
      </trkpt>
      <trkpt lat="42.85725" lon="1.82838">
        <ele>946.555</ele>
        <time>2021-02-28T13:57:42Z</time>
      </trkpt>
      <trkpt lat="42.85726" lon="1.82836">
        <ele>946.09</ele>
        <time>2021-02-28T13:57:44Z</time>
      </trkpt>
      <trkpt lat="42.85728" lon="1.82834">
        <ele>944.56</ele>
        <time>2021-02-28T13:57:46Z</time>
      </trkpt>
      <trkpt lat="42.85731" lon="1.82832">
        <ele>946</ele>
        <time>2021-02-28T13:57:48Z</time>
      </trkpt>
      <trkpt lat="42.85733" lon="1.82832">
        <ele>946.499</ele>
        <time>2021-02-28T13:57:50Z</time>
      </trkpt>
      <trkpt lat="42.85735" lon="1.82832">
        <ele>947.727</ele>
        <time>2021-02-28T13:57:52Z</time>
      </trkpt>
      <trkpt lat="42.85737" lon="1.82833">
        <ele>948.087</ele>
        <time>2021-02-28T13:57:54Z</time>
      </trkpt>
      <trkpt lat="42.8574" lon="1.82834">
        <ele>948.471</ele>
        <time>2021-02-28T13:57:56Z</time>
      </trkpt>
      <trkpt lat="42.85742" lon="1.82835">
        <ele>948.985</ele>
        <time>2021-02-28T13:57:58Z</time>
      </trkpt>
      <trkpt lat="42.85744" lon="1.82835">
        <ele>948.84</ele>
        <time>2021-02-28T13:58:00Z</time>
      </trkpt>
      <trkpt lat="42.85747" lon="1.82836">
        <ele>948.776</ele>
        <time>2021-02-28T13:58:02Z</time>
      </trkpt>
      <trkpt lat="42.85748" lon="1.82839">
        <ele>946.789</ele>
        <time>2021-02-28T13:58:04Z</time>
      </trkpt>
      <trkpt lat="42.85751" lon="1.82839">
        <ele>945.938</ele>
        <time>2021-02-28T13:58:06Z</time>
      </trkpt>
      <trkpt lat="42.85754" lon="1.82841">
        <ele>945.709</ele>
        <time>2021-02-28T13:58:08Z</time>
      </trkpt>
      <trkpt lat="42.85756" lon="1.82843">
        <ele>945.109</ele>
        <time>2021-02-28T13:58:10Z</time>
      </trkpt>
      <trkpt lat="42.85759" lon="1.82844">
        <ele>944.5</ele>
        <time>2021-02-28T13:58:12Z</time>
      </trkpt>
      <trkpt lat="42.85761" lon="1.82846">
        <ele>944.16</ele>
        <time>2021-02-28T13:58:14Z</time>
      </trkpt>
      <trkpt lat="42.85763" lon="1.82848">
        <ele>943.709</ele>
        <time>2021-02-28T13:58:16Z</time>
      </trkpt>
      <trkpt lat="42.85765" lon="1.8285">
        <ele>942.937</ele>
        <time>2021-02-28T13:58:18Z</time>
      </trkpt>
      <trkpt lat="42.85767" lon="1.82852">
        <ele>941.954</ele>
        <time>2021-02-28T13:58:20Z</time>
      </trkpt>
      <trkpt lat="42.85769" lon="1.82854">
        <ele>941.626</ele>
        <time>2021-02-28T13:58:22Z</time>
      </trkpt>
      <trkpt lat="42.85772" lon="1.82856">
        <ele>942.668</ele>
        <time>2021-02-28T13:58:24Z</time>
      </trkpt>
      <trkpt lat="42.85773" lon="1.82857">
        <ele>942.528</ele>
        <time>2021-02-28T13:58:25Z</time>
      </trkpt>
      <trkpt lat="42.85775" lon="1.8286">
        <ele>940.507</ele>
        <time>2021-02-28T13:58:28Z</time>
      </trkpt>
      <trkpt lat="42.85777" lon="1.82863">
        <ele>939.471</ele>
        <time>2021-02-28T13:58:30Z</time>
      </trkpt>
      <trkpt lat="42.85779" lon="1.82865">
        <ele>938.286</ele>
        <time>2021-02-28T13:58:32Z</time>
      </trkpt>
      <trkpt lat="42.85781" lon="1.82868">
        <ele>938.145</ele>
        <time>2021-02-28T13:58:34Z</time>
      </trkpt>
      <trkpt lat="42.85782" lon="1.82871">
        <ele>937.059</ele>
        <time>2021-02-28T13:58:36Z</time>
      </trkpt>
      <trkpt lat="42.85783" lon="1.82874">
        <ele>936.31</ele>
        <time>2021-02-28T13:58:38Z</time>
      </trkpt>
      <trkpt lat="42.85784" lon="1.82878">
        <ele>935.82</ele>
        <time>2021-02-28T13:58:40Z</time>
      </trkpt>
      <trkpt lat="42.85785" lon="1.82882">
        <ele>935.43</ele>
        <time>2021-02-28T13:58:42Z</time>
      </trkpt>
      <trkpt lat="42.85785" lon="1.82885">
        <ele>934.728</ele>
        <time>2021-02-28T13:58:44Z</time>
      </trkpt>
      <trkpt lat="42.85785" lon="1.82889">
        <ele>933.361</ele>
        <time>2021-02-28T13:58:46Z</time>
      </trkpt>
      <trkpt lat="42.85785" lon="1.82892">
        <ele>932.537</ele>
        <time>2021-02-28T13:58:48Z</time>
      </trkpt>
      <trkpt lat="42.85785" lon="1.82895">
        <ele>931.748</ele>
        <time>2021-02-28T13:58:50Z</time>
      </trkpt>
      <trkpt lat="42.85786" lon="1.82899">
        <ele>932.56</ele>
        <time>2021-02-28T13:58:52Z</time>
      </trkpt>
      <trkpt lat="42.85787" lon="1.82902">
        <ele>931.842</ele>
        <time>2021-02-28T13:58:54Z</time>
      </trkpt>
      <trkpt lat="42.85788" lon="1.82905">
        <ele>931.554</ele>
        <time>2021-02-28T13:58:56Z</time>
      </trkpt>
      <trkpt lat="42.85791" lon="1.8291">
        <ele>930.764</ele>
        <time>2021-02-28T13:58:59Z</time>
      </trkpt>
      <trkpt lat="42.85792" lon="1.82914">
        <ele>929.78</ele>
        <time>2021-02-28T13:59:01Z</time>
      </trkpt>
      <trkpt lat="42.85794" lon="1.82917">
        <ele>928.882</ele>
        <time>2021-02-28T13:59:03Z</time>
      </trkpt>
      <trkpt lat="42.85796" lon="1.8292">
        <ele>928.978</ele>
        <time>2021-02-28T13:59:05Z</time>
      </trkpt>
      <trkpt lat="42.85799" lon="1.82923">
        <ele>929.277</ele>
        <time>2021-02-28T13:59:07Z</time>
      </trkpt>
      <trkpt lat="42.85802" lon="1.82925">
        <ele>929.27</ele>
        <time>2021-02-28T13:59:09Z</time>
      </trkpt>
      <trkpt lat="42.85804" lon="1.82925">
        <ele>928.784</ele>
        <time>2021-02-28T13:59:11Z</time>
      </trkpt>
      <trkpt lat="42.85807" lon="1.82924">
        <ele>928.546</ele>
        <time>2021-02-28T13:59:13Z</time>
      </trkpt>
      <trkpt lat="42.85809" lon="1.82921">
        <ele>928.32</ele>
        <time>2021-02-28T13:59:15Z</time>
      </trkpt>
      <trkpt lat="42.8581" lon="1.8292">
        <ele>928.297</ele>
        <time>2021-02-28T13:59:16Z</time>
      </trkpt>
      <trkpt lat="42.85812" lon="1.82915">
        <ele>929.084</ele>
        <time>2021-02-28T13:59:19Z</time>
      </trkpt>
      <trkpt lat="42.85813" lon="1.82912">
        <ele>929.117</ele>
        <time>2021-02-28T13:59:21Z</time>
      </trkpt>
      <trkpt lat="42.85814" lon="1.82909">
        <ele>928.997</ele>
        <time>2021-02-28T13:59:23Z</time>
      </trkpt>
      <trkpt lat="42.85814" lon="1.82903">
        <ele>929.321</ele>
        <time>2021-02-28T13:59:26Z</time>
      </trkpt>
      <trkpt lat="42.85814" lon="1.82902">
        <ele>928.94</ele>
        <time>2021-02-28T13:59:27Z</time>
      </trkpt>
      <trkpt lat="42.85814" lon="1.82897">
        <ele>928.891</ele>
        <time>2021-02-28T13:59:30Z</time>
      </trkpt>
      <trkpt lat="42.85814" lon="1.82893">
        <ele>927.768</ele>
        <time>2021-02-28T13:59:32Z</time>
      </trkpt>
      <trkpt lat="42.85814" lon="1.8289">
        <ele>926.688</ele>
        <time>2021-02-28T13:59:34Z</time>
      </trkpt>
      <trkpt lat="42.85814" lon="1.82887">
        <ele>927.039</ele>
        <time>2021-02-28T13:59:36Z</time>
      </trkpt>
      <trkpt lat="42.85815" lon="1.82884">
        <ele>927.392</ele>
        <time>2021-02-28T13:59:38Z</time>
      </trkpt>
      <trkpt lat="42.85815" lon="1.8288">
        <ele>926.39</ele>
        <time>2021-02-28T13:59:40Z</time>
      </trkpt>
      <trkpt lat="42.85816" lon="1.82877">
        <ele>926.012</ele>
        <time>2021-02-28T13:59:42Z</time>
      </trkpt>
      <trkpt lat="42.85816" lon="1.82874">
        <ele>924.903</ele>
        <time>2021-02-28T13:59:44Z</time>
      </trkpt>
      <trkpt lat="42.85816" lon="1.8287">
        <ele>924.127</ele>
        <time>2021-02-28T13:59:46Z</time>
      </trkpt>
      <trkpt lat="42.85817" lon="1.82867">
        <ele>923.271</ele>
        <time>2021-02-28T13:59:48Z</time>
      </trkpt>
      <trkpt lat="42.85817" lon="1.82864">
        <ele>922.283</ele>
        <time>2021-02-28T13:59:50Z</time>
      </trkpt>
      <trkpt lat="42.85818" lon="1.82861">
        <ele>920.889</ele>
        <time>2021-02-28T13:59:52Z</time>
      </trkpt>
      <trkpt lat="42.85818" lon="1.82858">
        <ele>920.548</ele>
        <time>2021-02-28T13:59:54Z</time>
      </trkpt>
      <trkpt lat="42.85819" lon="1.82855">
        <ele>919.629</ele>
        <time>2021-02-28T13:59:56Z</time>
      </trkpt>
      <trkpt lat="42.8582" lon="1.82852">
        <ele>919.129</ele>
        <time>2021-02-28T13:59:58Z</time>
      </trkpt>
      <trkpt lat="42.85822" lon="1.82849">
        <ele>917.533</ele>
        <time>2021-02-28T14:00:00Z</time>
      </trkpt>
      <trkpt lat="42.85823" lon="1.82845">
        <ele>916.601</ele>
        <time>2021-02-28T14:00:02Z</time>
      </trkpt>
      <trkpt lat="42.85824" lon="1.82842">
        <ele>916.377</ele>
        <time>2021-02-28T14:00:04Z</time>
      </trkpt>
      <trkpt lat="42.85826" lon="1.82839">
        <ele>915.613</ele>
        <time>2021-02-28T14:00:06Z</time>
      </trkpt>
      <trkpt lat="42.85827" lon="1.82836">
        <ele>914.89</ele>
        <time>2021-02-28T14:00:08Z</time>
      </trkpt>
      <trkpt lat="42.85829" lon="1.82832">
        <ele>913.583</ele>
        <time>2021-02-28T14:00:10Z</time>
      </trkpt>
      <trkpt lat="42.85831" lon="1.82829">
        <ele>913.414</ele>
        <time>2021-02-28T14:00:12Z</time>
      </trkpt>
      <trkpt lat="42.85833" lon="1.82826">
        <ele>913.495</ele>
        <time>2021-02-28T14:00:14Z</time>
      </trkpt>
      <trkpt lat="42.85834" lon="1.82823">
        <ele>914.383</ele>
        <time>2021-02-28T14:00:16Z</time>
      </trkpt>
      <trkpt lat="42.85837" lon="1.8282">
        <ele>915.393</ele>
        <time>2021-02-28T14:00:18Z</time>
      </trkpt>
      <trkpt lat="42.85839" lon="1.82816">
        <ele>917.081</ele>
        <time>2021-02-28T14:00:20Z</time>
      </trkpt>
      <trkpt lat="42.85841" lon="1.82812">
        <ele>918.886</ele>
        <time>2021-02-28T14:00:22Z</time>
      </trkpt>
      <trkpt lat="42.85843" lon="1.82808">
        <ele>919.662</ele>
        <time>2021-02-28T14:00:24Z</time>
      </trkpt>
      <trkpt lat="42.85845" lon="1.82804">
        <ele>920.445</ele>
        <time>2021-02-28T14:00:26Z</time>
      </trkpt>
      <trkpt lat="42.85848" lon="1.82801">
        <ele>920.543</ele>
        <time>2021-02-28T14:00:28Z</time>
      </trkpt>
      <trkpt lat="42.8585" lon="1.82798">
        <ele>919.792</ele>
        <time>2021-02-28T14:00:30Z</time>
      </trkpt>
      <trkpt lat="42.85852" lon="1.82795">
        <ele>921.22</ele>
        <time>2021-02-28T14:00:32Z</time>
      </trkpt>
      <trkpt lat="42.85855" lon="1.82792">
        <ele>922.14</ele>
        <time>2021-02-28T14:00:34Z</time>
      </trkpt>
      <trkpt lat="42.85857" lon="1.82788">
        <ele>921.38</ele>
        <time>2021-02-28T14:00:36Z</time>
      </trkpt>
      <trkpt lat="42.8586" lon="1.82785">
        <ele>921.024</ele>
        <time>2021-02-28T14:00:38Z</time>
      </trkpt>
      <trkpt lat="42.85862" lon="1.82782">
        <ele>920.755</ele>
        <time>2021-02-28T14:00:40Z</time>
      </trkpt>
      <trkpt lat="42.85865" lon="1.82779">
        <ele>921.486</ele>
        <time>2021-02-28T14:00:42Z</time>
      </trkpt>
      <trkpt lat="42.85867" lon="1.82776">
        <ele>921.312</ele>
        <time>2021-02-28T14:00:44Z</time>
      </trkpt>
      <trkpt lat="42.85869" lon="1.82773">
        <ele>921.472</ele>
        <time>2021-02-28T14:00:46Z</time>
      </trkpt>
      <trkpt lat="42.85871" lon="1.8277">
        <ele>921.63</ele>
        <time>2021-02-28T14:00:48Z</time>
      </trkpt>
      <trkpt lat="42.85873" lon="1.82768">
        <ele>921.112</ele>
        <time>2021-02-28T14:00:50Z</time>
      </trkpt>
      <trkpt lat="42.85876" lon="1.82765">
        <ele>921.479</ele>
        <time>2021-02-28T14:00:52Z</time>
      </trkpt>
      <trkpt lat="42.85878" lon="1.82762">
        <ele>921.783</ele>
        <time>2021-02-28T14:00:54Z</time>
      </trkpt>
      <trkpt lat="42.8588" lon="1.82758">
        <ele>921.689</ele>
        <time>2021-02-28T14:00:56Z</time>
      </trkpt>
      <trkpt lat="42.85883" lon="1.82756">
        <ele>921.333</ele>
        <time>2021-02-28T14:00:58Z</time>
      </trkpt>
      <trkpt lat="42.85885" lon="1.82753">
        <ele>920.869</ele>
        <time>2021-02-28T14:01:00Z</time>
      </trkpt>
      <trkpt lat="42.85887" lon="1.82751">
        <ele>920.958</ele>
        <time>2021-02-28T14:01:02Z</time>
      </trkpt>
      <trkpt lat="42.8589" lon="1.82749">
        <ele>921.596</ele>
        <time>2021-02-28T14:01:04Z</time>
      </trkpt>
      <trkpt lat="42.85892" lon="1.82747">
        <ele>921.377</ele>
        <time>2021-02-28T14:01:06Z</time>
      </trkpt>
      <trkpt lat="42.85895" lon="1.82745">
        <ele>921.609</ele>
        <time>2021-02-28T14:01:08Z</time>
      </trkpt>
      <trkpt lat="42.85898" lon="1.82744">
        <ele>921.469</ele>
        <time>2021-02-28T14:01:10Z</time>
      </trkpt>
      <trkpt lat="42.859" lon="1.82744">
        <ele>921.057</ele>
        <time>2021-02-28T14:01:12Z</time>
      </trkpt>
      <trkpt lat="42.85903" lon="1.82743">
        <ele>920.852</ele>
        <time>2021-02-28T14:01:14Z</time>
      </trkpt>
      <trkpt lat="42.85906" lon="1.82742">
        <ele>920.22</ele>
        <time>2021-02-28T14:01:16Z</time>
      </trkpt>
      <trkpt lat="42.85909" lon="1.82742">
        <ele>919.876</ele>
        <time>2021-02-28T14:01:18Z</time>
      </trkpt>
      <trkpt lat="42.85912" lon="1.8274">
        <ele>919.008</ele>
        <time>2021-02-28T14:01:20Z</time>
      </trkpt>
      <trkpt lat="42.85914" lon="1.82739">
        <ele>918.199</ele>
        <time>2021-02-28T14:01:22Z</time>
      </trkpt>
      <trkpt lat="42.85917" lon="1.82738">
        <ele>918.304</ele>
        <time>2021-02-28T14:01:24Z</time>
      </trkpt>
      <trkpt lat="42.85919" lon="1.82737">
        <ele>917.388</ele>
        <time>2021-02-28T14:01:26Z</time>
      </trkpt>
      <trkpt lat="42.85922" lon="1.82736">
        <ele>916.804</ele>
        <time>2021-02-28T14:01:28Z</time>
      </trkpt>
      <trkpt lat="42.85925" lon="1.82736">
        <ele>917.577</ele>
        <time>2021-02-28T14:01:30Z</time>
      </trkpt>
      <trkpt lat="42.85927" lon="1.82735">
        <ele>918.109</ele>
        <time>2021-02-28T14:01:32Z</time>
      </trkpt>
      <trkpt lat="42.8593" lon="1.82734">
        <ele>917.003</ele>
        <time>2021-02-28T14:01:34Z</time>
      </trkpt>
      <trkpt lat="42.85933" lon="1.82733">
        <ele>917.051</ele>
        <time>2021-02-28T14:01:36Z</time>
      </trkpt>
      <trkpt lat="42.85934" lon="1.82733">
        <ele>916.371</ele>
        <time>2021-02-28T14:01:38Z</time>
      </trkpt>
      <trkpt lat="42.85936" lon="1.82732">
        <ele>915.961</ele>
        <time>2021-02-28T14:01:40Z</time>
      </trkpt>
      <trkpt lat="42.85939" lon="1.82732">
        <ele>916.486</ele>
        <time>2021-02-28T14:01:42Z</time>
      </trkpt>
      <trkpt lat="42.85942" lon="1.82731">
        <ele>916.372</ele>
        <time>2021-02-28T14:01:44Z</time>
      </trkpt>
      <trkpt lat="42.85944" lon="1.82731">
        <ele>916.429</ele>
        <time>2021-02-28T14:01:46Z</time>
      </trkpt>
      <trkpt lat="42.85946" lon="1.82731">
        <ele>916.727</ele>
        <time>2021-02-28T14:01:48Z</time>
      </trkpt>
      <trkpt lat="42.85949" lon="1.82731">
        <ele>916.72</ele>
        <time>2021-02-28T14:01:50Z</time>
      </trkpt>
      <trkpt lat="42.85952" lon="1.82731">
        <ele>917.96</ele>
        <time>2021-02-28T14:01:52Z</time>
      </trkpt>
      <trkpt lat="42.85954" lon="1.82732">
        <ele>918.661</ele>
        <time>2021-02-28T14:01:54Z</time>
      </trkpt>
      <trkpt lat="42.85958" lon="1.82732">
        <ele>918.005</ele>
        <time>2021-02-28T14:01:56Z</time>
      </trkpt>
      <trkpt lat="42.8596" lon="1.82733">
        <ele>918.684</ele>
        <time>2021-02-28T14:01:58Z</time>
      </trkpt>
      <trkpt lat="42.85963" lon="1.82734">
        <ele>918.214</ele>
        <time>2021-02-28T14:02:00Z</time>
      </trkpt>
      <trkpt lat="42.85966" lon="1.82734">
        <ele>917.962</ele>
        <time>2021-02-28T14:02:02Z</time>
      </trkpt>
      <trkpt lat="42.85968" lon="1.82735">
        <ele>918.992</ele>
        <time>2021-02-28T14:02:04Z</time>
      </trkpt>
      <trkpt lat="42.85971" lon="1.82736">
        <ele>919.303</ele>
        <time>2021-02-28T14:02:06Z</time>
      </trkpt>
      <trkpt lat="42.85974" lon="1.82738">
        <ele>919.071</ele>
        <time>2021-02-28T14:02:08Z</time>
      </trkpt>
      <trkpt lat="42.85977" lon="1.82739">
        <ele>917.778</ele>
        <time>2021-02-28T14:02:10Z</time>
      </trkpt>
      <trkpt lat="42.8598" lon="1.82741">
        <ele>916.58</ele>
        <time>2021-02-28T14:02:12Z</time>
      </trkpt>
      <trkpt lat="42.85983" lon="1.82742">
        <ele>915.862</ele>
        <time>2021-02-28T14:02:14Z</time>
      </trkpt>
      <trkpt lat="42.85986" lon="1.82744">
        <ele>914.929</ele>
        <time>2021-02-28T14:02:16Z</time>
      </trkpt>
      <trkpt lat="42.85988" lon="1.82745">
        <ele>915.229</ele>
        <time>2021-02-28T14:02:18Z</time>
      </trkpt>
      <trkpt lat="42.85991" lon="1.82748">
        <ele>914.853</ele>
        <time>2021-02-28T14:02:20Z</time>
      </trkpt>
      <trkpt lat="42.85993" lon="1.8275">
        <ele>913.828</ele>
        <time>2021-02-28T14:02:22Z</time>
      </trkpt>
      <trkpt lat="42.85995" lon="1.82752">
        <ele>913.182</ele>
        <time>2021-02-28T14:02:24Z</time>
      </trkpt>
      <trkpt lat="42.85998" lon="1.82754">
        <ele>911.865</ele>
        <time>2021-02-28T14:02:26Z</time>
      </trkpt>
      <trkpt lat="42.86" lon="1.82757">
        <ele>911.912</ele>
        <time>2021-02-28T14:02:28Z</time>
      </trkpt>
      <trkpt lat="42.86002" lon="1.82759">
        <ele>911.8</ele>
        <time>2021-02-28T14:02:30Z</time>
      </trkpt>
      <trkpt lat="42.86005" lon="1.82761">
        <ele>911.415</ele>
        <time>2021-02-28T14:02:32Z</time>
      </trkpt>
      <trkpt lat="42.86007" lon="1.82763">
        <ele>911.129</ele>
        <time>2021-02-28T14:02:34Z</time>
      </trkpt>
      <trkpt lat="42.86009" lon="1.82764">
        <ele>910.863</ele>
        <time>2021-02-28T14:02:36Z</time>
      </trkpt>
      <trkpt lat="42.86012" lon="1.82766">
        <ele>910.631</ele>
        <time>2021-02-28T14:02:38Z</time>
      </trkpt>
      <trkpt lat="42.86014" lon="1.82766">
        <ele>910.434</ele>
        <time>2021-02-28T14:02:40Z</time>
      </trkpt>
      <trkpt lat="42.86017" lon="1.82767">
        <ele>910.339</ele>
        <time>2021-02-28T14:02:42Z</time>
      </trkpt>
      <trkpt lat="42.86019" lon="1.82766">
        <ele>909.745</ele>
        <time>2021-02-28T14:02:44Z</time>
      </trkpt>
      <trkpt lat="42.86021" lon="1.82766">
        <ele>910.337</ele>
        <time>2021-02-28T14:02:46Z</time>
      </trkpt>
      <trkpt lat="42.86023" lon="1.82766">
        <ele>909.607</ele>
        <time>2021-02-28T14:02:48Z</time>
      </trkpt>
      <trkpt lat="42.86026" lon="1.82766">
        <ele>909.84</ele>
        <time>2021-02-28T14:02:50Z</time>
      </trkpt>
      <trkpt lat="42.86028" lon="1.82766">
        <ele>910.044</ele>
        <time>2021-02-28T14:02:52Z</time>
      </trkpt>
      <trkpt lat="42.86031" lon="1.82766">
        <ele>909.581</ele>
        <time>2021-02-28T14:02:54Z</time>
      </trkpt>
      <trkpt lat="42.86034" lon="1.82766">
        <ele>909.14</ele>
        <time>2021-02-28T14:02:56Z</time>
      </trkpt>
      <trkpt lat="42.86036" lon="1.82765">
        <ele>909.127</ele>
        <time>2021-02-28T14:02:58Z</time>
      </trkpt>
      <trkpt lat="42.86039" lon="1.82765">
        <ele>909.428</ele>
        <time>2021-02-28T14:03:00Z</time>
      </trkpt>
      <trkpt lat="42.86042" lon="1.82765">
        <ele>909.691</ele>
        <time>2021-02-28T14:03:02Z</time>
      </trkpt>
      <trkpt lat="42.86044" lon="1.82764">
        <ele>909.533</ele>
        <time>2021-02-28T14:03:04Z</time>
      </trkpt>
      <trkpt lat="42.86047" lon="1.82764">
        <ele>909.507</ele>
        <time>2021-02-28T14:03:06Z</time>
      </trkpt>
      <trkpt lat="42.86051" lon="1.82764">
        <ele>910.448</ele>
        <time>2021-02-28T14:03:08Z</time>
      </trkpt>
      <trkpt lat="42.86053" lon="1.82764">
        <ele>910.02</ele>
        <time>2021-02-28T14:03:10Z</time>
      </trkpt>
      <trkpt lat="42.86056" lon="1.82765">
        <ele>909.787</ele>
        <time>2021-02-28T14:03:12Z</time>
      </trkpt>
      <trkpt lat="42.86058" lon="1.82765">
        <ele>910.365</ele>
        <time>2021-02-28T14:03:14Z</time>
      </trkpt>
      <trkpt lat="42.86061" lon="1.82766">
        <ele>910.381</ele>
        <time>2021-02-28T14:03:16Z</time>
      </trkpt>
      <trkpt lat="42.86063" lon="1.82767">
        <ele>910.239</ele>
        <time>2021-02-28T14:03:18Z</time>
      </trkpt>
      <trkpt lat="42.86066" lon="1.82768">
        <ele>910.092</ele>
        <time>2021-02-28T14:03:20Z</time>
      </trkpt>
      <trkpt lat="42.86068" lon="1.82768">
        <ele>910.895</ele>
        <time>2021-02-28T14:03:22Z</time>
      </trkpt>
      <trkpt lat="42.8607" lon="1.82769">
        <ele>910.242</ele>
        <time>2021-02-28T14:03:24Z</time>
      </trkpt>
      <trkpt lat="42.86073" lon="1.8277">
        <ele>909.696</ele>
        <time>2021-02-28T14:03:26Z</time>
      </trkpt>
      <trkpt lat="42.86075" lon="1.8277">
        <ele>909.323</ele>
        <time>2021-02-28T14:03:28Z</time>
      </trkpt>
      <trkpt lat="42.86078" lon="1.8277">
        <ele>909.484</ele>
        <time>2021-02-28T14:03:30Z</time>
      </trkpt>
      <trkpt lat="42.86081" lon="1.8277">
        <ele>909.459</ele>
        <time>2021-02-28T14:03:32Z</time>
      </trkpt>
      <trkpt lat="42.86085" lon="1.82771">
        <ele>909.339</ele>
        <time>2021-02-28T14:03:34Z</time>
      </trkpt>
      <trkpt lat="42.86087" lon="1.82772">
        <ele>909.058</ele>
        <time>2021-02-28T14:03:36Z</time>
      </trkpt>
      <trkpt lat="42.8609" lon="1.82773">
        <ele>908.919</ele>
        <time>2021-02-28T14:03:38Z</time>
      </trkpt>
      <trkpt lat="42.86093" lon="1.82774">
        <ele>908.415</ele>
        <time>2021-02-28T14:03:40Z</time>
      </trkpt>
      <trkpt lat="42.86095" lon="1.82774">
        <ele>908.417</ele>
        <time>2021-02-28T14:03:42Z</time>
      </trkpt>
      <trkpt lat="42.86098" lon="1.82774">
        <ele>908.953</ele>
        <time>2021-02-28T14:03:44Z</time>
      </trkpt>
      <trkpt lat="42.86101" lon="1.82775">
        <ele>909.521</ele>
        <time>2021-02-28T14:03:46Z</time>
      </trkpt>
      <trkpt lat="42.86103" lon="1.82775">
        <ele>909.968</ele>
        <time>2021-02-28T14:03:48Z</time>
      </trkpt>
      <trkpt lat="42.86105" lon="1.82775">
        <ele>910.428</ele>
        <time>2021-02-28T14:03:50Z</time>
      </trkpt>
      <trkpt lat="42.86108" lon="1.82775">
        <ele>911.279</ele>
        <time>2021-02-28T14:03:52Z</time>
      </trkpt>
      <trkpt lat="42.8611" lon="1.82776">
        <ele>912.099</ele>
        <time>2021-02-28T14:03:54Z</time>
      </trkpt>
      <trkpt lat="42.86113" lon="1.82775">
        <ele>912.079</ele>
        <time>2021-02-28T14:03:56Z</time>
      </trkpt>
      <trkpt lat="42.86115" lon="1.82776">
        <ele>912.477</ele>
        <time>2021-02-28T14:03:58Z</time>
      </trkpt>
      <trkpt lat="42.86117" lon="1.82776">
        <ele>912.643</ele>
        <time>2021-02-28T14:04:00Z</time>
      </trkpt>
      <trkpt lat="42.86119" lon="1.82777">
        <ele>913.307</ele>
        <time>2021-02-28T14:04:02Z</time>
      </trkpt>
      <trkpt lat="42.86121" lon="1.82778">
        <ele>913.791</ele>
        <time>2021-02-28T14:04:04Z</time>
      </trkpt>
      <trkpt lat="42.86124" lon="1.82778">
        <ele>913.025</ele>
        <time>2021-02-28T14:04:06Z</time>
      </trkpt>
      <trkpt lat="42.86126" lon="1.82778">
        <ele>913.888</ele>
        <time>2021-02-28T14:04:08Z</time>
      </trkpt>
      <trkpt lat="42.86129" lon="1.82779">
        <ele>914.103</ele>
        <time>2021-02-28T14:04:10Z</time>
      </trkpt>
      <trkpt lat="42.86131" lon="1.82779">
        <ele>914.87</ele>
        <time>2021-02-28T14:04:12Z</time>
      </trkpt>
      <trkpt lat="42.86133" lon="1.8278">
        <ele>915.254</ele>
        <time>2021-02-28T14:04:14Z</time>
      </trkpt>
      <trkpt lat="42.86135" lon="1.8278">
        <ele>916.019</ele>
        <time>2021-02-28T14:04:16Z</time>
      </trkpt>
      <trkpt lat="42.86137" lon="1.82781">
        <ele>916.285</ele>
        <time>2021-02-28T14:04:18Z</time>
      </trkpt>
      <trkpt lat="42.86138" lon="1.82781">
        <ele>916.347</ele>
        <time>2021-02-28T14:04:20Z</time>
      </trkpt>
      <trkpt lat="42.8614" lon="1.82783">
        <ele>916.471</ele>
        <time>2021-02-28T14:04:22Z</time>
      </trkpt>
      <trkpt lat="42.86142" lon="1.82784">
        <ele>916.713</ele>
        <time>2021-02-28T14:04:24Z</time>
      </trkpt>
      <trkpt lat="42.86144" lon="1.82786">
        <ele>917.052</ele>
        <time>2021-02-28T14:04:26Z</time>
      </trkpt>
      <trkpt lat="42.86146" lon="1.82787">
        <ele>917.134</ele>
        <time>2021-02-28T14:04:28Z</time>
      </trkpt>
      <trkpt lat="42.86149" lon="1.82789">
        <ele>916.861</ele>
        <time>2021-02-28T14:04:30Z</time>
      </trkpt>
      <trkpt lat="42.86151" lon="1.82791">
        <ele>916.731</ele>
        <time>2021-02-28T14:04:32Z</time>
      </trkpt>
      <trkpt lat="42.86153" lon="1.82792">
        <ele>916.904</ele>
        <time>2021-02-28T14:04:34Z</time>
      </trkpt>
      <trkpt lat="42.86155" lon="1.82792">
        <ele>917.955</ele>
        <time>2021-02-28T14:04:36Z</time>
      </trkpt>
      <trkpt lat="42.86156" lon="1.82794">
        <ele>918.064</ele>
        <time>2021-02-28T14:04:38Z</time>
      </trkpt>
      <trkpt lat="42.86156" lon="1.82794">
        <ele>918.079</ele>
        <time>2021-02-28T14:04:40Z</time>
      </trkpt>
      <trkpt lat="42.86156" lon="1.82794">
        <ele>918.077</ele>
        <time>2021-02-28T14:04:42Z</time>
      </trkpt>
      <trkpt lat="42.86156" lon="1.82794">
        <ele>918.08</ele>
        <time>2021-02-28T14:04:44Z</time>
      </trkpt>
      <trkpt lat="42.86156" lon="1.82795">
        <ele>918.076</ele>
        <time>2021-02-28T14:04:46Z</time>
      </trkpt>
      <trkpt lat="42.86156" lon="1.82795">
        <ele>918.071</ele>
        <time>2021-02-28T14:04:48Z</time>
      </trkpt>
      <trkpt lat="42.86156" lon="1.82795">
        <ele>918.056</ele>
        <time>2021-02-28T14:04:51Z</time>
      </trkpt>
      <trkpt lat="42.86156" lon="1.82795">
        <ele>918.058</ele>
        <time>2021-02-28T14:04:53Z</time>
      </trkpt>
      <trkpt lat="42.86156" lon="1.82795">
        <ele>918.13</ele>
        <time>2021-02-28T14:04:55Z</time>
      </trkpt>
      <trkpt lat="42.86156" lon="1.82795">
        <ele>918.417</ele>
        <time>2021-02-28T14:04:57Z</time>
      </trkpt>
      <trkpt lat="42.86156" lon="1.82795">
        <ele>919.12</ele>
        <time>2021-02-28T14:04:59Z</time>
      </trkpt>
      <trkpt lat="42.86156" lon="1.82795">
        <ele>919.14</ele>
        <time>2021-02-28T14:05:01Z</time>
      </trkpt>
      <trkpt lat="42.86156" lon="1.82795">
        <ele>919.14</ele>
        <time>2021-02-28T14:05:03Z</time>
      </trkpt>
      <trkpt lat="42.86156" lon="1.82795">
        <ele>919.148</ele>
        <time>2021-02-28T14:05:05Z</time>
      </trkpt>
      <trkpt lat="42.86156" lon="1.82795">
        <ele>919.144</ele>
        <time>2021-02-28T14:05:07Z</time>
      </trkpt>
      <trkpt lat="42.86156" lon="1.82795">
        <ele>919.129</ele>
        <time>2021-02-28T14:05:09Z</time>
      </trkpt>
      <trkpt lat="42.86155" lon="1.82793">
        <ele>915.867</ele>
        <time>2021-02-28T14:05:11Z</time>
      </trkpt>
      <trkpt lat="42.86157" lon="1.82794">
        <ele>916.655</ele>
        <time>2021-02-28T14:05:13Z</time>
      </trkpt>
      <trkpt lat="42.86156" lon="1.82794">
        <ele>916.914</ele>
        <time>2021-02-28T14:05:15Z</time>
      </trkpt>
      <trkpt lat="42.86156" lon="1.82795">
        <ele>916.432</ele>
        <time>2021-02-28T14:05:17Z</time>
      </trkpt>
      <trkpt lat="42.86156" lon="1.82795">
        <ele>917.908</ele>
        <time>2021-02-28T14:05:19Z</time>
      </trkpt>
      <trkpt lat="42.86156" lon="1.82795">
        <ele>918.019</ele>
        <time>2021-02-28T14:05:21Z</time>
      </trkpt>
      <trkpt lat="42.86155" lon="1.82795">
        <ele>918.408</ele>
        <time>2021-02-28T14:05:23Z</time>
      </trkpt>
      <trkpt lat="42.86155" lon="1.82795">
        <ele>918.437</ele>
        <time>2021-02-28T14:05:25Z</time>
      </trkpt>
      <trkpt lat="42.86156" lon="1.82794">
        <ele>918.456</ele>
        <time>2021-02-28T14:05:27Z</time>
      </trkpt>
      <trkpt lat="42.86155" lon="1.82795">
        <ele>918.558</ele>
        <time>2021-02-28T14:05:29Z</time>
      </trkpt>
      <trkpt lat="42.86155" lon="1.82795">
        <ele>918.468</ele>
        <time>2021-02-28T14:05:31Z</time>
      </trkpt>
    </trkseg>
  </trk>
</gpx>